<?xml version='1.0' encoding='UTF-8'?><gpx version="1.1" creator="JPX - https://github.com/jenetics/jpx" xmlns="http://www.topografix.com/GPX/1/1"><trk><trkseg><trkpt lat="42.089592690440064" lon="11.792904916637925"><ele>2.0</ele><time>2026-04-17T17:21:21.001Z</time></trkpt><trkpt lat="42.089642526523384" lon="11.792852592734754"><ele>1.9999999999999998</ele><time>2026-04-17T17:21:27.001Z</time></trkpt><trkpt lat="42.089665162119694" lon="11.792773248172992"><ele>2.0</ele><time>2026-04-17T17:21:33.001Z</time></trkpt><trkpt lat="42.08971155230965" lon="11.792709324120509"><ele>2.0</ele><time>2026-04-17T17:21:41.001Z</time></trkpt><trkpt lat="42.089722638635806" lon="11.792614145480808"><ele>1.9999999999999998</ele><time>2026-04-17T17:22:01.001Z</time></trkpt><trkpt lat="42.089771236346365" lon="11.792556528612025"><ele>2.0</ele><time>2026-04-17T17:22:08.001Z</time></trkpt><trkpt lat="42.08981686167676" lon="11.79249135189038"><ele>2.0</ele><time>2026-04-17T17:22:17.999Z</time></trkpt><trkpt lat="42.08976424935739" lon="11.792439849602793"><ele>2.0</ele><time>2026-04-17T17:30:04.001Z</time></trkpt><trkpt lat="42.08976216968554" lon="11.792342553572551"><ele>1.9999999999999998</ele><time>2026-04-17T17:30:10.001Z</time></trkpt><trkpt lat="42.08975271420713" lon="11.792256910016155"><ele>2.0</ele><time>2026-04-17T17:30:17.001Z</time></trkpt><trkpt lat="42.089770960091954" lon="11.792172610812155"><ele>2.0</ele><time>2026-04-17T17:30:26.001Z</time></trkpt><trkpt lat="42.08983790875027" lon="11.79213326460375"><ele>1.9999999999999998</ele><time>2026-04-17T17:47:01Z</time></trkpt><trkpt lat="42.08992697878141" lon="11.79211053561413"><ele>2.0</ele><time>2026-04-17T17:50:15Z</time></trkpt><trkpt lat="42.08988081938188" lon="11.792174153575376"><ele>2.0</ele><time>2026-04-17T17:51:34Z</time></trkpt><trkpt lat="42.08982612525357" lon="11.792222361666221"><ele>2.0</ele><time>2026-04-17T17:51:39Z</time></trkpt><trkpt lat="42.08976475787025" lon="11.792253792214186"><ele>1.9999999999999998</ele><time>2026-04-17T17:51:43Z</time></trkpt><trkpt lat="42.08969919077173" lon="11.792242451917353"><ele>2.0</ele><time>2026-04-17T17:51:47Z</time></trkpt><trkpt lat="42.08964703204808" lon="11.792191192704557"><ele>2.0</ele><time>2026-04-17T17:52:17Z</time></trkpt><trkpt lat="42.089717541968625" lon="11.792153476854345"><ele>1.9999999999999998</ele><time>2026-04-17T17:52:23Z</time></trkpt><trkpt lat="42.08978221839174" lon="11.792137122142238"><ele>2.0</ele><time>2026-04-17T17:52:28Z</time></trkpt><trkpt lat="42.08984697600754" lon="11.792116037443575"><ele>2.0</ele><time>2026-04-17T17:52:55Z</time></trkpt><trkpt lat="42.08992432458804" lon="11.792120658877526"><ele>2.0</ele><time>2026-04-17T18:07:18.001Z</time></trkpt><trkpt lat="42.08988801477027" lon="11.79219057606126"><ele>1.9999999999999998</ele><time>2026-04-17T18:07:36.001Z</time></trkpt><trkpt lat="42.08983883329687" lon="11.792243707948849"><ele>2.0</ele><time>2026-04-17T18:07:42.001Z</time></trkpt><trkpt lat="42.0897746522835" lon="11.792292422528126"><ele>2.0</ele><time>2026-04-17T18:07:49.001Z</time></trkpt><trkpt lat="42.08971852504139" lon="11.792350003996594"><ele>1.9999999999999998</ele><time>2026-04-17T18:07:55.001Z</time></trkpt><trkpt lat="42.08966808538228" lon="11.792408935367884"><ele>2.0</ele><time>2026-04-17T18:08:01.001Z</time></trkpt><trkpt lat="42.08962601689063" lon="11.792489931949214"><ele>2.0</ele><time>2026-04-17T18:08:08.001Z</time></trkpt><trkpt lat="42.08960279148566" lon="11.792571426418574"><ele>2.0</ele><time>2026-04-17T18:08:14.001Z</time></trkpt><trkpt lat="42.089575704605096" lon="11.792658063306224"><ele>2.0</ele><time>2026-04-17T18:08:20.001Z</time></trkpt><trkpt lat="42.08955516738514" lon="11.792749213096535"><ele>2.0</ele><time>2026-04-17T18:08:26.001Z</time></trkpt><trkpt lat="42.08953965516407" lon="11.79283388721357"><ele>2.0</ele><time>2026-04-17T18:08:32.001Z</time></trkpt><trkpt lat="42.08952237447189" lon="11.792930323357233"><ele>2.0</ele><time>2026-04-17T18:08:39.001Z</time></trkpt></trkseg><trkseg><trkpt lat="42.08142360031999" lon="11.809390226640296"><ele>17.0</ele><time>2026-04-18T08:46:34Z</time></trkpt><trkpt lat="42.08146599813918" lon="11.809453579005007"><ele>17.0</ele><time>2026-04-18T08:46:35Z</time></trkpt><trkpt lat="42.08147070205236" lon="11.809555332856567"><ele>17.0</ele><time>2026-04-18T08:46:36Z</time></trkpt><trkpt lat="42.08150661362174" lon="11.809634371321335"><ele>17.0</ele><time>2026-04-18T08:46:37Z</time></trkpt><trkpt lat="42.08154272661816" lon="11.809713853939053"><ele>17.0</ele><time>2026-04-18T08:46:38Z</time></trkpt><trkpt lat="42.08158218471909" lon="11.809799127784727"><ele>17.0</ele><time>2026-04-18T08:46:39Z</time></trkpt><trkpt lat="42.08164065377426" lon="11.809927130431932"><ele>17.6</ele><time>2026-04-18T08:46:41Z</time></trkpt><trkpt lat="42.08170115512482" lon="11.81005958222777"><ele>18.2</ele><time>2026-04-18T08:46:43Z</time></trkpt><trkpt lat="42.08176781727211" lon="11.810205521609104"><ele>18.8</ele><time>2026-04-18T08:46:45Z</time></trkpt><trkpt lat="42.08180287845382" lon="11.810282279798049"><ele>19.4</ele><time>2026-04-18T08:46:46Z</time></trkpt><trkpt lat="42.08186278603535" lon="11.810415806184292"><ele>20.0</ele><time>2026-04-18T08:46:48Z</time></trkpt><trkpt lat="42.081942802231836" lon="11.81052738846755"><ele>20.5</ele><time>2026-04-18T08:46:50Z</time></trkpt><trkpt lat="42.081999387760064" lon="11.810628400702674"><ele>21.0</ele><time>2026-04-18T08:46:52Z</time></trkpt><trkpt lat="42.08203617933545" lon="11.810703753073996"><ele>21.5</ele><time>2026-04-18T08:46:54Z</time></trkpt><trkpt lat="42.08208278840035" lon="11.810811634559606"><ele>22.0</ele><time>2026-04-18T08:46:57Z</time></trkpt><trkpt lat="42.082127827553414" lon="11.810901111021343"><ele>22.5</ele><time>2026-04-18T08:46:59Z</time></trkpt><trkpt lat="42.08216600657107" lon="11.810977270837308"><ele>23.0</ele><time>2026-04-18T08:47:01Z</time></trkpt><trkpt lat="42.08220394451313" lon="11.811071622355554"><ele>23.333333333333336</ele><time>2026-04-18T08:47:03Z</time></trkpt><trkpt lat="42.082254886953734" lon="11.81117684387619"><ele>23.666666666666668</ele><time>2026-04-18T08:47:05Z</time></trkpt><trkpt lat="42.082319969456" lon="11.811320136364635"><ele>24.0</ele><time>2026-04-18T08:47:07Z</time></trkpt><trkpt lat="42.082353420001404" lon="11.811393295605994"><ele>24.333333333333336</ele><time>2026-04-18T08:47:08Z</time></trkpt><trkpt lat="42.08239003491255" lon="11.811475694858247"><ele>24.666666666666668</ele><time>2026-04-18T08:47:09Z</time></trkpt><trkpt lat="42.082423000514176" lon="11.811550032543083"><ele>25.0</ele><time>2026-04-18T08:47:10Z</time></trkpt><trkpt lat="42.08246100056569" lon="11.811621015338432"><ele>25.8</ele><time>2026-04-18T08:47:11Z</time></trkpt><trkpt lat="42.08249798928536" lon="11.811695240093604"><ele>26.6</ele><time>2026-04-18T08:47:12Z</time></trkpt><trkpt lat="42.08255984082922" lon="11.811825371978006"><ele>27.4</ele><time>2026-04-18T08:47:14Z</time></trkpt><trkpt lat="42.08260859154331" lon="11.81195818883305"><ele>28.2</ele><time>2026-04-18T08:47:16.001Z</time></trkpt><trkpt lat="42.082663086377934" lon="11.812071840190608"><ele>29.0</ele><time>2026-04-18T08:47:18.001Z</time></trkpt><trkpt lat="42.08273466428204" lon="11.812219710035322"><ele>29.0</ele><time>2026-04-18T08:47:20.001Z</time></trkpt><trkpt lat="42.08277233363921" lon="11.812304343796155"><ele>29.0</ele><time>2026-04-18T08:47:21.001Z</time></trkpt><trkpt lat="42.082823694450816" lon="11.812451060230133"><ele>29.0</ele><time>2026-04-18T08:47:23.001Z</time></trkpt><trkpt lat="42.08287878064705" lon="11.812549975819312"><ele>29.0</ele><time>2026-04-18T08:47:25.001Z</time></trkpt><trkpt lat="42.08291875774524" lon="11.812643010453419"><ele>29.0</ele><time>2026-04-18T08:47:27.001Z</time></trkpt><trkpt lat="42.082966527555875" lon="11.812761058505014"><ele>29.6</ele><time>2026-04-18T08:47:29.001Z</time></trkpt><trkpt lat="42.08297817610894" lon="11.812844706086397"><ele>30.2</ele><time>2026-04-18T08:47:30.001Z</time></trkpt><trkpt lat="42.08309442052868" lon="11.812973342582191"><ele>30.800000000000004</ele><time>2026-04-18T08:47:32.001Z</time></trkpt><trkpt lat="42.083145538910124" lon="11.813060065801853"><ele>31.400000000000002</ele><time>2026-04-18T08:47:33.001Z</time></trkpt><trkpt lat="42.08319653095661" lon="11.813165990620579"><ele>32.0</ele><time>2026-04-18T08:47:34.001Z</time></trkpt><trkpt lat="42.083241357065276" lon="11.813252254049482"><ele>32.14285714285714</ele><time>2026-04-18T08:47:35.001Z</time></trkpt><trkpt lat="42.083275447715295" lon="11.813328207228155"><ele>32.285714285714285</ele><time>2026-04-18T08:47:36.001Z</time></trkpt><trkpt lat="42.08330972543907" lon="11.813409694232375"><ele>32.42857142857143</ele><time>2026-04-18T08:47:37.001Z</time></trkpt><trkpt lat="42.08334506541749" lon="11.813490775679348"><ele>32.57142857142857</ele><time>2026-04-18T08:47:38.001Z</time></trkpt><trkpt lat="42.083381784629815" lon="11.813573013893063"><ele>32.714285714285715</ele><time>2026-04-18T08:47:39.001Z</time></trkpt><trkpt lat="42.08341511175758" lon="11.813650828375533"><ele>32.857142857142854</ele><time>2026-04-18T08:47:40.001Z</time></trkpt><trkpt lat="42.08345120020207" lon="11.813730209083028"><ele>33.0</ele><time>2026-04-18T08:47:41.001Z</time></trkpt><trkpt lat="42.08349681177379" lon="11.81381886747533"><ele>33.4</ele><time>2026-04-18T08:47:42.001Z</time></trkpt><trkpt lat="42.083550531820194" lon="11.813928351995298"><ele>33.8</ele><time>2026-04-18T08:47:43.001Z</time></trkpt><trkpt lat="42.08361063092226" lon="11.814053990917863"><ele>34.2</ele><time>2026-04-18T08:47:44.001Z</time></trkpt><trkpt lat="42.08367314313046" lon="11.814196662485875"><ele>34.6</ele><time>2026-04-18T08:47:45.001Z</time></trkpt><trkpt lat="42.08373392850689" lon="11.814321425527076"><ele>35.0</ele><time>2026-04-18T08:47:46.001Z</time></trkpt><trkpt lat="42.083783822947474" lon="11.814436720537266"><ele>35.5</ele><time>2026-04-18T08:47:47.001Z</time></trkpt><trkpt lat="42.083829273654054" lon="11.814538394480346"><ele>36.0</ele><time>2026-04-18T08:47:48.001Z</time></trkpt><trkpt lat="42.08385362934383" lon="11.814648970346166"><ele>36.5</ele><time>2026-04-18T08:47:49.001Z</time></trkpt><trkpt lat="42.083905035631034" lon="11.814740064211014"><ele>37.0</ele><time>2026-04-18T08:47:50.001Z</time></trkpt><trkpt lat="42.08393731778328" lon="11.81484203748681"><ele>37.5</ele><time>2026-04-18T08:47:51.001Z</time></trkpt><trkpt lat="42.08396721896259" lon="11.814948014920116"><ele>38.0</ele><time>2026-04-18T08:47:52.001Z</time></trkpt><trkpt lat="42.08398603197429" lon="11.815065967615404"><ele>38.0</ele><time>2026-04-18T08:47:53.001Z</time></trkpt><trkpt lat="42.08397722569504" lon="11.815198800970446"><ele>38.0</ele><time>2026-04-18T08:47:54.001Z</time></trkpt><trkpt lat="42.083992442247705" lon="11.815340608855914"><ele>38.0</ele><time>2026-04-18T08:47:55.001Z</time></trkpt><trkpt lat="42.0840075351521" lon="11.815502334321062"><ele>38.0</ele><time>2026-04-18T08:47:56.001Z</time></trkpt><trkpt lat="42.08406516040743" lon="11.815700977354895"><ele>39.33333333333333</ele><time>2026-04-18T08:47:57.001Z</time></trkpt><trkpt lat="42.08411840161404" lon="11.81593049583464"><ele>40.666666666666664</ele><time>2026-04-18T08:47:58.001Z</time></trkpt><trkpt lat="42.08416890629772" lon="11.816169400344464"><ele>42.0</ele><time>2026-04-18T08:47:59.001Z</time></trkpt><trkpt lat="42.08423279365834" lon="11.816415654646045"><ele>42.333333333333336</ele><time>2026-04-18T08:48:00.001Z</time></trkpt><trkpt lat="42.08429704982421" lon="11.816655454120385"><ele>42.66666666666667</ele><time>2026-04-18T08:48:01.001Z</time></trkpt><trkpt lat="42.084387499876456" lon="11.816873666767902"><ele>43.0</ele><time>2026-04-18T08:48:02.001Z</time></trkpt><trkpt lat="42.08450278623796" lon="11.817069010981056"><ele>44.0</ele><time>2026-04-18T08:48:03.001Z</time></trkpt><trkpt lat="42.08458963271342" lon="11.81727826136782"><ele>45.0</ele><time>2026-04-18T08:48:04.001Z</time></trkpt><trkpt lat="42.084668934730985" lon="11.817443391641003"><ele>46.0</ele><time>2026-04-18T08:48:05.001Z</time></trkpt><trkpt lat="42.08471783016685" lon="11.817670074559599"><ele>48.333333333333336</ele><time>2026-04-18T08:48:06.001Z</time></trkpt><trkpt lat="42.08476707797382" lon="11.817888667795241"><ele>50.66666666666667</ele><time>2026-04-18T08:48:07.001Z</time></trkpt><trkpt lat="42.0848278731333" lon="11.818108865965383"><ele>53.0</ele><time>2026-04-18T08:48:08.001Z</time></trkpt><trkpt lat="42.08488376487618" lon="11.818339133422745"><ele>55.333333333333336</ele><time>2026-04-18T08:48:09.001Z</time></trkpt><trkpt lat="42.084938887615166" lon="11.81856817438789"><ele>57.66666666666667</ele><time>2026-04-18T08:48:10.001Z</time></trkpt><trkpt lat="42.08499029195106" lon="11.818795550051078"><ele>60.0</ele><time>2026-04-18T08:48:11.001Z</time></trkpt><trkpt lat="42.08503983689419" lon="11.819027846923197"><ele>60.0</ele><time>2026-04-18T08:48:12.001Z</time></trkpt><trkpt lat="42.085092109849185" lon="11.819257691085944"><ele>60.0</ele><time>2026-04-18T08:48:13.001Z</time></trkpt><trkpt lat="42.085136569675306" lon="11.819485788865176"><ele>60.0</ele><time>2026-04-18T08:48:14.001Z</time></trkpt><trkpt lat="42.085186450542935" lon="11.819720341970589"><ele>61.66666666666667</ele><time>2026-04-18T08:48:15.001Z</time></trkpt><trkpt lat="42.08526996487531" lon="11.819933457364133"><ele>63.333333333333336</ele><time>2026-04-18T08:48:16.002Z</time></trkpt><trkpt lat="42.08535050673626" lon="11.820145554195058"><ele>65.0</ele><time>2026-04-18T08:48:17.002Z</time></trkpt><trkpt lat="42.08543512394254" lon="11.820347769952628"><ele>66.66666666666667</ele><time>2026-04-18T08:48:18.002Z</time></trkpt><trkpt lat="42.08548806022756" lon="11.820559813701594"><ele>68.33333333333333</ele><time>2026-04-18T08:48:19.002Z</time></trkpt><trkpt lat="42.08553634863179" lon="11.820769726943807"><ele>70.0</ele><time>2026-04-18T08:48:20.002Z</time></trkpt><trkpt lat="42.08556856097888" lon="11.82098446308022"><ele>71.0</ele><time>2026-04-18T08:48:21.002Z</time></trkpt><trkpt lat="42.08558760633342" lon="11.821209985715075"><ele>72.0</ele><time>2026-04-18T08:48:22.002Z</time></trkpt><trkpt lat="42.08561550449343" lon="11.821444244570449"><ele>73.0</ele><time>2026-04-18T08:48:23.002Z</time></trkpt><trkpt lat="42.085636150127584" lon="11.821683689984491"><ele>74.0</ele><time>2026-04-18T08:48:24.002Z</time></trkpt><trkpt lat="42.08566106348123" lon="11.821923922841574"><ele>75.0</ele><time>2026-04-18T08:48:25.002Z</time></trkpt><trkpt lat="42.08568805600482" lon="11.822152092663034"><ele>76.0</ele><time>2026-04-18T08:48:26.002Z</time></trkpt><trkpt lat="42.08571384562723" lon="11.822385774793359"><ele>76.0</ele><time>2026-04-18T08:48:27.002Z</time></trkpt><trkpt lat="42.08573837107667" lon="11.822621855982229"><ele>76.0</ele><time>2026-04-18T08:48:28.002Z</time></trkpt><trkpt lat="42.08576045136752" lon="11.822853986009115"><ele>76.0</ele><time>2026-04-18T08:48:29.002Z</time></trkpt><trkpt lat="42.08577615225165" lon="11.823079718474471"><ele>78.66666666666666</ele><time>2026-04-18T08:48:30.002Z</time></trkpt><trkpt lat="42.08578645729015" lon="11.823302102620781"><ele>81.33333333333333</ele><time>2026-04-18T08:48:31.002Z</time></trkpt><trkpt lat="42.0857965008604" lon="11.823524714162586"><ele>84.0</ele><time>2026-04-18T08:48:32.002Z</time></trkpt><trkpt lat="42.08581949065395" lon="11.823747803706443"><ele>85.33333333333333</ele><time>2026-04-18T08:48:33.002Z</time></trkpt><trkpt lat="42.08586665881762" lon="11.823962957689133"><ele>86.66666666666666</ele><time>2026-04-18T08:48:34.002Z</time></trkpt><trkpt lat="42.085936161139294" lon="11.824179489036391"><ele>88.0</ele><time>2026-04-18T08:48:35.002Z</time></trkpt><trkpt lat="42.08600584990014" lon="11.824392398648868"><ele>90.66666666666666</ele><time>2026-04-18T08:48:36.002Z</time></trkpt><trkpt lat="42.08605687088845" lon="11.824620195970363"><ele>93.33333333333333</ele><time>2026-04-18T08:48:37.002Z</time></trkpt><trkpt lat="42.08608848230955" lon="11.824855289757854"><ele>96.0</ele><time>2026-04-18T08:48:37.998Z</time></trkpt><trkpt lat="42.086116325935535" lon="11.82509574445348"><ele>98.33333333333334</ele><time>2026-04-18T08:48:38.998Z</time></trkpt><trkpt lat="42.08613794825735" lon="11.82533964864445"><ele>100.66666666666667</ele><time>2026-04-18T08:48:39.998Z</time></trkpt><trkpt lat="42.08617831044641" lon="11.825579011791774"><ele>103.0</ele><time>2026-04-18T08:48:40.998Z</time></trkpt><trkpt lat="42.086234444092774" lon="11.825807966578616"><ele>104.66666666666667</ele><time>2026-04-18T08:48:41.998Z</time></trkpt><trkpt lat="42.086290979909634" lon="11.826038750911707"><ele>106.33333333333334</ele><time>2026-04-18T08:48:42.998Z</time></trkpt><trkpt lat="42.08637582093432" lon="11.826242186677844"><ele>108.0</ele><time>2026-04-18T08:48:43.998Z</time></trkpt><trkpt lat="42.086477335216614" lon="11.826428921257856"><ele>108.0</ele><time>2026-04-18T08:48:44.998Z</time></trkpt><trkpt lat="42.086546492219064" lon="11.826632952860708"><ele>108.0</ele><time>2026-04-18T08:48:45.998Z</time></trkpt><trkpt lat="42.08660478936476" lon="11.82685577460884"><ele>108.0</ele><time>2026-04-18T08:48:46.998Z</time></trkpt><trkpt lat="42.086648885008316" lon="11.827079258063057"><ele>110.0</ele><time>2026-04-18T08:48:47.998Z</time></trkpt><trkpt lat="42.086711464502834" lon="11.82726414048372"><ele>112.0</ele><time>2026-04-18T08:48:48.999Z</time></trkpt><trkpt lat="42.08678595382841" lon="11.827396793016865"><ele>114.0</ele><time>2026-04-18T08:48:49.999Z</time></trkpt><trkpt lat="42.086867050847886" lon="11.827508935410037"><ele>116.0</ele><time>2026-04-18T08:48:50.999Z</time></trkpt><trkpt lat="42.08693593525065" lon="11.827611718677993"><ele>116.0</ele><time>2026-04-18T08:48:51.999Z</time></trkpt><trkpt lat="42.08705780358747" lon="11.827611901483703"><ele>116.0</ele><time>2026-04-18T08:48:52.999Z</time></trkpt><trkpt lat="42.087158366184546" lon="11.827623907156344"><ele>116.0</ele><time>2026-04-18T08:48:53.999Z</time></trkpt><trkpt lat="42.08726236765561" lon="11.827643463450022"><ele>116.0</ele><time>2026-04-18T08:48:54.999Z</time></trkpt><trkpt lat="42.08733864840937" lon="11.827691767558374"><ele>116.0</ele><time>2026-04-18T08:48:55.999Z</time></trkpt><trkpt lat="42.087384531311585" lon="11.827773677395863"><ele>117.0</ele><time>2026-04-18T08:48:56.999Z</time></trkpt><trkpt lat="42.08739752476734" lon="11.827875041732156"><ele>118.0</ele><time>2026-04-18T08:48:57.999Z</time></trkpt><trkpt lat="42.08734380025832" lon="11.827974427486458"><ele>119.0</ele><time>2026-04-18T08:48:58.999Z</time></trkpt><trkpt lat="42.08732512844217" lon="11.828090767710552"><ele>120.0</ele><time>2026-04-18T08:48:59.999Z</time></trkpt><trkpt lat="42.08730912419561" lon="11.828223690191058"><ele>121.0</ele><time>2026-04-18T08:49:00.999Z</time></trkpt><trkpt lat="42.08728911962051" lon="11.828373576944394"><ele>122.75</ele><time>2026-04-18T08:49:01.999Z</time></trkpt><trkpt lat="42.08724817154914" lon="11.828521127739627"><ele>124.5</ele><time>2026-04-18T08:49:02.999Z</time></trkpt><trkpt lat="42.08723258804736" lon="11.828680177606225"><ele>126.25</ele><time>2026-04-18T08:49:03.999Z</time></trkpt><trkpt lat="42.08721480602531" lon="11.82883378005122"><ele>128.0</ele><time>2026-04-18T08:49:04.999Z</time></trkpt><trkpt lat="42.087212871134454" lon="11.828983964192817"><ele>128.0</ele><time>2026-04-18T08:49:05.999Z</time></trkpt><trkpt lat="42.08721464437351" lon="11.82913053298996"><ele>128.0</ele><time>2026-04-18T08:49:06.999Z</time></trkpt><trkpt lat="42.08720411870102" lon="11.829273983686644"><ele>128.0</ele><time>2026-04-18T08:49:07.999Z</time></trkpt><trkpt lat="42.08716879771745" lon="11.829420077306013"><ele>128.0</ele><time>2026-04-18T08:49:08.999Z</time></trkpt><trkpt lat="42.087113827545444" lon="11.829564144179757"><ele>129.0</ele><time>2026-04-18T08:49:10Z</time></trkpt><trkpt lat="42.08707169090229" lon="11.829707560961756"><ele>130.0</ele><time>2026-04-18T08:49:11Z</time></trkpt><trkpt lat="42.08707018782297" lon="11.829862036261126"><ele>131.0</ele><time>2026-04-18T08:49:12Z</time></trkpt><trkpt lat="42.087100887349315" lon="11.830025042929812"><ele>132.0</ele><time>2026-04-18T08:49:13Z</time></trkpt><trkpt lat="42.087136662881655" lon="11.830190597081476"><ele>132.25</ele><time>2026-04-18T08:49:14Z</time></trkpt><trkpt lat="42.0871786634844" lon="11.830361959895612"><ele>132.5</ele><time>2026-04-18T08:49:15Z</time></trkpt><trkpt lat="42.08721807764419" lon="11.83053394937106"><ele>132.75</ele><time>2026-04-18T08:49:16Z</time></trkpt><trkpt lat="42.087252165330064" lon="11.830715475884373"><ele>133.0</ele><time>2026-04-18T08:49:17Z</time></trkpt><trkpt lat="42.087279745188496" lon="11.83089303721808"><ele>132.75</ele><time>2026-04-18T08:49:18Z</time></trkpt><trkpt lat="42.0872723407791" lon="11.831076735821949"><ele>132.5</ele><time>2026-04-18T08:49:19Z</time></trkpt><trkpt lat="42.087295079757425" lon="11.831257405352078"><ele>132.25</ele><time>2026-04-18T08:49:20Z</time></trkpt><trkpt lat="42.08731281007998" lon="11.831444591402999"><ele>132.0</ele><time>2026-04-18T08:49:21Z</time></trkpt><trkpt lat="42.087352550271454" lon="11.831647852976023"><ele>131.0</ele><time>2026-04-18T08:49:22Z</time></trkpt><trkpt lat="42.08739717203683" lon="11.831847462838958"><ele>130.0</ele><time>2026-04-18T08:49:23Z</time></trkpt><trkpt lat="42.08744693059597" lon="11.83205879108903"><ele>129.0</ele><time>2026-04-18T08:49:24Z</time></trkpt><trkpt lat="42.08750077584059" lon="11.832253459029943"><ele>134.33333333333334</ele><time>2026-04-18T08:49:25Z</time></trkpt><trkpt lat="42.087566476008256" lon="11.832427457654001"><ele>139.66666666666669</ele><time>2026-04-18T08:49:26Z</time></trkpt><trkpt lat="42.08764942272641" lon="11.83260443786841"><ele>145.0</ele><time>2026-04-18T08:49:27Z</time></trkpt><trkpt lat="42.08773637461984" lon="11.832784823208186"><ele>146.0</ele><time>2026-04-18T08:49:28Z</time></trkpt><trkpt lat="42.08781948953494" lon="11.832964530569098"><ele>147.0</ele><time>2026-04-18T08:49:29Z</time></trkpt><trkpt lat="42.08789713814588" lon="11.833144123959979"><ele>148.0</ele><time>2026-04-18T08:49:30Z</time></trkpt><trkpt lat="42.08797732574524" lon="11.833321210434727"><ele>147.75</ele><time>2026-04-18T08:49:31Z</time></trkpt><trkpt lat="42.088051326056664" lon="11.833499694397057"><ele>147.5</ele><time>2026-04-18T08:49:32Z</time></trkpt><trkpt lat="42.088116326942206" lon="11.833671578401276"><ele>147.25</ele><time>2026-04-18T08:49:33Z</time></trkpt><trkpt lat="42.08818715055881" lon="11.833848542146622"><ele>147.0</ele><time>2026-04-18T08:49:34Z</time></trkpt><trkpt lat="42.08824844215577" lon="11.834031954360425"><ele>150.66666666666666</ele><time>2026-04-18T08:49:35Z</time></trkpt><trkpt lat="42.08829801642884" lon="11.834224278618485"><ele>154.33333333333331</ele><time>2026-04-18T08:49:36Z</time></trkpt><trkpt lat="42.088319673037724" lon="11.83442796659979"><ele>158.0</ele><time>2026-04-18T08:49:37Z</time></trkpt><trkpt lat="42.08837421761663" lon="11.834611636243721"><ele>158.66666666666666</ele><time>2026-04-18T08:49:38Z</time></trkpt><trkpt lat="42.088429335765056" lon="11.834801420514715"><ele>159.33333333333334</ele><time>2026-04-18T08:49:39Z</time></trkpt><trkpt lat="42.08849334891353" lon="11.834985011245982"><ele>160.0</ele><time>2026-04-18T08:49:40Z</time></trkpt><trkpt lat="42.088565775676344" lon="11.835163607979924"><ele>160.25</ele><time>2026-04-18T08:49:41Z</time></trkpt><trkpt lat="42.088626894640456" lon="11.835325492197043"><ele>160.5</ele><time>2026-04-18T08:49:42Z</time></trkpt><trkpt lat="42.08867432838295" lon="11.835474846223851"><ele>160.75</ele><time>2026-04-18T08:49:43Z</time></trkpt><trkpt lat="42.08869978026227" lon="11.835621102075088"><ele>161.0</ele><time>2026-04-18T08:49:44Z</time></trkpt><trkpt lat="42.08870922403466" lon="11.835767814911698"><ele>161.0</ele><time>2026-04-18T08:49:45Z</time></trkpt><trkpt lat="42.088732312578166" lon="11.835920657344273"><ele>161.0</ele><time>2026-04-18T08:49:46Z</time></trkpt><trkpt lat="42.08876805796075" lon="11.836045430918753"><ele>161.0</ele><time>2026-04-18T08:49:47.001Z</time></trkpt><trkpt lat="42.0888072940989" lon="11.83618792935311"><ele>161.0</ele><time>2026-04-18T08:49:48.001Z</time></trkpt><trkpt lat="42.088877193929214" lon="11.836347246843406"><ele>160.25</ele><time>2026-04-18T08:49:49.001Z</time></trkpt><trkpt lat="42.08895558391193" lon="11.836504728485236"><ele>159.5</ele><time>2026-04-18T08:49:50.001Z</time></trkpt><trkpt lat="42.08898469884161" lon="11.836657324130245"><ele>158.75</ele><time>2026-04-18T08:49:51.001Z</time></trkpt><trkpt lat="42.089002729671755" lon="11.836798287746085"><ele>158.0</ele><time>2026-04-18T08:49:52.001Z</time></trkpt><trkpt lat="42.089022172633655" lon="11.836966148716584"><ele>157.25</ele><time>2026-04-18T08:49:53.001Z</time></trkpt><trkpt lat="42.08905592751946" lon="11.837133456265297"><ele>156.5</ele><time>2026-04-18T08:49:54.001Z</time></trkpt><trkpt lat="42.089072651034705" lon="11.837290672354994"><ele>155.75</ele><time>2026-04-18T08:49:55.001Z</time></trkpt><trkpt lat="42.08909550591548" lon="11.83745500792301"><ele>155.0</ele><time>2026-04-18T08:49:56.001Z</time></trkpt><trkpt lat="42.08912429047668" lon="11.83762093645104"><ele>158.5</ele><time>2026-04-18T08:49:57.001Z</time></trkpt><trkpt lat="42.089150734251305" lon="11.837780130078723"><ele>162.0</ele><time>2026-04-18T08:49:58.001Z</time></trkpt><trkpt lat="42.089163962848254" lon="11.83793918747718"><ele>165.5</ele><time>2026-04-18T08:49:59.001Z</time></trkpt><trkpt lat="42.08916286916518" lon="11.838097971715582"><ele>169.0</ele><time>2026-04-18T08:50:00.001Z</time></trkpt><trkpt lat="42.08913172397875" lon="11.838259900048303"><ele>169.0</ele><time>2026-04-18T08:50:01.001Z</time></trkpt><trkpt lat="42.08912738902358" lon="11.838441778891108"><ele>169.0</ele><time>2026-04-18T08:50:02.001Z</time></trkpt><trkpt lat="42.08911252555523" lon="11.838636802725144"><ele>169.0</ele><time>2026-04-18T08:50:03.001Z</time></trkpt><trkpt lat="42.08910593514386" lon="11.838832829688132"><ele>169.0</ele><time>2026-04-18T08:50:04.001Z</time></trkpt><trkpt lat="42.089126529091644" lon="11.839007179000287"><ele>169.25</ele><time>2026-04-18T08:50:05.001Z</time></trkpt><trkpt lat="42.089147994564044" lon="11.839160912021951"><ele>169.5</ele><time>2026-04-18T08:50:06.001Z</time></trkpt><trkpt lat="42.08917432933184" lon="11.83931165253369"><ele>169.75</ele><time>2026-04-18T08:50:07.001Z</time></trkpt><trkpt lat="42.0891952151507" lon="11.839468099071745"><ele>170.0</ele><time>2026-04-18T08:50:08.001Z</time></trkpt><trkpt lat="42.08920876283725" lon="11.83962358070856"><ele>171.25</ele><time>2026-04-18T08:50:09.001Z</time></trkpt><trkpt lat="42.0892168218174" lon="11.839773453966204"><ele>172.5</ele><time>2026-04-18T08:50:10.001Z</time></trkpt><trkpt lat="42.0892094380985" lon="11.839922827147875"><ele>173.75</ele><time>2026-04-18T08:50:11.001Z</time></trkpt><trkpt lat="42.08918294062442" lon="11.84009285664275"><ele>175.0</ele><time>2026-04-18T08:50:12.001Z</time></trkpt><trkpt lat="42.08914634265067" lon="11.84025515664746"><ele>176.0</ele><time>2026-04-18T08:50:13.001Z</time></trkpt><trkpt lat="42.08910787225894" lon="11.840424571369777"><ele>177.0</ele><time>2026-04-18T08:50:14.001Z</time></trkpt><trkpt lat="42.08909428798365" lon="11.840602876686981"><ele>178.0</ele><time>2026-04-18T08:50:15.001Z</time></trkpt><trkpt lat="42.08909435592489" lon="11.840779428686076"><ele>179.0</ele><time>2026-04-18T08:50:16.001Z</time></trkpt><trkpt lat="42.089095614869706" lon="11.84094379884208"><ele>180.0</ele><time>2026-04-18T08:50:17.001Z</time></trkpt><trkpt lat="42.0891021542716" lon="11.84110150040503"><ele>181.0</ele><time>2026-04-18T08:50:18.001Z</time></trkpt><trkpt lat="42.08909220201798" lon="11.841244777172905"><ele>182.0</ele><time>2026-04-18T08:50:19.001Z</time></trkpt><trkpt lat="42.08903885590399" lon="11.841366670789023"><ele>183.0</ele><time>2026-04-18T08:50:20.001Z</time></trkpt><trkpt lat="42.08901610283881" lon="11.841521656945162"><ele>184.0</ele><time>2026-04-18T08:50:21.001Z</time></trkpt><trkpt lat="42.088990800745876" lon="11.841660758465533"><ele>184.79999999999998</ele><time>2026-04-18T08:50:22.001Z</time></trkpt><trkpt lat="42.08899405046919" lon="11.841788040965909"><ele>185.6</ele><time>2026-04-18T08:50:23.001Z</time></trkpt><trkpt lat="42.089022898153836" lon="11.841916502234161"><ele>186.4</ele><time>2026-04-18T08:50:24.001Z</time></trkpt><trkpt lat="42.08906134090549" lon="11.842055657787952"><ele>187.2</ele><time>2026-04-18T08:50:25.001Z</time></trkpt><trkpt lat="42.089093762984575" lon="11.84221520995897"><ele>188.0</ele><time>2026-04-18T08:50:26.001Z</time></trkpt><trkpt lat="42.08909376380316" lon="11.842387587063342"><ele>188.0</ele><time>2026-04-18T08:50:27.001Z</time></trkpt><trkpt lat="42.08912057224523" lon="11.84253845279904"><ele>188.0</ele><time>2026-04-18T08:50:28.001Z</time></trkpt><trkpt lat="42.08914546934107" lon="11.842674728919965"><ele>188.0</ele><time>2026-04-18T08:50:29.001Z</time></trkpt><trkpt lat="42.08918418940822" lon="11.842786180311066"><ele>188.0</ele><time>2026-04-18T08:50:30.001Z</time></trkpt><trkpt lat="42.08924100563272" lon="11.842905456203894"><ele>188.0</ele><time>2026-04-18T08:50:31.001Z</time></trkpt><trkpt lat="42.08931206434039" lon="11.843032242303007"><ele>189.0</ele><time>2026-04-18T08:50:32.001Z</time></trkpt><trkpt lat="42.08937659433438" lon="11.8431647528937"><ele>190.0</ele><time>2026-04-18T08:50:33.002Z</time></trkpt><trkpt lat="42.08942336584582" lon="11.843298171678214"><ele>191.0</ele><time>2026-04-18T08:50:34.002Z</time></trkpt><trkpt lat="42.08946258350179" lon="11.843398488946258"><ele>192.0</ele><time>2026-04-18T08:50:35.002Z</time></trkpt><trkpt lat="42.08951118897512" lon="11.84346164992369"><ele>193.0</ele><time>2026-04-18T08:50:36.002Z</time></trkpt><trkpt lat="42.08959557215472" lon="11.843499649916833"><ele>193.25</ele><time>2026-04-18T08:50:37.002Z</time></trkpt><trkpt lat="42.08971269765453" lon="11.843498850408633"><ele>193.5</ele><time>2026-04-18T08:50:38.002Z</time></trkpt><trkpt lat="42.089836355566746" lon="11.843496761842779"><ele>193.75</ele><time>2026-04-18T08:50:39.002Z</time></trkpt><trkpt lat="42.08994434128534" lon="11.843529273757284"><ele>194.0</ele><time>2026-04-18T08:50:40.002Z</time></trkpt><trkpt lat="42.09004084155566" lon="11.84358287945988"><ele>196.39999999999998</ele><time>2026-04-18T08:50:41.002Z</time></trkpt><trkpt lat="42.090130114163976" lon="11.843653514267698"><ele>198.8</ele><time>2026-04-18T08:50:42.002Z</time></trkpt><trkpt lat="42.090201197705326" lon="11.843748396691318"><ele>201.2</ele><time>2026-04-18T08:50:43.002Z</time></trkpt><trkpt lat="42.090264670197676" lon="11.843849139448542"><ele>203.60000000000002</ele><time>2026-04-18T08:50:43.998Z</time></trkpt><trkpt lat="42.09031610167581" lon="11.843963337868477"><ele>206.0</ele><time>2026-04-18T08:50:44.998Z</time></trkpt><trkpt lat="42.090368584716266" lon="11.844105022810542"><ele>206.0</ele><time>2026-04-18T08:50:45.998Z</time></trkpt><trkpt lat="42.09040974042182" lon="11.844253530749251"><ele>206.0</ele><time>2026-04-18T08:50:46.998Z</time></trkpt><trkpt lat="42.09045850579155" lon="11.844390344048128"><ele>206.0</ele><time>2026-04-18T08:50:47.998Z</time></trkpt><trkpt lat="42.09051800997532" lon="11.8444978416115"><ele>206.0</ele><time>2026-04-18T08:50:48.998Z</time></trkpt><trkpt lat="42.090591026546576" lon="11.844610501700892"><ele>206.0</ele><time>2026-04-18T08:50:49.998Z</time></trkpt><trkpt lat="42.09066588913282" lon="11.844715008688631"><ele>207.60000000000002</ele><time>2026-04-18T08:50:50.998Z</time></trkpt><trkpt lat="42.09073146496988" lon="11.844811074840473"><ele>209.2</ele><time>2026-04-18T08:50:51.998Z</time></trkpt><trkpt lat="42.09078020404422" lon="11.844925697280988"><ele>210.79999999999998</ele><time>2026-04-18T08:50:52.999Z</time></trkpt><trkpt lat="42.09081879656509" lon="11.845064143336783"><ele>212.39999999999998</ele><time>2026-04-18T08:50:53.999Z</time></trkpt><trkpt lat="42.09087131432512" lon="11.84521239419572"><ele>214.0</ele><time>2026-04-18T08:50:54.999Z</time></trkpt><trkpt lat="42.090935882019195" lon="11.84536999138214"><ele>217.5</ele><time>2026-04-18T08:50:55.999Z</time></trkpt><trkpt lat="42.09099061310405" lon="11.845522759454918"><ele>221.0</ele><time>2026-04-18T08:50:56.999Z</time></trkpt><trkpt lat="42.091004232831516" lon="11.845679352046812"><ele>224.5</ele><time>2026-04-18T08:50:57.999Z</time></trkpt><trkpt lat="42.09105941501229" lon="11.845807717336614"><ele>228.0</ele><time>2026-04-18T08:50:58.999Z</time></trkpt><trkpt lat="42.09111860163946" lon="11.845913198412497"><ele>230.2</ele><time>2026-04-18T08:50:59.999Z</time></trkpt><trkpt lat="42.09119529601928" lon="11.846009810675163"><ele>232.4</ele><time>2026-04-18T08:51:00.999Z</time></trkpt><trkpt lat="42.09128577459651" lon="11.84610540138062"><ele>234.59999999999997</ele><time>2026-04-18T08:51:01.999Z</time></trkpt><trkpt lat="42.0913767482976" lon="11.846200225739507"><ele>236.79999999999998</ele><time>2026-04-18T08:51:02.999Z</time></trkpt><trkpt lat="42.091463478429795" lon="11.846297499741134"><ele>239.0</ele><time>2026-04-18T08:51:03.999Z</time></trkpt><trkpt lat="42.091547067013146" lon="11.84640301895163"><ele>237.75</ele><time>2026-04-18T08:51:04.999Z</time></trkpt><trkpt lat="42.09162638547368" lon="11.846516058473881"><ele>236.5</ele><time>2026-04-18T08:51:05.999Z</time></trkpt><trkpt lat="42.09170061337102" lon="11.84663797063785"><ele>235.25</ele><time>2026-04-18T08:51:06.999Z</time></trkpt><trkpt lat="42.09178119639397" lon="11.846758776095028"><ele>234.0</ele><time>2026-04-18T08:51:07.999Z</time></trkpt><trkpt lat="42.091864551298855" lon="11.846864054434079"><ele>237.0</ele><time>2026-04-18T08:51:08.999Z</time></trkpt><trkpt lat="42.09193671913468" lon="11.846964232256003"><ele>239.99999999999997</ele><time>2026-04-18T08:51:09.999Z</time></trkpt><trkpt lat="42.09201120132342" lon="11.847020200628528"><ele>242.99999999999997</ele><time>2026-04-18T08:51:10.999Z</time></trkpt><trkpt lat="42.09209307969033" lon="11.847023409246411"><ele>246.0</ele><time>2026-04-18T08:51:11.999Z</time></trkpt><trkpt lat="42.092209083593936" lon="11.84698782591792"><ele>249.0</ele><time>2026-04-18T08:51:13Z</time></trkpt><trkpt lat="42.092336336501404" lon="11.846939646339846"><ele>250.0</ele><time>2026-04-18T08:51:14Z</time></trkpt><trkpt lat="42.09245944769342" lon="11.846898913940047"><ele>251.0</ele><time>2026-04-18T08:51:15Z</time></trkpt><trkpt lat="42.092580689455474" lon="11.846838118462063"><ele>252.0</ele><time>2026-04-18T08:51:16Z</time></trkpt><trkpt lat="42.09270543130958" lon="11.846759987335975"><ele>253.0</ele><time>2026-04-18T08:51:17Z</time></trkpt><trkpt lat="42.092813666137445" lon="11.846712325838418"><ele>253.0</ele><time>2026-04-18T08:51:18Z</time></trkpt><trkpt lat="42.09289818263759" lon="11.846705570578441"><ele>253.0</ele><time>2026-04-18T08:51:19Z</time></trkpt><trkpt lat="42.09299838108058" lon="11.84673431364232"><ele>253.0</ele><time>2026-04-18T08:51:20Z</time></trkpt><trkpt lat="42.0930850253775" lon="11.846766215721301"><ele>253.0</ele><time>2026-04-18T08:51:21Z</time></trkpt><trkpt lat="42.09316656577577" lon="11.846827011252795"><ele>253.0</ele><time>2026-04-18T08:51:22Z</time></trkpt><trkpt lat="42.093227872349544" lon="11.846920464345875"><ele>253.4</ele><time>2026-04-18T08:51:23Z</time></trkpt><trkpt lat="42.093300931349034" lon="11.847011508328"><ele>253.8</ele><time>2026-04-18T08:51:24Z</time></trkpt><trkpt lat="42.09336250833447" lon="11.847139149885361"><ele>254.2</ele><time>2026-04-18T08:51:25Z</time></trkpt><trkpt lat="42.09343091693067" lon="11.847265403911184"><ele>254.6</ele><time>2026-04-18T08:51:26Z</time></trkpt><trkpt lat="42.0934937583678" lon="11.84739942853656"><ele>255.0</ele><time>2026-04-18T08:51:27Z</time></trkpt><trkpt lat="42.09355433266363" lon="11.84753743603529"><ele>258.75</ele><time>2026-04-18T08:51:28Z</time></trkpt><trkpt lat="42.093608240155724" lon="11.84767743035319"><ele>262.5</ele><time>2026-04-18T08:51:29Z</time></trkpt><trkpt lat="42.09366392546846" lon="11.84780409671193"><ele>266.25</ele><time>2026-04-18T08:51:30Z</time></trkpt><trkpt lat="42.09370337741279" lon="11.84794669938098"><ele>270.0</ele><time>2026-04-18T08:51:31Z</time></trkpt><trkpt lat="42.093736998255146" lon="11.84810160884201"><ele>270.0</ele><time>2026-04-18T08:51:32Z</time></trkpt><trkpt lat="42.09378954849012" lon="11.84824402967087"><ele>270.0</ele><time>2026-04-18T08:51:33Z</time></trkpt><trkpt lat="42.09383776500962" lon="11.848372833276335"><ele>270.0</ele><time>2026-04-18T08:51:34Z</time></trkpt><trkpt lat="42.09388817623428" lon="11.848511578540807"><ele>270.0</ele><time>2026-04-18T08:51:35Z</time></trkpt><trkpt lat="42.093944496959146" lon="11.848649694889712"><ele>270.0</ele><time>2026-04-18T08:51:36Z</time></trkpt><trkpt lat="42.09400252359634" lon="11.848792329072316"><ele>270.0</ele><time>2026-04-18T08:51:37Z</time></trkpt><trkpt lat="42.0940700772587" lon="11.848923590947287"><ele>270.0</ele><time>2026-04-18T08:51:38Z</time></trkpt><trkpt lat="42.09414253367547" lon="11.84904343308732"><ele>270.0</ele><time>2026-04-18T08:51:39Z</time></trkpt><trkpt lat="42.094214157997506" lon="11.8491413293035"><ele>270.0</ele><time>2026-04-18T08:51:40Z</time></trkpt><trkpt lat="42.09427471931548" lon="11.849222299937894"><ele>270.0</ele><time>2026-04-18T08:51:41Z</time></trkpt><trkpt lat="42.09431584211616" lon="11.849298470657159"><ele>270.0</ele><time>2026-04-18T08:51:42Z</time></trkpt><trkpt lat="42.094311560034164" lon="11.849469492436866"><ele>270.0</ele><time>2026-04-18T08:51:44.001Z</time></trkpt><trkpt lat="42.09427489170808" lon="11.849560817191824"><ele>270.0</ele><time>2026-04-18T08:51:45.001Z</time></trkpt><trkpt lat="42.094219850879476" lon="11.84964951756773"><ele>270.0</ele><time>2026-04-18T08:51:46.001Z</time></trkpt><trkpt lat="42.09415033294034" lon="11.849777417940347"><ele>272.0</ele><time>2026-04-18T08:51:47.001Z</time></trkpt><trkpt lat="42.094081111390466" lon="11.849912020208487"><ele>274.0</ele><time>2026-04-18T08:51:48.001Z</time></trkpt><trkpt lat="42.09401936095071" lon="11.849995902811587"><ele>276.0</ele><time>2026-04-18T08:51:49.001Z</time></trkpt><trkpt lat="42.09394991883235" lon="11.85003250039866"><ele>278.0</ele><time>2026-04-18T08:51:50.001Z</time></trkpt><trkpt lat="42.09387063880273" lon="11.850037083950099"><ele>280.0</ele><time>2026-04-18T08:51:51.001Z</time></trkpt><trkpt lat="42.09375489111984" lon="11.850025173308802"><ele>280.0</ele><time>2026-04-18T08:51:52.001Z</time></trkpt><trkpt lat="42.093618858866684" lon="11.850019385799403"><ele>280.0</ele><time>2026-04-18T08:51:53.001Z</time></trkpt><trkpt lat="42.09347525825498" lon="11.850022766349742"><ele>280.0</ele><time>2026-04-18T08:51:54.001Z</time></trkpt><trkpt lat="42.09332771123175" lon="11.85003673433063"><ele>280.0</ele><time>2026-04-18T08:51:55.001Z</time></trkpt><trkpt lat="42.09317825943662" lon="11.850057355200072"><ele>282.25</ele><time>2026-04-18T08:51:56.001Z</time></trkpt><trkpt lat="42.093036771726766" lon="11.85007684425132"><ele>284.5</ele><time>2026-04-18T08:51:57.001Z</time></trkpt><trkpt lat="42.092892129584136" lon="11.850117541604899"><ele>286.75</ele><time>2026-04-18T08:51:58.001Z</time></trkpt><trkpt lat="42.09275436014214" lon="11.850163626012545"><ele>289.0</ele><time>2026-04-18T08:51:59.001Z</time></trkpt><trkpt lat="42.09261770313604" lon="11.850207147295924"><ele>289.0</ele><time>2026-04-18T08:52:00.001Z</time></trkpt><trkpt lat="42.09249310681012" lon="11.850251336333457"><ele>289.0</ele><time>2026-04-18T08:52:01.001Z</time></trkpt><trkpt lat="42.092380214394446" lon="11.850312076059248"><ele>289.0</ele><time>2026-04-18T08:52:02.001Z</time></trkpt><trkpt lat="42.09226223185246" lon="11.85039734199997"><ele>289.0</ele><time>2026-04-18T08:52:03.001Z</time></trkpt><trkpt lat="42.09215045791453" lon="11.850522175917007"><ele>288.4</ele><time>2026-04-18T08:52:04.001Z</time></trkpt><trkpt lat="42.09206874579326" lon="11.850634628896291"><ele>287.79999999999995</ele><time>2026-04-18T08:52:05.001Z</time></trkpt><trkpt lat="42.09202270345958" lon="11.85074584195582"><ele>287.20000000000005</ele><time>2026-04-18T08:52:06.001Z</time></trkpt><trkpt lat="42.09200613462477" lon="11.850880838545985"><ele>286.6</ele><time>2026-04-18T08:52:07.001Z</time></trkpt><trkpt lat="42.092003386686336" lon="11.851038039269001"><ele>286.0</ele><time>2026-04-18T08:52:08.001Z</time></trkpt><trkpt lat="42.091966716524716" lon="11.851160039702158"><ele>288.5</ele><time>2026-04-18T08:52:09.001Z</time></trkpt><trkpt lat="42.09188164460816" lon="11.85127092039904"><ele>291.0</ele><time>2026-04-18T08:52:10.001Z</time></trkpt><trkpt lat="42.091790322303254" lon="11.851436473166524"><ele>293.5</ele><time>2026-04-18T08:52:11.001Z</time></trkpt><trkpt lat="42.091691823443334" lon="11.851547721875074"><ele>296.0</ele><time>2026-04-18T08:52:12.001Z</time></trkpt><trkpt lat="42.09159189059407" lon="11.851624052575591"><ele>294.2</ele><time>2026-04-18T08:52:13.001Z</time></trkpt><trkpt lat="42.09148431030733" lon="11.851675344964208"><ele>292.40000000000003</ele><time>2026-04-18T08:52:14.001Z</time></trkpt><trkpt lat="42.09138003050394" lon="11.851733971752827"><ele>290.6</ele><time>2026-04-18T08:52:15.001Z</time></trkpt><trkpt lat="42.09128812767495" lon="11.851787196838133"><ele>288.8</ele><time>2026-04-18T08:52:16.001Z</time></trkpt><trkpt lat="42.09120890875589" lon="11.851835226160805"><ele>287.0</ele><time>2026-04-18T08:52:17.001Z</time></trkpt><trkpt lat="42.09114110541701" lon="11.851877455212504"><ele>290.6</ele><time>2026-04-18T08:52:18.001Z</time></trkpt><trkpt lat="42.0910796521176" lon="11.851915729372605"><ele>294.2</ele><time>2026-04-18T08:52:19.001Z</time></trkpt><trkpt lat="42.09101777040835" lon="11.851951530256796"><ele>297.8</ele><time>2026-04-18T08:52:20.001Z</time></trkpt><trkpt lat="42.090907922457106" lon="11.85201348621337"><ele>301.4</ele><time>2026-04-18T08:52:22.002Z</time></trkpt><trkpt lat="42.0908022018364" lon="11.852097328967144"><ele>305.0</ele><time>2026-04-18T08:52:24.002Z</time></trkpt><trkpt lat="42.09074901129535" lon="11.852166465624258"><ele>305.0</ele><time>2026-04-18T08:52:25.002Z</time></trkpt><trkpt lat="42.09068833509125" lon="11.852216312397548"><ele>305.0</ele><time>2026-04-18T08:52:26.002Z</time></trkpt><trkpt lat="42.09060802040174" lon="11.852274485017531"><ele>305.0</ele><time>2026-04-18T08:52:28.002Z</time></trkpt><trkpt lat="42.09049576460507" lon="11.852347862847425"><ele>305.0</ele><time>2026-04-18T08:52:30.002Z</time></trkpt><trkpt lat="42.090399090070136" lon="11.852394988901535"><ele>305.0</ele><time>2026-04-18T08:52:31.002Z</time></trkpt><trkpt lat="42.09028315156411" lon="11.852437095168076"><ele>305.0</ele><time>2026-04-18T08:52:32.002Z</time></trkpt><trkpt lat="42.090139263165966" lon="11.852462418400174"><ele>305.0</ele><time>2026-04-18T08:52:33.002Z</time></trkpt><trkpt lat="42.09000334215567" lon="11.852469940297716"><ele>305.0</ele><time>2026-04-18T08:52:34.002Z</time></trkpt><trkpt lat="42.08986989959085" lon="11.852450516983945"><ele>305.0</ele><time>2026-04-18T08:52:35.002Z</time></trkpt><trkpt lat="42.08972360899303" lon="11.852427974262723"><ele>304.0</ele><time>2026-04-18T08:52:36.002Z</time></trkpt><trkpt lat="42.089590997869706" lon="11.852409186682333"><ele>303.0</ele><time>2026-04-18T08:52:37.002Z</time></trkpt><trkpt lat="42.089469879619834" lon="11.85240872661219"><ele>302.0</ele><time>2026-04-18T08:52:38.002Z</time></trkpt><trkpt lat="42.08936701311483" lon="11.85242843841652"><ele>301.0</ele><time>2026-04-18T08:52:39.002Z</time></trkpt><trkpt lat="42.08930312832644" lon="11.852484340036165"><ele>300.0</ele><time>2026-04-18T08:52:40.002Z</time></trkpt><trkpt lat="42.08921650598423" lon="11.852500593359943"><ele>300.0</ele><time>2026-04-18T08:52:43.002Z</time></trkpt><trkpt lat="42.08915717580985" lon="11.852453708997245"><ele>300.0</ele><time>2026-04-18T08:52:44.002Z</time></trkpt><trkpt lat="42.089098208058864" lon="11.852360411650633"><ele>300.0</ele><time>2026-04-18T08:52:45.002Z</time></trkpt><trkpt lat="42.089023495707146" lon="11.852289029634447"><ele>300.0</ele><time>2026-04-18T08:52:46.002Z</time></trkpt><trkpt lat="42.088938959251045" lon="11.85221155411242"><ele>300.0</ele><time>2026-04-18T08:52:47.002Z</time></trkpt><trkpt lat="42.08886181826393" lon="11.8521422576894"><ele>300.0</ele><time>2026-04-18T08:52:48.002Z</time></trkpt><trkpt lat="42.08879281804191" lon="11.852078393730531"><ele>298.2857142857143</ele><time>2026-04-18T08:52:49.002Z</time></trkpt><trkpt lat="42.08872060372617" lon="11.85203598986072"><ele>296.57142857142856</ele><time>2026-04-18T08:52:49.999Z</time></trkpt><trkpt lat="42.08867024832699" lon="11.851964996993125"><ele>294.8571428571429</ele><time>2026-04-18T08:52:50.999Z</time></trkpt><trkpt lat="42.088626184560546" lon="11.851893647195094"><ele>293.1428571428571</ele><time>2026-04-18T08:52:51.999Z</time></trkpt><trkpt lat="42.088583091601954" lon="11.851825272915551"><ele>291.42857142857144</ele><time>2026-04-18T08:52:52.999Z</time></trkpt><trkpt lat="42.08853369750679" lon="11.85176219990926"><ele>289.7142857142857</ele><time>2026-04-18T08:52:53.999Z</time></trkpt><trkpt lat="42.0884717442518" lon="11.851690661860227"><ele>288.0</ele><time>2026-04-18T08:52:54.999Z</time></trkpt><trkpt lat="42.088390791639846" lon="11.851643317975675"><ele>288.0</ele><time>2026-04-18T08:52:55.999Z</time></trkpt><trkpt lat="42.08832414165635" lon="11.851584936536671"><ele>288.0</ele><time>2026-04-18T08:52:56.999Z</time></trkpt><trkpt lat="42.08825244212706" lon="11.851544008522565"><ele>288.0</ele><time>2026-04-18T08:52:57.999Z</time></trkpt><trkpt lat="42.08818240384611" lon="11.85151294967469"><ele>288.0</ele><time>2026-04-18T08:52:58.999Z</time></trkpt><trkpt lat="42.08812067041423" lon="11.85148679820712"><ele>288.0</ele><time>2026-04-18T08:52:59.999Z</time></trkpt><trkpt lat="42.088046824326476" lon="11.851449788407098"><ele>288.0</ele><time>2026-04-18T08:53:01.999Z</time></trkpt><trkpt lat="42.087962109150446" lon="11.851453256303847"><ele>286.2</ele><time>2026-04-18T08:53:25Z</time></trkpt><trkpt lat="42.087895729577546" lon="11.851447303470792"><ele>284.4</ele><time>2026-04-18T08:53:26Z</time></trkpt><trkpt lat="42.087797908616" lon="11.851458000310426"><ele>282.59999999999997</ele><time>2026-04-18T08:53:27Z</time></trkpt><trkpt lat="42.08768390643721" lon="11.851488366955534"><ele>280.8</ele><time>2026-04-18T08:53:28Z</time></trkpt><trkpt lat="42.08756963383936" lon="11.851542946703624"><ele>279.0</ele><time>2026-04-18T08:53:29Z</time></trkpt><trkpt lat="42.08744680570104" lon="11.85159619198944"><ele>277.0</ele><time>2026-04-18T08:53:30Z</time></trkpt><trkpt lat="42.087311611692954" lon="11.85164284204623"><ele>275.0</ele><time>2026-04-18T08:53:31.001Z</time></trkpt><trkpt lat="42.08718325816734" lon="11.851731985863507"><ele>273.0</ele><time>2026-04-18T08:53:32.001Z</time></trkpt><trkpt lat="42.08704505196811" lon="11.851788547700302"><ele>271.0</ele><time>2026-04-18T08:53:33.001Z</time></trkpt><trkpt lat="42.08691157917429" lon="11.851859802374296"><ele>269.25</ele><time>2026-04-18T08:53:34.001Z</time></trkpt><trkpt lat="42.08678093367408" lon="11.85192349966447"><ele>267.5</ele><time>2026-04-18T08:53:35.001Z</time></trkpt><trkpt lat="42.086644618135075" lon="11.851954643714146"><ele>265.75</ele><time>2026-04-18T08:53:36.001Z</time></trkpt><trkpt lat="42.086503544913285" lon="11.85201962721921"><ele>264.0</ele><time>2026-04-18T08:53:37.001Z</time></trkpt><trkpt lat="42.086361545410554" lon="11.852087590892308"><ele>261.5</ele><time>2026-04-18T08:53:38.001Z</time></trkpt><trkpt lat="42.086234753747256" lon="11.852151054503492"><ele>259.0</ele><time>2026-04-18T08:53:39.001Z</time></trkpt><trkpt lat="42.08610314233898" lon="11.85221708127523"><ele>256.5</ele><time>2026-04-18T08:53:40.001Z</time></trkpt><trkpt lat="42.08596643488151" lon="11.852276360086861"><ele>254.0</ele><time>2026-04-18T08:53:41.001Z</time></trkpt><trkpt lat="42.08583837326837" lon="11.852336566428878"><ele>253.0</ele><time>2026-04-18T08:53:42.001Z</time></trkpt><trkpt lat="42.0857147683956" lon="11.85240943152095"><ele>252.0</ele><time>2026-04-18T08:53:43.001Z</time></trkpt><trkpt lat="42.08560725241745" lon="11.852510578430424"><ele>251.0</ele><time>2026-04-18T08:53:44.001Z</time></trkpt><trkpt lat="42.085503261788645" lon="11.852599242547738"><ele>250.0</ele><time>2026-04-18T08:53:45.001Z</time></trkpt><trkpt lat="42.085399583591766" lon="11.852679894167627"><ele>248.75</ele><time>2026-04-18T08:53:46.001Z</time></trkpt><trkpt lat="42.08528305070196" lon="11.85274718119863"><ele>247.5</ele><time>2026-04-18T08:53:47.001Z</time></trkpt><trkpt lat="42.08516009073811" lon="11.85273827166111"><ele>246.25</ele><time>2026-04-18T08:53:48.001Z</time></trkpt><trkpt lat="42.08506299016895" lon="11.85268927112967"><ele>245.0</ele><time>2026-04-18T08:53:49.001Z</time></trkpt><trkpt lat="42.084952279623955" lon="11.852637687406586"><ele>243.25</ele><time>2026-04-18T08:53:50.001Z</time></trkpt><trkpt lat="42.08482585725061" lon="11.852579862210433"><ele>241.5</ele><time>2026-04-18T08:53:51.001Z</time></trkpt><trkpt lat="42.08470273546095" lon="11.852504990982187"><ele>239.75</ele><time>2026-04-18T08:53:52.001Z</time></trkpt><trkpt lat="42.08459062792094" lon="11.852425743507231"><ele>238.0</ele><time>2026-04-18T08:53:53.001Z</time></trkpt><trkpt lat="42.08448046580746" lon="11.852346168354428"><ele>238.0</ele><time>2026-04-18T08:53:54.001Z</time></trkpt><trkpt lat="42.084369893304434" lon="11.852269559798223"><ele>238.0</ele><time>2026-04-18T08:53:55.001Z</time></trkpt><trkpt lat="42.08425149519539" lon="11.852230190286956"><ele>238.0</ele><time>2026-04-18T08:53:56.001Z</time></trkpt><trkpt lat="42.08414428192391" lon="11.852160583271763"><ele>238.0</ele><time>2026-04-18T08:53:57.001Z</time></trkpt><trkpt lat="42.08403695010733" lon="11.852098096178745"><ele>236.75</ele><time>2026-04-18T08:53:58.001Z</time></trkpt><trkpt lat="42.08393895841082" lon="11.85202345863762"><ele>235.5</ele><time>2026-04-18T08:53:59.001Z</time></trkpt><trkpt lat="42.08383814743233" lon="11.851936739572123"><ele>234.25</ele><time>2026-04-18T08:54:00.001Z</time></trkpt><trkpt lat="42.08374859553357" lon="11.851851216847479"><ele>233.0</ele><time>2026-04-18T08:54:01.001Z</time></trkpt><trkpt lat="42.08365983240934" lon="11.85176226487625"><ele>233.0</ele><time>2026-04-18T08:54:02.001Z</time></trkpt><trkpt lat="42.083563867132916" lon="11.85167107457635"><ele>233.0</ele><time>2026-04-18T08:54:03.001Z</time></trkpt><trkpt lat="42.083462027973866" lon="11.85159225841279"><ele>233.0</ele><time>2026-04-18T08:54:04.001Z</time></trkpt><trkpt lat="42.08336054962075" lon="11.85152232797986"><ele>233.0</ele><time>2026-04-18T08:54:05.001Z</time></trkpt><trkpt lat="42.08325924577501" lon="11.851456107667977"><ele>231.0</ele><time>2026-04-18T08:54:06.002Z</time></trkpt><trkpt lat="42.08315904374654" lon="11.851392314079423"><ele>229.0</ele><time>2026-04-18T08:54:07.002Z</time></trkpt><trkpt lat="42.083055507258656" lon="11.85134268227168"><ele>227.0</ele><time>2026-04-18T08:54:08.002Z</time></trkpt><trkpt lat="42.082944982286236" lon="11.85129284806974"><ele>225.0</ele><time>2026-04-18T08:54:09.002Z</time></trkpt><trkpt lat="42.082823570966966" lon="11.85126195548143"><ele>225.0</ele><time>2026-04-18T08:54:10.002Z</time></trkpt><trkpt lat="42.082697717600325" lon="11.851226125949255"><ele>225.0</ele><time>2026-04-18T08:54:11.002Z</time></trkpt><trkpt lat="42.08257506669556" lon="11.851191928684372"><ele>225.0</ele><time>2026-04-18T08:54:12.002Z</time></trkpt><trkpt lat="42.08245980691847" lon="11.851157495278304"><ele>225.0</ele><time>2026-04-18T08:54:13.002Z</time></trkpt><trkpt lat="42.082359464342446" lon="11.85112420306732"><ele>223.33333333333334</ele><time>2026-04-18T08:54:14.002Z</time></trkpt><trkpt lat="42.08227302197598" lon="11.851097025942993"><ele>221.66666666666669</ele><time>2026-04-18T08:54:15.002Z</time></trkpt><trkpt lat="42.082201002404275" lon="11.851071098693648"><ele>220.0</ele><time>2026-04-18T08:54:16.002Z</time></trkpt><trkpt lat="42.0821266213605" lon="11.851050111367023"><ele>218.33333333333334</ele><time>2026-04-18T08:54:17.002Z</time></trkpt><trkpt lat="42.08205534137427" lon="11.851031092437598"><ele>216.66666666666669</ele><time>2026-04-18T08:54:18.002Z</time></trkpt><trkpt lat="42.08198768316162" lon="11.851021273414458"><ele>215.0</ele><time>2026-04-18T08:54:20.002Z</time></trkpt><trkpt lat="42.082056180466786" lon="11.851170464730238"><ele>215.00000000000003</ele><time>2026-04-18T08:54:24.002Z</time></trkpt><trkpt lat="42.082132321870766" lon="11.851219755757437"><ele>215.0</ele><time>2026-04-18T08:54:48.003Z</time></trkpt><trkpt lat="42.08222169571936" lon="11.851128505359542"><ele>215.0</ele><time>2026-04-18T08:54:49.003Z</time></trkpt><trkpt lat="42.0823007355065" lon="11.851154987879749"><ele>215.0</ele><time>2026-04-18T08:54:50.003Z</time></trkpt><trkpt lat="42.08238022944792" lon="11.851181622562866"><ele>215.00000000000003</ele><time>2026-04-18T08:54:51.003Z</time></trkpt><trkpt lat="42.082456108196226" lon="11.851207045982845"><ele>215.0</ele><time>2026-04-18T08:54:52.003Z</time></trkpt><trkpt lat="42.08252714254708" lon="11.851230846245818"><ele>215.6</ele><time>2026-04-18T08:54:53.003Z</time></trkpt><trkpt lat="42.08259557289279" lon="11.851263988686869"><ele>216.2</ele><time>2026-04-18T08:54:54.003Z</time></trkpt><trkpt lat="42.0826647525496" lon="11.851299930877081"><ele>216.8</ele><time>2026-04-18T08:54:55.003Z</time></trkpt><trkpt lat="42.08273808656365" lon="11.85134192357095"><ele>217.4</ele><time>2026-04-18T08:54:56.001Z</time></trkpt><trkpt lat="42.08281228259079" lon="11.85138954616492"><ele>218.0</ele><time>2026-04-18T08:54:57.001Z</time></trkpt><trkpt lat="42.082769113715955" lon="11.85207927829009"><ele>218.0</ele><time>2026-04-18T08:54:58.001Z</time></trkpt><trkpt lat="42.082824208946576" lon="11.852191073238199"><ele>218.0</ele><time>2026-04-18T08:54:59.001Z</time></trkpt><trkpt lat="42.08289219451527" lon="11.85230693409977"><ele>218.0</ele><time>2026-04-18T08:55:00.001Z</time></trkpt><trkpt lat="42.08295147562037" lon="11.852414931975328"><ele>218.0</ele><time>2026-04-18T08:55:01.001Z</time></trkpt><trkpt lat="42.082999587784485" lon="11.852522905252757"><ele>218.0</ele><time>2026-04-18T08:55:02.001Z</time></trkpt><trkpt lat="42.08304435361794" lon="11.852622012232752"><ele>218.8</ele><time>2026-04-18T08:55:03.001Z</time></trkpt><trkpt lat="42.08309490227684" lon="11.852733380019915"><ele>219.60000000000002</ele><time>2026-04-18T08:55:04.001Z</time></trkpt><trkpt lat="42.08315529609571" lon="11.852851791365742"><ele>220.39999999999998</ele><time>2026-04-18T08:55:05.001Z</time></trkpt><trkpt lat="42.08321555027058" lon="11.852954152406124"><ele>221.2</ele><time>2026-04-18T08:55:06.001Z</time></trkpt><trkpt lat="42.08327054413167" lon="11.853057602903679"><ele>222.0</ele><time>2026-04-18T08:55:07.001Z</time></trkpt><trkpt lat="42.08330012893974" lon="11.85315887247366"><ele>222.0</ele><time>2026-04-18T08:55:08.001Z</time></trkpt><trkpt lat="42.083298920141154" lon="11.853258824163"><ele>222.0</ele><time>2026-04-18T08:55:09.001Z</time></trkpt><trkpt lat="42.08325889634084" lon="11.853335850669907"><ele>222.0</ele><time>2026-04-18T08:55:10.001Z</time></trkpt><trkpt lat="42.08320191468141" lon="11.853378922521388"><ele>222.0</ele><time>2026-04-18T08:55:11.001Z</time></trkpt><trkpt lat="42.083127154514074" lon="11.853357091913551"><ele>222.0</ele><time>2026-04-18T08:55:22.001Z</time></trkpt><trkpt lat="42.08315289165495" lon="11.85327174611994"><ele>222.0</ele><time>2026-04-18T08:55:24.001Z</time></trkpt><trkpt lat="42.08324558799435" lon="11.85328385578174"><ele>222.0</ele><time>2026-04-18T08:55:26.001Z</time></trkpt><trkpt lat="42.08328303572372" lon="11.853376509640489"><ele>222.83333333333334</ele><time>2026-04-18T08:55:28.001Z</time></trkpt><trkpt lat="42.0832866142481" lon="11.85348762561298"><ele>223.66666666666669</ele><time>2026-04-18T08:55:44.001Z</time></trkpt><trkpt lat="42.08328535741819" lon="11.853574663229823"><ele>224.5</ele><time>2026-04-18T08:57:05.002Z</time></trkpt><trkpt lat="42.08325162558052" lon="11.853722526959734"><ele>225.33333333333334</ele><time>2026-04-18T08:57:07.002Z</time></trkpt><trkpt lat="42.083219187759454" lon="11.853834539236171"><ele>226.16666666666669</ele><time>2026-04-18T08:57:08.002Z</time></trkpt><trkpt lat="42.083184908484355" lon="11.853943346895482"><ele>227.0</ele><time>2026-04-18T08:57:09.002Z</time></trkpt><trkpt lat="42.08315930479882" lon="11.854037107692239"><ele>225.00000000000003</ele><time>2026-04-18T08:57:10.002Z</time></trkpt><trkpt lat="42.08314771174214" lon="11.854132011441997"><ele>223.0</ele><time>2026-04-18T08:57:11.002Z</time></trkpt><trkpt lat="42.08314887222705" lon="11.8542327876763"><ele>221.0</ele><time>2026-04-18T08:57:12.002Z</time></trkpt><trkpt lat="42.0831506711466" lon="11.85435163112845"><ele>219.0</ele><time>2026-04-18T08:57:13.002Z</time></trkpt><trkpt lat="42.08314687027852" lon="11.85446726338136"><ele>217.00000000000003</ele><time>2026-04-18T08:57:14.002Z</time></trkpt><trkpt lat="42.083143170178126" lon="11.854563087531334"><ele>215.0</ele><time>2026-04-18T08:57:15.001Z</time></trkpt><trkpt lat="42.08313491051939" lon="11.854657872815686"><ele>213.16666666666669</ele><time>2026-04-18T08:57:16.001Z</time></trkpt><trkpt lat="42.08312448325202" lon="11.854756008584625"><ele>211.33333333333334</ele><time>2026-04-18T08:57:17.001Z</time></trkpt><trkpt lat="42.08312830125157" lon="11.854856228084875"><ele>209.5</ele><time>2026-04-18T08:57:18.001Z</time></trkpt><trkpt lat="42.083125531807646" lon="11.854972700366261"><ele>207.66666666666669</ele><time>2026-04-18T08:57:19.001Z</time></trkpt><trkpt lat="42.08309805607871" lon="11.855090549950495"><ele>205.83333333333334</ele><time>2026-04-18T08:57:20.001Z</time></trkpt><trkpt lat="42.083061159799314" lon="11.855208977995161"><ele>204.0</ele><time>2026-04-18T08:57:21.001Z</time></trkpt><trkpt lat="42.083025742555165" lon="11.855321418330409"><ele>203.16666666666666</ele><time>2026-04-18T08:57:22.001Z</time></trkpt><trkpt lat="42.08298828683616" lon="11.85543306466241"><ele>202.33333333333331</ele><time>2026-04-18T08:57:23.001Z</time></trkpt><trkpt lat="42.08294812906033" lon="11.855538760228692"><ele>201.5</ele><time>2026-04-18T08:57:24.001Z</time></trkpt><trkpt lat="42.08291428407715" lon="11.855628069312429"><ele>200.66666666666666</ele><time>2026-04-18T08:57:25.001Z</time></trkpt><trkpt lat="42.08288360069766" lon="11.855714274650941"><ele>199.83333333333331</ele><time>2026-04-18T08:57:26.001Z</time></trkpt><trkpt lat="42.082854769005294" lon="11.855796585049024"><ele>199.0</ele><time>2026-04-18T08:57:27.001Z</time></trkpt><trkpt lat="42.08282191437041" lon="11.855879287393115"><ele>197.99999999999997</ele><time>2026-04-18T08:57:28.001Z</time></trkpt><trkpt lat="42.082786492805376" lon="11.85603573714711"><ele>197.0</ele><time>2026-04-18T08:57:30.001Z</time></trkpt><trkpt lat="42.08277459836019" lon="11.856135577225514"><ele>196.0</ele><time>2026-04-18T08:57:31.001Z</time></trkpt><trkpt lat="42.08278561374347" lon="11.856233851787387"><ele>195.0</ele><time>2026-04-18T08:57:32.001Z</time></trkpt><trkpt lat="42.08280361042284" lon="11.8563329084265"><ele>193.99999999999997</ele><time>2026-04-18T08:57:33.001Z</time></trkpt><trkpt lat="42.08283223126198" lon="11.856437752122263"><ele>193.0</ele><time>2026-04-18T08:57:34.001Z</time></trkpt><trkpt lat="42.082869607195356" lon="11.856530378958903"><ele>192.99999999999997</ele><time>2026-04-18T08:57:35.001Z</time></trkpt><trkpt lat="42.08290002222284" lon="11.856629466855537"><ele>193.0</ele><time>2026-04-18T08:57:36.001Z</time></trkpt><trkpt lat="42.0829321530555" lon="11.856703378583777"><ele>193.0</ele><time>2026-04-18T08:57:37.001Z</time></trkpt><trkpt lat="42.08299046208082" lon="11.856805107210098"><ele>193.0</ele><time>2026-04-18T08:57:38.001Z</time></trkpt><trkpt lat="42.083058289827854" lon="11.856887559027975"><ele>192.99999999999997</ele><time>2026-04-18T08:57:39.001Z</time></trkpt><trkpt lat="42.08313137429633" lon="11.856954818389303"><ele>193.0</ele><time>2026-04-18T08:57:40.001Z</time></trkpt><trkpt lat="42.08321439929411" lon="11.857020137949418"><ele>193.0</ele><time>2026-04-18T08:57:41.001Z</time></trkpt><trkpt lat="42.08330070236825" lon="11.85709464083858"><ele>193.0</ele><time>2026-04-18T08:57:42.001Z</time></trkpt><trkpt lat="42.08338212951462" lon="11.857167100313944"><ele>193.0</ele><time>2026-04-18T08:57:43.001Z</time></trkpt><trkpt lat="42.08346403473546" lon="11.857234676324081"><ele>193.0</ele><time>2026-04-18T08:57:44.001Z</time></trkpt><trkpt lat="42.083545065837015" lon="11.857293682056644"><ele>193.0</ele><time>2026-04-18T08:57:45.001Z</time></trkpt><trkpt lat="42.083638674143394" lon="11.857330504783357"><ele>192.99999999999997</ele><time>2026-04-18T08:57:46.001Z</time></trkpt><trkpt lat="42.083739897469805" lon="11.857351680447257"><ele>193.0</ele><time>2026-04-18T08:57:47.001Z</time></trkpt><trkpt lat="42.083829159971444" lon="11.857367527333329"><ele>193.0</ele><time>2026-04-18T08:57:48.001Z</time></trkpt><trkpt lat="42.08391079287124" lon="11.857388322892364"><ele>193.0</ele><time>2026-04-18T08:57:49.001Z</time></trkpt><trkpt lat="42.083998770995215" lon="11.857414707191019"><ele>192.99999999999997</ele><time>2026-04-18T08:57:50.002Z</time></trkpt><trkpt lat="42.08407430760233" lon="11.857428601340377"><ele>193.0</ele><time>2026-04-18T08:57:51.002Z</time></trkpt><trkpt lat="42.084146576212305" lon="11.857435286442444"><ele>194.16666666666666</ele><time>2026-04-18T08:57:52.002Z</time></trkpt><trkpt lat="42.08421539959752" lon="11.85744530448202"><ele>195.33333333333331</ele><time>2026-04-18T08:57:53.002Z</time></trkpt><trkpt lat="42.084279279956384" lon="11.857450775258306"><ele>196.5</ele><time>2026-04-18T08:57:54.002Z</time></trkpt><trkpt lat="42.08434085662407" lon="11.85748010803198"><ele>197.66666666666669</ele><time>2026-04-18T08:57:55.002Z</time></trkpt><trkpt lat="42.084392407421284" lon="11.8575575111489"><ele>198.83333333333334</ele><time>2026-04-18T08:57:57.002Z</time></trkpt><trkpt lat="42.084345747239205" lon="11.857695716019794"><ele>200.0</ele><time>2026-04-18T08:57:59.002Z</time></trkpt><trkpt lat="42.084284796709284" lon="11.857779994719813"><ele>200.0</ele><time>2026-04-18T08:58:00.002Z</time></trkpt><trkpt lat="42.084210848221424" lon="11.857894928419125"><ele>200.0</ele><time>2026-04-18T08:58:01.002Z</time></trkpt><trkpt lat="42.0841411355507" lon="11.858019632770263"><ele>200.0</ele><time>2026-04-18T08:58:02.002Z</time></trkpt><trkpt lat="42.08407925906495" lon="11.858147023684197"><ele>200.0</ele><time>2026-04-18T08:58:03.002Z</time></trkpt><trkpt lat="42.084029440306146" lon="11.858232582346156"><ele>200.0</ele><time>2026-04-18T08:58:04.002Z</time></trkpt><trkpt lat="42.0839841263434" lon="11.858316312846775"><ele>192.6</ele><time>2026-04-18T08:58:05.002Z</time></trkpt><trkpt lat="42.0839204611592" lon="11.858485014788513"><ele>185.2</ele><time>2026-04-18T08:58:07.002Z</time></trkpt><trkpt lat="42.08389632190697" lon="11.858569348775834"><ele>177.8</ele><time>2026-04-18T08:58:08.002Z</time></trkpt><trkpt lat="42.08388756509585" lon="11.858697328515307"><ele>170.4</ele><time>2026-04-18T08:58:10.002Z</time></trkpt><trkpt lat="42.08394583683933" lon="11.858773923995267"><ele>163.0</ele><time>2026-04-18T08:58:12.002Z</time></trkpt><trkpt lat="42.08400536126507" lon="11.858829876788922"><ele>163.0</ele><time>2026-04-18T08:58:13.002Z</time></trkpt><trkpt lat="42.084087500619155" lon="11.858909462844503"><ele>163.0</ele><time>2026-04-18T08:58:14.002Z</time></trkpt><trkpt lat="42.08415648492646" lon="11.85899277741369"><ele>163.0</ele><time>2026-04-18T08:58:15.002Z</time></trkpt><trkpt lat="42.08420593035796" lon="11.859073490785542"><ele>163.0</ele><time>2026-04-18T08:58:16.002Z</time></trkpt><trkpt lat="42.08425944597913" lon="11.859133367795705"><ele>163.0</ele><time>2026-04-18T08:58:17.002Z</time></trkpt><trkpt lat="42.08430071679535" lon="11.859200883426587"><ele>163.0</ele><time>2026-04-18T08:58:18.002Z</time></trkpt><trkpt lat="42.08434809400927" lon="11.859280202109618"><ele>163.83333333333334</ele><time>2026-04-18T08:58:19.002Z</time></trkpt><trkpt lat="42.08438574197554" lon="11.85936389319326"><ele>164.66666666666669</ele><time>2026-04-18T08:58:20.002Z</time></trkpt><trkpt lat="42.084415649530904" lon="11.859490353878256"><ele>165.5</ele><time>2026-04-18T08:58:21.002Z</time></trkpt><trkpt lat="42.08443147824092" lon="11.859589899329551"><ele>166.33333333333334</ele><time>2026-04-18T08:58:22.002Z</time></trkpt><trkpt lat="42.084443734508525" lon="11.85967388747421"><ele>167.16666666666666</ele><time>2026-04-18T08:58:23.002Z</time></trkpt><trkpt lat="42.08445605031354" lon="11.85976518155708"><ele>168.0</ele><time>2026-04-18T08:58:24.002Z</time></trkpt><trkpt lat="42.084441368782585" lon="11.859913250046679"><ele>168.0</ele><time>2026-04-18T08:58:26.002Z</time></trkpt><trkpt lat="42.08448388303443" lon="11.86000776352458"><ele>168.0</ele><time>2026-04-18T08:58:28.002Z</time></trkpt><trkpt lat="42.08453556365234" lon="11.86006211522971"><ele>168.0</ele><time>2026-04-18T08:58:29.002Z</time></trkpt><trkpt lat="42.08466755936235" lon="11.860104890443122"><ele>168.0</ele><time>2026-04-18T08:58:31.002Z</time></trkpt><trkpt lat="42.084745412671424" lon="11.860127784494136"><ele>168.0</ele><time>2026-04-18T08:58:32.002Z</time></trkpt><trkpt lat="42.08482865088403" lon="11.860139338815161"><ele>168.0</ele><time>2026-04-18T08:58:33.002Z</time></trkpt><trkpt lat="42.08491067333979" lon="11.86016657072851"><ele>166.28571428571428</ele><time>2026-04-18T08:58:34.002Z</time></trkpt><trkpt lat="42.084991313374246" lon="11.860190431955175"><ele>164.57142857142856</ele><time>2026-04-18T08:58:35.002Z</time></trkpt><trkpt lat="42.085055957759835" lon="11.860208798692668"><ele>162.85714285714286</ele><time>2026-04-18T08:58:36.002Z</time></trkpt><trkpt lat="42.085127557760714" lon="11.860218686645018"><ele>161.14285714285714</ele><time>2026-04-18T08:58:37.002Z</time></trkpt><trkpt lat="42.085195384363125" lon="11.860219704889996"><ele>159.42857142857142</ele><time>2026-04-18T08:58:38.002Z</time></trkpt><trkpt lat="42.085262332569336" lon="11.86022107173512"><ele>157.71428571428572</ele><time>2026-04-18T08:58:39.002Z</time></trkpt><trkpt lat="42.08532711501594" lon="11.860250803356282"><ele>156.0</ele><time>2026-04-18T08:58:40.002Z</time></trkpt><trkpt lat="42.0853958368708" lon="11.860304248977402"><ele>156.0</ele><time>2026-04-18T08:58:41.002Z</time></trkpt><trkpt lat="42.08547143966902" lon="11.860389410472353"><ele>156.0</ele><time>2026-04-18T08:58:42.002Z</time></trkpt><trkpt lat="42.08554171909524" lon="11.860483162272407"><ele>156.0</ele><time>2026-04-18T08:58:43.003Z</time></trkpt><trkpt lat="42.08561298407279" lon="11.860597059473548"><ele>156.0</ele><time>2026-04-18T08:58:44.003Z</time></trkpt><trkpt lat="42.085672820394755" lon="11.86071266918425"><ele>156.0</ele><time>2026-04-18T08:58:45.003Z</time></trkpt><trkpt lat="42.08572811219107" lon="11.860835248621987"><ele>154.75</ele><time>2026-04-18T08:58:46.003Z</time></trkpt><trkpt lat="42.08579329075062" lon="11.860963823865669"><ele>153.5</ele><time>2026-04-18T08:58:47.003Z</time></trkpt><trkpt lat="42.085860566426454" lon="11.861087692663427"><ele>152.25</ele><time>2026-04-18T08:58:48.003Z</time></trkpt><trkpt lat="42.08594377314102" lon="11.86120418964031"><ele>151.0</ele><time>2026-04-18T08:58:49.003Z</time></trkpt><trkpt lat="42.08601329616247" lon="11.861314591785991"><ele>151.0</ele><time>2026-04-18T08:58:50.003Z</time></trkpt><trkpt lat="42.08608049863061" lon="11.861435781030046"><ele>151.0</ele><time>2026-04-18T08:58:51.003Z</time></trkpt><trkpt lat="42.08614910421338" lon="11.86153898165589"><ele>151.0</ele><time>2026-04-18T08:58:52.003Z</time></trkpt><trkpt lat="42.086222907221476" lon="11.861630792214827"><ele>151.0</ele><time>2026-04-18T08:58:53.003Z</time></trkpt><trkpt lat="42.08626926332742" lon="11.861746972755103"><ele>151.0</ele><time>2026-04-18T08:58:54.003Z</time></trkpt><trkpt lat="42.08629359015317" lon="11.861872019933637"><ele>149.71428571428572</ele><time>2026-04-18T08:58:55.003Z</time></trkpt><trkpt lat="42.08628701753065" lon="11.861966199396344"><ele>148.42857142857144</ele><time>2026-04-18T08:58:56.003Z</time></trkpt><trkpt lat="42.08627553874483" lon="11.862066704117092"><ele>147.14285714285714</ele><time>2026-04-18T08:58:57.003Z</time></trkpt><trkpt lat="42.08626452914252" lon="11.862155472682586"><ele>145.85714285714286</ele><time>2026-04-18T08:58:58.003Z</time></trkpt><trkpt lat="42.08625448696457" lon="11.862249841280347"><ele>144.57142857142856</ele><time>2026-04-18T08:58:59.003Z</time></trkpt><trkpt lat="42.08624382544953" lon="11.862343423834384"><ele>143.28571428571428</ele><time>2026-04-18T08:59:00.003Z</time></trkpt><trkpt lat="42.08622345829154" lon="11.862432577198273"><ele>142.0</ele><time>2026-04-18T08:59:01.003Z</time></trkpt><trkpt lat="42.086201194284605" lon="11.862526202670038"><ele>142.0</ele><time>2026-04-18T08:59:02.003Z</time></trkpt><trkpt lat="42.08617534967746" lon="11.862608191493123"><ele>142.0</ele><time>2026-04-18T08:59:03.003Z</time></trkpt><trkpt lat="42.08613934415444" lon="11.862679506339028"><ele>142.0</ele><time>2026-04-18T08:59:04.003Z</time></trkpt><trkpt lat="42.086092729910305" lon="11.862739445618296"><ele>142.0</ele><time>2026-04-18T08:59:05.003Z</time></trkpt><trkpt lat="42.08599754724321" lon="11.862785424415142"><ele>142.0</ele><time>2026-04-18T08:59:07.003Z</time></trkpt><trkpt lat="42.08590857465476" lon="11.862781061760545"><ele>142.0</ele><time>2026-04-18T08:59:09.002Z</time></trkpt><trkpt lat="42.08584634658775" lon="11.862766247379005"><ele>142.0</ele><time>2026-04-18T08:59:10.002Z</time></trkpt><trkpt lat="42.08573498179856" lon="11.86277357458994"><ele>140.33333333333334</ele><time>2026-04-18T08:59:12.001Z</time></trkpt><trkpt lat="42.085668842054865" lon="11.86278388961429"><ele>138.66666666666669</ele><time>2026-04-18T08:59:13.001Z</time></trkpt><trkpt lat="42.085598944902316" lon="11.862791386484059"><ele>137.0</ele><time>2026-04-18T08:59:14.001Z</time></trkpt><trkpt lat="42.08548839465886" lon="11.862749214113395"><ele>135.33333333333334</ele><time>2026-04-18T08:59:16.001Z</time></trkpt><trkpt lat="42.085450314007" lon="11.862674554313545"><ele>133.66666666666666</ele><time>2026-04-18T08:59:17.001Z</time></trkpt><trkpt lat="42.08541541542791" lon="11.862595984313877"><ele>132.0</ele><time>2026-04-18T08:59:18.001Z</time></trkpt><trkpt lat="42.08536760958896" lon="11.862520422508151"><ele>132.0</ele><time>2026-04-18T08:59:19.001Z</time></trkpt><trkpt lat="42.085285158631095" lon="11.862476503288066"><ele>132.0</ele><time>2026-04-18T08:59:20.001Z</time></trkpt><trkpt lat="42.08520163656669" lon="11.862460329538788"><ele>132.0</ele><time>2026-04-18T08:59:21.001Z</time></trkpt><trkpt lat="42.0851217594655" lon="11.862445138411312"><ele>132.0</ele><time>2026-04-18T08:59:22.001Z</time></trkpt><trkpt lat="42.08505218314715" lon="11.862413805245527"><ele>132.0</ele><time>2026-04-18T08:59:23.001Z</time></trkpt><trkpt lat="42.084976386816685" lon="11.862397353740038"><ele>132.0</ele><time>2026-04-18T08:59:24.001Z</time></trkpt><trkpt lat="42.08490549589806" lon="11.862400401846415"><ele>130.71428571428572</ele><time>2026-04-18T08:59:25.001Z</time></trkpt><trkpt lat="42.08483142888167" lon="11.862412239080875"><ele>129.42857142857144</ele><time>2026-04-18T08:59:26.001Z</time></trkpt><trkpt lat="42.084763131630275" lon="11.862402663854512"><ele>128.14285714285717</ele><time>2026-04-18T08:59:27.001Z</time></trkpt><trkpt lat="42.08470944211911" lon="11.862354811115887"><ele>126.85714285714286</ele><time>2026-04-18T08:59:28.001Z</time></trkpt><trkpt lat="42.084656242797024" lon="11.862293418022864"><ele>125.57142857142858</ele><time>2026-04-18T08:59:29.001Z</time></trkpt><trkpt lat="42.08459132933435" lon="11.862218939319257"><ele>124.2857142857143</ele><time>2026-04-18T08:59:30.001Z</time></trkpt><trkpt lat="42.08452873096236" lon="11.862175260271203"><ele>123.00000000000001</ele><time>2026-04-18T08:59:31.001Z</time></trkpt><trkpt lat="42.084463836542795" lon="11.862145136557489"><ele>123.0</ele><time>2026-04-18T08:59:32.001Z</time></trkpt><trkpt lat="42.0843504749351" lon="11.862100191478415"><ele>123.0</ele><time>2026-04-18T08:59:34.001Z</time></trkpt><trkpt lat="42.084262682978135" lon="11.86206403651589"><ele>123.0</ele><time>2026-04-18T08:59:36.001Z</time></trkpt><trkpt lat="42.084196730503535" lon="11.8620375743109"><ele>123.0</ele><time>2026-04-18T08:59:39.001Z</time></trkpt><trkpt lat="42.08411341485455" lon="11.86200993084516"><ele>123.0</ele><time>2026-04-18T08:59:41.001Z</time></trkpt><trkpt lat="42.08403917549333" lon="11.861968193421955"><ele>123.0</ele><time>2026-04-18T08:59:43.001Z</time></trkpt><trkpt lat="42.08397166426623" lon="11.86188348949206"><ele>122.2</ele><time>2026-04-18T08:59:45.001Z</time></trkpt><trkpt lat="42.0839334324864" lon="11.861783822227771"><ele>121.4</ele><time>2026-04-18T08:59:47.001Z</time></trkpt><trkpt lat="42.08391143767712" lon="11.861678468436368"><ele>120.60000000000001</ele><time>2026-04-18T08:59:49.001Z</time></trkpt><trkpt lat="42.08380691467241" lon="11.861592448508375"><ele>119.80000000000001</ele><time>2026-04-18T08:59:51.001Z</time></trkpt><trkpt lat="42.08372891965967" lon="11.861553807776325"><ele>119.0</ele><time>2026-04-18T08:59:52.001Z</time></trkpt><trkpt lat="42.08363090878209" lon="11.861514395839457"><ele>119.0</ele><time>2026-04-18T08:59:53.001Z</time></trkpt><trkpt lat="42.08354733613395" lon="11.861469101261019"><ele>119.0</ele><time>2026-04-18T08:59:54.001Z</time></trkpt><trkpt lat="42.08347503266285" lon="11.861429639484333"><ele>119.0</ele><time>2026-04-18T08:59:55.001Z</time></trkpt><trkpt lat="42.08336228889895" lon="11.861396130523259"><ele>119.0</ele><time>2026-04-18T08:59:57.001Z</time></trkpt><trkpt lat="42.08324428211731" lon="11.861392311348526"><ele>119.0</ele><time>2026-04-18T08:59:59.001Z</time></trkpt><trkpt lat="42.08316627682895" lon="11.861383195971884"><ele>117.80000000000001</ele><time>2026-04-18T09:00:00.001Z</time></trkpt><trkpt lat="42.08310311034875" lon="11.861377731253619"><ele>116.60000000000001</ele><time>2026-04-18T09:00:01.001Z</time></trkpt><trkpt lat="42.082980657116316" lon="11.861356695602769"><ele>115.4</ele><time>2026-04-18T09:00:03.001Z</time></trkpt><trkpt lat="42.08288430709742" lon="11.861302410794679"><ele>114.2</ele><time>2026-04-18T09:00:05.001Z</time></trkpt><trkpt lat="42.082797347204995" lon="11.861266651225561"><ele>113.0</ele><time>2026-04-18T09:00:07.001Z</time></trkpt><trkpt lat="42.08287684923823" lon="11.861272538304798"><ele>112.99999999999999</ele><time>2026-04-18T09:00:23.002Z</time></trkpt><trkpt lat="42.08292618642352" lon="11.861356567455159"><ele>113.0</ele><time>2026-04-18T09:00:32.002Z</time></trkpt><trkpt lat="42.08296459923232" lon="11.861454753743676"><ele>113.0</ele><time>2026-04-18T09:00:34.002Z</time></trkpt><trkpt lat="42.082982242544475" lon="11.861579124642786"><ele>113.0</ele><time>2026-04-18T09:00:36.002Z</time></trkpt><trkpt lat="42.08300143222291" lon="11.861699345681451"><ele>112.99999999999999</ele><time>2026-04-18T09:00:38.002Z</time></trkpt><trkpt lat="42.083020897468515" lon="11.861780484227095"><ele>113.0</ele><time>2026-04-18T09:00:40.002Z</time></trkpt><trkpt lat="42.08304036494907" lon="11.861886178860859"><ele>111.33333333333333</ele><time>2026-04-18T09:00:51.002Z</time></trkpt><trkpt lat="42.08305926050935" lon="11.861968461933296"><ele>109.66666666666666</ele><time>2026-04-18T09:01:00.002Z</time></trkpt><trkpt lat="42.083074743565334" lon="11.862064972629675"><ele>108.0</ele><time>2026-04-18T09:01:04.002Z</time></trkpt><trkpt lat="42.083097459855715" lon="11.862161786615204"><ele>106.33333333333334</ele><time>2026-04-18T09:01:06.002Z</time></trkpt><trkpt lat="42.08311620579236" lon="11.862247565915577"><ele>104.66666666666667</ele><time>2026-04-18T09:01:08.002Z</time></trkpt><trkpt lat="42.08308975454115" lon="11.862378726363861"><ele>103.0</ele><time>2026-04-18T09:01:10.002Z</time></trkpt><trkpt lat="42.08309910059681" lon="11.862490269031959"><ele>103.0</ele><time>2026-04-18T09:01:12.002Z</time></trkpt><trkpt lat="42.08317986086328" lon="11.86253265126953"><ele>103.0</ele><time>2026-04-18T09:01:14.001Z</time></trkpt><trkpt lat="42.083204501222006" lon="11.862636385994495"><ele>103.0</ele><time>2026-04-18T09:01:16.001Z</time></trkpt><trkpt lat="42.08320664802989" lon="11.862826256648619"><ele>103.0</ele><time>2026-04-18T09:01:18.001Z</time></trkpt><trkpt lat="42.08321262951692" lon="11.862921456518754"><ele>103.0</ele><time>2026-04-18T09:01:19.001Z</time></trkpt><trkpt lat="42.08320594661757" lon="11.863049595030859"><ele>102.57142857142857</ele><time>2026-04-18T09:01:22.001Z</time></trkpt><trkpt lat="42.083208358657856" lon="11.863147803383864"><ele>102.14285714285714</ele><time>2026-04-18T09:01:24.001Z</time></trkpt><trkpt lat="42.08321681425562" lon="11.863250181707688"><ele>101.71428571428572</ele><time>2026-04-18T09:01:26.001Z</time></trkpt><trkpt lat="42.08322107017186" lon="11.863340091172272"><ele>101.28571428571428</ele><time>2026-04-18T09:01:28.001Z</time></trkpt><trkpt lat="42.08322700751635" lon="11.863430917985145"><ele>100.85714285714286</ele><time>2026-04-18T09:01:32.001Z</time></trkpt><trkpt lat="42.0832822848164" lon="11.863521299995524"><ele>100.42857142857143</ele><time>2026-04-18T09:01:38.001Z</time></trkpt><trkpt lat="42.08331119745794" lon="11.863598091384626"><ele>100.0</ele><time>2026-04-18T09:01:58.001Z</time></trkpt><trkpt lat="42.08331859570005" lon="11.863682936746544"><ele>100.0</ele><time>2026-04-18T09:02:07.001Z</time></trkpt><trkpt lat="42.08331866990728" lon="11.863826031828342"><ele>100.0</ele><time>2026-04-18T09:02:14.001Z</time></trkpt><trkpt lat="42.08331967447888" lon="11.863954856201236"><ele>100.0</ele><time>2026-04-18T09:02:16.001Z</time></trkpt><trkpt lat="42.08333747706117" lon="11.864109913566365"><ele>100.0</ele><time>2026-04-18T09:02:18.001Z</time></trkpt><trkpt lat="42.083364149111766" lon="11.86425585630455"><ele>100.0</ele><time>2026-04-18T09:02:20.001Z</time></trkpt><trkpt lat="42.08340270184762" lon="11.864327769338487"><ele>99.50000000000001</ele><time>2026-04-18T09:02:22.001Z</time></trkpt><trkpt lat="42.08341720827783" lon="11.864420362197375"><ele>99.0</ele><time>2026-04-18T09:02:25.001Z</time></trkpt><trkpt lat="42.08334894393542" lon="11.864454153171394"><ele>98.5</ele><time>2026-04-18T09:02:33.001Z</time></trkpt><trkpt lat="42.08326466969359" lon="11.864463966082283"><ele>98.0</ele><time>2026-04-18T09:02:36.001Z</time></trkpt><trkpt lat="42.0831578288077" lon="11.864468714715757"><ele>97.50000000000001</ele><time>2026-04-18T09:02:38.001Z</time></trkpt><trkpt lat="42.08307544742824" lon="11.864488652680485"><ele>97.0</ele><time>2026-04-18T09:02:40.001Z</time></trkpt><trkpt lat="42.08307238513098" lon="11.864584359287507"><ele>97.0</ele><time>2026-04-18T09:02:43.001Z</time></trkpt><trkpt lat="42.083114045939205" lon="11.864678314393801"><ele>97.0</ele><time>2026-04-18T09:02:45.001Z</time></trkpt><trkpt lat="42.08311355220112" lon="11.864782797290053"><ele>97.0</ele><time>2026-04-18T09:02:47.001Z</time></trkpt><trkpt lat="42.0830984983355" lon="11.864870897544453"><ele>97.0</ele><time>2026-04-18T09:02:50.001Z</time></trkpt><trkpt lat="42.08308922108312" lon="11.864980242066542"><ele>97.0</ele><time>2026-04-18T09:02:57.002Z</time></trkpt><trkpt lat="42.08313928979075" lon="11.865035769081723"><ele>97.0</ele><time>2026-04-18T09:02:59.002Z</time></trkpt><trkpt lat="42.08321297373791" lon="11.865037532560596"><ele>97.0</ele><time>2026-04-18T09:03:10.002Z</time></trkpt><trkpt lat="42.08328571423391" lon="11.865103047462513"><ele>97.42857142857143</ele><time>2026-04-18T09:03:32Z</time></trkpt><trkpt lat="42.08334529217069" lon="11.865136028435161"><ele>97.85714285714286</ele><time>2026-04-18T09:03:35Z</time></trkpt><trkpt lat="42.083433188746696" lon="11.865177010155483"><ele>98.28571428571429</ele><time>2026-04-18T09:03:37Z</time></trkpt><trkpt lat="42.08349928967642" lon="11.865219776468965"><ele>98.71428571428572</ele><time>2026-04-18T09:03:39Z</time></trkpt><trkpt lat="42.0835629036985" lon="11.865303258746934"><ele>99.14285714285714</ele><time>2026-04-18T09:03:42Z</time></trkpt><trkpt lat="42.08360608862209" lon="11.86537168572715"><ele>99.57142857142858</ele><time>2026-04-18T09:03:44Z</time></trkpt><trkpt lat="42.08359904088319" lon="11.865456209801696"><ele>100.0</ele><time>2026-04-18T09:06:09.001Z</time></trkpt><trkpt lat="42.083604310115156" lon="11.86555293844887"><ele>100.00000000000001</ele><time>2026-04-18T09:06:11.001Z</time></trkpt><trkpt lat="42.083588796120026" lon="11.865679602082581"><ele>100.0</ele><time>2026-04-18T09:06:13.001Z</time></trkpt><trkpt lat="42.08355248508474" lon="11.865770018368142"><ele>100.0</ele><time>2026-04-18T09:06:15.001Z</time></trkpt><trkpt lat="42.08344476076418" lon="11.865763953871584"><ele>100.0</ele><time>2026-04-18T09:06:18.001Z</time></trkpt><trkpt lat="42.08338021574507" lon="11.865732899186776"><ele>100.00000000000001</ele><time>2026-04-18T09:06:19.001Z</time></trkpt><trkpt lat="42.083301079569104" lon="11.865762919780078"><ele>100.0</ele><time>2026-04-18T09:06:22.001Z</time></trkpt><trkpt lat="42.08325484695699" lon="11.865831726283577"><ele>101.50000000000001</ele><time>2026-04-18T09:06:24.001Z</time></trkpt><trkpt lat="42.083197509570354" lon="11.865925205409466"><ele>103.0</ele><time>2026-04-18T09:06:26.001Z</time></trkpt><trkpt lat="42.08316540005717" lon="11.86600830593086"><ele>104.5</ele><time>2026-04-18T09:06:27.001Z</time></trkpt><trkpt lat="42.083112582080794" lon="11.866127789048866"><ele>106.0</ele><time>2026-04-18T09:06:29.001Z</time></trkpt><trkpt lat="42.083092877635444" lon="11.866222331727927"><ele>107.50000000000001</ele><time>2026-04-18T09:06:31.001Z</time></trkpt><trkpt lat="42.083022432587434" lon="11.866287364101751"><ele>109.0</ele><time>2026-04-18T09:06:34.001Z</time></trkpt><trkpt lat="42.08295399437776" lon="11.86633607800317"><ele>111.16666666666667</ele><time>2026-04-18T09:06:36.001Z</time></trkpt><trkpt lat="42.08286026239647" lon="11.866378918994872"><ele>113.33333333333334</ele><time>2026-04-18T09:06:38.001Z</time></trkpt><trkpt lat="42.08278880008531" lon="11.866360353515613"><ele>115.5</ele><time>2026-04-18T09:07:42Z</time></trkpt><trkpt lat="42.08272237181148" lon="11.866370571563674"><ele>117.66666666666666</ele><time>2026-04-18T09:11:15.001Z</time></trkpt><trkpt lat="42.0826290361314" lon="11.866347061604381"><ele>119.83333333333333</ele><time>2026-04-18T09:11:33.001Z</time></trkpt><trkpt lat="42.082549797552815" lon="11.866344571275732"><ele>122.0</ele><time>2026-04-18T09:11:35.001Z</time></trkpt><trkpt lat="42.08247764895072" lon="11.866315490780973"><ele>122.33333333333333</ele><time>2026-04-18T09:11:37.001Z</time></trkpt><trkpt lat="42.082389350833374" lon="11.866306158521052"><ele>122.66666666666666</ele><time>2026-04-18T09:11:39.001Z</time></trkpt><trkpt lat="42.08231201012181" lon="11.866252175073482"><ele>123.0</ele><time>2026-04-18T09:12:33Z</time></trkpt><trkpt lat="42.08224889539672" lon="11.866195088704464"><ele>123.33333333333334</ele><time>2026-04-18T09:12:35Z</time></trkpt><trkpt lat="42.08221495745901" lon="11.866071439764614"><ele>123.66666666666667</ele><time>2026-04-18T09:12:46.001Z</time></trkpt><trkpt lat="42.08220850387525" lon="11.865985180924415"><ele>124.0</ele><time>2026-04-18T09:12:48.001Z</time></trkpt><trkpt lat="42.08215742067737" lon="11.865860850385001"><ele>124.0</ele><time>2026-04-18T09:12:51.001Z</time></trkpt><trkpt lat="42.08216355059404" lon="11.865719991908065"><ele>124.0</ele><time>2026-04-18T09:12:53.001Z</time></trkpt><trkpt lat="42.08211994962017" lon="11.865621564561403"><ele>124.0</ele><time>2026-04-18T09:12:55.001Z</time></trkpt><trkpt lat="42.08206660266331" lon="11.865564523608187"><ele>124.0</ele><time>2026-04-18T09:12:57.001Z</time></trkpt><trkpt lat="42.081960685500945" lon="11.865582120888446"><ele>124.0</ele><time>2026-04-18T09:13:00.001Z</time></trkpt><trkpt lat="42.081848954145755" lon="11.865621463991944"><ele>124.00000000000001</ele><time>2026-04-18T09:13:02.001Z</time></trkpt><trkpt lat="42.081759721556175" lon="11.865607889709239"><ele>124.0</ele><time>2026-04-18T09:13:04.001Z</time></trkpt><trkpt lat="42.08167754928671" lon="11.865514657913161"><ele>124.0</ele><time>2026-04-18T09:13:06.001Z</time></trkpt><trkpt lat="42.08161977951999" lon="11.865467716780127"><ele>124.0</ele><time>2026-04-18T09:13:08.001Z</time></trkpt><trkpt lat="42.081534069188464" lon="11.86546277294405"><ele>124.00000000000001</ele><time>2026-04-18T09:13:11.001Z</time></trkpt><trkpt lat="42.081467430305004" lon="11.865493280759539"><ele>124.0</ele><time>2026-04-18T09:13:14.001Z</time></trkpt><trkpt lat="42.08140906377326" lon="11.86554237073123"><ele>125.00000000000001</ele><time>2026-04-18T09:13:16.001Z</time></trkpt><trkpt lat="42.08134485909788" lon="11.865579419364238"><ele>126.0</ele><time>2026-04-18T09:13:18.001Z</time></trkpt><trkpt lat="42.081257690176855" lon="11.865602780594214"><ele>127.0</ele><time>2026-04-18T09:13:20.001Z</time></trkpt><trkpt lat="42.08117787326499" lon="11.865636914469167"><ele>128.0</ele><time>2026-04-18T09:13:22.001Z</time></trkpt><trkpt lat="42.08108751638567" lon="11.865631613338529"><ele>129.0</ele><time>2026-04-18T09:13:24.001Z</time></trkpt><trkpt lat="42.08098429183612" lon="11.86563925541299"><ele>130.0</ele><time>2026-04-18T09:13:27.001Z</time></trkpt><trkpt lat="42.080897174412975" lon="11.865664598380206"><ele>130.0</ele><time>2026-04-18T09:13:29.001Z</time></trkpt><trkpt lat="42.08081596083176" lon="11.865644492041278"><ele>130.0</ele><time>2026-04-18T09:13:31.001Z</time></trkpt><trkpt lat="42.080739660184285" lon="11.865642055574266"><ele>130.0</ele><time>2026-04-18T09:13:33.001Z</time></trkpt><trkpt lat="42.08063129075979" lon="11.865703784635043"><ele>130.0</ele><time>2026-04-18T09:13:35.001Z</time></trkpt><trkpt lat="42.08052025207878" lon="11.865759103108884"><ele>130.0</ele><time>2026-04-18T09:13:37.001Z</time></trkpt><trkpt lat="42.080409719769605" lon="11.86577186023799"><ele>131.0</ele><time>2026-04-18T09:13:39.001Z</time></trkpt><trkpt lat="42.08030167774547" lon="11.865779336080921"><ele>132.0</ele><time>2026-04-18T09:13:41.001Z</time></trkpt><trkpt lat="42.08021856288661" lon="11.865799776966615"><ele>133.0</ele><time>2026-04-18T09:13:43.001Z</time></trkpt><trkpt lat="42.08010465040725" lon="11.865825984866925"><ele>134.0</ele><time>2026-04-18T09:13:45.001Z</time></trkpt><trkpt lat="42.0800128827357" lon="11.865840264304223"><ele>135.0</ele><time>2026-04-18T09:13:47.001Z</time></trkpt><trkpt lat="42.079945404666255" lon="11.865838106611873"><ele>134.16666666666666</ele><time>2026-04-18T09:13:49.001Z</time></trkpt><trkpt lat="42.07988009125572" lon="11.865847779994455"><ele>133.33333333333334</ele><time>2026-04-18T09:13:50.999Z</time></trkpt><trkpt lat="42.07980226589501" lon="11.865921202983655"><ele>132.5</ele><time>2026-04-18T09:13:52.999Z</time></trkpt><trkpt lat="42.07976475435398" lon="11.866060912076032"><ele>131.66666666666669</ele><time>2026-04-18T09:13:54.999Z</time></trkpt><trkpt lat="42.07975052345892" lon="11.866163914136735"><ele>130.83333333333334</ele><time>2026-04-18T09:13:56.999Z</time></trkpt><trkpt lat="42.07972487437302" lon="11.866274470518011"><ele>130.0</ele><time>2026-04-18T09:13:58.999Z</time></trkpt><trkpt lat="42.07972704750737" lon="11.866368424007627"><ele>132.2</ele><time>2026-04-18T09:14:00.999Z</time></trkpt><trkpt lat="42.07975959810409" lon="11.866466593777988"><ele>134.4</ele><time>2026-04-18T09:14:02.999Z</time></trkpt><trkpt lat="42.07991121634294" lon="11.866488187918053"><ele>136.6</ele><time>2026-04-18T09:14:04.999Z</time></trkpt><trkpt lat="42.07999082191791" lon="11.866479308064143"><ele>138.8</ele><time>2026-04-18T09:14:05.999Z</time></trkpt><trkpt lat="42.08005507549821" lon="11.86649118478786"><ele>141.0</ele><time>2026-04-18T09:14:06.999Z</time></trkpt><trkpt lat="42.080146623200186" lon="11.866561166509294"><ele>141.8</ele><time>2026-04-18T09:14:08.999Z</time></trkpt><trkpt lat="42.08020714764522" lon="11.866687526287263"><ele>142.6</ele><time>2026-04-18T09:14:11Z</time></trkpt><trkpt lat="42.08022248068252" lon="11.866807539486688"><ele>143.4</ele><time>2026-04-18T09:14:13Z</time></trkpt><trkpt lat="42.080221172845796" lon="11.866959569782525"><ele>144.2</ele><time>2026-04-18T09:14:15Z</time></trkpt><trkpt lat="42.08020918929727" lon="11.867048913637134"><ele>145.0</ele><time>2026-04-18T09:14:16Z</time></trkpt><trkpt lat="42.08018434633343" lon="11.867200659080684"><ele>146.33333333333334</ele><time>2026-04-18T09:14:18Z</time></trkpt><trkpt lat="42.08018143159903" lon="11.867297939953401"><ele>147.66666666666669</ele><time>2026-04-18T09:14:19Z</time></trkpt><trkpt lat="42.080188557259056" lon="11.867480999026531"><ele>149.0</ele><time>2026-04-18T09:14:21Z</time></trkpt><trkpt lat="42.08018888583106" lon="11.867592881147791"><ele>150.33333333333334</ele><time>2026-04-18T09:14:22Z</time></trkpt><trkpt lat="42.08018786197862" lon="11.867681347722483"><ele>151.66666666666666</ele><time>2026-04-18T09:14:23Z</time></trkpt><trkpt lat="42.080189942595176" lon="11.867769385004392"><ele>153.0</ele><time>2026-04-18T09:14:24Z</time></trkpt><trkpt lat="42.080177109502124" lon="11.867915775122157"><ele>154.0</ele><time>2026-04-18T09:14:26Z</time></trkpt><trkpt lat="42.08014443969813" lon="11.868041973606433"><ele>155.0</ele><time>2026-04-18T09:14:28Z</time></trkpt><trkpt lat="42.080109535218405" lon="11.86811407030519"><ele>156.0</ele><time>2026-04-18T09:14:29Z</time></trkpt><trkpt lat="42.080044325227846" lon="11.868241436425238"><ele>157.0</ele><time>2026-04-18T09:14:31Z</time></trkpt><trkpt lat="42.08001741001712" lon="11.868345343304686"><ele>158.0</ele><time>2026-04-18T09:14:33Z</time></trkpt><trkpt lat="42.07997699968975" lon="11.868440189767213"><ele>159.0</ele><time>2026-04-18T09:14:35Z</time></trkpt><trkpt lat="42.07991864681283" lon="11.868585123443593"><ele>160.5</ele><time>2026-04-18T09:14:37Z</time></trkpt><trkpt lat="42.07989673634158" lon="11.86868199783068"><ele>162.0</ele><time>2026-04-18T09:14:38Z</time></trkpt><trkpt lat="42.079848006244674" lon="11.868813956953252"><ele>163.5</ele><time>2026-04-18T09:14:40Z</time></trkpt><trkpt lat="42.079794748478136" lon="11.868918652260943"><ele>165.0</ele><time>2026-04-18T09:14:42Z</time></trkpt><trkpt lat="42.07975877563343" lon="11.8690164784275"><ele>166.5</ele><time>2026-04-18T09:14:44Z</time></trkpt><trkpt lat="42.0797172897771" lon="11.869121163027545"><ele>168.0</ele><time>2026-04-18T09:14:46Z</time></trkpt><trkpt lat="42.07968540980086" lon="11.869223042961513"><ele>169.66666666666666</ele><time>2026-04-18T09:14:48Z</time></trkpt><trkpt lat="42.07965182765496" lon="11.869324882114562"><ele>171.33333333333334</ele><time>2026-04-18T09:14:50Z</time></trkpt><trkpt lat="42.07961890898006" lon="11.86940188545514"><ele>173.0</ele><time>2026-04-18T09:14:52Z</time></trkpt><trkpt lat="42.07957831249891" lon="11.869502064674784"><ele>174.66666666666669</ele><time>2026-04-18T09:14:54Z</time></trkpt><trkpt lat="42.07953765201516" lon="11.869584961931544"><ele>176.33333333333334</ele><time>2026-04-18T09:14:56Z</time></trkpt><trkpt lat="42.0794946182022" lon="11.869702580582388"><ele>178.0</ele><time>2026-04-18T09:17:36.001Z</time></trkpt><trkpt lat="42.079455477625025" lon="11.869784185912607"><ele>178.0</ele><time>2026-04-18T09:17:38.001Z</time></trkpt><trkpt lat="42.07941870503719" lon="11.869860588807025"><ele>178.0</ele><time>2026-04-18T09:17:51.001Z</time></trkpt><trkpt lat="42.07938297509628" lon="11.869944644171184"><ele>178.0</ele><time>2026-04-18T09:18:14.001Z</time></trkpt><trkpt lat="42.079398329080874" lon="11.870074222618337"><ele>178.0</ele><time>2026-04-18T09:18:17Z</time></trkpt><trkpt lat="42.07944551146382" lon="11.870148439273112"><ele>178.0</ele><time>2026-04-18T09:18:19Z</time></trkpt><trkpt lat="42.079524301794585" lon="11.870173130592367"><ele>178.0</ele><time>2026-04-18T09:18:38.001Z</time></trkpt><trkpt lat="42.07960966131028" lon="11.870220635570893"><ele>181.2</ele><time>2026-04-18T09:18:40.001Z</time></trkpt><trkpt lat="42.07968830384087" lon="11.870299495302302"><ele>184.4</ele><time>2026-04-18T09:18:42.001Z</time></trkpt><trkpt lat="42.0797839491447" lon="11.870347551973076"><ele>187.6</ele><time>2026-04-18T09:18:44.001Z</time></trkpt><trkpt lat="42.07987563934174" lon="11.870400567548932"><ele>190.79999999999998</ele><time>2026-04-18T09:18:46.001Z</time></trkpt><trkpt lat="42.07995580762004" lon="11.870478940865372"><ele>194.0</ele><time>2026-04-18T09:18:48.001Z</time></trkpt><trkpt lat="42.08005299235384" lon="11.870525366600717"><ele>194.0</ele><time>2026-04-18T09:18:50.001Z</time></trkpt><trkpt lat="42.080192655530126" lon="11.870509055587236"><ele>194.0</ele><time>2026-04-18T09:18:52.001Z</time></trkpt><trkpt lat="42.08029443103756" lon="11.870503696233616"><ele>194.0</ele><time>2026-04-18T09:18:54.001Z</time></trkpt><trkpt lat="42.08039190960566" lon="11.870555360990647"><ele>194.0</ele><time>2026-04-18T09:18:56.001Z</time></trkpt><trkpt lat="42.08049342965824" lon="11.87061762905115"><ele>194.00000000000003</ele><time>2026-04-18T09:18:58.001Z</time></trkpt><trkpt lat="42.08058362847919" lon="11.870741860594551"><ele>194.0</ele><time>2026-04-18T09:19:00.001Z</time></trkpt><trkpt lat="42.08061964445708" lon="11.870812407356064"><ele>194.0</ele><time>2026-04-18T09:19:01.001Z</time></trkpt><trkpt lat="42.08065211240759" lon="11.870901718101614"><ele>194.0</ele><time>2026-04-18T09:19:02.001Z</time></trkpt><trkpt lat="42.080682452400794" lon="11.870986364006631"><ele>194.00000000000003</ele><time>2026-04-18T09:19:03.001Z</time></trkpt><trkpt lat="42.08074775064017" lon="11.87103097880282"><ele>194.0</ele><time>2026-04-18T09:19:05.001Z</time></trkpt><trkpt lat="42.08081141055083" lon="11.87096342734379"><ele>194.50000000000003</ele><time>2026-04-18T09:19:07.001Z</time></trkpt><trkpt lat="42.08084797792604" lon="11.870879266677377"><ele>195.0</ele><time>2026-04-18T09:19:08.001Z</time></trkpt><trkpt lat="42.08088553528279" lon="11.870793791782786"><ele>195.5</ele><time>2026-04-18T09:19:09.001Z</time></trkpt><trkpt lat="42.080963989296684" lon="11.870710775197027"><ele>196.0</ele><time>2026-04-18T09:19:11.001Z</time></trkpt><trkpt lat="42.081045142102816" lon="11.870655178950559"><ele>196.50000000000003</ele><time>2026-04-18T09:19:13.001Z</time></trkpt><trkpt lat="42.081113518442805" lon="11.870568187032763"><ele>197.0</ele><time>2026-04-18T09:19:15.001Z</time></trkpt><trkpt lat="42.081179444845425" lon="11.870515677570262"><ele>197.00000000000003</ele><time>2026-04-18T09:19:17.001Z</time></trkpt><trkpt lat="42.08127296127482" lon="11.870478099487478"><ele>197.0</ele><time>2026-04-18T09:19:19.001Z</time></trkpt><trkpt lat="42.08134977274172" lon="11.87046546434617"><ele>197.0</ele><time>2026-04-18T09:19:20.001Z</time></trkpt><trkpt lat="42.08143867401191" lon="11.87045150683186"><ele>197.0</ele><time>2026-04-18T09:19:21.001Z</time></trkpt><trkpt lat="42.08150606092818" lon="11.870438179199343"><ele>197.00000000000003</ele><time>2026-04-18T09:19:22.001Z</time></trkpt><trkpt lat="42.081598133441645" lon="11.870445347140791"><ele>197.0</ele><time>2026-04-18T09:19:24.001Z</time></trkpt><trkpt lat="42.081701169761324" lon="11.870494176852192"><ele>198.8</ele><time>2026-04-18T09:19:27.001Z</time></trkpt><trkpt lat="42.08178098086986" lon="11.870536961184884"><ele>200.6</ele><time>2026-04-18T09:19:29.001Z</time></trkpt><trkpt lat="42.08187464075015" lon="11.870592839957624"><ele>202.4</ele><time>2026-04-18T09:19:31.001Z</time></trkpt><trkpt lat="42.08197597985256" lon="11.870638830424"><ele>204.20000000000002</ele><time>2026-04-18T09:19:33.001Z</time></trkpt><trkpt lat="42.08207862310848" lon="11.870688681831977"><ele>206.0</ele><time>2026-04-18T09:19:35.001Z</time></trkpt><trkpt lat="42.082181060476636" lon="11.8707270747504"><ele>206.0</ele><time>2026-04-18T09:19:37.001Z</time></trkpt><trkpt lat="42.08226974598862" lon="11.870767617028829"><ele>206.0</ele><time>2026-04-18T09:19:39.001Z</time></trkpt><trkpt lat="42.08232698621204" lon="11.87082116761707"><ele>206.0</ele><time>2026-04-18T09:19:41.001Z</time></trkpt><trkpt lat="42.082428114841356" lon="11.870884185388912"><ele>206.0</ele><time>2026-04-18T09:19:43.001Z</time></trkpt><trkpt lat="42.08252764347143" lon="11.870936904422408"><ele>206.0</ele><time>2026-04-18T09:19:45.002Z</time></trkpt><trkpt lat="42.08262534256132" lon="11.87097908215339"><ele>208.00000000000003</ele><time>2026-04-18T09:19:47.002Z</time></trkpt><trkpt lat="42.082712635873435" lon="11.87102520528701"><ele>210.0</ele><time>2026-04-18T09:19:49.002Z</time></trkpt><trkpt lat="42.08282900175863" lon="11.871043927874398"><ele>212.0</ele><time>2026-04-18T09:19:51.002Z</time></trkpt><trkpt lat="42.082892882360966" lon="11.871061518410066"><ele>214.0</ele><time>2026-04-18T09:19:52.002Z</time></trkpt><trkpt lat="42.08297119306153" lon="11.871101909082379"><ele>216.00000000000003</ele><time>2026-04-18T09:19:54.002Z</time></trkpt><trkpt lat="42.08305277806419" lon="11.871148219541265"><ele>218.0</ele><time>2026-04-18T09:19:57.002Z</time></trkpt><trkpt lat="42.08313285675275" lon="11.87119918144778"><ele>218.0</ele><time>2026-04-18T09:20:00.002Z</time></trkpt><trkpt lat="42.08318132040504" lon="11.871264751913525"><ele>218.0</ele><time>2026-04-18T09:20:03.002Z</time></trkpt><trkpt lat="42.08323227456599" lon="11.871321695122509"><ele>218.0</ele><time>2026-04-18T09:20:11Z</time></trkpt><trkpt lat="42.083306619726194" lon="11.871393151710322"><ele>218.0</ele><time>2026-04-18T09:20:13Z</time></trkpt><trkpt lat="42.0834154351257" lon="11.87147245194566"><ele>218.0</ele><time>2026-04-18T09:20:15Z</time></trkpt><trkpt lat="42.08350058518581" lon="11.871588063436413"><ele>218.0</ele><time>2026-04-18T09:20:17Z</time></trkpt><trkpt lat="42.08360492677692" lon="11.871679511279954"><ele>218.0</ele><time>2026-04-18T09:20:19Z</time></trkpt><trkpt lat="42.083697554752604" lon="11.8717694683176"><ele>218.0</ele><time>2026-04-18T09:20:21Z</time></trkpt><trkpt lat="42.0837489799075" lon="11.871821573309353"><ele>218.0</ele><time>2026-04-18T09:20:22Z</time></trkpt><trkpt lat="42.083829088723206" lon="11.87193709007603"><ele>218.0</ele><time>2026-04-18T09:20:24Z</time></trkpt><trkpt lat="42.083914804308826" lon="11.872043336811393"><ele>220.60000000000002</ele><time>2026-04-18T09:20:26Z</time></trkpt><trkpt lat="42.084017363503904" lon="11.872113203442318"><ele>223.20000000000002</ele><time>2026-04-18T09:20:28Z</time></trkpt><trkpt lat="42.084117559999854" lon="11.872172584934475"><ele>225.8</ele><time>2026-04-18T09:20:30Z</time></trkpt><trkpt lat="42.08420215090657" lon="11.872252686615353"><ele>228.4</ele><time>2026-04-18T09:20:32Z</time></trkpt><trkpt lat="42.08425500910716" lon="11.872379093175727"><ele>231.0</ele><time>2026-04-18T09:20:34Z</time></trkpt><trkpt lat="42.08437534286199" lon="11.872485282938372"><ele>231.0</ele><time>2026-04-18T09:20:36Z</time></trkpt><trkpt lat="42.08443898059995" lon="11.872537562967757"><ele>231.00000000000003</ele><time>2026-04-18T09:20:37Z</time></trkpt><trkpt lat="42.084528634681355" lon="11.87266070175494"><ele>231.00000000000003</ele><time>2026-04-18T09:20:39Z</time></trkpt><trkpt lat="42.084596829398706" lon="11.872720569320657"><ele>231.0</ele><time>2026-04-18T09:20:41Z</time></trkpt><trkpt lat="42.08468320461172" lon="11.87272321312841"><ele>231.0</ele><time>2026-04-18T09:20:44Z</time></trkpt><trkpt lat="42.084786744537446" lon="11.872626790212049"><ele>231.0</ele><time>2026-04-18T09:20:46Z</time></trkpt><trkpt lat="42.08485273539665" lon="11.872541099382975"><ele>231.0</ele><time>2026-04-18T09:20:47Z</time></trkpt><trkpt lat="42.08491844683718" lon="11.87247352830361"><ele>231.0</ele><time>2026-04-18T09:20:48Z</time></trkpt><trkpt lat="42.08498754958835" lon="11.872418559227048"><ele>231.0</ele><time>2026-04-18T09:20:49Z</time></trkpt><trkpt lat="42.085052023153125" lon="11.872370391913925"><ele>231.0</ele><time>2026-04-18T09:20:50Z</time></trkpt><trkpt lat="42.08511990607711" lon="11.872338068744881"><ele>231.0</ele><time>2026-04-18T09:20:51Z</time></trkpt><trkpt lat="42.085193532710896" lon="11.872307218436449"><ele>231.5</ele><time>2026-04-18T09:20:52Z</time></trkpt><trkpt lat="42.08526926458384" lon="11.872270466291045"><ele>232.0</ele><time>2026-04-18T09:20:53Z</time></trkpt><trkpt lat="42.08535836696991" lon="11.872234390692734"><ele>232.5</ele><time>2026-04-18T09:20:54Z</time></trkpt><trkpt lat="42.08544413360982" lon="11.872195966164622"><ele>233.0</ele><time>2026-04-18T09:20:55Z</time></trkpt><trkpt lat="42.085504401265005" lon="11.87215354288564"><ele>233.5</ele><time>2026-04-18T09:20:56Z</time></trkpt><trkpt lat="42.08559905423851" lon="11.872076796997396"><ele>234.0</ele><time>2026-04-18T09:20:58Z</time></trkpt><trkpt lat="42.08569297190135" lon="11.872001374703194"><ele>234.0</ele><time>2026-04-18T09:21:00Z</time></trkpt><trkpt lat="42.0857614559317" lon="11.871951198428825"><ele>234.0</ele><time>2026-04-18T09:21:02Z</time></trkpt><trkpt lat="42.085819492457425" lon="11.871906379841962"><ele>234.0</ele><time>2026-04-18T09:21:51.001Z</time></trkpt><trkpt lat="42.085870268094496" lon="11.871839282935278"><ele>234.0</ele><time>2026-04-18T09:21:53.001Z</time></trkpt><trkpt lat="42.08594231225967" lon="11.871759937882546"><ele>234.0</ele><time>2026-04-18T09:21:55.001Z</time></trkpt><trkpt lat="42.0860183946873" lon="11.871703086928731"><ele>234.0</ele><time>2026-04-18T09:21:57.001Z</time></trkpt><trkpt lat="42.086074175559766" lon="11.87164230183516"><ele>234.2</ele><time>2026-04-18T09:21:59.001Z</time></trkpt><trkpt lat="42.08615082522726" lon="11.871566722296148"><ele>234.39999999999998</ele><time>2026-04-18T09:22:01.001Z</time></trkpt><trkpt lat="42.08620323304682" lon="11.871500462567532"><ele>234.6</ele><time>2026-04-18T09:22:03.001Z</time></trkpt><trkpt lat="42.08629495131442" lon="11.87148712290511"><ele>234.8</ele><time>2026-04-18T09:22:08.001Z</time></trkpt><trkpt lat="42.08642110627508" lon="11.871480666693563"><ele>235.0</ele><time>2026-04-18T09:22:10.001Z</time></trkpt><trkpt lat="42.08649586382131" lon="11.871505003315416"><ele>234.99999999999997</ele><time>2026-04-18T09:22:11.001Z</time></trkpt><trkpt lat="42.08658002943463" lon="11.871525955523952"><ele>235.0</ele><time>2026-04-18T09:22:12.001Z</time></trkpt><trkpt lat="42.08666261702603" lon="11.871557053104421"><ele>235.0</ele><time>2026-04-18T09:22:13.001Z</time></trkpt><trkpt lat="42.08672565986096" lon="11.871586358035945"><ele>235.0</ele><time>2026-04-18T09:22:13.999Z</time></trkpt><trkpt lat="42.086789001567304" lon="11.871598633612908"><ele>234.99999999999997</ele><time>2026-04-18T09:22:14.999Z</time></trkpt><trkpt lat="42.08687068717034" lon="11.871610834305523"><ele>235.0</ele><time>2026-04-18T09:22:15.999Z</time></trkpt><trkpt lat="42.08696753165375" lon="11.871614293209532"><ele>235.6</ele><time>2026-04-18T09:22:16.999Z</time></trkpt><trkpt lat="42.08707823526304" lon="11.87160418627213"><ele>236.2</ele><time>2026-04-18T09:22:17.999Z</time></trkpt><trkpt lat="42.08717803357369" lon="11.871571900779394"><ele>236.8</ele><time>2026-04-18T09:22:18.999Z</time></trkpt><trkpt lat="42.08726888851011" lon="11.87155461287469"><ele>237.4</ele><time>2026-04-18T09:22:19.999Z</time></trkpt><trkpt lat="42.087365100078685" lon="11.871543297819699"><ele>238.0</ele><time>2026-04-18T09:22:20.999Z</time></trkpt><trkpt lat="42.08744953236789" lon="11.871530687982544"><ele>236.60000000000002</ele><time>2026-04-18T09:22:21.999Z</time></trkpt><trkpt lat="42.087523724511634" lon="11.871553481100328"><ele>235.20000000000002</ele><time>2026-04-18T09:22:22.999Z</time></trkpt><trkpt lat="42.08764302258391" lon="11.871517615693307"><ele>233.8</ele><time>2026-04-18T09:22:24.999Z</time></trkpt><trkpt lat="42.087748561591795" lon="11.871514146058841"><ele>232.4</ele><time>2026-04-18T09:22:27Z</time></trkpt><trkpt lat="42.08781554743291" lon="11.871513711180548"><ele>231.0</ele><time>2026-04-18T09:22:29Z</time></trkpt><trkpt lat="42.087903882744925" lon="11.871506909818105"><ele>231.0</ele><time>2026-04-18T09:22:33Z</time></trkpt><trkpt lat="42.087995249637316" lon="11.871510543229485"><ele>231.00000000000003</ele><time>2026-04-18T09:22:35Z</time></trkpt><trkpt lat="42.088059118945516" lon="11.871514251088572"><ele>231.00000000000003</ele><time>2026-04-18T09:22:38Z</time></trkpt><trkpt lat="42.08814093206005" lon="11.871467089488224"><ele>231.0</ele><time>2026-04-18T09:28:16.002Z</time></trkpt><trkpt lat="42.088261554641356" lon="11.871474499255154"><ele>231.0</ele><time>2026-04-18T09:28:18.002Z</time></trkpt><trkpt lat="42.08839478036123" lon="11.871522666353739"><ele>230.60000000000002</ele><time>2026-04-18T09:28:20.002Z</time></trkpt><trkpt lat="42.0884553398129" lon="11.871583955649777"><ele>230.20000000000002</ele><time>2026-04-18T09:28:21.002Z</time></trkpt><trkpt lat="42.088559669241896" lon="11.871618843468427"><ele>229.79999999999998</ele><time>2026-04-18T09:28:23.002Z</time></trkpt><trkpt lat="42.088641664391446" lon="11.871676335859394"><ele>229.39999999999998</ele><time>2026-04-18T09:28:25.002Z</time></trkpt><trkpt lat="42.08872745351216" lon="11.87173740551575"><ele>229.0</ele><time>2026-04-18T09:28:27.002Z</time></trkpt><trkpt lat="42.088789753521475" lon="11.871812584903614"><ele>227.66666666666666</ele><time>2026-04-18T09:28:29.002Z</time></trkpt><trkpt lat="42.08886684896086" lon="11.871862749753932"><ele>226.33333333333331</ele><time>2026-04-18T09:28:31.002Z</time></trkpt><trkpt lat="42.08894709053144" lon="11.871905554801561"><ele>225.0</ele><time>2026-04-18T09:28:33.001Z</time></trkpt><trkpt lat="42.089039347981966" lon="11.871944620574736"><ele>223.66666666666669</ele><time>2026-04-18T09:28:35.001Z</time></trkpt><trkpt lat="42.08914984864986" lon="11.871942838954247"><ele>222.33333333333334</ele><time>2026-04-18T09:28:37.001Z</time></trkpt><trkpt lat="42.08921752641277" lon="11.871954778762536"><ele>221.0</ele><time>2026-04-18T09:28:38.001Z</time></trkpt><trkpt lat="42.08931845196764" lon="11.871997691748662"><ele>220.66666666666669</ele><time>2026-04-18T09:28:40.001Z</time></trkpt><trkpt lat="42.089384984939976" lon="11.871979245316915"><ele>220.33333333333334</ele><time>2026-04-18T09:28:41.001Z</time></trkpt><trkpt lat="42.08944776302417" lon="11.871969244484594"><ele>220.0</ele><time>2026-04-18T09:28:42.001Z</time></trkpt><trkpt lat="42.08951968020179" lon="11.87200092020495"><ele>219.66666666666669</ele><time>2026-04-18T09:28:43.001Z</time></trkpt><trkpt lat="42.089583696841686" lon="11.872015706573144"><ele>219.33333333333334</ele><time>2026-04-18T09:28:44.001Z</time></trkpt><trkpt lat="42.08965105181255" lon="11.87203948615769"><ele>219.0</ele><time>2026-04-18T09:28:45.001Z</time></trkpt><trkpt lat="42.08974854414848" lon="11.872103222194275"><ele>219.0</ele><time>2026-04-18T09:28:47.001Z</time></trkpt><trkpt lat="42.08981805485644" lon="11.872174762759954"><ele>218.99999999999997</ele><time>2026-04-18T09:28:49.001Z</time></trkpt><trkpt lat="42.089866956815364" lon="11.872246658407665"><ele>218.99999999999997</ele><time>2026-04-18T09:28:51.001Z</time></trkpt><trkpt lat="42.089856524336305" lon="11.872357614367917"><ele>219.0</ele><time>2026-04-18T09:28:53.001Z</time></trkpt><trkpt lat="42.08976466404391" lon="11.872463989566638"><ele>219.0</ele><time>2026-04-18T09:28:55.001Z</time></trkpt><trkpt lat="42.08968791034153" lon="11.872539247143699"><ele>215.79999999999998</ele><time>2026-04-18T09:28:56.001Z</time></trkpt><trkpt lat="42.089623083547075" lon="11.872629038854942"><ele>212.59999999999997</ele><time>2026-04-18T09:28:57.001Z</time></trkpt><trkpt lat="42.08957313472942" lon="11.872723460063382"><ele>209.4</ele><time>2026-04-18T09:28:58.001Z</time></trkpt><trkpt lat="42.089524491373176" lon="11.872846692943067"><ele>206.2</ele><time>2026-04-18T09:28:59.001Z</time></trkpt><trkpt lat="42.08947865058537" lon="11.872979008982908"><ele>203.0</ele><time>2026-04-18T09:29:00.001Z</time></trkpt><trkpt lat="42.08941616958078" lon="11.873075461866883"><ele>203.00000000000003</ele><time>2026-04-18T09:29:01.001Z</time></trkpt><trkpt lat="42.08936241878809" lon="11.873177055560468"><ele>203.0</ele><time>2026-04-18T09:29:02.001Z</time></trkpt><trkpt lat="42.08932566400419" lon="11.87329535073741"><ele>203.0</ele><time>2026-04-18T09:29:03.001Z</time></trkpt><trkpt lat="42.0892687759401" lon="11.873383139645405"><ele>203.0</ele><time>2026-04-18T09:29:04.001Z</time></trkpt><trkpt lat="42.08921809841913" lon="11.873467411131182"><ele>203.00000000000003</ele><time>2026-04-18T09:29:05.001Z</time></trkpt><trkpt lat="42.08917392707179" lon="11.873558015043892"><ele>203.0</ele><time>2026-04-18T09:29:06.001Z</time></trkpt><trkpt lat="42.08913237941752" lon="11.873648340707357"><ele>201.16666666666669</ele><time>2026-04-18T09:29:07.001Z</time></trkpt><trkpt lat="42.08908775693472" lon="11.873727336337224"><ele>199.33333333333334</ele><time>2026-04-18T09:29:08.001Z</time></trkpt><trkpt lat="42.08905377935919" lon="11.873809330616028"><ele>197.5</ele><time>2026-04-18T09:29:09.001Z</time></trkpt><trkpt lat="42.08902370190143" lon="11.873894059669222"><ele>195.66666666666669</ele><time>2026-04-18T09:29:10.001Z</time></trkpt><trkpt lat="42.08899112168122" lon="11.87397552150011"><ele>193.83333333333334</ele><time>2026-04-18T09:29:11.001Z</time></trkpt><trkpt lat="42.08894721668983" lon="11.874058663909961"><ele>192.0</ele><time>2026-04-18T09:29:12.001Z</time></trkpt><trkpt lat="42.088861576040436" lon="11.874164757237745"><ele>192.0</ele><time>2026-04-18T09:29:14.001Z</time></trkpt><trkpt lat="42.088738719441224" lon="11.874197074912368"><ele>192.0</ele><time>2026-04-18T09:29:16.001Z</time></trkpt><trkpt lat="42.088664829919736" lon="11.874226541274052"><ele>192.0</ele><time>2026-04-18T09:29:17.001Z</time></trkpt><trkpt lat="42.08861088123291" lon="11.874280213954254"><ele>192.0</ele><time>2026-04-18T09:29:18.001Z</time></trkpt><trkpt lat="42.08854835430346" lon="11.874432984101565"><ele>192.0</ele><time>2026-04-18T09:29:20.001Z</time></trkpt><trkpt lat="42.08851483219062" lon="11.874509277107327"><ele>189.0</ele><time>2026-04-18T09:29:21.001Z</time></trkpt><trkpt lat="42.08842081880148" lon="11.874631425619778"><ele>186.0</ele><time>2026-04-18T09:29:23.001Z</time></trkpt><trkpt lat="42.0883546937601" lon="11.874717310289379"><ele>183.0</ele><time>2026-04-18T09:29:24.001Z</time></trkpt><trkpt lat="42.08829563098261" lon="11.874788256579029"><ele>180.0</ele><time>2026-04-18T09:29:25.001Z</time></trkpt><trkpt lat="42.08823238301344" lon="11.874856699841272"><ele>177.0</ele><time>2026-04-18T09:29:26.001Z</time></trkpt><trkpt lat="42.08816750864581" lon="11.874909935100758"><ele>177.0</ele><time>2026-04-18T09:29:27.001Z</time></trkpt><trkpt lat="42.08809730471048" lon="11.874967157484104"><ele>177.0</ele><time>2026-04-18T09:29:28.001Z</time></trkpt><trkpt lat="42.08802582928653" lon="11.875019712549411"><ele>177.0</ele><time>2026-04-18T09:29:29.001Z</time></trkpt><trkpt lat="42.08797093840521" lon="11.875067118071467"><ele>177.0</ele><time>2026-04-18T09:29:30.001Z</time></trkpt><trkpt lat="42.08786595693801" lon="11.87517233599353"><ele>177.0</ele><time>2026-04-18T09:29:32.001Z</time></trkpt><trkpt lat="42.08779177566978" lon="11.875233297343048"><ele>177.0</ele><time>2026-04-18T09:29:33.001Z</time></trkpt><trkpt lat="42.087722778740265" lon="11.875285708280186"><ele>175.5</ele><time>2026-04-18T09:29:34.001Z</time></trkpt><trkpt lat="42.08762394227568" lon="11.875366283419323"><ele>174.0</ele><time>2026-04-18T09:29:36.001Z</time></trkpt><trkpt lat="42.087575964562944" lon="11.875482635386154"><ele>172.5</ele><time>2026-04-18T09:29:38.001Z</time></trkpt><trkpt lat="42.087552568880874" lon="11.875643041741506"><ele>171.0</ele><time>2026-04-18T09:29:40.001Z</time></trkpt><trkpt lat="42.08752755675144" lon="11.875800682821302"><ele>171.0</ele><time>2026-04-18T09:29:42.001Z</time></trkpt><trkpt lat="42.08747460677494" lon="11.875927761080964"><ele>171.0</ele><time>2026-04-18T09:29:44.001Z</time></trkpt><trkpt lat="42.08740590506058" lon="11.876019070156383"><ele>171.0</ele><time>2026-04-18T09:29:46.001Z</time></trkpt><trkpt lat="42.08734668165432" lon="11.876121119698698"><ele>171.0</ele><time>2026-04-18T09:29:48.001Z</time></trkpt><trkpt lat="42.08731439965698" lon="11.87624704519525"><ele>171.0</ele><time>2026-04-18T09:29:50.001Z</time></trkpt><trkpt lat="42.08725951870126" lon="11.876342856826712"><ele>168.8</ele><time>2026-04-18T09:29:52.001Z</time></trkpt><trkpt lat="42.087207922273095" lon="11.876400708195156"><ele>166.60000000000002</ele><time>2026-04-18T09:29:53.001Z</time></trkpt><trkpt lat="42.087167555316064" lon="11.87646610378901"><ele>164.4</ele><time>2026-04-18T09:29:54.001Z</time></trkpt><trkpt lat="42.0871120128335" lon="11.87658905537833"><ele>162.2</ele><time>2026-04-18T09:29:56.001Z</time></trkpt><trkpt lat="42.08706346632492" lon="11.876737582582482"><ele>160.0</ele><time>2026-04-18T09:29:58.001Z</time></trkpt><trkpt lat="42.08705295758634" lon="11.876881975552271"><ele>158.5</ele><time>2026-04-18T09:30:00.001Z</time></trkpt><trkpt lat="42.08701822529296" lon="11.877020297194916"><ele>157.0</ele><time>2026-04-18T09:30:02.001Z</time></trkpt><trkpt lat="42.08697143322369" lon="11.877087874150725"><ele>155.5</ele><time>2026-04-18T09:30:03.001Z</time></trkpt><trkpt lat="42.086933061139774" lon="11.8771665753941"><ele>154.0</ele><time>2026-04-18T09:30:04.001Z</time></trkpt><trkpt lat="42.08686273567136" lon="11.877283798264388"><ele>152.5</ele><time>2026-04-18T09:30:06.001Z</time></trkpt><trkpt lat="42.0868069324008" lon="11.87733654511016"><ele>151.0</ele><time>2026-04-18T09:30:07.001Z</time></trkpt><trkpt lat="42.08674959969298" lon="11.877381035256754"><ele>151.0</ele><time>2026-04-18T09:30:08.001Z</time></trkpt><trkpt lat="42.08665202222517" lon="11.877492301944278"><ele>151.0</ele><time>2026-04-18T09:30:10.001Z</time></trkpt><trkpt lat="42.086579938960256" lon="11.877601472884542"><ele>151.0</ele><time>2026-04-18T09:30:12.001Z</time></trkpt><trkpt lat="42.08653652663737" lon="11.877683918965216"><ele>151.0</ele><time>2026-04-18T09:30:14.001Z</time></trkpt><trkpt lat="42.08642965092575" lon="11.877769444962777"><ele>151.0</ele><time>2026-04-18T09:30:16.001Z</time></trkpt><trkpt lat="42.08636502544342" lon="11.877831176435203"><ele>148.5</ele><time>2026-04-18T09:30:17.001Z</time></trkpt><trkpt lat="42.086313697880094" lon="11.877904775565979"><ele>146.0</ele><time>2026-04-18T09:30:18.001Z</time></trkpt><trkpt lat="42.0862743979092" lon="11.877984221227456"><ele>143.5</ele><time>2026-04-18T09:30:19.001Z</time></trkpt><trkpt lat="42.08623723607114" lon="11.878056206145589"><ele>141.0</ele><time>2026-04-18T09:30:20.001Z</time></trkpt><trkpt lat="42.08616543957354" lon="11.8781774617762"><ele>138.5</ele><time>2026-04-18T09:30:22.001Z</time></trkpt><trkpt lat="42.08610517427097" lon="11.878276590143603"><ele>136.0</ele><time>2026-04-18T09:30:24.001Z</time></trkpt><trkpt lat="42.08606020728578" lon="11.878357279649038"><ele>134.5</ele><time>2026-04-18T09:30:26.001Z</time></trkpt><trkpt lat="42.08602225774555" lon="11.878445916795949"><ele>133.0</ele><time>2026-04-18T09:30:28.001Z</time></trkpt><trkpt lat="42.08597862223318" lon="11.878555334703897"><ele>131.5</ele><time>2026-04-18T09:30:30.001Z</time></trkpt><trkpt lat="42.08593663923589" lon="11.87866770445887"><ele>130.0</ele><time>2026-04-18T09:30:32.001Z</time></trkpt><trkpt lat="42.08590904720616" lon="11.878760009650863"><ele>128.5</ele><time>2026-04-18T09:30:34.001Z</time></trkpt><trkpt lat="42.08587754666257" lon="11.878857513072122"><ele>127.0</ele><time>2026-04-18T09:30:36.001Z</time></trkpt><trkpt lat="42.08584544955963" lon="11.878976902811521"><ele>127.00000000000001</ele><time>2026-04-18T09:30:37.999Z</time></trkpt><trkpt lat="42.08582864126187" lon="11.879085976161779"><ele>127.0</ele><time>2026-04-18T09:30:39.999Z</time></trkpt><trkpt lat="42.085815836313856" lon="11.879197415340855"><ele>127.0</ele><time>2026-04-18T09:30:41.999Z</time></trkpt><trkpt lat="42.08581778936257" lon="11.879302494726309"><ele>127.0</ele><time>2026-04-18T09:30:43.999Z</time></trkpt><trkpt lat="42.085828810236016" lon="11.879408442097896"><ele>127.00000000000001</ele><time>2026-04-18T09:30:45.999Z</time></trkpt><trkpt lat="42.085848634476356" lon="11.879507364369008"><ele>127.0</ele><time>2026-04-18T09:30:47.999Z</time></trkpt><trkpt lat="42.08586244983635" lon="11.879616345330918"><ele>124.8</ele><time>2026-04-18T09:30:49.999Z</time></trkpt><trkpt lat="42.08585872000352" lon="11.879735135246943"><ele>122.6</ele><time>2026-04-18T09:30:51.999Z</time></trkpt><trkpt lat="42.0858393304315" lon="11.879859553039468"><ele>120.39999999999999</ele><time>2026-04-18T09:30:53.999Z</time></trkpt><trkpt lat="42.0857957428047" lon="11.879984701271656"><ele>118.19999999999999</ele><time>2026-04-18T09:30:55.999Z</time></trkpt><trkpt lat="42.085719050703226" lon="11.880096239970955"><ele>116.0</ele><time>2026-04-18T09:30:58Z</time></trkpt><trkpt lat="42.08566686729799" lon="11.880146614742065"><ele>112.6</ele><time>2026-04-18T09:30:59Z</time></trkpt><trkpt lat="42.08558220712906" lon="11.880233377402801"><ele>109.19999999999999</ele><time>2026-04-18T09:31:01Z</time></trkpt><trkpt lat="42.08549859001411" lon="11.880335256517286"><ele>105.80000000000001</ele><time>2026-04-18T09:31:03Z</time></trkpt><trkpt lat="42.085428286009176" lon="11.88042885043977"><ele>102.4</ele><time>2026-04-18T09:31:05Z</time></trkpt><trkpt lat="42.08536803478998" lon="11.880547329501338"><ele>99.0</ele><time>2026-04-18T09:31:07Z</time></trkpt><trkpt lat="42.0853487090003" lon="11.880683278126973"><ele>99.0</ele><time>2026-04-18T09:31:09Z</time></trkpt><trkpt lat="42.08531841418238" lon="11.88080820407274"><ele>99.0</ele><time>2026-04-18T09:31:11Z</time></trkpt><trkpt lat="42.08528145771488" lon="11.880888710673453"><ele>99.0</ele><time>2026-04-18T09:31:12Z</time></trkpt><trkpt lat="42.08524591662753" lon="11.880960911127353"><ele>99.0</ele><time>2026-04-18T09:31:13Z</time></trkpt><trkpt lat="42.08518534141928" lon="11.881089597507081"><ele>99.0</ele><time>2026-04-18T09:31:15Z</time></trkpt><trkpt lat="42.08514992741859" lon="11.881192016037156"><ele>99.0</ele><time>2026-04-18T09:31:17Z</time></trkpt><trkpt lat="42.08515348831574" lon="11.881294218489584"><ele>97.83333333333333</ele><time>2026-04-18T09:31:19Z</time></trkpt><trkpt lat="42.085167101595204" lon="11.881431178273218"><ele>96.66666666666667</ele><time>2026-04-18T09:31:21Z</time></trkpt><trkpt lat="42.08516181636628" lon="11.881515959834692"><ele>95.5</ele><time>2026-04-18T09:31:22Z</time></trkpt><trkpt lat="42.08513711096638" lon="11.881681195207616"><ele>94.33333333333334</ele><time>2026-04-18T09:31:24Z</time></trkpt><trkpt lat="42.08511562202998" lon="11.881785845027391"><ele>93.16666666666667</ele><time>2026-04-18T09:31:25Z</time></trkpt><trkpt lat="42.08508913992482" lon="11.881874195369841"><ele>92.0</ele><time>2026-04-18T09:31:26Z</time></trkpt><trkpt lat="42.08505033658061" lon="11.88197316188486"><ele>91.8</ele><time>2026-04-18T09:31:27Z</time></trkpt><trkpt lat="42.085019041076244" lon="11.882086802801057"><ele>91.6</ele><time>2026-04-18T09:31:28Z</time></trkpt><trkpt lat="42.08498557294994" lon="11.88220618445889"><ele>91.39999999999999</ele><time>2026-04-18T09:31:29Z</time></trkpt><trkpt lat="42.08495158911883" lon="11.882303707222622"><ele>91.19999999999999</ele><time>2026-04-18T09:31:30Z</time></trkpt><trkpt lat="42.08492834534129" lon="11.882418432704373"><ele>91.0</ele><time>2026-04-18T09:31:31Z</time></trkpt><trkpt lat="42.08485668258431" lon="11.882562222597134"><ele>90.83333333333333</ele><time>2026-04-18T09:31:33Z</time></trkpt><trkpt lat="42.08478671625154" lon="11.882640075155752"><ele>90.66666666666666</ele><time>2026-04-18T09:31:34Z</time></trkpt><trkpt lat="42.084712225915005" lon="11.882677881933107"><ele>90.5</ele><time>2026-04-18T09:31:35Z</time></trkpt><trkpt lat="42.08463444327816" lon="11.882692797458201"><ele>90.33333333333333</ele><time>2026-04-18T09:31:36Z</time></trkpt><trkpt lat="42.08455845891999" lon="11.882681949699876"><ele>90.16666666666667</ele><time>2026-04-18T09:31:37Z</time></trkpt><trkpt lat="42.08448048653966" lon="11.882655470535257"><ele>90.0</ele><time>2026-04-18T09:31:38Z</time></trkpt><trkpt lat="42.084414370248496" lon="11.882625496335407"><ele>90.0</ele><time>2026-04-18T09:31:39Z</time></trkpt><trkpt lat="42.08434652796072" lon="11.882608321091046"><ele>90.0</ele><time>2026-04-18T09:31:40Z</time></trkpt><trkpt lat="42.08424237854928" lon="11.882617176295723"><ele>90.0</ele><time>2026-04-18T09:31:42Z</time></trkpt><trkpt lat="42.08420367375537" lon="11.882737051027384"><ele>90.0</ele><time>2026-04-18T09:31:44Z</time></trkpt><trkpt lat="42.084220694777756" lon="11.882859333467731"><ele>90.0</ele><time>2026-04-18T09:31:46Z</time></trkpt><trkpt lat="42.08421520625735" lon="11.882964576741507"><ele>90.0</ele><time>2026-04-18T09:31:48Z</time></trkpt><trkpt lat="42.084181240364515" lon="11.88307232992648"><ele>90.0</ele><time>2026-04-18T09:31:50Z</time></trkpt><trkpt lat="42.084156765267856" lon="11.883204407795759"><ele>90.0</ele><time>2026-04-18T09:31:52Z</time></trkpt><trkpt lat="42.08419861326575" lon="11.883309032061646"><ele>90.0</ele><time>2026-04-18T09:31:54Z</time></trkpt><trkpt lat="42.084308628060505" lon="11.883385292963977"><ele>90.0</ele><time>2026-04-18T09:31:56Z</time></trkpt><trkpt lat="42.08439882881821" lon="11.883417221813616"><ele>90.0</ele><time>2026-04-18T09:31:57Z</time></trkpt><trkpt lat="42.08450216162299" lon="11.883475029426315"><ele>90.8</ele><time>2026-04-18T09:31:58Z</time></trkpt><trkpt lat="42.084574637722234" lon="11.883564638774255"><ele>91.6</ele><time>2026-04-18T09:31:59Z</time></trkpt><trkpt lat="42.08463674282992" lon="11.883670623530822"><ele>92.4</ele><time>2026-04-18T09:32:00Z</time></trkpt><trkpt lat="42.084675738587855" lon="11.88375586214148"><ele>93.2</ele><time>2026-04-18T09:32:01Z</time></trkpt><trkpt lat="42.084736346480376" lon="11.883849215172095"><ele>94.0</ele><time>2026-04-18T09:32:03Z</time></trkpt><trkpt lat="42.084633628786236" lon="11.883890273152353"><ele>94.0</ele><time>2026-04-18T09:32:06.001Z</time></trkpt><trkpt lat="42.0845405683237" lon="11.883859769452036"><ele>94.0</ele><time>2026-04-18T09:32:07.001Z</time></trkpt><trkpt lat="42.0844329176442" lon="11.883841995238575"><ele>94.0</ele><time>2026-04-18T09:32:08.001Z</time></trkpt><trkpt lat="42.084341771838666" lon="11.883847337148275"><ele>94.0</ele><time>2026-04-18T09:32:09.001Z</time></trkpt><trkpt lat="42.08425145749855" lon="11.883871031025372"><ele>94.0</ele><time>2026-04-18T09:32:10.001Z</time></trkpt><trkpt lat="42.0841411021572" lon="11.883915608189842"><ele>93.0</ele><time>2026-04-18T09:32:11.001Z</time></trkpt><trkpt lat="42.084038885908605" lon="11.883945553753826"><ele>92.0</ele><time>2026-04-18T09:32:12.001Z</time></trkpt><trkpt lat="42.08394407080282" lon="11.883958554841593"><ele>91.0</ele><time>2026-04-18T09:32:13.001Z</time></trkpt><trkpt lat="42.083859061817606" lon="11.883977755297595"><ele>90.0</ele><time>2026-04-18T09:32:14.001Z</time></trkpt><trkpt lat="42.083771100762135" lon="11.884020273607522"><ele>89.0</ele><time>2026-04-18T09:32:15.001Z</time></trkpt><trkpt lat="42.08367552262802" lon="11.88409964162755"><ele>89.0</ele><time>2026-04-18T09:32:16.001Z</time></trkpt><trkpt lat="42.08356601604495" lon="11.884193911834993"><ele>89.0</ele><time>2026-04-18T09:32:17.001Z</time></trkpt><trkpt lat="42.0834678896853" lon="11.884272232865625"><ele>89.0</ele><time>2026-04-18T09:32:18.001Z</time></trkpt><trkpt lat="42.083364859275285" lon="11.88434398862346"><ele>89.0</ele><time>2026-04-18T09:32:19.001Z</time></trkpt><trkpt lat="42.08325089781887" lon="11.884420837781828"><ele>88.4</ele><time>2026-04-18T09:32:20.001Z</time></trkpt><trkpt lat="42.083132558373684" lon="11.884499415369088"><ele>87.80000000000001</ele><time>2026-04-18T09:32:21.001Z</time></trkpt><trkpt lat="42.083028035716055" lon="11.884566953691143"><ele>87.19999999999999</ele><time>2026-04-18T09:32:22.001Z</time></trkpt><trkpt lat="42.08293547084516" lon="11.88463170398392"><ele>86.6</ele><time>2026-04-18T09:32:23.001Z</time></trkpt><trkpt lat="42.08285517256543" lon="11.884689319018673"><ele>86.0</ele><time>2026-04-18T09:32:24.001Z</time></trkpt><trkpt lat="42.082774518225136" lon="11.884745456160504"><ele>86.0</ele><time>2026-04-18T09:32:25.001Z</time></trkpt><trkpt lat="42.08270452041369" lon="11.884808156622437"><ele>86.0</ele><time>2026-04-18T09:32:26.001Z</time></trkpt><trkpt lat="42.08264578938189" lon="11.884859601371264"><ele>86.0</ele><time>2026-04-18T09:32:27.001Z</time></trkpt><trkpt lat="42.08255034790756" lon="11.88495494558206"><ele>86.0</ele><time>2026-04-18T09:32:29.001Z</time></trkpt><trkpt lat="42.08250905609378" lon="11.88504123217561"><ele>86.0</ele><time>2026-04-18T09:32:31.001Z</time></trkpt><trkpt lat="42.08248182580282" lon="11.88512666190437"><ele>86.0</ele><time>2026-04-18T09:32:33.001Z</time></trkpt><trkpt lat="42.08239587800987" lon="11.88519053104824"><ele>85.6</ele><time>2026-04-18T09:32:35.001Z</time></trkpt><trkpt lat="42.0823176630897" lon="11.885180719802834"><ele>85.19999999999999</ele><time>2026-04-18T09:32:36.001Z</time></trkpt><trkpt lat="42.082231201174174" lon="11.88517159950852"><ele>84.80000000000001</ele><time>2026-04-18T09:32:37.001Z</time></trkpt><trkpt lat="42.08212093578744" lon="11.885191326066995"><ele>84.4</ele><time>2026-04-18T09:32:38.001Z</time></trkpt><trkpt lat="42.08201952574622" lon="11.88522767853894"><ele>84.0</ele><time>2026-04-18T09:32:39.001Z</time></trkpt><trkpt lat="42.08193995421548" lon="11.885269393079858"><ele>84.0</ele><time>2026-04-18T09:32:40.001Z</time></trkpt><trkpt lat="42.08186517579668" lon="11.885310032112745"><ele>84.0</ele><time>2026-04-18T09:32:41.001Z</time></trkpt><trkpt lat="42.081800324661295" lon="11.885339995036682"><ele>84.0</ele><time>2026-04-18T09:32:42.001Z</time></trkpt><trkpt lat="42.08174271895044" lon="11.885375030118455"><ele>84.0</ele><time>2026-04-18T09:32:43.001Z</time></trkpt><trkpt lat="42.08166382147391" lon="11.88542303952341"><ele>84.0</ele><time>2026-04-18T09:32:43.999Z</time></trkpt><trkpt lat="42.08158015585976" lon="11.885480425932645"><ele>84.0</ele><time>2026-04-18T09:32:44.999Z</time></trkpt><trkpt lat="42.081497244373566" lon="11.88554939737407"><ele>84.16666666666667</ele><time>2026-04-18T09:32:45.999Z</time></trkpt><trkpt lat="42.08142345606605" lon="11.885628412291986"><ele>84.33333333333333</ele><time>2026-04-18T09:32:46.999Z</time></trkpt><trkpt lat="42.08135734433579" lon="11.88570426284343"><ele>84.5</ele><time>2026-04-18T09:32:47.999Z</time></trkpt><trkpt lat="42.081290398223956" lon="11.885781725760635"><ele>84.66666666666666</ele><time>2026-04-18T09:32:48.999Z</time></trkpt><trkpt lat="42.08122940212505" lon="11.885858551228344"><ele>84.83333333333333</ele><time>2026-04-18T09:32:49.999Z</time></trkpt><trkpt lat="42.08117780487542" lon="11.885923158823472"><ele>85.0</ele><time>2026-04-18T09:32:50.999Z</time></trkpt><trkpt lat="42.08107498828483" lon="11.886015725753758"><ele>84.42857142857143</ele><time>2026-04-18T09:32:52.999Z</time></trkpt><trkpt lat="42.081023819992055" lon="11.886070776767749"><ele>83.85714285714285</ele><time>2026-04-18T09:32:53.999Z</time></trkpt><trkpt lat="42.080974941538805" lon="11.886136252673747"><ele>83.28571428571428</ele><time>2026-04-18T09:32:54.999Z</time></trkpt><trkpt lat="42.08094136774425" lon="11.886208085729718"><ele>82.71428571428572</ele><time>2026-04-18T09:32:55.999Z</time></trkpt><trkpt lat="42.0809247812834" lon="11.886294448249094"><ele>82.14285714285714</ele><time>2026-04-18T09:32:56.999Z</time></trkpt><trkpt lat="42.08090768786247" lon="11.88639814050544"><ele>81.57142857142857</ele><time>2026-04-18T09:32:57.999Z</time></trkpt><trkpt lat="42.08086360883599" lon="11.88651271185977"><ele>81.0</ele><time>2026-04-18T09:32:59.999Z</time></trkpt><trkpt lat="42.080822044969" lon="11.886583595784172"><ele>80.6</ele><time>2026-04-18T09:33:02.999Z</time></trkpt><trkpt lat="42.080741784854666" lon="11.886623027906884"><ele>80.19999999999999</ele><time>2026-04-18T09:33:06.999Z</time></trkpt><trkpt lat="42.08066748559521" lon="11.886635490876325"><ele>79.80000000000001</ele><time>2026-04-18T09:33:08.999Z</time></trkpt><trkpt lat="42.08057014263706" lon="11.886720149916824"><ele>79.4</ele><time>2026-04-18T09:33:10.999Z</time></trkpt><trkpt lat="42.08050618224966" lon="11.886795895055258"><ele>79.0</ele><time>2026-04-18T09:33:12.999Z</time></trkpt><trkpt lat="42.08042111083582" lon="11.886844970561922"><ele>79.0</ele><time>2026-04-18T09:33:15Z</time></trkpt><trkpt lat="42.08031304553624" lon="11.886851330590067"><ele>79.0</ele><time>2026-04-18T09:33:17Z</time></trkpt><trkpt lat="42.08016960798906" lon="11.886837269869725"><ele>79.0</ele><time>2026-04-18T09:33:19Z</time></trkpt><trkpt lat="42.0800961119909" lon="11.886853710604838"><ele>79.0</ele><time>2026-04-18T09:33:20Z</time></trkpt><trkpt lat="42.08002922080315" lon="11.886883906626371"><ele>79.0</ele><time>2026-04-18T09:33:21Z</time></trkpt><trkpt lat="42.07995446139799" lon="11.886903175300656"><ele>78.57142857142858</ele><time>2026-04-18T09:33:22Z</time></trkpt><trkpt lat="42.079887790245095" lon="11.886881286969073"><ele>78.14285714285714</ele><time>2026-04-18T09:33:23Z</time></trkpt><trkpt lat="42.07982162707645" lon="11.886832096261278"><ele>77.71428571428572</ele><time>2026-04-18T09:33:24Z</time></trkpt><trkpt lat="42.07975984511211" lon="11.886749445091485"><ele>77.28571428571429</ele><time>2026-04-18T09:33:25Z</time></trkpt><trkpt lat="42.07971271142988" lon="11.886674818656893"><ele>76.85714285714286</ele><time>2026-04-18T09:33:26Z</time></trkpt><trkpt lat="42.07965740005205" lon="11.886628951820498"><ele>76.42857142857143</ele><time>2026-04-18T09:33:27Z</time></trkpt><trkpt lat="42.07959667715147" lon="11.886604289077583"><ele>76.0</ele><time>2026-04-18T09:33:28Z</time></trkpt><trkpt lat="42.079521604115875" lon="11.886596738855289"><ele>76.0</ele><time>2026-04-18T09:33:29Z</time></trkpt><trkpt lat="42.07944325374003" lon="11.886605625860552"><ele>76.0</ele><time>2026-04-18T09:33:30Z</time></trkpt><trkpt lat="42.07937336566474" lon="11.886613880708358"><ele>76.0</ele><time>2026-04-18T09:33:31Z</time></trkpt><trkpt lat="42.079291034704475" lon="11.886595993579864"><ele>76.0</ele><time>2026-04-18T09:33:32Z</time></trkpt><trkpt lat="42.07921179141582" lon="11.88657054433932"><ele>76.0</ele><time>2026-04-18T09:33:33Z</time></trkpt><trkpt lat="42.079139270828385" lon="11.88653455247241"><ele>76.0</ele><time>2026-04-18T09:33:34Z</time></trkpt><trkpt lat="42.07907452055197" lon="11.886491956533114"><ele>76.33333333333333</ele><time>2026-04-18T09:33:35Z</time></trkpt><trkpt lat="42.07901114406398" lon="11.886430155934068"><ele>76.66666666666666</ele><time>2026-04-18T09:33:36Z</time></trkpt><trkpt lat="42.078961141340166" lon="11.88634605007257"><ele>77.0</ele><time>2026-04-18T09:33:37Z</time></trkpt><trkpt lat="42.07889999725767" lon="11.886247079119391"><ele>77.33333333333333</ele><time>2026-04-18T09:33:38Z</time></trkpt><trkpt lat="42.07883698666797" lon="11.886147021130775"><ele>77.66666666666667</ele><time>2026-04-18T09:33:39Z</time></trkpt><trkpt lat="42.07877985371141" lon="11.886059141421867"><ele>78.0</ele><time>2026-04-18T09:33:40Z</time></trkpt><trkpt lat="42.078729511148715" lon="11.885979582218878"><ele>77.16666666666667</ele><time>2026-04-18T09:33:41Z</time></trkpt><trkpt lat="42.07867507394557" lon="11.885905324858472"><ele>76.33333333333333</ele><time>2026-04-18T09:33:42Z</time></trkpt><trkpt lat="42.07862298109569" lon="11.885830573153994"><ele>75.5</ele><time>2026-04-18T09:33:43Z</time></trkpt><trkpt lat="42.078568186559124" lon="11.885761345129243"><ele>74.66666666666666</ele><time>2026-04-18T09:33:44Z</time></trkpt><trkpt lat="42.078500169099854" lon="11.885680020782683"><ele>73.83333333333333</ele><time>2026-04-18T09:33:45Z</time></trkpt><trkpt lat="42.07842610174164" lon="11.885595667003745"><ele>73.0</ele><time>2026-04-18T09:33:46Z</time></trkpt><trkpt lat="42.0783466088847" lon="11.885520636510336"><ele>73.0</ele><time>2026-04-18T09:33:47Z</time></trkpt><trkpt lat="42.078279424806105" lon="11.88545795424041"><ele>73.0</ele><time>2026-04-18T09:33:48Z</time></trkpt><trkpt lat="42.07821156982922" lon="11.885386214642365"><ele>73.0</ele><time>2026-04-18T09:33:49Z</time></trkpt><trkpt lat="42.07814037687475" lon="11.885306821076409"><ele>73.0</ele><time>2026-04-18T09:33:50Z</time></trkpt><trkpt lat="42.07807607891756" lon="11.885240722965987"><ele>73.0</ele><time>2026-04-18T09:33:51Z</time></trkpt><trkpt lat="42.077998287316284" lon="11.885167315584408"><ele>73.0</ele><time>2026-04-18T09:33:52Z</time></trkpt><trkpt lat="42.07791762378032" lon="11.885095263874007"><ele>73.66666666666666</ele><time>2026-04-18T09:33:53Z</time></trkpt><trkpt lat="42.07783914971893" lon="11.88504218518902"><ele>74.33333333333333</ele><time>2026-04-18T09:33:54Z</time></trkpt><trkpt lat="42.077758974316566" lon="11.884995966408965"><ele>75.0</ele><time>2026-04-18T09:33:55Z</time></trkpt><trkpt lat="42.077674606422676" lon="11.884947285721205"><ele>75.66666666666667</ele><time>2026-04-18T09:33:56Z</time></trkpt><trkpt lat="42.07758127356349" lon="11.884907000765478"><ele>76.33333333333334</ele><time>2026-04-18T09:33:57Z</time></trkpt><trkpt lat="42.07751242399462" lon="11.884881578637339"><ele>77.0</ele><time>2026-04-18T09:33:58Z</time></trkpt><trkpt lat="42.07743745545618" lon="11.88484608088368"><ele>77.0</ele><time>2026-04-18T09:33:59Z</time></trkpt><trkpt lat="42.07735725846367" lon="11.88480303790942"><ele>77.0</ele><time>2026-04-18T09:34:00Z</time></trkpt><trkpt lat="42.077286263255154" lon="11.884758917325431"><ele>77.0</ele><time>2026-04-18T09:34:01Z</time></trkpt><trkpt lat="42.07721644958712" lon="11.884748657491107"><ele>77.0</ele><time>2026-04-18T09:34:02Z</time></trkpt><trkpt lat="42.07714541989391" lon="11.884763088244698"><ele>77.0</ele><time>2026-04-18T09:34:03Z</time></trkpt><trkpt lat="42.07706355997944" lon="11.884803330604756"><ele>77.0</ele><time>2026-04-18T09:34:04Z</time></trkpt><trkpt lat="42.07698825880397" lon="11.884826630392219"><ele>77.0</ele><time>2026-04-18T09:34:05Z</time></trkpt><trkpt lat="42.07691453813341" lon="11.884848665580595"><ele>77.0</ele><time>2026-04-18T09:34:06Z</time></trkpt><trkpt lat="42.076851077085905" lon="11.884870833691926"><ele>77.0</ele><time>2026-04-18T09:34:07Z</time></trkpt><trkpt lat="42.07677250104167" lon="11.884872958610584"><ele>77.0</ele><time>2026-04-18T09:34:08Z</time></trkpt><trkpt lat="42.076688531343606" lon="11.884850771647113"><ele>77.0</ele><time>2026-04-18T09:34:09Z</time></trkpt><trkpt lat="42.076597981486984" lon="11.884811293975083"><ele>77.0</ele><time>2026-04-18T09:34:10.001Z</time></trkpt><trkpt lat="42.07650363744745" lon="11.884771843760843"><ele>76.8</ele><time>2026-04-18T09:34:11.001Z</time></trkpt><trkpt lat="42.07642228033722" lon="11.884732249718216"><ele>76.6</ele><time>2026-04-18T09:34:12.001Z</time></trkpt><trkpt lat="42.07633221726963" lon="11.884692108734798"><ele>76.39999999999999</ele><time>2026-04-18T09:34:13.001Z</time></trkpt><trkpt lat="42.0762507268683" lon="11.884672297374765"><ele>76.2</ele><time>2026-04-18T09:34:14.001Z</time></trkpt><trkpt lat="42.07615299781311" lon="11.884650212679862"><ele>76.0</ele><time>2026-04-18T09:34:15.001Z</time></trkpt><trkpt lat="42.076054677402816" lon="11.884622595984832"><ele>76.0</ele><time>2026-04-18T09:34:16.001Z</time></trkpt><trkpt lat="42.07594936255499" lon="11.884597110867285"><ele>76.0</ele><time>2026-04-18T09:34:17.001Z</time></trkpt><trkpt lat="42.0758425328385" lon="11.884575698341875"><ele>76.0</ele><time>2026-04-18T09:34:18.001Z</time></trkpt><trkpt lat="42.075729205704285" lon="11.884569307026357"><ele>76.0</ele><time>2026-04-18T09:34:19.001Z</time></trkpt><trkpt lat="42.0756049934317" lon="11.884560160068443"><ele>76.6</ele><time>2026-04-18T09:34:20.001Z</time></trkpt><trkpt lat="42.075489899780784" lon="11.884540670332767"><ele>77.19999999999999</ele><time>2026-04-18T09:34:21.001Z</time></trkpt><trkpt lat="42.0753811335169" lon="11.884508783921559"><ele>77.80000000000001</ele><time>2026-04-18T09:34:22.001Z</time></trkpt><trkpt lat="42.07529454843719" lon="11.884494176809865"><ele>78.4</ele><time>2026-04-18T09:34:23.001Z</time></trkpt><trkpt lat="42.075217416066124" lon="11.884495944371503"><ele>79.0</ele><time>2026-04-18T09:34:24.001Z</time></trkpt><trkpt lat="42.07513346636312" lon="11.884510426476773"><ele>79.0</ele><time>2026-04-18T09:34:25.001Z</time></trkpt><trkpt lat="42.07505037020528" lon="11.884512824691193"><ele>79.0</ele><time>2026-04-18T09:34:26.001Z</time></trkpt><trkpt lat="42.07495619315893" lon="11.884506361653884"><ele>79.0</ele><time>2026-04-18T09:34:27.001Z</time></trkpt><trkpt lat="42.0748475631931" lon="11.884500386866204"><ele>79.0</ele><time>2026-04-18T09:34:28.001Z</time></trkpt><trkpt lat="42.07474826622743" lon="11.884475249485343"><ele>79.0</ele><time>2026-04-18T09:34:29.001Z</time></trkpt><trkpt lat="42.07466945730766" lon="11.884445350107287"><ele>79.16666666666666</ele><time>2026-04-18T09:34:30.001Z</time></trkpt><trkpt lat="42.074599357821754" lon="11.8844092896171"><ele>79.33333333333333</ele><time>2026-04-18T09:34:31.001Z</time></trkpt><trkpt lat="42.074513436359105" lon="11.884364886497345"><ele>79.5</ele><time>2026-04-18T09:34:32.001Z</time></trkpt><trkpt lat="42.0744235732439" lon="11.88432980784176"><ele>79.66666666666667</ele><time>2026-04-18T09:34:33.001Z</time></trkpt><trkpt lat="42.07433383369199" lon="11.884304119275392"><ele>79.83333333333334</ele><time>2026-04-18T09:34:34.001Z</time></trkpt><trkpt lat="42.074238964269824" lon="11.88429316813566"><ele>80.0</ele><time>2026-04-18T09:34:35.001Z</time></trkpt><trkpt lat="42.07413296647002" lon="11.88427292885252"><ele>78.4</ele><time>2026-04-18T09:34:36.001Z</time></trkpt><trkpt lat="42.07404167819881" lon="11.884247713215814"><ele>76.8</ele><time>2026-04-18T09:34:37.001Z</time></trkpt><trkpt lat="42.07394796871912" lon="11.88421659949412"><ele>75.2</ele><time>2026-04-18T09:34:38.001Z</time></trkpt><trkpt lat="42.073841021646814" lon="11.884183478177045"><ele>73.6</ele><time>2026-04-18T09:34:39.001Z</time></trkpt><trkpt lat="42.07373593305758" lon="11.884173547941032"><ele>72.0</ele><time>2026-04-18T09:34:40.001Z</time></trkpt><trkpt lat="42.07363730591908" lon="11.884192368348119"><ele>72.0</ele><time>2026-04-18T09:34:41.001Z</time></trkpt><trkpt lat="42.07355783698614" lon="11.884219989540103"><ele>72.0</ele><time>2026-04-18T09:34:42.001Z</time></trkpt><trkpt lat="42.07348650716321" lon="11.884213202630464"><ele>72.0</ele><time>2026-04-18T09:34:43.001Z</time></trkpt><trkpt lat="42.07340305453898" lon="11.884188440765053"><ele>72.0</ele><time>2026-04-18T09:34:44.001Z</time></trkpt><trkpt lat="42.07331468532779" lon="11.884185126859101"><ele>72.0</ele><time>2026-04-18T09:34:45.001Z</time></trkpt><trkpt lat="42.073214885271234" lon="11.884213837644255"><ele>72.0</ele><time>2026-04-18T09:34:46.001Z</time></trkpt><trkpt lat="42.07312142723266" lon="11.884259521401473"><ele>71.66666666666667</ele><time>2026-04-18T09:34:47.001Z</time></trkpt><trkpt lat="42.073039990317945" lon="11.884299204151977"><ele>71.33333333333333</ele><time>2026-04-18T09:34:48.001Z</time></trkpt><trkpt lat="42.07296288755384" lon="11.884324967077045"><ele>71.0</ele><time>2026-04-18T09:34:49.001Z</time></trkpt><trkpt lat="42.07289448347403" lon="11.884324870681338"><ele>70.66666666666666</ele><time>2026-04-18T09:34:49.999Z</time></trkpt><trkpt lat="42.07282060191601" lon="11.88429753235208"><ele>70.33333333333333</ele><time>2026-04-18T09:34:51.999Z</time></trkpt><trkpt lat="42.07274139273632" lon="11.884290905420395"><ele>70.0</ele><time>2026-04-18T09:34:54.999Z</time></trkpt><trkpt lat="42.072667869904926" lon="11.884307795028782"><ele>70.0</ele><time>2026-04-18T09:35:30Z</time></trkpt><trkpt lat="42.07262253539462" lon="11.884379401209587"><ele>70.0</ele><time>2026-04-18T09:35:33Z</time></trkpt><trkpt lat="42.072628147833285" lon="11.884472017990927"><ele>70.0</ele><time>2026-04-18T09:35:35Z</time></trkpt><trkpt lat="42.07262141961759" lon="11.884611522960823"><ele>70.0</ele><time>2026-04-18T09:35:37Z</time></trkpt><trkpt lat="42.07260508069896" lon="11.884751155061311"><ele>70.0</ele><time>2026-04-18T09:35:39Z</time></trkpt><trkpt lat="42.07258260310618" lon="11.884883579057162"><ele>70.0</ele><time>2026-04-18T09:35:41Z</time></trkpt><trkpt lat="42.07259622053342" lon="11.884974444823326"><ele>70.0</ele><time>2026-04-18T09:35:42Z</time></trkpt><trkpt lat="42.07260855184187" lon="11.885068106247063"><ele>70.0</ele><time>2026-04-18T09:35:43Z</time></trkpt><trkpt lat="42.07260759891677" lon="11.885171632172707"><ele>70.0</ele><time>2026-04-18T09:35:44Z</time></trkpt><trkpt lat="42.072609276631475" lon="11.885265986372845"><ele>70.0</ele><time>2026-04-18T09:35:45Z</time></trkpt><trkpt lat="42.072613519165174" lon="11.885442620566007"><ele>70.0</ele><time>2026-04-18T09:35:47Z</time></trkpt><trkpt lat="42.072610122259164" lon="11.885541130129086"><ele>70.0</ele><time>2026-04-18T09:35:48Z</time></trkpt><trkpt lat="42.07260370483529" lon="11.885626876712678"><ele>72.16666666666666</ele><time>2026-04-18T09:35:49Z</time></trkpt><trkpt lat="42.07256797708301" lon="11.885789471574995"><ele>74.33333333333333</ele><time>2026-04-18T09:35:51Z</time></trkpt><trkpt lat="42.0725591606925" lon="11.885883159465507"><ele>76.5</ele><time>2026-04-18T09:35:52Z</time></trkpt><trkpt lat="42.072534187648564" lon="11.885990676550826"><ele>78.66666666666667</ele><time>2026-04-18T09:35:53Z</time></trkpt><trkpt lat="42.072499149811215" lon="11.886099741904221"><ele>80.83333333333334</ele><time>2026-04-18T09:35:54Z</time></trkpt><trkpt lat="42.07246981525226" lon="11.886188512901338"><ele>83.0</ele><time>2026-04-18T09:35:55Z</time></trkpt><trkpt lat="42.07244235186631" lon="11.886320972925326"><ele>83.0</ele><time>2026-04-18T09:35:57Z</time></trkpt><trkpt lat="42.07245729102253" lon="11.886464176223445"><ele>83.0</ele><time>2026-04-18T09:35:59Z</time></trkpt><trkpt lat="42.072452789326206" lon="11.886590966322174"><ele>83.0</ele><time>2026-04-18T09:36:00Z</time></trkpt><trkpt lat="42.07243291471264" lon="11.886722607724668"><ele>83.0</ele><time>2026-04-18T09:36:01Z</time></trkpt><trkpt lat="42.07240042263902" lon="11.886875026252316"><ele>83.0</ele><time>2026-04-18T09:36:02Z</time></trkpt><trkpt lat="42.072374911947215" lon="11.887017977933002"><ele>85.2</ele><time>2026-04-18T09:36:03.001Z</time></trkpt><trkpt lat="42.07235389664815" lon="11.887148450914905"><ele>87.4</ele><time>2026-04-18T09:36:04.001Z</time></trkpt><trkpt lat="42.072332642885165" lon="11.887269225505172"><ele>89.60000000000001</ele><time>2026-04-18T09:36:05.001Z</time></trkpt><trkpt lat="42.07230605869504" lon="11.887397021205867"><ele>91.80000000000001</ele><time>2026-04-18T09:36:06.001Z</time></trkpt><trkpt lat="42.07227539793715" lon="11.887533737045409"><ele>94.0</ele><time>2026-04-18T09:36:07.001Z</time></trkpt><trkpt lat="42.072248718666614" lon="11.887662890728386"><ele>95.2</ele><time>2026-04-18T09:36:08.001Z</time></trkpt><trkpt lat="42.07222174062951" lon="11.887795609544185"><ele>96.4</ele><time>2026-04-18T09:36:09.001Z</time></trkpt><trkpt lat="42.07218862608322" lon="11.887943209983797"><ele>97.6</ele><time>2026-04-18T09:36:10.001Z</time></trkpt><trkpt lat="42.07215058879189" lon="11.88809947655742"><ele>98.8</ele><time>2026-04-18T09:36:11.001Z</time></trkpt><trkpt lat="42.07212512689389" lon="11.88824460663688"><ele>100.0</ele><time>2026-04-18T09:36:12.001Z</time></trkpt><trkpt lat="42.0720990899025" lon="11.888395435484405"><ele>101.5</ele><time>2026-04-18T09:36:13.001Z</time></trkpt><trkpt lat="42.07208001031796" lon="11.88854824771098"><ele>103.0</ele><time>2026-04-18T09:36:14.001Z</time></trkpt><trkpt lat="42.072054867145404" lon="11.888725087748924"><ele>104.5</ele><time>2026-04-18T09:36:15.001Z</time></trkpt><trkpt lat="42.07201827529518" lon="11.8889067991115"><ele>106.0</ele><time>2026-04-18T09:36:16.001Z</time></trkpt><trkpt lat="42.071989972874995" lon="11.889083974474813"><ele>106.0</ele><time>2026-04-18T09:36:17.001Z</time></trkpt><trkpt lat="42.07197231863673" lon="11.889249371829544"><ele>106.0</ele><time>2026-04-18T09:36:18.001Z</time></trkpt><trkpt lat="42.07194206709306" lon="11.889409434486382"><ele>106.0</ele><time>2026-04-18T09:36:19.001Z</time></trkpt><trkpt lat="42.07191162902327" lon="11.88955733992424"><ele>106.0</ele><time>2026-04-18T09:36:20.001Z</time></trkpt><trkpt lat="42.071891069916056" lon="11.889677213723427"><ele>106.66666666666667</ele><time>2026-04-18T09:36:21.001Z</time></trkpt><trkpt lat="42.07187607052477" lon="11.88977117212736"><ele>107.33333333333334</ele><time>2026-04-18T09:36:22.001Z</time></trkpt><trkpt lat="42.071844720069635" lon="11.889916497299712"><ele>108.0</ele><time>2026-04-18T09:36:24.001Z</time></trkpt><trkpt lat="42.07182120159675" lon="11.890052417415612"><ele>108.66666666666666</ele><time>2026-04-18T09:36:26.001Z</time></trkpt><trkpt lat="42.071751571182645" lon="11.890055142542725"><ele>109.33333333333333</ele><time>2026-04-18T09:36:29.001Z</time></trkpt><trkpt lat="42.07168868734781" lon="11.889995802228826"><ele>110.0</ele><time>2026-04-18T09:37:10Z</time></trkpt><trkpt lat="42.071608924713594" lon="11.88994400568839"><ele>109.33333333333333</ele><time>2026-04-18T09:37:12Z</time></trkpt><trkpt lat="42.071515772274466" lon="11.889886817487156"><ele>108.66666666666666</ele><time>2026-04-18T09:37:14Z</time></trkpt><trkpt lat="42.07145472427733" lon="11.889826856900934"><ele>108.0</ele><time>2026-04-18T09:37:16Z</time></trkpt><trkpt lat="42.07136825763073" lon="11.889775429947207"><ele>107.33333333333334</ele><time>2026-04-18T09:37:18Z</time></trkpt><trkpt lat="42.07130009875675" lon="11.889719382508966"><ele>106.66666666666667</ele><time>2026-04-18T09:37:20Z</time></trkpt><trkpt lat="42.07123627257868" lon="11.889673232413932"><ele>106.0</ele><time>2026-04-18T09:37:22Z</time></trkpt><trkpt lat="42.07115647675213" lon="11.889621604019665"><ele>106.00000000000001</ele><time>2026-04-18T09:37:24Z</time></trkpt><trkpt lat="42.07107491425508" lon="11.88954939433039"><ele>106.0</ele><time>2026-04-18T09:37:26Z</time></trkpt><trkpt lat="42.070998061142966" lon="11.889500939964158"><ele>106.0</ele><time>2026-04-18T09:37:28Z</time></trkpt><trkpt lat="42.07093393845601" lon="11.889459444608017"><ele>106.0</ele><time>2026-04-18T09:37:31Z</time></trkpt><trkpt lat="42.07089016545474" lon="11.889351701366651"><ele>106.00000000000001</ele><time>2026-04-18T09:37:35Z</time></trkpt><trkpt lat="42.07086794831958" lon="11.88924112627174"><ele>106.0</ele><time>2026-04-18T09:37:38Z</time></trkpt><trkpt lat="42.07082205130351" lon="11.889160728016732"><ele>106.16666666666667</ele><time>2026-04-18T09:37:40.001Z</time></trkpt><trkpt lat="42.070784910035194" lon="11.889092239999105"><ele>106.33333333333334</ele><time>2026-04-18T09:37:42.001Z</time></trkpt><trkpt lat="42.07075200770259" lon="11.888997700403356"><ele>106.5</ele><time>2026-04-18T09:37:45.001Z</time></trkpt><trkpt lat="42.070725170943525" lon="11.889090978037634"><ele>106.66666666666666</ele><time>2026-04-18T09:40:54.002Z</time></trkpt><trkpt lat="42.070744247669786" lon="11.889235800278218"><ele>106.83333333333333</ele><time>2026-04-18T09:40:56.002Z</time></trkpt><trkpt lat="42.070740569239724" lon="11.889350466215822"><ele>107.0</ele><time>2026-04-18T09:40:58.002Z</time></trkpt><trkpt lat="42.070759567577" lon="11.88946384950921"><ele>106.8</ele><time>2026-04-18T09:41:00.002Z</time></trkpt><trkpt lat="42.07079983735977" lon="11.88957833355883"><ele>106.6</ele><time>2026-04-18T09:41:02.002Z</time></trkpt><trkpt lat="42.07084657983829" lon="11.889720041017647"><ele>106.39999999999999</ele><time>2026-04-18T09:41:04.002Z</time></trkpt><trkpt lat="42.070871509932196" lon="11.889808441892974"><ele>106.19999999999999</ele><time>2026-04-18T09:41:05.002Z</time></trkpt><trkpt lat="42.07093611120829" lon="11.889925550533238"><ele>106.0</ele><time>2026-04-18T09:41:07.002Z</time></trkpt><trkpt lat="42.07102700916429" lon="11.890017087588584"><ele>106.83333333333334</ele><time>2026-04-18T09:41:09.001Z</time></trkpt><trkpt lat="42.07098053230875" lon="11.89011032984079"><ele>107.66666666666667</ele><time>2026-04-18T09:41:11.001Z</time></trkpt><trkpt lat="42.07092981880567" lon="11.890168472238102"><ele>108.5</ele><time>2026-04-18T09:41:12.001Z</time></trkpt><trkpt lat="42.07086962105872" lon="11.890263354121666"><ele>109.33333333333334</ele><time>2026-04-18T09:41:14.001Z</time></trkpt><trkpt lat="42.07085460695127" lon="11.890354767205043"><ele>110.16666666666667</ele><time>2026-04-18T09:41:16.001Z</time></trkpt><trkpt lat="42.07093749882267" lon="11.890361848789114"><ele>111.0</ele><time>2026-04-18T09:42:52.002Z</time></trkpt><trkpt lat="42.07100834630171" lon="11.89033860904894"><ele>111.0</ele><time>2026-04-18T09:42:55.002Z</time></trkpt><trkpt lat="42.071078109976675" lon="11.89039245059017"><ele>111.0</ele><time>2026-04-18T09:42:57.002Z</time></trkpt><trkpt lat="42.07108569475111" lon="11.89051092926038"><ele>111.0</ele><time>2026-04-18T09:42:59.002Z</time></trkpt><trkpt lat="42.07106932771119" lon="11.89059788164651"><ele>111.0</ele><time>2026-04-18T09:43:00.002Z</time></trkpt><trkpt lat="42.07109500643891" lon="11.890710321204951"><ele>111.0</ele><time>2026-04-18T09:43:06.002Z</time></trkpt><trkpt lat="42.07112934975152" lon="11.89078230373271"><ele>111.0</ele><time>2026-04-18T09:43:18Z</time></trkpt><trkpt lat="42.071189128336364" lon="11.890865985237166"><ele>111.0</ele><time>2026-04-18T09:46:04Z</time></trkpt><trkpt lat="42.07123030912905" lon="11.89094692224578"><ele>111.0</ele><time>2026-04-18T09:46:09Z</time></trkpt><trkpt lat="42.07128424223015" lon="11.891013350446933"><ele>111.0</ele><time>2026-04-18T09:46:14Z</time></trkpt><trkpt lat="42.07133220159114" lon="11.891087938983139"><ele>111.0</ele><time>2026-04-18T09:49:15.001Z</time></trkpt><trkpt lat="42.07139232899821" lon="11.89104156252371"><ele>111.0</ele><time>2026-04-18T09:49:20.001Z</time></trkpt><trkpt lat="42.071491954441754" lon="11.891019369029545"><ele>111.0</ele><time>2026-04-18T09:49:22.001Z</time></trkpt><trkpt lat="42.071521507070265" lon="11.890860200256025"><ele>111.0</ele><time>2026-04-18T09:49:24.001Z</time></trkpt><trkpt lat="42.07150253036466" lon="11.89075757427296"><ele>111.0</ele><time>2026-04-18T09:49:25.001Z</time></trkpt><trkpt lat="42.07149771256642" lon="11.890667575121833"><ele>111.0</ele><time>2026-04-18T09:49:27.001Z</time></trkpt><trkpt lat="42.07155145059922" lon="11.890613999590178"><ele>111.0</ele><time>2026-04-18T09:53:47Z</time></trkpt><trkpt lat="42.07157387087106" lon="11.890725266050676"><ele>111.0</ele><time>2026-04-18T09:53:50Z</time></trkpt><trkpt lat="42.071606653231434" lon="11.890823681008719"><ele>111.0</ele><time>2026-04-18T09:53:53Z</time></trkpt><trkpt lat="42.071634713381954" lon="11.890899667983714"><ele>111.0</ele><time>2026-04-18T09:54:20.001Z</time></trkpt><trkpt lat="42.071645250797104" lon="11.891036224376132"><ele>112.8</ele><time>2026-04-18T09:54:22.001Z</time></trkpt><trkpt lat="42.07162194692794" lon="11.891146166638052"><ele>114.6</ele><time>2026-04-18T09:54:24.001Z</time></trkpt><trkpt lat="42.07159607742362" lon="11.891279039847005"><ele>116.4</ele><time>2026-04-18T09:54:26.001Z</time></trkpt><trkpt lat="42.071558096149204" lon="11.891442559904132"><ele>118.2</ele><time>2026-04-18T09:54:28.001Z</time></trkpt><trkpt lat="42.0714855528941" lon="11.891573607868606"><ele>120.0</ele><time>2026-04-18T09:54:30.001Z</time></trkpt><trkpt lat="42.07142786594947" lon="11.891632253895873"><ele>121.0</ele><time>2026-04-18T09:54:32.001Z</time></trkpt><trkpt lat="42.07135371933423" lon="11.891757004462681"><ele>122.0</ele><time>2026-04-18T09:54:45.001Z</time></trkpt><trkpt lat="42.07130936372838" lon="11.89182126157783"><ele>123.0</ele><time>2026-04-18T09:54:46.001Z</time></trkpt><trkpt lat="42.07123175202044" lon="11.891927289558243"><ele>124.0</ele><time>2026-04-18T09:54:48.001Z</time></trkpt><trkpt lat="42.07118276316389" lon="11.891993562914514"><ele>125.0</ele><time>2026-04-18T09:54:49.001Z</time></trkpt><trkpt lat="42.07113348873504" lon="11.892063304694666"><ele>126.0</ele><time>2026-04-18T09:54:50.001Z</time></trkpt><trkpt lat="42.071087439292874" lon="11.892125435347946"><ele>126.0</ele><time>2026-04-18T09:54:51.001Z</time></trkpt><trkpt lat="42.07098730326636" lon="11.892238879434684"><ele>126.0</ele><time>2026-04-18T09:54:53.001Z</time></trkpt><trkpt lat="42.07093383852321" lon="11.892311743989646"><ele>126.0</ele><time>2026-04-18T09:54:54.001Z</time></trkpt><trkpt lat="42.07087482782717" lon="11.89240592422342"><ele>126.0</ele><time>2026-04-18T09:54:55.001Z</time></trkpt><trkpt lat="42.07079564131105" lon="11.892486002948278"><ele>126.0</ele><time>2026-04-18T09:54:56.001Z</time></trkpt><trkpt lat="42.07072499054954" lon="11.892582910616131"><ele>128.16666666666666</ele><time>2026-04-18T09:54:57.001Z</time></trkpt><trkpt lat="42.07066065172897" lon="11.892671168100136"><ele>130.33333333333334</ele><time>2026-04-18T09:54:58.001Z</time></trkpt><trkpt lat="42.07060249679154" lon="11.892781103558"><ele>132.5</ele><time>2026-04-18T09:54:59.001Z</time></trkpt><trkpt lat="42.070541628858" lon="11.892857891690626"><ele>134.66666666666669</ele><time>2026-04-18T09:55:00.001Z</time></trkpt><trkpt lat="42.07048338110111" lon="11.892935649942617"><ele>136.83333333333334</ele><time>2026-04-18T09:55:01.001Z</time></trkpt><trkpt lat="42.07042959473212" lon="11.893007926634098"><ele>139.0</ele><time>2026-04-18T09:55:02.001Z</time></trkpt><trkpt lat="42.07037509678873" lon="11.893080594113302"><ele>139.0</ele><time>2026-04-18T09:55:03.002Z</time></trkpt><trkpt lat="42.07032188643873" lon="11.893159855941676"><ele>139.0</ele><time>2026-04-18T09:55:04.002Z</time></trkpt><trkpt lat="42.070255035508275" lon="11.893233317505532"><ele>139.0</ele><time>2026-04-18T09:55:05.002Z</time></trkpt><trkpt lat="42.07019690523559" lon="11.893314333018424"><ele>139.0</ele><time>2026-04-18T09:55:06.002Z</time></trkpt><trkpt lat="42.07013207878178" lon="11.893404680857754"><ele>139.0</ele><time>2026-04-18T09:55:07.002Z</time></trkpt><trkpt lat="42.070078826212395" lon="11.89350462007202"><ele>139.0</ele><time>2026-04-18T09:55:08.002Z</time></trkpt><trkpt lat="42.07001523237552" lon="11.893566432645912"><ele>139.83333333333334</ele><time>2026-04-18T09:55:09.002Z</time></trkpt><trkpt lat="42.069968377892565" lon="11.893662376926576"><ele>140.66666666666669</ele><time>2026-04-18T09:55:10.002Z</time></trkpt><trkpt lat="42.06989224071325" lon="11.89373959822587"><ele>141.5</ele><time>2026-04-18T09:55:11.002Z</time></trkpt><trkpt lat="42.06984144039258" lon="11.893840220713171"><ele>142.33333333333334</ele><time>2026-04-18T09:55:12.002Z</time></trkpt><trkpt lat="42.06977202038936" lon="11.893924308440495"><ele>143.16666666666666</ele><time>2026-04-18T09:55:13.002Z</time></trkpt><trkpt lat="42.0697166629709" lon="11.89401100869521"><ele>144.0</ele><time>2026-04-18T09:55:14.002Z</time></trkpt><trkpt lat="42.06965653429713" lon="11.894062439373469"><ele>144.6</ele><time>2026-04-18T09:55:16.002Z</time></trkpt><trkpt lat="42.06960430229586" lon="11.894158845799494"><ele>145.2</ele><time>2026-04-18T09:55:25.002Z</time></trkpt><trkpt lat="42.06953287080352" lon="11.894159878284182"><ele>145.79999999999998</ele><time>2026-04-18T09:55:27.002Z</time></trkpt><trkpt lat="42.06941366636993" lon="11.894061132618118"><ele>146.4</ele><time>2026-04-18T09:55:30.002Z</time></trkpt><trkpt lat="42.06932059425476" lon="11.893976935026927"><ele>147.0</ele><time>2026-04-18T09:55:32.002Z</time></trkpt><trkpt lat="42.06926516755376" lon="11.893931786366254"><ele>147.0</ele><time>2026-04-18T09:55:33.002Z</time></trkpt><trkpt lat="42.0692031339935" lon="11.893889179426191"><ele>147.0</ele><time>2026-04-18T09:55:34.002Z</time></trkpt><trkpt lat="42.06910675098516" lon="11.893828944403847"><ele>147.0</ele><time>2026-04-18T09:55:36.002Z</time></trkpt><trkpt lat="42.06903310537236" lon="11.893792014142551"><ele>147.0</ele><time>2026-04-18T09:55:38.002Z</time></trkpt><trkpt lat="42.06897130488564" lon="11.893732810603929"><ele>147.0</ele><time>2026-04-18T09:55:41.002Z</time></trkpt><trkpt lat="42.06889614457375" lon="11.893721737605558"><ele>147.0</ele><time>2026-04-18T10:09:16.001Z</time></trkpt><trkpt lat="42.068920189722064" lon="11.893801842849944"><ele>147.0</ele><time>2026-04-18T10:09:19.001Z</time></trkpt><trkpt lat="42.068989667648346" lon="11.893771944368142"><ele>147.0</ele><time>2026-04-18T10:09:21.001Z</time></trkpt><trkpt lat="42.06903757220044" lon="11.893672929442689"><ele>147.0</ele><time>2026-04-18T10:09:24.001Z</time></trkpt><trkpt lat="42.06908434678831" lon="11.893615538806987"><ele>147.0</ele><time>2026-04-18T10:09:26.001Z</time></trkpt><trkpt lat="42.06918221936464" lon="11.893631716737744"><ele>147.0</ele><time>2026-04-18T10:09:29.001Z</time></trkpt><trkpt lat="42.06924190544963" lon="11.893698353286732"><ele>147.0</ele><time>2026-04-18T10:09:31.001Z</time></trkpt><trkpt lat="42.069282733078694" lon="11.89377248858892"><ele>147.0</ele><time>2026-04-18T10:09:33.001Z</time></trkpt><trkpt lat="42.0693433135519" lon="11.893836074897125"><ele>147.0</ele><time>2026-04-18T10:09:36.001Z</time></trkpt><trkpt lat="42.06942047742351" lon="11.89385114088138"><ele>147.0</ele><time>2026-04-18T10:11:18Z</time></trkpt><trkpt lat="42.06947737473825" lon="11.893896320694424"><ele>147.0</ele><time>2026-04-18T10:11:20Z</time></trkpt><trkpt lat="42.06948856664474" lon="11.893799006893216"><ele>147.0</ele><time>2026-04-18T10:12:05.001Z</time></trkpt><trkpt lat="42.06945473972014" lon="11.89368681342443"><ele>147.0</ele><time>2026-04-18T10:12:07.001Z</time></trkpt><trkpt lat="42.06936807764827" lon="11.893612782661503"><ele>147.0</ele><time>2026-04-18T10:12:09.001Z</time></trkpt><trkpt lat="42.069251716699746" lon="11.893592192226887"><ele>147.0</ele><time>2026-04-18T10:12:11.001Z</time></trkpt><trkpt lat="42.0691833220846" lon="11.893547319063462"><ele>147.0</ele><time>2026-04-18T10:12:12.001Z</time></trkpt><trkpt lat="42.06910506971925" lon="11.893484268542082"><ele>147.0</ele><time>2026-04-18T10:12:13.001Z</time></trkpt><trkpt lat="42.06904800369386" lon="11.893424480889927"><ele>147.0</ele><time>2026-04-18T10:12:14.001Z</time></trkpt><trkpt lat="42.06903056809072" lon="11.89329612956917"><ele>147.33333333333334</ele><time>2026-04-18T10:12:16.001Z</time></trkpt><trkpt lat="42.069064391490755" lon="11.893218154105453"><ele>147.66666666666666</ele><time>2026-04-18T10:12:17.001Z</time></trkpt><trkpt lat="42.06911988384346" lon="11.893133338052548"><ele>148.0</ele><time>2026-04-18T10:12:18.001Z</time></trkpt><trkpt lat="42.06916370957714" lon="11.893048734765731"><ele>148.33333333333331</ele><time>2026-04-18T10:12:19.001Z</time></trkpt><trkpt lat="42.069207478927126" lon="11.892957035976934"><ele>148.66666666666666</ele><time>2026-04-18T10:12:20.001Z</time></trkpt><trkpt lat="42.06924746795912" lon="11.892851028303738"><ele>149.0</ele><time>2026-04-18T10:12:21.001Z</time></trkpt><trkpt lat="42.06928331437709" lon="11.89273756977768"><ele>147.8</ele><time>2026-04-18T10:12:22.001Z</time></trkpt><trkpt lat="42.069310235839886" lon="11.892645913047042"><ele>146.60000000000002</ele><time>2026-04-18T10:12:23.001Z</time></trkpt><trkpt lat="42.06937549782156" lon="11.892525658683468"><ele>145.4</ele><time>2026-04-18T10:12:25.001Z</time></trkpt><trkpt lat="42.069460395166665" lon="11.892415682413073"><ele>144.20000000000002</ele><time>2026-04-18T10:12:27.001Z</time></trkpt><trkpt lat="42.06949431867434" lon="11.892297261659506"><ele>143.0</ele><time>2026-04-18T10:12:29.001Z</time></trkpt><trkpt lat="42.06956590362133" lon="11.892341269870169"><ele>143.0</ele><time>2026-04-18T10:12:32.001Z</time></trkpt><trkpt lat="42.06954009559536" lon="11.89243346070897"><ele>143.0</ele><time>2026-04-18T10:12:33.001Z</time></trkpt><trkpt lat="42.06948320485506" lon="11.89251621939077"><ele>143.0</ele><time>2026-04-18T10:12:34.001Z</time></trkpt><trkpt lat="42.06943002529301" lon="11.892589413550853"><ele>143.0</ele><time>2026-04-18T10:12:35.001Z</time></trkpt><trkpt lat="42.0693985001468" lon="11.892674808090037"><ele>143.0</ele><time>2026-04-18T10:12:36.001Z</time></trkpt><trkpt lat="42.06937141288019" lon="11.89277377480525"><ele>143.0</ele><time>2026-04-18T10:12:37.001Z</time></trkpt><trkpt lat="42.069335031741076" lon="11.892869977066157"><ele>143.0</ele><time>2026-04-18T10:12:37.999Z</time></trkpt><trkpt lat="42.06929696501669" lon="11.892969083657862"><ele>143.0</ele><time>2026-04-18T10:12:38.999Z</time></trkpt><trkpt lat="42.069264077281936" lon="11.893069232600874"><ele>143.0</ele><time>2026-04-18T10:12:39.999Z</time></trkpt><trkpt lat="42.069236900716426" lon="11.893162507816667"><ele>143.0</ele><time>2026-04-18T10:12:40.999Z</time></trkpt><trkpt lat="42.06921490038753" lon="11.893253200350577"><ele>143.0</ele><time>2026-04-18T10:12:41.999Z</time></trkpt><trkpt lat="42.06921637010272" lon="11.893362420291322"><ele>143.0</ele><time>2026-04-18T10:12:43.999Z</time></trkpt><trkpt lat="42.0692621995846" lon="11.893437292723961"><ele>143.66666666666666</ele><time>2026-04-18T10:12:44.999Z</time></trkpt><trkpt lat="42.06932328195657" lon="11.893501859390502"><ele>144.33333333333331</ele><time>2026-04-18T10:12:45.999Z</time></trkpt><trkpt lat="42.06943687573619" lon="11.89355571377804"><ele>145.0</ele><time>2026-04-18T10:12:47.999Z</time></trkpt><trkpt lat="42.06950397198726" lon="11.893597704084248"><ele>145.66666666666666</ele><time>2026-04-18T10:12:48.999Z</time></trkpt><trkpt lat="42.069576802753794" lon="11.893632534355207"><ele>146.33333333333334</ele><time>2026-04-18T10:12:49.999Z</time></trkpt><trkpt lat="42.06964595899764" lon="11.893647739658402"><ele>147.0</ele><time>2026-04-18T10:12:50.999Z</time></trkpt><trkpt lat="42.06971135522562" lon="11.893646841940793"><ele>147.0</ele><time>2026-04-18T10:12:51.999Z</time></trkpt><trkpt lat="42.06982613219384" lon="11.893578715850527"><ele>147.0</ele><time>2026-04-18T10:12:53.999Z</time></trkpt><trkpt lat="42.069872904180244" lon="11.893488109508699"><ele>147.0</ele><time>2026-04-18T10:12:54.999Z</time></trkpt><trkpt lat="42.06990319249405" lon="11.89338463803297"><ele>147.0</ele><time>2026-04-18T10:12:55.999Z</time></trkpt><trkpt lat="42.06996059884256" lon="11.893251761059798"><ele>147.0</ele><time>2026-04-18T10:12:57.999Z</time></trkpt><trkpt lat="42.06999029410618" lon="11.893108794551535"><ele>146.33333333333334</ele><time>2026-04-18T10:13:00Z</time></trkpt><trkpt lat="42.06996748676422" lon="11.892960293610813"><ele>145.66666666666666</ele><time>2026-04-18T10:13:02Z</time></trkpt><trkpt lat="42.069935212993634" lon="11.892873477605303"><ele>145.0</ele><time>2026-04-18T10:13:03Z</time></trkpt><trkpt lat="42.0698869166031" lon="11.89278179821526"><ele>144.33333333333331</ele><time>2026-04-18T10:13:04Z</time></trkpt><trkpt lat="42.06983564530068" lon="11.892693194641973"><ele>143.66666666666666</ele><time>2026-04-18T10:13:05Z</time></trkpt><trkpt lat="42.06978750192932" lon="11.892628605072403"><ele>143.0</ele><time>2026-04-18T10:13:06Z</time></trkpt><trkpt lat="42.069695792848286" lon="11.892597815095378"><ele>143.0</ele><time>2026-04-18T10:13:08Z</time></trkpt><trkpt lat="42.06962346553032" lon="11.89268511070769"><ele>143.0</ele><time>2026-04-18T10:13:10Z</time></trkpt><trkpt lat="42.06959753486362" lon="11.8927720811561"><ele>143.0</ele><time>2026-04-18T10:13:11Z</time></trkpt><trkpt lat="42.069573113077816" lon="11.892873871979148"><ele>143.0</ele><time>2026-04-18T10:13:12Z</time></trkpt><trkpt lat="42.06955067607801" lon="11.892978210125918"><ele>143.0</ele><time>2026-04-18T10:13:13Z</time></trkpt><trkpt lat="42.06952652668587" lon="11.893089347510974"><ele>143.0</ele><time>2026-04-18T10:13:14Z</time></trkpt><trkpt lat="42.06949251452043" lon="11.893197435926908"><ele>143.0</ele><time>2026-04-18T10:13:15Z</time></trkpt><trkpt lat="42.0694697793782" lon="11.893283491481558"><ele>143.0</ele><time>2026-04-18T10:13:16Z</time></trkpt><trkpt lat="42.06952060850072" lon="11.893349177930816"><ele>143.0</ele><time>2026-04-18T10:13:18Z</time></trkpt><trkpt lat="42.06960288156975" lon="11.893274424247567"><ele>143.0</ele><time>2026-04-18T10:13:20Z</time></trkpt><trkpt lat="42.069629597397864" lon="11.893124921616792"><ele>143.0</ele><time>2026-04-18T10:13:22Z</time></trkpt><trkpt lat="42.069634843527986" lon="11.893030996975165"><ele>143.0</ele><time>2026-04-18T10:13:23Z</time></trkpt><trkpt lat="42.069668280364596" lon="11.892896870338829"><ele>143.0</ele><time>2026-04-18T10:13:25Z</time></trkpt><trkpt lat="42.06973688125142" lon="11.89281113835964"><ele>143.0</ele><time>2026-04-18T10:13:27Z</time></trkpt><trkpt lat="42.0698083360357" lon="11.89284329226349"><ele>143.0</ele><time>2026-04-18T10:13:29Z</time></trkpt><trkpt lat="42.06983803534601" lon="11.892964184462523"><ele>143.0</ele><time>2026-04-18T10:13:31Z</time></trkpt><trkpt lat="42.06984720535594" lon="11.893052738751381"><ele>143.0</ele><time>2026-04-18T10:13:32Z</time></trkpt><trkpt lat="42.06982104947548" lon="11.893212135802832"><ele>143.0</ele><time>2026-04-18T10:13:34Z</time></trkpt><trkpt lat="42.069778790706486" lon="11.89329079930775"><ele>143.0</ele><time>2026-04-18T10:13:35Z</time></trkpt><trkpt lat="42.069723406039465" lon="11.893356306229872"><ele>143.0</ele><time>2026-04-18T10:13:36Z</time></trkpt><trkpt lat="42.06966463333222" lon="11.893424086777527"><ele>143.0</ele><time>2026-04-18T10:13:37Z</time></trkpt><trkpt lat="42.06959989797443" lon="11.893476667740194"><ele>143.0</ele><time>2026-04-18T10:13:38Z</time></trkpt><trkpt lat="42.06952449725734" lon="11.893513112624458"><ele>143.0</ele><time>2026-04-18T10:13:39Z</time></trkpt><trkpt lat="42.06945583732816" lon="11.89348560857531"><ele>143.0</ele><time>2026-04-18T10:13:40Z</time></trkpt><trkpt lat="42.06940804628748" lon="11.893412940939688"><ele>143.0</ele><time>2026-04-18T10:13:41Z</time></trkpt><trkpt lat="42.06938197359733" lon="11.893334417844166"><ele>143.0</ele><time>2026-04-18T10:13:42Z</time></trkpt><trkpt lat="42.06938786769857" lon="11.893183817139956"><ele>143.0</ele><time>2026-04-18T10:13:44Z</time></trkpt><trkpt lat="42.0694061714901" lon="11.89309088900538"><ele>143.0</ele><time>2026-04-18T10:13:45Z</time></trkpt><trkpt lat="42.069434728755" lon="11.893000407697578"><ele>143.0</ele><time>2026-04-18T10:13:46.001Z</time></trkpt><trkpt lat="42.06946771774441" lon="11.892906787437553"><ele>143.0</ele><time>2026-04-18T10:13:47.001Z</time></trkpt><trkpt lat="42.06950599521575" lon="11.892819773760944"><ele>143.0</ele><time>2026-04-18T10:13:48.001Z</time></trkpt><trkpt lat="42.06955392882974" lon="11.892700936192355"><ele>143.0</ele><time>2026-04-18T10:13:49.001Z</time></trkpt><trkpt lat="42.0695926822452" lon="11.89259633335592"><ele>143.0</ele><time>2026-04-18T10:13:50.001Z</time></trkpt><trkpt lat="42.06963356313766" lon="11.892493146860815"><ele>143.0</ele><time>2026-04-18T10:13:51.001Z</time></trkpt><trkpt lat="42.06966461964623" lon="11.892394543257538"><ele>143.0</ele><time>2026-04-18T10:13:52.001Z</time></trkpt><trkpt lat="42.06967841212963" lon="11.892301018833846"><ele>140.6</ele><time>2026-04-18T10:13:53.001Z</time></trkpt><trkpt lat="42.069617036292755" lon="11.892143491816732"><ele>138.20000000000002</ele><time>2026-04-18T10:13:55.001Z</time></trkpt><trkpt lat="42.06954828405645" lon="11.89207731052766"><ele>135.8</ele><time>2026-04-18T10:13:56.001Z</time></trkpt><trkpt lat="42.06943941569104" lon="11.892014955689627"><ele>133.4</ele><time>2026-04-18T10:13:58.001Z</time></trkpt><trkpt lat="42.06936402982839" lon="11.892050294323408"><ele>131.0</ele><time>2026-04-18T10:14:00.001Z</time></trkpt><trkpt lat="42.069355290572354" lon="11.89214960755805"><ele>131.0</ele><time>2026-04-18T10:14:02.001Z</time></trkpt><trkpt lat="42.06934999201463" lon="11.89228881053102"><ele>131.0</ele><time>2026-04-18T10:14:04.001Z</time></trkpt><trkpt lat="42.06932163823561" lon="11.892373267464146"><ele>131.0</ele><time>2026-04-18T10:14:05.001Z</time></trkpt><trkpt lat="42.0692761665861" lon="11.892489752067418"><ele>131.0</ele><time>2026-04-18T10:14:06.001Z</time></trkpt><trkpt lat="42.06922942575057" lon="11.892622717663507"><ele>131.0</ele><time>2026-04-18T10:14:07.001Z</time></trkpt><trkpt lat="42.06918904371151" lon="11.892750602928464"><ele>133.0</ele><time>2026-04-18T10:14:08.001Z</time></trkpt><trkpt lat="42.06915510598476" lon="11.89285174531069"><ele>135.0</ele><time>2026-04-18T10:14:09.001Z</time></trkpt><trkpt lat="42.069120584301324" lon="11.892955701184565"><ele>137.0</ele><time>2026-04-18T10:14:10.001Z</time></trkpt><trkpt lat="42.069078392064654" lon="11.893071321952336"><ele>139.0</ele><time>2026-04-18T10:14:11.001Z</time></trkpt><trkpt lat="42.069031118878705" lon="11.893171495944634"><ele>141.0</ele><time>2026-04-18T10:14:12.001Z</time></trkpt><trkpt lat="42.0689853393286" lon="11.893257566932963"><ele>143.0</ele><time>2026-04-18T10:14:13.001Z</time></trkpt><trkpt lat="42.06889018031003" lon="11.893356148680324"><ele>144.0</ele><time>2026-04-18T10:14:15.001Z</time></trkpt><trkpt lat="42.068834383757505" lon="11.893261116293417"><ele>145.0</ele><time>2026-04-18T10:14:17.001Z</time></trkpt><trkpt lat="42.0688647045794" lon="11.89316019872432"><ele>146.0</ele><time>2026-04-18T10:14:18.001Z</time></trkpt><trkpt lat="42.06890313933085" lon="11.893076319833071"><ele>147.0</ele><time>2026-04-18T10:14:19.001Z</time></trkpt><trkpt lat="42.068942620938245" lon="11.892996423057474"><ele>148.0</ele><time>2026-04-18T10:14:20.001Z</time></trkpt><trkpt lat="42.069017049500665" lon="11.892924063569751"><ele>149.0</ele><time>2026-04-18T10:14:22.001Z</time></trkpt><trkpt lat="42.06905741903728" lon="11.892851699403035"><ele>147.8</ele><time>2026-04-18T10:14:23.001Z</time></trkpt><trkpt lat="42.06911386148421" lon="11.89271239849682"><ele>146.60000000000002</ele><time>2026-04-18T10:14:25.001Z</time></trkpt><trkpt lat="42.06914486528498" lon="11.892602660985128"><ele>145.4</ele><time>2026-04-18T10:14:27.001Z</time></trkpt><trkpt lat="42.06914474407208" lon="11.892455429690976"><ele>144.20000000000002</ele><time>2026-04-18T10:14:29.001Z</time></trkpt><trkpt lat="42.06915551375529" lon="11.89235697217545"><ele>143.0</ele><time>2026-04-18T10:14:30.001Z</time></trkpt><trkpt lat="42.0691818421" lon="11.892247965366087"><ele>141.0</ele><time>2026-04-18T10:14:31.001Z</time></trkpt><trkpt lat="42.06922175818195" lon="11.892130030606758"><ele>139.0</ele><time>2026-04-18T10:14:32.001Z</time></trkpt><trkpt lat="42.06926120836199" lon="11.892026939235658"><ele>137.0</ele><time>2026-04-18T10:14:33.001Z</time></trkpt><trkpt lat="42.069289935950735" lon="11.891924497592793"><ele>135.0</ele><time>2026-04-18T10:14:34.001Z</time></trkpt><trkpt lat="42.06932279087062" lon="11.891841467188021"><ele>133.0</ele><time>2026-04-18T10:14:35.001Z</time></trkpt><trkpt lat="42.069397482905615" lon="11.89172366174514"><ele>131.0</ele><time>2026-04-18T10:14:37.001Z</time></trkpt><trkpt lat="42.06946407857166" lon="11.891692820408073"><ele>131.0</ele><time>2026-04-18T10:14:39.001Z</time></trkpt><trkpt lat="42.0695347984378" lon="11.891721967131835"><ele>131.0</ele><time>2026-04-18T10:14:42.001Z</time></trkpt><trkpt lat="42.06957958467742" lon="11.891782878091412"><ele>131.0</ele><time>2026-04-18T10:14:47Z</time></trkpt><trkpt lat="42.06964599838272" lon="11.89194729608456"><ele>131.0</ele><time>2026-04-18T10:14:49Z</time></trkpt><trkpt lat="42.06966747875634" lon="11.892029162132602"><ele>131.0</ele><time>2026-04-18T10:14:50Z</time></trkpt><trkpt lat="42.06972511940734" lon="11.892204663727753"><ele>131.0</ele><time>2026-04-18T10:14:52Z</time></trkpt><trkpt lat="42.069769542528945" lon="11.8923094940422"><ele>131.0</ele><time>2026-04-18T10:14:53Z</time></trkpt><trkpt lat="42.06979941535268" lon="11.892386611857882"><ele>131.0</ele><time>2026-04-18T10:14:54Z</time></trkpt><trkpt lat="42.069861482831215" lon="11.892522337983285"><ele>131.0</ele><time>2026-04-18T10:14:56Z</time></trkpt><trkpt lat="42.069925231200486" lon="11.892628430367028"><ele>131.0</ele><time>2026-04-18T10:14:57Z</time></trkpt><trkpt lat="42.069991841686836" lon="11.892757638644943"><ele>132.33333333333331</ele><time>2026-04-18T10:14:58Z</time></trkpt><trkpt lat="42.07004297599022" lon="11.892877424976803"><ele>133.66666666666666</ele><time>2026-04-18T10:14:59Z</time></trkpt><trkpt lat="42.07008080511697" lon="11.892976614596446"><ele>135.0</ele><time>2026-04-18T10:15:00Z</time></trkpt><trkpt lat="42.07011100920224" lon="11.893062602944948"><ele>136.33333333333334</ele><time>2026-04-18T10:15:01Z</time></trkpt><trkpt lat="42.07013602459915" lon="11.893152526688034"><ele>137.66666666666669</ele><time>2026-04-18T10:15:02Z</time></trkpt><trkpt lat="42.07013708318335" lon="11.893242672803229"><ele>139.0</ele><time>2026-04-18T10:15:03Z</time></trkpt><trkpt lat="42.070114925084276" lon="11.893331119740433"><ele>139.0</ele><time>2026-04-18T10:15:04Z</time></trkpt><trkpt lat="42.07007167560025" lon="11.893418702787843"><ele>139.0</ele><time>2026-04-18T10:15:05Z</time></trkpt><trkpt lat="42.070007527802765" lon="11.893491173612075"><ele>139.0</ele><time>2026-04-18T10:15:06Z</time></trkpt><trkpt lat="42.069943669576666" lon="11.893546480802353"><ele>139.0</ele><time>2026-04-18T10:15:07Z</time></trkpt><trkpt lat="42.069887669645674" lon="11.89360776027361"><ele>139.0</ele><time>2026-04-18T10:15:08Z</time></trkpt><trkpt lat="42.06982566277402" lon="11.893672234956782"><ele>139.0</ele><time>2026-04-18T10:15:10Z</time></trkpt><trkpt lat="42.06980076791384" lon="11.893750938332293"><ele>140.33333333333334</ele><time>2026-04-18T10:15:11Z</time></trkpt><trkpt lat="42.06976797269448" lon="11.893834228901213"><ele>141.66666666666669</ele><time>2026-04-18T10:15:12Z</time></trkpt><trkpt lat="42.06969061101706" lon="11.893939973624692"><ele>143.0</ele><time>2026-04-18T10:15:14Z</time></trkpt><trkpt lat="42.06958190311037" lon="11.894011782948189"><ele>144.33333333333334</ele><time>2026-04-18T10:15:16Z</time></trkpt><trkpt lat="42.0695172525671" lon="11.894015783093128"><ele>145.66666666666666</ele><time>2026-04-18T10:15:17Z</time></trkpt><trkpt lat="42.069453562413315" lon="11.893994081133897"><ele>147.0</ele><time>2026-04-18T10:15:18Z</time></trkpt><trkpt lat="42.06939578047123" lon="11.893954366666074"><ele>147.0</ele><time>2026-04-18T10:15:19Z</time></trkpt><trkpt lat="42.0693381645999" lon="11.893918431628325"><ele>147.0</ele><time>2026-04-18T10:15:20Z</time></trkpt><trkpt lat="42.06932141571286" lon="11.893823738598112"><ele>147.0</ele><time>2026-04-18T10:15:23Z</time></trkpt><trkpt lat="42.069394181023476" lon="11.893849848566445"><ele>147.0</ele><time>2026-04-18T10:15:26Z</time></trkpt><trkpt lat="42.069464637238845" lon="11.893894365500406"><ele>147.0</ele><time>2026-04-18T10:17:33.001Z</time></trkpt><trkpt lat="42.06951825248384" lon="11.893841737478132"><ele>147.0</ele><time>2026-04-18T10:17:38.001Z</time></trkpt><trkpt lat="42.06948527572619" lon="11.893746504835033"><ele>147.0</ele><time>2026-04-18T10:18:03.001Z</time></trkpt><trkpt lat="42.06942152158754" lon="11.893628833307222"><ele>147.0</ele><time>2026-04-18T10:18:05.001Z</time></trkpt><trkpt lat="42.069301309401645" lon="11.893597292512673"><ele>147.0</ele><time>2026-04-18T10:18:07.001Z</time></trkpt><trkpt lat="42.069237005534276" lon="11.893579020767241"><ele>147.0</ele><time>2026-04-18T10:18:08.001Z</time></trkpt><trkpt lat="42.06916092826341" lon="11.893524361070035"><ele>147.0</ele><time>2026-04-18T10:18:09.001Z</time></trkpt><trkpt lat="42.06908320681662" lon="11.89345844778197"><ele>147.0</ele><time>2026-04-18T10:18:10.001Z</time></trkpt><trkpt lat="42.06902593366612" lon="11.89334388072111"><ele>147.4</ele><time>2026-04-18T10:18:12.001Z</time></trkpt><trkpt lat="42.06907049397103" lon="11.893178821568187"><ele>147.79999999999998</ele><time>2026-04-18T10:18:14.001Z</time></trkpt><trkpt lat="42.069121939417776" lon="11.893085302758085"><ele>148.2</ele><time>2026-04-18T10:18:15.001Z</time></trkpt><trkpt lat="42.06916364789563" lon="11.892986500424108"><ele>148.6</ele><time>2026-04-18T10:18:16.001Z</time></trkpt><trkpt lat="42.069195307128155" lon="11.892897500639506"><ele>149.0</ele><time>2026-04-18T10:18:17.001Z</time></trkpt><trkpt lat="42.06923859125286" lon="11.892788043588705"><ele>148.0</ele><time>2026-04-18T10:18:18.001Z</time></trkpt><trkpt lat="42.06927780374374" lon="11.892691925480849"><ele>147.0</ele><time>2026-04-18T10:18:19.001Z</time></trkpt><trkpt lat="42.069312423917616" lon="11.892617479800547"><ele>146.0</ele><time>2026-04-18T10:18:20.001Z</time></trkpt><trkpt lat="42.06935514788918" lon="11.892552697885188"><ele>145.0</ele><time>2026-04-18T10:18:21.001Z</time></trkpt><trkpt lat="42.06944070746511" lon="11.892437160318387"><ele>144.0</ele><time>2026-04-18T10:18:23.001Z</time></trkpt><trkpt lat="42.069489362910986" lon="11.892308022990521"><ele>143.0</ele><time>2026-04-18T10:18:25.001Z</time></trkpt><trkpt lat="42.06956936391646" lon="11.892337780914298"><ele>143.0</ele><time>2026-04-18T10:18:28.001Z</time></trkpt><trkpt lat="42.06955231166353" lon="11.892428106624774"><ele>143.0</ele><time>2026-04-18T10:18:29.001Z</time></trkpt><trkpt lat="42.06949205547479" lon="11.892510133371653"><ele>143.0</ele><time>2026-04-18T10:18:30.001Z</time></trkpt><trkpt lat="42.06943043220309" lon="11.892595820964804"><ele>143.0</ele><time>2026-04-18T10:18:31.002Z</time></trkpt><trkpt lat="42.0693949556137" lon="11.892688869826122"><ele>143.0</ele><time>2026-04-18T10:18:32.002Z</time></trkpt><trkpt lat="42.06936244467603" lon="11.892791642423617"><ele>143.0</ele><time>2026-04-18T10:18:33.002Z</time></trkpt><trkpt lat="42.069330049674306" lon="11.892890922373635"><ele>143.0</ele><time>2026-04-18T10:18:34.002Z</time></trkpt><trkpt lat="42.06929333238942" lon="11.892993277764143"><ele>143.0</ele><time>2026-04-18T10:18:35.002Z</time></trkpt><trkpt lat="42.06925970399531" lon="11.89309444832248"><ele>143.0</ele><time>2026-04-18T10:18:36.002Z</time></trkpt><trkpt lat="42.06923067390772" lon="11.893196888865177"><ele>143.0</ele><time>2026-04-18T10:18:37.002Z</time></trkpt><trkpt lat="42.06920974804103" lon="11.893286221292936"><ele>143.0</ele><time>2026-04-18T10:18:38.002Z</time></trkpt><trkpt lat="42.06922188310296" lon="11.89340378084913"><ele>143.0</ele><time>2026-04-18T10:18:40.002Z</time></trkpt><trkpt lat="42.06928653554796" lon="11.893483503920704"><ele>143.66666666666666</ele><time>2026-04-18T10:18:41.002Z</time></trkpt><trkpt lat="42.06935458638965" lon="11.893514567593375"><ele>144.33333333333331</ele><time>2026-04-18T10:18:42.002Z</time></trkpt><trkpt lat="42.069416183301826" lon="11.893540485071755"><ele>145.0</ele><time>2026-04-18T10:18:43.002Z</time></trkpt><trkpt lat="42.06949160239642" lon="11.893593269048063"><ele>145.66666666666666</ele><time>2026-04-18T10:18:44.002Z</time></trkpt><trkpt lat="42.069563368943555" lon="11.893633571762322"><ele>146.33333333333334</ele><time>2026-04-18T10:18:45.002Z</time></trkpt><trkpt lat="42.06968506976321" lon="11.893650365244747"><ele>147.0</ele><time>2026-04-18T10:18:47.002Z</time></trkpt><trkpt lat="42.06979462921488" lon="11.893611170309196"><ele>147.0</ele><time>2026-04-18T10:18:49.002Z</time></trkpt><trkpt lat="42.069840409827286" lon="11.893548784446244"><ele>147.0</ele><time>2026-04-18T10:18:50.002Z</time></trkpt><trkpt lat="42.069874131710385" lon="11.89346321462672"><ele>147.0</ele><time>2026-04-18T10:18:51.002Z</time></trkpt><trkpt lat="42.06991067310818" lon="11.893378136621555"><ele>147.0</ele><time>2026-04-18T10:18:52.002Z</time></trkpt><trkpt lat="42.069972512386194" lon="11.893246402911426"><ele>147.0</ele><time>2026-04-18T10:18:54.002Z</time></trkpt><trkpt lat="42.069986216152664" lon="11.89310687376154"><ele>147.0</ele><time>2026-04-18T10:18:56Z</time></trkpt><trkpt lat="42.069962226712306" lon="11.892949480418462"><ele>146.33333333333334</ele><time>2026-04-18T10:18:58Z</time></trkpt><trkpt lat="42.06992171255353" lon="11.892849925708612"><ele>145.66666666666666</ele><time>2026-04-18T10:18:59Z</time></trkpt><trkpt lat="42.06987772588307" lon="11.892766222666996"><ele>145.0</ele><time>2026-04-18T10:19:00Z</time></trkpt><trkpt lat="42.069833548378675" lon="11.892695758129188"><ele>144.33333333333331</ele><time>2026-04-18T10:19:01Z</time></trkpt><trkpt lat="42.069742441996375" lon="11.892599785768972"><ele>143.66666666666666</ele><time>2026-04-18T10:19:03Z</time></trkpt><trkpt lat="42.06966255146461" lon="11.892633382223051"><ele>143.0</ele><time>2026-04-18T10:19:05Z</time></trkpt><trkpt lat="42.06962347484572" lon="11.892701615517687"><ele>143.0</ele><time>2026-04-18T10:19:06Z</time></trkpt><trkpt lat="42.069593262960716" lon="11.89279764892739"><ele>143.0</ele><time>2026-04-18T10:19:07Z</time></trkpt><trkpt lat="42.06956803990061" lon="11.892921364022381"><ele>143.0</ele><time>2026-04-18T10:19:08Z</time></trkpt><trkpt lat="42.06953757345017" lon="11.89304297180828"><ele>143.0</ele><time>2026-04-18T10:19:09Z</time></trkpt><trkpt lat="42.069501581401326" lon="11.893160672355707"><ele>143.0</ele><time>2026-04-18T10:19:10Z</time></trkpt><trkpt lat="42.06947120896899" lon="11.893261659517012"><ele>143.0</ele><time>2026-04-18T10:19:11Z</time></trkpt><trkpt lat="42.06949923801005" lon="11.893346176339984"><ele>143.0</ele><time>2026-04-18T10:19:13Z</time></trkpt><trkpt lat="42.06959682847184" lon="11.893312862662862"><ele>143.0</ele><time>2026-04-18T10:19:15Z</time></trkpt><trkpt lat="42.06962921745456" lon="11.893224534640034"><ele>143.0</ele><time>2026-04-18T10:19:16Z</time></trkpt><trkpt lat="42.06963350924909" lon="11.893133606324675"><ele>143.0</ele><time>2026-04-18T10:19:17Z</time></trkpt><trkpt lat="42.06964256681306" lon="11.892985209939138"><ele>143.0</ele><time>2026-04-18T10:19:19Z</time></trkpt><trkpt lat="42.06968837221833" lon="11.892866106791862"><ele>143.0</ele><time>2026-04-18T10:19:21Z</time></trkpt><trkpt lat="42.069754388160064" lon="11.892815277837002"><ele>143.0</ele><time>2026-04-18T10:19:23Z</time></trkpt><trkpt lat="42.06981974538379" lon="11.892869548834517"><ele>143.0</ele><time>2026-04-18T10:19:25Z</time></trkpt><trkpt lat="42.06983798753734" lon="11.89299651762438"><ele>143.0</ele><time>2026-04-18T10:19:27Z</time></trkpt><trkpt lat="42.06984300482426" lon="11.893093238786486"><ele>143.0</ele><time>2026-04-18T10:19:28Z</time></trkpt><trkpt lat="42.069798454797485" lon="11.893239880932802"><ele>143.0</ele><time>2026-04-18T10:19:30Z</time></trkpt><trkpt lat="42.06974576096007" lon="11.893325530421764"><ele>143.0</ele><time>2026-04-18T10:19:31Z</time></trkpt><trkpt lat="42.06965170029295" lon="11.893436989127375"><ele>143.0</ele><time>2026-04-18T10:19:33Z</time></trkpt><trkpt lat="42.069593707070595" lon="11.89347768142933"><ele>143.0</ele><time>2026-04-18T10:19:34Z</time></trkpt><trkpt lat="42.06952887738091" lon="11.893504424364"><ele>143.0</ele><time>2026-04-18T10:19:35Z</time></trkpt><trkpt lat="42.06946475265613" lon="11.893485478065083"><ele>143.0</ele><time>2026-04-18T10:19:36Z</time></trkpt><trkpt lat="42.0694155257198" lon="11.893422607411729"><ele>143.0</ele><time>2026-04-18T10:19:37Z</time></trkpt><trkpt lat="42.069384039002514" lon="11.8932914624128"><ele>143.0</ele><time>2026-04-18T10:19:39Z</time></trkpt><trkpt lat="42.069393756847134" lon="11.893184455389248"><ele>143.0</ele><time>2026-04-18T10:19:41Z</time></trkpt><trkpt lat="42.069429152828945" lon="11.893042795563112"><ele>143.0</ele><time>2026-04-18T10:19:43Z</time></trkpt><trkpt lat="42.06945791232691" lon="11.892961685736683"><ele>143.0</ele><time>2026-04-18T10:19:44Z</time></trkpt><trkpt lat="42.06948967132891" lon="11.89287640230972"><ele>143.0</ele><time>2026-04-18T10:19:45Z</time></trkpt><trkpt lat="42.06952465539214" lon="11.892799509395028"><ele>143.0</ele><time>2026-04-18T10:19:46Z</time></trkpt><trkpt lat="42.069565085520196" lon="11.892722047716935"><ele>143.0</ele><time>2026-04-18T10:19:47Z</time></trkpt><trkpt lat="42.06959994760061" lon="11.892636494004732"><ele>143.0</ele><time>2026-04-18T10:19:48Z</time></trkpt><trkpt lat="42.06963369368125" lon="11.892550878833742"><ele>143.0</ele><time>2026-04-18T10:19:49.001Z</time></trkpt><trkpt lat="42.06965314526447" lon="11.892461329694074"><ele>143.0</ele><time>2026-04-18T10:19:50.001Z</time></trkpt><trkpt lat="42.06966686721525" lon="11.892373405022033"><ele>143.0</ele><time>2026-04-18T10:19:51.001Z</time></trkpt><trkpt lat="42.06966607187705" lon="11.892230274133377"><ele>143.0</ele><time>2026-04-18T10:19:53.001Z</time></trkpt><trkpt lat="42.06962694462605" lon="11.892157361587719"><ele>141.0</ele><time>2026-04-18T10:19:54.001Z</time></trkpt><trkpt lat="42.069566911268026" lon="11.892096183298316"><ele>139.0</ele><time>2026-04-18T10:19:55.001Z</time></trkpt><trkpt lat="42.069511311404796" lon="11.89204954347982"><ele>137.0</ele><time>2026-04-18T10:19:56.001Z</time></trkpt><trkpt lat="42.06942200984907" lon="11.89203103614847"><ele>135.0</ele><time>2026-04-18T10:19:58.001Z</time></trkpt><trkpt lat="42.06937233302696" lon="11.89213010449802"><ele>133.0</ele><time>2026-04-18T10:20:00.001Z</time></trkpt><trkpt lat="42.06935059198042" lon="11.892292146436555"><ele>131.0</ele><time>2026-04-18T10:20:02.001Z</time></trkpt><trkpt lat="42.06931362454417" lon="11.892396052728508"><ele>131.0</ele><time>2026-04-18T10:20:03.001Z</time></trkpt><trkpt lat="42.069268152956106" lon="11.892520985404326"><ele>131.0</ele><time>2026-04-18T10:20:04.001Z</time></trkpt><trkpt lat="42.069233426269136" lon="11.892617391236397"><ele>131.0</ele><time>2026-04-18T10:20:05.001Z</time></trkpt><trkpt lat="42.0692014394477" lon="11.892716510737115"><ele>131.0</ele><time>2026-04-18T10:20:06.001Z</time></trkpt><trkpt lat="42.06917356010005" lon="11.89280851802084"><ele>131.0</ele><time>2026-04-18T10:20:07.001Z</time></trkpt><trkpt lat="42.069134761748764" lon="11.892902320565007"><ele>131.0</ele><time>2026-04-18T10:20:08.001Z</time></trkpt><trkpt lat="42.069096610360376" lon="11.893004673143091"><ele>134.0</ele><time>2026-04-18T10:20:09.001Z</time></trkpt><trkpt lat="42.069057800610715" lon="11.893110743803733"><ele>137.0</ele><time>2026-04-18T10:20:10.001Z</time></trkpt><trkpt lat="42.06901403719876" lon="11.893200765519"><ele>140.0</ele><time>2026-04-18T10:20:11.001Z</time></trkpt><trkpt lat="42.06892999094462" lon="11.893324627898917"><ele>143.0</ele><time>2026-04-18T10:20:13.001Z</time></trkpt><trkpt lat="42.068842437624106" lon="11.893324703940072"><ele>146.0</ele><time>2026-04-18T10:20:15.001Z</time></trkpt><trkpt lat="42.068837935524186" lon="11.89323507728168"><ele>149.0</ele><time>2026-04-18T10:20:16.001Z</time></trkpt><trkpt lat="42.06886726761218" lon="11.893159856637613"><ele>149.0</ele><time>2026-04-18T10:20:17.001Z</time></trkpt><trkpt lat="42.068920406123276" lon="11.893037172152471"><ele>149.0</ele><time>2026-04-18T10:20:19.001Z</time></trkpt><trkpt lat="42.06899802944206" lon="11.89295069337489"><ele>149.0</ele><time>2026-04-18T10:20:21.001Z</time></trkpt><trkpt lat="42.069065750087844" lon="11.892833716927717"><ele>149.0</ele><time>2026-04-18T10:20:23.001Z</time></trkpt><trkpt lat="42.0691084652347" lon="11.89274034329853"><ele>149.0</ele><time>2026-04-18T10:20:25.001Z</time></trkpt><trkpt lat="42.069142814447105" lon="11.89264849842727"><ele>146.0</ele><time>2026-04-18T10:20:27.001Z</time></trkpt><trkpt lat="42.069148856813776" lon="11.892536496736781"><ele>143.0</ele><time>2026-04-18T10:20:29.001Z</time></trkpt><trkpt lat="42.0691520001345" lon="11.89245090988684"><ele>140.0</ele><time>2026-04-18T10:20:30.001Z</time></trkpt><trkpt lat="42.069168265939375" lon="11.892330938831146"><ele>137.0</ele><time>2026-04-18T10:20:31.001Z</time></trkpt><trkpt lat="42.06919569163586" lon="11.892227953079102"><ele>134.0</ele><time>2026-04-18T10:20:32.001Z</time></trkpt><trkpt lat="42.069228147170996" lon="11.892121709796719"><ele>131.0</ele><time>2026-04-18T10:20:33.001Z</time></trkpt><trkpt lat="42.069259271454484" lon="11.89203300047313"><ele>131.0</ele><time>2026-04-18T10:20:34.001Z</time></trkpt><trkpt lat="42.069292544916905" lon="11.89195376762055"><ele>131.0</ele><time>2026-04-18T10:20:35.001Z</time></trkpt><trkpt lat="42.069320317382854" lon="11.891877398634376"><ele>131.0</ele><time>2026-04-18T10:20:36.001Z</time></trkpt><trkpt lat="42.06938547653063" lon="11.89174048072282"><ele>131.0</ele><time>2026-04-18T10:20:38.001Z</time></trkpt><trkpt lat="42.06945205106126" lon="11.89169041646778"><ele>131.0</ele><time>2026-04-18T10:20:40.001Z</time></trkpt><trkpt lat="42.06951145602167" lon="11.891756293111527"><ele>131.0</ele><time>2026-04-18T10:20:42.001Z</time></trkpt><trkpt lat="42.069590633165475" lon="11.891840824246366"><ele>131.0</ele><time>2026-04-18T10:25:51.001Z</time></trkpt><trkpt lat="42.06966705748844" lon="11.891966888703587"><ele>131.0</ele><time>2026-04-18T10:25:53.001Z</time></trkpt><trkpt lat="42.069685980841896" lon="11.892051161186972"><ele>131.0</ele><time>2026-04-18T10:25:54.001Z</time></trkpt><trkpt lat="42.069711349078304" lon="11.892140487078747"><ele>131.0</ele><time>2026-04-18T10:25:55.001Z</time></trkpt><trkpt lat="42.06974034524137" lon="11.892228291021512"><ele>131.0</ele><time>2026-04-18T10:25:56.001Z</time></trkpt><trkpt lat="42.06977261329716" lon="11.89230694705528"><ele>131.0</ele><time>2026-04-18T10:25:57.001Z</time></trkpt><trkpt lat="42.06983213644681" lon="11.892426456485998"><ele>131.0</ele><time>2026-04-18T10:25:59.001Z</time></trkpt><trkpt lat="42.069866514476104" lon="11.892503846659318"><ele>131.0</ele><time>2026-04-18T10:26:00.001Z</time></trkpt><trkpt lat="42.06990350799045" lon="11.892583643173756"><ele>131.0</ele><time>2026-04-18T10:26:01.001Z</time></trkpt><trkpt lat="42.06994215757878" lon="11.89265908605357"><ele>131.0</ele><time>2026-04-18T10:26:02.001Z</time></trkpt><trkpt lat="42.06998189519116" lon="11.892730749280979"><ele>131.0</ele><time>2026-04-18T10:26:03.001Z</time></trkpt><trkpt lat="42.070044265138876" lon="11.892896249537417"><ele>131.0</ele><time>2026-04-18T10:26:05.001Z</time></trkpt><trkpt lat="42.07008112090526" lon="11.893006874146186"><ele>132.33333333333331</ele><time>2026-04-18T10:26:06.001Z</time></trkpt><trkpt lat="42.07011884174234" lon="11.893106219523995"><ele>133.66666666666666</ele><time>2026-04-18T10:26:07.001Z</time></trkpt><trkpt lat="42.07013754583778" lon="11.893194688567583"><ele>135.0</ele><time>2026-04-18T10:26:08.001Z</time></trkpt><trkpt lat="42.07013161990225" lon="11.89328644113103"><ele>136.33333333333334</ele><time>2026-04-18T10:26:09.001Z</time></trkpt><trkpt lat="42.07009954598034" lon="11.89338021581691"><ele>137.66666666666669</ele><time>2026-04-18T10:26:10.001Z</time></trkpt><trkpt lat="42.07003867298309" lon="11.89345746439309"><ele>139.0</ele><time>2026-04-18T10:26:11.001Z</time></trkpt><trkpt lat="42.06996461568661" lon="11.893519911809705"><ele>140.33333333333334</ele><time>2026-04-18T10:26:12.001Z</time></trkpt><trkpt lat="42.069906650241684" lon="11.893580476393995"><ele>141.66666666666669</ele><time>2026-04-18T10:26:13.001Z</time></trkpt><trkpt lat="42.06982532033764" lon="11.893664799523922"><ele>143.0</ele><time>2026-04-18T10:26:15.001Z</time></trkpt><trkpt lat="42.06977723139299" lon="11.89380869857772"><ele>144.33333333333334</ele><time>2026-04-18T10:26:17.001Z</time></trkpt><trkpt lat="42.06973496536833" lon="11.893876426005955"><ele>145.66666666666666</ele><time>2026-04-18T10:26:18.001Z</time></trkpt><trkpt lat="42.069682564377715" lon="11.893942612874309"><ele>147.0</ele><time>2026-04-18T10:26:19.001Z</time></trkpt><trkpt lat="42.069627941878004" lon="11.89399717998056"><ele>147.0</ele><time>2026-04-18T10:26:20.001Z</time></trkpt><trkpt lat="42.069515253025834" lon="11.89400276329211"><ele>147.0</ele><time>2026-04-18T10:26:22.001Z</time></trkpt><trkpt lat="42.0694026836525" lon="11.893923288083853"><ele>147.0</ele><time>2026-04-18T10:26:24.001Z</time></trkpt><trkpt lat="42.06934499769145" lon="11.893861209329485"><ele>147.0</ele><time>2026-04-18T10:26:25.001Z</time></trkpt><trkpt lat="42.06926716795939" lon="11.893735171878994"><ele>147.0</ele><time>2026-04-18T10:26:27.001Z</time></trkpt><trkpt lat="42.06922248148035" lon="11.893650393822229"><ele>147.0</ele><time>2026-04-18T10:26:29.001Z</time></trkpt><trkpt lat="42.069163583564645" lon="11.893586754837088"><ele>147.0</ele><time>2026-04-18T10:26:31.001Z</time></trkpt><trkpt lat="42.06908419325889" lon="11.893634966007106"><ele>147.0</ele><time>2026-04-18T10:34:43Z</time></trkpt><trkpt lat="42.06901859955682" lon="11.89373081951598"><ele>147.0</ele><time>2026-04-18T10:34:45Z</time></trkpt><trkpt lat="42.068974074702744" lon="11.893794646329486"><ele>147.0</ele><time>2026-04-18T10:34:47Z</time></trkpt><trkpt lat="42.068888677155996" lon="11.893768209009286"><ele>147.0</ele><time>2026-04-18T10:34:50Z</time></trkpt><trkpt lat="42.06882196013837" lon="11.893728291656862"><ele>146.85714285714286</ele><time>2026-04-18T10:34:52.001Z</time></trkpt><trkpt lat="42.06875194324598" lon="11.893690692106988"><ele>146.71428571428572</ele><time>2026-04-18T10:34:54.001Z</time></trkpt><trkpt lat="42.06869335860012" lon="11.893655613139565"><ele>146.57142857142856</ele><time>2026-04-18T10:34:56.001Z</time></trkpt><trkpt lat="42.06862395988545" lon="11.893612694191214"><ele>146.42857142857144</ele><time>2026-04-18T10:34:58.001Z</time></trkpt><trkpt lat="42.06856077087329" lon="11.893563781128591"><ele>146.28571428571428</ele><time>2026-04-18T10:35:00.001Z</time></trkpt><trkpt lat="42.06850321382737" lon="11.893520181043732"><ele>146.14285714285714</ele><time>2026-04-18T10:35:02.001Z</time></trkpt><trkpt lat="42.06842345737457" lon="11.89348340905149"><ele>146.0</ele><time>2026-04-18T10:35:14.001Z</time></trkpt><trkpt lat="42.068458395104884" lon="11.893593540044698"><ele>146.0</ele><time>2026-04-18T10:35:18.001Z</time></trkpt><trkpt lat="42.068529619365776" lon="11.89358847866267"><ele>146.0</ele><time>2026-04-18T10:35:19.001Z</time></trkpt><trkpt lat="42.068644288655314" lon="11.893612849416948"><ele>146.0</ele><time>2026-04-18T10:35:21.001Z</time></trkpt><trkpt lat="42.06874049940874" lon="11.893678948013575"><ele>146.0</ele><time>2026-04-18T10:35:23.001Z</time></trkpt><trkpt lat="42.068836114088235" lon="11.893705041641889"><ele>146.0</ele><time>2026-04-18T10:35:25.001Z</time></trkpt><trkpt lat="42.06891785349715" lon="11.893745602494727"><ele>146.0</ele><time>2026-04-18T10:35:27.001Z</time></trkpt><trkpt lat="42.069014141636515" lon="11.89380268196309"><ele>146.0</ele><time>2026-04-18T10:35:29.001Z</time></trkpt><trkpt lat="42.069071687738436" lon="11.893841861061022"><ele>146.0</ele><time>2026-04-18T10:35:30.001Z</time></trkpt><trkpt lat="42.06917525859929" lon="11.893919038330575"><ele>146.0</ele><time>2026-04-18T10:35:32.001Z</time></trkpt><trkpt lat="42.06927798027393" lon="11.894006796139003"><ele>146.0</ele><time>2026-04-18T10:35:34.001Z</time></trkpt><trkpt lat="42.069380270847056" lon="11.894071438534493"><ele>146.2</ele><time>2026-04-18T10:35:36.001Z</time></trkpt><trkpt lat="42.06947305067118" lon="11.894106125980617"><ele>146.39999999999998</ele><time>2026-04-18T10:35:38.001Z</time></trkpt><trkpt lat="42.06952794059132" lon="11.894187078572063"><ele>146.6</ele><time>2026-04-18T10:35:40.001Z</time></trkpt><trkpt lat="42.0695097619889" lon="11.894296846880712"><ele>146.79999999999998</ele><time>2026-04-18T10:35:42.001Z</time></trkpt><trkpt lat="42.06950483307598" lon="11.894458559354442"><ele>147.0</ele><time>2026-04-18T10:35:43.999Z</time></trkpt><trkpt lat="42.069565708772494" lon="11.89453494130519"><ele>145.2</ele><time>2026-04-18T10:35:44.999Z</time></trkpt><trkpt lat="42.06961965691235" lon="11.894605673673592"><ele>143.39999999999998</ele><time>2026-04-18T10:35:45.999Z</time></trkpt><trkpt lat="42.069659193707196" lon="11.89470034422572"><ele>141.60000000000002</ele><time>2026-04-18T10:35:46.999Z</time></trkpt><trkpt lat="42.06971205857257" lon="11.894802621790733"><ele>139.8</ele><time>2026-04-18T10:35:47.999Z</time></trkpt><trkpt lat="42.069777176415606" lon="11.894920435125918"><ele>138.0</ele><time>2026-04-18T10:35:48.999Z</time></trkpt><trkpt lat="42.06983595990454" lon="11.895025315789589"><ele>138.66666666666666</ele><time>2026-04-18T10:35:49.999Z</time></trkpt><trkpt lat="42.0698877530259" lon="11.895115489418526"><ele>139.33333333333334</ele><time>2026-04-18T10:35:50.999Z</time></trkpt><trkpt lat="42.06996025498455" lon="11.895203185382051"><ele>140.0</ele><time>2026-04-18T10:35:51.999Z</time></trkpt><trkpt lat="42.069992993707025" lon="11.895298211919435"><ele>140.66666666666669</ele><time>2026-04-18T10:35:52.999Z</time></trkpt><trkpt lat="42.070015473537765" lon="11.895378565421268"><ele>141.33333333333334</ele><time>2026-04-18T10:35:53.999Z</time></trkpt><trkpt lat="42.07005158691722" lon="11.895448181423314"><ele>142.0</ele><time>2026-04-18T10:35:55.999Z</time></trkpt><trkpt lat="42.0701045430982" lon="11.89552475182382"><ele>142.0</ele><time>2026-04-18T10:35:57.999Z</time></trkpt><trkpt lat="42.07008669308983" lon="11.895656999729372"><ele>142.0</ele><time>2026-04-18T10:35:59.999Z</time></trkpt><trkpt lat="42.07008595189944" lon="11.895816559290662"><ele>142.0</ele><time>2026-04-18T10:36:01.999Z</time></trkpt><trkpt lat="42.070084598343364" lon="11.895954113658936"><ele>142.0</ele><time>2026-04-18T10:36:03.999Z</time></trkpt><trkpt lat="42.07008174754417" lon="11.896070157753798"><ele>142.0</ele><time>2026-04-18T10:36:05.999Z</time></trkpt><trkpt lat="42.07008524279156" lon="11.896179479386674"><ele>141.83333333333334</ele><time>2026-04-18T10:36:08.999Z</time></trkpt><trkpt lat="42.07008753411829" lon="11.8962872698655"><ele>141.66666666666669</ele><time>2026-04-18T10:36:16.999Z</time></trkpt><trkpt lat="42.0700666358611" lon="11.896467365453928"><ele>141.5</ele><time>2026-04-18T10:36:18.999Z</time></trkpt><trkpt lat="42.07007102796386" lon="11.896565225952562"><ele>141.33333333333334</ele><time>2026-04-18T10:36:19.999Z</time></trkpt><trkpt lat="42.07009555733899" lon="11.896658774128753"><ele>141.16666666666666</ele><time>2026-04-18T10:36:20.999Z</time></trkpt><trkpt lat="42.07011570007238" lon="11.896749036112363"><ele>141.0</ele><time>2026-04-18T10:36:22Z</time></trkpt><trkpt lat="42.07012456538835" lon="11.896841408653493"><ele>139.8</ele><time>2026-04-18T10:36:23Z</time></trkpt><trkpt lat="42.07015055054369" lon="11.896925698467843"><ele>138.6</ele><time>2026-04-18T10:36:24Z</time></trkpt><trkpt lat="42.07018392719506" lon="11.897010936937475"><ele>137.4</ele><time>2026-04-18T10:36:25Z</time></trkpt><trkpt lat="42.07023243404761" lon="11.897076687450117"><ele>136.2</ele><time>2026-04-18T10:36:26Z</time></trkpt><trkpt lat="42.07028677599666" lon="11.897205355191996"><ele>135.0</ele><time>2026-04-18T10:36:28Z</time></trkpt><trkpt lat="42.070388392336376" lon="11.897333911955497"><ele>135.0</ele><time>2026-04-18T10:36:30Z</time></trkpt><trkpt lat="42.07046150467135" lon="11.897382434023006"><ele>135.0</ele><time>2026-04-18T10:36:31Z</time></trkpt><trkpt lat="42.07053192910364" lon="11.89740745382295"><ele>135.0</ele><time>2026-04-18T10:36:32Z</time></trkpt><trkpt lat="42.07060896527126" lon="11.897438195131791"><ele>135.0</ele><time>2026-04-18T10:36:33Z</time></trkpt><trkpt lat="42.07068858226512" lon="11.897476899107494"><ele>135.0</ele><time>2026-04-18T10:36:34Z</time></trkpt><trkpt lat="42.07075482876983" lon="11.897506574530913"><ele>135.0</ele><time>2026-04-18T10:36:35Z</time></trkpt><trkpt lat="42.07083391788818" lon="11.897530732235309"><ele>135.2</ele><time>2026-04-18T10:36:36Z</time></trkpt><trkpt lat="42.070927311065724" lon="11.897564083070979"><ele>135.4</ele><time>2026-04-18T10:36:37Z</time></trkpt><trkpt lat="42.07103027608955" lon="11.897604300686112"><ele>135.6</ele><time>2026-04-18T10:36:38Z</time></trkpt><trkpt lat="42.07114128538925" lon="11.897646223741402"><ele>135.8</ele><time>2026-04-18T10:36:39Z</time></trkpt><trkpt lat="42.071240367332486" lon="11.897683531679492"><ele>136.0</ele><time>2026-04-18T10:36:40Z</time></trkpt><trkpt lat="42.071327057688904" lon="11.897754932425244"><ele>136.0</ele><time>2026-04-18T10:36:41Z</time></trkpt><trkpt lat="42.07142372258991" lon="11.89781571722797"><ele>136.0</ele><time>2026-04-18T10:36:42Z</time></trkpt><trkpt lat="42.07152104619504" lon="11.897858584141998"><ele>136.0</ele><time>2026-04-18T10:36:43Z</time></trkpt><trkpt lat="42.07160382750034" lon="11.897927495893997"><ele>136.0</ele><time>2026-04-18T10:36:44Z</time></trkpt><trkpt lat="42.071692945789266" lon="11.898003141185903"><ele>136.0</ele><time>2026-04-18T10:36:45Z</time></trkpt><trkpt lat="42.0717726715523" lon="11.898080376882234"><ele>136.83333333333334</ele><time>2026-04-18T10:36:46Z</time></trkpt><trkpt lat="42.071844973655566" lon="11.898146706872478"><ele>137.66666666666669</ele><time>2026-04-18T10:36:47Z</time></trkpt><trkpt lat="42.07192437023897" lon="11.898203558306077"><ele>138.5</ele><time>2026-04-18T10:36:48Z</time></trkpt><trkpt lat="42.07199510911378" lon="11.898248945192135"><ele>139.33333333333334</ele><time>2026-04-18T10:36:49Z</time></trkpt><trkpt lat="42.07206816431616" lon="11.898294724299793"><ele>140.16666666666666</ele><time>2026-04-18T10:36:50Z</time></trkpt><trkpt lat="42.07214653748365" lon="11.898331772587563"><ele>141.0</ele><time>2026-04-18T10:36:51Z</time></trkpt><trkpt lat="42.07222967989027" lon="11.898373241802249"><ele>141.0</ele><time>2026-04-18T10:36:52Z</time></trkpt><trkpt lat="42.072306264101265" lon="11.898396977714436"><ele>141.0</ele><time>2026-04-18T10:36:53Z</time></trkpt><trkpt lat="42.07238650130982" lon="11.898419575774188"><ele>141.0</ele><time>2026-04-18T10:36:54Z</time></trkpt><trkpt lat="42.072483751372594" lon="11.89842916130611"><ele>141.0</ele><time>2026-04-18T10:36:55Z</time></trkpt><trkpt lat="42.07259366571743" lon="11.898442111621748"><ele>141.0</ele><time>2026-04-18T10:36:56Z</time></trkpt><trkpt lat="42.07270938328338" lon="11.898457140816369"><ele>141.0</ele><time>2026-04-18T10:36:57Z</time></trkpt><trkpt lat="42.072813960303534" lon="11.89848150280699"><ele>141.0</ele><time>2026-04-18T10:36:58Z</time></trkpt><trkpt lat="42.072920996290506" lon="11.898511600296603"><ele>141.0</ele><time>2026-04-18T10:36:59Z</time></trkpt><trkpt lat="42.07303017438249" lon="11.898535917950673"><ele>141.0</ele><time>2026-04-18T10:37:00Z</time></trkpt><trkpt lat="42.073118146079715" lon="11.898546826721715"><ele>141.0</ele><time>2026-04-18T10:37:01Z</time></trkpt><trkpt lat="42.0732049867927" lon="11.898557414669723"><ele>141.0</ele><time>2026-04-18T10:37:02Z</time></trkpt><trkpt lat="42.07326955313159" lon="11.898582240892953"><ele>141.0</ele><time>2026-04-18T10:37:03Z</time></trkpt><trkpt lat="42.073348758335534" lon="11.898705820385578"><ele>141.0</ele><time>2026-04-18T10:37:05Z</time></trkpt><trkpt lat="42.073398848141785" lon="11.898785786840058"><ele>141.0</ele><time>2026-04-18T10:37:06Z</time></trkpt><trkpt lat="42.07346431037532" lon="11.898846070070512"><ele>141.0</ele><time>2026-04-18T10:37:07Z</time></trkpt><trkpt lat="42.07353632104536" lon="11.898884615317332"><ele>141.0</ele><time>2026-04-18T10:37:08Z</time></trkpt><trkpt lat="42.07362066872852" lon="11.898918394494286"><ele>143.33333333333334</ele><time>2026-04-18T10:37:09Z</time></trkpt><trkpt lat="42.07371477319175" lon="11.89893874251647"><ele>145.66666666666666</ele><time>2026-04-18T10:37:10Z</time></trkpt><trkpt lat="42.073803541287724" lon="11.898953458124303"><ele>148.0</ele><time>2026-04-18T10:37:11Z</time></trkpt><trkpt lat="42.07388099104932" lon="11.898969468794823"><ele>150.33333333333331</ele><time>2026-04-18T10:37:12Z</time></trkpt><trkpt lat="42.07396200865526" lon="11.898963455006802"><ele>152.66666666666666</ele><time>2026-04-18T10:37:13Z</time></trkpt><trkpt lat="42.07404502020199" lon="11.898941911943217"><ele>155.0</ele><time>2026-04-18T10:37:14Z</time></trkpt><trkpt lat="42.074125627741466" lon="11.898928861705208"><ele>156.75</ele><time>2026-04-18T10:37:15Z</time></trkpt><trkpt lat="42.0742082881548" lon="11.89890726756127"><ele>158.5</ele><time>2026-04-18T10:37:16Z</time></trkpt><trkpt lat="42.07429994943323" lon="11.898882064307102"><ele>160.25</ele><time>2026-04-18T10:37:17Z</time></trkpt><trkpt lat="42.074373896039255" lon="11.898865175125536"><ele>162.0</ele><time>2026-04-18T10:37:18Z</time></trkpt><trkpt lat="42.07192437023897" lon="11.898203558306077"><ele>158.5</ele><time>2026-04-18T10:36:48Z</time></trkpt><trkpt lat="42.07199510911378" lon="11.898248945192135"><ele>155.0</ele><time>2026-04-18T10:36:49Z</time></trkpt><trkpt lat="42.07206816431616" lon="11.898294724299793"><ele>151.5</ele><time>2026-04-18T10:36:50Z</time></trkpt><trkpt lat="42.07214653748365" lon="11.898331772587563"><ele>148.0</ele><time>2026-04-18T10:36:51Z</time></trkpt><trkpt lat="42.07222967989027" lon="11.898373241802249"><ele>144.5</ele><time>2026-04-18T10:36:52Z</time></trkpt><trkpt lat="42.072306264101265" lon="11.898396977714436"><ele>141.0</ele><time>2026-04-18T10:36:53Z</time></trkpt><trkpt lat="42.07238650130982" lon="11.898419575774188"><ele>141.0</ele><time>2026-04-18T10:36:54Z</time></trkpt><trkpt lat="42.072483751372594" lon="11.89842916130611"><ele>141.0</ele><time>2026-04-18T10:36:55Z</time></trkpt><trkpt lat="42.07259366571743" lon="11.898442111621748"><ele>141.0</ele><time>2026-04-18T10:36:56Z</time></trkpt><trkpt lat="42.07270938328338" lon="11.898457140816369"><ele>141.0</ele><time>2026-04-18T10:36:57Z</time></trkpt><trkpt lat="42.072813960303534" lon="11.89848150280699"><ele>141.0</ele><time>2026-04-18T10:36:58Z</time></trkpt><trkpt lat="42.072920996290506" lon="11.898511600296603"><ele>141.0</ele><time>2026-04-18T10:36:59Z</time></trkpt><trkpt lat="42.07303017438249" lon="11.898535917950673"><ele>141.0</ele><time>2026-04-18T10:37:00Z</time></trkpt><trkpt lat="42.073118146079715" lon="11.898546826721715"><ele>141.0</ele><time>2026-04-18T10:37:01Z</time></trkpt><trkpt lat="42.0732049867927" lon="11.898557414669723"><ele>141.0</ele><time>2026-04-18T10:37:02Z</time></trkpt><trkpt lat="42.07326955313159" lon="11.898582240892953"><ele>141.0</ele><time>2026-04-18T10:37:03Z</time></trkpt><trkpt lat="42.073348758335534" lon="11.898705820385578"><ele>143.33333333333334</ele><time>2026-04-18T10:37:05Z</time></trkpt><trkpt lat="42.073398848141785" lon="11.898785786840058"><ele>145.66666666666666</ele><time>2026-04-18T10:37:06Z</time></trkpt><trkpt lat="42.07346431037532" lon="11.898846070070512"><ele>148.0</ele><time>2026-04-18T10:37:07Z</time></trkpt><trkpt lat="42.07353632104536" lon="11.898884615317332"><ele>150.33333333333331</ele><time>2026-04-18T10:37:08Z</time></trkpt><trkpt lat="42.07362066872852" lon="11.898918394494286"><ele>152.66666666666666</ele><time>2026-04-18T10:37:09Z</time></trkpt><trkpt lat="42.07371477319175" lon="11.89893874251647"><ele>155.0</ele><time>2026-04-18T10:37:10Z</time></trkpt><trkpt lat="42.073803541287724" lon="11.898953458124303"><ele>155.0</ele><time>2026-04-18T10:37:11Z</time></trkpt><trkpt lat="42.07388099104932" lon="11.898969468794823"><ele>155.0</ele><time>2026-04-18T10:37:12Z</time></trkpt><trkpt lat="42.07396200865526" lon="11.898963455006802"><ele>155.0</ele><time>2026-04-18T10:37:13Z</time></trkpt><trkpt lat="42.07404502020199" lon="11.898941911943217"><ele>155.0</ele><time>2026-04-18T10:37:14Z</time></trkpt><trkpt lat="42.074125627741466" lon="11.898928861705208"><ele>155.0</ele><time>2026-04-18T10:37:15Z</time></trkpt><trkpt lat="42.0742082881548" lon="11.89890726756127"><ele>155.0</ele><time>2026-04-18T10:37:16Z</time></trkpt><trkpt lat="42.07429994943323" lon="11.898882064307102"><ele>156.0</ele><time>2026-04-18T10:37:17Z</time></trkpt><trkpt lat="42.074373896039255" lon="11.898865175125536"><ele>157.0</ele><time>2026-04-18T10:37:18Z</time></trkpt><trkpt lat="42.07444425540907" lon="11.898849783902977"><ele>158.0</ele><time>2026-04-18T10:37:19Z</time></trkpt><trkpt lat="42.07451537572712" lon="11.898824609576344"><ele>159.0</ele><time>2026-04-18T10:37:20Z</time></trkpt><trkpt lat="42.07458556730677" lon="11.898792733758789"><ele>160.0</ele><time>2026-04-18T10:37:21Z</time></trkpt><trkpt lat="42.07465127801735" lon="11.898760434946276"><ele>161.0</ele><time>2026-04-18T10:37:22Z</time></trkpt><trkpt lat="42.07472165783519" lon="11.898729118016528"><ele>162.0</ele><time>2026-04-18T10:37:23Z</time></trkpt><trkpt lat="42.07480063407051" lon="11.898692121259236"><ele>162.0</ele><time>2026-04-18T10:37:24Z</time></trkpt><trkpt lat="42.07487730076484" lon="11.89865010818534"><ele>162.0</ele><time>2026-04-18T10:37:25Z</time></trkpt><trkpt lat="42.074948871560956" lon="11.898599883565645"><ele>162.0</ele><time>2026-04-18T10:37:26Z</time></trkpt><trkpt lat="42.07502961190197" lon="11.898564906519411"><ele>162.0</ele><time>2026-04-18T10:37:27Z</time></trkpt><trkpt lat="42.07512442183928" lon="11.898550468084839"><ele>162.0</ele><time>2026-04-18T10:37:28Z</time></trkpt><trkpt lat="42.0752133083068" lon="11.898538150154687"><ele>162.0</ele><time>2026-04-18T10:37:29Z</time></trkpt><trkpt lat="42.07529487845415" lon="11.898519516439992"><ele>161.4</ele><time>2026-04-18T10:37:30Z</time></trkpt><trkpt lat="42.07537347267013" lon="11.898479464566647"><ele>160.79999999999998</ele><time>2026-04-18T10:37:31Z</time></trkpt><trkpt lat="42.07544950825756" lon="11.898432859436609"><ele>160.2</ele><time>2026-04-18T10:37:32Z</time></trkpt><trkpt lat="42.07552387638907" lon="11.898379691479086"><ele>159.6</ele><time>2026-04-18T10:37:33Z</time></trkpt><trkpt lat="42.075592016614124" lon="11.89831534490779"><ele>159.0</ele><time>2026-04-18T10:37:34Z</time></trkpt><trkpt lat="42.07570116644524" lon="11.898244604062123"><ele>161.0</ele><time>2026-04-18T10:37:36Z</time></trkpt><trkpt lat="42.07577738960376" lon="11.898234486849171"><ele>163.0</ele><time>2026-04-18T10:37:37Z</time></trkpt><trkpt lat="42.07587570277257" lon="11.898232922249242"><ele>165.0</ele><time>2026-04-18T10:37:38Z</time></trkpt><trkpt lat="42.0759808250846" lon="11.89820499690702"><ele>167.0</ele><time>2026-04-18T10:37:39Z</time></trkpt><trkpt lat="42.07608425992824" lon="11.898170009917763"><ele>169.0</ele><time>2026-04-18T10:37:40Z</time></trkpt><trkpt lat="42.07618148658101" lon="11.898119600886579"><ele>169.0</ele><time>2026-04-18T10:37:41Z</time></trkpt><trkpt lat="42.076269934032425" lon="11.8980365460882"><ele>169.0</ele><time>2026-04-18T10:37:42Z</time></trkpt><trkpt lat="42.076359568742156" lon="11.897933203488718"><ele>169.0</ele><time>2026-04-18T10:37:43Z</time></trkpt><trkpt lat="42.076452601388034" lon="11.8978327338341"><ele>169.0</ele><time>2026-04-18T10:37:44Z</time></trkpt><trkpt lat="42.07655297329666" lon="11.897749994564776"><ele>167.79999999999998</ele><time>2026-04-18T10:37:45Z</time></trkpt><trkpt lat="42.076643046257175" lon="11.897689292776352"><ele>166.6</ele><time>2026-04-18T10:37:46Z</time></trkpt><trkpt lat="42.07672501883124" lon="11.89762933779559"><ele>165.4</ele><time>2026-04-18T10:37:47Z</time></trkpt><trkpt lat="42.07678577491915" lon="11.89755559100755"><ele>164.2</ele><time>2026-04-18T10:37:48Z</time></trkpt><trkpt lat="42.07684293292072" lon="11.897460596508523"><ele>163.0</ele><time>2026-04-18T10:37:49Z</time></trkpt><trkpt lat="42.07692578578829" lon="11.897360462648416"><ele>165.60000000000002</ele><time>2026-04-18T10:37:49.998Z</time></trkpt><trkpt lat="42.07702383866005" lon="11.897270162403407"><ele>168.20000000000002</ele><time>2026-04-18T10:37:50.998Z</time></trkpt><trkpt lat="42.077121254695825" lon="11.89721156934582"><ele>170.8</ele><time>2026-04-18T10:37:51.998Z</time></trkpt><trkpt lat="42.07722623502295" lon="11.897161845229919"><ele>173.4</ele><time>2026-04-18T10:37:52.998Z</time></trkpt><trkpt lat="42.07732264670065" lon="11.897140573739682"><ele>176.0</ele><time>2026-04-18T10:37:53.998Z</time></trkpt><trkpt lat="42.07741639336604" lon="11.897133287004149"><ele>174.83333333333331</ele><time>2026-04-18T10:37:54.998Z</time></trkpt><trkpt lat="42.07750871071482" lon="11.897154205541316"><ele>173.66666666666666</ele><time>2026-04-18T10:37:55.998Z</time></trkpt><trkpt lat="42.077585472637345" lon="11.897194604495159"><ele>172.5</ele><time>2026-04-18T10:37:56.998Z</time></trkpt><trkpt lat="42.07764863800087" lon="11.897260707237828"><ele>171.33333333333334</ele><time>2026-04-18T10:37:57.998Z</time></trkpt><trkpt lat="42.07769661194023" lon="11.897325988767873"><ele>170.16666666666669</ele><time>2026-04-18T10:37:58.998Z</time></trkpt><trkpt lat="42.0777708866615" lon="11.897411296277427"><ele>169.0</ele><time>2026-04-18T10:38:00.998Z</time></trkpt><trkpt lat="42.07783335808292" lon="11.897514510556059"><ele>169.0</ele><time>2026-04-18T10:39:02Z</time></trkpt><trkpt lat="42.077880243689634" lon="11.897634156499231"><ele>169.0</ele><time>2026-04-18T10:39:04Z</time></trkpt><trkpt lat="42.07791690148879" lon="11.897781020290939"><ele>169.0</ele><time>2026-04-18T10:39:06Z</time></trkpt><trkpt lat="42.077954388853556" lon="11.897900966508903"><ele>169.0</ele><time>2026-04-18T10:39:08Z</time></trkpt><trkpt lat="42.078019828006475" lon="11.897977354533259"><ele>169.0</ele><time>2026-04-18T10:39:10Z</time></trkpt><trkpt lat="42.07808891919616" lon="11.898032638017687"><ele>169.0</ele><time>2026-04-18T10:39:12Z</time></trkpt><trkpt lat="42.078189754347626" lon="11.898045873610036"><ele>169.0</ele><time>2026-04-18T10:39:14Z</time></trkpt><trkpt lat="42.07825794646645" lon="11.898036068545519"><ele>169.0</ele><time>2026-04-18T10:39:15Z</time></trkpt><trkpt lat="42.07838183508039" lon="11.897987401451388"><ele>169.0</ele><time>2026-04-18T10:39:17Z</time></trkpt><trkpt lat="42.07845212136851" lon="11.89795562782489"><ele>169.0</ele><time>2026-04-18T10:39:18Z</time></trkpt><trkpt lat="42.078575397651846" lon="11.897920500129603"><ele>171.5</ele><time>2026-04-18T10:39:20Z</time></trkpt><trkpt lat="42.078693841260076" lon="11.897937565586872"><ele>174.0</ele><time>2026-04-18T10:39:22Z</time></trkpt><trkpt lat="42.07880826785929" lon="11.898009830299618"><ele>176.5</ele><time>2026-04-18T10:39:24Z</time></trkpt><trkpt lat="42.078887029467715" lon="11.898173582336861"><ele>179.0</ele><time>2026-04-18T10:39:26Z</time></trkpt><trkpt lat="42.07892758593131" lon="11.898278430353644"><ele>179.0</ele><time>2026-04-18T10:39:27Z</time></trkpt><trkpt lat="42.07896377654113" lon="11.89837258542082"><ele>179.0</ele><time>2026-04-18T10:39:28Z</time></trkpt><trkpt lat="42.07899767913787" lon="11.898493443719213"><ele>179.0</ele><time>2026-04-18T10:39:29Z</time></trkpt><trkpt lat="42.079057915542684" lon="11.898579982418534"><ele>179.0</ele><time>2026-04-18T10:39:30Z</time></trkpt><trkpt lat="42.079100952025605" lon="11.898682621824868"><ele>179.0</ele><time>2026-04-18T10:39:31Z</time></trkpt><trkpt lat="42.07912314822198" lon="11.898794547859678"><ele>179.0</ele><time>2026-04-18T10:39:32Z</time></trkpt><trkpt lat="42.079184626526825" lon="11.898896485911543"><ele>180.83333333333331</ele><time>2026-04-18T10:39:33Z</time></trkpt><trkpt lat="42.07922225946772" lon="11.899022413775787"><ele>182.66666666666666</ele><time>2026-04-18T10:39:34Z</time></trkpt><trkpt lat="42.079269548042134" lon="11.89912119667857"><ele>184.5</ele><time>2026-04-18T10:39:35Z</time></trkpt><trkpt lat="42.079311729969156" lon="11.899202937726113"><ele>186.33333333333334</ele><time>2026-04-18T10:39:36Z</time></trkpt><trkpt lat="42.079363255419445" lon="11.899290081658984"><ele>188.16666666666669</ele><time>2026-04-18T10:39:37Z</time></trkpt><trkpt lat="42.07941975135065" lon="11.89934232544822"><ele>190.0</ele><time>2026-04-18T10:39:38Z</time></trkpt><trkpt lat="42.07946650795558" lon="11.89939914352438"><ele>190.0</ele><time>2026-04-18T10:39:39Z</time></trkpt><trkpt lat="42.07959254718682" lon="11.899417836579335"><ele>190.0</ele><time>2026-04-18T10:39:41Z</time></trkpt><trkpt lat="42.079671598584" lon="11.899371856186425"><ele>190.0</ele><time>2026-04-18T10:39:42Z</time></trkpt><trkpt lat="42.079755525067135" lon="11.899299176693887"><ele>190.0</ele><time>2026-04-18T10:39:43Z</time></trkpt><trkpt lat="42.07981916234152" lon="11.899206066738774"><ele>190.0</ele><time>2026-04-18T10:39:44Z</time></trkpt><trkpt lat="42.079874718841374" lon="11.899107924664012"><ele>192.8</ele><time>2026-04-18T10:39:45Z</time></trkpt><trkpt lat="42.079949178327865" lon="11.899000719151804"><ele>195.6</ele><time>2026-04-18T10:39:46.001Z</time></trkpt><trkpt lat="42.08002027720376" lon="11.89890273659041"><ele>198.39999999999998</ele><time>2026-04-18T10:39:47.001Z</time></trkpt><trkpt lat="42.08008357462125" lon="11.898825002370508"><ele>201.2</ele><time>2026-04-18T10:39:48.001Z</time></trkpt><trkpt lat="42.08015844647281" lon="11.898745742880347"><ele>204.0</ele><time>2026-04-18T10:39:49.001Z</time></trkpt><trkpt lat="42.080229246902086" lon="11.898680615503118"><ele>204.0</ele><time>2026-04-18T10:39:50.001Z</time></trkpt><trkpt lat="42.08030457371464" lon="11.898608234841287"><ele>204.0</ele><time>2026-04-18T10:39:51.001Z</time></trkpt><trkpt lat="42.080375348208484" lon="11.898562405930567"><ele>204.0</ele><time>2026-04-18T10:39:52.001Z</time></trkpt><trkpt lat="42.080448215157205" lon="11.898500325635974"><ele>204.0</ele><time>2026-04-18T10:39:53.001Z</time></trkpt><trkpt lat="42.08051737477093" lon="11.898446512139941"><ele>204.0</ele><time>2026-04-18T10:39:54.001Z</time></trkpt><trkpt lat="42.08058089214221" lon="11.898443397690967"><ele>204.0</ele><time>2026-04-18T10:39:55.001Z</time></trkpt><trkpt lat="42.08068146910559" lon="11.89849857713623"><ele>204.0</ele><time>2026-04-18T10:39:56.999Z</time></trkpt><trkpt lat="42.08073608016746" lon="11.89855374347267"><ele>204.0</ele><time>2026-04-18T10:39:57.999Z</time></trkpt><trkpt lat="42.08078469709682" lon="11.898613914995732"><ele>204.0</ele><time>2026-04-18T10:39:58.999Z</time></trkpt><trkpt lat="42.08081949495303" lon="11.89868512267934"><ele>204.0</ele><time>2026-04-18T10:39:59.999Z</time></trkpt><trkpt lat="42.08085339015008" lon="11.89876229829095"><ele>204.0</ele><time>2026-04-18T10:40:00.999Z</time></trkpt><trkpt lat="42.08089735592384" lon="11.898857815689658"><ele>204.0</ele><time>2026-04-18T10:40:01.999Z</time></trkpt><trkpt lat="42.08092944072283" lon="11.898938083476288"><ele>204.0</ele><time>2026-04-18T10:40:02.999Z</time></trkpt><trkpt lat="42.08097088691424" lon="11.899023618202467"><ele>206.39999999999998</ele><time>2026-04-18T10:40:03.999Z</time></trkpt><trkpt lat="42.08103113681762" lon="11.899189633951487"><ele>208.8</ele><time>2026-04-18T10:40:05.999Z</time></trkpt><trkpt lat="42.081064300273866" lon="11.899266251140432"><ele>211.20000000000002</ele><time>2026-04-18T10:40:06.999Z</time></trkpt><trkpt lat="42.08114226584967" lon="11.89941286387112"><ele>213.60000000000002</ele><time>2026-04-18T10:40:08.999Z</time></trkpt><trkpt lat="42.08120852656948" lon="11.899510229054538"><ele>216.0</ele><time>2026-04-18T10:40:10.999Z</time></trkpt><trkpt lat="42.08130495156613" lon="11.899585929250428"><ele>216.42857142857142</ele><time>2026-04-18T10:40:12.999Z</time></trkpt><trkpt lat="42.08136784067019" lon="11.899623580942173"><ele>216.85714285714283</ele><time>2026-04-18T10:40:13.999Z</time></trkpt><trkpt lat="42.08143750206683" lon="11.899667648914402"><ele>217.28571428571428</ele><time>2026-04-18T10:40:14.999Z</time></trkpt><trkpt lat="42.08150388550881" lon="11.899702931049095"><ele>217.71428571428572</ele><time>2026-04-18T10:40:15.999Z</time></trkpt><trkpt lat="42.08157039773317" lon="11.899734412947943"><ele>218.14285714285714</ele><time>2026-04-18T10:40:16.999Z</time></trkpt><trkpt lat="42.081644659496774" lon="11.899767616483647"><ele>218.57142857142858</ele><time>2026-04-18T10:40:17.999Z</time></trkpt><trkpt lat="42.08171388669889" lon="11.899802323402795"><ele>219.0</ele><time>2026-04-18T10:40:18.999Z</time></trkpt><trkpt lat="42.08179637596693" lon="11.899880494541554"><ele>220.83333333333334</ele><time>2026-04-18T10:40:20.999Z</time></trkpt><trkpt lat="42.08179552815789" lon="11.900019843916805"><ele>222.66666666666669</ele><time>2026-04-18T10:40:22.999Z</time></trkpt><trkpt lat="42.08174633617258" lon="11.900083003308259"><ele>224.5</ele><time>2026-04-18T10:40:23.999Z</time></trkpt><trkpt lat="42.08172410193701" lon="11.900182885436141"><ele>226.33333333333334</ele><time>2026-04-18T10:40:24.999Z</time></trkpt><trkpt lat="42.08170230760248" lon="11.900282659133731"><ele>228.16666666666669</ele><time>2026-04-18T10:40:26Z</time></trkpt><trkpt lat="42.08168414992722" lon="11.900396110813265"><ele>230.0</ele><time>2026-04-18T10:40:27Z</time></trkpt><trkpt lat="42.081685417559015" lon="11.900490464035622"><ele>231.00000000000003</ele><time>2026-04-18T10:40:28Z</time></trkpt><trkpt lat="42.0816991874703" lon="11.900664020510728"><ele>232.0</ele><time>2026-04-18T10:40:30Z</time></trkpt><trkpt lat="42.081682148926426" lon="11.900754243086086"><ele>233.0</ele><time>2026-04-18T10:40:31Z</time></trkpt><trkpt lat="42.08168077535089" lon="11.90086509070401"><ele>234.0</ele><time>2026-04-18T10:40:32Z</time></trkpt><trkpt lat="42.08168077367039" lon="11.900971322412481"><ele>235.00000000000003</ele><time>2026-04-18T10:40:33Z</time></trkpt><trkpt lat="42.08168242552515" lon="11.901077646726595"><ele>236.0</ele><time>2026-04-18T10:40:34Z</time></trkpt><trkpt lat="42.08168552839419" lon="11.901181786933634"><ele>236.14285714285714</ele><time>2026-04-18T10:40:35Z</time></trkpt><trkpt lat="42.081695999718335" lon="11.90127739013141"><ele>236.28571428571428</ele><time>2026-04-18T10:40:36Z</time></trkpt><trkpt lat="42.08170247145384" lon="11.90137388096486"><ele>236.42857142857142</ele><time>2026-04-18T10:40:37Z</time></trkpt><trkpt lat="42.08173027788288" lon="11.901458748115989"><ele>236.57142857142856</ele><time>2026-04-18T10:40:38Z</time></trkpt><trkpt lat="42.08176677269341" lon="11.901546268979098"><ele>236.71428571428572</ele><time>2026-04-18T10:40:39Z</time></trkpt><trkpt lat="42.08180873886657" lon="11.901626656509452"><ele>236.85714285714283</ele><time>2026-04-18T10:40:40Z</time></trkpt><trkpt lat="42.08185418889191" lon="11.9016970012576"><ele>236.99999999999997</ele><time>2026-04-18T10:40:41Z</time></trkpt><trkpt lat="42.08191371252504" lon="11.901768838326177"><ele>236.33333333333334</ele><time>2026-04-18T10:40:42Z</time></trkpt><trkpt lat="42.08197953277567" lon="11.901825508040945"><ele>235.66666666666669</ele><time>2026-04-18T10:40:43Z</time></trkpt><trkpt lat="42.08204676789264" lon="11.90186581421051"><ele>235.0</ele><time>2026-04-18T10:40:44Z</time></trkpt><trkpt lat="42.082106372388246" lon="11.9019438347472"><ele>234.33333333333334</ele><time>2026-04-18T10:40:45Z</time></trkpt><trkpt lat="42.08216838582415" lon="11.90200211995416"><ele>233.66666666666669</ele><time>2026-04-18T10:40:46Z</time></trkpt><trkpt lat="42.08224870533318" lon="11.902023664465549"><ele>233.0</ele><time>2026-04-18T10:40:47Z</time></trkpt><trkpt lat="42.08231766914442" lon="11.902096732523036"><ele>233.00000000000003</ele><time>2026-04-18T10:40:48Z</time></trkpt><trkpt lat="42.08237395061136" lon="11.902159426435848"><ele>233.0</ele><time>2026-04-18T10:40:49Z</time></trkpt><trkpt lat="42.08243730852443" lon="11.90223788918002"><ele>233.0</ele><time>2026-04-18T10:40:50Z</time></trkpt><trkpt lat="42.08249781553679" lon="11.902308636756144"><ele>233.0</ele><time>2026-04-18T10:40:51Z</time></trkpt><trkpt lat="42.0825437530307" lon="11.90239178743152"><ele>233.00000000000003</ele><time>2026-04-18T10:40:52Z</time></trkpt><trkpt lat="42.08258422371499" lon="11.902483815603773"><ele>233.0</ele><time>2026-04-18T10:40:53Z</time></trkpt><trkpt lat="42.08261412673942" lon="11.902574799409638"><ele>235.50000000000003</ele><time>2026-04-18T10:40:54Z</time></trkpt><trkpt lat="42.08263540182122" lon="11.902657886452959"><ele>238.0</ele><time>2026-04-18T10:40:55Z</time></trkpt><trkpt lat="42.08265668702661" lon="11.90274252828546"><ele>240.5</ele><time>2026-04-18T10:40:56Z</time></trkpt><trkpt lat="42.0827233910556" lon="11.902899562337733"><ele>243.0</ele><time>2026-04-18T10:40:58Z</time></trkpt><trkpt lat="42.08278094480685" lon="11.902953593275733"><ele>245.50000000000003</ele><time>2026-04-18T10:40:59Z</time></trkpt><trkpt lat="42.08288682735115" lon="11.902987301691818"><ele>248.0</ele><time>2026-04-18T10:41:01Z</time></trkpt><trkpt lat="42.08298874984001" lon="11.902962455669167"><ele>248.0</ele><time>2026-04-18T10:41:03Z</time></trkpt><trkpt lat="42.08306539036278" lon="11.902819296826268"><ele>248.0</ele><time>2026-04-18T10:41:05Z</time></trkpt><trkpt lat="42.08308231803744" lon="11.90272171056734"><ele>248.0</ele><time>2026-04-18T10:41:06Z</time></trkpt><trkpt lat="42.08312618204663" lon="11.902568068693444"><ele>248.0</ele><time>2026-04-18T10:41:08Z</time></trkpt><trkpt lat="42.08315490763176" lon="11.902461216701818"><ele>248.0</ele><time>2026-04-18T10:41:09Z</time></trkpt><trkpt lat="42.083177411779104" lon="11.902361922673114"><ele>248.66666666666669</ele><time>2026-04-18T10:41:10Z</time></trkpt><trkpt lat="42.0831886573084" lon="11.902268707836473"><ele>249.33333333333334</ele><time>2026-04-18T10:41:11Z</time></trkpt><trkpt lat="42.08319973690148" lon="11.902147716007308"><ele>250.0</ele><time>2026-04-18T10:41:12Z</time></trkpt><trkpt lat="42.08321019574658" lon="11.902022012210567"><ele>250.66666666666669</ele><time>2026-04-18T10:41:13.001Z</time></trkpt><trkpt lat="42.08323169099669" lon="11.901908107070591"><ele>251.33333333333334</ele><time>2026-04-18T10:41:14.001Z</time></trkpt><trkpt lat="42.08324589380112" lon="11.901795110388504"><ele>252.0</ele><time>2026-04-18T10:41:15.001Z</time></trkpt><trkpt lat="42.08325393908927" lon="11.901699267903496"><ele>255.5</ele><time>2026-04-18T10:41:16.001Z</time></trkpt><trkpt lat="42.08327112152579" lon="11.90160312892411"><ele>259.0</ele><time>2026-04-18T10:41:17.001Z</time></trkpt><trkpt lat="42.08330703287894" lon="11.901505859169527"><ele>262.5</ele><time>2026-04-18T10:41:18.001Z</time></trkpt><trkpt lat="42.08335670842977" lon="11.901398450757833"><ele>266.0</ele><time>2026-04-18T10:41:19.001Z</time></trkpt><trkpt lat="42.08339799762568" lon="11.901289217478531"><ele>269.5</ele><time>2026-04-18T10:41:20.001Z</time></trkpt><trkpt lat="42.083431445501034" lon="11.901203098201167"><ele>273.0</ele><time>2026-04-18T10:41:21.001Z</time></trkpt><trkpt lat="42.08347822834095" lon="11.901119616305863"><ele>273.0</ele><time>2026-04-18T10:41:22.001Z</time></trkpt><trkpt lat="42.08353948246264" lon="11.901033965195637"><ele>273.0</ele><time>2026-04-18T10:41:23.001Z</time></trkpt><trkpt lat="42.08360242606684" lon="11.900971637923552"><ele>273.0</ele><time>2026-04-18T10:41:24.001Z</time></trkpt><trkpt lat="42.08366498381622" lon="11.900943835018317"><ele>273.0</ele><time>2026-04-18T10:41:25.001Z</time></trkpt><trkpt lat="42.08375226578742" lon="11.900890156607858"><ele>273.0</ele><time>2026-04-18T10:41:26.001Z</time></trkpt><trkpt lat="42.08382010596726" lon="11.900849203969562"><ele>273.0</ele><time>2026-04-18T10:41:27.001Z</time></trkpt><trkpt lat="42.08390358375051" lon="11.900805420936546"><ele>272.42857142857144</ele><time>2026-04-18T10:41:28.001Z</time></trkpt><trkpt lat="42.08397058296342" lon="11.900762989389223"><ele>271.8571428571429</ele><time>2026-04-18T10:41:29.001Z</time></trkpt><trkpt lat="42.08403211011583" lon="11.900707837870527"><ele>271.2857142857143</ele><time>2026-04-18T10:41:30.001Z</time></trkpt><trkpt lat="42.084100320005774" lon="11.900668074171115"><ele>270.7142857142857</ele><time>2026-04-18T10:41:31.001Z</time></trkpt><trkpt lat="42.08417970849253" lon="11.90066240238404"><ele>270.14285714285717</ele><time>2026-04-18T10:41:32.001Z</time></trkpt><trkpt lat="42.084241720820266" lon="11.900693199415342"><ele>269.57142857142856</ele><time>2026-04-18T10:41:33.001Z</time></trkpt><trkpt lat="42.08429751201249" lon="11.900746243792977"><ele>269.0</ele><time>2026-04-18T10:41:34.001Z</time></trkpt><trkpt lat="42.08434897479084" lon="11.900813203687097"><ele>271.0</ele><time>2026-04-18T10:41:35.001Z</time></trkpt><trkpt lat="42.08438924728933" lon="11.900899211598519"><ele>273.0</ele><time>2026-04-18T10:41:36.001Z</time></trkpt><trkpt lat="42.08441613332799" lon="11.900995656907435"><ele>275.0</ele><time>2026-04-18T10:41:37.001Z</time></trkpt><trkpt lat="42.08443485592294" lon="11.901097181623046"><ele>277.0</ele><time>2026-04-18T10:41:38.001Z</time></trkpt><trkpt lat="42.08446223543677" lon="11.901221731003444"><ele>279.0</ele><time>2026-04-18T10:41:39.001Z</time></trkpt><trkpt lat="42.08450313602521" lon="11.90132416294669"><ele>281.0</ele><time>2026-04-18T10:41:40.001Z</time></trkpt><trkpt lat="42.084550368433554" lon="11.901402814440951"><ele>282.83333333333337</ele><time>2026-04-18T10:41:41.001Z</time></trkpt><trkpt lat="42.08461295110468" lon="11.901458244659215"><ele>284.6666666666667</ele><time>2026-04-18T10:41:42.001Z</time></trkpt><trkpt lat="42.08468013532869" lon="11.901503472292838"><ele>286.5</ele><time>2026-04-18T10:41:43.001Z</time></trkpt><trkpt lat="42.084755935525486" lon="11.901531110316453"><ele>288.3333333333333</ele><time>2026-04-18T10:41:44.001Z</time></trkpt><trkpt lat="42.08484366444888" lon="11.901538108442715"><ele>290.16666666666663</ele><time>2026-04-18T10:41:45.001Z</time></trkpt><trkpt lat="42.084932805329096" lon="11.901539455455076"><ele>292.0</ele><time>2026-04-18T10:41:46.001Z</time></trkpt><trkpt lat="42.085003606729444" lon="11.901528750476913"><ele>292.66666666666663</ele><time>2026-04-18T10:41:47.001Z</time></trkpt><trkpt lat="42.08506861032599" lon="11.901507763616731"><ele>293.3333333333333</ele><time>2026-04-18T10:41:48.001Z</time></trkpt><trkpt lat="42.085136296427045" lon="11.901487136102197"><ele>294.0</ele><time>2026-04-18T10:41:49.001Z</time></trkpt><trkpt lat="42.08519725851678" lon="11.901458165727275"><ele>294.6666666666667</ele><time>2026-04-18T10:41:50.001Z</time></trkpt><trkpt lat="42.08526611450715" lon="11.901427583765258"><ele>295.33333333333337</ele><time>2026-04-18T10:41:51.001Z</time></trkpt><trkpt lat="42.0853488115036" lon="11.901404894983672"><ele>296.0</ele><time>2026-04-18T10:41:52.001Z</time></trkpt><trkpt lat="42.08544301764741" lon="11.90135666212244"><ele>296.0</ele><time>2026-04-18T10:41:53.001Z</time></trkpt><trkpt lat="42.08554055046228" lon="11.901319530346118"><ele>296.0</ele><time>2026-04-18T10:41:54.001Z</time></trkpt><trkpt lat="42.085629291154035" lon="11.901284872024776"><ele>296.0</ele><time>2026-04-18T10:41:55.001Z</time></trkpt><trkpt lat="42.085729034872834" lon="11.901240073976565"><ele>296.0</ele><time>2026-04-18T10:41:56.001Z</time></trkpt><trkpt lat="42.08582982983392" lon="11.901196505239156"><ele>296.0</ele><time>2026-04-18T10:41:57.001Z</time></trkpt><trkpt lat="42.08590870557144" lon="11.901164893174657"><ele>297.0</ele><time>2026-04-18T10:41:58.001Z</time></trkpt><trkpt lat="42.08597803546087" lon="11.901195180805642"><ele>298.0</ele><time>2026-04-18T10:41:59.001Z</time></trkpt><trkpt lat="42.08605406602451" lon="11.901213670812197"><ele>299.0</ele><time>2026-04-18T10:42:00.001Z</time></trkpt><trkpt lat="42.08612203980849" lon="11.901255629841648"><ele>300.0</ele><time>2026-04-18T10:42:01.001Z</time></trkpt><trkpt lat="42.086195901063775" lon="11.901308208204744"><ele>301.0</ele><time>2026-04-18T10:42:01.999Z</time></trkpt><trkpt lat="42.08625553518246" lon="11.90136865827465"><ele>302.0</ele><time>2026-04-18T10:42:02.999Z</time></trkpt><trkpt lat="42.08634860025508" lon="11.901462734766277"><ele>302.0</ele><time>2026-04-18T10:42:04.999Z</time></trkpt><trkpt lat="42.086430973180555" lon="11.901552048959896"><ele>302.0</ele><time>2026-04-18T10:42:06.999Z</time></trkpt><trkpt lat="42.08650098090332" lon="11.901630018644743"><ele>302.0</ele><time>2026-04-18T10:42:08.999Z</time></trkpt><trkpt lat="42.086563423409615" lon="11.90170520085223"><ele>302.0</ele><time>2026-04-18T10:42:10.999Z</time></trkpt><trkpt lat="42.08662101467491" lon="11.901772083669371"><ele>302.0</ele><time>2026-04-18T10:42:12.999Z</time></trkpt><trkpt lat="42.08668663948223" lon="11.901843119099247"><ele>302.0</ele><time>2026-04-18T10:42:14.999Z</time></trkpt><trkpt lat="42.08674630467933" lon="11.901896457159067"><ele>301.6</ele><time>2026-04-18T10:42:15.999Z</time></trkpt><trkpt lat="42.086811605269375" lon="11.901947255364949"><ele>301.2</ele><time>2026-04-18T10:42:16.999Z</time></trkpt><trkpt lat="42.086890379765904" lon="11.901986711306924"><ele>300.8</ele><time>2026-04-18T10:42:17.999Z</time></trkpt><trkpt lat="42.086959504926064" lon="11.902015177015448"><ele>300.4</ele><time>2026-04-18T10:42:18.999Z</time></trkpt><trkpt lat="42.087072541681316" lon="11.90202062486912"><ele>300.0</ele><time>2026-04-18T10:42:20.999Z</time></trkpt><trkpt lat="42.087185029471044" lon="11.902042025787647"><ele>300.0</ele><time>2026-04-18T10:42:22.999Z</time></trkpt><trkpt lat="42.08727336982767" lon="11.902027096264412"><ele>300.0</ele><time>2026-04-18T10:42:23.999Z</time></trkpt><trkpt lat="42.0873914107291" lon="11.902019360640631"><ele>300.0</ele><time>2026-04-18T10:42:25Z</time></trkpt><trkpt lat="42.087496941597955" lon="11.902034596588802"><ele>300.0</ele><time>2026-04-18T10:42:26Z</time></trkpt><trkpt lat="42.087581402637895" lon="11.90204035947236"><ele>300.0</ele><time>2026-04-18T10:42:27Z</time></trkpt><trkpt lat="42.08769702272277" lon="11.902081424350023"><ele>300.8</ele><time>2026-04-18T10:42:29Z</time></trkpt><trkpt lat="42.08776284311791" lon="11.902123920644453"><ele>301.6</ele><time>2026-04-18T10:42:30Z</time></trkpt><trkpt lat="42.087827742933676" lon="11.90217962856345"><ele>302.4</ele><time>2026-04-18T10:42:31Z</time></trkpt><trkpt lat="42.08790586304668" lon="11.902252776390625"><ele>303.2</ele><time>2026-04-18T10:42:32Z</time></trkpt><trkpt lat="42.087994663407386" lon="11.902344507878658"><ele>304.0</ele><time>2026-04-18T10:42:33Z</time></trkpt><trkpt lat="42.08807842121478" lon="11.902427652161913"><ele>304.0</ele><time>2026-04-18T10:42:34Z</time></trkpt><trkpt lat="42.08817558332547" lon="11.902498920556658"><ele>304.0</ele><time>2026-04-18T10:42:35Z</time></trkpt><trkpt lat="42.088263883176865" lon="11.902593032909877"><ele>304.0</ele><time>2026-04-18T10:42:36Z</time></trkpt><trkpt lat="42.08836407682016" lon="11.902682286570803"><ele>304.0</ele><time>2026-04-18T10:42:37Z</time></trkpt><trkpt lat="42.08846361766131" lon="11.902764061210632"><ele>304.2</ele><time>2026-04-18T10:42:38Z</time></trkpt><trkpt lat="42.0885538151944" lon="11.902836840662387"><ele>304.4</ele><time>2026-04-18T10:42:39Z</time></trkpt><trkpt lat="42.088621579990054" lon="11.90291829158523"><ele>304.6</ele><time>2026-04-18T10:42:40Z</time></trkpt><trkpt lat="42.088713761631865" lon="11.902969642677489"><ele>304.8</ele><time>2026-04-18T10:42:41Z</time></trkpt><trkpt lat="42.088801690466056" lon="11.903058799753751"><ele>305.0</ele><time>2026-04-18T10:42:42Z</time></trkpt><trkpt lat="42.0889042397389" lon="11.903135253458677"><ele>305.0</ele><time>2026-04-18T10:42:43Z</time></trkpt><trkpt lat="42.089012557590344" lon="11.903181411500096"><ele>305.0</ele><time>2026-04-18T10:42:44Z</time></trkpt><trkpt lat="42.08913872179797" lon="11.90321975140668"><ele>305.0</ele><time>2026-04-18T10:42:45Z</time></trkpt><trkpt lat="42.0892399235246" lon="11.903246145977748"><ele>305.0</ele><time>2026-04-18T10:42:46Z</time></trkpt><trkpt lat="42.08932916113535" lon="11.903263586675983"><ele>305.0</ele><time>2026-04-18T10:42:47Z</time></trkpt><trkpt lat="42.08942480516206" lon="11.903254677969397"><ele>306.8</ele><time>2026-04-18T10:42:48Z</time></trkpt><trkpt lat="42.08952637570286" lon="11.903223210619219"><ele>308.6</ele><time>2026-04-18T10:42:49Z</time></trkpt><trkpt lat="42.08962893299899" lon="11.903177645612132"><ele>310.4</ele><time>2026-04-18T10:42:50Z</time></trkpt><trkpt lat="42.08971391175485" lon="11.90312561725804"><ele>312.2</ele><time>2026-04-18T10:42:51Z</time></trkpt><trkpt lat="42.089794822863084" lon="11.903100579219798"><ele>314.0</ele><time>2026-04-18T10:42:52Z</time></trkpt><trkpt lat="42.08988244137924" lon="11.903068222217444"><ele>313.6666666666667</ele><time>2026-04-18T10:42:53Z</time></trkpt><trkpt lat="42.089972192915404" lon="11.903044143582752"><ele>313.33333333333337</ele><time>2026-04-18T10:42:54Z</time></trkpt><trkpt lat="42.09004489508568" lon="11.90306883464965"><ele>313.0</ele><time>2026-04-18T10:42:55Z</time></trkpt><trkpt lat="42.09011423733326" lon="11.903082031392188"><ele>312.6666666666667</ele><time>2026-04-18T10:42:56Z</time></trkpt><trkpt lat="42.09019484686053" lon="11.903107302586525"><ele>312.3333333333333</ele><time>2026-04-18T10:42:57Z</time></trkpt><trkpt lat="42.09031866650002" lon="11.903145811009562"><ele>312.0</ele><time>2026-04-18T10:42:58Z</time></trkpt><trkpt lat="42.09045914282505" lon="11.903196047516806"><ele>312.0</ele><time>2026-04-18T10:42:59Z</time></trkpt><trkpt lat="42.09058210414661" lon="11.903238981334635"><ele>312.0</ele><time>2026-04-18T10:43:00Z</time></trkpt><trkpt lat="42.09071826460773" lon="11.903276197675364"><ele>312.0</ele><time>2026-04-18T10:43:01Z</time></trkpt><trkpt lat="42.09088157990671" lon="11.903353235385776"><ele>312.0</ele><time>2026-04-18T10:43:02Z</time></trkpt><trkpt lat="42.091031067274265" lon="11.9034015619161"><ele>310.4</ele><time>2026-04-18T10:43:03Z</time></trkpt><trkpt lat="42.09114722996093" lon="11.903448266029995"><ele>308.79999999999995</ele><time>2026-04-18T10:43:04.001Z</time></trkpt><trkpt lat="42.09123462376638" lon="11.903519182794517"><ele>307.2</ele><time>2026-04-18T10:43:05.001Z</time></trkpt><trkpt lat="42.09131880921749" lon="11.903609690871669"><ele>305.59999999999997</ele><time>2026-04-18T10:43:06.001Z</time></trkpt><trkpt lat="42.09139321831947" lon="11.903729668216794"><ele>304.0</ele><time>2026-04-18T10:43:07.001Z</time></trkpt><trkpt lat="42.09147178531147" lon="11.903843506127844"><ele>304.0</ele><time>2026-04-18T10:43:08.001Z</time></trkpt><trkpt lat="42.09152950040177" lon="11.903930672215326"><ele>304.0</ele><time>2026-04-18T10:43:09.001Z</time></trkpt><trkpt lat="42.09158825139142" lon="11.904012458688356"><ele>304.0</ele><time>2026-04-18T10:43:10.001Z</time></trkpt><trkpt lat="42.091677756302026" lon="11.904114402437875"><ele>304.0</ele><time>2026-04-18T10:43:11.001Z</time></trkpt><trkpt lat="42.09177047913385" lon="11.904220849366835"><ele>304.0</ele><time>2026-04-18T10:43:12.001Z</time></trkpt><trkpt lat="42.091836152377034" lon="11.904310672697283"><ele>303.8</ele><time>2026-04-18T10:43:13.001Z</time></trkpt><trkpt lat="42.09187971907345" lon="11.904375780956656"><ele>303.59999999999997</ele><time>2026-04-18T10:43:14.001Z</time></trkpt><trkpt lat="42.091930164942674" lon="11.904452276053856"><ele>303.4</ele><time>2026-04-18T10:43:15.001Z</time></trkpt><trkpt lat="42.09200145712662" lon="11.90454796638687"><ele>303.2</ele><time>2026-04-18T10:43:16.001Z</time></trkpt><trkpt lat="42.092090666826216" lon="11.904663115901927"><ele>303.0</ele><time>2026-04-18T10:43:17.001Z</time></trkpt><trkpt lat="42.09216382897185" lon="11.904757001486665"><ele>303.0</ele><time>2026-04-18T10:43:18.001Z</time></trkpt><trkpt lat="42.09222546417337" lon="11.904838483817867"><ele>303.0</ele><time>2026-04-18T10:43:19.001Z</time></trkpt><trkpt lat="42.09228595892221" lon="11.904903964922966"><ele>303.0</ele><time>2026-04-18T10:43:20.001Z</time></trkpt><trkpt lat="42.09233810322585" lon="11.904965670398399"><ele>303.0</ele><time>2026-04-18T10:43:21.001Z</time></trkpt><trkpt lat="42.092372471610744" lon="11.90503895275634"><ele>303.0</ele><time>2026-04-18T10:43:22.001Z</time></trkpt><trkpt lat="42.092417211199155" lon="11.905099134194431"><ele>303.0</ele><time>2026-04-18T10:43:23.001Z</time></trkpt><trkpt lat="42.092475419472756" lon="11.90516051167517"><ele>303.0</ele><time>2026-04-18T10:43:24.001Z</time></trkpt><trkpt lat="42.09255659998767" lon="11.905199739226234"><ele>303.5</ele><time>2026-04-18T10:43:25.001Z</time></trkpt><trkpt lat="42.09264955985731" lon="11.90526491541213"><ele>304.0</ele><time>2026-04-18T10:43:26.001Z</time></trkpt><trkpt lat="42.092773673919126" lon="11.905318254960811"><ele>304.5</ele><time>2026-04-18T10:43:27.001Z</time></trkpt><trkpt lat="42.0929130006495" lon="11.905359657852722"><ele>305.0</ele><time>2026-04-18T10:43:28.001Z</time></trkpt><trkpt lat="42.09304155913251" lon="11.90539288615009"><ele>305.0</ele><time>2026-04-18T10:43:29.001Z</time></trkpt><trkpt lat="42.093162809145646" lon="11.90545402568465"><ele>305.0</ele><time>2026-04-18T10:43:30.001Z</time></trkpt><trkpt lat="42.093283277314946" lon="11.90550129797379"><ele>305.0</ele><time>2026-04-18T10:43:31.001Z</time></trkpt><trkpt lat="42.09341192080693" lon="11.905550924599726"><ele>305.0</ele><time>2026-04-18T10:43:32.001Z</time></trkpt><trkpt lat="42.09354213425665" lon="11.905630094330514"><ele>305.6</ele><time>2026-04-18T10:43:33.001Z</time></trkpt><trkpt lat="42.093659089255155" lon="11.905688801181235"><ele>306.2</ele><time>2026-04-18T10:43:34.001Z</time></trkpt><trkpt lat="42.09376800629699" lon="11.905726387394918"><ele>306.8</ele><time>2026-04-18T10:43:35.001Z</time></trkpt><trkpt lat="42.093872413649926" lon="11.905746135223861"><ele>307.4</ele><time>2026-04-18T10:43:36.001Z</time></trkpt><trkpt lat="42.09396763612145" lon="11.905807519139655"><ele>308.0</ele><time>2026-04-18T10:43:37.001Z</time></trkpt><trkpt lat="42.094052451879264" lon="11.905859051052364"><ele>308.6</ele><time>2026-04-18T10:43:38.001Z</time></trkpt><trkpt lat="42.094132578303295" lon="11.905915380459103"><ele>309.20000000000005</ele><time>2026-04-18T10:43:39.001Z</time></trkpt><trkpt lat="42.09422294996203" lon="11.905984963559403"><ele>309.8</ele><time>2026-04-18T10:43:40.001Z</time></trkpt><trkpt lat="42.09432038056241" lon="11.90606452197163"><ele>310.40000000000003</ele><time>2026-04-18T10:43:41.001Z</time></trkpt><trkpt lat="42.09441235749651" lon="11.906142785863862"><ele>311.0</ele><time>2026-04-18T10:43:42.001Z</time></trkpt><trkpt lat="42.094503707376454" lon="11.906210661723074"><ele>311.0</ele><time>2026-04-18T10:43:43.001Z</time></trkpt><trkpt lat="42.09455904365259" lon="11.906324374665527"><ele>311.0</ele><time>2026-04-18T10:43:44.001Z</time></trkpt><trkpt lat="42.09460105855506" lon="11.90641354804333"><ele>311.0</ele><time>2026-04-18T10:43:45.001Z</time></trkpt><trkpt lat="42.09463216152836" lon="11.906487501323255"><ele>311.0</ele><time>2026-04-18T10:43:46.001Z</time></trkpt><trkpt lat="42.09469283359498" lon="11.906656468005101"><ele>311.0</ele><time>2026-04-18T10:43:48.001Z</time></trkpt><trkpt lat="42.09471410598709" lon="11.90675135392078"><ele>311.0</ele><time>2026-04-18T10:43:49.001Z</time></trkpt><trkpt lat="42.094740177193714" lon="11.906845819779084"><ele>311.0</ele><time>2026-04-18T10:43:50.001Z</time></trkpt><trkpt lat="42.094774811187186" lon="11.906962902233815"><ele>311.0</ele><time>2026-04-18T10:43:51.001Z</time></trkpt><trkpt lat="42.09481392285124" lon="11.90708677578775"><ele>311.0</ele><time>2026-04-18T10:43:52.001Z</time></trkpt><trkpt lat="42.09485698272919" lon="11.907211936953088"><ele>311.0</ele><time>2026-04-18T10:43:53.001Z</time></trkpt><trkpt lat="42.09489165546041" lon="11.907314901736255"><ele>313.6</ele><time>2026-04-18T10:43:54.002Z</time></trkpt><trkpt lat="42.094922057101414" lon="11.907404076550689"><ele>316.20000000000005</ele><time>2026-04-18T10:43:55.002Z</time></trkpt><trkpt lat="42.09499346608389" lon="11.907528858832343"><ele>318.79999999999995</ele><time>2026-04-18T10:43:57.002Z</time></trkpt><trkpt lat="42.095073938623514" lon="11.907654141423919"><ele>321.4</ele><time>2026-04-18T10:43:59.002Z</time></trkpt><trkpt lat="42.09511637796279" lon="11.907719250645593"><ele>324.0</ele><time>2026-04-18T10:44:00.002Z</time></trkpt><trkpt lat="42.09517706601896" lon="11.907800511782742"><ele>324.0</ele><time>2026-04-18T10:44:01.002Z</time></trkpt><trkpt lat="42.09523624787605" lon="11.907855561186743"><ele>324.0</ele><time>2026-04-18T10:44:02.002Z</time></trkpt><trkpt lat="42.095312229489515" lon="11.90791813935624"><ele>324.0</ele><time>2026-04-18T10:44:03.002Z</time></trkpt><trkpt lat="42.09538042947501" lon="11.907989992987044"><ele>324.0</ele><time>2026-04-18T10:44:04.002Z</time></trkpt><trkpt lat="42.09544461321911" lon="11.90806286046133"><ele>324.0</ele><time>2026-04-18T10:44:05.002Z</time></trkpt><trkpt lat="42.095504586960935" lon="11.9081413964507"><ele>324.0</ele><time>2026-04-18T10:44:06.002Z</time></trkpt><trkpt lat="42.09555898588396" lon="11.908216228425776"><ele>324.0</ele><time>2026-04-18T10:44:07.002Z</time></trkpt><trkpt lat="42.09561337180085" lon="11.90829008385655"><ele>324.0</ele><time>2026-04-18T10:44:07.999Z</time></trkpt><trkpt lat="42.0956625848576" lon="11.90835592485248"><ele>324.0</ele><time>2026-04-18T10:44:08.999Z</time></trkpt><trkpt lat="42.09575974974783" lon="11.908472019893726"><ele>324.0</ele><time>2026-04-18T10:44:10.999Z</time></trkpt><trkpt lat="42.09582094157277" lon="11.90851457414761"><ele>324.0</ele><time>2026-04-18T10:44:11.999Z</time></trkpt><trkpt lat="42.09586405890491" lon="11.908607397471313"><ele>324.0</ele><time>2026-04-18T10:44:12.999Z</time></trkpt><trkpt lat="42.095917806220086" lon="11.908685881050543"><ele>326.0</ele><time>2026-04-18T10:44:13.999Z</time></trkpt><trkpt lat="42.09597903427049" lon="11.90878421287655"><ele>328.0</ele><time>2026-04-18T10:44:14.999Z</time></trkpt><trkpt lat="42.09603250114856" lon="11.908874089617484"><ele>330.0</ele><time>2026-04-18T10:44:15.999Z</time></trkpt><trkpt lat="42.096071603683626" lon="11.90894858321971"><ele>332.0</ele><time>2026-04-18T10:44:16.999Z</time></trkpt><trkpt lat="42.09612615240674" lon="11.90901795765276"><ele>334.0</ele><time>2026-04-18T10:44:17.999Z</time></trkpt><trkpt lat="42.096163266680875" lon="11.909111091026617"><ele>336.0</ele><time>2026-04-18T10:44:18.999Z</time></trkpt><trkpt lat="42.09620762008685" lon="11.909202543146291"><ele>335.8333333333333</ele><time>2026-04-18T10:44:19.999Z</time></trkpt><trkpt lat="42.09625429828419" lon="11.909298444248918"><ele>335.6666666666667</ele><time>2026-04-18T10:44:20.999Z</time></trkpt><trkpt lat="42.09630898964919" lon="11.909383037859628"><ele>335.5</ele><time>2026-04-18T10:44:21.999Z</time></trkpt><trkpt lat="42.09636089811" lon="11.909489555975021"><ele>335.33333333333337</ele><time>2026-04-18T10:44:22.999Z</time></trkpt><trkpt lat="42.096409730507375" lon="11.909577223573105"><ele>335.1666666666667</ele><time>2026-04-18T10:44:23.999Z</time></trkpt><trkpt lat="42.09646808981961" lon="11.909682604763955"><ele>335.0</ele><time>2026-04-18T10:44:24.999Z</time></trkpt><trkpt lat="42.09653853954792" lon="11.909778333859068"><ele>335.0</ele><time>2026-04-18T10:44:25.999Z</time></trkpt><trkpt lat="42.09658167974429" lon="11.90988197683873"><ele>335.0</ele><time>2026-04-18T10:44:27Z</time></trkpt><trkpt lat="42.09662364814373" lon="11.909992852384237"><ele>335.0</ele><time>2026-04-18T10:44:28Z</time></trkpt><trkpt lat="42.096662442652836" lon="11.910107743833859"><ele>335.0</ele><time>2026-04-18T10:44:29Z</time></trkpt><trkpt lat="42.09668174341372" lon="11.910213598602374"><ele>335.0</ele><time>2026-04-18T10:44:30Z</time></trkpt><trkpt lat="42.09670620712638" lon="11.91031068857819"><ele>335.0</ele><time>2026-04-18T10:44:31Z</time></trkpt><trkpt lat="42.09672804015148" lon="11.910415197491798"><ele>337.0</ele><time>2026-04-18T10:44:32Z</time></trkpt><trkpt lat="42.09677955619972" lon="11.91051185610062"><ele>339.0</ele><time>2026-04-18T10:44:33Z</time></trkpt><trkpt lat="42.09680241497974" lon="11.910617009292999"><ele>341.0</ele><time>2026-04-18T10:44:34Z</time></trkpt><trkpt lat="42.09682258811947" lon="11.910730115756014"><ele>343.0</ele><time>2026-04-18T10:44:35Z</time></trkpt><trkpt lat="42.09682458469856" lon="11.910835590293958"><ele>345.0</ele><time>2026-04-18T10:44:36Z</time></trkpt><trkpt lat="42.09683463656769" lon="11.910958298256324"><ele>347.0</ele><time>2026-04-18T10:44:37Z</time></trkpt><trkpt lat="42.09685368574094" lon="11.911066230198397"><ele>349.0</ele><time>2026-04-18T10:44:38Z</time></trkpt><trkpt lat="42.09687334454612" lon="11.911179490995478"><ele>351.0</ele><time>2026-04-18T10:44:39Z</time></trkpt><trkpt lat="42.0968955142363" lon="11.911296074687355"><ele>353.0</ele><time>2026-04-18T10:44:40Z</time></trkpt><trkpt lat="42.09690018881628" lon="11.91141326825444"><ele>355.0</ele><time>2026-04-18T10:44:41Z</time></trkpt><trkpt lat="42.0969509031165" lon="11.911489787098285"><ele>357.0</ele><time>2026-04-18T10:44:42Z</time></trkpt><trkpt lat="42.09701907906022" lon="11.911557701638506"><ele>359.0</ele><time>2026-04-18T10:44:43Z</time></trkpt><trkpt lat="42.0970773681601" lon="11.911631048066806"><ele>359.0</ele><time>2026-04-18T10:44:44Z</time></trkpt><trkpt lat="42.09714806578874" lon="11.9117036756836"><ele>359.0</ele><time>2026-04-18T10:44:45Z</time></trkpt><trkpt lat="42.097189897943075" lon="11.911793195914305"><ele>359.0</ele><time>2026-04-18T10:44:46Z</time></trkpt><trkpt lat="42.09722071762808" lon="11.911906390321578"><ele>359.0</ele><time>2026-04-18T10:44:47Z</time></trkpt><trkpt lat="42.09723458830976" lon="11.91201771723984"><ele>359.0</ele><time>2026-04-18T10:44:48Z</time></trkpt><trkpt lat="42.097233644118795" lon="11.912120489412155"><ele>359.0</ele><time>2026-04-18T10:44:49Z</time></trkpt><trkpt lat="42.097236085894345" lon="11.9122400191156"><ele>360.2</ele><time>2026-04-18T10:44:50Z</time></trkpt><trkpt lat="42.09724065744881" lon="11.912334218328557"><ele>361.4</ele><time>2026-04-18T10:44:51Z</time></trkpt><trkpt lat="42.097249375602274" lon="11.912425409450593"><ele>362.6</ele><time>2026-04-18T10:44:53Z</time></trkpt><trkpt lat="42.097285717032946" lon="11.91254387273001"><ele>363.8</ele><time>2026-04-18T10:44:57Z</time></trkpt><trkpt lat="42.097336837739874" lon="11.912667611260186"><ele>365.0</ele><time>2026-04-18T10:44:59Z</time></trkpt><trkpt lat="42.097393154787504" lon="11.912816422915"><ele>364.5</ele><time>2026-04-18T10:45:01Z</time></trkpt><trkpt lat="42.0974343173142" lon="11.912883422016044"><ele>364.0</ele><time>2026-04-18T10:45:02Z</time></trkpt><trkpt lat="42.09748787001131" lon="11.912975116331204"><ele>363.5</ele><time>2026-04-18T10:45:03Z</time></trkpt><trkpt lat="42.09753545165343" lon="11.913081689026985"><ele>363.0</ele><time>2026-04-18T10:45:04.001Z</time></trkpt><trkpt lat="42.097562041883165" lon="11.913168990211298"><ele>362.5</ele><time>2026-04-18T10:45:05.001Z</time></trkpt><trkpt lat="42.097583368266896" lon="11.913256329059791"><ele>362.0</ele><time>2026-04-18T10:45:06.001Z</time></trkpt><trkpt lat="42.09760370341226" lon="11.913356182572212"><ele>362.83333333333337</ele><time>2026-04-18T10:45:07.001Z</time></trkpt><trkpt lat="42.097632208777334" lon="11.913481338006894"><ele>363.6666666666667</ele><time>2026-04-18T10:45:08.001Z</time></trkpt><trkpt lat="42.097652649877226" lon="11.913589923279341"><ele>364.5</ele><time>2026-04-18T10:45:09.001Z</time></trkpt><trkpt lat="42.09767729420945" lon="11.913684803776947"><ele>365.3333333333333</ele><time>2026-04-18T10:45:10.001Z</time></trkpt><trkpt lat="42.097697521122505" lon="11.913767941938108"><ele>366.16666666666663</ele><time>2026-04-18T10:45:11.001Z</time></trkpt><trkpt lat="42.09774696378217" lon="11.913905847015391"><ele>367.0</ele><time>2026-04-18T10:45:13.001Z</time></trkpt><trkpt lat="42.097784103288156" lon="11.914031700318475"><ele>367.0</ele><time>2026-04-18T10:45:15.001Z</time></trkpt><trkpt lat="42.09783353529915" lon="11.914170163280659"><ele>367.0</ele><time>2026-04-18T10:45:17.001Z</time></trkpt><trkpt lat="42.09789984387639" lon="11.914295395785059"><ele>367.0</ele><time>2026-04-18T10:45:19.001Z</time></trkpt><trkpt lat="42.097943495132625" lon="11.914378872356815"><ele>367.0</ele><time>2026-04-18T10:45:20.001Z</time></trkpt><trkpt lat="42.09798524440972" lon="11.914443294759668"><ele>367.0</ele><time>2026-04-18T10:45:21.001Z</time></trkpt><trkpt lat="42.09808169104108" lon="11.914538337895646"><ele>367.20000000000005</ele><time>2026-04-18T10:45:23.001Z</time></trkpt><trkpt lat="42.09817487507588" lon="11.914641507599667"><ele>367.4</ele><time>2026-04-18T10:45:25.001Z</time></trkpt><trkpt lat="42.09822928515053" lon="11.914704214065557"><ele>367.6</ele><time>2026-04-18T10:45:26.001Z</time></trkpt><trkpt lat="42.09829740071518" lon="11.914769034227069"><ele>367.79999999999995</ele><time>2026-04-18T10:45:27.001Z</time></trkpt><trkpt lat="42.098367131519566" lon="11.914843212500585"><ele>368.0</ele><time>2026-04-18T10:45:28.001Z</time></trkpt><trkpt lat="42.09840764844695" lon="11.914954965336307"><ele>366.6666666666667</ele><time>2026-04-18T10:45:29.001Z</time></trkpt><trkpt lat="42.098452000631234" lon="11.915050949802875"><ele>365.33333333333337</ele><time>2026-04-18T10:45:30.001Z</time></trkpt><trkpt lat="42.09849069107926" lon="11.915137674096282"><ele>364.0</ele><time>2026-04-18T10:45:31.001Z</time></trkpt><trkpt lat="42.09853810457979" lon="11.915207681640592"><ele>362.6666666666667</ele><time>2026-04-18T10:45:32.001Z</time></trkpt><trkpt lat="42.0986057035326" lon="11.915256261535387"><ele>361.3333333333333</ele><time>2026-04-18T10:45:33.001Z</time></trkpt><trkpt lat="42.09867627834159" lon="11.915332143180294"><ele>360.0</ele><time>2026-04-18T10:45:34.001Z</time></trkpt><trkpt lat="42.098764572715645" lon="11.915389020223696"><ele>359.2</ele><time>2026-04-18T10:45:35.001Z</time></trkpt><trkpt lat="42.09887357948624" lon="11.915418031185158"><ele>358.4</ele><time>2026-04-18T10:45:36.001Z</time></trkpt><trkpt lat="42.09897707686319" lon="11.915444221147107"><ele>357.6</ele><time>2026-04-18T10:45:37.001Z</time></trkpt><trkpt lat="42.099083705643515" lon="11.915475929922648"><ele>356.8</ele><time>2026-04-18T10:45:38.001Z</time></trkpt><trkpt lat="42.09918965151746" lon="11.915500061281987"><ele>356.0</ele><time>2026-04-18T10:45:39.001Z</time></trkpt><trkpt lat="42.09929648094503" lon="11.915519681251475"><ele>355.0</ele><time>2026-04-18T10:45:40.001Z</time></trkpt><trkpt lat="42.09940381323833" lon="11.915538727826391"><ele>354.0</ele><time>2026-04-18T10:45:41.001Z</time></trkpt><trkpt lat="42.09950956743831" lon="11.915560488306976"><ele>353.0</ele><time>2026-04-18T10:45:42.001Z</time></trkpt><trkpt lat="42.099600941516854" lon="11.915577410889531"><ele>352.0</ele><time>2026-04-18T10:45:43.001Z</time></trkpt><trkpt lat="42.09970259277523" lon="11.915596912845038"><ele>351.0</ele><time>2026-04-18T10:45:44.001Z</time></trkpt><trkpt lat="42.09980803612546" lon="11.915611078055434"><ele>351.0</ele><time>2026-04-18T10:45:45.001Z</time></trkpt><trkpt lat="42.09991417779127" lon="11.91562936929332"><ele>351.0</ele><time>2026-04-18T10:45:46.001Z</time></trkpt><trkpt lat="42.10001794309921" lon="11.91569329028135"><ele>351.0</ele><time>2026-04-18T10:45:47.001Z</time></trkpt><trkpt lat="42.100126896110446" lon="11.915751701174193"><ele>351.0</ele><time>2026-04-18T10:45:48.002Z</time></trkpt><trkpt lat="42.10024104784849" lon="11.915807298473192"><ele>351.5</ele><time>2026-04-18T10:45:49.002Z</time></trkpt><trkpt lat="42.100351494843515" lon="11.915883931939828"><ele>352.0</ele><time>2026-04-18T10:45:50.002Z</time></trkpt><trkpt lat="42.10046394820884" lon="11.91596227575496"><ele>352.5</ele><time>2026-04-18T10:45:51.002Z</time></trkpt><trkpt lat="42.10057914240421" lon="11.916038439052507"><ele>353.0</ele><time>2026-04-18T10:45:52.002Z</time></trkpt><trkpt lat="42.1007008134308" lon="11.916106175378117"><ele>351.4</ele><time>2026-04-18T10:45:53.002Z</time></trkpt><trkpt lat="42.100814425032375" lon="11.916156229057997"><ele>349.79999999999995</ele><time>2026-04-18T10:45:54.002Z</time></trkpt><trkpt lat="42.10092430312224" lon="11.916190125628395"><ele>348.2</ele><time>2026-04-18T10:45:55.002Z</time></trkpt><trkpt lat="42.10101947097437" lon="11.916256105374087"><ele>346.6</ele><time>2026-04-18T10:45:56.002Z</time></trkpt><trkpt lat="42.101123060103355" lon="11.916304612562485"><ele>345.0</ele><time>2026-04-18T10:45:57.002Z</time></trkpt><trkpt lat="42.10122266474401" lon="11.916354144000769"><ele>345.0</ele><time>2026-04-18T10:45:58.002Z</time></trkpt><trkpt lat="42.10132222761959" lon="11.916399954920333"><ele>345.0</ele><time>2026-04-18T10:45:59.002Z</time></trkpt><trkpt lat="42.10141541458233" lon="11.916453975266327"><ele>345.0</ele><time>2026-04-18T10:46:00.002Z</time></trkpt><trkpt lat="42.10150711516316" lon="11.916517017610166"><ele>345.0</ele><time>2026-04-18T10:46:01.002Z</time></trkpt><trkpt lat="42.101598581348874" lon="11.916584981198193"><ele>345.0</ele><time>2026-04-18T10:46:02.002Z</time></trkpt><trkpt lat="42.1016897408331" lon="11.916662991738187"><ele>343.6</ele><time>2026-04-18T10:46:03.002Z</time></trkpt><trkpt lat="42.10178109334346" lon="11.916743001453293"><ele>342.2</ele><time>2026-04-18T10:46:04.002Z</time></trkpt><trkpt lat="42.101875207207506" lon="11.91681914497204"><ele>340.79999999999995</ele><time>2026-04-18T10:46:05.002Z</time></trkpt><trkpt lat="42.10196515416974" lon="11.916896532999543"><ele>339.4</ele><time>2026-04-18T10:46:06.002Z</time></trkpt><trkpt lat="42.10205591293737" lon="11.91698028759687"><ele>338.0</ele><time>2026-04-18T10:46:07.002Z</time></trkpt><trkpt lat="42.10213391612328" lon="11.917065288179954"><ele>338.0</ele><time>2026-04-18T10:46:08.002Z</time></trkpt><trkpt lat="42.1021966790459" lon="11.917151128868001"><ele>338.0</ele><time>2026-04-18T10:46:09.002Z</time></trkpt><trkpt lat="42.102257838100776" lon="11.917246132021697"><ele>338.0</ele><time>2026-04-18T10:46:10.002Z</time></trkpt><trkpt lat="42.10232874359426" lon="11.917347860763481"><ele>338.0</ele><time>2026-04-18T10:46:11.002Z</time></trkpt><trkpt lat="42.102411863835705" lon="11.917457140230582"><ele>338.0</ele><time>2026-04-18T10:46:12.002Z</time></trkpt><trkpt lat="42.10249112826316" lon="11.917563687989448"><ele>338.4</ele><time>2026-04-18T10:46:13.002Z</time></trkpt><trkpt lat="42.10256473693893" lon="11.917645954931393"><ele>338.79999999999995</ele><time>2026-04-18T10:46:13.999Z</time></trkpt><trkpt lat="42.102641795183025" lon="11.917737132611292"><ele>339.2</ele><time>2026-04-18T10:46:14.999Z</time></trkpt><trkpt lat="42.10273345929756" lon="11.917831048313312"><ele>339.6</ele><time>2026-04-18T10:46:15.999Z</time></trkpt><trkpt lat="42.10282551220283" lon="11.917921326411749"><ele>340.0</ele><time>2026-04-18T10:46:16.999Z</time></trkpt><trkpt lat="42.10290084015958" lon="11.9180169382214"><ele>340.0</ele><time>2026-04-18T10:46:17.999Z</time></trkpt><trkpt lat="42.10297356624007" lon="11.918115939072688"><ele>340.0</ele><time>2026-04-18T10:46:18.999Z</time></trkpt><trkpt lat="42.10304998676567" lon="11.918225758990761"><ele>340.0</ele><time>2026-04-18T10:46:19.999Z</time></trkpt><trkpt lat="42.10312690362808" lon="11.918339898454814"><ele>340.0</ele><time>2026-04-18T10:46:20.999Z</time></trkpt><trkpt lat="42.10319945929682" lon="11.918464709491563"><ele>340.0</ele><time>2026-04-18T10:46:21.999Z</time></trkpt><trkpt lat="42.1032710417855" lon="11.918585428093454"><ele>339.25</ele><time>2026-04-18T10:46:22.999Z</time></trkpt><trkpt lat="42.10335666174545" lon="11.918703855587633"><ele>338.5</ele><time>2026-04-18T10:46:23.999Z</time></trkpt><trkpt lat="42.103444736731696" lon="11.918826283266107"><ele>337.75</ele><time>2026-04-18T10:46:24.999Z</time></trkpt><trkpt lat="42.103520996968534" lon="11.91896002487134"><ele>337.0</ele><time>2026-04-18T10:46:25.999Z</time></trkpt><trkpt lat="42.10358488791322" lon="11.919108174566363"><ele>336.75</ele><time>2026-04-18T10:46:26.999Z</time></trkpt><trkpt lat="42.10361528418347" lon="11.919270241010235"><ele>336.5</ele><time>2026-04-18T10:46:27.999Z</time></trkpt><trkpt lat="42.1036389452632" lon="11.919412364713597"><ele>336.25</ele><time>2026-04-18T10:46:28.999Z</time></trkpt><trkpt lat="42.10365758101751" lon="11.919567623932348"><ele>336.0</ele><time>2026-04-18T10:46:30Z</time></trkpt><trkpt lat="42.103687632039474" lon="11.9197098757984"><ele>336.0</ele><time>2026-04-18T10:46:31Z</time></trkpt><trkpt lat="42.10368916344564" lon="11.919861717609141"><ele>336.0</ele><time>2026-04-18T10:46:32Z</time></trkpt><trkpt lat="42.10368907661397" lon="11.920017771254935"><ele>336.0</ele><time>2026-04-18T10:46:33Z</time></trkpt><trkpt lat="42.10368341382125" lon="11.920170393059335"><ele>336.0</ele><time>2026-04-18T10:46:34Z</time></trkpt><trkpt lat="42.103676074641356" lon="11.920319824196408"><ele>336.5</ele><time>2026-04-18T10:46:35Z</time></trkpt><trkpt lat="42.103672031711824" lon="11.920472320903512"><ele>337.0</ele><time>2026-04-18T10:46:36Z</time></trkpt><trkpt lat="42.103666175419946" lon="11.92062709760887"><ele>337.5</ele><time>2026-04-18T10:46:37Z</time></trkpt><trkpt lat="42.10365505542146" lon="11.92077716332087"><ele>338.0</ele><time>2026-04-18T10:46:38Z</time></trkpt><trkpt lat="42.10366279106595" lon="11.920929053925079"><ele>338.75</ele><time>2026-04-18T10:46:39Z</time></trkpt><trkpt lat="42.10368817069017" lon="11.92108821848899"><ele>339.5</ele><time>2026-04-18T10:46:40Z</time></trkpt><trkpt lat="42.10370566596725" lon="11.921251312850861"><ele>340.25</ele><time>2026-04-18T10:46:41Z</time></trkpt><trkpt lat="42.10371543707834" lon="11.92141198954137"><ele>341.0</ele><time>2026-04-18T10:46:42Z</time></trkpt><trkpt lat="42.10372481493797" lon="11.921570831455963"><ele>341.0</ele><time>2026-04-18T10:46:43Z</time></trkpt><trkpt lat="42.103735325147454" lon="11.92171094676368"><ele>341.0</ele><time>2026-04-18T10:46:44Z</time></trkpt><trkpt lat="42.10375466278447" lon="11.921839629693858"><ele>341.0</ele><time>2026-04-18T10:46:45Z</time></trkpt><trkpt lat="42.10377330213204" lon="11.921944330674727"><ele>341.0</ele><time>2026-04-18T10:46:46Z</time></trkpt><trkpt lat="42.10379473949864" lon="11.922068377419286"><ele>341.0</ele><time>2026-04-18T10:46:47Z</time></trkpt><trkpt lat="42.10381746355868" lon="11.922197932590858"><ele>341.6</ele><time>2026-04-18T10:46:48Z</time></trkpt><trkpt lat="42.10383332853351" lon="11.922323683378709"><ele>342.20000000000005</ele><time>2026-04-18T10:46:49Z</time></trkpt><trkpt lat="42.10385395137566" lon="11.92246222536732"><ele>342.79999999999995</ele><time>2026-04-18T10:46:50Z</time></trkpt><trkpt lat="42.103878629461356" lon="11.92260166896125"><ele>343.4</ele><time>2026-04-18T10:46:51Z</time></trkpt><trkpt lat="42.1038646089579" lon="11.922761808154688"><ele>344.0</ele><time>2026-04-18T10:46:52Z</time></trkpt><trkpt lat="42.10388322724539" lon="11.922912007889675"><ele>344.0</ele><time>2026-04-18T10:46:53Z</time></trkpt><trkpt lat="42.10390020043612" lon="11.923064214256069"><ele>344.0</ele><time>2026-04-18T10:46:54Z</time></trkpt><trkpt lat="42.10392028723451" lon="11.923221334542081"><ele>344.0</ele><time>2026-04-18T10:46:55Z</time></trkpt><trkpt lat="42.1039423583726" lon="11.92337788465305"><ele>344.0</ele><time>2026-04-18T10:46:56Z</time></trkpt><trkpt lat="42.10396152640206" lon="11.923528275336478"><ele>344.25</ele><time>2026-04-18T10:46:57Z</time></trkpt><trkpt lat="42.10399272966182" lon="11.92367662004479"><ele>344.5</ele><time>2026-04-18T10:46:58Z</time></trkpt><trkpt lat="42.10400171066058" lon="11.923825291590902"><ele>344.75</ele><time>2026-04-18T10:46:59Z</time></trkpt><trkpt lat="42.10400377783316" lon="11.923969592053158"><ele>345.0</ele><time>2026-04-18T10:47:00Z</time></trkpt><trkpt lat="42.1040020956139" lon="11.924131283127734"><ele>345.5</ele><time>2026-04-18T10:47:01Z</time></trkpt><trkpt lat="42.10399767763458" lon="11.924293673356495"><ele>346.0</ele><time>2026-04-18T10:47:02.001Z</time></trkpt><trkpt lat="42.10399236799433" lon="11.924448341382307"><ele>346.5</ele><time>2026-04-18T10:47:03.001Z</time></trkpt><trkpt lat="42.10399476886805" lon="11.924606517119726"><ele>347.0</ele><time>2026-04-18T10:47:04.001Z</time></trkpt><trkpt lat="42.10400792893661" lon="11.924768523653201"><ele>347.0</ele><time>2026-04-18T10:47:05.001Z</time></trkpt><trkpt lat="42.10401023100043" lon="11.924944648812854"><ele>347.0</ele><time>2026-04-18T10:47:06.001Z</time></trkpt><trkpt lat="42.10403488375269" lon="11.92511252124995"><ele>347.0</ele><time>2026-04-18T10:47:07.001Z</time></trkpt><trkpt lat="42.104044781660455" lon="11.925276020935671"><ele>347.0</ele><time>2026-04-18T10:47:08.001Z</time></trkpt><trkpt lat="42.10404791099125" lon="11.925406548041"><ele>347.20000000000005</ele><time>2026-04-18T10:47:09.001Z</time></trkpt><trkpt lat="42.10403798605228" lon="11.925520701526276"><ele>347.4</ele><time>2026-04-18T10:47:10.001Z</time></trkpt><trkpt lat="42.10404712819937" lon="11.925639425519076"><ele>347.6</ele><time>2026-04-18T10:47:11.001Z</time></trkpt><trkpt lat="42.10404140641004" lon="11.92576985421907"><ele>347.79999999999995</ele><time>2026-04-18T10:47:12.001Z</time></trkpt><trkpt lat="42.1040491911286" lon="11.925906220325551"><ele>348.0</ele><time>2026-04-18T10:47:13.001Z</time></trkpt><trkpt lat="42.10406470040563" lon="11.926049293581785"><ele>348.0</ele><time>2026-04-18T10:47:14.001Z</time></trkpt><trkpt lat="42.10407124753119" lon="11.926188217299337"><ele>348.0</ele><time>2026-04-18T10:47:15.001Z</time></trkpt><trkpt lat="42.10407347063604" lon="11.92633183789084"><ele>348.0</ele><time>2026-04-18T10:47:16.001Z</time></trkpt><trkpt lat="42.10407751778639" lon="11.926485281180087"><ele>348.0</ele><time>2026-04-18T10:47:17.001Z</time></trkpt><trkpt lat="42.10408290233204" lon="11.926635851524185"><ele>348.0</ele><time>2026-04-18T10:47:18.001Z</time></trkpt><trkpt lat="42.10409454065875" lon="11.926767135261311"><ele>350.59999999999997</ele><time>2026-04-18T10:47:19.001Z</time></trkpt><trkpt lat="42.104116911374305" lon="11.926904510921622"><ele>353.2</ele><time>2026-04-18T10:47:20.001Z</time></trkpt><trkpt lat="42.10411666738065" lon="11.92705515381152"><ele>355.8</ele><time>2026-04-18T10:47:21.001Z</time></trkpt><trkpt lat="42.10413456471116" lon="11.927207614517684"><ele>358.4</ele><time>2026-04-18T10:47:22.001Z</time></trkpt><trkpt lat="42.10417617687099" lon="11.927342749563536"><ele>361.0</ele><time>2026-04-18T10:47:23.001Z</time></trkpt><trkpt lat="42.10420999131975" lon="11.927484273146927"><ele>360.4</ele><time>2026-04-18T10:47:24.001Z</time></trkpt><trkpt lat="42.10424431161136" lon="11.92762229195765"><ele>359.8</ele><time>2026-04-18T10:47:25.001Z</time></trkpt><trkpt lat="42.10428369171059" lon="11.92776497512388"><ele>359.2</ele><time>2026-04-18T10:47:26.001Z</time></trkpt><trkpt lat="42.10432967969995" lon="11.927890585004521"><ele>358.59999999999997</ele><time>2026-04-18T10:47:27.001Z</time></trkpt><trkpt lat="42.10434768642119" lon="11.927995435624997"><ele>358.0</ele><time>2026-04-18T10:47:28.001Z</time></trkpt><trkpt lat="42.1043737118848" lon="11.928073127007856"><ele>358.0</ele><time>2026-04-18T10:47:29.001Z</time></trkpt><trkpt lat="42.104402823391574" lon="11.928160030755086"><ele>358.0</ele><time>2026-04-18T10:47:30.001Z</time></trkpt><trkpt lat="42.10443783565021" lon="11.928244647587663"><ele>358.0</ele><time>2026-04-18T10:47:31.001Z</time></trkpt><trkpt lat="42.10446379990828" lon="11.928345205962792"><ele>358.0</ele><time>2026-04-18T10:47:32.001Z</time></trkpt><trkpt lat="42.104505537994854" lon="11.928443153980945"><ele>358.0</ele><time>2026-04-18T10:47:33.001Z</time></trkpt><trkpt lat="42.10453581035597" lon="11.928537947172392"><ele>358.0</ele><time>2026-04-18T10:47:34.001Z</time></trkpt><trkpt lat="42.10455817146633" lon="11.928657217449997"><ele>358.66666666666663</ele><time>2026-04-18T10:47:35.001Z</time></trkpt><trkpt lat="42.10459517175578" lon="11.928776130318136"><ele>359.3333333333333</ele><time>2026-04-18T10:47:36.001Z</time></trkpt><trkpt lat="42.10463506339788" lon="11.928896717878196"><ele>360.0</ele><time>2026-04-18T10:47:37.001Z</time></trkpt><trkpt lat="42.10466001024608" lon="11.929008176282593"><ele>360.6666666666667</ele><time>2026-04-18T10:47:38.001Z</time></trkpt><trkpt lat="42.104673539582635" lon="11.929117759325274"><ele>361.33333333333337</ele><time>2026-04-18T10:47:39.001Z</time></trkpt><trkpt lat="42.10468348881845" lon="11.929232461964785"><ele>362.0</ele><time>2026-04-18T10:47:40.001Z</time></trkpt><trkpt lat="42.1046785712015" lon="11.929333358003683"><ele>363.8</ele><time>2026-04-18T10:47:41.001Z</time></trkpt><trkpt lat="42.10465713854722" lon="11.929437027281674"><ele>365.6</ele><time>2026-04-18T10:47:42.001Z</time></trkpt><trkpt lat="42.104632065396295" lon="11.929551543278412"><ele>367.40000000000003</ele><time>2026-04-18T10:47:43.002Z</time></trkpt><trkpt lat="42.10458242042287" lon="11.929679671003285"><ele>369.20000000000005</ele><time>2026-04-18T10:47:44.002Z</time></trkpt><trkpt lat="42.10452979585431" lon="11.929802769867537"><ele>371.0</ele><time>2026-04-18T10:47:45.002Z</time></trkpt><trkpt lat="42.10445603069526" lon="11.929920181154655"><ele>371.0</ele><time>2026-04-18T10:47:46.002Z</time></trkpt><trkpt lat="42.10437923034505" lon="11.930041720395597"><ele>371.0</ele><time>2026-04-18T10:47:47.002Z</time></trkpt><trkpt lat="42.104294409772166" lon="11.930175881355167"><ele>371.0</ele><time>2026-04-18T10:47:48.002Z</time></trkpt><trkpt lat="42.104216005370375" lon="11.930302066475212"><ele>371.0</ele><time>2026-04-18T10:47:49.002Z</time></trkpt><trkpt lat="42.104143630948606" lon="11.930432837330976"><ele>370.5</ele><time>2026-04-18T10:47:50.002Z</time></trkpt><trkpt lat="42.10410002150391" lon="11.93054516001199"><ele>370.0</ele><time>2026-04-18T10:47:51.002Z</time></trkpt><trkpt lat="42.10407041563253" lon="11.930642105525175"><ele>369.5</ele><time>2026-04-18T10:47:52.002Z</time></trkpt><trkpt lat="42.104070978859326" lon="11.930754177512139"><ele>369.0</ele><time>2026-04-18T10:47:53.002Z</time></trkpt><trkpt lat="42.10409440975656" lon="11.930867681999171"><ele>368.5</ele><time>2026-04-18T10:47:54.002Z</time></trkpt><trkpt lat="42.10413850319767" lon="11.930980397581735"><ele>368.0</ele><time>2026-04-18T10:47:55.002Z</time></trkpt><trkpt lat="42.10420426111154" lon="11.931095141708873"><ele>368.0</ele><time>2026-04-18T10:47:56.002Z</time></trkpt><trkpt lat="42.10427857762711" lon="11.931202282458797"><ele>368.0</ele><time>2026-04-18T10:47:57.002Z</time></trkpt><trkpt lat="42.10434435495586" lon="11.931294118802475"><ele>368.0</ele><time>2026-04-18T10:47:58.002Z</time></trkpt><trkpt lat="42.10440910396918" lon="11.931384023383485"><ele>368.0</ele><time>2026-04-18T10:47:59.002Z</time></trkpt><trkpt lat="42.104472767569575" lon="11.931464529242374"><ele>368.0</ele><time>2026-04-18T10:48:00.002Z</time></trkpt><trkpt lat="42.104539132580285" lon="11.931549402308619"><ele>368.0</ele><time>2026-04-18T10:48:01.002Z</time></trkpt><trkpt lat="42.10460356960464" lon="11.93162539361008"><ele>368.0</ele><time>2026-04-18T10:48:02.002Z</time></trkpt><trkpt lat="42.104666425607405" lon="11.931694422051885"><ele>368.0</ele><time>2026-04-18T10:48:03.002Z</time></trkpt><trkpt lat="42.10474247927297" lon="11.931771143713283"><ele>368.0</ele><time>2026-04-18T10:48:04.002Z</time></trkpt><trkpt lat="42.10481218457423" lon="11.931844863067834"><ele>368.0</ele><time>2026-04-18T10:48:05.002Z</time></trkpt><trkpt lat="42.10488748902456" lon="11.93192527340015"><ele>368.0</ele><time>2026-04-18T10:48:06.002Z</time></trkpt><trkpt lat="42.104960944172134" lon="11.931996170362545"><ele>367.0</ele><time>2026-04-18T10:48:07.002Z</time></trkpt><trkpt lat="42.105028677160654" lon="11.932038436108611"><ele>366.0</ele><time>2026-04-18T10:48:08.002Z</time></trkpt><trkpt lat="42.10511405031532" lon="11.932078114320912"><ele>365.0</ele><time>2026-04-18T10:48:09.002Z</time></trkpt><trkpt lat="42.105188087929456" lon="11.932099596059912"><ele>364.0</ele><time>2026-04-18T10:48:10.002Z</time></trkpt><trkpt lat="42.105258686290135" lon="11.93210337808127"><ele>363.0</ele><time>2026-04-18T10:48:11.002Z</time></trkpt><trkpt lat="42.105326681396605" lon="11.932102748780249"><ele>362.0</ele><time>2026-04-18T10:48:12.002Z</time></trkpt><trkpt lat="42.10540297892848" lon="11.932103729018307"><ele>362.0</ele><time>2026-04-18T10:48:13.002Z</time></trkpt><trkpt lat="42.105481418462624" lon="11.932108703100203"><ele>362.0</ele><time>2026-04-18T10:48:14.002Z</time></trkpt><trkpt lat="42.105551492342464" lon="11.932111493307431"><ele>362.0</ele><time>2026-04-18T10:48:15.002Z</time></trkpt><trkpt lat="42.10562586067328" lon="11.932114925571073"><ele>362.0</ele><time>2026-04-18T10:48:16.002Z</time></trkpt><trkpt lat="42.10569857156729" lon="11.932117752836042"><ele>362.0</ele><time>2026-04-18T10:48:17.002Z</time></trkpt><trkpt lat="42.1057658587252" lon="11.932116887386472"><ele>362.0</ele><time>2026-04-18T10:48:18.002Z</time></trkpt><trkpt lat="42.10583343912675" lon="11.932115624188564"><ele>362.0</ele><time>2026-04-18T10:48:19.002Z</time></trkpt><trkpt lat="42.10594877800501" lon="11.932123406593812"><ele>360.83333333333337</ele><time>2026-04-18T10:48:21Z</time></trkpt><trkpt lat="42.10603879763854" lon="11.932124406872491"><ele>359.6666666666667</ele><time>2026-04-18T10:48:23Z</time></trkpt><trkpt lat="42.10614550589566" lon="11.932113189795688"><ele>358.5</ele><time>2026-04-18T10:48:25Z</time></trkpt><trkpt lat="42.10621828579236" lon="11.932098695409024"><ele>357.3333333333333</ele><time>2026-04-18T10:48:26Z</time></trkpt><trkpt lat="42.10629487885603" lon="11.93209084096746"><ele>356.16666666666663</ele><time>2026-04-18T10:48:27Z</time></trkpt><trkpt lat="42.10637573988678" lon="11.932091866719183"><ele>355.0</ele><time>2026-04-18T10:48:28Z</time></trkpt><trkpt lat="42.10646021772215" lon="11.932098354390178"><ele>355.0</ele><time>2026-04-18T10:48:29Z</time></trkpt><trkpt lat="42.10655518398928" lon="11.932109412101916"><ele>355.0</ele><time>2026-04-18T10:48:30Z</time></trkpt><trkpt lat="42.10665976936967" lon="11.932112732311081"><ele>355.0</ele><time>2026-04-18T10:48:31Z</time></trkpt><trkpt lat="42.106768550257485" lon="11.932150670685239"><ele>355.0</ele><time>2026-04-18T10:48:32Z</time></trkpt><trkpt lat="42.106878235834266" lon="11.932174513465334"><ele>355.0</ele><time>2026-04-18T10:48:33Z</time></trkpt><trkpt lat="42.10698288122092" lon="11.932214828232917"><ele>354.25</ele><time>2026-04-18T10:48:34Z</time></trkpt><trkpt lat="42.10709440293783" lon="11.932269869608433"><ele>353.5</ele><time>2026-04-18T10:48:35Z</time></trkpt><trkpt lat="42.10720609330062" lon="11.93233928132846"><ele>352.75</ele><time>2026-04-18T10:48:36Z</time></trkpt><trkpt lat="42.107309038037016" lon="11.932416957444328"><ele>352.0</ele><time>2026-04-18T10:48:37Z</time></trkpt><trkpt lat="42.107405844468246" lon="11.93249132737805"><ele>353.5</ele><time>2026-04-18T10:48:38Z</time></trkpt><trkpt lat="42.107507249501005" lon="11.932558396497564"><ele>355.0</ele><time>2026-04-18T10:48:39Z</time></trkpt><trkpt lat="42.107609391787875" lon="11.932624718976934"><ele>356.5</ele><time>2026-04-18T10:48:40Z</time></trkpt><trkpt lat="42.10771086213019" lon="11.932693352509245"><ele>358.0</ele><time>2026-04-18T10:48:41Z</time></trkpt><trkpt lat="42.10781383813111" lon="11.932764785974367"><ele>358.0</ele><time>2026-04-18T10:48:42Z</time></trkpt><trkpt lat="42.107914247746585" lon="11.932834439128419"><ele>358.0</ele><time>2026-04-18T10:48:43Z</time></trkpt><trkpt lat="42.10800912461203" lon="11.932891453455143"><ele>358.0</ele><time>2026-04-18T10:48:44Z</time></trkpt><trkpt lat="42.10809086955232" lon="11.93292210884271"><ele>358.0</ele><time>2026-04-18T10:48:45Z</time></trkpt><trkpt lat="42.10817540032854" lon="11.932942459144945"><ele>358.0</ele><time>2026-04-18T10:48:46Z</time></trkpt><trkpt lat="42.10828206302049" lon="11.932944971047586"><ele>360.4</ele><time>2026-04-18T10:48:47Z</time></trkpt><trkpt lat="42.108393557257166" lon="11.932934366279595"><ele>362.79999999999995</ele><time>2026-04-18T10:48:48Z</time></trkpt><trkpt lat="42.1085028935429" lon="11.932904039353192"><ele>365.2</ele><time>2026-04-18T10:48:49Z</time></trkpt><trkpt lat="42.10860533905755" lon="11.932855292620317"><ele>367.6</ele><time>2026-04-18T10:48:50Z</time></trkpt><trkpt lat="42.10870164622595" lon="11.93278161864818"><ele>370.0</ele><time>2026-04-18T10:48:51.001Z</time></trkpt><trkpt lat="42.108816747697446" lon="11.9326842518814"><ele>370.0</ele><time>2026-04-18T10:48:52.001Z</time></trkpt><trkpt lat="42.10893617291449" lon="11.932578643460197"><ele>370.0</ele><time>2026-04-18T10:48:53.001Z</time></trkpt><trkpt lat="42.10907401593333" lon="11.932469001088997"><ele>370.0</ele><time>2026-04-18T10:48:54.001Z</time></trkpt><trkpt lat="42.10921340078119" lon="11.932385045310594"><ele>373.5</ele><time>2026-04-18T10:48:55.001Z</time></trkpt><trkpt lat="42.109354630821315" lon="11.932285292320739"><ele>377.0</ele><time>2026-04-18T10:48:56.001Z</time></trkpt><trkpt lat="42.109483582673214" lon="11.932210975970255"><ele>380.5</ele><time>2026-04-18T10:48:57.001Z</time></trkpt><trkpt lat="42.1095986171334" lon="11.932127060478628"><ele>384.0</ele><time>2026-04-18T10:48:58.001Z</time></trkpt><trkpt lat="42.109718200653084" lon="11.932037486740857"><ele>384.0</ele><time>2026-04-18T10:48:59.001Z</time></trkpt><trkpt lat="42.10983498108442" lon="11.931958303331268"><ele>384.0</ele><time>2026-04-18T10:49:00.001Z</time></trkpt><trkpt lat="42.109946401896885" lon="11.931886046252679"><ele>384.0</ele><time>2026-04-18T10:49:01.001Z</time></trkpt><trkpt lat="42.110064019649904" lon="11.931823002360106"><ele>384.0</ele><time>2026-04-18T10:49:02.001Z</time></trkpt><trkpt lat="42.1101930541573" lon="11.931775050801258"><ele>385.5</ele><time>2026-04-18T10:49:03.001Z</time></trkpt><trkpt lat="42.1103267841411" lon="11.93173128824816"><ele>387.0</ele><time>2026-04-18T10:49:04.001Z</time></trkpt><trkpt lat="42.11045682405244" lon="11.93170973364048"><ele>388.5</ele><time>2026-04-18T10:49:05.001Z</time></trkpt><trkpt lat="42.110585864496244" lon="11.93167916512507"><ele>390.0</ele><time>2026-04-18T10:49:06.001Z</time></trkpt><trkpt lat="42.110707849445845" lon="11.931652947453065"><ele>392.2</ele><time>2026-04-18T10:49:07.001Z</time></trkpt><trkpt lat="42.11082322875566" lon="11.931631854062292"><ele>394.4</ele><time>2026-04-18T10:49:08.001Z</time></trkpt><trkpt lat="42.11092456220275" lon="11.931620003911313"><ele>396.6</ele><time>2026-04-18T10:49:09.001Z</time></trkpt><trkpt lat="42.111024449463116" lon="11.931617240660277"><ele>398.8</ele><time>2026-04-18T10:49:10.001Z</time></trkpt><trkpt lat="42.111084492153516" lon="11.931650342587144"><ele>401.0</ele><time>2026-04-18T10:49:11.001Z</time></trkpt><trkpt lat="42.11117607043454" lon="11.931801076678957"><ele>401.0</ele><time>2026-04-18T10:49:13.001Z</time></trkpt><trkpt lat="42.11123149816123" lon="11.931894685123808"><ele>401.0</ele><time>2026-04-18T10:49:14.001Z</time></trkpt><trkpt lat="42.11128690713678" lon="11.93199581656403"><ele>401.0</ele><time>2026-04-18T10:49:15.001Z</time></trkpt><trkpt lat="42.111345496976035" lon="11.932102922299164"><ele>401.0</ele><time>2026-04-18T10:49:16.001Z</time></trkpt><trkpt lat="42.11142521325757" lon="11.932209386785127"><ele>401.0</ele><time>2026-04-18T10:49:17.001Z</time></trkpt><trkpt lat="42.11149075213375" lon="11.932351133735676"><ele>400.99999999999994</ele><time>2026-04-18T10:49:18.001Z</time></trkpt><trkpt lat="42.11155540107533" lon="11.932450499281119"><ele>401.0</ele><time>2026-04-18T10:49:19.001Z</time></trkpt><trkpt lat="42.11162892621581" lon="11.93250878710134"><ele>401.0</ele><time>2026-04-18T10:49:20.001Z</time></trkpt><trkpt lat="42.111713290262706" lon="11.932530596604263"><ele>401.0</ele><time>2026-04-18T10:49:21.001Z</time></trkpt><trkpt lat="42.11179843482558" lon="11.932508010102238"><ele>400.99999999999994</ele><time>2026-04-18T10:49:22.001Z</time></trkpt><trkpt lat="42.11188191510128" lon="11.932457398331989"><ele>401.0</ele><time>2026-04-18T10:49:23.001Z</time></trkpt><trkpt lat="42.11197279925951" lon="11.932382305946536"><ele>404.5</ele><time>2026-04-18T10:49:24.001Z</time></trkpt><trkpt lat="42.11207718431397" lon="11.93230868939445"><ele>408.0</ele><time>2026-04-18T10:49:25.001Z</time></trkpt><trkpt lat="42.11218995887173" lon="11.932237219656377"><ele>411.5</ele><time>2026-04-18T10:49:26.001Z</time></trkpt><trkpt lat="42.11231504774657" lon="11.932159444906963"><ele>415.0</ele><time>2026-04-18T10:49:27.001Z</time></trkpt><trkpt lat="42.112420077107394" lon="11.932134241088303"><ele>417.4</ele><time>2026-04-18T10:49:28.001Z</time></trkpt><trkpt lat="42.11249671683988" lon="11.932121450902653"><ele>419.8</ele><time>2026-04-18T10:49:29.001Z</time></trkpt><trkpt lat="42.1125622072941" lon="11.932172943035312"><ele>422.20000000000005</ele><time>2026-04-18T10:49:30.001Z</time></trkpt><trkpt lat="42.11263549728719" lon="11.932227555202076"><ele>424.6</ele><time>2026-04-18T10:49:31.001Z</time></trkpt><trkpt lat="42.112735634890555" lon="11.93230507371243"><ele>427.0</ele><time>2026-04-18T10:49:32.002Z</time></trkpt><trkpt lat="42.112842313432125" lon="11.932377570777264"><ele>427.00000000000006</ele><time>2026-04-18T10:49:33.002Z</time></trkpt><trkpt lat="42.11292128976954" lon="11.932391869072138"><ele>427.0</ele><time>2026-04-18T10:49:34.002Z</time></trkpt><trkpt lat="42.112978546190114" lon="11.932454901748077"><ele>427.0</ele><time>2026-04-18T10:49:37.002Z</time></trkpt><trkpt lat="42.113009650113135" lon="11.932531879217082"><ele>427.0</ele><time>2026-04-18T10:50:02.002Z</time></trkpt><trkpt lat="42.11299479778455" lon="11.93262884486996"><ele>427.00000000000006</ele><time>2026-04-18T10:50:03.002Z</time></trkpt><trkpt lat="42.11292497183929" lon="11.932741523376615"><ele>427.0</ele><time>2026-04-18T10:50:04.002Z</time></trkpt><trkpt lat="42.11289986761719" lon="11.932875558391403"><ele>426.50000000000006</ele><time>2026-04-18T10:50:05.002Z</time></trkpt><trkpt lat="42.112876160452814" lon="11.933002134307383"><ele>426.0</ele><time>2026-04-18T10:50:06.002Z</time></trkpt><trkpt lat="42.11285365059462" lon="11.933121129953621"><ele>425.5</ele><time>2026-04-18T10:50:07.002Z</time></trkpt><trkpt lat="42.11283153045801" lon="11.933236145593087"><ele>425.0</ele><time>2026-04-18T10:50:08.002Z</time></trkpt><trkpt lat="42.11281144667346" lon="11.933340573113492"><ele>424.50000000000006</ele><time>2026-04-18T10:50:09.002Z</time></trkpt><trkpt lat="42.11279002220786" lon="11.93345197151273"><ele>424.0</ele><time>2026-04-18T10:50:10.002Z</time></trkpt><trkpt lat="42.11276967585674" lon="11.933557764285087"><ele>424.00000000000006</ele><time>2026-04-18T10:50:11.002Z</time></trkpt><trkpt lat="42.11275052409451" lon="11.93365734566637"><ele>424.0</ele><time>2026-04-18T10:50:12.002Z</time></trkpt><trkpt lat="42.112732336933995" lon="11.933751911449471"><ele>424.0</ele><time>2026-04-18T10:50:13.003Z</time></trkpt><trkpt lat="42.11271470406302" lon="11.93384359514197"><ele>424.0</ele><time>2026-04-18T10:50:14.003Z</time></trkpt><trkpt lat="42.11269513422463" lon="11.933940091125042"><ele>424.00000000000006</ele><time>2026-04-18T10:50:15.003Z</time></trkpt><trkpt lat="42.112673449466094" lon="11.934047073607111"><ele>424.0</ele><time>2026-04-18T10:50:16.003Z</time></trkpt><trkpt lat="42.112649695413076" lon="11.934164265155554"><ele>423.1666666666667</ele><time>2026-04-18T10:50:17.003Z</time></trkpt><trkpt lat="42.112626639722585" lon="11.93427035895975"><ele>422.33333333333337</ele><time>2026-04-18T10:50:18.003Z</time></trkpt><trkpt lat="42.11260538481414" lon="11.934368337451076"><ele>421.5</ele><time>2026-04-18T10:50:19.003Z</time></trkpt><trkpt lat="42.112583154749075" lon="11.934470811183115"><ele>420.66666666666663</ele><time>2026-04-18T10:50:20.003Z</time></trkpt><trkpt lat="42.112562164529216" lon="11.934567569602976"><ele>419.8333333333333</ele><time>2026-04-18T10:50:21.003Z</time></trkpt><trkpt lat="42.112540310947956" lon="11.934668307654425"><ele>419.0</ele><time>2026-04-18T10:50:22.003Z</time></trkpt><trkpt lat="42.11252105219707" lon="11.934770159673748"><ele>418.99999999999994</ele><time>2026-04-18T10:50:23.003Z</time></trkpt><trkpt lat="42.112504205245024" lon="11.93486843083117"><ele>419.0</ele><time>2026-04-18T10:50:24.003Z</time></trkpt><trkpt lat="42.11248737514633" lon="11.93496842217361"><ele>419.0</ele><time>2026-04-18T10:50:25.003Z</time></trkpt><trkpt lat="42.112471614836245" lon="11.935077133702803"><ele>419.0</ele><time>2026-04-18T10:50:26Z</time></trkpt><trkpt lat="42.11245338460729" lon="11.935202882448927"><ele>418.99999999999994</ele><time>2026-04-18T10:50:27Z</time></trkpt><trkpt lat="42.11243377055425" lon="11.935338176925127"><ele>419.0</ele><time>2026-04-18T10:50:28Z</time></trkpt><trkpt lat="42.11241199651592" lon="11.935469979076515"><ele>415.79999999999995</ele><time>2026-04-18T10:50:29Z</time></trkpt><trkpt lat="42.112391047420346" lon="11.935589166746896"><ele>412.59999999999997</ele><time>2026-04-18T10:50:30Z</time></trkpt><trkpt lat="42.112370326790355" lon="11.935707915922263"><ele>409.4</ele><time>2026-04-18T10:50:31Z</time></trkpt><trkpt lat="42.11235042088789" lon="11.935825300687204"><ele>406.2</ele><time>2026-04-18T10:50:32Z</time></trkpt><trkpt lat="42.11232949306742" lon="11.935952603245813"><ele>403.0</ele><time>2026-04-18T10:50:33Z</time></trkpt><trkpt lat="42.11230896244896" lon="11.936089269101217"><ele>402.4</ele><time>2026-04-18T10:50:34Z</time></trkpt><trkpt lat="42.11228862975558" lon="11.93622461739413"><ele>401.79999999999995</ele><time>2026-04-18T10:50:35Z</time></trkpt><trkpt lat="42.11226831562219" lon="11.936359842172676"><ele>401.2</ele><time>2026-04-18T10:50:36Z</time></trkpt><trkpt lat="42.11224839706191" lon="11.936492433734402"><ele>400.6</ele><time>2026-04-18T10:50:37Z</time></trkpt><trkpt lat="42.112229370485345" lon="11.936615204912208"><ele>400.0</ele><time>2026-04-18T10:50:38Z</time></trkpt><trkpt lat="42.11221031714302" lon="11.936735725102656"><ele>399.8</ele><time>2026-04-18T10:50:39Z</time></trkpt><trkpt lat="42.112197163987595" lon="11.936852411304995"><ele>399.6</ele><time>2026-04-18T10:50:40Z</time></trkpt><trkpt lat="42.112165594173774" lon="11.936967382563015"><ele>399.4</ele><time>2026-04-18T10:50:41Z</time></trkpt><trkpt lat="42.11213874021963" lon="11.937089846410078"><ele>399.2</ele><time>2026-04-18T10:50:42Z</time></trkpt><trkpt lat="42.11213097698357" lon="11.937218553817672"><ele>399.0</ele><time>2026-04-18T10:50:43Z</time></trkpt><trkpt lat="42.11212775026573" lon="11.937341401958175"><ele>399.0</ele><time>2026-04-18T10:50:44Z</time></trkpt><trkpt lat="42.112129723574185" lon="11.937471257350936"><ele>399.0</ele><time>2026-04-18T10:50:45Z</time></trkpt><trkpt lat="42.112138495778126" lon="11.93759479111203"><ele>399.0</ele><time>2026-04-18T10:50:46Z</time></trkpt><trkpt lat="42.11215360209228" lon="11.93771989902331"><ele>399.0</ele><time>2026-04-18T10:50:47Z</time></trkpt><trkpt lat="42.11218047663235" lon="11.937846300022468"><ele>399.0</ele><time>2026-04-18T10:50:48Z</time></trkpt><trkpt lat="42.11221497009858" lon="11.937979169351594"><ele>398.6</ele><time>2026-04-18T10:50:49Z</time></trkpt><trkpt lat="42.11224781987968" lon="11.938133232284383"><ele>398.2</ele><time>2026-04-18T10:50:50.001Z</time></trkpt><trkpt lat="42.11224772610837" lon="11.938285611924528"><ele>397.8</ele><time>2026-04-18T10:50:51.001Z</time></trkpt><trkpt lat="42.11226472494859" lon="11.938402903073127"><ele>397.40000000000003</ele><time>2026-04-18T10:50:52.001Z</time></trkpt><trkpt lat="42.112282349325184" lon="11.938524508772419"><ele>397.0</ele><time>2026-04-18T10:50:53.001Z</time></trkpt><trkpt lat="42.11229848309079" lon="11.93863582915145"><ele>397.75</ele><time>2026-04-18T10:50:54.001Z</time></trkpt><trkpt lat="42.11243287522522" lon="11.938712454126017"><ele>398.5</ele><time>2026-04-18T10:50:55.001Z</time></trkpt><trkpt lat="42.11251679713646" lon="11.938784648978046"><ele>399.25</ele><time>2026-04-18T10:50:56.001Z</time></trkpt><trkpt lat="42.11260944440442" lon="11.938851688851333"><ele>400.0</ele><time>2026-04-18T10:50:57.001Z</time></trkpt><trkpt lat="42.11270675279689" lon="11.938914819739198"><ele>400.0</ele><time>2026-04-18T10:50:58.001Z</time></trkpt><trkpt lat="42.11281132210311" lon="11.938982071850292"><ele>400.0</ele><time>2026-04-18T10:50:59.001Z</time></trkpt><trkpt lat="42.11291901010927" lon="11.939042953600742"><ele>400.0</ele><time>2026-04-18T10:51:00.001Z</time></trkpt><trkpt lat="42.11302194543207" lon="11.93910769445476"><ele>400.0</ele><time>2026-04-18T10:51:01.001Z</time></trkpt><trkpt lat="42.11311149929397" lon="11.939175641680265"><ele>400.0</ele><time>2026-04-18T10:51:02.001Z</time></trkpt><trkpt lat="42.11319108276544" lon="11.939237731577887"><ele>399.33333333333337</ele><time>2026-04-18T10:51:03.001Z</time></trkpt><trkpt lat="42.113265734931346" lon="11.939299618976868"><ele>398.6666666666667</ele><time>2026-04-18T10:51:04.001Z</time></trkpt><trkpt lat="42.11333666463405" lon="11.939352174163515"><ele>398.0</ele><time>2026-04-18T10:51:05.001Z</time></trkpt><trkpt lat="42.113420808479404" lon="11.9394002409056"><ele>397.33333333333337</ele><time>2026-04-18T10:51:06.001Z</time></trkpt><trkpt lat="42.11350544894474" lon="11.939439282040617"><ele>396.6666666666667</ele><time>2026-04-18T10:51:07.001Z</time></trkpt><trkpt lat="42.11359681394395" lon="11.939462090599054"><ele>396.0</ele><time>2026-04-18T10:51:08.001Z</time></trkpt><trkpt lat="42.11367627508268" lon="11.939461326228539"><ele>396.0</ele><time>2026-04-18T10:51:09.001Z</time></trkpt><trkpt lat="42.11374335088563" lon="11.939453397953482"><ele>396.0</ele><time>2026-04-18T10:51:10.001Z</time></trkpt><trkpt lat="42.113807856929775" lon="11.939452713747814"><ele>396.0</ele><time>2026-04-18T10:51:11.001Z</time></trkpt><trkpt lat="42.113872350410325" lon="11.939481548511742"><ele>396.0</ele><time>2026-04-18T10:51:12.001Z</time></trkpt><trkpt lat="42.11392553769711" lon="11.93954529732775"><ele>396.0</ele><time>2026-04-18T10:51:13.001Z</time></trkpt><trkpt lat="42.11396277300883" lon="11.939624144907304"><ele>396.0</ele><time>2026-04-18T10:51:14.001Z</time></trkpt><trkpt lat="42.113987062225135" lon="11.939737527470506"><ele>396.0</ele><time>2026-04-18T10:51:15.001Z</time></trkpt><trkpt lat="42.11400772449701" lon="11.939842948521637"><ele>396.0</ele><time>2026-04-18T10:51:16.001Z</time></trkpt><trkpt lat="42.114034271968" lon="11.939941638237013"><ele>396.0</ele><time>2026-04-18T10:51:17.001Z</time></trkpt><trkpt lat="42.11406210375735" lon="11.940060254314375"><ele>396.0</ele><time>2026-04-18T10:51:18.001Z</time></trkpt><trkpt lat="42.11407936760979" lon="11.940187339317195"><ele>396.0</ele><time>2026-04-18T10:51:19.001Z</time></trkpt><trkpt lat="42.1140937404556" lon="11.940303423231917"><ele>396.0</ele><time>2026-04-18T10:51:20.001Z</time></trkpt><trkpt lat="42.11412420376638" lon="11.940407034725775"><ele>396.0</ele><time>2026-04-18T10:51:21.001Z</time></trkpt><trkpt lat="42.114208253589545" lon="11.940507088597096"><ele>397.6</ele><time>2026-04-18T10:51:23.001Z</time></trkpt><trkpt lat="42.11424743475819" lon="11.94063460026457"><ele>399.20000000000005</ele><time>2026-04-18T10:51:25.001Z</time></trkpt><trkpt lat="42.114285926342674" lon="11.94080536870182"><ele>400.79999999999995</ele><time>2026-04-18T10:51:27.001Z</time></trkpt><trkpt lat="42.1143327821138" lon="11.940881831883722"><ele>402.4</ele><time>2026-04-18T10:51:28.001Z</time></trkpt><trkpt lat="42.11436988765464" lon="11.94098112054037"><ele>404.0</ele><time>2026-04-18T10:51:29.001Z</time></trkpt><trkpt lat="42.11439399923304" lon="11.941099222912284"><ele>403.99999999999994</ele><time>2026-04-18T10:51:30.001Z</time></trkpt><trkpt lat="42.114405927225576" lon="11.941208850049525"><ele>404.0</ele><time>2026-04-18T10:51:31.001Z</time></trkpt><trkpt lat="42.114414126156795" lon="11.941326090805696"><ele>404.0</ele><time>2026-04-18T10:51:32.001Z</time></trkpt><trkpt lat="42.11441732560702" lon="11.941431130520412"><ele>404.0</ele><time>2026-04-18T10:51:33.001Z</time></trkpt><trkpt lat="42.11441693026192" lon="11.941552416577833"><ele>403.99999999999994</ele><time>2026-04-18T10:51:34.001Z</time></trkpt><trkpt lat="42.114418990461246" lon="11.941663189142709"><ele>404.0</ele><time>2026-04-18T10:51:35.001Z</time></trkpt><trkpt lat="42.1144136607643" lon="11.941770430622661"><ele>404.3333333333333</ele><time>2026-04-18T10:51:36.002Z</time></trkpt><trkpt lat="42.1143887081495" lon="11.941865338116123"><ele>404.66666666666663</ele><time>2026-04-18T10:51:37.002Z</time></trkpt><trkpt lat="42.11435113903507" lon="11.941970821474857"><ele>405.0</ele><time>2026-04-18T10:51:38.002Z</time></trkpt><trkpt lat="42.11431635775818" lon="11.942060110454365"><ele>405.33333333333337</ele><time>2026-04-18T10:51:39.002Z</time></trkpt><trkpt lat="42.114272401741154" lon="11.942198259528844"><ele>405.6666666666667</ele><time>2026-04-18T10:51:41.002Z</time></trkpt><trkpt lat="42.11427601133216" lon="11.94231800514419"><ele>406.0</ele><time>2026-04-18T10:51:50.002Z</time></trkpt><trkpt lat="42.114345716991586" lon="11.94241140733559"><ele>406.00000000000006</ele><time>2026-04-18T10:51:52.002Z</time></trkpt><trkpt lat="42.11440411310022" lon="11.942491764397335"><ele>406.0</ele><time>2026-04-18T10:51:54.002Z</time></trkpt><trkpt lat="42.11446222155386" lon="11.942549974732898"><ele>406.0</ele><time>2026-04-18T10:51:56.002Z</time></trkpt><trkpt lat="42.11453408412094" lon="11.942617866764012"><ele>406.0</ele><time>2026-04-18T10:52:54.001Z</time></trkpt><trkpt lat="42.114612424333245" lon="11.942661850450177"><ele>406.00000000000006</ele><time>2026-04-18T10:52:57.001Z</time></trkpt><trkpt lat="42.11467953103902" lon="11.942681152416093"><ele>406.0</ele><time>2026-04-18T10:52:59.001Z</time></trkpt><trkpt lat="42.11476641003536" lon="11.942696040064726"><ele>404.83333333333337</ele><time>2026-04-18T10:53:02.001Z</time></trkpt><trkpt lat="42.1148271673316" lon="11.94273153613511"><ele>403.6666666666667</ele><time>2026-04-18T10:53:04.001Z</time></trkpt><trkpt lat="42.114837823111365" lon="11.942842559906568"><ele>402.5</ele><time>2026-04-18T10:53:06.001Z</time></trkpt><trkpt lat="42.11481947530153" lon="11.942950762199942"><ele>401.33333333333337</ele><time>2026-04-18T10:53:08.001Z</time></trkpt><trkpt lat="42.114781272002496" lon="11.943049118555711"><ele>400.1666666666667</ele><time>2026-04-18T10:53:10.001Z</time></trkpt><trkpt lat="42.11475919529148" lon="11.94313003996424"><ele>399.0</ele><time>2026-04-18T10:53:12.001Z</time></trkpt><trkpt lat="42.11474792940566" lon="11.943231335944573"><ele>399.0</ele><time>2026-04-18T10:53:18.001Z</time></trkpt><trkpt lat="42.11474127917559" lon="11.943349179800297"><ele>399.0</ele><time>2026-04-18T10:53:21.001Z</time></trkpt><trkpt lat="42.11471402779849" lon="11.943466535736224"><ele>399.0</ele><time>2026-04-18T10:53:23.001Z</time></trkpt><trkpt lat="42.11469389307455" lon="11.943569322937266"><ele>399.0</ele><time>2026-04-18T10:53:25.001Z</time></trkpt><trkpt lat="42.11464678780694" lon="11.943658438299105"><ele>399.0</ele><time>2026-04-18T10:53:27.001Z</time></trkpt><trkpt lat="42.114602794796426" lon="11.943742112235324"><ele>399.0</ele><time>2026-04-18T10:53:29.001Z</time></trkpt><trkpt lat="42.11456825433045" lon="11.943831576697383"><ele>397.0</ele><time>2026-04-18T10:53:31.001Z</time></trkpt><trkpt lat="42.11454287266366" lon="11.943924623834125"><ele>395.0</ele><time>2026-04-18T10:53:33.001Z</time></trkpt><trkpt lat="42.114543308507194" lon="11.94402175969352"><ele>393.0</ele><time>2026-04-18T10:53:35.002Z</time></trkpt><trkpt lat="42.11456561471125" lon="11.944139270573109"><ele>391.0</ele><time>2026-04-18T10:53:37.002Z</time></trkpt><trkpt lat="42.11454736327742" lon="11.944267177257258"><ele>389.0</ele><time>2026-04-18T10:53:39.002Z</time></trkpt><trkpt lat="42.114538876570165" lon="11.94439861886807"><ele>387.0</ele><time>2026-04-18T10:53:41.002Z</time></trkpt><trkpt lat="42.1145414764963" lon="11.944526297057234"><ele>384.8333333333333</ele><time>2026-04-18T10:53:43.002Z</time></trkpt><trkpt lat="42.11454009033286" lon="11.944649262755876"><ele>382.6666666666667</ele><time>2026-04-18T10:53:45.002Z</time></trkpt><trkpt lat="42.11451328610544" lon="11.944763229467709"><ele>380.5</ele><time>2026-04-18T10:53:47.002Z</time></trkpt><trkpt lat="42.11450506529162" lon="11.944865027709543"><ele>378.33333333333337</ele><time>2026-04-18T10:53:49.002Z</time></trkpt><trkpt lat="42.1145374198743" lon="11.944949932051873"><ele>376.1666666666667</ele><time>2026-04-18T10:53:51.002Z</time></trkpt><trkpt lat="42.11461587470146" lon="11.944949007692683"><ele>374.0</ele><time>2026-04-18T10:53:53.002Z</time></trkpt><trkpt lat="42.11469026819801" lon="11.944900447954245"><ele>374.0</ele><time>2026-04-18T10:53:55.002Z</time></trkpt><trkpt lat="42.114771779928134" lon="11.944899188237121"><ele>374.0</ele><time>2026-04-18T10:53:58.002Z</time></trkpt><trkpt lat="42.11478885633319" lon="11.945012945004951"><ele>374.0</ele><time>2026-04-18T10:54:01.002Z</time></trkpt><trkpt lat="42.11474340047174" lon="11.945131616059653"><ele>374.0</ele><time>2026-04-18T10:54:03.002Z</time></trkpt><trkpt lat="42.11470577914956" lon="11.945255492844014"><ele>374.0</ele><time>2026-04-18T10:54:05.002Z</time></trkpt><trkpt lat="42.11469270465049" lon="11.945401807397241"><ele>371.79999999999995</ele><time>2026-04-18T10:54:07.002Z</time></trkpt><trkpt lat="42.11469983036731" lon="11.945549123466169"><ele>369.59999999999997</ele><time>2026-04-18T10:54:09.002Z</time></trkpt><trkpt lat="42.114678469715415" lon="11.945632741109025"><ele>367.4</ele><time>2026-04-18T10:54:11.002Z</time></trkpt><trkpt lat="42.11467680005833" lon="11.945777727930627"><ele>365.2</ele><time>2026-04-18T10:54:29.003Z</time></trkpt><trkpt lat="42.11466564673546" lon="11.945917246969874"><ele>363.0</ele><time>2026-04-18T10:54:31.003Z</time></trkpt><trkpt lat="42.11464390840569" lon="11.946033611007266"><ele>362.0</ele><time>2026-04-18T10:54:34.003Z</time></trkpt><trkpt lat="42.11465333300119" lon="11.94616765324157"><ele>361.0</ele><time>2026-04-18T10:54:36.003Z</time></trkpt><trkpt lat="42.114671983002395" lon="11.946274630356214"><ele>360.0</ele><time>2026-04-18T10:54:37.003Z</time></trkpt><trkpt lat="42.114699750287784" lon="11.94641961098206"><ele>359.0</ele><time>2026-04-18T10:54:39.001Z</time></trkpt><trkpt lat="42.11474767193275" lon="11.946560725396282"><ele>358.0</ele><time>2026-04-18T10:54:41.001Z</time></trkpt><trkpt lat="42.11476226356167" lon="11.946648705827648"><ele>358.0</ele><time>2026-04-18T10:54:42.001Z</time></trkpt><trkpt lat="42.11481410396407" lon="11.94679233964501"><ele>358.0</ele><time>2026-04-18T10:54:44.001Z</time></trkpt><trkpt lat="42.114861380074146" lon="11.946855498876284"><ele>358.0</ele><time>2026-04-18T10:54:45.001Z</time></trkpt><trkpt lat="42.11491600207377" lon="11.946919964500934"><ele>358.0</ele><time>2026-04-18T10:54:46.001Z</time></trkpt><trkpt lat="42.114955620879" lon="11.946992435763203"><ele>358.0</ele><time>2026-04-18T10:54:47.001Z</time></trkpt><trkpt lat="42.11498658453933" lon="11.947074400919123"><ele>358.0</ele><time>2026-04-18T10:54:48.001Z</time></trkpt><trkpt lat="42.115012433423665" lon="11.947172040963665"><ele>360.2</ele><time>2026-04-18T10:54:49.001Z</time></trkpt><trkpt lat="42.115025452628544" lon="11.947344734472326"><ele>362.4</ele><time>2026-04-18T10:54:51.001Z</time></trkpt><trkpt lat="42.11508705423382" lon="11.947491745263896"><ele>364.59999999999997</ele><time>2026-04-18T10:54:53.001Z</time></trkpt><trkpt lat="42.11514088139624" lon="11.947560472858092"><ele>366.79999999999995</ele><time>2026-04-18T10:54:54.001Z</time></trkpt><trkpt lat="42.115190630167625" lon="11.947619817940323"><ele>369.0</ele><time>2026-04-18T10:54:55.001Z</time></trkpt><trkpt lat="42.11522760896669" lon="11.947697611090971"><ele>369.0</ele><time>2026-04-18T10:54:56.001Z</time></trkpt><trkpt lat="42.115258956347134" lon="11.947784431402699"><ele>369.0</ele><time>2026-04-18T10:54:57.001Z</time></trkpt><trkpt lat="42.11528382888425" lon="11.94789803720458"><ele>369.0</ele><time>2026-04-18T10:54:58.001Z</time></trkpt><trkpt lat="42.11530963924528" lon="11.948013731469699"><ele>369.0</ele><time>2026-04-18T10:54:59.001Z</time></trkpt><trkpt lat="42.11534131405186" lon="11.94810398350201"><ele>369.0</ele><time>2026-04-18T10:55:00.001Z</time></trkpt><trkpt lat="42.11537185618665" lon="11.948189430427767"><ele>369.0</ele><time>2026-04-18T10:55:01.001Z</time></trkpt><trkpt lat="42.115408128654785" lon="11.94826128619542"><ele>368.0</ele><time>2026-04-18T10:55:02.001Z</time></trkpt><trkpt lat="42.11546553400093" lon="11.948377261726376"><ele>367.0</ele><time>2026-04-18T10:55:04.001Z</time></trkpt><trkpt lat="42.11550423179961" lon="11.948488283662561"><ele>366.0</ele><time>2026-04-18T10:55:06.001Z</time></trkpt><trkpt lat="42.1155590685197" lon="11.948596433463033"><ele>365.0</ele><time>2026-04-18T10:55:08.001Z</time></trkpt><trkpt lat="42.11557904335942" lon="11.948706858170521"><ele>364.0</ele><time>2026-04-18T10:55:10.001Z</time></trkpt><trkpt lat="42.115611434909525" lon="11.948826311759737"><ele>364.0</ele><time>2026-04-18T10:55:12.001Z</time></trkpt><trkpt lat="42.115630777676664" lon="11.948911934583993"><ele>364.0</ele><time>2026-04-18T10:55:13.001Z</time></trkpt><trkpt lat="42.11565270968099" lon="11.949055763452371"><ele>364.0</ele><time>2026-04-18T10:55:15.001Z</time></trkpt><trkpt lat="42.11565234330925" lon="11.94921204428301"><ele>364.0</ele><time>2026-04-18T10:55:17.001Z</time></trkpt><trkpt lat="42.11564739171017" lon="11.949369450531375"><ele>364.0</ele><time>2026-04-18T10:55:19.001Z</time></trkpt><trkpt lat="42.115632713240934" lon="11.94947597041816"><ele>362.3333333333333</ele><time>2026-04-18T10:55:20.001Z</time></trkpt><trkpt lat="42.115612300204326" lon="11.949583312982384"><ele>360.66666666666663</ele><time>2026-04-18T10:55:21.001Z</time></trkpt><trkpt lat="42.115592299836344" lon="11.949702444536747"><ele>359.0</ele><time>2026-04-18T10:55:22.001Z</time></trkpt><trkpt lat="42.115572597581654" lon="11.949807495066294"><ele>357.3333333333333</ele><time>2026-04-18T10:55:23.001Z</time></trkpt><trkpt lat="42.11555453631454" lon="11.949896714361087"><ele>355.6666666666667</ele><time>2026-04-18T10:55:24.001Z</time></trkpt><trkpt lat="42.115536498069936" lon="11.949993226732072"><ele>354.0</ele><time>2026-04-18T10:55:25.001Z</time></trkpt><trkpt lat="42.11551087644631" lon="11.950086962125807"><ele>353.2</ele><time>2026-04-18T10:55:26.001Z</time></trkpt><trkpt lat="42.115513905717684" lon="11.950238724826145"><ele>352.4</ele><time>2026-04-18T10:55:28.001Z</time></trkpt><trkpt lat="42.11563224805688" lon="11.950315322585222"><ele>351.6</ele><time>2026-04-18T10:55:30.001Z</time></trkpt><trkpt lat="42.1157203577599" lon="11.950339392060187"><ele>350.8</ele><time>2026-04-18T10:55:31.001Z</time></trkpt><trkpt lat="42.11580747898581" lon="11.950365868137412"><ele>350.0</ele><time>2026-04-18T10:55:32.001Z</time></trkpt><trkpt lat="42.11588071174703" lon="11.95039877788417"><ele>351.8</ele><time>2026-04-18T10:55:33.001Z</time></trkpt><trkpt lat="42.11594111082477" lon="11.95043338630747"><ele>353.6</ele><time>2026-04-18T10:55:34.001Z</time></trkpt><trkpt lat="42.116062836148636" lon="11.950497004156533"><ele>355.4</ele><time>2026-04-18T10:55:36.001Z</time></trkpt><trkpt lat="42.116184730971526" lon="11.950516688525203"><ele>357.2</ele><time>2026-04-18T10:55:38.001Z</time></trkpt><trkpt lat="42.116297250075306" lon="11.950499526538135"><ele>359.0</ele><time>2026-04-18T10:55:40.001Z</time></trkpt><trkpt lat="42.11636676128646" lon="11.950477516951175"><ele>359.0</ele><time>2026-04-18T10:55:41.001Z</time></trkpt><trkpt lat="42.11647448021416" lon="11.950491134809914"><ele>359.0</ele><time>2026-04-18T10:55:43.001Z</time></trkpt><trkpt lat="42.11661421449907" lon="11.950530502033565"><ele>359.0</ele><time>2026-04-18T10:55:45.001Z</time></trkpt><trkpt lat="42.11670027701536" lon="11.950536626506441"><ele>359.0</ele><time>2026-04-18T10:55:46.002Z</time></trkpt><trkpt lat="42.116780666197386" lon="11.95055207238491"><ele>359.0</ele><time>2026-04-18T10:55:47.002Z</time></trkpt><trkpt lat="42.116858160233164" lon="11.950591281030498"><ele>359.1666666666667</ele><time>2026-04-18T10:55:48.002Z</time></trkpt><trkpt lat="42.116935844505655" lon="11.95063425475198"><ele>359.33333333333337</ele><time>2026-04-18T10:55:49.002Z</time></trkpt><trkpt lat="42.11700639110501" lon="11.950640440253775"><ele>359.5</ele><time>2026-04-18T10:55:50.002Z</time></trkpt><trkpt lat="42.11707054662285" lon="11.950625844472908"><ele>359.6666666666667</ele><time>2026-04-18T10:55:51.002Z</time></trkpt><trkpt lat="42.117205638921654" lon="11.950639662515433"><ele>359.8333333333333</ele><time>2026-04-18T10:55:53.002Z</time></trkpt><trkpt lat="42.11726990014223" lon="11.950676733198598"><ele>360.0</ele><time>2026-04-18T10:55:54.002Z</time></trkpt><trkpt lat="42.117329147870294" lon="11.950720439672788"><ele>359.75</ele><time>2026-04-18T10:55:55.002Z</time></trkpt><trkpt lat="42.117450871478106" lon="11.950736298684644"><ele>359.5</ele><time>2026-04-18T10:55:57.002Z</time></trkpt><trkpt lat="42.11755788463844" lon="11.95077129832279"><ele>359.25</ele><time>2026-04-18T10:55:59.002Z</time></trkpt><trkpt lat="42.11761621358174" lon="11.950879985907951"><ele>359.0</ele><time>2026-04-18T10:56:01.002Z</time></trkpt><trkpt lat="42.11758239751915" lon="11.9510641653086"><ele>359.0</ele><time>2026-04-18T10:56:03.002Z</time></trkpt><trkpt lat="42.117570106824815" lon="11.951173161174808"><ele>359.0</ele><time>2026-04-18T10:56:04.002Z</time></trkpt><trkpt lat="42.117553433914445" lon="11.951284690796172"><ele>359.0</ele><time>2026-04-18T10:56:05.002Z</time></trkpt><trkpt lat="42.117556248451955" lon="11.951376473546894"><ele>359.0</ele><time>2026-04-18T10:56:06.002Z</time></trkpt><trkpt lat="42.117565234051845" lon="11.951468138992082"><ele>359.0</ele><time>2026-04-18T10:56:07.002Z</time></trkpt><trkpt lat="42.117651476294924" lon="11.951568412685734"><ele>359.0</ele><time>2026-04-18T10:56:09.002Z</time></trkpt><trkpt lat="42.117719408375656" lon="11.95160775202497"><ele>359.0</ele><time>2026-04-18T10:56:10.002Z</time></trkpt><trkpt lat="42.11779830463108" lon="11.951647354291083"><ele>359.0</ele><time>2026-04-18T10:56:11.002Z</time></trkpt><trkpt lat="42.1179084838011" lon="11.951684680909386"><ele>359.0</ele><time>2026-04-18T10:56:12.002Z</time></trkpt><trkpt lat="42.117999003560904" lon="11.951706058021538"><ele>359.0</ele><time>2026-04-18T10:56:13.002Z</time></trkpt><trkpt lat="42.1180890697918" lon="11.951713980451201"><ele>359.0</ele><time>2026-04-18T10:56:14.002Z</time></trkpt><trkpt lat="42.118179416019025" lon="11.951731118951487"><ele>359.1666666666667</ele><time>2026-04-18T10:56:15.002Z</time></trkpt><trkpt lat="42.118256773892064" lon="11.951752641422361"><ele>359.33333333333337</ele><time>2026-04-18T10:56:16.002Z</time></trkpt><trkpt lat="42.1183347319208" lon="11.951785796683597"><ele>359.5</ele><time>2026-04-18T10:56:17.002Z</time></trkpt><trkpt lat="42.11839868926841" lon="11.951822029144767"><ele>359.6666666666667</ele><time>2026-04-18T10:56:18.002Z</time></trkpt><trkpt lat="42.118475902356515" lon="11.95186750190576"><ele>359.8333333333333</ele><time>2026-04-18T10:56:19.002Z</time></trkpt><trkpt lat="42.118545818472114" lon="11.951922817087175"><ele>360.0</ele><time>2026-04-18T10:56:20.002Z</time></trkpt><trkpt lat="42.11865762372759" lon="11.951998867420683"><ele>360.0</ele><time>2026-04-18T10:56:22.002Z</time></trkpt><trkpt lat="42.11871208644465" lon="11.952041933668035"><ele>360.0</ele><time>2026-04-18T10:56:23.002Z</time></trkpt><trkpt lat="42.11878307345253" lon="11.95209382502637"><ele>360.0</ele><time>2026-04-18T10:56:24.002Z</time></trkpt><trkpt lat="42.11883506287357" lon="11.952170326909654"><ele>360.0</ele><time>2026-04-18T10:56:25.002Z</time></trkpt><trkpt lat="42.118895167361174" lon="11.952264350759993"><ele>360.0</ele><time>2026-04-18T10:56:26.002Z</time></trkpt><trkpt lat="42.118950845779494" lon="11.952378996517192"><ele>360.0</ele><time>2026-04-18T10:56:27.002Z</time></trkpt><trkpt lat="42.11899017060232" lon="11.95246343682344"><ele>360.0</ele><time>2026-04-18T10:56:28.002Z</time></trkpt><trkpt lat="42.119017719698526" lon="11.952542886875099"><ele>360.0</ele><time>2026-04-18T10:56:29.002Z</time></trkpt><trkpt lat="42.11908080271132" lon="11.952685365561752"><ele>360.0</ele><time>2026-04-18T10:56:31.002Z</time></trkpt><trkpt lat="42.11912358138559" lon="11.952830550407944"><ele>360.0</ele><time>2026-04-18T10:56:33.002Z</time></trkpt><trkpt lat="42.1191310607755" lon="11.95296119461676"><ele>360.0</ele><time>2026-04-18T10:56:35.002Z</time></trkpt><trkpt lat="42.11904723135755" lon="11.953087787575441"><ele>360.0</ele><time>2026-04-18T10:56:37.002Z</time></trkpt><trkpt lat="42.118991991828565" lon="11.95313000748232"><ele>360.0</ele><time>2026-04-18T10:56:38.002Z</time></trkpt><trkpt lat="42.11889062534376" lon="11.953181342125673"><ele>360.0</ele><time>2026-04-18T10:56:40.002Z</time></trkpt><trkpt lat="42.11883120147299" lon="11.953221092756714"><ele>360.0</ele><time>2026-04-18T10:56:41.002Z</time></trkpt><trkpt lat="42.118728138746825" lon="11.953243097587771"><ele>360.0</ele><time>2026-04-18T10:56:43.002Z</time></trkpt><trkpt lat="42.118657170680045" lon="11.953283679253971"><ele>360.0</ele><time>2026-04-18T10:56:44Z</time></trkpt><trkpt lat="42.11857055536268" lon="11.953318339100168"><ele>360.0</ele><time>2026-04-18T10:56:45Z</time></trkpt><trkpt lat="42.1184865681927" lon="11.953344756339158"><ele>360.0</ele><time>2026-04-18T10:56:46Z</time></trkpt><trkpt lat="42.11841227371744" lon="11.953387247034795"><ele>360.0</ele><time>2026-04-18T10:56:47Z</time></trkpt><trkpt lat="42.11834171721069" lon="11.953456545938392"><ele>360.0</ele><time>2026-04-18T10:56:48Z</time></trkpt><trkpt lat="42.11827615764204" lon="11.953511310345311"><ele>360.0</ele><time>2026-04-18T10:56:49Z</time></trkpt><trkpt lat="42.118218300455844" lon="11.953577067223307"><ele>360.0</ele><time>2026-04-18T10:56:50Z</time></trkpt><trkpt lat="42.118174107066025" lon="11.9536474267348"><ele>360.5</ele><time>2026-04-18T10:56:51Z</time></trkpt><trkpt lat="42.11815114106437" lon="11.953740753348582"><ele>361.0</ele><time>2026-04-18T10:56:52Z</time></trkpt><trkpt lat="42.11815783340685" lon="11.953866262423858"><ele>361.5</ele><time>2026-04-18T10:56:53Z</time></trkpt><trkpt lat="42.11816409970094" lon="11.953963576613491"><ele>362.0</ele><time>2026-04-18T10:56:54Z</time></trkpt><trkpt lat="42.118139942421976" lon="11.954057197404172"><ele>362.5</ele><time>2026-04-18T10:56:55Z</time></trkpt><trkpt lat="42.11813827147791" lon="11.954176837477585"><ele>363.0</ele><time>2026-04-18T10:56:56Z</time></trkpt><trkpt lat="42.118142945030044" lon="11.954298725976292"><ele>363.3333333333333</ele><time>2026-04-18T10:56:57Z</time></trkpt><trkpt lat="42.11814764312733" lon="11.954416924647361"><ele>363.6666666666667</ele><time>2026-04-18T10:56:58Z</time></trkpt><trkpt lat="42.11814660635873" lon="11.954503329820355"><ele>364.0</ele><time>2026-04-18T10:56:59Z</time></trkpt><trkpt lat="42.11815446455587" lon="11.954610986164225"><ele>364.33333333333337</ele><time>2026-04-18T10:57:00Z</time></trkpt><trkpt lat="42.11816878638149" lon="11.954740312298249"><ele>364.6666666666667</ele><time>2026-04-18T10:57:01Z</time></trkpt><trkpt lat="42.11818610098164" lon="11.954844508500276"><ele>365.0</ele><time>2026-04-18T10:57:02Z</time></trkpt><trkpt lat="42.11820391495407" lon="11.954932723656185"><ele>364.0</ele><time>2026-04-18T10:57:03Z</time></trkpt><trkpt lat="42.11824094475217" lon="11.955062421054846"><ele>363.0</ele><time>2026-04-18T10:57:05Z</time></trkpt><trkpt lat="42.118280049661124" lon="11.955147960306938"><ele>362.0</ele><time>2026-04-18T10:57:08Z</time></trkpt><trkpt lat="42.11833438388014" lon="11.9552235732507"><ele>361.0</ele><time>2026-04-18T10:57:10Z</time></trkpt><trkpt lat="42.11839060816304" lon="11.955262738434575"><ele>360.0</ele><time>2026-04-18T10:57:12Z</time></trkpt><trkpt lat="42.11845942911144" lon="11.955324718214891"><ele>359.0</ele><time>2026-04-18T10:57:15Z</time></trkpt><trkpt lat="42.11852723064499" lon="11.955359495450208"><ele>359.0</ele><time>2026-04-18T10:57:18.001Z</time></trkpt><trkpt lat="42.11860489771822" lon="11.9554224314862"><ele>359.0</ele><time>2026-04-18T10:58:22.002Z</time></trkpt><trkpt lat="42.118667382154484" lon="11.95545286219728"><ele>359.0</ele><time>2026-04-18T10:58:25.002Z</time></trkpt><trkpt lat="42.11872765665939" lon="11.955514449212702"><ele>359.0</ele><time>2026-04-18T10:59:38.001Z</time></trkpt><trkpt lat="42.118804734565124" lon="11.95556673854838"><ele>359.0</ele><time>2026-04-18T10:59:40.001Z</time></trkpt><trkpt lat="42.11889649249805" lon="11.95563359141199"><ele>359.0</ele><time>2026-04-18T10:59:42.001Z</time></trkpt><trkpt lat="42.11897161766225" lon="11.955687955153387"><ele>359.0</ele><time>2026-04-18T10:59:44.001Z</time></trkpt><trkpt lat="42.119029078554846" lon="11.955744611742261"><ele>359.0</ele><time>2026-04-18T10:59:46.001Z</time></trkpt><trkpt lat="42.11908615631765" lon="11.955788853656314"><ele>359.0</ele><time>2026-04-18T10:59:48.001Z</time></trkpt><trkpt lat="42.119132175552714" lon="11.955877703695473"><ele>359.0</ele><time>2026-04-18T10:59:50.001Z</time></trkpt><trkpt lat="42.11922631303958" lon="11.955946356104585"><ele>359.0</ele><time>2026-04-18T10:59:52.001Z</time></trkpt><trkpt lat="42.119319856201365" lon="11.956025553455795"><ele>359.0</ele><time>2026-04-18T10:59:54.001Z</time></trkpt><trkpt lat="42.11941310158052" lon="11.956063220105491"><ele>357.2</ele><time>2026-04-18T10:59:56.001Z</time></trkpt><trkpt lat="42.11951376889094" lon="11.95610316819087"><ele>355.4</ele><time>2026-04-18T10:59:58.001Z</time></trkpt><trkpt lat="42.11957189992907" lon="11.956137201895837"><ele>353.6</ele><time>2026-04-18T11:00:01.001Z</time></trkpt><trkpt lat="42.11965295956797" lon="11.956198776854558"><ele>351.8</ele><time>2026-04-18T11:00:04.001Z</time></trkpt><trkpt lat="42.11971687051485" lon="11.956265099399248"><ele>350.0</ele><time>2026-04-18T11:00:06.001Z</time></trkpt><trkpt lat="42.11982469509533" lon="11.95633485620488"><ele>350.0</ele><time>2026-04-18T11:00:08.001Z</time></trkpt><trkpt lat="42.11988612695998" lon="11.956380043182572"><ele>350.0</ele><time>2026-04-18T11:00:09.001Z</time></trkpt><trkpt lat="42.11996760549812" lon="11.956451966626881"><ele>350.0</ele><time>2026-04-18T11:00:11.001Z</time></trkpt><trkpt lat="42.12004939824383" lon="11.956504162006723"><ele>350.0</ele><time>2026-04-18T11:00:13.001Z</time></trkpt><trkpt lat="42.120132230539056" lon="11.956545057336697"><ele>350.0</ele><time>2026-04-18T11:00:15.001Z</time></trkpt><trkpt lat="42.12023055718224" lon="11.956593808317962"><ele>348.0</ele><time>2026-04-18T11:00:17.001Z</time></trkpt><trkpt lat="42.12030559542203" lon="11.956617593524395"><ele>346.0</ele><time>2026-04-18T11:00:19.001Z</time></trkpt><trkpt lat="42.12040541563032" lon="11.956613984036233"><ele>344.0</ele><time>2026-04-18T11:00:22.001Z</time></trkpt><trkpt lat="42.120478916066816" lon="11.956645848646506"><ele>342.0</ele><time>2026-04-18T11:00:24.001Z</time></trkpt><trkpt lat="42.120549902753616" lon="11.956705798586114"><ele>340.0</ele><time>2026-04-18T11:00:26.001Z</time></trkpt><trkpt lat="42.12059062932569" lon="11.956785967873248"><ele>338.0</ele><time>2026-04-18T11:00:28.001Z</time></trkpt><trkpt lat="42.12059290626195" lon="11.95688614096543"><ele>337.5</ele><time>2026-04-18T11:00:30.001Z</time></trkpt><trkpt lat="42.12055345497006" lon="11.95698849407811"><ele>337.0</ele><time>2026-04-18T11:00:32.002Z</time></trkpt><trkpt lat="42.12049131722302" lon="11.957117236249646"><ele>336.5</ele><time>2026-04-18T11:00:34.002Z</time></trkpt><trkpt lat="42.12046793972231" lon="11.957204255008149"><ele>336.0</ele><time>2026-04-18T11:00:35.002Z</time></trkpt><trkpt lat="42.12045642111652" lon="11.957319275759177"><ele>335.5</ele><time>2026-04-18T11:00:37.002Z</time></trkpt><trkpt lat="42.12047494707156" lon="11.95743785362528"><ele>335.0</ele><time>2026-04-18T11:00:46.002Z</time></trkpt><trkpt lat="42.120455686680856" lon="11.957620613618682"><ele>335.0</ele><time>2026-04-18T11:00:48.002Z</time></trkpt><trkpt lat="42.120439206989964" lon="11.95774253850338"><ele>335.0</ele><time>2026-04-18T11:00:49.002Z</time></trkpt><trkpt lat="42.120431077843186" lon="11.9578856188416"><ele>335.0</ele><time>2026-04-18T11:00:50.002Z</time></trkpt><trkpt lat="42.120394260397276" lon="11.95802839679307"><ele>335.0</ele><time>2026-04-18T11:00:51.002Z</time></trkpt><trkpt lat="42.12038450779939" lon="11.958179793486648"><ele>335.0</ele><time>2026-04-18T11:00:52.002Z</time></trkpt><trkpt lat="42.120378081709774" lon="11.958320073296585"><ele>336.2</ele><time>2026-04-18T11:00:53.002Z</time></trkpt><trkpt lat="42.120382328492624" lon="11.958460132877084"><ele>337.4</ele><time>2026-04-18T11:00:54.002Z</time></trkpt><trkpt lat="42.12041406678967" lon="11.958579493641373"><ele>338.6</ele><time>2026-04-18T11:00:55.002Z</time></trkpt><trkpt lat="42.12043035890802" lon="11.958713166243975"><ele>339.8</ele><time>2026-04-18T11:00:56Z</time></trkpt><trkpt lat="42.120476315388885" lon="11.958830212311362"><ele>341.0</ele><time>2026-04-18T11:00:57Z</time></trkpt><trkpt lat="42.12054586962417" lon="11.958945365787551"><ele>341.0</ele><time>2026-04-18T11:00:58Z</time></trkpt><trkpt lat="42.1206213464067" lon="11.959055177870379"><ele>341.0</ele><time>2026-04-18T11:00:59Z</time></trkpt><trkpt lat="42.12065774383939" lon="11.959183932922809"><ele>341.0</ele><time>2026-04-18T11:01:00Z</time></trkpt><trkpt lat="42.12068153207592" lon="11.959312586001527"><ele>341.0</ele><time>2026-04-18T11:01:01Z</time></trkpt><trkpt lat="42.120677041757475" lon="11.95944643149147"><ele>341.0</ele><time>2026-04-18T11:01:02Z</time></trkpt><trkpt lat="42.1206392305064" lon="11.959578599000558"><ele>341.5</ele><time>2026-04-18T11:01:03Z</time></trkpt><trkpt lat="42.12058329605144" lon="11.959717619645394"><ele>342.0</ele><time>2026-04-18T11:01:04Z</time></trkpt><trkpt lat="42.12052412087129" lon="11.959868315022625"><ele>342.5</ele><time>2026-04-18T11:01:05Z</time></trkpt><trkpt lat="42.1204710502661" lon="11.960020454359324"><ele>343.0</ele><time>2026-04-18T11:01:06Z</time></trkpt><trkpt lat="42.12044138249691" lon="11.960179701569999"><ele>340.75</ele><time>2026-04-18T11:01:07Z</time></trkpt><trkpt lat="42.120481832523446" lon="11.960331037772361"><ele>338.5</ele><time>2026-04-18T11:01:08Z</time></trkpt><trkpt lat="42.120533716608236" lon="11.960480074164336"><ele>336.25</ele><time>2026-04-18T11:01:09Z</time></trkpt><trkpt lat="42.120586866134055" lon="11.960613613883789"><ele>334.0</ele><time>2026-04-18T11:01:10Z</time></trkpt><trkpt lat="42.120602384999046" lon="11.960753080246178"><ele>332.6</ele><time>2026-04-18T11:01:11Z</time></trkpt><trkpt lat="42.120588930615" lon="11.96088806501681"><ele>331.2</ele><time>2026-04-18T11:01:12Z</time></trkpt><trkpt lat="42.12054053019939" lon="11.961006348043671"><ele>329.8</ele><time>2026-04-18T11:01:13Z</time></trkpt><trkpt lat="42.12046399299001" lon="11.961077251779402"><ele>328.40000000000003</ele><time>2026-04-18T11:01:14Z</time></trkpt><trkpt lat="42.12037798118132" lon="11.961090329013722"><ele>327.0</ele><time>2026-04-18T11:01:15Z</time></trkpt><trkpt lat="42.12027539026036" lon="11.961140016649095"><ele>327.0</ele><time>2026-04-18T11:01:16Z</time></trkpt><trkpt lat="42.12015899915874" lon="11.961190870786284"><ele>327.0</ele><time>2026-04-18T11:01:17Z</time></trkpt><trkpt lat="42.120063511010045" lon="11.961249462904226"><ele>327.0</ele><time>2026-04-18T11:01:18Z</time></trkpt><trkpt lat="42.119982273422984" lon="11.961323589254924"><ele>327.0</ele><time>2026-04-18T11:01:19Z</time></trkpt><trkpt lat="42.1199403895303" lon="11.961454259511951"><ele>327.0</ele><time>2026-04-18T11:01:20Z</time></trkpt><trkpt lat="42.11992977602451" lon="11.961582705340172"><ele>326.25</ele><time>2026-04-18T11:01:21Z</time></trkpt><trkpt lat="42.11995447350327" lon="11.961718934230245"><ele>325.5</ele><time>2026-04-18T11:01:22Z</time></trkpt><trkpt lat="42.12000818634581" lon="11.961869607216896"><ele>324.75</ele><time>2026-04-18T11:01:23Z</time></trkpt><trkpt lat="42.12007084728248" lon="11.96201703204893"><ele>324.0</ele><time>2026-04-18T11:01:24Z</time></trkpt><trkpt lat="42.12009350199931" lon="11.962171196815943"><ele>324.0</ele><time>2026-04-18T11:01:25Z</time></trkpt><trkpt lat="42.12002235382707" lon="11.962301264125932"><ele>324.0</ele><time>2026-04-18T11:01:26Z</time></trkpt><trkpt lat="42.11994971310578" lon="11.962414104026397"><ele>324.0</ele><time>2026-04-18T11:01:27Z</time></trkpt><trkpt lat="42.11984862227393" lon="11.962485734945119"><ele>324.0</ele><time>2026-04-18T11:01:28Z</time></trkpt><trkpt lat="42.11972980385516" lon="11.962583334270702"><ele>328.25</ele><time>2026-04-18T11:01:29Z</time></trkpt><trkpt lat="42.119635153090165" lon="11.96272320891914"><ele>332.5</ele><time>2026-04-18T11:01:30Z</time></trkpt><trkpt lat="42.11954700015669" lon="11.96286484374342"><ele>336.75</ele><time>2026-04-18T11:01:31Z</time></trkpt><trkpt lat="42.11950528022959" lon="11.9630372820247"><ele>341.0</ele><time>2026-04-18T11:01:32Z</time></trkpt><trkpt lat="42.11948739333722" lon="11.963204760489955"><ele>342.75</ele><time>2026-04-18T11:01:33Z</time></trkpt><trkpt lat="42.11949944155526" lon="11.963379067737849"><ele>344.5</ele><time>2026-04-18T11:01:34Z</time></trkpt><trkpt lat="42.119535226154944" lon="11.963549417360317"><ele>346.25</ele><time>2026-04-18T11:01:35Z</time></trkpt><trkpt lat="42.11958124121723" lon="11.963719990536852"><ele>348.0</ele><time>2026-04-18T11:01:36Z</time></trkpt><trkpt lat="42.119634462854144" lon="11.963890295108762"><ele>348.0</ele><time>2026-04-18T11:01:37Z</time></trkpt><trkpt lat="42.11968880033792" lon="11.964063619455048"><ele>348.0</ele><time>2026-04-18T11:01:38.001Z</time></trkpt><trkpt lat="42.11974415192382" lon="11.96424395883678"><ele>348.0</ele><time>2026-04-18T11:01:39.001Z</time></trkpt><trkpt lat="42.11980216857175" lon="11.9644202235715"><ele>348.0</ele><time>2026-04-18T11:01:40.001Z</time></trkpt><trkpt lat="42.11987367429768" lon="11.964588516243861"><ele>346.75</ele><time>2026-04-18T11:01:41.001Z</time></trkpt><trkpt lat="42.119954541314456" lon="11.964736152881125"><ele>345.5</ele><time>2026-04-18T11:01:42.001Z</time></trkpt><trkpt lat="42.12004421842252" lon="11.96487753447697"><ele>344.25</ele><time>2026-04-18T11:01:43.001Z</time></trkpt><trkpt lat="42.12012782877129" lon="11.965017802361201"><ele>343.0</ele><time>2026-04-18T11:01:44.001Z</time></trkpt><trkpt lat="42.12016450642788" lon="11.965184998744485"><ele>346.0</ele><time>2026-04-18T11:01:45.001Z</time></trkpt><trkpt lat="42.12017490205823" lon="11.9653530666015"><ele>349.0</ele><time>2026-04-18T11:01:46.001Z</time></trkpt><trkpt lat="42.12015382685327" lon="11.965521182517172"><ele>352.0</ele><time>2026-04-18T11:01:47.001Z</time></trkpt><trkpt lat="42.12013766120613" lon="11.965685957487807"><ele>355.0</ele><time>2026-04-18T11:01:48.001Z</time></trkpt><trkpt lat="42.12016079858333" lon="11.965837801970432"><ele>358.0</ele><time>2026-04-18T11:01:49.001Z</time></trkpt><trkpt lat="42.12021393647229" lon="11.965991512901423"><ele>361.0</ele><time>2026-04-18T11:01:50.001Z</time></trkpt><trkpt lat="42.120299515560966" lon="11.966145624949405"><ele>364.0</ele><time>2026-04-18T11:01:51.001Z</time></trkpt><trkpt lat="42.12040385050825" lon="11.966294603228173"><ele>367.0</ele><time>2026-04-18T11:01:52.001Z</time></trkpt><trkpt lat="42.12049979333393" lon="11.966459184878989"><ele>367.0</ele><time>2026-04-18T11:01:53.001Z</time></trkpt><trkpt lat="42.12059167455019" lon="11.96664756819224"><ele>367.0</ele><time>2026-04-18T11:01:54.001Z</time></trkpt><trkpt lat="42.12067019008897" lon="11.96681344211596"><ele>367.0</ele><time>2026-04-18T11:01:55.001Z</time></trkpt><trkpt lat="42.12073600142524" lon="11.966960367203118"><ele>367.0</ele><time>2026-04-18T11:01:56.001Z</time></trkpt><trkpt lat="42.12077505934414" lon="11.967105274966418"><ele>362.25</ele><time>2026-04-18T11:01:57.001Z</time></trkpt><trkpt lat="42.12078589199113" lon="11.96725935117644"><ele>357.5</ele><time>2026-04-18T11:01:58.001Z</time></trkpt><trkpt lat="42.120786182220655" lon="11.967423303311225"><ele>352.75</ele><time>2026-04-18T11:01:59.001Z</time></trkpt><trkpt lat="42.120789161243245" lon="11.96762177949131"><ele>348.0</ele><time>2026-04-18T11:02:00.001Z</time></trkpt><trkpt lat="42.12079729535608" lon="11.967824211435639"><ele>347.5</ele><time>2026-04-18T11:02:01.001Z</time></trkpt><trkpt lat="42.120804142472466" lon="11.967995524654826"><ele>347.0</ele><time>2026-04-18T11:02:02.001Z</time></trkpt><trkpt lat="42.120807045597616" lon="11.968157439149701"><ele>346.5</ele><time>2026-04-18T11:02:03.001Z</time></trkpt><trkpt lat="42.12079439903389" lon="11.968307124717576"><ele>346.0</ele><time>2026-04-18T11:02:04.001Z</time></trkpt><trkpt lat="42.12075797812488" lon="11.968451515695921"><ele>347.0</ele><time>2026-04-18T11:02:05.001Z</time></trkpt><trkpt lat="42.120667571845765" lon="11.968563332736823"><ele>348.0</ele><time>2026-04-18T11:02:06.001Z</time></trkpt><trkpt lat="42.1205605856483" lon="11.968694814514262"><ele>349.0</ele><time>2026-04-18T11:02:07.001Z</time></trkpt><trkpt lat="42.12043749424149" lon="11.968833300061256"><ele>350.0</ele><time>2026-04-18T11:02:08.001Z</time></trkpt><trkpt lat="42.12031102630772" lon="11.968966622409427"><ele>350.0</ele><time>2026-04-18T11:02:09.001Z</time></trkpt><trkpt lat="42.12018957285096" lon="11.969087683373607"><ele>350.0</ele><time>2026-04-18T11:02:10.001Z</time></trkpt><trkpt lat="42.12007022429856" lon="11.969206646232605"><ele>350.0</ele><time>2026-04-18T11:02:11.001Z</time></trkpt><trkpt lat="42.11995428620251" lon="11.969349539682852"><ele>349.33333333333337</ele><time>2026-04-18T11:02:12.001Z</time></trkpt><trkpt lat="42.11983051996329" lon="11.969485468306384"><ele>348.6666666666667</ele><time>2026-04-18T11:02:13.001Z</time></trkpt><trkpt lat="42.11971807610508" lon="11.969637737238394"><ele>348.0</ele><time>2026-04-18T11:02:14.001Z</time></trkpt><trkpt lat="42.11961843711646" lon="11.96979317433011"><ele>348.0</ele><time>2026-04-18T11:02:15.001Z</time></trkpt><trkpt lat="42.11953158052519" lon="11.969959921428192"><ele>348.0</ele><time>2026-04-18T11:02:16.001Z</time></trkpt><trkpt lat="42.119455689248625" lon="11.970144435040849"><ele>348.0</ele><time>2026-04-18T11:02:17.001Z</time></trkpt><trkpt lat="42.11937105304892" lon="11.970321136521791"><ele>346.0</ele><time>2026-04-18T11:02:18.001Z</time></trkpt><trkpt lat="42.119316020795246" lon="11.970499676038232"><ele>344.0</ele><time>2026-04-18T11:02:19.001Z</time></trkpt><trkpt lat="42.11924962952114" lon="11.97065745909674"><ele>342.0</ele><time>2026-04-18T11:02:20.001Z</time></trkpt><trkpt lat="42.119170717011556" lon="11.970809420138297"><ele>340.0</ele><time>2026-04-18T11:02:21.001Z</time></trkpt><trkpt lat="42.11906704299552" lon="11.970939938094734"><ele>339.75</ele><time>2026-04-18T11:02:22.001Z</time></trkpt><trkpt lat="42.118963256961635" lon="11.971055398934972"><ele>339.5</ele><time>2026-04-18T11:02:23.001Z</time></trkpt><trkpt lat="42.11885325940481" lon="11.971192360613742"><ele>339.25</ele><time>2026-04-18T11:02:24.001Z</time></trkpt><trkpt lat="42.11871933315718" lon="11.971258826761762"><ele>339.0</ele><time>2026-04-18T11:02:25.001Z</time></trkpt><trkpt lat="42.118579294871154" lon="11.971303329273752"><ele>339.0</ele><time>2026-04-18T11:02:26.001Z</time></trkpt><trkpt lat="42.118431239458836" lon="11.97133440364983"><ele>339.0</ele><time>2026-04-18T11:02:27.001Z</time></trkpt><trkpt lat="42.118287927670686" lon="11.97136917545277"><ele>339.0</ele><time>2026-04-18T11:02:28.001Z</time></trkpt><trkpt lat="42.11815671002298" lon="11.971413584809554"><ele>339.0</ele><time>2026-04-18T11:02:29.001Z</time></trkpt><trkpt lat="42.11803032384591" lon="11.971490767867026"><ele>339.3333333333333</ele><time>2026-04-18T11:02:30.001Z</time></trkpt><trkpt lat="42.11790810549649" lon="11.971602888703359"><ele>339.66666666666663</ele><time>2026-04-18T11:02:31.001Z</time></trkpt><trkpt lat="42.1177740267745" lon="11.971707549468256"><ele>340.0</ele><time>2026-04-18T11:02:32.001Z</time></trkpt><trkpt lat="42.117646776487334" lon="11.971826826680813"><ele>340.0</ele><time>2026-04-18T11:02:33.001Z</time></trkpt><trkpt lat="42.117518860250584" lon="11.971971854789155"><ele>340.0</ele><time>2026-04-18T11:02:34.001Z</time></trkpt><trkpt lat="42.11738472243264" lon="11.972072259376297"><ele>340.0</ele><time>2026-04-18T11:02:35.001Z</time></trkpt><trkpt lat="42.11727057228963" lon="11.972176969393693"><ele>340.0</ele><time>2026-04-18T11:02:36.001Z</time></trkpt><trkpt lat="42.11717698836433" lon="11.972282539807587"><ele>340.0</ele><time>2026-04-18T11:02:37.001Z</time></trkpt><trkpt lat="42.11706767267675" lon="11.97236379516018"><ele>340.0</ele><time>2026-04-18T11:02:38.001Z</time></trkpt><trkpt lat="42.11695349587509" lon="11.972469125926958"><ele>340.0</ele><time>2026-04-18T11:02:39.001Z</time></trkpt><trkpt lat="42.11682804894764" lon="11.972578829878126"><ele>340.0</ele><time>2026-04-18T11:02:40.001Z</time></trkpt><trkpt lat="42.116701693473466" lon="11.972688495510384"><ele>340.0</ele><time>2026-04-18T11:02:41.001Z</time></trkpt><trkpt lat="42.11657886224011" lon="11.972790571797546"><ele>340.0</ele><time>2026-04-18T11:02:42.002Z</time></trkpt><trkpt lat="42.116461198921215" lon="11.972908185325155"><ele>340.0</ele><time>2026-04-18T11:02:43.002Z</time></trkpt><trkpt lat="42.11635728782627" lon="11.973052461087292"><ele>341.75</ele><time>2026-04-18T11:02:44.002Z</time></trkpt><trkpt lat="42.11627646785355" lon="11.973214965121032"><ele>343.5</ele><time>2026-04-18T11:02:45.002Z</time></trkpt><trkpt lat="42.11622543955345" lon="11.973371557681022"><ele>345.25</ele><time>2026-04-18T11:02:46.002Z</time></trkpt><trkpt lat="42.11617465827585" lon="11.97351274824802"><ele>347.0</ele><time>2026-04-18T11:02:47.002Z</time></trkpt><trkpt lat="42.116125253831456" lon="11.973637182916782"><ele>347.0</ele><time>2026-04-18T11:02:48.002Z</time></trkpt><trkpt lat="42.116075662428734" lon="11.973748643006621"><ele>347.0</ele><time>2026-04-18T11:02:49.002Z</time></trkpt><trkpt lat="42.1160064224362" lon="11.973840595252206"><ele>347.0</ele><time>2026-04-18T11:02:50.002Z</time></trkpt><trkpt lat="42.115948065257975" lon="11.97393185860502"><ele>347.0</ele><time>2026-04-18T11:02:51.002Z</time></trkpt><trkpt lat="42.115897520960196" lon="11.974005504222303"><ele>347.0</ele><time>2026-04-18T11:02:52.002Z</time></trkpt><trkpt lat="42.11584773566412" lon="11.974073106531346"><ele>347.0</ele><time>2026-04-18T11:02:55.002Z</time></trkpt><trkpt lat="42.11596734338132" lon="11.974247320845501"><ele>347.5</ele><time>2026-04-18T11:03:59.001Z</time></trkpt><trkpt lat="42.11597378168326" lon="11.974360027796058"><ele>348.0</ele><time>2026-04-18T11:04:03.001Z</time></trkpt><trkpt lat="42.11573564271848" lon="11.974224460104644"><ele>348.5</ele><time>2026-04-18T11:04:05.001Z</time></trkpt><trkpt lat="42.11567477781795" lon="11.974305707732462"><ele>349.0</ele><time>2026-04-18T11:04:08.001Z</time></trkpt><trkpt lat="42.11573011213379" lon="11.974465757833704"><ele>349.0</ele><time>2026-04-18T11:10:56.001Z</time></trkpt><trkpt lat="42.115694614081264" lon="11.97453899331883"><ele>349.0</ele><time>2026-04-18T11:57:51Z</time></trkpt><trkpt lat="42.11575362578019" lon="11.974584120333564"><ele>349.0</ele><time>2026-04-18T11:57:55Z</time></trkpt><trkpt lat="42.11579267952853" lon="11.974508317166661"><ele>349.0</ele><time>2026-04-18T11:58:30Z</time></trkpt><trkpt lat="42.11586192501592" lon="11.974421956975288"><ele>349.0</ele><time>2026-04-18T11:58:32Z</time></trkpt><trkpt lat="42.1159133429034" lon="11.974345200421123"><ele>349.0</ele><time>2026-04-18T11:58:35Z</time></trkpt><trkpt lat="42.115990537332316" lon="11.97430232334858"><ele>348.0</ele><time>2026-04-18T11:58:38Z</time></trkpt><trkpt lat="42.1160606442258" lon="11.974295213696678"><ele>347.0</ele><time>2026-04-18T11:58:41Z</time></trkpt><trkpt lat="42.11615564301387" lon="11.974289838820132"><ele>346.0</ele><time>2026-04-18T11:58:44Z</time></trkpt><trkpt lat="42.11623669106936" lon="11.974333773552068"><ele>345.0</ele><time>2026-04-18T11:58:47Z</time></trkpt><trkpt lat="42.11629298811759" lon="11.974391807627129"><ele>344.0</ele><time>2026-04-18T11:58:51Z</time></trkpt><trkpt lat="42.116356553736374" lon="11.974449985133242"><ele>343.0</ele><time>2026-04-18T11:59:03.001Z</time></trkpt><trkpt lat="42.11643161391082" lon="11.974520294143899"><ele>343.0</ele><time>2026-04-18T11:59:06.001Z</time></trkpt><trkpt lat="42.11650851387671" lon="11.974596413754142"><ele>343.0</ele><time>2026-04-18T11:59:09.001Z</time></trkpt><trkpt lat="42.116533270975125" lon="11.974690385456514"><ele>343.0</ele><time>2026-04-18T11:59:11.001Z</time></trkpt><trkpt lat="42.1165012991685" lon="11.974804369076208"><ele>343.0</ele><time>2026-04-18T11:59:14.001Z</time></trkpt><trkpt lat="42.116442754558854" lon="11.974861543306833"><ele>343.0</ele><time>2026-04-18T11:59:16.001Z</time></trkpt><trkpt lat="42.11638151246449" lon="11.974926262094229"><ele>343.0</ele><time>2026-04-18T11:59:18.001Z</time></trkpt><trkpt lat="42.11633154662916" lon="11.974987723235285"><ele>342.66666666666663</ele><time>2026-04-18T11:59:20.001Z</time></trkpt><trkpt lat="42.11627430439512" lon="11.975061915677347"><ele>342.3333333333333</ele><time>2026-04-18T11:59:23.001Z</time></trkpt><trkpt lat="42.11621408075293" lon="11.975138881476655"><ele>342.0</ele><time>2026-04-18T11:59:26.001Z</time></trkpt><trkpt lat="42.1161507268728" lon="11.975190068991424"><ele>341.6666666666667</ele><time>2026-04-18T11:59:31.001Z</time></trkpt><trkpt lat="42.11608364883097" lon="11.975206978756464"><ele>341.33333333333337</ele><time>2026-04-18T11:59:53.999Z</time></trkpt><trkpt lat="42.116036657935645" lon="11.975292795891434"><ele>341.0</ele><time>2026-04-18T12:07:06.001Z</time></trkpt><trkpt lat="42.1159607645396" lon="11.975277152353922"><ele>341.0</ele><time>2026-04-18T12:07:34.001Z</time></trkpt><trkpt lat="42.11588935519425" lon="11.975233768964705"><ele>341.0</ele><time>2026-04-18T12:08:00.002Z</time></trkpt><trkpt lat="42.11586461542059" lon="11.975322574202444"><ele>341.0</ele><time>2026-04-18T12:08:03.002Z</time></trkpt><trkpt lat="42.11591519037117" lon="11.975413964035123"><ele>341.0</ele><time>2026-04-18T12:08:06.002Z</time></trkpt><trkpt lat="42.11598390466624" lon="11.975407913583496"><ele>341.0</ele><time>2026-04-18T12:08:08Z</time></trkpt><trkpt lat="42.11605532124411" lon="11.975403366091617"><ele>341.0</ele><time>2026-04-18T12:08:10Z</time></trkpt><trkpt lat="42.11611528164397" lon="11.97536570057677"><ele>341.0</ele><time>2026-04-18T12:08:12Z</time></trkpt><trkpt lat="42.11614821186559" lon="11.97525972211368"><ele>341.0</ele><time>2026-04-18T12:08:15Z</time></trkpt><trkpt lat="42.11610185050294" lon="11.975166853766218"><ele>341.0</ele><time>2026-04-18T12:08:18Z</time></trkpt><trkpt lat="42.11609960780293" lon="11.975038275199243"><ele>341.0</ele><time>2026-04-18T12:14:34.001Z</time></trkpt><trkpt lat="42.11616581796927" lon="11.974989505732882"><ele>341.0</ele><time>2026-04-18T12:14:36.001Z</time></trkpt><trkpt lat="42.11625188927358" lon="11.974959733746466"><ele>341.0</ele><time>2026-04-18T12:14:38.001Z</time></trkpt><trkpt lat="42.116353848725424" lon="11.974921072871044"><ele>341.0</ele><time>2026-04-18T12:14:40.001Z</time></trkpt><trkpt lat="42.11642615320201" lon="11.974873698360751"><ele>341.33333333333337</ele><time>2026-04-18T12:14:42.001Z</time></trkpt><trkpt lat="42.11647807168757" lon="11.974822398120113"><ele>341.6666666666667</ele><time>2026-04-18T12:14:45.001Z</time></trkpt><trkpt lat="42.11654340209822" lon="11.974737149893155"><ele>342.0</ele><time>2026-04-18T12:14:48.001Z</time></trkpt><trkpt lat="42.11654608508963" lon="11.974638989628815"><ele>342.3333333333333</ele><time>2026-04-18T12:14:50.001Z</time></trkpt><trkpt lat="42.1164746647128" lon="11.974547047436344"><ele>342.66666666666663</ele><time>2026-04-18T12:14:52.001Z</time></trkpt><trkpt lat="42.116412746640215" lon="11.97449501997214"><ele>343.0</ele><time>2026-04-18T12:14:53.001Z</time></trkpt><trkpt lat="42.11634230800344" lon="11.974441149093897"><ele>343.0</ele><time>2026-04-18T12:14:54.001Z</time></trkpt><trkpt lat="42.116275475408685" lon="11.974388442609385"><ele>343.0</ele><time>2026-04-18T12:14:55.001Z</time></trkpt><trkpt lat="42.11611763495286" lon="11.974299085478203"><ele>343.0</ele><time>2026-04-18T12:14:58.001Z</time></trkpt><trkpt lat="42.116031456259094" lon="11.974310868163682"><ele>343.0</ele><time>2026-04-18T12:15:00.001Z</time></trkpt><trkpt lat="42.115961200878516" lon="11.97429225825383"><ele>343.0</ele><time>2026-04-18T12:15:02.001Z</time></trkpt><trkpt lat="42.1158962617646" lon="11.974222816369194"><ele>343.66666666666663</ele><time>2026-04-18T12:15:04.001Z</time></trkpt><trkpt lat="42.115874309743205" lon="11.97412650623226"><ele>344.3333333333333</ele><time>2026-04-18T12:15:07.001Z</time></trkpt><trkpt lat="42.11590421285324" lon="11.97401253740797"><ele>345.0</ele><time>2026-04-18T12:15:09.001Z</time></trkpt><trkpt lat="42.115948233212315" lon="11.973944534996683"><ele>345.6666666666667</ele><time>2026-04-18T12:15:10.001Z</time></trkpt><trkpt lat="42.11600424049486" lon="11.97386540886641"><ele>346.33333333333337</ele><time>2026-04-18T12:15:11.001Z</time></trkpt><trkpt lat="42.11608528262827" lon="11.973774227252026"><ele>347.0</ele><time>2026-04-18T12:15:12.001Z</time></trkpt><trkpt lat="42.11614799784975" lon="11.973639522997045"><ele>347.0</ele><time>2026-04-18T12:15:13.001Z</time></trkpt><trkpt lat="42.11620056259255" lon="11.97350107415317"><ele>347.0</ele><time>2026-04-18T12:15:14.001Z</time></trkpt><trkpt lat="42.11625292716015" lon="11.973362372858144"><ele>347.0</ele><time>2026-04-18T12:15:15.001Z</time></trkpt><trkpt lat="42.116306276729276" lon="11.973226615209448"><ele>347.0</ele><time>2026-04-18T12:15:16.001Z</time></trkpt><trkpt lat="42.11636080969021" lon="11.97308498664303"><ele>348.25</ele><time>2026-04-18T12:15:17.001Z</time></trkpt><trkpt lat="42.11644829248396" lon="11.972962166530326"><ele>349.5</ele><time>2026-04-18T12:15:18.001Z</time></trkpt><trkpt lat="42.11654427975832" lon="11.97285180270189"><ele>350.75</ele><time>2026-04-18T12:15:19.001Z</time></trkpt><trkpt lat="42.11665402452485" lon="11.972747946279718"><ele>352.0</ele><time>2026-04-18T12:15:20.001Z</time></trkpt><trkpt lat="42.11677116043961" lon="11.97264128662717"><ele>351.75</ele><time>2026-04-18T12:15:21.001Z</time></trkpt><trkpt lat="42.11690738500375" lon="11.972545993156837"><ele>351.5</ele><time>2026-04-18T12:15:22.001Z</time></trkpt><trkpt lat="42.11702409292286" lon="11.972445281407126"><ele>351.25</ele><time>2026-04-18T12:15:23.001Z</time></trkpt><trkpt lat="42.11712371010717" lon="11.972335146182626"><ele>351.0</ele><time>2026-04-18T12:15:24.001Z</time></trkpt><trkpt lat="42.117232799689084" lon="11.972253067892968"><ele>351.0</ele><time>2026-04-18T12:15:25.001Z</time></trkpt><trkpt lat="42.117340876426574" lon="11.972158502201957"><ele>351.0</ele><time>2026-04-18T12:15:26.001Z</time></trkpt><trkpt lat="42.11744957511274" lon="11.972063542036068"><ele>351.0</ele><time>2026-04-18T12:15:27.001Z</time></trkpt><trkpt lat="42.1175466299097" lon="11.971970527035888"><ele>351.0</ele><time>2026-04-18T12:15:28.001Z</time></trkpt><trkpt lat="42.117636440577485" lon="11.97188108708936"><ele>351.75</ele><time>2026-04-18T12:15:29.001Z</time></trkpt><trkpt lat="42.11772907160142" lon="11.97179364430382"><ele>352.5</ele><time>2026-04-18T12:15:30.001Z</time></trkpt><trkpt lat="42.11782501213412" lon="11.97169613416719"><ele>353.25</ele><time>2026-04-18T12:15:31.001Z</time></trkpt><trkpt lat="42.11792209595926" lon="11.971601352623248"><ele>354.0</ele><time>2026-04-18T12:15:32.001Z</time></trkpt><trkpt lat="42.118016444980995" lon="11.971525910677283"><ele>354.0</ele><time>2026-04-18T12:15:33.001Z</time></trkpt><trkpt lat="42.11810867111273" lon="11.971463255549683"><ele>354.0</ele><time>2026-04-18T12:15:34.001Z</time></trkpt><trkpt lat="42.11820423457005" lon="11.971413136977647"><ele>354.0</ele><time>2026-04-18T12:15:35.001Z</time></trkpt><trkpt lat="42.11829962363755" lon="11.971379570539963"><ele>354.0</ele><time>2026-04-18T12:15:36.001Z</time></trkpt><trkpt lat="42.11838181299769" lon="11.971368135210147"><ele>354.0</ele><time>2026-04-18T12:15:37.001Z</time></trkpt><trkpt lat="42.118447912861484" lon="11.971360501515235"><ele>351.5</ele><time>2026-04-18T12:15:38.001Z</time></trkpt><trkpt lat="42.11856532963084" lon="11.97133078650639"><ele>349.0</ele><time>2026-04-18T12:15:40.001Z</time></trkpt><trkpt lat="42.11863095613918" lon="11.971303760479756"><ele>346.5</ele><time>2026-04-18T12:15:41.001Z</time></trkpt><trkpt lat="42.118703679110816" lon="11.97126323901836"><ele>344.0</ele><time>2026-04-18T12:15:42.001Z</time></trkpt><trkpt lat="42.118780666563744" lon="11.971215689306241"><ele>341.5</ele><time>2026-04-18T12:15:43.001Z</time></trkpt><trkpt lat="42.1188585148536" lon="11.971168752390096"><ele>339.0</ele><time>2026-04-18T12:15:44.001Z</time></trkpt><trkpt lat="42.11892780456798" lon="11.97112311424343"><ele>339.0</ele><time>2026-04-18T12:15:45.001Z</time></trkpt><trkpt lat="42.118982559928995" lon="11.971078260766083"><ele>339.0</ele><time>2026-04-18T12:15:46.001Z</time></trkpt><trkpt lat="42.11904349805022" lon="11.971019964792092"><ele>339.0</ele><time>2026-04-18T12:15:49.001Z</time></trkpt><trkpt lat="42.11909952994898" lon="11.970945694346852"><ele>339.0</ele><time>2026-04-18T12:15:53.001Z</time></trkpt><trkpt lat="42.119151818102374" lon="11.970873805135419"><ele>339.0</ele><time>2026-04-18T12:15:56.001Z</time></trkpt><trkpt lat="42.119101479883916" lon="11.970957242676176"><ele>339.0</ele><time>2026-04-18T12:16:10.001Z</time></trkpt><trkpt lat="42.11904777940973" lon="11.971023538893004"><ele>339.0</ele><time>2026-04-18T12:16:12.001Z</time></trkpt><trkpt lat="42.118986158231976" lon="11.971085179941918"><ele>339.0</ele><time>2026-04-18T12:16:14.001Z</time></trkpt><trkpt lat="42.11892305464642" lon="11.971137216809684"><ele>339.0</ele><time>2026-04-18T12:16:16.001Z</time></trkpt><trkpt lat="42.118862082409564" lon="11.971178477117904"><ele>339.0</ele><time>2026-04-18T12:16:18.001Z</time></trkpt><trkpt lat="42.11879347946659" lon="11.97121842177813"><ele>339.0</ele><time>2026-04-18T12:16:20.001Z</time></trkpt><trkpt lat="42.118721687285294" lon="11.971257594493835"><ele>339.0</ele><time>2026-04-18T12:16:22.001Z</time></trkpt><trkpt lat="42.11865019050449" lon="11.97129228493391"><ele>339.0</ele><time>2026-04-18T12:16:24.001Z</time></trkpt><trkpt lat="42.11856706078249" lon="11.971328949322869"><ele>339.0</ele><time>2026-04-18T12:16:26.001Z</time></trkpt><trkpt lat="42.118476838657315" lon="11.971359105078658"><ele>339.0</ele><time>2026-04-18T12:16:28.001Z</time></trkpt><trkpt lat="42.118363248957074" lon="11.971380011151037"><ele>339.0</ele><time>2026-04-18T12:16:30.001Z</time></trkpt><trkpt lat="42.118297831851486" lon="11.971392813430793"><ele>339.0</ele><time>2026-04-18T12:16:31.001Z</time></trkpt><trkpt lat="42.11822918278684" lon="11.971415166034106"><ele>339.0</ele><time>2026-04-18T12:16:31.998Z</time></trkpt><trkpt lat="42.118154547771866" lon="11.971417226717863"><ele>339.0</ele><time>2026-04-18T12:16:32.998Z</time></trkpt><trkpt lat="42.11808633187669" lon="11.971453975389823"><ele>339.2</ele><time>2026-04-18T12:16:33.998Z</time></trkpt><trkpt lat="42.11801890307213" lon="11.971498710228447"><ele>339.4</ele><time>2026-04-18T12:16:34.998Z</time></trkpt><trkpt lat="42.117955655403385" lon="11.971549031745893"><ele>339.6</ele><time>2026-04-18T12:16:35.998Z</time></trkpt><trkpt lat="42.11790418477818" lon="11.971605663140608"><ele>339.8</ele><time>2026-04-18T12:16:36.998Z</time></trkpt><trkpt lat="42.11778333830304" lon="11.971752514824608"><ele>340.0</ele><time>2026-04-18T12:16:38.998Z</time></trkpt><trkpt lat="42.11770029226895" lon="11.97179552193377"><ele>340.0</ele><time>2026-04-18T12:16:40.998Z</time></trkpt><trkpt lat="42.11778126697631" lon="11.971765946066316"><ele>340.0</ele><time>2026-04-18T12:16:53.999Z</time></trkpt><trkpt lat="42.117882756834334" lon="11.971664943908584"><ele>340.0</ele><time>2026-04-18T12:16:54.999Z</time></trkpt><trkpt lat="42.117972261737116" lon="11.971569455110108"><ele>340.0</ele><time>2026-04-18T12:16:55.999Z</time></trkpt><trkpt lat="42.11803489103065" lon="11.971509381915785"><ele>340.0</ele><time>2026-04-18T12:16:56.999Z</time></trkpt><trkpt lat="42.118101186878704" lon="11.97146607270786"><ele>339.8333333333333</ele><time>2026-04-18T12:16:57.999Z</time></trkpt><trkpt lat="42.118176667469086" lon="11.971436010881217"><ele>339.66666666666663</ele><time>2026-04-18T12:16:58.999Z</time></trkpt><trkpt lat="42.118263300746705" lon="11.971398900660088"><ele>339.5</ele><time>2026-04-18T12:16:59.999Z</time></trkpt><trkpt lat="42.11834112314769" lon="11.971376481319622"><ele>339.3333333333333</ele><time>2026-04-18T12:17:00.999Z</time></trkpt><trkpt lat="42.118421377602125" lon="11.971362639399334"><ele>339.1666666666667</ele><time>2026-04-18T12:17:01.999Z</time></trkpt><trkpt lat="42.11850733120097" lon="11.971349428358424"><ele>339.0</ele><time>2026-04-18T12:17:02.999Z</time></trkpt><trkpt lat="42.11858215675349" lon="11.971328263666615"><ele>339.0</ele><time>2026-04-18T12:17:03.999Z</time></trkpt><trkpt lat="42.11864294777428" lon="11.971303116619033"><ele>339.0</ele><time>2026-04-18T12:17:04.999Z</time></trkpt><trkpt lat="42.11870615152028" lon="11.971269007358815"><ele>339.0</ele><time>2026-04-18T12:17:05.999Z</time></trkpt><trkpt lat="42.11876873944502" lon="11.971225189240089"><ele>339.0</ele><time>2026-04-18T12:17:06.999Z</time></trkpt><trkpt lat="42.118838958878385" lon="11.971179210811998"><ele>339.0</ele><time>2026-04-18T12:17:07.999Z</time></trkpt><trkpt lat="42.11893656916662" lon="11.971109377860346"><ele>339.0</ele><time>2026-04-18T12:17:09.999Z</time></trkpt><trkpt lat="42.119007589951295" lon="11.971043476197664"><ele>339.1666666666667</ele><time>2026-04-18T12:17:11.999Z</time></trkpt><trkpt lat="42.119096200499065" lon="11.970947142155927"><ele>339.3333333333333</ele><time>2026-04-18T12:17:13.999Z</time></trkpt><trkpt lat="42.11913940260163" lon="11.970883409780317"><ele>339.5</ele><time>2026-04-18T12:17:14.999Z</time></trkpt><trkpt lat="42.119179335947834" lon="11.970814593360933"><ele>339.66666666666663</ele><time>2026-04-18T12:17:15.999Z</time></trkpt><trkpt lat="42.119233363259255" lon="11.970750783564304"><ele>339.8333333333333</ele><time>2026-04-18T12:17:17Z</time></trkpt><trkpt lat="42.119264229989724" lon="11.970644664387875"><ele>340.0</ele><time>2026-04-18T12:17:18Z</time></trkpt><trkpt lat="42.11930793680954" lon="11.97053779108877"><ele>340.0</ele><time>2026-04-18T12:17:19Z</time></trkpt><trkpt lat="42.11936920973661" lon="11.970424771627561"><ele>340.0</ele><time>2026-04-18T12:17:20Z</time></trkpt><trkpt lat="42.119419729329046" lon="11.970291012100155"><ele>340.0</ele><time>2026-04-18T12:17:21Z</time></trkpt><trkpt lat="42.11947721386829" lon="11.970139117532764"><ele>340.0</ele><time>2026-04-18T12:17:22Z</time></trkpt><trkpt lat="42.11954238650207" lon="11.969990337311133"><ele>342.0</ele><time>2026-04-18T12:17:23Z</time></trkpt><trkpt lat="42.119602796891975" lon="11.969834273713337"><ele>344.0</ele><time>2026-04-18T12:17:24Z</time></trkpt><trkpt lat="42.119685838752424" lon="11.969702656288499"><ele>346.0</ele><time>2026-04-18T12:17:25Z</time></trkpt><trkpt lat="42.1197725089528" lon="11.969572713971289"><ele>348.0</ele><time>2026-04-18T12:17:26Z</time></trkpt><trkpt lat="42.11987251895806" lon="11.96945548345905"><ele>348.5</ele><time>2026-04-18T12:17:27Z</time></trkpt><trkpt lat="42.11997034762313" lon="11.96934954965328"><ele>349.0</ele><time>2026-04-18T12:17:28Z</time></trkpt><trkpt lat="42.12006997394902" lon="11.96924821500193"><ele>349.5</ele><time>2026-04-18T12:17:29Z</time></trkpt><trkpt lat="42.12017327496245" lon="11.969143100121926"><ele>350.0</ele><time>2026-04-18T12:17:30Z</time></trkpt><trkpt lat="42.12027826652218" lon="11.969034489422603"><ele>350.0</ele><time>2026-04-18T12:17:31Z</time></trkpt><trkpt lat="42.120385585463445" lon="11.96893338568604"><ele>350.0</ele><time>2026-04-18T12:17:32Z</time></trkpt><trkpt lat="42.1204898075131" lon="11.968824436848717"><ele>350.0</ele><time>2026-04-18T12:17:33Z</time></trkpt><trkpt lat="42.12058535646416" lon="11.968707200784415"><ele>350.0</ele><time>2026-04-18T12:17:34Z</time></trkpt><trkpt lat="42.12067727606218" lon="11.968591124875278"><ele>349.0</ele><time>2026-04-18T12:17:35Z</time></trkpt><trkpt lat="42.12076157233629" lon="11.968487348934739"><ele>348.0</ele><time>2026-04-18T12:17:36Z</time></trkpt><trkpt lat="42.12081561434463" lon="11.968358586794814"><ele>347.0</ele><time>2026-04-18T12:17:37Z</time></trkpt><trkpt lat="42.120841229325094" lon="11.968196363009111"><ele>346.0</ele><time>2026-04-18T12:17:38Z</time></trkpt><trkpt lat="42.12084210778705" lon="11.968020209539558"><ele>346.0</ele><time>2026-04-18T12:17:39Z</time></trkpt><trkpt lat="42.12081768841543" lon="11.96784281767934"><ele>346.0</ele><time>2026-04-18T12:17:40Z</time></trkpt><trkpt lat="42.12082438427112" lon="11.967668211592692"><ele>346.0</ele><time>2026-04-18T12:17:41Z</time></trkpt><trkpt lat="42.12081348700041" lon="11.967513916300675"><ele>346.0</ele><time>2026-04-18T12:17:42Z</time></trkpt><trkpt lat="42.12081169605278" lon="11.967372254556263"><ele>346.4</ele><time>2026-04-18T12:17:43Z</time></trkpt><trkpt lat="42.120804009573305" lon="11.96723082846927"><ele>346.8</ele><time>2026-04-18T12:17:44Z</time></trkpt><trkpt lat="42.12080540868499" lon="11.967082364939065"><ele>347.2</ele><time>2026-04-18T12:17:45Z</time></trkpt><trkpt lat="42.120750228218185" lon="11.966942439675146"><ele>347.59999999999997</ele><time>2026-04-18T12:17:46Z</time></trkpt><trkpt lat="42.12069050541047" lon="11.966810374849011"><ele>348.0</ele><time>2026-04-18T12:17:47Z</time></trkpt><trkpt lat="42.12064210712313" lon="11.966668639112017"><ele>352.75</ele><time>2026-04-18T12:17:48Z</time></trkpt><trkpt lat="42.120561926032174" lon="11.966549015592614"><ele>357.5</ele><time>2026-04-18T12:17:49Z</time></trkpt><trkpt lat="42.12049559338876" lon="11.96642022584138"><ele>362.25</ele><time>2026-04-18T12:17:50Z</time></trkpt><trkpt lat="42.12042581257909" lon="11.966290186544173"><ele>367.0</ele><time>2026-04-18T12:17:51Z</time></trkpt><trkpt lat="42.12035423002842" lon="11.966169860507884"><ele>367.0</ele><time>2026-04-18T12:17:52Z</time></trkpt><trkpt lat="42.1202859978896" lon="11.96606099125663"><ele>367.0</ele><time>2026-04-18T12:17:53Z</time></trkpt><trkpt lat="42.12023725287901" lon="11.965935602475755"><ele>367.0</ele><time>2026-04-18T12:17:54Z</time></trkpt><trkpt lat="42.12019081884801" lon="11.965823975424726"><ele>367.0</ele><time>2026-04-18T12:17:55Z</time></trkpt><trkpt lat="42.12016413596874" lon="11.965700423520575"><ele>367.0</ele><time>2026-04-18T12:17:56Z</time></trkpt><trkpt lat="42.12017932184718" lon="11.965570536078756"><ele>364.6</ele><time>2026-04-18T12:17:57Z</time></trkpt><trkpt lat="42.12020031133181" lon="11.96542377918129"><ele>362.20000000000005</ele><time>2026-04-18T12:17:58Z</time></trkpt><trkpt lat="42.1201966704949" lon="11.965290121303083"><ele>359.8</ele><time>2026-04-18T12:17:59Z</time></trkpt><trkpt lat="42.12018430913061" lon="11.965163935050876"><ele>357.4</ele><time>2026-04-18T12:18:00Z</time></trkpt><trkpt lat="42.120155067946264" lon="11.96502668448535"><ele>355.0</ele><time>2026-04-18T12:18:01Z</time></trkpt><trkpt lat="42.1200926111246" lon="11.964894981681969"><ele>357.5</ele><time>2026-04-18T12:18:02Z</time></trkpt><trkpt lat="42.12002258462329" lon="11.9647684514484"><ele>360.0</ele><time>2026-04-18T12:18:03Z</time></trkpt><trkpt lat="42.11994675849848" lon="11.964648839982537"><ele>362.5</ele><time>2026-04-18T12:18:04Z</time></trkpt><trkpt lat="42.119879360019276" lon="11.964525915074645"><ele>365.0</ele><time>2026-04-18T12:18:05Z</time></trkpt><trkpt lat="42.11982240294772" lon="11.96439840722121"><ele>365.0</ele><time>2026-04-18T12:18:06Z</time></trkpt><trkpt lat="42.11977545221451" lon="11.964259001041267"><ele>365.0</ele><time>2026-04-18T12:18:07Z</time></trkpt><trkpt lat="42.119731604868015" lon="11.964111913924548"><ele>365.0</ele><time>2026-04-18T12:18:08Z</time></trkpt><trkpt lat="42.119688613739264" lon="11.963971886661737"><ele>365.0</ele><time>2026-04-18T12:18:09Z</time></trkpt><trkpt lat="42.11964829472565" lon="11.963840884503796"><ele>365.0</ele><time>2026-04-18T12:18:10Z</time></trkpt><trkpt lat="42.11961071797599" lon="11.963718792352203"><ele>361.6</ele><time>2026-04-18T12:18:11Z</time></trkpt><trkpt lat="42.119576639929065" lon="11.963597427572441"><ele>358.2</ele><time>2026-04-18T12:18:12Z</time></trkpt><trkpt lat="42.119549211864964" lon="11.963467971967317"><ele>354.79999999999995</ele><time>2026-04-18T12:18:13Z</time></trkpt><trkpt lat="42.11952388688606" lon="11.96331978881073"><ele>351.4</ele><time>2026-04-18T12:18:14Z</time></trkpt><trkpt lat="42.11950884183911" lon="11.963168864590534"><ele>348.0</ele><time>2026-04-18T12:18:15Z</time></trkpt><trkpt lat="42.119534608357284" lon="11.963025120232034"><ele>346.25</ele><time>2026-04-18T12:18:16.001Z</time></trkpt><trkpt lat="42.119573239876594" lon="11.962881053112788"><ele>344.5</ele><time>2026-04-18T12:18:17.001Z</time></trkpt><trkpt lat="42.11963151502464" lon="11.962750370924473"><ele>342.75</ele><time>2026-04-18T12:18:18.001Z</time></trkpt><trkpt lat="42.119714404189935" lon="11.962642910922492"><ele>341.0</ele><time>2026-04-18T12:18:19.001Z</time></trkpt><trkpt lat="42.119812022368734" lon="11.962559547109668"><ele>337.6</ele><time>2026-04-18T12:18:20.001Z</time></trkpt><trkpt lat="42.11990996495867" lon="11.962487079606424"><ele>334.20000000000005</ele><time>2026-04-18T12:18:21.001Z</time></trkpt><trkpt lat="42.11999880802661" lon="11.962398709175329"><ele>330.79999999999995</ele><time>2026-04-18T12:18:22.001Z</time></trkpt><trkpt lat="42.12005965868088" lon="11.962291379872275"><ele>327.4</ele><time>2026-04-18T12:18:23.001Z</time></trkpt><trkpt lat="42.12009269491533" lon="11.962157257284762"><ele>324.0</ele><time>2026-04-18T12:18:24.001Z</time></trkpt><trkpt lat="42.12009321510868" lon="11.962008356181405"><ele>324.0</ele><time>2026-04-18T12:18:25.001Z</time></trkpt><trkpt lat="42.120055256771934" lon="11.961874101384238"><ele>324.0</ele><time>2026-04-18T12:18:26.001Z</time></trkpt><trkpt lat="42.120032617555104" lon="11.96174773813856"><ele>324.0</ele><time>2026-04-18T12:18:27.001Z</time></trkpt><trkpt lat="42.12000319196588" lon="11.961642291800938"><ele>324.0</ele><time>2026-04-18T12:18:28.001Z</time></trkpt><trkpt lat="42.11998299193789" lon="11.961539837316"><ele>324.0</ele><time>2026-04-18T12:18:29.001Z</time></trkpt><trkpt lat="42.11997921201696" lon="11.961440966158518"><ele>324.0</ele><time>2026-04-18T12:18:30.001Z</time></trkpt><trkpt lat="42.120017128699565" lon="11.961343330064192"><ele>324.5</ele><time>2026-04-18T12:18:31.001Z</time></trkpt><trkpt lat="42.12008154501393" lon="11.96127776401605"><ele>325.0</ele><time>2026-04-18T12:18:32.001Z</time></trkpt><trkpt lat="42.12015232799766" lon="11.961240047752081"><ele>325.5</ele><time>2026-04-18T12:18:33.001Z</time></trkpt><trkpt lat="42.120229976581356" lon="11.96121373105352"><ele>326.0</ele><time>2026-04-18T12:18:34.001Z</time></trkpt><trkpt lat="42.120302861228545" lon="11.961182198627597"><ele>326.5</ele><time>2026-04-18T12:18:35.001Z</time></trkpt><trkpt lat="42.120375024133395" lon="11.961150442994644"><ele>327.0</ele><time>2026-04-18T12:18:36.001Z</time></trkpt><trkpt lat="42.12044611558974" lon="11.961105600005727"><ele>327.0</ele><time>2026-04-18T12:18:37.001Z</time></trkpt><trkpt lat="42.12052129872973" lon="11.961050121410354"><ele>327.0</ele><time>2026-04-18T12:18:37.998Z</time></trkpt><trkpt lat="42.12057308453255" lon="11.960966347279987"><ele>327.0</ele><time>2026-04-18T12:18:38.998Z</time></trkpt><trkpt lat="42.12060803332159" lon="11.960873216268421"><ele>327.0</ele><time>2026-04-18T12:18:39.998Z</time></trkpt><trkpt lat="42.12062048477838" lon="11.96076758384419"><ele>327.0</ele><time>2026-04-18T12:18:40.998Z</time></trkpt><trkpt lat="42.12061139237502" lon="11.960663619850507"><ele>327.0</ele><time>2026-04-18T12:18:41.998Z</time></trkpt><trkpt lat="42.12058107279952" lon="11.9605493017665"><ele>328.1666666666667</ele><time>2026-04-18T12:18:42.998Z</time></trkpt><trkpt lat="42.12054181372427" lon="11.960435027744808"><ele>329.3333333333333</ele><time>2026-04-18T12:18:43.998Z</time></trkpt><trkpt lat="42.12050663903168" lon="11.960321889192242"><ele>330.5</ele><time>2026-04-18T12:18:44.998Z</time></trkpt><trkpt lat="42.12047982823952" lon="11.960220671636524"><ele>331.66666666666663</ele><time>2026-04-18T12:18:45.998Z</time></trkpt><trkpt lat="42.12048044127551" lon="11.96010954909854"><ele>332.8333333333333</ele><time>2026-04-18T12:18:46.998Z</time></trkpt><trkpt lat="42.12050455660045" lon="11.959998933922213"><ele>334.0</ele><time>2026-04-18T12:18:47.998Z</time></trkpt><trkpt lat="42.1205442301314" lon="11.959888053710584"><ele>335.79999999999995</ele><time>2026-04-18T12:18:48.998Z</time></trkpt><trkpt lat="42.12059897551772" lon="11.959775932581014"><ele>337.59999999999997</ele><time>2026-04-18T12:18:49.998Z</time></trkpt><trkpt lat="42.12064757756741" lon="11.959656206362087"><ele>339.4</ele><time>2026-04-18T12:18:50.998Z</time></trkpt><trkpt lat="42.120686106009586" lon="11.959543295458916"><ele>341.2</ele><time>2026-04-18T12:18:51.998Z</time></trkpt><trkpt lat="42.12071073696823" lon="11.959436868758107"><ele>343.0</ele><time>2026-04-18T12:18:52.998Z</time></trkpt><trkpt lat="42.120715144092046" lon="11.959328612679599"><ele>343.0</ele><time>2026-04-18T12:18:53.998Z</time></trkpt><trkpt lat="42.120699072552775" lon="11.959215532909228"><ele>343.0</ele><time>2026-04-18T12:18:54.999Z</time></trkpt><trkpt lat="42.12065993258514" lon="11.959102647478037"><ele>343.0</ele><time>2026-04-18T12:18:55.999Z</time></trkpt><trkpt lat="42.12060829567049" lon="11.958997091655672"><ele>343.0</ele><time>2026-04-18T12:18:56.999Z</time></trkpt><trkpt lat="42.12055538154716" lon="11.958903268860707"><ele>343.0</ele><time>2026-04-18T12:18:57.999Z</time></trkpt><trkpt lat="42.12049838710314" lon="11.958804785461874"><ele>342.66666666666663</ele><time>2026-04-18T12:18:58.999Z</time></trkpt><trkpt lat="42.12044819455926" lon="11.958701135352246"><ele>342.3333333333333</ele><time>2026-04-18T12:18:59.999Z</time></trkpt><trkpt lat="42.12042032011861" lon="11.958587885334587"><ele>342.0</ele><time>2026-04-18T12:19:00.999Z</time></trkpt><trkpt lat="42.12040146268628" lon="11.958463529274646"><ele>341.6666666666667</ele><time>2026-04-18T12:19:01.999Z</time></trkpt><trkpt lat="42.12039853992676" lon="11.958348411312352"><ele>341.33333333333337</ele><time>2026-04-18T12:19:02.999Z</time></trkpt><trkpt lat="42.120401363037715" lon="11.958231332660148"><ele>341.0</ele><time>2026-04-18T12:19:03.999Z</time></trkpt><trkpt lat="42.12040960727151" lon="11.958105456397734"><ele>339.8</ele><time>2026-04-18T12:19:04.999Z</time></trkpt><trkpt lat="42.120419833841524" lon="11.9579817178523"><ele>338.6</ele><time>2026-04-18T12:19:05.999Z</time></trkpt><trkpt lat="42.120425977358664" lon="11.957873383780958"><ele>337.4</ele><time>2026-04-18T12:19:06.999Z</time></trkpt><trkpt lat="42.120437619881756" lon="11.957783619733908"><ele>336.2</ele><time>2026-04-18T12:19:07.999Z</time></trkpt><trkpt lat="42.120452965318236" lon="11.957621210791121"><ele>335.0</ele><time>2026-04-18T12:19:09.999Z</time></trkpt><trkpt lat="42.12046725380763" lon="11.957490797085102"><ele>335.0</ele><time>2026-04-18T12:19:11.999Z</time></trkpt><trkpt lat="42.12049878533592" lon="11.957397165774971"><ele>335.0</ele><time>2026-04-18T12:19:13.999Z</time></trkpt><trkpt lat="42.120535854830564" lon="11.95728806950812"><ele>335.0</ele><time>2026-04-18T12:19:29Z</time></trkpt><trkpt lat="42.120486335981546" lon="11.957186042965613"><ele>335.0</ele><time>2026-04-18T12:19:30Z</time></trkpt><trkpt lat="42.12049217578514" lon="11.957039211441128"><ele>335.0</ele><time>2026-04-18T12:19:32Z</time></trkpt><trkpt lat="42.120528344028045" lon="11.956955238430124"><ele>335.0</ele><time>2026-04-18T12:19:33Z</time></trkpt><trkpt lat="42.120567387450166" lon="11.956864898921399"><ele>335.5</ele><time>2026-04-18T12:19:34Z</time></trkpt><trkpt lat="42.12062680884575" lon="11.95670070880556"><ele>336.0</ele><time>2026-04-18T12:19:36Z</time></trkpt><trkpt lat="42.12063708342138" lon="11.956595042682714"><ele>336.5</ele><time>2026-04-18T12:19:37Z</time></trkpt><trkpt lat="42.1206566260609" lon="11.95649904243625"><ele>337.0</ele><time>2026-04-18T12:19:38Z</time></trkpt><trkpt lat="42.12067914369194" lon="11.956391113074085"><ele>337.5</ele><time>2026-04-18T12:19:39Z</time></trkpt><trkpt lat="42.12069986295409" lon="11.95629776812612"><ele>338.0</ele><time>2026-04-18T12:19:40Z</time></trkpt><trkpt lat="42.12070536741354" lon="11.956213001681476"><ele>337.79999999999995</ele><time>2026-04-18T12:19:41Z</time></trkpt><trkpt lat="42.12075247292241" lon="11.95606859076223"><ele>337.6</ele><time>2026-04-18T12:19:43Z</time></trkpt><trkpt lat="42.12080568625657" lon="11.956007039516157"><ele>337.4</ele><time>2026-04-18T12:19:44Z</time></trkpt><trkpt lat="42.12087828685749" lon="11.955939322256203"><ele>337.20000000000005</ele><time>2026-04-18T12:19:45Z</time></trkpt><trkpt lat="42.12093862358491" lon="11.955781726715152"><ele>337.0</ele><time>2026-04-18T12:19:47Z</time></trkpt><trkpt lat="42.120925296264794" lon="11.955693050243651"><ele>337.0</ele><time>2026-04-18T12:19:48Z</time></trkpt><trkpt lat="42.12095078279562" lon="11.955524886955025"><ele>337.0</ele><time>2026-04-18T12:19:50Z</time></trkpt><trkpt lat="42.12098052600035" lon="11.955396183262199"><ele>337.0</ele><time>2026-04-18T12:19:51Z</time></trkpt><trkpt lat="42.12102565178803" lon="11.955274611752246"><ele>337.0</ele><time>2026-04-18T12:19:52Z</time></trkpt><trkpt lat="42.12107055501842" lon="11.955170318708173"><ele>337.0</ele><time>2026-04-18T12:19:53Z</time></trkpt><trkpt lat="42.12112073990301" lon="11.955078835800538"><ele>339.0</ele><time>2026-04-18T12:19:54Z</time></trkpt><trkpt lat="42.12118024189482" lon="11.954999891679734"><ele>341.0</ele><time>2026-04-18T12:19:55Z</time></trkpt><trkpt lat="42.12123380278721" lon="11.954902090853261"><ele>343.0</ele><time>2026-04-18T12:19:56Z</time></trkpt><trkpt lat="42.12128682483241" lon="11.954806024614374"><ele>345.0</ele><time>2026-04-18T12:19:57.001Z</time></trkpt><trkpt lat="42.121338035064426" lon="11.954738632349827"><ele>347.0</ele><time>2026-04-18T12:19:58.001Z</time></trkpt><trkpt lat="42.12139354810237" lon="11.954662866705267"><ele>349.0</ele><time>2026-04-18T12:19:59.001Z</time></trkpt><trkpt lat="42.121458302280786" lon="11.954614614742113"><ele>349.0</ele><time>2026-04-18T12:20:00.001Z</time></trkpt><trkpt lat="42.12153697915751" lon="11.954592898144488"><ele>349.0</ele><time>2026-04-18T12:20:01.001Z</time></trkpt><trkpt lat="42.1216089272712" lon="11.9545824084537"><ele>349.0</ele><time>2026-04-18T12:20:02.001Z</time></trkpt><trkpt lat="42.12168184142131" lon="11.954597828759937"><ele>349.0</ele><time>2026-04-18T12:20:03.001Z</time></trkpt><trkpt lat="42.12175954270366" lon="11.954606118176349"><ele>349.0</ele><time>2026-04-18T12:20:04.001Z</time></trkpt><trkpt lat="42.121834212019095" lon="11.954606360137099"><ele>349.0</ele><time>2026-04-18T12:20:05.001Z</time></trkpt><trkpt lat="42.121908787463454" lon="11.954617411105858"><ele>347.3333333333333</ele><time>2026-04-18T12:20:06.001Z</time></trkpt><trkpt lat="42.12199008516296" lon="11.954626526832165"><ele>345.66666666666663</ele><time>2026-04-18T12:20:07.001Z</time></trkpt><trkpt lat="42.122055865071886" lon="11.954651947150952"><ele>344.0</ele><time>2026-04-18T12:20:08.001Z</time></trkpt><trkpt lat="42.12212381908759" lon="11.954671992464903"><ele>342.3333333333333</ele><time>2026-04-18T12:20:09.001Z</time></trkpt><trkpt lat="42.12218996107118" lon="11.954685065963094"><ele>340.6666666666667</ele><time>2026-04-18T12:20:10.001Z</time></trkpt><trkpt lat="42.12225920903345" lon="11.954675572418395"><ele>339.0</ele><time>2026-04-18T12:20:12.001Z</time></trkpt><trkpt lat="42.12238788470275" lon="11.954684205023492"><ele>340.0</ele><time>2026-04-18T12:20:14.001Z</time></trkpt><trkpt lat="42.1224655744852" lon="11.954695888573745"><ele>341.0</ele><time>2026-04-18T12:20:15.001Z</time></trkpt><trkpt lat="42.12256543595434" lon="11.954723038975613"><ele>342.0</ele><time>2026-04-18T12:20:17.001Z</time></trkpt><trkpt lat="42.12262400053511" lon="11.954758926434874"><ele>343.0</ele><time>2026-04-18T12:20:18.001Z</time></trkpt><trkpt lat="42.12273983270581" lon="11.954802321539617"><ele>344.0</ele><time>2026-04-18T12:20:20.001Z</time></trkpt><trkpt lat="42.12283295280958" lon="11.95488951518647"><ele>344.0</ele><time>2026-04-18T12:20:22.001Z</time></trkpt><trkpt lat="42.12290452694394" lon="11.954969651907886"><ele>344.0</ele><time>2026-04-18T12:20:24.001Z</time></trkpt><trkpt lat="42.12301027737553" lon="11.955034685829139"><ele>344.0</ele><time>2026-04-18T12:20:26.001Z</time></trkpt><trkpt lat="42.12309552491169" lon="11.955102104914394"><ele>344.0</ele><time>2026-04-18T12:20:28.001Z</time></trkpt><trkpt lat="42.12316736334369" lon="11.95511370750228"><ele>344.0</ele><time>2026-04-18T12:20:29.001Z</time></trkpt><trkpt lat="42.123238307288055" lon="11.955098784799969"><ele>343.2</ele><time>2026-04-18T12:20:30.001Z</time></trkpt><trkpt lat="42.12330384806848" lon="11.955065720136618"><ele>342.4</ele><time>2026-04-18T12:20:31.001Z</time></trkpt><trkpt lat="42.123397565725696" lon="11.95497690203991"><ele>341.6</ele><time>2026-04-18T12:20:33.001Z</time></trkpt><trkpt lat="42.123476529608794" lon="11.954820204499345"><ele>340.8</ele><time>2026-04-18T12:20:35.001Z</time></trkpt><trkpt lat="42.12351167240813" lon="11.954722426394868"><ele>340.0</ele><time>2026-04-18T12:20:36.001Z</time></trkpt><trkpt lat="42.123569564590255" lon="11.95457143651224"><ele>342.0</ele><time>2026-04-18T12:20:38.001Z</time></trkpt><trkpt lat="42.123559264720434" lon="11.954375682998203"><ele>344.0</ele><time>2026-04-18T12:20:40.001Z</time></trkpt><trkpt lat="42.12354141986617" lon="11.95427469305063"><ele>346.0</ele><time>2026-04-18T12:20:41.001Z</time></trkpt><trkpt lat="42.123524456906196" lon="11.954172519549708"><ele>348.0</ele><time>2026-04-18T12:20:42.001Z</time></trkpt><trkpt lat="42.12351029644993" lon="11.954072085812813"><ele>350.0</ele><time>2026-04-18T12:20:43.001Z</time></trkpt><trkpt lat="42.123510346197726" lon="11.953979187119026"><ele>352.0</ele><time>2026-04-18T12:20:43.999Z</time></trkpt><trkpt lat="42.12353138056772" lon="11.953874983249294"><ele>353.66666666666663</ele><time>2026-04-18T12:20:44.999Z</time></trkpt><trkpt lat="42.123546637594565" lon="11.953772939079837"><ele>355.3333333333333</ele><time>2026-04-18T12:20:45.999Z</time></trkpt><trkpt lat="42.12355486272937" lon="11.9536633639766"><ele>357.0</ele><time>2026-04-18T12:20:46.999Z</time></trkpt><trkpt lat="42.123559166185515" lon="11.953549499134473"><ele>358.6666666666667</ele><time>2026-04-18T12:20:47.999Z</time></trkpt><trkpt lat="42.12357453072165" lon="11.953459256838189"><ele>360.33333333333337</ele><time>2026-04-18T12:20:48.999Z</time></trkpt><trkpt lat="42.12357666356422" lon="11.953355005857782"><ele>362.0</ele><time>2026-04-18T12:20:49.999Z</time></trkpt><trkpt lat="42.123592788468564" lon="11.953253512346343"><ele>363.1666666666667</ele><time>2026-04-18T12:20:50.999Z</time></trkpt><trkpt lat="42.1236256274512" lon="11.953163454126301"><ele>364.33333333333337</ele><time>2026-04-18T12:20:51.999Z</time></trkpt><trkpt lat="42.12369742550531" lon="11.953090054971756"><ele>365.5</ele><time>2026-04-18T12:20:52.999Z</time></trkpt><trkpt lat="42.12373356321837" lon="11.952978046775051"><ele>366.6666666666667</ele><time>2026-04-18T12:20:53.999Z</time></trkpt><trkpt lat="42.12376104241638" lon="11.952892875474326"><ele>367.8333333333333</ele><time>2026-04-18T12:20:54.999Z</time></trkpt><trkpt lat="42.12378679044255" lon="11.952811450833616"><ele>369.0</ele><time>2026-04-18T12:20:55.999Z</time></trkpt><trkpt lat="42.12378933622673" lon="11.952721687469914"><ele>369.0</ele><time>2026-04-18T12:20:56.999Z</time></trkpt><trkpt lat="42.12381148810807" lon="11.952619728483725"><ele>369.0</ele><time>2026-04-18T12:20:57.999Z</time></trkpt><trkpt lat="42.12387864466463" lon="11.952467097349187"><ele>369.0</ele><time>2026-04-18T12:20:59.999Z</time></trkpt><trkpt lat="42.12389430009415" lon="11.95232918540381"><ele>369.0</ele><time>2026-04-18T12:21:00.999Z</time></trkpt><trkpt lat="42.123908623664455" lon="11.952240830395517"><ele>369.0</ele><time>2026-04-18T12:21:01.999Z</time></trkpt><trkpt lat="42.123926246748375" lon="11.952122730955576"><ele>370.3333333333333</ele><time>2026-04-18T12:21:02.999Z</time></trkpt><trkpt lat="42.12393890643775" lon="11.952022472069812"><ele>371.6666666666667</ele><time>2026-04-18T12:21:03.999Z</time></trkpt><trkpt lat="42.12393667828062" lon="11.951912130404816"><ele>373.0</ele><time>2026-04-18T12:21:04.999Z</time></trkpt><trkpt lat="42.12393829630939" lon="11.951799319019043"><ele>374.33333333333337</ele><time>2026-04-18T12:21:05.999Z</time></trkpt><trkpt lat="42.123938837601216" lon="11.951697454827293"><ele>375.6666666666667</ele><time>2026-04-18T12:21:06.999Z</time></trkpt><trkpt lat="42.12393210806213" lon="11.951612493759527"><ele>377.0</ele><time>2026-04-18T12:21:08Z</time></trkpt><trkpt lat="42.12388812399771" lon="11.95153754223255"><ele>377.0</ele><time>2026-04-18T12:21:09Z</time></trkpt><trkpt lat="42.123827956133375" lon="11.951460756064819"><ele>377.0</ele><time>2026-04-18T12:21:10Z</time></trkpt><trkpt lat="42.123765670667865" lon="11.951392673492139"><ele>377.0</ele><time>2026-04-18T12:21:11Z</time></trkpt><trkpt lat="42.12370248425935" lon="11.951323692705568"><ele>377.0</ele><time>2026-04-18T12:21:12Z</time></trkpt><trkpt lat="42.1236405240951" lon="11.951274310017862"><ele>377.0</ele><time>2026-04-18T12:21:13Z</time></trkpt><trkpt lat="42.12352198654723" lon="11.95123427219151"><ele>377.0</ele><time>2026-04-18T12:21:15Z</time></trkpt><trkpt lat="42.12340953416192" lon="11.951218458088833"><ele>377.0</ele><time>2026-04-18T12:21:17Z</time></trkpt><trkpt lat="42.12330472452156" lon="11.951177001129096"><ele>377.0</ele><time>2026-04-18T12:21:19Z</time></trkpt><trkpt lat="42.12327031785536" lon="11.951045415746012"><ele>377.0</ele><time>2026-04-18T12:21:21Z</time></trkpt><trkpt lat="42.12327100050545" lon="11.950941539655732"><ele>377.0</ele><time>2026-04-18T12:21:22Z</time></trkpt><trkpt lat="42.12326270856999" lon="11.950819391188249"><ele>377.0</ele><time>2026-04-18T12:21:23Z</time></trkpt><trkpt lat="42.12325078554164" lon="11.95071726653077"><ele>376.5</ele><time>2026-04-18T12:21:24Z</time></trkpt><trkpt lat="42.12323976752076" lon="11.950626145225268"><ele>376.0</ele><time>2026-04-18T12:21:25Z</time></trkpt><trkpt lat="42.1232262637643" lon="11.95053198375607"><ele>375.5</ele><time>2026-04-18T12:21:26Z</time></trkpt><trkpt lat="42.123223593430865" lon="11.950432882042465"><ele>375.0</ele><time>2026-04-18T12:21:27Z</time></trkpt><trkpt lat="42.123211337306905" lon="11.950270378280461"><ele>374.5</ele><time>2026-04-18T12:21:29Z</time></trkpt><trkpt lat="42.123143322580496" lon="11.950166485461363"><ele>374.0</ele><time>2026-04-18T12:21:31Z</time></trkpt><trkpt lat="42.1230670067089" lon="11.950137068530937"><ele>375.79999999999995</ele><time>2026-04-18T12:21:33Z</time></trkpt><trkpt lat="42.12299194608823" lon="11.950161137315197"><ele>377.59999999999997</ele><time>2026-04-18T12:21:35Z</time></trkpt><trkpt lat="42.12291432375183" lon="11.950103528936365"><ele>379.4</ele><time>2026-04-18T12:21:37Z</time></trkpt><trkpt lat="42.12286919273241" lon="11.950004397255503"><ele>381.2</ele><time>2026-04-18T12:21:39Z</time></trkpt><trkpt lat="42.12286971050766" lon="11.949825631295267"><ele>383.0</ele><time>2026-04-18T12:21:41.001Z</time></trkpt><trkpt lat="42.1228495253533" lon="11.949684892138064"><ele>383.0</ele><time>2026-04-18T12:21:43.001Z</time></trkpt><trkpt lat="42.1227955465599" lon="11.949590240193011"><ele>383.0</ele><time>2026-04-18T12:21:45.001Z</time></trkpt><trkpt lat="42.122709032603716" lon="11.94951063028999"><ele>383.0</ele><time>2026-04-18T12:21:47.001Z</time></trkpt><trkpt lat="42.12264424356257" lon="11.94948694092893"><ele>383.0</ele><time>2026-04-18T12:21:48.001Z</time></trkpt><trkpt lat="42.12253249229116" lon="11.949449933058135"><ele>383.0</ele><time>2026-04-18T12:21:50.001Z</time></trkpt><trkpt lat="42.122430084359856" lon="11.949360621791156"><ele>385.83333333333337</ele><time>2026-04-18T12:21:52.001Z</time></trkpt><trkpt lat="42.12235045942492" lon="11.94924609604376"><ele>388.6666666666667</ele><time>2026-04-18T12:21:54.001Z</time></trkpt><trkpt lat="42.12234231351191" lon="11.949151322575828"><ele>391.5</ele><time>2026-04-18T12:21:55.001Z</time></trkpt><trkpt lat="42.12232318934874" lon="11.949055498291761"><ele>394.33333333333337</ele><time>2026-04-18T12:21:56.001Z</time></trkpt><trkpt lat="42.12229690057959" lon="11.94895345989415"><ele>397.1666666666667</ele><time>2026-04-18T12:21:57.001Z</time></trkpt><trkpt lat="42.12225516987853" lon="11.948826025210781"><ele>400.0</ele><time>2026-04-18T12:21:58.001Z</time></trkpt><trkpt lat="42.12220703972629" lon="11.948721776763234"><ele>400.00000000000006</ele><time>2026-04-18T12:21:59.001Z</time></trkpt><trkpt lat="42.12216596991817" lon="11.94863212003305"><ele>400.0</ele><time>2026-04-18T12:22:00.001Z</time></trkpt><trkpt lat="42.12212736772152" lon="11.94856476332304"><ele>400.0</ele><time>2026-04-18T12:22:01.001Z</time></trkpt><trkpt lat="42.12209432863176" lon="11.948393155219472"><ele>400.0</ele><time>2026-04-18T12:22:03.001Z</time></trkpt><trkpt lat="42.122052320303915" lon="11.948289265333347"><ele>400.00000000000006</ele><time>2026-04-18T12:22:04.001Z</time></trkpt><trkpt lat="42.12202206558634" lon="11.948202479518592"><ele>400.0</ele><time>2026-04-18T12:22:05.001Z</time></trkpt><trkpt lat="42.12198317301995" lon="11.948115146636203"><ele>398.6666666666667</ele><time>2026-04-18T12:22:06.001Z</time></trkpt><trkpt lat="42.12193162435397" lon="11.94805626921459"><ele>397.33333333333337</ele><time>2026-04-18T12:22:07.001Z</time></trkpt><trkpt lat="42.12188031842551" lon="11.9479937326627"><ele>396.0</ele><time>2026-04-18T12:22:08.001Z</time></trkpt><trkpt lat="42.12186757563779" lon="11.947821477963279"><ele>394.66666666666663</ele><time>2026-04-18T12:22:10.001Z</time></trkpt><trkpt lat="42.12187449253884" lon="11.947719133288157"><ele>393.3333333333333</ele><time>2026-04-18T12:22:11.001Z</time></trkpt><trkpt lat="42.1218673673919" lon="11.947619517962144"><ele>392.0</ele><time>2026-04-18T12:22:12.001Z</time></trkpt><trkpt lat="42.12187447338795" lon="11.947525875698675"><ele>392.0</ele><time>2026-04-18T12:22:13.001Z</time></trkpt><trkpt lat="42.121888358379415" lon="11.947365198038705"><ele>392.0</ele><time>2026-04-18T12:22:15.001Z</time></trkpt><trkpt lat="42.12196689612786" lon="11.947239755636543"><ele>392.0</ele><time>2026-04-18T12:22:17.001Z</time></trkpt><trkpt lat="42.122014594431604" lon="11.947174120209617"><ele>392.0</ele><time>2026-04-18T12:22:18.001Z</time></trkpt><trkpt lat="42.122127609392585" lon="11.94706965659173"><ele>392.0</ele><time>2026-04-18T12:22:20.002Z</time></trkpt><trkpt lat="42.12216813094115" lon="11.946984139113624"><ele>392.0</ele><time>2026-04-18T12:22:21.002Z</time></trkpt><trkpt lat="42.122231273518494" lon="11.946882861619365"><ele>392.0</ele><time>2026-04-18T12:22:23.002Z</time></trkpt><trkpt lat="42.12231763846025" lon="11.946754254235293"><ele>392.0</ele><time>2026-04-18T12:22:25.002Z</time></trkpt><trkpt lat="42.12236470131928" lon="11.94667402204021"><ele>392.0</ele><time>2026-04-18T12:22:26.002Z</time></trkpt><trkpt lat="42.12241612099174" lon="11.946609155890588"><ele>392.0</ele><time>2026-04-18T12:22:27.002Z</time></trkpt><trkpt lat="42.12249552602651" lon="11.946493213519748"><ele>389.5</ele><time>2026-04-18T12:22:29.002Z</time></trkpt><trkpt lat="42.12253976615875" lon="11.946366113358462"><ele>387.0</ele><time>2026-04-18T12:22:31.002Z</time></trkpt><trkpt lat="42.1225569130349" lon="11.946174367784442"><ele>384.5</ele><time>2026-04-18T12:22:33.002Z</time></trkpt><trkpt lat="42.12257375880724" lon="11.946034033217101"><ele>382.0</ele><time>2026-04-18T12:22:34.002Z</time></trkpt><trkpt lat="42.122577784656876" lon="11.945889362892439"><ele>384.66666666666663</ele><time>2026-04-18T12:22:35.002Z</time></trkpt><trkpt lat="42.12259740841709" lon="11.945781720526137"><ele>387.3333333333333</ele><time>2026-04-18T12:22:36.002Z</time></trkpt><trkpt lat="42.12263309808626" lon="11.945681281768492"><ele>390.0</ele><time>2026-04-18T12:22:37.002Z</time></trkpt><trkpt lat="42.12266966176419" lon="11.945573633487859"><ele>392.66666666666663</ele><time>2026-04-18T12:22:38.002Z</time></trkpt><trkpt lat="42.12268887330471" lon="11.94546369677996"><ele>395.3333333333333</ele><time>2026-04-18T12:22:39.002Z</time></trkpt><trkpt lat="42.12273275603414" lon="11.945376037445872"><ele>398.0</ele><time>2026-04-18T12:22:40.002Z</time></trkpt><trkpt lat="42.12276956630284" lon="11.94527698489943"><ele>398.0</ele><time>2026-04-18T12:22:41.002Z</time></trkpt><trkpt lat="42.122803862624025" lon="11.94520091236586"><ele>398.0</ele><time>2026-04-18T12:22:42.002Z</time></trkpt><trkpt lat="42.12287078402968" lon="11.945114064154787"><ele>398.0</ele><time>2026-04-18T12:22:44.002Z</time></trkpt><trkpt lat="42.12294624220115" lon="11.9450740188206"><ele>398.0</ele><time>2026-04-18T12:22:46.002Z</time></trkpt><trkpt lat="42.12303029482944" lon="11.945033692833276"><ele>398.0</ele><time>2026-04-18T12:22:48.002Z</time></trkpt><trkpt lat="42.12315895847753" lon="11.94502266161391"><ele>396.3333333333333</ele><time>2026-04-18T12:22:49.999Z</time></trkpt><trkpt lat="42.12325265886892" lon="11.945019728879354"><ele>394.66666666666663</ele><time>2026-04-18T12:22:51.999Z</time></trkpt><trkpt lat="42.123308359044124" lon="11.944975222280295"><ele>393.0</ele><time>2026-04-18T12:22:52.999Z</time></trkpt><trkpt lat="42.12332963327769" lon="11.944850177179443"><ele>391.33333333333337</ele><time>2026-04-18T12:22:54.999Z</time></trkpt><trkpt lat="42.123300123666944" lon="11.944758255143073"><ele>389.6666666666667</ele><time>2026-04-18T12:22:57Z</time></trkpt><trkpt lat="42.12324618364134" lon="11.944623722785709"><ele>388.0</ele><time>2026-04-18T12:22:59Z</time></trkpt><trkpt lat="42.12321985596637" lon="11.944477678854257"><ele>393.4</ele><time>2026-04-18T12:23:01Z</time></trkpt><trkpt lat="42.12319765676552" lon="11.944316999016195"><ele>398.79999999999995</ele><time>2026-04-18T12:23:03Z</time></trkpt><trkpt lat="42.123188835733586" lon="11.944225113098168"><ele>404.2</ele><time>2026-04-18T12:23:04Z</time></trkpt><trkpt lat="42.123181615334914" lon="11.944123231835968"><ele>409.6</ele><time>2026-04-18T12:23:05Z</time></trkpt><trkpt lat="42.1231718675188" lon="11.944028585761624"><ele>415.0</ele><time>2026-04-18T12:23:06Z</time></trkpt><trkpt lat="42.123151451250706" lon="11.94387120598271"><ele>416.50000000000006</ele><time>2026-04-18T12:23:08Z</time></trkpt><trkpt lat="42.12312443858626" lon="11.943785932767609"><ele>418.0</ele><time>2026-04-18T12:23:09Z</time></trkpt><trkpt lat="42.12311220828838" lon="11.94369319304378"><ele>419.5</ele><time>2026-04-18T12:23:10Z</time></trkpt><trkpt lat="42.123120285796205" lon="11.94359896738912"><ele>421.0</ele><time>2026-04-18T12:23:12Z</time></trkpt><trkpt lat="42.123135905464366" lon="11.943504045959271"><ele>422.50000000000006</ele><time>2026-04-18T12:23:14Z</time></trkpt><trkpt lat="42.12318146531098" lon="11.943444149682252"><ele>424.0</ele><time>2026-04-18T12:23:16Z</time></trkpt><trkpt lat="42.12328191104324" lon="11.943347327823256"><ele>420.83333333333337</ele><time>2026-04-18T12:23:18Z</time></trkpt><trkpt lat="42.123338473577" lon="11.94329630396557"><ele>417.6666666666667</ele><time>2026-04-18T12:23:19Z</time></trkpt><trkpt lat="42.12342765982532" lon="11.94325052757781"><ele>414.5</ele><time>2026-04-18T12:23:20Z</time></trkpt><trkpt lat="42.123499811052646" lon="11.943194307435624"><ele>411.33333333333337</ele><time>2026-04-18T12:23:21Z</time></trkpt><trkpt lat="42.123563004684854" lon="11.943143610203622"><ele>408.1666666666667</ele><time>2026-04-18T12:23:22Z</time></trkpt><trkpt lat="42.12362159595687" lon="11.943098500320582"><ele>405.0</ele><time>2026-04-18T12:23:23Z</time></trkpt><trkpt lat="42.12368979196899" lon="11.943062860749555"><ele>405.0</ele><time>2026-04-18T12:23:24Z</time></trkpt><trkpt lat="42.12379037784812" lon="11.942984328529338"><ele>405.0</ele><time>2026-04-18T12:23:26Z</time></trkpt><trkpt lat="42.12385968957802" lon="11.942876534159808"><ele>405.0</ele><time>2026-04-18T12:23:28Z</time></trkpt><trkpt lat="42.12390278942872" lon="11.942772459916352"><ele>405.0</ele><time>2026-04-18T12:23:30Z</time></trkpt><trkpt lat="42.12389338998907" lon="11.942655376612974"><ele>405.0</ele><time>2026-04-18T12:23:32Z</time></trkpt><trkpt lat="42.1238477121651" lon="11.942535155687306"><ele>408.2</ele><time>2026-04-18T12:23:34.001Z</time></trkpt><trkpt lat="42.12377421405062" lon="11.94243768969643"><ele>411.4</ele><time>2026-04-18T12:23:36.001Z</time></trkpt><trkpt lat="42.123730590376056" lon="11.942295303062407"><ele>414.6</ele><time>2026-04-18T12:23:38.001Z</time></trkpt><trkpt lat="42.12367270405882" lon="11.942212986368654"><ele>417.8</ele><time>2026-04-18T12:23:40.001Z</time></trkpt><trkpt lat="42.123635018734475" lon="11.942112943930708"><ele>421.0</ele><time>2026-04-18T12:23:42.001Z</time></trkpt><trkpt lat="42.12364851712628" lon="11.941989433803919"><ele>421.0</ele><time>2026-04-18T12:23:44.001Z</time></trkpt><trkpt lat="42.123752622238975" lon="11.941849574653908"><ele>421.0</ele><time>2026-04-18T12:23:46.001Z</time></trkpt><trkpt lat="42.123831946607325" lon="11.941747642745984"><ele>421.0</ele><time>2026-04-18T12:23:48.001Z</time></trkpt><trkpt lat="42.123918736176385" lon="11.941714709106783"><ele>421.0</ele><time>2026-04-18T12:23:50.001Z</time></trkpt><trkpt lat="42.12394165658388" lon="11.941561703422188"><ele>422.20000000000005</ele><time>2026-04-18T12:23:52.001Z</time></trkpt><trkpt lat="42.12393749724722" lon="11.941472354097439"><ele>423.40000000000003</ele><time>2026-04-18T12:23:53.001Z</time></trkpt><trkpt lat="42.123966710729256" lon="11.941325901571108"><ele>424.6</ele><time>2026-04-18T12:23:55.001Z</time></trkpt><trkpt lat="42.12406945249813" lon="11.941225417676877"><ele>425.8</ele><time>2026-04-18T12:23:57.001Z</time></trkpt><trkpt lat="42.12415887508443" lon="11.941129821820297"><ele>427.0</ele><time>2026-04-18T12:23:59.001Z</time></trkpt><trkpt lat="42.12425587880196" lon="11.941113136621691"><ele>422.00000000000006</ele><time>2026-04-18T12:24:01.001Z</time></trkpt><trkpt lat="42.12435952744022" lon="11.941105948980884"><ele>417.0</ele><time>2026-04-18T12:24:03.001Z</time></trkpt><trkpt lat="42.124441560788846" lon="11.94110830452002"><ele>412.0</ele><time>2026-04-18T12:24:04.001Z</time></trkpt><trkpt lat="42.12452198671056" lon="11.941116989727222"><ele>407.0</ele><time>2026-04-18T12:24:05.001Z</time></trkpt><trkpt lat="42.12459715929458" lon="11.941142184957135"><ele>402.00000000000006</ele><time>2026-04-18T12:24:06.001Z</time></trkpt><trkpt lat="42.12467433508902" lon="11.941169405040407"><ele>397.0</ele><time>2026-04-18T12:24:07.001Z</time></trkpt><trkpt lat="42.12474258144256" lon="11.941212420010542"><ele>397.00000000000006</ele><time>2026-04-18T12:24:08.001Z</time></trkpt><trkpt lat="42.12481312483641" lon="11.941252092321049"><ele>397.0</ele><time>2026-04-18T12:24:09.001Z</time></trkpt><trkpt lat="42.124881837148564" lon="11.941284084569947"><ele>397.0</ele><time>2026-04-18T12:24:10.001Z</time></trkpt><trkpt lat="42.12494821172546" lon="11.94129621890877"><ele>397.0</ele><time>2026-04-18T12:24:11.002Z</time></trkpt><trkpt lat="42.12502278792933" lon="11.941280547209155"><ele>397.00000000000006</ele><time>2026-04-18T12:24:12.002Z</time></trkpt><trkpt lat="42.12510691381651" lon="11.941196952899936"><ele>397.0</ele><time>2026-04-18T12:24:14.002Z</time></trkpt><trkpt lat="42.12516649400204" lon="11.941147517855764"><ele>397.83333333333337</ele><time>2026-04-18T12:24:15.002Z</time></trkpt><trkpt lat="42.12516138548441" lon="11.941028501228072"><ele>398.6666666666667</ele><time>2026-04-18T12:24:16.002Z</time></trkpt><trkpt lat="42.12510838739886" lon="11.940927017935358"><ele>399.5</ele><time>2026-04-18T12:24:17.002Z</time></trkpt><trkpt lat="42.125164944614575" lon="11.94084686908984"><ele>400.33333333333337</ele><time>2026-04-18T12:24:18.002Z</time></trkpt><trkpt lat="42.125167708826794" lon="11.940702648157064"><ele>401.1666666666667</ele><time>2026-04-18T12:24:20.002Z</time></trkpt><trkpt lat="42.1251694890643" lon="11.940609765409963"><ele>402.0</ele><time>2026-04-18T12:24:22.002Z</time></trkpt><trkpt lat="42.12517166314736" lon="11.94045732111184"><ele>402.0</ele><time>2026-04-18T12:24:24.002Z</time></trkpt><trkpt lat="42.125164137176334" lon="11.940321892659322"><ele>402.0</ele><time>2026-04-18T12:24:25.002Z</time></trkpt><trkpt lat="42.12515869735686" lon="11.940191715657685"><ele>402.0</ele><time>2026-04-18T12:24:26.002Z</time></trkpt><trkpt lat="42.12517877779323" lon="11.94007466200888"><ele>402.0</ele><time>2026-04-18T12:24:27.002Z</time></trkpt><trkpt lat="42.12520871386264" lon="11.939995081802682"><ele>402.0</ele><time>2026-04-18T12:24:28.002Z</time></trkpt><trkpt lat="42.12527977407319" lon="11.93986660253753"><ele>403.5</ele><time>2026-04-18T12:24:30.002Z</time></trkpt><trkpt lat="42.12529081618448" lon="11.93972218040141"><ele>405.0</ele><time>2026-04-18T12:24:32.002Z</time></trkpt><trkpt lat="42.12523926025028" lon="11.93958023653731"><ele>406.5</ele><time>2026-04-18T12:24:34.002Z</time></trkpt><trkpt lat="42.125231082593594" lon="11.939485180136403"><ele>408.0</ele><time>2026-04-18T12:24:35.002Z</time></trkpt><trkpt lat="42.125265550423244" lon="11.939399940592905"><ele>409.5</ele><time>2026-04-18T12:24:36.002Z</time></trkpt><trkpt lat="42.12532169085797" lon="11.939321015947167"><ele>411.0</ele><time>2026-04-18T12:24:37.002Z</time></trkpt><trkpt lat="42.125374291311076" lon="11.93925886609819"><ele>411.1666666666667</ele><time>2026-04-18T12:24:38.002Z</time></trkpt><trkpt lat="42.12544902457141" lon="11.93911133756691"><ele>411.33333333333337</ele><time>2026-04-18T12:24:40.002Z</time></trkpt><trkpt lat="42.12547374213987" lon="11.939032379241771"><ele>411.5</ele><time>2026-04-18T12:24:41.002Z</time></trkpt><trkpt lat="42.125449019928254" lon="11.938914907520871"><ele>411.6666666666667</ele><time>2026-04-18T12:24:43.002Z</time></trkpt><trkpt lat="42.125415450531456" lon="11.938838398716374"><ele>411.83333333333337</ele><time>2026-04-18T12:24:44.002Z</time></trkpt><trkpt lat="42.1253524845142" lon="11.938762632916601"><ele>412.0</ele><time>2026-04-18T12:24:45.002Z</time></trkpt><trkpt lat="42.12529451803109" lon="11.938693826211408"><ele>412.00000000000006</ele><time>2026-04-18T12:24:46.002Z</time></trkpt><trkpt lat="42.1252110421491" lon="11.93858860240383"><ele>412.0</ele><time>2026-04-18T12:24:48.002Z</time></trkpt><trkpt lat="42.125156832424445" lon="11.938535642351688"><ele>412.0</ele><time>2026-04-18T12:24:49.002Z</time></trkpt><trkpt lat="42.12509518072248" lon="11.938499943106267"><ele>412.0</ele><time>2026-04-18T12:24:50.003Z</time></trkpt><trkpt lat="42.12503804234102" lon="11.938451657371335"><ele>412.00000000000006</ele><time>2026-04-18T12:24:51.003Z</time></trkpt><trkpt lat="42.12495428933818" lon="11.938370476973732"><ele>412.0</ele><time>2026-04-18T12:24:53.003Z</time></trkpt><trkpt lat="42.124898230811354" lon="11.938240668796174"><ele>411.2857142857143</ele><time>2026-04-18T12:24:55.003Z</time></trkpt><trkpt lat="42.12489965478178" lon="11.938138490285349"><ele>410.57142857142856</ele><time>2026-04-18T12:24:56.001Z</time></trkpt><trkpt lat="42.124923139676376" lon="11.938045313817712"><ele>409.8571428571429</ele><time>2026-04-18T12:24:57.001Z</time></trkpt><trkpt lat="42.12495544390069" lon="11.937957464492243"><ele>409.1428571428571</ele><time>2026-04-18T12:24:58.001Z</time></trkpt><trkpt lat="42.125010098920995" lon="11.937895782654536"><ele>408.42857142857144</ele><time>2026-04-18T12:24:59.001Z</time></trkpt><trkpt lat="42.125067751683574" lon="11.937845043657408"><ele>407.7142857142857</ele><time>2026-04-18T12:25:00.001Z</time></trkpt><trkpt lat="42.12512123194136" lon="11.937769128515503"><ele>407.0</ele><time>2026-04-18T12:25:01.001Z</time></trkpt><trkpt lat="42.12517532023444" lon="11.937646726012268"><ele>408.20000000000005</ele><time>2026-04-18T12:25:03.001Z</time></trkpt><trkpt lat="42.125200895615315" lon="11.937522737237021"><ele>409.4</ele><time>2026-04-18T12:25:05.001Z</time></trkpt><trkpt lat="42.12523820125406" lon="11.937352438103511"><ele>410.6</ele><time>2026-04-18T12:25:07.001Z</time></trkpt><trkpt lat="42.125281710819166" lon="11.937246757872629"><ele>411.79999999999995</ele><time>2026-04-18T12:25:08.001Z</time></trkpt><trkpt lat="42.12532758379472" lon="11.93712555240133"><ele>413.0</ele><time>2026-04-18T12:25:09Z</time></trkpt><trkpt lat="42.12538291422668" lon="11.937007142428"><ele>412.99999999999994</ele><time>2026-04-18T12:25:10.001Z</time></trkpt><trkpt lat="42.12542662965043" lon="11.936903311370633"><ele>413.0</ele><time>2026-04-18T12:25:11.001Z</time></trkpt><trkpt lat="42.12546063246241" lon="11.936827574456593"><ele>413.0</ele><time>2026-04-18T12:25:12.001Z</time></trkpt><trkpt lat="42.12546362782244" lon="11.9367421043494"><ele>413.0</ele><time>2026-04-18T12:25:13.001Z</time></trkpt><trkpt lat="42.12547322600719" lon="11.936619862639512"><ele>412.99999999999994</ele><time>2026-04-18T12:25:14.001Z</time></trkpt><trkpt lat="42.125469727773456" lon="11.93647791579381"><ele>413.0</ele><time>2026-04-18T12:25:15.001Z</time></trkpt><trkpt lat="42.125469492741544" lon="11.936366490275619"><ele>415.3333333333333</ele><time>2026-04-18T12:25:16.001Z</time></trkpt><trkpt lat="42.1255125979304" lon="11.936210398298252"><ele>417.66666666666663</ele><time>2026-04-18T12:25:18.001Z</time></trkpt><trkpt lat="42.12554817441584" lon="11.93610668797602"><ele>420.0</ele><time>2026-04-18T12:25:19.001Z</time></trkpt><trkpt lat="42.12559203497578" lon="11.936035128503844"><ele>422.33333333333337</ele><time>2026-04-18T12:25:20.001Z</time></trkpt><trkpt lat="42.12565263325043" lon="11.93600280784408"><ele>424.6666666666667</ele><time>2026-04-18T12:25:21.001Z</time></trkpt><trkpt lat="42.1257320002086" lon="11.935956214864273"><ele>427.0</ele><time>2026-04-18T12:25:22.001Z</time></trkpt><trkpt lat="42.12578805998791" lon="11.935903265728092"><ele>422.6666666666667</ele><time>2026-04-18T12:25:23.001Z</time></trkpt><trkpt lat="42.12581771148002" lon="11.935818086331336"><ele>418.33333333333337</ele><time>2026-04-18T12:25:24.001Z</time></trkpt><trkpt lat="42.12583388898971" lon="11.93569121898945"><ele>414.0</ele><time>2026-04-18T12:25:25.001Z</time></trkpt><trkpt lat="42.12585883736234" lon="11.935568917985954"><ele>409.66666666666663</ele><time>2026-04-18T12:25:26.001Z</time></trkpt><trkpt lat="42.1258601889151" lon="11.935460998604777"><ele>405.3333333333333</ele><time>2026-04-18T12:25:27.001Z</time></trkpt><trkpt lat="42.12583558139021" lon="11.935370207354193"><ele>401.0</ele><time>2026-04-18T12:25:28.001Z</time></trkpt><trkpt lat="42.12579994751238" lon="11.935285594517163"><ele>400.99999999999994</ele><time>2026-04-18T12:25:29.001Z</time></trkpt><trkpt lat="42.125774923736095" lon="11.935199149967303"><ele>401.0</ele><time>2026-04-18T12:25:30.001Z</time></trkpt><trkpt lat="42.125760929676716" lon="11.935094339487573"><ele>401.0</ele><time>2026-04-18T12:25:31.001Z</time></trkpt><trkpt lat="42.12573530329013" lon="11.93501059990278"><ele>401.0</ele><time>2026-04-18T12:25:32.001Z</time></trkpt><trkpt lat="42.12571059743643" lon="11.9349015335255"><ele>400.99999999999994</ele><time>2026-04-18T12:25:33.001Z</time></trkpt><trkpt lat="42.12565892631988" lon="11.934752145494734"><ele>401.0</ele><time>2026-04-18T12:25:35.001Z</time></trkpt><trkpt lat="42.12561404870332" lon="11.934676421593524"><ele>404.0</ele><time>2026-04-18T12:25:36.001Z</time></trkpt><trkpt lat="42.125554693742586" lon="11.93461146735116"><ele>407.0</ele><time>2026-04-18T12:25:37.001Z</time></trkpt><trkpt lat="42.125492851132805" lon="11.934570897807063"><ele>410.0</ele><time>2026-04-18T12:25:38.001Z</time></trkpt><trkpt lat="42.12542976012989" lon="11.934416022453693"><ele>413.0</ele><time>2026-04-18T12:25:40.001Z</time></trkpt><trkpt lat="42.12539433831496" lon="11.934298421674033"><ele>416.0</ele><time>2026-04-18T12:25:42.001Z</time></trkpt><trkpt lat="42.12544411998715" lon="11.934184895065894"><ele>416.0</ele><time>2026-04-18T12:25:44.001Z</time></trkpt><trkpt lat="42.125582867798805" lon="11.934066520692387"><ele>416.0</ele><time>2026-04-18T12:25:46.001Z</time></trkpt><trkpt lat="42.125633604576706" lon="11.93397168600208"><ele>416.0</ele><time>2026-04-18T12:25:47.001Z</time></trkpt><trkpt lat="42.1256735584396" lon="11.933896437323865"><ele>416.0</ele><time>2026-04-18T12:25:48.001Z</time></trkpt><trkpt lat="42.125657070781976" lon="11.93375694492488"><ele>416.0</ele><time>2026-04-18T12:25:50.001Z</time></trkpt><trkpt lat="42.12565210349373" lon="11.933653051303653"><ele>415.99999999999994</ele><time>2026-04-18T12:25:51.001Z</time></trkpt><trkpt lat="42.125613491433306" lon="11.9335370284887"><ele>416.0</ele><time>2026-04-18T12:25:53.001Z</time></trkpt><trkpt lat="42.12558707403858" lon="11.933457126712689"><ele>416.0</ele><time>2026-04-18T12:25:54.001Z</time></trkpt><trkpt lat="42.12555371359393" lon="11.933374628174924"><ele>416.0</ele><time>2026-04-18T12:25:55.001Z</time></trkpt><trkpt lat="42.125487210891954" lon="11.933278883853475"><ele>415.99999999999994</ele><time>2026-04-18T12:25:56.001Z</time></trkpt><trkpt lat="42.12545814588089" lon="11.933202704016072"><ele>416.0</ele><time>2026-04-18T12:25:57.001Z</time></trkpt><trkpt lat="42.125417449105456" lon="11.933128444389249"><ele>415.0</ele><time>2026-04-18T12:25:58.001Z</time></trkpt><trkpt lat="42.12536937187206" lon="11.933061035963762"><ele>414.0</ele><time>2026-04-18T12:25:59.001Z</time></trkpt><trkpt lat="42.12531465224848" lon="11.932937370567444"><ele>413.0</ele><time>2026-04-18T12:26:01.002Z</time></trkpt><trkpt lat="42.12529929280859" lon="11.932798250617326"><ele>412.0</ele><time>2026-04-18T12:26:03.002Z</time></trkpt><trkpt lat="42.12524662872742" lon="11.932671512559773"><ele>411.0</ele><time>2026-04-18T12:26:05.002Z</time></trkpt><trkpt lat="42.125188016840305" lon="11.932553141385174"><ele>410.1666666666667</ele><time>2026-04-18T12:26:07.002Z</time></trkpt><trkpt lat="42.125121471748145" lon="11.932512892103679"><ele>409.33333333333337</ele><time>2026-04-18T12:26:09.002Z</time></trkpt><trkpt lat="42.125103144129255" lon="11.932407059209599"><ele>408.5</ele><time>2026-04-18T12:26:11.002Z</time></trkpt><trkpt lat="42.12517961670586" lon="11.932369463472288"><ele>407.6666666666667</ele><time>2026-04-18T12:26:47.003Z</time></trkpt><trkpt lat="42.12511256196758" lon="11.932389555734716"><ele>406.83333333333337</ele><time>2026-04-18T12:26:55.003Z</time></trkpt><trkpt lat="42.12505053268379" lon="11.93232774241711"><ele>406.0</ele><time>2026-04-18T12:28:16.002Z</time></trkpt><trkpt lat="42.125063127108106" lon="11.932219770836394"><ele>406.0</ele><time>2026-04-18T12:28:18.002Z</time></trkpt><trkpt lat="42.125119683349205" lon="11.932111111059212"><ele>406.0</ele><time>2026-04-18T12:28:20.002Z</time></trkpt><trkpt lat="42.12515262583316" lon="11.932026848953472"><ele>406.0</ele><time>2026-04-18T12:28:22.002Z</time></trkpt><trkpt lat="42.125191375519556" lon="11.931911125692302"><ele>406.0</ele><time>2026-04-18T12:28:25.002Z</time></trkpt><trkpt lat="42.12524797339755" lon="11.931827411975782"><ele>406.0</ele><time>2026-04-18T12:28:27.002Z</time></trkpt><trkpt lat="42.12526662097837" lon="11.931686549425846"><ele>406.8</ele><time>2026-04-18T12:28:29.002Z</time></trkpt><trkpt lat="42.125293794161266" lon="11.931531291150609"><ele>407.6</ele><time>2026-04-18T12:28:31.002Z</time></trkpt><trkpt lat="42.12533781606159" lon="11.931418279889728"><ele>408.4</ele><time>2026-04-18T12:28:33.002Z</time></trkpt><trkpt lat="42.12536255597503" lon="11.931317660581678"><ele>409.2</ele><time>2026-04-18T12:30:19.002Z</time></trkpt><trkpt lat="42.12539619921559" lon="11.931179712971577"><ele>410.0</ele><time>2026-04-18T12:30:21.002Z</time></trkpt><trkpt lat="42.12538596187834" lon="11.931038916817748"><ele>409.99999999999994</ele><time>2026-04-18T12:30:23.002Z</time></trkpt><trkpt lat="42.12538482960333" lon="11.930939152864328"><ele>410.0</ele><time>2026-04-18T12:30:25.002Z</time></trkpt><trkpt lat="42.12541699476581" lon="11.930795959142305"><ele>410.0</ele><time>2026-04-18T12:30:27.002Z</time></trkpt><trkpt lat="42.12544286240732" lon="11.930718115420612"><ele>410.0</ele><time>2026-04-18T12:30:28.002Z</time></trkpt><trkpt lat="42.12547179520601" lon="11.930631862921617"><ele>409.99999999999994</ele><time>2026-04-18T12:30:29.002Z</time></trkpt><trkpt lat="42.12550226535324" lon="11.930552878977567"><ele>410.0</ele><time>2026-04-18T12:30:30.002Z</time></trkpt><trkpt lat="42.125527393481754" lon="11.930460077974333"><ele>411.16666666666663</ele><time>2026-04-18T12:30:31.002Z</time></trkpt><trkpt lat="42.125569788413046" lon="11.93039478454729"><ele>412.3333333333333</ele><time>2026-04-18T12:30:32.002Z</time></trkpt><trkpt lat="42.125637292194114" lon="11.930260148724159"><ele>413.5</ele><time>2026-04-18T12:30:34.002Z</time></trkpt><trkpt lat="42.1256812158857" lon="11.93018806135178"><ele>414.66666666666663</ele><time>2026-04-18T12:30:35.002Z</time></trkpt><trkpt lat="42.125712467570054" lon="11.930109717456784"><ele>415.8333333333333</ele><time>2026-04-18T12:30:36.002Z</time></trkpt><trkpt lat="42.12570304870311" lon="11.930017949555445"><ele>417.0</ele><time>2026-04-18T12:30:37.002Z</time></trkpt><trkpt lat="42.125694411376095" lon="11.929926173493016"><ele>418.7142857142857</ele><time>2026-04-18T12:30:38.002Z</time></trkpt><trkpt lat="42.125684454856966" lon="11.929833025404625"><ele>420.4285714285714</ele><time>2026-04-18T12:30:39.002Z</time></trkpt><trkpt lat="42.125684571283976" lon="11.929746765604646"><ele>422.1428571428571</ele><time>2026-04-18T12:30:40.002Z</time></trkpt><trkpt lat="42.12570457331997" lon="11.92965045894552"><ele>423.8571428571429</ele><time>2026-04-18T12:30:41.002Z</time></trkpt><trkpt lat="42.12572669492327" lon="11.92956479416387"><ele>425.57142857142856</ele><time>2026-04-18T12:30:42.002Z</time></trkpt><trkpt lat="42.12572977601735" lon="11.929468438709172"><ele>427.2857142857143</ele><time>2026-04-18T12:30:43.002Z</time></trkpt><trkpt lat="42.12573632505479" lon="11.929369412474912"><ele>429.0</ele><time>2026-04-18T12:30:44.002Z</time></trkpt><trkpt lat="42.125742417842766" lon="11.92927791320918"><ele>430.2</ele><time>2026-04-18T12:30:45.002Z</time></trkpt><trkpt lat="42.12571230082049" lon="11.929114675731553"><ele>431.4</ele><time>2026-04-18T12:30:47.002Z</time></trkpt><trkpt lat="42.12567820737761" lon="11.92903702672226"><ele>432.6</ele><time>2026-04-18T12:30:48.002Z</time></trkpt><trkpt lat="42.125570043974186" lon="11.928941313692361"><ele>433.8</ele><time>2026-04-18T12:30:50.002Z</time></trkpt><trkpt lat="42.12551866286043" lon="11.928869761196767"><ele>435.0</ele><time>2026-04-18T12:30:51.002Z</time></trkpt><trkpt lat="42.125462344065085" lon="11.928791487289313"><ele>435.0</ele><time>2026-04-18T12:30:53.002Z</time></trkpt><trkpt lat="42.12542197630993" lon="11.928685866290138"><ele>435.0</ele><time>2026-04-18T12:30:55.002Z</time></trkpt><trkpt lat="42.12542309603111" lon="11.92853105718979"><ele>435.0</ele><time>2026-04-18T12:30:57.002Z</time></trkpt><trkpt lat="42.12541372556502" lon="11.928387922974348"><ele>435.0</ele><time>2026-04-18T12:30:59.002Z</time></trkpt><trkpt lat="42.12541715378906" lon="11.928235292140037"><ele>435.0</ele><time>2026-04-18T12:31:01.002Z</time></trkpt><trkpt lat="42.12536577156171" lon="11.928142583095331"><ele>433.6</ele><time>2026-04-18T12:31:03.002Z</time></trkpt><trkpt lat="42.125310508096895" lon="11.928075860730429"><ele>432.2</ele><time>2026-04-18T12:31:04.002Z</time></trkpt><trkpt lat="42.1252424946969" lon="11.928033964971297"><ele>430.79999999999995</ele><time>2026-04-18T12:31:05.002Z</time></trkpt><trkpt lat="42.12513083443551" lon="11.927988546595458"><ele>429.4</ele><time>2026-04-18T12:31:07.002Z</time></trkpt><trkpt lat="42.12503286180436" lon="11.92791339512933"><ele>428.0</ele><time>2026-04-18T12:31:09.003Z</time></trkpt><trkpt lat="42.124991637783246" lon="11.927805821670336"><ele>427.99999999999994</ele><time>2026-04-18T12:31:11.003Z</time></trkpt><trkpt lat="42.12498578395231" lon="11.927719832367167"><ele>428.0</ele><time>2026-04-18T12:31:12.003Z</time></trkpt><trkpt lat="42.12493413961685" lon="11.927590512572854"><ele>428.0</ele><time>2026-04-18T12:31:14.002Z</time></trkpt><trkpt lat="42.124889392340236" lon="11.927513143525296"><ele>428.0</ele><time>2026-04-18T12:31:17.002Z</time></trkpt><trkpt lat="42.12482664028726" lon="11.927423461556186"><ele>427.99999999999994</ele><time>2026-04-18T12:31:19.002Z</time></trkpt><trkpt lat="42.124743865294114" lon="11.927405941905851"><ele>428.0</ele><time>2026-04-18T12:31:21.002Z</time></trkpt><trkpt lat="42.12466872982016" lon="11.927418801540956"><ele>426.59999999999997</ele><time>2026-04-18T12:31:22.002Z</time></trkpt><trkpt lat="42.12456836194892" lon="11.927452019113185"><ele>425.19999999999993</ele><time>2026-04-18T12:31:24.001Z</time></trkpt><trkpt lat="42.124477016530584" lon="11.92749908343109"><ele>423.8</ele><time>2026-04-18T12:31:26.001Z</time></trkpt><trkpt lat="42.12439133214958" lon="11.927551478557733"><ele>422.4</ele><time>2026-04-18T12:31:28.001Z</time></trkpt><trkpt lat="42.12430410206087" lon="11.927625945248582"><ele>421.0</ele><time>2026-04-18T12:31:30.001Z</time></trkpt><trkpt lat="42.12424494117666" lon="11.927667347979204"><ele>424.4</ele><time>2026-04-18T12:31:31.001Z</time></trkpt><trkpt lat="42.124160839063116" lon="11.92775788684036"><ele>427.8</ele><time>2026-04-18T12:31:33.001Z</time></trkpt><trkpt lat="42.12408907647759" lon="11.927809801978375"><ele>431.19999999999993</ele><time>2026-04-18T12:31:35.001Z</time></trkpt><trkpt lat="42.12401873062752" lon="11.92783150331194"><ele>434.59999999999997</ele><time>2026-04-18T12:31:42.001Z</time></trkpt><trkpt lat="42.123918414177076" lon="11.927829066103548"><ele>438.0</ele><time>2026-04-18T12:31:46.001Z</time></trkpt><trkpt lat="42.12383381091935" lon="11.927780121072757"><ele>438.0</ele><time>2026-04-18T12:31:48.001Z</time></trkpt><trkpt lat="42.123743640411504" lon="11.927700538809823"><ele>437.99999999999994</ele><time>2026-04-18T12:31:50.001Z</time></trkpt><trkpt lat="42.12368051897734" lon="11.927647285317846"><ele>437.99999999999994</ele><time>2026-04-18T12:31:51.001Z</time></trkpt><trkpt lat="42.123619910261866" lon="11.9276061637414"><ele>438.0</ele><time>2026-04-18T12:31:52.001Z</time></trkpt><trkpt lat="42.12352185838475" lon="11.927539074598982"><ele>438.0</ele><time>2026-04-18T12:31:54.001Z</time></trkpt><trkpt lat="42.123431600320934" lon="11.92748030388776"><ele>438.0</ele><time>2026-04-18T12:31:56.001Z</time></trkpt><trkpt lat="42.12334534396128" lon="11.927356791518596"><ele>437.99999999999994</ele><time>2026-04-18T12:31:58.001Z</time></trkpt><trkpt lat="42.12332792406885" lon="11.927271054759673"><ele>437.99999999999994</ele><time>2026-04-18T12:31:59.001Z</time></trkpt><trkpt lat="42.12334392870038" lon="11.927114082371762"><ele>438.0</ele><time>2026-04-18T12:32:01.001Z</time></trkpt><trkpt lat="42.12333408938287" lon="11.92701453304126"><ele>438.0</ele><time>2026-04-18T12:32:02.001Z</time></trkpt><trkpt lat="42.12330370891501" lon="11.926928010275788"><ele>442.79999999999995</ele><time>2026-04-18T12:32:03.001Z</time></trkpt><trkpt lat="42.12320000565481" lon="11.926822518277419"><ele>447.59999999999997</ele><time>2026-04-18T12:32:05.001Z</time></trkpt><trkpt lat="42.123078870180244" lon="11.926750587864142"><ele>452.40000000000003</ele><time>2026-04-18T12:32:07.001Z</time></trkpt><trkpt lat="42.123004175463535" lon="11.926739130988746"><ele>457.20000000000005</ele><time>2026-04-18T12:32:08.001Z</time></trkpt><trkpt lat="42.12292307117519" lon="11.926748243762432"><ele>462.0</ele><time>2026-04-18T12:32:09.001Z</time></trkpt><trkpt lat="42.122852525996514" lon="11.9267580810168"><ele>462.0</ele><time>2026-04-18T12:32:10.001Z</time></trkpt><trkpt lat="42.122777838855555" lon="11.926770795875205"><ele>462.0</ele><time>2026-04-18T12:32:11.001Z</time></trkpt><trkpt lat="42.12271095049908" lon="11.92677380014149"><ele>462.0</ele><time>2026-04-18T12:32:12.001Z</time></trkpt><trkpt lat="42.12264517686608" lon="11.926778916439845"><ele>462.0</ele><time>2026-04-18T12:32:13.001Z</time></trkpt><trkpt lat="42.12253917505818" lon="11.92671174718031"><ele>462.0</ele><time>2026-04-18T12:32:15.001Z</time></trkpt><trkpt lat="42.12248882433039" lon="11.926649280571066"><ele>462.0</ele><time>2026-04-18T12:32:16.001Z</time></trkpt><trkpt lat="42.122385892077546" lon="11.926606225378219"><ele>459.8</ele><time>2026-04-18T12:32:18.001Z</time></trkpt><trkpt lat="42.12228604636845" lon="11.926648525568675"><ele>457.6</ele><time>2026-04-18T12:32:20.001Z</time></trkpt><trkpt lat="42.122197925535524" lon="11.926750156646444"><ele>455.40000000000003</ele><time>2026-04-18T12:32:22.001Z</time></trkpt><trkpt lat="42.12210639847414" lon="11.92681847070684"><ele>453.20000000000005</ele><time>2026-04-18T12:32:24.001Z</time></trkpt><trkpt lat="42.1220007207172" lon="11.92682060377987"><ele>451.0</ele><time>2026-04-18T12:32:26.001Z</time></trkpt><trkpt lat="42.12194146014715" lon="11.926863371292193"><ele>451.00000000000006</ele><time>2026-04-18T12:32:27.001Z</time></trkpt><trkpt lat="42.12188933666783" lon="11.926916425902697"><ele>451.0</ele><time>2026-04-18T12:32:28.001Z</time></trkpt><trkpt lat="42.121825777435006" lon="11.926961074119651"><ele>451.0</ele><time>2026-04-18T12:32:29.001Z</time></trkpt><trkpt lat="42.121758429558774" lon="11.927018420286478"><ele>451.0</ele><time>2026-04-18T12:32:30.001Z</time></trkpt><trkpt lat="42.12169547724968" lon="11.927077649554326"><ele>451.00000000000006</ele><time>2026-04-18T12:32:31.001Z</time></trkpt><trkpt lat="42.12163771463314" lon="11.927155519932766"><ele>451.0</ele><time>2026-04-18T12:32:32.001Z</time></trkpt><trkpt lat="42.12158003495056" lon="11.927234385336359"><ele>451.00000000000006</ele><time>2026-04-18T12:32:33.001Z</time></trkpt><trkpt lat="42.12152967673462" lon="11.927311971624595"><ele>451.0</ele><time>2026-04-18T12:32:34.001Z</time></trkpt><trkpt lat="42.121466395487445" lon="11.927387120586259"><ele>451.0</ele><time>2026-04-18T12:32:35.001Z</time></trkpt><trkpt lat="42.12140787761466" lon="11.927451783987134"><ele>451.0</ele><time>2026-04-18T12:32:36.001Z</time></trkpt><trkpt lat="42.12133148679743" lon="11.927537362134977"><ele>451.00000000000006</ele><time>2026-04-18T12:32:37.001Z</time></trkpt><trkpt lat="42.121265219534045" lon="11.927632795799497"><ele>451.0</ele><time>2026-04-18T12:32:38.001Z</time></trkpt><trkpt lat="42.12121591353866" lon="11.927712377605314"><ele>451.00000000000006</ele><time>2026-04-18T12:32:39.001Z</time></trkpt><trkpt lat="42.121178579022356" lon="11.927785293533978"><ele>451.0</ele><time>2026-04-18T12:32:40.001Z</time></trkpt><trkpt lat="42.12113438140268" lon="11.927847107136401"><ele>451.0</ele><time>2026-04-18T12:32:41.001Z</time></trkpt><trkpt lat="42.12106694552916" lon="11.92790403323282"><ele>451.0</ele><time>2026-04-18T12:32:42.001Z</time></trkpt><trkpt lat="42.12100009883341" lon="11.927949629374005"><ele>451.00000000000006</ele><time>2026-04-18T12:32:43.001Z</time></trkpt><trkpt lat="42.12092636816162" lon="11.927982988690136"><ele>451.0</ele><time>2026-04-18T12:32:44.001Z</time></trkpt><trkpt lat="42.12084353111019" lon="11.928026805106743"><ele>451.0</ele><time>2026-04-18T12:32:45.001Z</time></trkpt><trkpt lat="42.120765333766435" lon="11.928062505303979"><ele>451.0</ele><time>2026-04-18T12:32:46.001Z</time></trkpt><trkpt lat="42.120648893588736" lon="11.928119198074231"><ele>451.0</ele><time>2026-04-18T12:32:48.002Z</time></trkpt><trkpt lat="42.120593634195444" lon="11.928172688034007"><ele>451.0</ele><time>2026-04-18T12:32:49.002Z</time></trkpt><trkpt lat="42.12049306948921" lon="11.928164726436478"><ele>451.0</ele><time>2026-04-18T12:32:51.002Z</time></trkpt><trkpt lat="42.120461400305054" lon="11.928066158501576"><ele>452.75</ele><time>2026-04-18T12:32:53.002Z</time></trkpt><trkpt lat="42.12051094332078" lon="11.92790927087241"><ele>454.5</ele><time>2026-04-18T12:32:55.002Z</time></trkpt><trkpt lat="42.12053697459433" lon="11.927821556471084"><ele>456.25</ele><time>2026-04-18T12:32:56.002Z</time></trkpt><trkpt lat="42.12058862192987" lon="11.927661170397649"><ele>458.0</ele><time>2026-04-18T12:32:58.002Z</time></trkpt><trkpt lat="42.12064228369345" lon="11.927507551953878"><ele>458.66666666666663</ele><time>2026-04-18T12:33:00.002Z</time></trkpt><trkpt lat="42.120661346178295" lon="11.927411209872275"><ele>459.3333333333333</ele><time>2026-04-18T12:33:01.002Z</time></trkpt><trkpt lat="42.12067183599339" lon="11.927310573267203"><ele>460.0</ele><time>2026-04-18T12:33:02.002Z</time></trkpt><trkpt lat="42.12066249192803" lon="11.92721391664726"><ele>460.66666666666663</ele><time>2026-04-18T12:33:03.002Z</time></trkpt><trkpt lat="42.120643746929574" lon="11.927104002833158"><ele>461.3333333333333</ele><time>2026-04-18T12:33:04.002Z</time></trkpt><trkpt lat="42.1206209542036" lon="11.927005934285754"><ele>462.0</ele><time>2026-04-18T12:33:05.002Z</time></trkpt><trkpt lat="42.12059574295461" lon="11.926910442010382"><ele>462.0</ele><time>2026-04-18T12:33:06.002Z</time></trkpt><trkpt lat="42.12057757429626" lon="11.926816144110779"><ele>462.00000000000006</ele><time>2026-04-18T12:33:07.002Z</time></trkpt><trkpt lat="42.12054968925062" lon="11.926676250528349"><ele>462.00000000000006</ele><time>2026-04-18T12:33:09.002Z</time></trkpt><trkpt lat="42.12048863664167" lon="11.926563048663166"><ele>462.0</ele><time>2026-04-18T12:33:19.002Z</time></trkpt><trkpt lat="42.12045092411313" lon="11.926395713666617"><ele>462.0</ele><time>2026-04-18T12:33:21Z</time></trkpt><trkpt lat="42.12042575158295" lon="11.926297201437645"><ele>461.0</ele><time>2026-04-18T12:33:22Z</time></trkpt><trkpt lat="42.12038862139655" lon="11.926176801416645"><ele>460.00000000000006</ele><time>2026-04-18T12:33:23Z</time></trkpt><trkpt lat="42.1203406139009" lon="11.926060346680739"><ele>459.00000000000006</ele><time>2026-04-18T12:33:24Z</time></trkpt><trkpt lat="42.12033148110928" lon="11.925912184415443"><ele>458.0</ele><time>2026-04-18T12:33:25Z</time></trkpt><trkpt lat="42.12029331511726" lon="11.925801385101401"><ele>457.0</ele><time>2026-04-18T12:33:26Z</time></trkpt><trkpt lat="42.12025960403786" lon="11.9257074635988"><ele>456.00000000000006</ele><time>2026-04-18T12:33:27Z</time></trkpt><trkpt lat="42.120220996438704" lon="11.925609117537507"><ele>455.0</ele><time>2026-04-18T12:33:28Z</time></trkpt><trkpt lat="42.1201810101093" lon="11.925525950442413"><ele>454.0</ele><time>2026-04-18T12:33:29Z</time></trkpt><trkpt lat="42.12013210679019" lon="11.925436380908094"><ele>453.0</ele><time>2026-04-18T12:33:31Z</time></trkpt><trkpt lat="42.12008988169934" lon="11.925366334687567"><ele>452.00000000000006</ele><time>2026-04-18T12:33:33Z</time></trkpt><trkpt lat="42.12001054826832" lon="11.92533694700457"><ele>451.0</ele><time>2026-04-18T12:33:44Z</time></trkpt><trkpt lat="42.11995176253269" lon="11.92538472849609"><ele>450.83333333333337</ele><time>2026-04-18T12:33:46Z</time></trkpt><trkpt lat="42.119898823439854" lon="11.925470567395223"><ele>450.6666666666667</ele><time>2026-04-18T12:33:48Z</time></trkpt><trkpt lat="42.11984100726266" lon="11.925562275893348"><ele>450.5</ele><time>2026-04-18T12:33:50Z</time></trkpt><trkpt lat="42.11978903908789" lon="11.92564159900582"><ele>450.33333333333337</ele><time>2026-04-18T12:33:52Z</time></trkpt><trkpt lat="42.1197296791146" lon="11.925707260718548"><ele>450.1666666666667</ele><time>2026-04-18T12:33:55Z</time></trkpt><trkpt lat="42.119687902463774" lon="11.92577269397499"><ele>450.0</ele><time>2026-04-18T12:33:58Z</time></trkpt><trkpt lat="42.11961371295358" lon="11.925863837102234"><ele>449.8333333333333</ele><time>2026-04-18T12:34:01Z</time></trkpt><trkpt lat="42.11955454558009" lon="11.925952336599927"><ele>449.66666666666663</ele><time>2026-04-18T12:34:04Z</time></trkpt><trkpt lat="42.119510586436945" lon="11.926021529223139"><ele>449.5</ele><time>2026-04-18T12:34:06Z</time></trkpt><trkpt lat="42.11942836663308" lon="11.925996024074903"><ele>449.3333333333333</ele><time>2026-04-18T12:34:07Z</time></trkpt><trkpt lat="42.11933907094387" lon="11.926000794828303"><ele>449.16666666666663</ele><time>2026-04-18T12:34:10Z</time></trkpt><trkpt lat="42.119252190237866" lon="11.92602032657399"><ele>449.0</ele><time>2026-04-18T12:34:12Z</time></trkpt><trkpt lat="42.11916971364542" lon="11.926047721419748"><ele>448.99999999999994</ele><time>2026-04-18T12:34:14Z</time></trkpt><trkpt lat="42.11909076751271" lon="11.926087594868617"><ele>449.0</ele><time>2026-04-18T12:34:17.001Z</time></trkpt><trkpt lat="42.119028753221315" lon="11.92610352944742"><ele>449.0</ele><time>2026-04-18T12:34:19.001Z</time></trkpt><trkpt lat="42.11895168683056" lon="11.926111215816727"><ele>449.0</ele><time>2026-04-18T12:34:23.001Z</time></trkpt><trkpt lat="42.11889136991557" lon="11.926138997075688"><ele>448.99999999999994</ele><time>2026-04-18T12:34:26.001Z</time></trkpt><trkpt lat="42.118820943245325" lon="11.926147127186974"><ele>449.0</ele><time>2026-04-18T12:34:51.001Z</time></trkpt><trkpt lat="42.118924585452234" lon="11.926139107800333"><ele>448.99999999999994</ele><time>2026-04-18T12:34:56.001Z</time></trkpt><trkpt lat="42.11900513414554" lon="11.926109523209014"><ele>449.0</ele><time>2026-04-18T12:34:58.001Z</time></trkpt><trkpt lat="42.119099367364285" lon="11.926087861815018"><ele>449.0</ele><time>2026-04-18T12:35:00.001Z</time></trkpt><trkpt lat="42.11918967119399" lon="11.926041092502647"><ele>449.0</ele><time>2026-04-18T12:35:02.001Z</time></trkpt><trkpt lat="42.119285586710355" lon="11.926052801307645"><ele>448.99999999999994</ele><time>2026-04-18T12:35:04.001Z</time></trkpt><trkpt lat="42.11935771680251" lon="11.926025807572929"><ele>449.0</ele><time>2026-04-18T12:35:06.001Z</time></trkpt><trkpt lat="42.11942632056592" lon="11.925978161983501"><ele>449.0</ele><time>2026-04-18T12:35:08.001Z</time></trkpt><trkpt lat="42.11951336646198" lon="11.925913443899992"><ele>449.0</ele><time>2026-04-18T12:35:10.001Z</time></trkpt><trkpt lat="42.11959831859525" lon="11.925878297254469"><ele>449.0</ele><time>2026-04-18T12:35:12.001Z</time></trkpt><trkpt lat="42.11967221821478" lon="11.925816841191992"><ele>449.0</ele><time>2026-04-18T12:35:14.001Z</time></trkpt><trkpt lat="42.11973981097306" lon="11.925700263790505"><ele>449.0</ele><time>2026-04-18T12:35:16.001Z</time></trkpt><trkpt lat="42.11978952709829" lon="11.925631999122249"><ele>449.1428571428571</ele><time>2026-04-18T12:35:17.001Z</time></trkpt><trkpt lat="42.11984115477955" lon="11.925563171111495"><ele>449.2857142857142</ele><time>2026-04-18T12:35:18.001Z</time></trkpt><trkpt lat="42.1198930817104" lon="11.925492526588778"><ele>449.42857142857144</ele><time>2026-04-18T12:35:19.001Z</time></trkpt><trkpt lat="42.119941369705344" lon="11.925420521130471"><ele>449.57142857142856</ele><time>2026-04-18T12:35:20.001Z</time></trkpt><trkpt lat="42.11998904105921" lon="11.925351389768275"><ele>449.7142857142857</ele><time>2026-04-18T12:35:21.001Z</time></trkpt><trkpt lat="42.12004016642936" lon="11.92528034951292"><ele>449.8571428571429</ele><time>2026-04-18T12:35:22.001Z</time></trkpt><trkpt lat="42.12008970773111" lon="11.925210011781987"><ele>450.00000000000006</ele><time>2026-04-18T12:35:23.001Z</time></trkpt><trkpt lat="42.12016259027473" lon="11.925180124828884"><ele>450.2</ele><time>2026-04-18T12:35:24.001Z</time></trkpt><trkpt lat="42.12025181967332" lon="11.925071066352611"><ele>450.4</ele><time>2026-04-18T12:35:26Z</time></trkpt><trkpt lat="42.12034517570108" lon="11.92495752879318"><ele>450.6</ele><time>2026-04-18T12:35:28Z</time></trkpt><trkpt lat="42.12040690168765" lon="11.924883572452723"><ele>450.8</ele><time>2026-04-18T12:35:29Z</time></trkpt><trkpt lat="42.12047389996535" lon="11.924806728878215"><ele>451.0</ele><time>2026-04-18T12:35:30Z</time></trkpt><trkpt lat="42.12053578917976" lon="11.92473643080575"><ele>449.4</ele><time>2026-04-18T12:35:31Z</time></trkpt><trkpt lat="42.12060309222492" lon="11.924659983327473"><ele>447.8</ele><time>2026-04-18T12:35:32Z</time></trkpt><trkpt lat="42.12067695672696" lon="11.924573035572056"><ele>446.19999999999993</ele><time>2026-04-18T12:35:33Z</time></trkpt><trkpt lat="42.12073912418013" lon="11.924469816953328"><ele>444.59999999999997</ele><time>2026-04-18T12:35:34Z</time></trkpt><trkpt lat="42.120824957167656" lon="11.924384255379639"><ele>443.0</ele><time>2026-04-18T12:35:35Z</time></trkpt><trkpt lat="42.120909614504825" lon="11.924300293964727"><ele>441.59999999999997</ele><time>2026-04-18T12:35:36Z</time></trkpt><trkpt lat="42.12099523024987" lon="11.924223225313234"><ele>440.19999999999993</ele><time>2026-04-18T12:35:37Z</time></trkpt><trkpt lat="42.12109532630352" lon="11.924166641618529"><ele>438.8</ele><time>2026-04-18T12:35:38Z</time></trkpt><trkpt lat="42.12118835920392" lon="11.9240970750452"><ele>437.4</ele><time>2026-04-18T12:35:39Z</time></trkpt><trkpt lat="42.12126891285243" lon="11.924028761415698"><ele>436.0</ele><time>2026-04-18T12:35:40Z</time></trkpt><trkpt lat="42.12135755848292" lon="11.923996989838932"><ele>436.0</ele><time>2026-04-18T12:35:41Z</time></trkpt><trkpt lat="42.121443949765506" lon="11.923972081586774"><ele>436.0</ele><time>2026-04-18T12:35:42Z</time></trkpt><trkpt lat="42.121529505980895" lon="11.923953550912854"><ele>436.0</ele><time>2026-04-18T12:35:43Z</time></trkpt><trkpt lat="42.121624968093265" lon="11.923930460848416"><ele>436.0</ele><time>2026-04-18T12:35:44Z</time></trkpt><trkpt lat="42.12172624328533" lon="11.923889651697198"><ele>436.0</ele><time>2026-04-18T12:35:45Z</time></trkpt><trkpt lat="42.12182564254084" lon="11.923848694133762"><ele>435.6</ele><time>2026-04-18T12:35:46Z</time></trkpt><trkpt lat="42.121922818971974" lon="11.923809095517655"><ele>435.20000000000005</ele><time>2026-04-18T12:35:47Z</time></trkpt><trkpt lat="42.12201734176515" lon="11.923763518479777"><ele>434.79999999999995</ele><time>2026-04-18T12:35:48Z</time></trkpt><trkpt lat="42.12210794292137" lon="11.923710767616805"><ele>434.4</ele><time>2026-04-18T12:35:49Z</time></trkpt><trkpt lat="42.122197649719034" lon="11.92364436002263"><ele>434.0</ele><time>2026-04-18T12:35:50Z</time></trkpt><trkpt lat="42.12229778007364" lon="11.923595479090013"><ele>434.0</ele><time>2026-04-18T12:35:51Z</time></trkpt><trkpt lat="42.122396595620614" lon="11.923533566011702"><ele>434.0</ele><time>2026-04-18T12:35:52Z</time></trkpt><trkpt lat="42.12249601628828" lon="11.923467130788636"><ele>434.0</ele><time>2026-04-18T12:35:53Z</time></trkpt><trkpt lat="42.122596108370686" lon="11.923395314523558"><ele>434.0</ele><time>2026-04-18T12:35:54Z</time></trkpt><trkpt lat="42.12270202860566" lon="11.923300885358435"><ele>435.5</ele><time>2026-04-18T12:35:55Z</time></trkpt><trkpt lat="42.12281307468944" lon="11.92322802645077"><ele>437.0</ele><time>2026-04-18T12:35:56Z</time></trkpt><trkpt lat="42.122926487174844" lon="11.92314907004109"><ele>438.5</ele><time>2026-04-18T12:35:57Z</time></trkpt><trkpt lat="42.12305599262908" lon="11.923096536741273"><ele>440.0</ele><time>2026-04-18T12:35:58Z</time></trkpt><trkpt lat="42.123177685264956" lon="11.923039579171935"><ele>440.2</ele><time>2026-04-18T12:35:59Z</time></trkpt><trkpt lat="42.12329765222828" lon="11.923000923015364"><ele>440.4</ele><time>2026-04-18T12:36:00Z</time></trkpt><trkpt lat="42.12340772044795" lon="11.922970269448465"><ele>440.6</ele><time>2026-04-18T12:36:01Z</time></trkpt><trkpt lat="42.12348061607096" lon="11.922940833007235"><ele>440.8</ele><time>2026-04-18T12:36:02Z</time></trkpt><trkpt lat="42.12355424565265" lon="11.922902259755533"><ele>441.0</ele><time>2026-04-18T12:36:03Z</time></trkpt><trkpt lat="42.1236146410957" lon="11.92283438827132"><ele>441.0</ele><time>2026-04-18T12:36:04Z</time></trkpt><trkpt lat="42.123683260698286" lon="11.922771579500324"><ele>441.0</ele><time>2026-04-18T12:36:05Z</time></trkpt><trkpt lat="42.12372066214265" lon="11.922623505715146"><ele>441.0</ele><time>2026-04-18T12:36:06Z</time></trkpt><trkpt lat="42.12375634055873" lon="11.922456811060544"><ele>441.0</ele><time>2026-04-18T12:36:07Z</time></trkpt><trkpt lat="42.12383530650398" lon="11.922346168979631"><ele>441.0</ele><time>2026-04-18T12:36:08Z</time></trkpt><trkpt lat="42.123923120736144" lon="11.922241194691644"><ele>442.8</ele><time>2026-04-18T12:36:09Z</time></trkpt><trkpt lat="42.12402690947632" lon="11.92217457499851"><ele>444.6</ele><time>2026-04-18T12:36:10Z</time></trkpt><trkpt lat="42.12412874979664" lon="11.922113414824258"><ele>446.4</ele><time>2026-04-18T12:36:11Z</time></trkpt><trkpt lat="42.12421256551172" lon="11.922022780054125"><ele>448.2</ele><time>2026-04-18T12:36:12Z</time></trkpt><trkpt lat="42.124279965575134" lon="11.921899685682273"><ele>450.0</ele><time>2026-04-18T12:36:13Z</time></trkpt><trkpt lat="42.12434705695623" lon="11.921770417154317"><ele>453.0</ele><time>2026-04-18T12:36:14Z</time></trkpt><trkpt lat="42.124417890433726" lon="11.92163547339842"><ele>456.0</ele><time>2026-04-18T12:36:15Z</time></trkpt><trkpt lat="42.124476938745396" lon="11.921512990212712"><ele>459.0</ele><time>2026-04-18T12:36:16Z</time></trkpt><trkpt lat="42.12452425594302" lon="11.921407368823438"><ele>462.0</ele><time>2026-04-18T12:36:17Z</time></trkpt><trkpt lat="42.124563432107266" lon="11.921286092766078"><ele>465.0</ele><time>2026-04-18T12:36:18Z</time></trkpt><trkpt lat="42.12458689021732" lon="11.921134230721952"><ele>465.0</ele><time>2026-04-18T12:36:19Z</time></trkpt><trkpt lat="42.12460057435924" lon="11.92098470252071"><ele>465.0</ele><time>2026-04-18T12:36:20Z</time></trkpt><trkpt lat="42.12460619855135" lon="11.920825440637927"><ele>465.0</ele><time>2026-04-18T12:36:21Z</time></trkpt><trkpt lat="42.12461588248625" lon="11.920671021589175"><ele>465.0</ele><time>2026-04-18T12:36:22Z</time></trkpt><trkpt lat="42.12463237815495" lon="11.920531977234553"><ele>465.0</ele><time>2026-04-18T12:36:23Z</time></trkpt><trkpt lat="42.12466327182813" lon="11.920385560880092"><ele>465.0</ele><time>2026-04-18T12:36:24Z</time></trkpt><trkpt lat="42.12472570291984" lon="11.920252669860297"><ele>465.0</ele><time>2026-04-18T12:36:25Z</time></trkpt><trkpt lat="42.1248003694866" lon="11.920117457237906"><ele>465.0</ele><time>2026-04-18T12:36:26Z</time></trkpt><trkpt lat="42.12489510670681" lon="11.919973612692745"><ele>465.0</ele><time>2026-04-18T12:36:27Z</time></trkpt><trkpt lat="42.1249927156026" lon="11.919841466280529"><ele>462.0</ele><time>2026-04-18T12:36:28Z</time></trkpt><trkpt lat="42.1250909375072" lon="11.919701439610938"><ele>459.0</ele><time>2026-04-18T12:36:29Z</time></trkpt><trkpt lat="42.125185642677195" lon="11.919535621517554"><ele>456.0</ele><time>2026-04-18T12:36:30Z</time></trkpt><trkpt lat="42.125289353587995" lon="11.919390272787941"><ele>453.0</ele><time>2026-04-18T12:36:31Z</time></trkpt><trkpt lat="42.12538345586471" lon="11.919257295495614"><ele>452.75</ele><time>2026-04-18T12:36:32Z</time></trkpt><trkpt lat="42.125473885084325" lon="11.919126566537086"><ele>452.5</ele><time>2026-04-18T12:36:33Z</time></trkpt><trkpt lat="42.12556722959096" lon="11.918992307613117"><ele>452.25</ele><time>2026-04-18T12:36:34Z</time></trkpt><trkpt lat="42.125660841162926" lon="11.918848700018348"><ele>452.0</ele><time>2026-04-18T12:36:35Z</time></trkpt><trkpt lat="42.125747785103286" lon="11.918710790230486"><ele>454.75</ele><time>2026-04-18T12:36:36Z</time></trkpt><trkpt lat="42.12582394779092" lon="11.91857577880872"><ele>457.5</ele><time>2026-04-18T12:36:37Z</time></trkpt><trkpt lat="42.12589512851624" lon="11.918433948546328"><ele>460.25</ele><time>2026-04-18T12:36:38.001Z</time></trkpt><trkpt lat="42.12597030768827" lon="11.91830574651618"><ele>463.0</ele><time>2026-04-18T12:36:39.001Z</time></trkpt><trkpt lat="42.12601607859443" lon="11.918145817503342"><ele>463.0</ele><time>2026-04-18T12:36:40.001Z</time></trkpt><trkpt lat="42.126016171830095" lon="11.91796015147985"><ele>463.0</ele><time>2026-04-18T12:36:41.001Z</time></trkpt><trkpt lat="42.12601608835242" lon="11.917788922420252"><ele>463.0</ele><time>2026-04-18T12:36:42.001Z</time></trkpt><trkpt lat="42.12600623144157" lon="11.91764076313008"><ele>463.0</ele><time>2026-04-18T12:36:43.001Z</time></trkpt><trkpt lat="42.12600984952555" lon="11.917486291155155"><ele>463.0</ele><time>2026-04-18T12:36:44.001Z</time></trkpt><trkpt lat="42.125998201874395" lon="11.917320097876432"><ele>463.0</ele><time>2026-04-18T12:36:45.001Z</time></trkpt><trkpt lat="42.1259847274217" lon="11.9171439143105"><ele>463.0</ele><time>2026-04-18T12:36:46.001Z</time></trkpt><trkpt lat="42.125969242383455" lon="11.91696570499842"><ele>463.0</ele><time>2026-04-18T12:36:47.001Z</time></trkpt><trkpt lat="42.1259725072845" lon="11.91678899859885"><ele>464.25</ele><time>2026-04-18T12:36:48.001Z</time></trkpt><trkpt lat="42.12600206156282" lon="11.91662425038991"><ele>465.5</ele><time>2026-04-18T12:36:49.001Z</time></trkpt><trkpt lat="42.126041845007315" lon="11.916478168477367"><ele>466.75</ele><time>2026-04-18T12:36:50.001Z</time></trkpt><trkpt lat="42.12609069845478" lon="11.91633183425671"><ele>468.0</ele><time>2026-04-18T12:36:51.001Z</time></trkpt><trkpt lat="42.12615640095535" lon="11.916182456742327"><ele>468.0</ele><time>2026-04-18T12:36:52.001Z</time></trkpt><trkpt lat="42.12623375195973" lon="11.916016670194058"><ele>468.0</ele><time>2026-04-18T12:36:53.001Z</time></trkpt><trkpt lat="42.12630382063391" lon="11.91584477274152"><ele>468.0</ele><time>2026-04-18T12:36:54.001Z</time></trkpt><trkpt lat="42.12637679199875" lon="11.91570547083414"><ele>468.0</ele><time>2026-04-18T12:36:55.001Z</time></trkpt><trkpt lat="42.12644288563279" lon="11.915579269974357"><ele>467.5</ele><time>2026-04-18T12:36:56.001Z</time></trkpt><trkpt lat="42.126517969721824" lon="11.915461058427177"><ele>467.0</ele><time>2026-04-18T12:36:57.001Z</time></trkpt><trkpt lat="42.12661505764907" lon="11.915335257870444"><ele>466.5</ele><time>2026-04-18T12:36:58.001Z</time></trkpt><trkpt lat="42.12672266247773" lon="11.915229870961122"><ele>466.0</ele><time>2026-04-18T12:36:59.001Z</time></trkpt><trkpt lat="42.12681435749949" lon="11.915138794824305"><ele>467.20000000000005</ele><time>2026-04-18T12:37:00.001Z</time></trkpt><trkpt lat="42.126868611147934" lon="11.915035932852481"><ele>468.40000000000003</ele><time>2026-04-18T12:37:01.001Z</time></trkpt><trkpt lat="42.12687876338439" lon="11.914911541708745"><ele>469.6</ele><time>2026-04-18T12:37:02.001Z</time></trkpt><trkpt lat="42.12685841277152" lon="11.914753912943866"><ele>470.8</ele><time>2026-04-18T12:37:03.001Z</time></trkpt><trkpt lat="42.1268165233154" lon="11.91458701193339"><ele>472.0</ele><time>2026-04-18T12:37:04.001Z</time></trkpt><trkpt lat="42.126730849327245" lon="11.914462397134221"><ele>472.00000000000006</ele><time>2026-04-18T12:37:05.001Z</time></trkpt><trkpt lat="42.12664989964295" lon="11.914365001654065"><ele>472.0</ele><time>2026-04-18T12:37:06.001Z</time></trkpt><trkpt lat="42.12658050059234" lon="11.914276699715861"><ele>472.0</ele><time>2026-04-18T12:37:07.001Z</time></trkpt><trkpt lat="42.126515415510916" lon="11.914182119252327"><ele>472.0</ele><time>2026-04-18T12:37:08.001Z</time></trkpt><trkpt lat="42.126501552473066" lon="11.914085575697124"><ele>472.00000000000006</ele><time>2026-04-18T12:37:09.001Z</time></trkpt><trkpt lat="42.12652263898704" lon="11.913991404928117"><ele>472.0</ele><time>2026-04-18T12:37:10.001Z</time></trkpt><trkpt lat="42.1265801297698" lon="11.9138961144138"><ele>472.0</ele><time>2026-04-18T12:37:11.001Z</time></trkpt><trkpt lat="42.12666596666206" lon="11.913801369216197"><ele>472.0</ele><time>2026-04-18T12:37:12.001Z</time></trkpt><trkpt lat="42.1267730903313" lon="11.913669794491614"><ele>472.0</ele><time>2026-04-18T12:37:13.001Z</time></trkpt><trkpt lat="42.126892322720416" lon="11.913520822966364"><ele>472.0</ele><time>2026-04-18T12:37:14.001Z</time></trkpt><trkpt lat="42.12700181317966" lon="11.913340254750805"><ele>472.0</ele><time>2026-04-18T12:37:15.001Z</time></trkpt><trkpt lat="42.12710797879781" lon="11.913153483309863"><ele>472.0</ele><time>2026-04-18T12:37:16.001Z</time></trkpt><trkpt lat="42.127209977608565" lon="11.912987279873365"><ele>472.0</ele><time>2026-04-18T12:37:17.001Z</time></trkpt><trkpt lat="42.12730913195012" lon="11.912847763760876"><ele>469.25</ele><time>2026-04-18T12:37:18.001Z</time></trkpt><trkpt lat="42.12739482424697" lon="11.912702970725842"><ele>466.5</ele><time>2026-04-18T12:37:19.001Z</time></trkpt><trkpt lat="42.12747463298107" lon="11.912566814805645"><ele>463.75</ele><time>2026-04-18T12:37:20.001Z</time></trkpt><trkpt lat="42.1275481018937" lon="11.912438703751347"><ele>461.0</ele><time>2026-04-18T12:37:21.001Z</time></trkpt><trkpt lat="42.12760367485982" lon="11.912305222508065"><ele>461.0</ele><time>2026-04-18T12:37:22.001Z</time></trkpt><trkpt lat="42.12768191008664" lon="11.912166983942654"><ele>461.0</ele><time>2026-04-18T12:37:23.001Z</time></trkpt><trkpt lat="42.1277662494797" lon="11.912028994593404"><ele>461.0</ele><time>2026-04-18T12:37:24.001Z</time></trkpt><trkpt lat="42.127846718273844" lon="11.911887149059519"><ele>461.0</ele><time>2026-04-18T12:37:25.001Z</time></trkpt><trkpt lat="42.127925062521214" lon="11.911740521642116"><ele>459.0</ele><time>2026-04-18T12:37:26.001Z</time></trkpt><trkpt lat="42.128009993334864" lon="11.911591884219815"><ele>457.0</ele><time>2026-04-18T12:37:27.001Z</time></trkpt><trkpt lat="42.128072121357434" lon="11.911430785182981"><ele>455.0</ele><time>2026-04-18T12:37:28.001Z</time></trkpt><trkpt lat="42.12812757819929" lon="11.911263914896614"><ele>453.0</ele><time>2026-04-18T12:37:29.001Z</time></trkpt><trkpt lat="42.12817846536024" lon="11.911088189626257"><ele>457.0</ele><time>2026-04-18T12:37:30.001Z</time></trkpt><trkpt lat="42.12826437155037" lon="11.910938502082145"><ele>461.0</ele><time>2026-04-18T12:37:31.001Z</time></trkpt><trkpt lat="42.12834920485749" lon="11.91078863931148"><ele>465.0</ele><time>2026-04-18T12:37:31.999Z</time></trkpt><trkpt lat="42.128435225678075" lon="11.910623498303762"><ele>469.0</ele><time>2026-04-18T12:37:32.999Z</time></trkpt><trkpt lat="42.128532476370395" lon="11.910464190884799"><ele>469.25</ele><time>2026-04-18T12:37:33.999Z</time></trkpt><trkpt lat="42.12861361365521" lon="11.910300737804414"><ele>469.5</ele><time>2026-04-18T12:37:34.999Z</time></trkpt><trkpt lat="42.1286681695562" lon="11.910134250593373"><ele>469.75</ele><time>2026-04-18T12:37:35.999Z</time></trkpt><trkpt lat="42.128702136638" lon="11.909948881423029"><ele>470.0</ele><time>2026-04-18T12:37:36.999Z</time></trkpt><trkpt lat="42.128749482474575" lon="11.90976324503482"><ele>469.3333333333333</ele><time>2026-04-18T12:37:37.999Z</time></trkpt><trkpt lat="42.1287636609078" lon="11.90955629693947"><ele>468.66666666666663</ele><time>2026-04-18T12:37:38.999Z</time></trkpt><trkpt lat="42.1287663399019" lon="11.909342234063853"><ele>468.0</ele><time>2026-04-18T12:37:39.999Z</time></trkpt><trkpt lat="42.128768769176375" lon="11.90913186289384"><ele>468.0</ele><time>2026-04-18T12:37:40.999Z</time></trkpt><trkpt lat="42.128770127082774" lon="11.908920963713193"><ele>468.0</ele><time>2026-04-18T12:37:41.999Z</time></trkpt><trkpt lat="42.128772490449194" lon="11.908709988675366"><ele>468.0</ele><time>2026-04-18T12:37:42.999Z</time></trkpt><trkpt lat="42.12877661480048" lon="11.908493598958469"><ele>470.66666666666663</ele><time>2026-04-18T12:37:43.999Z</time></trkpt><trkpt lat="42.12878254332268" lon="11.908276091813216"><ele>473.3333333333333</ele><time>2026-04-18T12:37:44.999Z</time></trkpt><trkpt lat="42.128788589867355" lon="11.908054254690022"><ele>476.0</ele><time>2026-04-18T12:37:45.999Z</time></trkpt><trkpt lat="42.12879380518965" lon="11.907832168384022"><ele>476.0</ele><time>2026-04-18T12:37:46.999Z</time></trkpt><trkpt lat="42.12879706075148" lon="11.90760814768122"><ele>476.0</ele><time>2026-04-18T12:37:47.999Z</time></trkpt><trkpt lat="42.12880024022695" lon="11.90738697145682"><ele>476.0</ele><time>2026-04-18T12:37:48.999Z</time></trkpt><trkpt lat="42.128808600165456" lon="11.907170424837833"><ele>479.25</ele><time>2026-04-18T12:37:49.999Z</time></trkpt><trkpt lat="42.12882385796549" lon="11.90697568368293"><ele>482.5</ele><time>2026-04-18T12:37:51Z</time></trkpt><trkpt lat="42.12884935121824" lon="11.906804524060556"><ele>485.75</ele><time>2026-04-18T12:37:52Z</time></trkpt><trkpt lat="42.12888110848109" lon="11.9066284640264"><ele>489.0</ele><time>2026-04-18T12:37:53Z</time></trkpt><trkpt lat="42.12889468671182" lon="11.9064630875521"><ele>488.75</ele><time>2026-04-18T12:37:54Z</time></trkpt><trkpt lat="42.12886414583334" lon="11.906300559062027"><ele>488.5</ele><time>2026-04-18T12:37:55Z</time></trkpt><trkpt lat="42.12880677091629" lon="11.90614459757212"><ele>488.25</ele><time>2026-04-18T12:37:56Z</time></trkpt><trkpt lat="42.1287223059902" lon="11.905984440806241"><ele>488.0</ele><time>2026-04-18T12:37:57Z</time></trkpt><trkpt lat="42.1286537056842" lon="11.905830710251733"><ele>488.0</ele><time>2026-04-18T12:37:58Z</time></trkpt><trkpt lat="42.1286131622759" lon="11.905679959374815"><ele>487.99999999999994</ele><time>2026-04-18T12:37:59Z</time></trkpt><trkpt lat="42.12862275402856" lon="11.90554416775239"><ele>487.99999999999994</ele><time>2026-04-18T12:38:00Z</time></trkpt><trkpt lat="42.128655885038754" lon="11.905423766731147"><ele>488.0</ele><time>2026-04-18T12:38:01Z</time></trkpt><trkpt lat="42.12870629706328" lon="11.905290472385525"><ele>488.0</ele><time>2026-04-18T12:38:02Z</time></trkpt><trkpt lat="42.12876528613371" lon="11.905153552064666"><ele>487.5</ele><time>2026-04-18T12:38:03Z</time></trkpt><trkpt lat="42.12883143256544" lon="11.905020020699238"><ele>487.0</ele><time>2026-04-18T12:38:04Z</time></trkpt><trkpt lat="42.12890016385681" lon="11.904893491447634"><ele>486.5</ele><time>2026-04-18T12:38:05Z</time></trkpt><trkpt lat="42.12896161529435" lon="11.904786539989619"><ele>486.0</ele><time>2026-04-18T12:38:06Z</time></trkpt><trkpt lat="42.1290730483765" lon="11.90473312376476"><ele>485.6</ele><time>2026-04-18T12:38:07Z</time></trkpt><trkpt lat="42.1291939204656" lon="11.90470807776199"><ele>485.20000000000005</ele><time>2026-04-18T12:38:08Z</time></trkpt><trkpt lat="42.12930484581567" lon="11.90467533224215"><ele>484.79999999999995</ele><time>2026-04-18T12:38:09Z</time></trkpt><trkpt lat="42.12941007563815" lon="11.904632991729283"><ele>484.4</ele><time>2026-04-18T12:38:10Z</time></trkpt><trkpt lat="42.12951286282252" lon="11.904613435759781"><ele>484.0</ele><time>2026-04-18T12:38:11Z</time></trkpt><trkpt lat="42.12961669144315" lon="11.90457725524268"><ele>484.0</ele><time>2026-04-18T12:38:12Z</time></trkpt><trkpt lat="42.12972252491291" lon="11.90453887510899"><ele>484.0</ele><time>2026-04-18T12:38:13Z</time></trkpt><trkpt lat="42.12983180186371" lon="11.904493413791258"><ele>484.0</ele><time>2026-04-18T12:38:14Z</time></trkpt><trkpt lat="42.12993719668241" lon="11.904443261716159"><ele>484.0</ele><time>2026-04-18T12:38:15Z</time></trkpt><trkpt lat="42.130042805601015" lon="11.904392400663674"><ele>484.0</ele><time>2026-04-18T12:38:16Z</time></trkpt><trkpt lat="42.13015177395211" lon="11.904321688119833"><ele>483.0</ele><time>2026-04-18T12:38:17Z</time></trkpt><trkpt lat="42.13026834727921" lon="11.904283891185147"><ele>482.0</ele><time>2026-04-18T12:38:18Z</time></trkpt><trkpt lat="42.13037943797315" lon="11.904241291755548"><ele>481.0</ele><time>2026-04-18T12:38:19Z</time></trkpt><trkpt lat="42.13049472549713" lon="11.904206660647683"><ele>480.0</ele><time>2026-04-18T12:38:20Z</time></trkpt><trkpt lat="42.13060898833081" lon="11.90417490124557"><ele>483.75</ele><time>2026-04-18T12:38:21Z</time></trkpt><trkpt lat="42.13072689106222" lon="11.904141668771068"><ele>487.5</ele><time>2026-04-18T12:38:22Z</time></trkpt><trkpt lat="42.13084149230162" lon="11.904100175211664"><ele>491.25</ele><time>2026-04-18T12:38:23Z</time></trkpt><trkpt lat="42.130947659807354" lon="11.904053657371689"><ele>495.0</ele><time>2026-04-18T12:38:24Z</time></trkpt><trkpt lat="42.13105969845734" lon="11.903998227836862"><ele>495.0</ele><time>2026-04-18T12:38:25Z</time></trkpt><trkpt lat="42.131173885258455" lon="11.903940039632717"><ele>495.0</ele><time>2026-04-18T12:38:26Z</time></trkpt><trkpt lat="42.13127387201713" lon="11.90386607754753"><ele>495.0</ele><time>2026-04-18T12:38:27Z</time></trkpt><trkpt lat="42.13137630886947" lon="11.90378618869828"><ele>495.0</ele><time>2026-04-18T12:38:28Z</time></trkpt><trkpt lat="42.13145262293473" lon="11.903637373892495"><ele>495.0</ele><time>2026-04-18T12:38:29Z</time></trkpt><trkpt lat="42.1315407180187" lon="11.903518474468607"><ele>495.0</ele><time>2026-04-18T12:38:30Z</time></trkpt><trkpt lat="42.131621853332774" lon="11.903426623901094"><ele>495.0</ele><time>2026-04-18T12:38:31Z</time></trkpt><trkpt lat="42.13171861765678" lon="11.903352126279986"><ele>495.0</ele><time>2026-04-18T12:38:32Z</time></trkpt><trkpt lat="42.131834164623385" lon="11.903310290949493"><ele>494.75</ele><time>2026-04-18T12:38:33Z</time></trkpt><trkpt lat="42.131969532822836" lon="11.903303173210755"><ele>494.5</ele><time>2026-04-18T12:38:34Z</time></trkpt><trkpt lat="42.132106686843954" lon="11.90331815328612"><ele>494.25</ele><time>2026-04-18T12:38:35Z</time></trkpt><trkpt lat="42.13224623251935" lon="11.903312899999401"><ele>494.0</ele><time>2026-04-18T12:38:36Z</time></trkpt><trkpt lat="42.13237706855508" lon="11.903308817893183"><ele>493.25</ele><time>2026-04-18T12:38:37Z</time></trkpt><trkpt lat="42.13250888733677" lon="11.90331046435522"><ele>492.5</ele><time>2026-04-18T12:38:38Z</time></trkpt><trkpt lat="42.13263292535108" lon="11.903319095219851"><ele>491.75</ele><time>2026-04-18T12:38:39Z</time></trkpt><trkpt lat="42.132752640381675" lon="11.903333547256683"><ele>491.0</ele><time>2026-04-18T12:38:40Z</time></trkpt><trkpt lat="42.132872313225704" lon="11.90336504282662"><ele>491.0</ele><time>2026-04-18T12:38:41Z</time></trkpt><trkpt lat="42.13299155514507" lon="11.903376652229104"><ele>491.0</ele><time>2026-04-18T12:38:42Z</time></trkpt><trkpt lat="42.13311802322938" lon="11.903334457023522"><ele>491.0</ele><time>2026-04-18T12:38:43Z</time></trkpt><trkpt lat="42.13325330874978" lon="11.903245115506145"><ele>491.0</ele><time>2026-04-18T12:38:44Z</time></trkpt><trkpt lat="42.133375699596264" lon="11.90317801747926"><ele>488.75</ele><time>2026-04-18T12:38:45Z</time></trkpt><trkpt lat="42.13348583312878" lon="11.90309921489874"><ele>486.5</ele><time>2026-04-18T12:38:46Z</time></trkpt><trkpt lat="42.133591001932" lon="11.903022182554512"><ele>484.25</ele><time>2026-04-18T12:38:47Z</time></trkpt><trkpt lat="42.133694172663375" lon="11.902951077443817"><ele>482.0</ele><time>2026-04-18T12:38:48Z</time></trkpt><trkpt lat="42.13379096876702" lon="11.902884308604373"><ele>482.0</ele><time>2026-04-18T12:38:49Z</time></trkpt><trkpt lat="42.133886740648606" lon="11.90283133146096"><ele>482.00000000000006</ele><time>2026-04-18T12:38:50Z</time></trkpt><trkpt lat="42.13398640491822" lon="11.902805189785115"><ele>482.00000000000006</ele><time>2026-04-18T12:38:51Z</time></trkpt><trkpt lat="42.13407080280024" lon="11.902811308525866"><ele>482.0</ele><time>2026-04-18T12:38:52Z</time></trkpt><trkpt lat="42.1341721560432" lon="11.902841224001655"><ele>482.0</ele><time>2026-04-18T12:38:53Z</time></trkpt><trkpt lat="42.13427637880801" lon="11.902909822122783"><ele>480.8</ele><time>2026-04-18T12:38:54Z</time></trkpt><trkpt lat="42.134371540967734" lon="11.903016817708556"><ele>479.6</ele><time>2026-04-18T12:38:55Z</time></trkpt><trkpt lat="42.13445046843306" lon="11.903104500513772"><ele>478.40000000000003</ele><time>2026-04-18T12:38:56.001Z</time></trkpt><trkpt lat="42.1345453940383" lon="11.90317764751125"><ele>477.20000000000005</ele><time>2026-04-18T12:38:57.001Z</time></trkpt><trkpt lat="42.13465001023568" lon="11.90323248552335"><ele>476.0</ele><time>2026-04-18T12:38:58.001Z</time></trkpt><trkpt lat="42.134764377906336" lon="11.903269915565062"><ele>476.0</ele><time>2026-04-18T12:38:59.001Z</time></trkpt><trkpt lat="42.134885091071595" lon="11.903289411456523"><ele>476.0</ele><time>2026-04-18T12:39:00.001Z</time></trkpt><trkpt lat="42.134998697479936" lon="11.903340752469413"><ele>476.0</ele><time>2026-04-18T12:39:01.001Z</time></trkpt><trkpt lat="42.13511680669077" lon="11.903380028258061"><ele>476.0</ele><time>2026-04-18T12:39:02.001Z</time></trkpt><trkpt lat="42.13521762490366" lon="11.903445529278871"><ele>473.0</ele><time>2026-04-18T12:39:03.001Z</time></trkpt><trkpt lat="42.13530694847717" lon="11.903513285284332"><ele>470.0</ele><time>2026-04-18T12:39:04.001Z</time></trkpt><trkpt lat="42.13539799548792" lon="11.903580129976"><ele>467.0</ele><time>2026-04-18T12:39:05.001Z</time></trkpt><trkpt lat="42.135500985442086" lon="11.903614297721749"><ele>464.0</ele><time>2026-04-18T12:39:06.001Z</time></trkpt><trkpt lat="42.13560213946861" lon="11.90359054285352"><ele>461.0</ele><time>2026-04-18T12:39:07.001Z</time></trkpt><trkpt lat="42.13567158922125" lon="11.903517187071406"><ele>464.25</ele><time>2026-04-18T12:39:08.001Z</time></trkpt><trkpt lat="42.135763800966785" lon="11.903402789942197"><ele>467.5</ele><time>2026-04-18T12:39:09.001Z</time></trkpt><trkpt lat="42.135833241103974" lon="11.903262775791577"><ele>470.75</ele><time>2026-04-18T12:39:10.001Z</time></trkpt><trkpt lat="42.13589467737694" lon="11.903063536316784"><ele>474.0</ele><time>2026-04-18T12:39:11.001Z</time></trkpt><trkpt lat="42.13593490516801" lon="11.902909269021258"><ele>474.0</ele><time>2026-04-18T12:39:12.001Z</time></trkpt><trkpt lat="42.13599037155903" lon="11.902769736651733"><ele>474.0</ele><time>2026-04-18T12:39:13.001Z</time></trkpt><trkpt lat="42.136066757431415" lon="11.902639892661822"><ele>474.0</ele><time>2026-04-18T12:39:14.001Z</time></trkpt><trkpt lat="42.13614477317917" lon="11.90253819199435"><ele>474.0</ele><time>2026-04-18T12:39:15.001Z</time></trkpt><trkpt lat="42.136240230737" lon="11.902454318408815"><ele>472.2</ele><time>2026-04-18T12:39:16.001Z</time></trkpt><trkpt lat="42.136355795100016" lon="11.902373528655627"><ele>470.4</ele><time>2026-04-18T12:39:17.001Z</time></trkpt><trkpt lat="42.13646282638021" lon="11.90231018985863"><ele>468.6</ele><time>2026-04-18T12:39:18.001Z</time></trkpt><trkpt lat="42.13655965872817" lon="11.90227176401562"><ele>466.8</ele><time>2026-04-18T12:39:19.001Z</time></trkpt><trkpt lat="42.1366495035463" lon="11.90222648221901"><ele>465.0</ele><time>2026-04-18T12:39:20.001Z</time></trkpt><trkpt lat="42.136743762065684" lon="11.902232150845403"><ele>465.0</ele><time>2026-04-18T12:39:21.001Z</time></trkpt><trkpt lat="42.13683611628037" lon="11.902243851579598"><ele>465.0</ele><time>2026-04-18T12:39:22.001Z</time></trkpt><trkpt lat="42.13692967287182" lon="11.90224800963726"><ele>465.0</ele><time>2026-04-18T12:39:23.001Z</time></trkpt><trkpt lat="42.13702635678623" lon="11.90222828402552"><ele>465.0</ele><time>2026-04-18T12:39:24.001Z</time></trkpt><trkpt lat="42.137129287587776" lon="11.902187096562137"><ele>465.0</ele><time>2026-04-18T12:39:25.001Z</time></trkpt><trkpt lat="42.137220622819406" lon="11.902110303141896"><ele>465.0</ele><time>2026-04-18T12:39:26.001Z</time></trkpt><trkpt lat="42.13731848993085" lon="11.902023165122708"><ele>465.0</ele><time>2026-04-18T12:39:27.001Z</time></trkpt><trkpt lat="42.137418033712095" lon="11.901975190922773"><ele>465.0</ele><time>2026-04-18T12:39:28.001Z</time></trkpt><trkpt lat="42.13751336006265" lon="11.90192048550156"><ele>465.0</ele><time>2026-04-18T12:39:29.001Z</time></trkpt><trkpt lat="42.13762662196052" lon="11.901915156317164"><ele>465.0</ele><time>2026-04-18T12:39:30.001Z</time></trkpt><trkpt lat="42.13774723364899" lon="11.901967087270403"><ele>466.4</ele><time>2026-04-18T12:39:31.001Z</time></trkpt><trkpt lat="42.1378584557843" lon="11.901990051788408"><ele>467.8</ele><time>2026-04-18T12:39:32.001Z</time></trkpt><trkpt lat="42.13796773446708" lon="11.90201234620029"><ele>469.20000000000005</ele><time>2026-04-18T12:39:33.001Z</time></trkpt><trkpt lat="42.138066101672806" lon="11.90197295522615"><ele>470.6</ele><time>2026-04-18T12:39:34.001Z</time></trkpt><trkpt lat="42.13813980785953" lon="11.901880867375406"><ele>472.0</ele><time>2026-04-18T12:39:35.001Z</time></trkpt><trkpt lat="42.13818615053302" lon="11.901754817218697"><ele>471.20000000000005</ele><time>2026-04-18T12:39:36.001Z</time></trkpt><trkpt lat="42.138201564004376" lon="11.90160635819545"><ele>470.40000000000003</ele><time>2026-04-18T12:39:37.001Z</time></trkpt><trkpt lat="42.1382337660148" lon="11.90146954842956"><ele>469.59999999999997</ele><time>2026-04-18T12:39:37.999Z</time></trkpt><trkpt lat="42.13827015891627" lon="11.901351703623996"><ele>468.79999999999995</ele><time>2026-04-18T12:39:38.999Z</time></trkpt><trkpt lat="42.138335256305666" lon="11.901266831306303"><ele>468.0</ele><time>2026-04-18T12:39:39.999Z</time></trkpt><trkpt lat="42.13840968063017" lon="11.901158537485662"><ele>468.0</ele><time>2026-04-18T12:39:40.999Z</time></trkpt><trkpt lat="42.13846734436211" lon="11.901036299978506"><ele>467.99999999999994</ele><time>2026-04-18T12:39:41.999Z</time></trkpt><trkpt lat="42.13851214203714" lon="11.900912524534634"><ele>467.99999999999994</ele><time>2026-04-18T12:39:42.999Z</time></trkpt><trkpt lat="42.138550594919316" lon="11.90077619222453"><ele>468.0</ele><time>2026-04-18T12:39:43.999Z</time></trkpt><trkpt lat="42.13859630366351" lon="11.900660735015697"><ele>468.0</ele><time>2026-04-18T12:39:44.999Z</time></trkpt><trkpt lat="42.13866441946673" lon="11.900577504313274"><ele>467.79999999999995</ele><time>2026-04-18T12:39:45.999Z</time></trkpt><trkpt lat="42.13875033664711" lon="11.900504831609002"><ele>467.59999999999997</ele><time>2026-04-18T12:39:46.999Z</time></trkpt><trkpt lat="42.13886221906552" lon="11.900469523079165"><ele>467.40000000000003</ele><time>2026-04-18T12:39:47.999Z</time></trkpt><trkpt lat="42.138980019556655" lon="11.900465064788056"><ele>467.20000000000005</ele><time>2026-04-18T12:39:48.999Z</time></trkpt><trkpt lat="42.13909226985922" lon="11.900486224133177"><ele>467.0</ele><time>2026-04-18T12:39:49.999Z</time></trkpt><trkpt lat="42.13918873367572" lon="11.900570177217194"><ele>467.0</ele><time>2026-04-18T12:39:51Z</time></trkpt><trkpt lat="42.13931088797448" lon="11.90060525531674"><ele>467.0</ele><time>2026-04-18T12:39:52Z</time></trkpt><trkpt lat="42.13943591382698" lon="11.90064632133551"><ele>467.0</ele><time>2026-04-18T12:39:53Z</time></trkpt><trkpt lat="42.13957517777915" lon="11.900644340347744"><ele>467.0</ele><time>2026-04-18T12:39:54Z</time></trkpt><trkpt lat="42.13971637367831" lon="11.900620001481519"><ele>467.0</ele><time>2026-04-18T12:39:55Z</time></trkpt><trkpt lat="42.13983720593746" lon="11.900615140547101"><ele>467.00000000000006</ele><time>2026-04-18T12:39:56Z</time></trkpt><trkpt lat="42.1399408325554" lon="11.900615445065455"><ele>467.00000000000006</ele><time>2026-04-18T12:39:57Z</time></trkpt><trkpt lat="42.14003242370404" lon="11.900607667908867"><ele>467.0</ele><time>2026-04-18T12:39:58Z</time></trkpt><trkpt lat="42.140138342798" lon="11.900585614915475"><ele>467.0</ele><time>2026-04-18T12:39:59Z</time></trkpt><trkpt lat="42.140258795480705" lon="11.900577816891944"><ele>468.25</ele><time>2026-04-18T12:40:00Z</time></trkpt><trkpt lat="42.140371551801636" lon="11.900587391965018"><ele>469.5</ele><time>2026-04-18T12:40:01Z</time></trkpt><trkpt lat="42.14046856582227" lon="11.900628956671923"><ele>470.75</ele><time>2026-04-18T12:40:02Z</time></trkpt><trkpt lat="42.14056980240012" lon="11.900696702057063"><ele>472.0</ele><time>2026-04-18T12:40:03Z</time></trkpt><trkpt lat="42.14068012781399" lon="11.900776775398546"><ele>471.5</ele><time>2026-04-18T12:40:04Z</time></trkpt><trkpt lat="42.140776110803564" lon="11.900828204513472"><ele>471.0</ele><time>2026-04-18T12:40:05Z</time></trkpt><trkpt lat="42.14089133677699" lon="11.900833768903025"><ele>470.5</ele><time>2026-04-18T12:40:06Z</time></trkpt><trkpt lat="42.14101533691443" lon="11.900846013399583"><ele>470.0</ele><time>2026-04-18T12:40:07Z</time></trkpt><trkpt lat="42.141113773215885" lon="11.900917099248563"><ele>470.66666666666663</ele><time>2026-04-18T12:40:08Z</time></trkpt><trkpt lat="42.14119233035033" lon="11.900995117641495"><ele>471.3333333333333</ele><time>2026-04-18T12:40:09Z</time></trkpt><trkpt lat="42.1412740243041" lon="11.901059139058297"><ele>472.0</ele><time>2026-04-18T12:40:10Z</time></trkpt><trkpt lat="42.14133523089639" lon="11.901114601850134"><ele>472.66666666666663</ele><time>2026-04-18T12:40:11Z</time></trkpt><trkpt lat="42.14140442561347" lon="11.901147525315524"><ele>473.3333333333333</ele><time>2026-04-18T12:40:12Z</time></trkpt><trkpt lat="42.141478749101594" lon="11.901135111300023"><ele>474.0</ele><time>2026-04-18T12:40:13Z</time></trkpt><trkpt lat="42.14156379411131" lon="11.901135443305481"><ele>474.0</ele><time>2026-04-18T12:40:14Z</time></trkpt><trkpt lat="42.14165080928923" lon="11.901054332435862"><ele>474.0</ele><time>2026-04-18T12:40:15Z</time></trkpt><trkpt lat="42.14171759996665" lon="11.900927286990164"><ele>474.0</ele><time>2026-04-18T12:40:16Z</time></trkpt><trkpt lat="42.14178057630841" lon="11.900789648770509"><ele>474.0</ele><time>2026-04-18T12:40:17Z</time></trkpt><trkpt lat="42.141833949247456" lon="11.90063560332032"><ele>472.0</ele><time>2026-04-18T12:40:18Z</time></trkpt><trkpt lat="42.14190217943973" lon="11.90049419488399"><ele>470.0</ele><time>2026-04-18T12:40:19Z</time></trkpt><trkpt lat="42.14195368795546" lon="11.900350323437886"><ele>468.0</ele><time>2026-04-18T12:40:20Z</time></trkpt><trkpt lat="42.14202699926951" lon="11.900235774826761"><ele>466.0</ele><time>2026-04-18T12:40:21Z</time></trkpt><trkpt lat="42.14211298723333" lon="11.900150077670531"><ele>466.6</ele><time>2026-04-18T12:40:22Z</time></trkpt><trkpt lat="42.1422129342778" lon="11.900082218606807"><ele>467.20000000000005</ele><time>2026-04-18T12:40:23Z</time></trkpt><trkpt lat="42.14231734648251" lon="11.900045210317902"><ele>467.79999999999995</ele><time>2026-04-18T12:40:24Z</time></trkpt><trkpt lat="42.14241850928891" lon="11.90001902796728"><ele>468.4</ele><time>2026-04-18T12:40:25Z</time></trkpt><trkpt lat="42.14251928642102" lon="11.899969226417433"><ele>469.0</ele><time>2026-04-18T12:40:26Z</time></trkpt><trkpt lat="42.1426040646701" lon="11.899929043054634"><ele>471.2</ele><time>2026-04-18T12:40:27Z</time></trkpt><trkpt lat="42.142676703374995" lon="11.899881202934601"><ele>473.4</ele><time>2026-04-18T12:40:28Z</time></trkpt><trkpt lat="42.14274015766389" lon="11.89979624907426"><ele>475.6</ele><time>2026-04-18T12:40:29Z</time></trkpt><trkpt lat="42.1427452114273" lon="11.899648547785642"><ele>477.8</ele><time>2026-04-18T12:40:30Z</time></trkpt><trkpt lat="42.14273697499928" lon="11.899494413380577"><ele>480.0</ele><time>2026-04-18T12:40:31Z</time></trkpt><trkpt lat="42.14271593162015" lon="11.899316996502186"><ele>481.75</ele><time>2026-04-18T12:40:32Z</time></trkpt><trkpt lat="42.14268608101983" lon="11.899130092064587"><ele>483.5</ele><time>2026-04-18T12:40:33Z</time></trkpt><trkpt lat="42.14266959609204" lon="11.898954737262407"><ele>485.25</ele><time>2026-04-18T12:40:34Z</time></trkpt><trkpt lat="42.14261678900686" lon="11.89880169774907"><ele>487.0</ele><time>2026-04-18T12:40:35Z</time></trkpt><trkpt lat="42.14260951981871" lon="11.898650957125273"><ele>487.0</ele><time>2026-04-18T12:40:36Z</time></trkpt><trkpt lat="42.14261189764219" lon="11.898500420876639"><ele>487.00000000000006</ele><time>2026-04-18T12:40:37Z</time></trkpt><trkpt lat="42.14263881932705" lon="11.898363812991168"><ele>487.00000000000006</ele><time>2026-04-18T12:40:38Z</time></trkpt><trkpt lat="42.14268823811134" lon="11.898238886253562"><ele>487.0</ele><time>2026-04-18T12:40:39Z</time></trkpt><trkpt lat="42.14275705745821" lon="11.89812061713"><ele>487.0</ele><time>2026-04-18T12:40:40Z</time></trkpt><trkpt lat="42.142838150294295" lon="11.897989096404347"><ele>488.25</ele><time>2026-04-18T12:40:41Z</time></trkpt><trkpt lat="42.142920598581796" lon="11.89784750589415"><ele>489.5</ele><time>2026-04-18T12:40:42Z</time></trkpt><trkpt lat="42.14303793597045" lon="11.89777241147113"><ele>490.75</ele><time>2026-04-18T12:40:43Z</time></trkpt><trkpt lat="42.1431581766955" lon="11.897708856562799"><ele>492.0</ele><time>2026-04-18T12:40:44Z</time></trkpt><trkpt lat="42.143285747215856" lon="11.897659785711232"><ele>494.0</ele><time>2026-04-18T12:40:45.001Z</time></trkpt><trkpt lat="42.14341164458484" lon="11.897618666925515"><ele>496.0</ele><time>2026-04-18T12:40:46.001Z</time></trkpt><trkpt lat="42.1435336957132" lon="11.897645806506738"><ele>498.0</ele><time>2026-04-18T12:40:47.001Z</time></trkpt><trkpt lat="42.14365064424975" lon="11.897708118920786"><ele>500.0</ele><time>2026-04-18T12:40:48.001Z</time></trkpt><trkpt lat="42.14376476418131" lon="11.897799414975317"><ele>500.0</ele><time>2026-04-18T12:40:49.001Z</time></trkpt><trkpt lat="42.14388034281035" lon="11.897907505801038"><ele>500.0</ele><time>2026-04-18T12:40:50.001Z</time></trkpt><trkpt lat="42.1439920360197" lon="11.898022651865054"><ele>500.0</ele><time>2026-04-18T12:40:51.001Z</time></trkpt><trkpt lat="42.14410380503759" lon="11.898131014569982"><ele>500.0</ele><time>2026-04-18T12:40:52.001Z</time></trkpt><trkpt lat="42.14421293284918" lon="11.898220837782238"><ele>499.25</ele><time>2026-04-18T12:40:53.001Z</time></trkpt><trkpt lat="42.1443302118152" lon="11.8982940269265"><ele>498.5</ele><time>2026-04-18T12:40:54.001Z</time></trkpt><trkpt lat="42.144456062751" lon="11.8983270374288"><ele>497.75</ele><time>2026-04-18T12:40:55.001Z</time></trkpt><trkpt lat="42.14458259492966" lon="11.898311654434977"><ele>497.0</ele><time>2026-04-18T12:40:56.001Z</time></trkpt><trkpt lat="42.14472091344548" lon="11.898251574509892"><ele>497.0</ele><time>2026-04-18T12:40:57.001Z</time></trkpt><trkpt lat="42.14486322658299" lon="11.898173176240347"><ele>497.0</ele><time>2026-04-18T12:40:58.001Z</time></trkpt><trkpt lat="42.144991020645136" lon="11.89810483156502"><ele>497.0</ele><time>2026-04-18T12:40:59.001Z</time></trkpt><trkpt lat="42.145111190630665" lon="11.898075347282152"><ele>497.0</ele><time>2026-04-18T12:41:00.001Z</time></trkpt><trkpt lat="42.14522619494525" lon="11.898094309189517"><ele>497.5</ele><time>2026-04-18T12:41:01.001Z</time></trkpt><trkpt lat="42.14535371266152" lon="11.898157217954218"><ele>498.0</ele><time>2026-04-18T12:41:02.001Z</time></trkpt><trkpt lat="42.14546966483481" lon="11.89823294847272"><ele>498.5</ele><time>2026-04-18T12:41:03.001Z</time></trkpt><trkpt lat="42.14556189655612" lon="11.898304017899369"><ele>499.0</ele><time>2026-04-18T12:41:04.001Z</time></trkpt><trkpt lat="42.14563673819858" lon="11.898369763691022"><ele>498.83333333333337</ele><time>2026-04-18T12:41:05.001Z</time></trkpt><trkpt lat="42.145705260231374" lon="11.89842318858001"><ele>498.6666666666667</ele><time>2026-04-18T12:41:06.001Z</time></trkpt><trkpt lat="42.14577390374049" lon="11.898464402066292"><ele>498.5</ele><time>2026-04-18T12:41:07.001Z</time></trkpt><trkpt lat="42.14584466266979" lon="11.898493661634465"><ele>498.33333333333337</ele><time>2026-04-18T12:41:08.001Z</time></trkpt><trkpt lat="42.14592171982708" lon="11.898522285865164"><ele>498.1666666666667</ele><time>2026-04-18T12:41:09.001Z</time></trkpt><trkpt lat="42.146008301318325" lon="11.898570071474055"><ele>498.0</ele><time>2026-04-18T12:41:10.001Z</time></trkpt><trkpt lat="42.14609921562943" lon="11.898634734881131"><ele>497.59999999999997</ele><time>2026-04-18T12:41:11.001Z</time></trkpt><trkpt lat="42.14619620188076" lon="11.898725874409546"><ele>497.19999999999993</ele><time>2026-04-18T12:41:12.001Z</time></trkpt><trkpt lat="42.14629053117977" lon="11.898819216912703"><ele>496.8</ele><time>2026-04-18T12:41:13.001Z</time></trkpt><trkpt lat="42.1463775598647" lon="11.898901967544921"><ele>496.4</ele><time>2026-04-18T12:41:14.001Z</time></trkpt><trkpt lat="42.1464633696485" lon="11.898980052660706"><ele>496.0</ele><time>2026-04-18T12:41:15.001Z</time></trkpt><trkpt lat="42.14654915657071" lon="11.899048223278763"><ele>496.00000000000006</ele><time>2026-04-18T12:41:16.001Z</time></trkpt><trkpt lat="42.14663185401773" lon="11.899104450507476"><ele>496.0</ele><time>2026-04-18T12:41:17.001Z</time></trkpt><trkpt lat="42.146698018795256" lon="11.899160325490858"><ele>496.0</ele><time>2026-04-18T12:41:18.001Z</time></trkpt><trkpt lat="42.14675669081375" lon="11.89922647318323"><ele>496.0</ele><time>2026-04-18T12:41:19.001Z</time></trkpt><trkpt lat="42.14681584655031" lon="11.899287767825607"><ele>496.00000000000006</ele><time>2026-04-18T12:41:20.001Z</time></trkpt><trkpt lat="42.14688031331676" lon="11.899339883254417"><ele>496.0</ele><time>2026-04-18T12:41:21.001Z</time></trkpt><trkpt lat="42.14694202256886" lon="11.899383070405761"><ele>494.50000000000006</ele><time>2026-04-18T12:41:22.001Z</time></trkpt><trkpt lat="42.14701236540827" lon="11.89936845149045"><ele>493.0</ele><time>2026-04-18T12:41:23.001Z</time></trkpt><trkpt lat="42.14707538327337" lon="11.899368023848854"><ele>491.5</ele><time>2026-04-18T12:41:24.001Z</time></trkpt><trkpt lat="42.147204870854836" lon="11.89931246130776"><ele>490.0</ele><time>2026-04-18T12:41:26.001Z</time></trkpt><trkpt lat="42.14727616357335" lon="11.899286969825766"><ele>488.50000000000006</ele><time>2026-04-18T12:41:27.001Z</time></trkpt><trkpt lat="42.14734657692916" lon="11.899279208054397"><ele>487.0</ele><time>2026-04-18T12:41:28.001Z</time></trkpt><trkpt lat="42.14742793581775" lon="11.899281367950582"><ele>487.0</ele><time>2026-04-18T12:41:29.001Z</time></trkpt><trkpt lat="42.14750673882582" lon="11.899304518635246"><ele>487.00000000000006</ele><time>2026-04-18T12:41:30.001Z</time></trkpt><trkpt lat="42.14757180679511" lon="11.899340129447998"><ele>487.00000000000006</ele><time>2026-04-18T12:41:31.001Z</time></trkpt><trkpt lat="42.147662045664994" lon="11.899436284340252"><ele>487.0</ele><time>2026-04-18T12:41:33.001Z</time></trkpt><trkpt lat="42.14775164276712" lon="11.89953108919636"><ele>487.0</ele><time>2026-04-18T12:41:35.001Z</time></trkpt><trkpt lat="42.14784135106085" lon="11.89960936741804"><ele>487.0</ele><time>2026-04-18T12:41:37.001Z</time></trkpt><trkpt lat="42.14790432137887" lon="11.899715609130212"><ele>487.00000000000006</ele><time>2026-04-18T12:41:39.001Z</time></trkpt><trkpt lat="42.147989158540774" lon="11.899734826830704"><ele>487.00000000000006</ele><time>2026-04-18T12:41:41.001Z</time></trkpt><trkpt lat="42.14807646442207" lon="11.899731804221727"><ele>487.0</ele><time>2026-04-18T12:41:43.001Z</time></trkpt><trkpt lat="42.148154164435326" lon="11.89963654415099"><ele>487.0</ele><time>2026-04-18T12:41:43.999Z</time></trkpt><trkpt lat="42.14822100048828" lon="11.899576812666268"><ele>488.5</ele><time>2026-04-18T12:41:44.999Z</time></trkpt><trkpt lat="42.148302948060206" lon="11.899500265139892"><ele>490.0</ele><time>2026-04-18T12:41:45.999Z</time></trkpt><trkpt lat="42.148406495312415" lon="11.899418260002506"><ele>491.5</ele><time>2026-04-18T12:41:46.999Z</time></trkpt><trkpt lat="42.1485131817539" lon="11.899350072257203"><ele>493.0</ele><time>2026-04-18T12:41:47.999Z</time></trkpt><trkpt lat="42.148615949689905" lon="11.899283717830075"><ele>491.59999999999997</ele><time>2026-04-18T12:41:48.999Z</time></trkpt><trkpt lat="42.1487130948262" lon="11.899221540849558"><ele>490.19999999999993</ele><time>2026-04-18T12:41:49.999Z</time></trkpt><trkpt lat="42.14880530784878" lon="11.899159313419249"><ele>488.8</ele><time>2026-04-18T12:41:50.999Z</time></trkpt><trkpt lat="42.14889080454901" lon="11.89909764231979"><ele>487.4</ele><time>2026-04-18T12:41:51.999Z</time></trkpt><trkpt lat="42.14897292526075" lon="11.899039199767513"><ele>486.0</ele><time>2026-04-18T12:41:52.999Z</time></trkpt><trkpt lat="42.149064473778374" lon="11.899007359072757"><ele>485.8</ele><time>2026-04-18T12:41:54Z</time></trkpt><trkpt lat="42.14917255603668" lon="11.898992521388518"><ele>485.6</ele><time>2026-04-18T12:41:55Z</time></trkpt><trkpt lat="42.149278440112774" lon="11.899004251393565"><ele>485.4</ele><time>2026-04-18T12:41:56Z</time></trkpt><trkpt lat="42.14938319075219" lon="11.899044108483423"><ele>485.2</ele><time>2026-04-18T12:41:57Z</time></trkpt><trkpt lat="42.149478956718305" lon="11.899119664378984"><ele>485.0</ele><time>2026-04-18T12:41:58Z</time></trkpt><trkpt lat="42.14956563891161" lon="11.899209941611858"><ele>487.8333333333333</ele><time>2026-04-18T12:41:59Z</time></trkpt><trkpt lat="42.14963977507593" lon="11.899291845688925"><ele>490.66666666666663</ele><time>2026-04-18T12:42:00Z</time></trkpt><trkpt lat="42.149710698071516" lon="11.899364710407365"><ele>493.5</ele><time>2026-04-18T12:42:01Z</time></trkpt><trkpt lat="42.14978868605039" lon="11.899439844334054"><ele>496.33333333333337</ele><time>2026-04-18T12:42:02Z</time></trkpt><trkpt lat="42.14986377948634" lon="11.899505278213153"><ele>499.1666666666667</ele><time>2026-04-18T12:42:03Z</time></trkpt><trkpt lat="42.14993415228226" lon="11.899554380325444"><ele>502.0</ele><time>2026-04-18T12:42:04Z</time></trkpt><trkpt lat="42.15001197596765" lon="11.899585040762554"><ele>502.00000000000006</ele><time>2026-04-18T12:42:05Z</time></trkpt><trkpt lat="42.15009715718394" lon="11.899591790587564"><ele>502.0</ele><time>2026-04-18T12:42:06Z</time></trkpt><trkpt lat="42.15018192179689" lon="11.899586817608522"><ele>502.0</ele><time>2026-04-18T12:42:07Z</time></trkpt><trkpt lat="42.15026806036527" lon="11.899581069588933"><ele>502.0</ele><time>2026-04-18T12:42:08Z</time></trkpt><trkpt lat="42.150355038925454" lon="11.899575606531949"><ele>502.00000000000006</ele><time>2026-04-18T12:42:09Z</time></trkpt><trkpt lat="42.150431787462715" lon="11.899568685490456"><ele>502.0</ele><time>2026-04-18T12:42:10Z</time></trkpt><trkpt lat="42.15049221668701" lon="11.89954263009027"><ele>502.0</ele><time>2026-04-18T12:42:11Z</time></trkpt><trkpt lat="42.150582547232126" lon="11.89943184878255"><ele>502.00000000000006</ele><time>2026-04-18T12:42:13Z</time></trkpt><trkpt lat="42.1506151540085" lon="11.899349013485637"><ele>502.00000000000006</ele><time>2026-04-18T12:42:14Z</time></trkpt><trkpt lat="42.15067573228724" lon="11.899269290683312"><ele>502.0</ele><time>2026-04-18T12:42:15Z</time></trkpt><trkpt lat="42.15075175044245" lon="11.899141119910434"><ele>502.0</ele><time>2026-04-18T12:42:16Z</time></trkpt><trkpt lat="42.15080881747673" lon="11.898995930157932"><ele>499.0</ele><time>2026-04-18T12:42:17Z</time></trkpt><trkpt lat="42.15089524483275" lon="11.898879846503544"><ele>496.0</ele><time>2026-04-18T12:42:18Z</time></trkpt><trkpt lat="42.15101387398324" lon="11.898765104655405"><ele>493.0</ele><time>2026-04-18T12:42:19Z</time></trkpt><trkpt lat="42.15115176311213" lon="11.898656510017434"><ele>490.0</ele><time>2026-04-18T12:42:20Z</time></trkpt><trkpt lat="42.15128004053577" lon="11.898563697908633"><ele>490.0</ele><time>2026-04-18T12:42:21Z</time></trkpt><trkpt lat="42.15140097001551" lon="11.89848366949804"><ele>490.0</ele><time>2026-04-18T12:42:22Z</time></trkpt><trkpt lat="42.15153178513152" lon="11.898443068536649"><ele>490.0</ele><time>2026-04-18T12:42:23Z</time></trkpt><trkpt lat="42.15165331559686" lon="11.8984708270402"><ele>490.0</ele><time>2026-04-18T12:42:24Z</time></trkpt><trkpt lat="42.15175326336782" lon="11.898568667639355"><ele>493.75</ele><time>2026-04-18T12:42:25Z</time></trkpt><trkpt lat="42.15184027497103" lon="11.898693252009167"><ele>497.5</ele><time>2026-04-18T12:42:26Z</time></trkpt><trkpt lat="42.15193847198686" lon="11.8988435825076"><ele>501.25</ele><time>2026-04-18T12:42:27Z</time></trkpt><trkpt lat="42.15201889304816" lon="11.898986533591424"><ele>505.0</ele><time>2026-04-18T12:42:28Z</time></trkpt><trkpt lat="42.152107517880324" lon="11.899116311080338"><ele>504.75</ele><time>2026-04-18T12:42:29Z</time></trkpt><trkpt lat="42.152188727350016" lon="11.899264734827572"><ele>504.5</ele><time>2026-04-18T12:42:30Z</time></trkpt><trkpt lat="42.15227941065425" lon="11.899407820833925"><ele>504.25</ele><time>2026-04-18T12:42:31Z</time></trkpt><trkpt lat="42.15238331564892" lon="11.899545079155693"><ele>504.0</ele><time>2026-04-18T12:42:32Z</time></trkpt><trkpt lat="42.152493331510996" lon="11.899673896105899"><ele>504.0</ele><time>2026-04-18T12:42:33Z</time></trkpt><trkpt lat="42.15260130155178" lon="11.899811080403408"><ele>504.0</ele><time>2026-04-18T12:42:34Z</time></trkpt><trkpt lat="42.15270972335046" lon="11.899953545936132"><ele>504.0</ele><time>2026-04-18T12:42:35Z</time></trkpt><trkpt lat="42.1528236686406" lon="11.900097495611808"><ele>502.75</ele><time>2026-04-18T12:42:36Z</time></trkpt><trkpt lat="42.15293753428979" lon="11.900232964029223"><ele>501.5</ele><time>2026-04-18T12:42:37Z</time></trkpt><trkpt lat="42.15303970875541" lon="11.900359573284483"><ele>500.25</ele><time>2026-04-18T12:42:38Z</time></trkpt><trkpt lat="42.15314321968079" lon="11.900497880977271"><ele>499.0</ele><time>2026-04-18T12:42:39Z</time></trkpt><trkpt lat="42.15325840818011" lon="11.900639120001081"><ele>499.0</ele><time>2026-04-18T12:42:40Z</time></trkpt><trkpt lat="42.15337005477981" lon="11.90078494212455"><ele>499.0</ele><time>2026-04-18T12:42:41Z</time></trkpt><trkpt lat="42.15346236454813" lon="11.90094827492789"><ele>499.0</ele><time>2026-04-18T12:42:42Z</time></trkpt><trkpt lat="42.15353549088487" lon="11.901117934493946"><ele>503.75</ele><time>2026-04-18T12:42:43Z</time></trkpt><trkpt lat="42.15358957317184" lon="11.901288859138543"><ele>508.5</ele><time>2026-04-18T12:42:44Z</time></trkpt><trkpt lat="42.153644433781054" lon="11.901457774284605"><ele>513.25</ele><time>2026-04-18T12:42:45Z</time></trkpt><trkpt lat="42.15368706374384" lon="11.901599548521865"><ele>518.0</ele><time>2026-04-18T12:42:46.001Z</time></trkpt><trkpt lat="42.153719381659386" lon="11.901728200001381"><ele>519.4</ele><time>2026-04-18T12:42:47.001Z</time></trkpt><trkpt lat="42.15374326961217" lon="11.901868065475655"><ele>520.8</ele><time>2026-04-18T12:42:48.001Z</time></trkpt><trkpt lat="42.153754374095016" lon="11.901998953591228"><ele>522.2</ele><time>2026-04-18T12:42:49.001Z</time></trkpt><trkpt lat="42.153754554179066" lon="11.902136655916118"><ele>523.6</ele><time>2026-04-18T12:42:50.001Z</time></trkpt><trkpt lat="42.15375166910701" lon="11.90228054157576"><ele>525.0</ele><time>2026-04-18T12:42:51.001Z</time></trkpt><trkpt lat="42.153751355445756" lon="11.902427610084093"><ele>525.0</ele><time>2026-04-18T12:42:52.001Z</time></trkpt><trkpt lat="42.1537457693276" lon="11.902573904932593"><ele>525.0</ele><time>2026-04-18T12:42:53.001Z</time></trkpt><trkpt lat="42.15372808866233" lon="11.902717912026924"><ele>525.0</ele><time>2026-04-18T12:42:54.001Z</time></trkpt><trkpt lat="42.153709522931756" lon="11.902868738117524"><ele>525.0</ele><time>2026-04-18T12:42:55.001Z</time></trkpt><trkpt lat="42.15369447664686" lon="11.90302294305156"><ele>525.0</ele><time>2026-04-18T12:42:56.001Z</time></trkpt><trkpt lat="42.15367658944344" lon="11.903183771205496"><ele>524.25</ele><time>2026-04-18T12:42:57.001Z</time></trkpt><trkpt lat="42.15365797549756" lon="11.903350465653109"><ele>523.5</ele><time>2026-04-18T12:42:58.001Z</time></trkpt><trkpt lat="42.15363342569682" lon="11.903523527628119"><ele>522.75</ele><time>2026-04-18T12:42:59.001Z</time></trkpt><trkpt lat="42.153611644633756" lon="11.903702244157897"><ele>522.0</ele><time>2026-04-18T12:43:00.001Z</time></trkpt><trkpt lat="42.153587681614674" lon="11.903886290087323"><ele>520.0</ele><time>2026-04-18T12:43:01.001Z</time></trkpt><trkpt lat="42.15355438876752" lon="11.904065218425744"><ele>518.0</ele><time>2026-04-18T12:43:02.001Z</time></trkpt><trkpt lat="42.153501943678236" lon="11.904241701889115"><ele>516.0</ele><time>2026-04-18T12:43:03.001Z</time></trkpt><trkpt lat="42.15342723096453" lon="11.904408341304256"><ele>514.0</ele><time>2026-04-18T12:43:04.001Z</time></trkpt><trkpt lat="42.15332062747641" lon="11.904552147258867"><ele>509.6666666666667</ele><time>2026-04-18T12:43:05.001Z</time></trkpt><trkpt lat="42.153229467088885" lon="11.90472256858726"><ele>505.33333333333337</ele><time>2026-04-18T12:43:06.001Z</time></trkpt><trkpt lat="42.15311760710053" lon="11.904873306152147"><ele>501.0</ele><time>2026-04-18T12:43:07.001Z</time></trkpt><trkpt lat="42.15302754043915" lon="11.905026770040855"><ele>509.0</ele><time>2026-04-18T12:43:08.001Z</time></trkpt><trkpt lat="42.15296395596052" lon="11.905186848660598"><ele>517.0</ele><time>2026-04-18T12:43:09.001Z</time></trkpt><trkpt lat="42.152918899736896" lon="11.905370275881213"><ele>525.0</ele><time>2026-04-18T12:43:10.001Z</time></trkpt><trkpt lat="42.15289315286367" lon="11.905558555764252"><ele>533.0</ele><time>2026-04-18T12:43:11.001Z</time></trkpt><trkpt lat="42.15288760361295" lon="11.905750576674304"><ele>535.5</ele><time>2026-04-18T12:43:12.001Z</time></trkpt><trkpt lat="42.152887963101506" lon="11.905943040890065"><ele>538.0</ele><time>2026-04-18T12:43:13.001Z</time></trkpt><trkpt lat="42.15288775025361" lon="11.90614272685658"><ele>540.5</ele><time>2026-04-18T12:43:14.001Z</time></trkpt><trkpt lat="42.152888024787806" lon="11.906340820879844"><ele>543.0</ele><time>2026-04-18T12:43:15.001Z</time></trkpt><trkpt lat="42.152894281970816" lon="11.906521199022587"><ele>543.0</ele><time>2026-04-18T12:43:16.001Z</time></trkpt><trkpt lat="42.15290030793625" lon="11.906694249897006"><ele>543.0</ele><time>2026-04-18T12:43:17.001Z</time></trkpt><trkpt lat="42.15292853525676" lon="11.906871041731996"><ele>543.0</ele><time>2026-04-18T12:43:18.001Z</time></trkpt><trkpt lat="42.15297985121384" lon="11.907022655896501"><ele>543.0</ele><time>2026-04-18T12:43:19.001Z</time></trkpt><trkpt lat="42.15305428534441" lon="11.907153124507158"><ele>544.75</ele><time>2026-04-18T12:43:20.001Z</time></trkpt><trkpt lat="42.153157490431774" lon="11.907248228915654"><ele>546.5</ele><time>2026-04-18T12:43:21.001Z</time></trkpt><trkpt lat="42.15327791827888" lon="11.90730333303449"><ele>548.25</ele><time>2026-04-18T12:43:22.001Z</time></trkpt><trkpt lat="42.153405912510564" lon="11.90731777615635"><ele>550.0</ele><time>2026-04-18T12:43:23.001Z</time></trkpt><trkpt lat="42.15353264203386" lon="11.907283161611852"><ele>544.75</ele><time>2026-04-18T12:43:24.001Z</time></trkpt><trkpt lat="42.15363356703339" lon="11.907218014792326"><ele>539.5</ele><time>2026-04-18T12:43:25.001Z</time></trkpt><trkpt lat="42.15373634407468" lon="11.907099889110775"><ele>534.25</ele><time>2026-04-18T12:43:26.001Z</time></trkpt><trkpt lat="42.15384307213521" lon="11.906950129138714"><ele>529.0</ele><time>2026-04-18T12:43:27.001Z</time></trkpt><trkpt lat="42.15396039245278" lon="11.906803935985245"><ele>525.5</ele><time>2026-04-18T12:43:28.001Z</time></trkpt><trkpt lat="42.15409803827179" lon="11.906684403447125"><ele>522.0</ele><time>2026-04-18T12:43:29.001Z</time></trkpt><trkpt lat="42.15422409749818" lon="11.906587802929302"><ele>518.5</ele><time>2026-04-18T12:43:30.001Z</time></trkpt><trkpt lat="42.1543489802283" lon="11.906518512672136"><ele>515.0</ele><time>2026-04-18T12:43:31.001Z</time></trkpt><trkpt lat="42.15448990530972" lon="11.90650172287049"><ele>515.0</ele><time>2026-04-18T12:43:32.001Z</time></trkpt><trkpt lat="42.15463118569498" lon="11.906458895632902"><ele>515.0</ele><time>2026-04-18T12:43:33.001Z</time></trkpt><trkpt lat="42.15476771350041" lon="11.906455959426248"><ele>515.0</ele><time>2026-04-18T12:43:34.001Z</time></trkpt><trkpt lat="42.154890427886606" lon="11.906474601650373"><ele>515.0</ele><time>2026-04-18T12:43:35.001Z</time></trkpt><trkpt lat="42.155013053894024" lon="11.906511032755565"><ele>517.0</ele><time>2026-04-18T12:43:36.001Z</time></trkpt><trkpt lat="42.155137885262974" lon="11.90656003227864"><ele>519.0</ele><time>2026-04-18T12:43:37.001Z</time></trkpt><trkpt lat="42.15526370749744" lon="11.906626825385498"><ele>521.0</ele><time>2026-04-18T12:43:38.001Z</time></trkpt><trkpt lat="42.15536991102522" lon="11.906703371140479"><ele>523.0</ele><time>2026-04-18T12:43:39.001Z</time></trkpt><trkpt lat="42.155473252803475" lon="11.906798824990487"><ele>528.0</ele><time>2026-04-18T12:43:40.001Z</time></trkpt><trkpt lat="42.155571830330075" lon="11.906888949919187"><ele>533.0</ele><time>2026-04-18T12:43:41.001Z</time></trkpt><trkpt lat="42.15567434631797" lon="11.906977234810602"><ele>538.0</ele><time>2026-04-18T12:43:42.001Z</time></trkpt><trkpt lat="42.155767860293864" lon="11.907047930042731"><ele>543.0</ele><time>2026-04-18T12:43:43.001Z</time></trkpt><trkpt lat="42.15585287862471" lon="11.9071239100013"><ele>543.0</ele><time>2026-04-18T12:43:44.001Z</time></trkpt><trkpt lat="42.15595377419947" lon="11.907203522832091"><ele>543.0</ele><time>2026-04-18T12:43:45.001Z</time></trkpt><trkpt lat="42.156067122619625" lon="11.907266291874718"><ele>543.0</ele><time>2026-04-18T12:43:46.001Z</time></trkpt><trkpt lat="42.1561899452815" lon="11.90730620114535"><ele>543.0</ele><time>2026-04-18T12:43:47.001Z</time></trkpt><trkpt lat="42.156323271224856" lon="11.907317008064416"><ele>543.0</ele><time>2026-04-18T12:43:48.001Z</time></trkpt><trkpt lat="42.156442691079214" lon="11.907292887452948"><ele>543.0</ele><time>2026-04-18T12:43:49.002Z</time></trkpt><trkpt lat="42.15656771698846" lon="11.907253288287803"><ele>543.0</ele><time>2026-04-18T12:43:50Z</time></trkpt><trkpt lat="42.15667494613673" lon="11.907211068557471"><ele>543.0</ele><time>2026-04-18T12:43:51Z</time></trkpt><trkpt lat="42.15677561329914" lon="11.90718171356486"><ele>541.1999999999999</ele><time>2026-04-18T12:43:52Z</time></trkpt><trkpt lat="42.15687983482548" lon="11.907157608798547"><ele>539.4</ele><time>2026-04-18T12:43:53Z</time></trkpt><trkpt lat="42.15699330588019" lon="11.907153908087851"><ele>537.5999999999999</ele><time>2026-04-18T12:43:54Z</time></trkpt><trkpt lat="42.157103987485534" lon="11.907155772363842"><ele>535.8</ele><time>2026-04-18T12:43:55Z</time></trkpt><trkpt lat="42.15720704413679" lon="11.907173508476202"><ele>534.0</ele><time>2026-04-18T12:43:56Z</time></trkpt><trkpt lat="42.15731023847387" lon="11.907214422958457"><ele>532.8</ele><time>2026-04-18T12:43:57Z</time></trkpt><trkpt lat="42.157409109239815" lon="11.907273997775206"><ele>531.5999999999999</ele><time>2026-04-18T12:43:58Z</time></trkpt><trkpt lat="42.15750169216314" lon="11.907348761123082"><ele>530.4</ele><time>2026-04-18T12:43:59Z</time></trkpt><trkpt lat="42.15757650447393" lon="11.907424918845264"><ele>529.1999999999999</ele><time>2026-04-18T12:44:00Z</time></trkpt><trkpt lat="42.15763463996389" lon="11.90749751059455"><ele>528.0</ele><time>2026-04-18T12:44:01Z</time></trkpt><trkpt lat="42.157681972177556" lon="11.907570923281598"><ele>528.0</ele><time>2026-04-18T12:44:02Z</time></trkpt><trkpt lat="42.15772129902535" lon="11.907640535954702"><ele>528.0</ele><time>2026-04-18T12:44:03Z</time></trkpt><trkpt lat="42.157777063040605" lon="11.907748204506836"><ele>528.0</ele><time>2026-04-18T12:44:05Z</time></trkpt><trkpt lat="42.157889029842885" lon="11.907611846572614"><ele>528.0</ele><time>2026-04-18T12:44:10Z</time></trkpt><trkpt lat="42.157884995468045" lon="11.907486121875849"><ele>528.0</ele><time>2026-04-18T12:44:12Z</time></trkpt><trkpt lat="42.15787079898399" lon="11.907300183069648"><ele>528.0</ele><time>2026-04-18T12:44:14Z</time></trkpt><trkpt lat="42.15786011884741" lon="11.907183557230715"><ele>528.0</ele><time>2026-04-18T12:44:15Z</time></trkpt><trkpt lat="42.1578481841624" lon="11.907064035893582"><ele>528.0</ele><time>2026-04-18T12:44:16Z</time></trkpt><trkpt lat="42.157834358503635" lon="11.906934180550172"><ele>528.0</ele><time>2026-04-18T12:44:17Z</time></trkpt><trkpt lat="42.157820032702716" lon="11.906799627557874"><ele>528.0</ele><time>2026-04-18T12:44:18Z</time></trkpt><trkpt lat="42.15779146550438" lon="11.906673358089755"><ele>527.0</ele><time>2026-04-18T12:44:19Z</time></trkpt><trkpt lat="42.15777988621086" lon="11.90655321287998"><ele>526.0</ele><time>2026-04-18T12:44:20Z</time></trkpt><trkpt lat="42.157763477608036" lon="11.90644082402132"><ele>525.0</ele><time>2026-04-18T12:44:21Z</time></trkpt><trkpt lat="42.157742596299755" lon="11.906329101002179"><ele>524.0</ele><time>2026-04-18T12:44:22Z</time></trkpt><trkpt lat="42.157720153368764" lon="11.906202373135793"><ele>523.0</ele><time>2026-04-18T12:44:23Z</time></trkpt><trkpt lat="42.157690306956276" lon="11.90608586275713"><ele>522.0</ele><time>2026-04-18T12:44:24Z</time></trkpt><trkpt lat="42.1576500919517" lon="11.905971202371214"><ele>521.5</ele><time>2026-04-18T12:44:25Z</time></trkpt><trkpt lat="42.1576099035062" lon="11.905871840767862"><ele>521.0</ele><time>2026-04-18T12:44:26Z</time></trkpt><trkpt lat="42.15757462853252" lon="11.905776791731101"><ele>520.5</ele><time>2026-04-18T12:44:27Z</time></trkpt><trkpt lat="42.15754170212317" lon="11.90568666704504"><ele>520.0</ele><time>2026-04-18T12:44:28Z</time></trkpt><trkpt lat="42.15750557146582" lon="11.905594641933329"><ele>519.5</ele><time>2026-04-18T12:44:29Z</time></trkpt><trkpt lat="42.15746813112268" lon="11.905502233844734"><ele>519.0</ele><time>2026-04-18T12:44:30Z</time></trkpt><trkpt lat="42.15743042794483" lon="11.905400420339022"><ele>519.0</ele><time>2026-04-18T12:44:31Z</time></trkpt><trkpt lat="42.15739458161" lon="11.905293216527209"><ele>519.0</ele><time>2026-04-18T12:44:32Z</time></trkpt><trkpt lat="42.15735517886344" lon="11.905181261613812"><ele>519.0</ele><time>2026-04-18T12:44:33Z</time></trkpt><trkpt lat="42.15730741370818" lon="11.905074340414467"><ele>519.0</ele><time>2026-04-18T12:44:34Z</time></trkpt><trkpt lat="42.15725567648651" lon="11.904971425359296"><ele>519.0</ele><time>2026-04-18T12:44:35Z</time></trkpt><trkpt lat="42.1572100785138" lon="11.904860787956054"><ele>516.0</ele><time>2026-04-18T12:44:36Z</time></trkpt><trkpt lat="42.15716252015083" lon="11.904754797137874"><ele>513.0</ele><time>2026-04-18T12:44:37Z</time></trkpt><trkpt lat="42.15711978274787" lon="11.90464768718967"><ele>510.0</ele><time>2026-04-18T12:44:38Z</time></trkpt><trkpt lat="42.15707847733185" lon="11.904543962960968"><ele>507.0</ele><time>2026-04-18T12:44:39Z</time></trkpt><trkpt lat="42.15703701855248" lon="11.904443374050011"><ele>504.0</ele><time>2026-04-18T12:44:40.001Z</time></trkpt><trkpt lat="42.15700209733616" lon="11.904339533821704"><ele>501.0</ele><time>2026-04-18T12:44:41.001Z</time></trkpt><trkpt lat="42.156967958603204" lon="11.90424507625197"><ele>501.0</ele><time>2026-04-18T12:44:42.001Z</time></trkpt><trkpt lat="42.156931570470945" lon="11.904145272986879"><ele>501.0</ele><time>2026-04-18T12:44:43.001Z</time></trkpt><trkpt lat="42.15690599910423" lon="11.90402980382419"><ele>501.0</ele><time>2026-04-18T12:44:44.001Z</time></trkpt><trkpt lat="42.156874796432106" lon="11.903928448595549"><ele>501.0</ele><time>2026-04-18T12:44:45.001Z</time></trkpt><trkpt lat="42.15684884735534" lon="11.903828290557772"><ele>501.0</ele><time>2026-04-18T12:44:46.001Z</time></trkpt><trkpt lat="42.15682420610399" lon="11.903729300187742"><ele>501.0</ele><time>2026-04-18T12:44:47.001Z</time></trkpt><trkpt lat="42.15681705402773" lon="11.903629461234246"><ele>501.0</ele><time>2026-04-18T12:44:48.001Z</time></trkpt><trkpt lat="42.1568291833782" lon="11.90351679132542"><ele>501.0</ele><time>2026-04-18T12:44:49.001Z</time></trkpt><trkpt lat="42.156882664036196" lon="11.903438713514465"><ele>501.0</ele><time>2026-04-18T12:44:50.001Z</time></trkpt><trkpt lat="42.15693457283013" lon="11.903368728102668"><ele>501.0</ele><time>2026-04-18T12:44:51.001Z</time></trkpt><trkpt lat="42.156988438615365" lon="11.903288415612913"><ele>501.0</ele><time>2026-04-18T12:44:52.001Z</time></trkpt><trkpt lat="42.157049967732014" lon="11.903237655240671"><ele>501.0</ele><time>2026-04-18T12:44:53.001Z</time></trkpt><trkpt lat="42.157108725293156" lon="11.903170014753366"><ele>500.5</ele><time>2026-04-18T12:44:54.001Z</time></trkpt><trkpt lat="42.15713376669552" lon="11.903082614395288"><ele>500.0</ele><time>2026-04-18T12:44:55.001Z</time></trkpt><trkpt lat="42.15712339380458" lon="11.90297827701741"><ele>499.5</ele><time>2026-04-18T12:44:56.001Z</time></trkpt><trkpt lat="42.15708603869245" lon="11.902886946373938"><ele>499.0</ele><time>2026-04-18T12:44:57.001Z</time></trkpt><trkpt lat="42.15705419099248" lon="11.902788486210424"><ele>498.5</ele><time>2026-04-18T12:44:58.001Z</time></trkpt><trkpt lat="42.15703618514857" lon="11.902673853413615"><ele>498.0</ele><time>2026-04-18T12:44:59.001Z</time></trkpt><trkpt lat="42.156993624874424" lon="11.902575382166706"><ele>497.3333333333333</ele><time>2026-04-18T12:45:00.001Z</time></trkpt><trkpt lat="42.15696382390729" lon="11.902476340505766"><ele>496.66666666666663</ele><time>2026-04-18T12:45:01.001Z</time></trkpt><trkpt lat="42.15693340799159" lon="11.902382226689276"><ele>496.0</ele><time>2026-04-18T12:45:02.001Z</time></trkpt><trkpt lat="42.156873140648315" lon="11.902318612229111"><ele>495.3333333333333</ele><time>2026-04-18T12:45:03.001Z</time></trkpt><trkpt lat="42.156807305709094" lon="11.90224609256192"><ele>494.66666666666663</ele><time>2026-04-18T12:45:04.001Z</time></trkpt><trkpt lat="42.15673897484844" lon="11.902167098128281"><ele>494.0</ele><time>2026-04-18T12:45:05.001Z</time></trkpt><trkpt lat="42.15666610089381" lon="11.90210950180808"><ele>494.0</ele><time>2026-04-18T12:45:06.001Z</time></trkpt><trkpt lat="42.15662817488478" lon="11.902030267084946"><ele>494.0</ele><time>2026-04-18T12:45:07.001Z</time></trkpt><trkpt lat="42.15656361372242" lon="11.901964737364946"><ele>494.0</ele><time>2026-04-18T12:45:08.001Z</time></trkpt><trkpt lat="42.15652468790636" lon="11.90188800253475"><ele>494.0</ele><time>2026-04-18T12:45:09.001Z</time></trkpt><trkpt lat="42.15647521394253" lon="11.90182445154738"><ele>494.0</ele><time>2026-04-18T12:45:10.001Z</time></trkpt><trkpt lat="42.15642856753131" lon="11.901755183111355"><ele>494.0</ele><time>2026-04-18T12:45:11.001Z</time></trkpt><trkpt lat="42.15638867784588" lon="11.901689247981487"><ele>494.0</ele><time>2026-04-18T12:45:12.001Z</time></trkpt><trkpt lat="42.15634890532442" lon="11.901618064287522"><ele>493.3333333333333</ele><time>2026-04-18T12:45:13.001Z</time></trkpt><trkpt lat="42.15630776813812" lon="11.901539672998384"><ele>492.66666666666663</ele><time>2026-04-18T12:45:14.001Z</time></trkpt><trkpt lat="42.15627060419701" lon="11.90146639503866"><ele>492.0</ele><time>2026-04-18T12:45:15.001Z</time></trkpt><trkpt lat="42.156201859263604" lon="11.901356285959839"><ele>491.33333333333337</ele><time>2026-04-18T12:45:17.001Z</time></trkpt><trkpt lat="42.15613852071301" lon="11.901273971008738"><ele>490.6666666666667</ele><time>2026-04-18T12:45:19.001Z</time></trkpt><trkpt lat="42.156097279995514" lon="11.901197248104033"><ele>490.0</ele><time>2026-04-18T12:45:22.001Z</time></trkpt><trkpt lat="42.15599892653956" lon="11.901271491025522"><ele>490.00000000000006</ele><time>2026-04-18T12:45:25.001Z</time></trkpt><trkpt lat="42.1559342825787" lon="11.901191530945153"><ele>490.0</ele><time>2026-04-18T12:45:28.001Z</time></trkpt><trkpt lat="42.15592009903629" lon="11.901081912373867"><ele>490.0</ele><time>2026-04-18T12:45:31.001Z</time></trkpt><trkpt lat="42.155883327442524" lon="11.901012500387695"><ele>490.0</ele><time>2026-04-18T12:45:35.001Z</time></trkpt><trkpt lat="42.15580648787586" lon="11.901071945572502"><ele>490.00000000000006</ele><time>2026-04-18T12:45:36.001Z</time></trkpt><trkpt lat="42.155742417582694" lon="11.901042089913396"><ele>490.0</ele><time>2026-04-18T12:45:41.002Z</time></trkpt><trkpt lat="42.15580668036462" lon="11.901074475983027"><ele>490.0</ele><time>2026-04-18T12:46:16Z</time></trkpt><trkpt lat="42.15587671049568" lon="11.90103212964959"><ele>490.0</ele><time>2026-04-18T12:46:18Z</time></trkpt><trkpt lat="42.15625235193607" lon="11.901692143004777"><ele>488.6666666666667</ele><time>2026-04-18T12:46:35Z</time></trkpt><trkpt lat="42.15613876600561" lon="11.902104460905248"><ele>487.33333333333337</ele><time>2026-04-18T12:46:38.001Z</time></trkpt><trkpt lat="42.1561259895025" lon="11.902244353607475"><ele>486.0</ele><time>2026-04-18T12:46:40.001Z</time></trkpt><trkpt lat="42.15610141695122" lon="11.902361016688007"><ele>486.0</ele><time>2026-04-18T12:46:42.001Z</time></trkpt><trkpt lat="42.15614907680887" lon="11.902286844385575"><ele>486.0</ele><time>2026-04-18T12:47:02.001Z</time></trkpt><trkpt lat="42.15615724033846" lon="11.902145421920173"><ele>486.0</ele><time>2026-04-18T12:47:04.001Z</time></trkpt><trkpt lat="42.15616514192882" lon="11.902018912521381"><ele>486.0</ele><time>2026-04-18T12:47:06.001Z</time></trkpt><trkpt lat="42.15616682815527" lon="11.901904247475532"><ele>486.0</ele><time>2026-04-18T12:47:08.001Z</time></trkpt><trkpt lat="42.15618022886588" lon="11.901793292603523"><ele>486.0</ele><time>2026-04-18T12:47:10.001Z</time></trkpt><trkpt lat="42.15620431922913" lon="11.901711664944054"><ele>486.8</ele><time>2026-04-18T12:47:11.001Z</time></trkpt><trkpt lat="42.156230444853854" lon="11.901622442153025"><ele>487.6</ele><time>2026-04-18T12:47:12.001Z</time></trkpt><trkpt lat="42.156264339237005" lon="11.901489955372925"><ele>488.4</ele><time>2026-04-18T12:47:14.001Z</time></trkpt><trkpt lat="42.15618222795562" lon="11.901335906928725"><ele>489.2</ele><time>2026-04-18T12:47:18.001Z</time></trkpt><trkpt lat="42.15613303944451" lon="11.901258696276866"><ele>490.0</ele><time>2026-04-18T12:47:20.001Z</time></trkpt><trkpt lat="42.156026708671334" lon="11.901315700184599"><ele>490.00000000000006</ele><time>2026-04-18T12:47:25.001Z</time></trkpt><trkpt lat="42.15595084720163" lon="11.901360500928611"><ele>490.0</ele><time>2026-04-18T12:47:31.001Z</time></trkpt><trkpt lat="42.155856910814826" lon="11.901393094021676"><ele>490.0</ele><time>2026-04-18T12:47:34.001Z</time></trkpt><trkpt lat="42.15576469546545" lon="11.901428169453983"><ele>490.0</ele><time>2026-04-18T12:47:37.002Z</time></trkpt><trkpt lat="42.15569726017351" lon="11.901435203897924"><ele>490.00000000000006</ele><time>2026-04-18T12:47:39.002Z</time></trkpt><trkpt lat="42.155609301994986" lon="11.901421599644685"><ele>490.0</ele><time>2026-04-18T12:47:42.002Z</time></trkpt><trkpt lat="42.155537250725985" lon="11.901413041103961"><ele>485.50000000000006</ele><time>2026-04-18T12:47:44.002Z</time></trkpt><trkpt lat="42.15549594454919" lon="11.90133406894142"><ele>481.0</ele><time>2026-04-18T12:47:46.002Z</time></trkpt><trkpt lat="42.15546746334724" lon="11.901238746883822"><ele>476.5</ele><time>2026-04-18T12:47:48.002Z</time></trkpt><trkpt lat="42.15545406856061" lon="11.901133502470872"><ele>472.0</ele><time>2026-04-18T12:47:50.002Z</time></trkpt><trkpt lat="42.155445519076935" lon="11.901029882718547"><ele>467.50000000000006</ele><time>2026-04-18T12:47:52.002Z</time></trkpt><trkpt lat="42.155419686792186" lon="11.900919813143629"><ele>463.0</ele><time>2026-04-18T12:47:54.002Z</time></trkpt><trkpt lat="42.155400955729164" lon="11.900817072962793"><ele>461.79999999999995</ele><time>2026-04-18T12:47:56.002Z</time></trkpt><trkpt lat="42.15529893356263" lon="11.900789221425386"><ele>460.59999999999997</ele><time>2026-04-18T12:47:58.002Z</time></trkpt><trkpt lat="42.15528858192545" lon="11.900676341309312"><ele>459.40000000000003</ele><time>2026-04-18T12:48:00.002Z</time></trkpt><trkpt lat="42.15540570591079" lon="11.900615394848044"><ele>458.20000000000005</ele><time>2026-04-18T12:48:02.001Z</time></trkpt><trkpt lat="42.15546521433504" lon="11.900570560596663"><ele>457.0</ele><time>2026-04-18T12:48:03.001Z</time></trkpt><trkpt lat="42.155533170215755" lon="11.9005438237177"><ele>457.00000000000006</ele><time>2026-04-18T12:48:04.001Z</time></trkpt><trkpt lat="42.15559868904594" lon="11.900498724334552"><ele>457.0</ele><time>2026-04-18T12:48:05.001Z</time></trkpt><trkpt lat="42.15565245348593" lon="11.900431188939185"><ele>457.0</ele><time>2026-04-18T12:48:06.001Z</time></trkpt><trkpt lat="42.15569783099917" lon="11.900353703014206"><ele>457.0</ele><time>2026-04-18T12:48:07.001Z</time></trkpt><trkpt lat="42.15575108319053" lon="11.900289568031337"><ele>457.00000000000006</ele><time>2026-04-18T12:48:08.001Z</time></trkpt><trkpt lat="42.15576142526756" lon="11.90018332926668"><ele>457.0</ele><time>2026-04-18T12:48:09.001Z</time></trkpt><trkpt lat="42.155789945292014" lon="11.900074626144317"><ele>458.1666666666667</ele><time>2026-04-18T12:48:10.001Z</time></trkpt><trkpt lat="42.155818047443624" lon="11.899948075223802"><ele>459.33333333333337</ele><time>2026-04-18T12:48:11Z</time></trkpt><trkpt lat="42.15584067282164" lon="11.899825374100963"><ele>460.5</ele><time>2026-04-18T12:48:12Z</time></trkpt><trkpt lat="42.15586834148355" lon="11.899707410133903"><ele>461.66666666666663</ele><time>2026-04-18T12:48:13Z</time></trkpt><trkpt lat="42.15589730073033" lon="11.899598488127085"><ele>462.8333333333333</ele><time>2026-04-18T12:48:14Z</time></trkpt><trkpt lat="42.155920853744405" lon="11.899504903001308"><ele>464.0</ele><time>2026-04-18T12:48:15Z</time></trkpt><trkpt lat="42.15594327994183" lon="11.899418538495915"><ele>464.0</ele><time>2026-04-18T12:48:16Z</time></trkpt><trkpt lat="42.155911652019654" lon="11.899288540727001"><ele>464.0</ele><time>2026-04-18T12:48:18Z</time></trkpt><trkpt lat="42.15582347168827" lon="11.89948149220222"><ele>464.0</ele><time>2026-04-18T12:48:25.001Z</time></trkpt><trkpt lat="42.155796611459095" lon="11.89955975242478"><ele>464.0</ele><time>2026-04-18T12:48:26.001Z</time></trkpt><trkpt lat="42.15571870001578" lon="11.899694253841611"><ele>460.2</ele><time>2026-04-18T12:48:28.001Z</time></trkpt><trkpt lat="42.155665410450084" lon="11.89974244615259"><ele>456.4</ele><time>2026-04-18T12:48:29.001Z</time></trkpt><trkpt lat="42.15555399287385" lon="11.89977890236879"><ele>452.6</ele><time>2026-04-18T12:48:31.001Z</time></trkpt><trkpt lat="42.15542852220235" lon="11.899717688432688"><ele>448.8</ele><time>2026-04-18T12:48:33.001Z</time></trkpt><trkpt lat="42.15536856960674" lon="11.899656422544247"><ele>445.0</ele><time>2026-04-18T12:48:34.001Z</time></trkpt><trkpt lat="42.15530332405772" lon="11.899589363482397"><ele>445.00000000000006</ele><time>2026-04-18T12:48:35.001Z</time></trkpt><trkpt lat="42.15523020344349" lon="11.899545138045898"><ele>445.0</ele><time>2026-04-18T12:48:36.001Z</time></trkpt><trkpt lat="42.15514589130007" lon="11.899535237903386"><ele>445.0</ele><time>2026-04-18T12:48:37.001Z</time></trkpt><trkpt lat="42.155072320942296" lon="11.899530681608965"><ele>445.0</ele><time>2026-04-18T12:48:38.001Z</time></trkpt><trkpt lat="42.15500275151965" lon="11.899411369458269"><ele>445.00000000000006</ele><time>2026-04-18T12:48:40.001Z</time></trkpt><trkpt lat="42.15500888215619" lon="11.899313899312736"><ele>445.0</ele><time>2026-04-18T12:48:41.001Z</time></trkpt><trkpt lat="42.15505576221242" lon="11.899199197107965"><ele>442.4</ele><time>2026-04-18T12:48:43.001Z</time></trkpt><trkpt lat="42.15503394603694" lon="11.899071142942558"><ele>439.8</ele><time>2026-04-18T12:48:45.001Z</time></trkpt><trkpt lat="42.15500914592552" lon="11.898939618235724"><ele>437.20000000000005</ele><time>2026-04-18T12:48:47.001Z</time></trkpt><trkpt lat="42.15500502218982" lon="11.898810049417488"><ele>434.6</ele><time>2026-04-18T12:48:49.001Z</time></trkpt><trkpt lat="42.15505366887823" lon="11.89864957763075"><ele>432.0</ele><time>2026-04-18T12:48:51.001Z</time></trkpt><trkpt lat="42.15509188806546" lon="11.89855947501812"><ele>432.0</ele><time>2026-04-18T12:48:52.001Z</time></trkpt><trkpt lat="42.15515688270056" lon="11.898423586559879"><ele>432.00000000000006</ele><time>2026-04-18T12:48:54.001Z</time></trkpt><trkpt lat="42.155188431892995" lon="11.898330935189227"><ele>432.00000000000006</ele><time>2026-04-18T12:48:56.001Z</time></trkpt><trkpt lat="42.15509315322086" lon="11.898274895189838"><ele>432.0</ele><time>2026-04-18T12:48:58.001Z</time></trkpt><trkpt lat="42.15500765005212" lon="11.898249588369927"><ele>432.0</ele><time>2026-04-18T12:48:59.001Z</time></trkpt><trkpt lat="42.15493906510019" lon="11.898230552115745"><ele>431.5</ele><time>2026-04-18T12:49:00.001Z</time></trkpt><trkpt lat="42.154864771940865" lon="11.898245163603708"><ele>431.0</ele><time>2026-04-18T12:49:01.001Z</time></trkpt><trkpt lat="42.15480078245384" lon="11.898272881318158"><ele>430.5</ele><time>2026-04-18T12:49:02.001Z</time></trkpt><trkpt lat="42.154749421989614" lon="11.898325947387942"><ele>430.0</ele><time>2026-04-18T12:49:03.001Z</time></trkpt><trkpt lat="42.154687738999115" lon="11.898355778122701"><ele>429.5</ele><time>2026-04-18T12:49:04.001Z</time></trkpt><trkpt lat="42.15456938292281" lon="11.898422419370826"><ele>429.0</ele><time>2026-04-18T12:49:06.001Z</time></trkpt><trkpt lat="42.15449944721281" lon="11.898442179577449"><ele>429.0</ele><time>2026-04-18T12:49:07.001Z</time></trkpt><trkpt lat="42.15442162494311" lon="11.898465577642583"><ele>429.0</ele><time>2026-04-18T12:49:08.001Z</time></trkpt><trkpt lat="42.15434264159812" lon="11.898499380145001"><ele>429.0</ele><time>2026-04-18T12:49:09.001Z</time></trkpt><trkpt lat="42.154264633119425" lon="11.898531642929761"><ele>429.0</ele><time>2026-04-18T12:49:10.001Z</time></trkpt><trkpt lat="42.154166753900874" lon="11.898512407584033"><ele>429.0</ele><time>2026-04-18T12:49:12.001Z</time></trkpt><trkpt lat="42.154121502892046" lon="11.89838927152021"><ele>429.0</ele><time>2026-04-18T12:49:14.001Z</time></trkpt><trkpt lat="42.15410137854325" lon="11.898297562361908"><ele>429.3333333333333</ele><time>2026-04-18T12:49:15.001Z</time></trkpt><trkpt lat="42.15407966721737" lon="11.898193795601406"><ele>429.66666666666663</ele><time>2026-04-18T12:49:16.001Z</time></trkpt><trkpt lat="42.15404972852122" lon="11.898082979947082"><ele>430.0</ele><time>2026-04-18T12:49:17.001Z</time></trkpt><trkpt lat="42.15402567615109" lon="11.897964464641587"><ele>430.3333333333333</ele><time>2026-04-18T12:49:18.001Z</time></trkpt><trkpt lat="42.15401670488001" lon="11.897848455710829"><ele>430.66666666666663</ele><time>2026-04-18T12:49:19.001Z</time></trkpt><trkpt lat="42.15400868152297" lon="11.897727089942897"><ele>431.0</ele><time>2026-04-18T12:49:20.001Z</time></trkpt><trkpt lat="42.15400378648843" lon="11.897612838376928"><ele>428.66666666666663</ele><time>2026-04-18T12:49:21.001Z</time></trkpt><trkpt lat="42.154000931340974" lon="11.897499540921128"><ele>426.3333333333333</ele><time>2026-04-18T12:49:22.001Z</time></trkpt><trkpt lat="42.15401090876694" lon="11.897395204293677"><ele>424.0</ele><time>2026-04-18T12:49:23.001Z</time></trkpt><trkpt lat="42.15403350759002" lon="11.897291243233923"><ele>421.66666666666663</ele><time>2026-04-18T12:49:24.001Z</time></trkpt><trkpt lat="42.15405933844232" lon="11.897195073373844"><ele>419.3333333333333</ele><time>2026-04-18T12:49:25.001Z</time></trkpt><trkpt lat="42.154077213952874" lon="11.897093815033099"><ele>417.0</ele><time>2026-04-18T12:49:26.001Z</time></trkpt><trkpt lat="42.15408095419205" lon="11.896976235171303"><ele>414.20000000000005</ele><time>2026-04-18T12:49:27.001Z</time></trkpt><trkpt lat="42.15407140072709" lon="11.896837574026673"><ele>411.4</ele><time>2026-04-18T12:49:28.001Z</time></trkpt><trkpt lat="42.15406306346324" lon="11.896716463127618"><ele>408.6</ele><time>2026-04-18T12:49:29.001Z</time></trkpt><trkpt lat="42.15405760626896" lon="11.896593611243361"><ele>405.79999999999995</ele><time>2026-04-18T12:49:30.001Z</time></trkpt><trkpt lat="42.15405448638904" lon="11.896466658570201"><ele>403.0</ele><time>2026-04-18T12:49:31.001Z</time></trkpt><trkpt lat="42.15403691139985" lon="11.89634923678598"><ele>403.0</ele><time>2026-04-18T12:49:32.001Z</time></trkpt><trkpt lat="42.154047369212115" lon="11.896256225771438"><ele>403.0</ele><time>2026-04-18T12:49:33.001Z</time></trkpt><trkpt lat="42.15404725648922" lon="11.896170702676766"><ele>403.0</ele><time>2026-04-18T12:49:35.001Z</time></trkpt><trkpt lat="42.15393270142193" lon="11.896199254768813"><ele>403.0</ele><time>2026-04-18T12:49:37.002Z</time></trkpt><trkpt lat="42.15385371562131" lon="11.896263921095422"><ele>403.0</ele><time>2026-04-18T12:49:39.002Z</time></trkpt><trkpt lat="42.15373292522238" lon="11.896275169403703"><ele>403.00000000000006</ele><time>2026-04-18T12:49:41.002Z</time></trkpt><trkpt lat="42.15365340071078" lon="11.896276349238784"><ele>403.0</ele><time>2026-04-18T12:49:42.002Z</time></trkpt><trkpt lat="42.15357291966591" lon="11.896255438509066"><ele>403.0</ele><time>2026-04-18T12:49:43.002Z</time></trkpt><trkpt lat="42.15349585533624" lon="11.896254601195986"><ele>403.0</ele><time>2026-04-18T12:49:44.002Z</time></trkpt><trkpt lat="42.153389711646476" lon="11.896252990238779"><ele>403.00000000000006</ele><time>2026-04-18T12:49:46.002Z</time></trkpt><trkpt lat="42.15334895230623" lon="11.896188106034916"><ele>403.0</ele><time>2026-04-18T12:49:47.002Z</time></trkpt><trkpt lat="42.153331053320265" lon="11.896069209339379"><ele>403.0</ele><time>2026-04-18T12:49:48.002Z</time></trkpt><trkpt lat="42.15326685725509" lon="11.895983349746388"><ele>403.0</ele><time>2026-04-18T12:49:49.002Z</time></trkpt><trkpt lat="42.15316286751271" lon="11.89594219664519"><ele>403.0</ele><time>2026-04-18T12:49:51.002Z</time></trkpt><trkpt lat="42.153063929157675" lon="11.896021010228898"><ele>403.0</ele><time>2026-04-18T12:49:53.002Z</time></trkpt><trkpt lat="42.153058816056486" lon="11.896130194315951"><ele>403.0</ele><time>2026-04-18T12:49:54.002Z</time></trkpt><trkpt lat="42.15306635013842" lon="11.896228185687866"><ele>404.1666666666667</ele><time>2026-04-18T12:49:55.002Z</time></trkpt><trkpt lat="42.153101373080695" lon="11.89632853041493"><ele>405.33333333333337</ele><time>2026-04-18T12:49:56.002Z</time></trkpt><trkpt lat="42.15314812622233" lon="11.89642104660299"><ele>406.5</ele><time>2026-04-18T12:49:57.002Z</time></trkpt><trkpt lat="42.153184530863115" lon="11.896500578983897"><ele>407.66666666666663</ele><time>2026-04-18T12:49:58.002Z</time></trkpt><trkpt lat="42.153179341169" lon="11.89659704277045"><ele>408.8333333333333</ele><time>2026-04-18T12:50:00.002Z</time></trkpt><trkpt lat="42.153093083509" lon="11.89657244009956"><ele>410.0</ele><time>2026-04-18T12:50:02.002Z</time></trkpt><trkpt lat="42.15308706141548" lon="11.896468025516509"><ele>410.0</ele><time>2026-04-18T12:50:03.002Z</time></trkpt><trkpt lat="42.15303588897213" lon="11.896396221797948"><ele>410.0</ele><time>2026-04-18T12:50:04.002Z</time></trkpt><trkpt lat="42.1529806426409" lon="11.896328058516193"><ele>410.0</ele><time>2026-04-18T12:50:05.002Z</time></trkpt><trkpt lat="42.152905535870154" lon="11.89629284400806"><ele>410.0</ele><time>2026-04-18T12:50:06.002Z</time></trkpt><trkpt lat="42.152838411383925" lon="11.89624652678899"><ele>410.0</ele><time>2026-04-18T12:50:07.002Z</time></trkpt><trkpt lat="42.152768571136846" lon="11.896233206645972"><ele>410.0</ele><time>2026-04-18T12:50:08.001Z</time></trkpt><trkpt lat="42.15269567435838" lon="11.896238546790535"><ele>410.0</ele><time>2026-04-18T12:50:09.001Z</time></trkpt><trkpt lat="42.15263426222734" lon="11.896340379490026"><ele>410.0</ele><time>2026-04-18T12:50:10.001Z</time></trkpt><trkpt lat="42.152582100459156" lon="11.896435559507262"><ele>410.0</ele><time>2026-04-18T12:50:11.001Z</time></trkpt><trkpt lat="42.152528778775434" lon="11.896529223668184"><ele>410.0</ele><time>2026-04-18T12:50:12.001Z</time></trkpt><trkpt lat="42.15244784693151" lon="11.89658335900909"><ele>410.0</ele><time>2026-04-18T12:50:13.001Z</time></trkpt><trkpt lat="42.152368271410324" lon="11.896646847703401"><ele>410.0</ele><time>2026-04-18T12:50:14.001Z</time></trkpt><trkpt lat="42.1522926207472" lon="11.896717914605361"><ele>411.6</ele><time>2026-04-18T12:50:15.001Z</time></trkpt><trkpt lat="42.152232897369515" lon="11.896764692531557"><ele>413.2</ele><time>2026-04-18T12:50:16.001Z</time></trkpt><trkpt lat="42.1521456149621" lon="11.896825064482817"><ele>414.79999999999995</ele><time>2026-04-18T12:50:18Z</time></trkpt><trkpt lat="42.15205453929378" lon="11.896702160821297"><ele>416.4</ele><time>2026-04-18T12:50:22Z</time></trkpt><trkpt lat="42.15199848207268" lon="11.896663078548709"><ele>418.0</ele><time>2026-04-18T12:50:23Z</time></trkpt><trkpt lat="42.15189991234094" lon="11.896636031865023"><ele>418.0</ele><time>2026-04-18T12:50:24Z</time></trkpt><trkpt lat="42.15180776436339" lon="11.896571319368219"><ele>418.0</ele><time>2026-04-18T12:50:25Z</time></trkpt><trkpt lat="42.151721610342705" lon="11.896525729976414"><ele>418.0</ele><time>2026-04-18T12:50:26Z</time></trkpt><trkpt lat="42.15165224548798" lon="11.896451354484418"><ele>418.0</ele><time>2026-04-18T12:50:27Z</time></trkpt><trkpt lat="42.151613166953055" lon="11.896342835145743"><ele>418.0</ele><time>2026-04-18T12:50:28Z</time></trkpt><trkpt lat="42.151585300986206" lon="11.896226997673331"><ele>418.0</ele><time>2026-04-18T12:50:29Z</time></trkpt><trkpt lat="42.15152503130438" lon="11.896077690068541"><ele>418.0</ele><time>2026-04-18T12:50:31Z</time></trkpt><trkpt lat="42.15148389692072" lon="11.895990275156523"><ele>418.0</ele><time>2026-04-18T12:50:32Z</time></trkpt><trkpt lat="42.1513551582738" lon="11.895923764283513"><ele>418.0</ele><time>2026-04-18T12:50:33Z</time></trkpt><trkpt lat="42.15124718150072" lon="11.8958495653652"><ele>414.0</ele><time>2026-04-18T12:50:34Z</time></trkpt><trkpt lat="42.1511381079843" lon="11.895754730282324"><ele>410.0</ele><time>2026-04-18T12:50:35Z</time></trkpt><trkpt lat="42.15103652383036" lon="11.895667039856535"><ele>406.0</ele><time>2026-04-18T12:50:36.001Z</time></trkpt><trkpt lat="42.15094338067493" lon="11.895588961625865"><ele>402.0</ele><time>2026-04-18T12:50:37.001Z</time></trkpt><trkpt lat="42.15085515260225" lon="11.895515532612265"><ele>402.0</ele><time>2026-04-18T12:50:38.001Z</time></trkpt><trkpt lat="42.15076300652662" lon="11.895461694759078"><ele>402.0</ele><time>2026-04-18T12:50:39.001Z</time></trkpt><trkpt lat="42.150679348330584" lon="11.895381651564017"><ele>402.0</ele><time>2026-04-18T12:50:40.001Z</time></trkpt><trkpt lat="42.150588398332616" lon="11.89528264287495"><ele>402.0</ele><time>2026-04-18T12:50:41.001Z</time></trkpt><trkpt lat="42.15048946636037" lon="11.895189143073765"><ele>402.0</ele><time>2026-04-18T12:50:42.001Z</time></trkpt><trkpt lat="42.15039181401376" lon="11.895096656198064"><ele>399.75</ele><time>2026-04-18T12:50:43.001Z</time></trkpt><trkpt lat="42.1502898102985" lon="11.895000182133463"><ele>397.5</ele><time>2026-04-18T12:50:44.001Z</time></trkpt><trkpt lat="42.15018731110641" lon="11.89490921636176"><ele>395.25</ele><time>2026-04-18T12:50:45.001Z</time></trkpt><trkpt lat="42.15007500133902" lon="11.894822061564252"><ele>393.0</ele><time>2026-04-18T12:50:46.001Z</time></trkpt><trkpt lat="42.14996308334607" lon="11.894750352932554"><ele>396.59999999999997</ele><time>2026-04-18T12:50:47.001Z</time></trkpt><trkpt lat="42.14986441310443" lon="11.894692122345006"><ele>400.2</ele><time>2026-04-18T12:50:48.001Z</time></trkpt><trkpt lat="42.149759892133915" lon="11.894630978648944"><ele>403.8</ele><time>2026-04-18T12:50:49.001Z</time></trkpt><trkpt lat="42.14965777378004" lon="11.894571240458909"><ele>407.4</ele><time>2026-04-18T12:50:50.001Z</time></trkpt><trkpt lat="42.14956675014095" lon="11.894511001583453"><ele>411.0</ele><time>2026-04-18T12:50:51.001Z</time></trkpt><trkpt lat="42.1494872764724" lon="11.894440022789802"><ele>411.0</ele><time>2026-04-18T12:50:52.001Z</time></trkpt><trkpt lat="42.14942646481125" lon="11.894333687133958"><ele>411.0</ele><time>2026-04-18T12:50:53.001Z</time></trkpt><trkpt lat="42.14935610893153" lon="11.894207838580204"><ele>411.0</ele><time>2026-04-18T12:50:54.001Z</time></trkpt><trkpt lat="42.14928468123848" lon="11.894074024167402"><ele>411.0</ele><time>2026-04-18T12:50:55.001Z</time></trkpt><trkpt lat="42.149212123781886" lon="11.893925098710506"><ele>411.75</ele><time>2026-04-18T12:50:56.001Z</time></trkpt><trkpt lat="42.14913696485126" lon="11.893767196637091"><ele>412.5</ele><time>2026-04-18T12:50:57.001Z</time></trkpt><trkpt lat="42.14905798655538" lon="11.89361806107058"><ele>413.25</ele><time>2026-04-18T12:50:58.001Z</time></trkpt><trkpt lat="42.14897104139162" lon="11.893496816397054"><ele>414.0</ele><time>2026-04-18T12:50:59.001Z</time></trkpt><trkpt lat="42.148908897719444" lon="11.89337054531025"><ele>410.79999999999995</ele><time>2026-04-18T12:51:00.001Z</time></trkpt><trkpt lat="42.14883958859666" lon="11.893256054562153"><ele>407.59999999999997</ele><time>2026-04-18T12:51:01.001Z</time></trkpt><trkpt lat="42.14874820068894" lon="11.893179148873507"><ele>404.4</ele><time>2026-04-18T12:51:02.001Z</time></trkpt><trkpt lat="42.14864917473003" lon="11.893148790606466"><ele>401.2</ele><time>2026-04-18T12:51:03.001Z</time></trkpt><trkpt lat="42.148543628601885" lon="11.89314434161525"><ele>398.0</ele><time>2026-04-18T12:51:04.001Z</time></trkpt><trkpt lat="42.14842490414417" lon="11.893197523353518"><ele>398.0</ele><time>2026-04-18T12:51:05.001Z</time></trkpt><trkpt lat="42.14831129839395" lon="11.893218026709759"><ele>398.0</ele><time>2026-04-18T12:51:06.001Z</time></trkpt><trkpt lat="42.14820555394172" lon="11.893285850609885"><ele>398.0</ele><time>2026-04-18T12:51:07.001Z</time></trkpt><trkpt lat="42.14811618492284" lon="11.893381114727536"><ele>398.0</ele><time>2026-04-18T12:51:08.001Z</time></trkpt><trkpt lat="42.14801766874228" lon="11.893426654820736"><ele>398.4</ele><time>2026-04-18T12:51:09.001Z</time></trkpt><trkpt lat="42.14792022150393" lon="11.893445506666929"><ele>398.79999999999995</ele><time>2026-04-18T12:51:10.001Z</time></trkpt><trkpt lat="42.147846678086715" lon="11.893382924443676"><ele>399.2</ele><time>2026-04-18T12:51:11.001Z</time></trkpt><trkpt lat="42.14779260763996" lon="11.893294342145252"><ele>399.6</ele><time>2026-04-18T12:51:12.001Z</time></trkpt><trkpt lat="42.14769611305373" lon="11.893186776377695"><ele>400.0</ele><time>2026-04-18T12:51:13.001Z</time></trkpt><trkpt lat="42.147642694824995" lon="11.893101703431824"><ele>400.0</ele><time>2026-04-18T12:51:14.001Z</time></trkpt><trkpt lat="42.14756313308418" lon="11.89306652397973"><ele>400.0</ele><time>2026-04-18T12:51:15.001Z</time></trkpt><trkpt lat="42.147470975770865" lon="11.89308886102118"><ele>400.0</ele><time>2026-04-18T12:51:16.001Z</time></trkpt><trkpt lat="42.14737944515451" lon="11.893151051081565"><ele>400.0</ele><time>2026-04-18T12:51:17.001Z</time></trkpt><trkpt lat="42.14727468257101" lon="11.893226448019218"><ele>400.0</ele><time>2026-04-18T12:51:18.001Z</time></trkpt><trkpt lat="42.147162994156076" lon="11.893273711617375"><ele>399.8</ele><time>2026-04-18T12:51:19.001Z</time></trkpt><trkpt lat="42.14706029850761" lon="11.893324039491626"><ele>399.6</ele><time>2026-04-18T12:51:20.001Z</time></trkpt><trkpt lat="42.14696049131936" lon="11.893347112169405"><ele>399.4</ele><time>2026-04-18T12:51:21.001Z</time></trkpt><trkpt lat="42.14685629059123" lon="11.893337511058867"><ele>399.2</ele><time>2026-04-18T12:51:22.001Z</time></trkpt><trkpt lat="42.14675508213426" lon="11.893313087317049"><ele>399.0</ele><time>2026-04-18T12:51:23.001Z</time></trkpt><trkpt lat="42.146650076477854" lon="11.893287368773038"><ele>399.0</ele><time>2026-04-18T12:51:24.001Z</time></trkpt><trkpt lat="42.14655344637509" lon="11.893243488101744"><ele>399.0</ele><time>2026-04-18T12:51:25.001Z</time></trkpt><trkpt lat="42.14645261560478" lon="11.893169461237946"><ele>399.0</ele><time>2026-04-18T12:51:26.001Z</time></trkpt><trkpt lat="42.14635534144862" lon="11.893117728895149"><ele>399.0</ele><time>2026-04-18T12:51:27.001Z</time></trkpt><trkpt lat="42.14627274693445" lon="11.893071964247358"><ele>399.0</ele><time>2026-04-18T12:51:28.001Z</time></trkpt><trkpt lat="42.146206681623966" lon="11.893002944699854"><ele>401.4</ele><time>2026-04-18T12:51:29.001Z</time></trkpt><trkpt lat="42.146182519810125" lon="11.892908365722487"><ele>403.79999999999995</ele><time>2026-04-18T12:51:30.001Z</time></trkpt><trkpt lat="42.14617208732247" lon="11.892809899218916"><ele>406.20000000000005</ele><time>2026-04-18T12:51:31.001Z</time></trkpt><trkpt lat="42.14615127440216" lon="11.89268467111821"><ele>408.6</ele><time>2026-04-18T12:51:32.001Z</time></trkpt><trkpt lat="42.14613390882783" lon="11.892535769812456"><ele>411.0</ele><time>2026-04-18T12:51:33.001Z</time></trkpt><trkpt lat="42.14612235067554" lon="11.892370391422903"><ele>411.20000000000005</ele><time>2026-04-18T12:51:34.001Z</time></trkpt><trkpt lat="42.14612175417274" lon="11.892224792353941"><ele>411.40000000000003</ele><time>2026-04-18T12:51:35.001Z</time></trkpt><trkpt lat="42.146135658718705" lon="11.892109557805872"><ele>411.6</ele><time>2026-04-18T12:51:36.001Z</time></trkpt><trkpt lat="42.1461642813198" lon="11.89197485757182"><ele>411.8</ele><time>2026-04-18T12:51:37.001Z</time></trkpt><trkpt lat="42.14618666211065" lon="11.89182387383607"><ele>412.0</ele><time>2026-04-18T12:51:38.001Z</time></trkpt><trkpt lat="42.14615864711834" lon="11.891696804182104"><ele>413.20000000000005</ele><time>2026-04-18T12:51:39.001Z</time></trkpt><trkpt lat="42.1461424550759" lon="11.89157599520563"><ele>414.4</ele><time>2026-04-18T12:51:40.001Z</time></trkpt><trkpt lat="42.146094539405915" lon="11.89144085390892"><ele>415.6</ele><time>2026-04-18T12:51:41.001Z</time></trkpt><trkpt lat="42.14604797715749" lon="11.891316436297158"><ele>416.79999999999995</ele><time>2026-04-18T12:51:42.001Z</time></trkpt><trkpt lat="42.14599423309947" lon="11.891209763802577"><ele>418.0</ele><time>2026-04-18T12:51:43.001Z</time></trkpt><trkpt lat="42.14595178682828" lon="11.891095267058372"><ele>418.0</ele><time>2026-04-18T12:51:44.001Z</time></trkpt><trkpt lat="42.14593326905798" lon="11.89098633189343"><ele>418.0</ele><time>2026-04-18T12:51:45.001Z</time></trkpt><trkpt lat="42.14594268845956" lon="11.890880657447216"><ele>418.0</ele><time>2026-04-18T12:51:46.001Z</time></trkpt><trkpt lat="42.14594523976592" lon="11.890739359098148"><ele>418.0</ele><time>2026-04-18T12:51:47.001Z</time></trkpt><trkpt lat="42.14595453876504" lon="11.89059711368085"><ele>418.0</ele><time>2026-04-18T12:51:48.001Z</time></trkpt><trkpt lat="42.14595744937259" lon="11.89048295031495"><ele>417.59999999999997</ele><time>2026-04-18T12:51:49.001Z</time></trkpt><trkpt lat="42.14595659331714" lon="11.890362374696302"><ele>417.2</ele><time>2026-04-18T12:51:50.001Z</time></trkpt><trkpt lat="42.14595574926699" lon="11.890243490599385"><ele>416.8</ele><time>2026-04-18T12:51:51.001Z</time></trkpt><trkpt lat="42.14595664831025" lon="11.890109035444056"><ele>416.4</ele><time>2026-04-18T12:51:52.001Z</time></trkpt><trkpt lat="42.14596169048192" lon="11.889937490937806"><ele>416.0</ele><time>2026-04-18T12:51:53.001Z</time></trkpt><trkpt lat="42.145952553614194" lon="11.88976339951676"><ele>416.0</ele><time>2026-04-18T12:51:54.001Z</time></trkpt><trkpt lat="42.14596683840135" lon="11.889601969098079"><ele>416.0</ele><time>2026-04-18T12:51:55.002Z</time></trkpt><trkpt lat="42.14597940623006" lon="11.889446396171827"><ele>416.0</ele><time>2026-04-18T12:51:56.002Z</time></trkpt><trkpt lat="42.14596398943445" lon="11.889300527324231"><ele>416.0</ele><time>2026-04-18T12:51:57.002Z</time></trkpt><trkpt lat="42.14593571572613" lon="11.889149268481136"><ele>415.25</ele><time>2026-04-18T12:51:58.002Z</time></trkpt><trkpt lat="42.14591664382807" lon="11.88898934595206"><ele>414.5</ele><time>2026-04-18T12:51:59.002Z</time></trkpt><trkpt lat="42.14587465858123" lon="11.888826777105457"><ele>413.75</ele><time>2026-04-18T12:52:00.002Z</time></trkpt><trkpt lat="42.145858807128285" lon="11.888676948005203"><ele>413.0</ele><time>2026-04-18T12:52:01.002Z</time></trkpt><trkpt lat="42.14584637189977" lon="11.888526726564272"><ele>411.79999999999995</ele><time>2026-04-18T12:52:02.002Z</time></trkpt><trkpt lat="42.14583962844443" lon="11.888382868011604"><ele>410.6</ele><time>2026-04-18T12:52:03.002Z</time></trkpt><trkpt lat="42.14581409650394" lon="11.888253416450993"><ele>409.4</ele><time>2026-04-18T12:52:04.002Z</time></trkpt><trkpt lat="42.14579872956294" lon="11.888129326676399"><ele>408.20000000000005</ele><time>2026-04-18T12:52:05.002Z</time></trkpt><trkpt lat="42.14576160191576" lon="11.88802296524192"><ele>407.0</ele><time>2026-04-18T12:52:06.002Z</time></trkpt><trkpt lat="42.14570844864594" lon="11.887943803457475"><ele>411.20000000000005</ele><time>2026-04-18T12:52:07.002Z</time></trkpt><trkpt lat="42.14564123908843" lon="11.88789462146133"><ele>415.4</ele><time>2026-04-18T12:52:08.002Z</time></trkpt><trkpt lat="42.14555048604923" lon="11.887885132154388"><ele>419.59999999999997</ele><time>2026-04-18T12:52:09.002Z</time></trkpt><trkpt lat="42.145444687102334" lon="11.887876465147013"><ele>423.79999999999995</ele><time>2026-04-18T12:52:10.002Z</time></trkpt><trkpt lat="42.14532490498688" lon="11.887907634461111"><ele>428.0</ele><time>2026-04-18T12:52:11.002Z</time></trkpt><trkpt lat="42.14520821256718" lon="11.887895353392826"><ele>428.0</ele><time>2026-04-18T12:52:12.002Z</time></trkpt><trkpt lat="42.14508989437468" lon="11.887925941874732"><ele>427.99999999999994</ele><time>2026-04-18T12:52:13.002Z</time></trkpt><trkpt lat="42.144991211782504" lon="11.887930876853018"><ele>427.99999999999994</ele><time>2026-04-18T12:52:14Z</time></trkpt><trkpt lat="42.1448960540229" lon="11.88794140083756"><ele>428.0</ele><time>2026-04-18T12:52:15Z</time></trkpt><trkpt lat="42.14480847540753" lon="11.887933515181427"><ele>428.0</ele><time>2026-04-18T12:52:16Z</time></trkpt><trkpt lat="42.144739767100894" lon="11.887928460845139"><ele>429.16666666666663</ele><time>2026-04-18T12:52:17Z</time></trkpt><trkpt lat="42.1447007136914" lon="11.887861369678747"><ele>430.3333333333333</ele><time>2026-04-18T12:52:18Z</time></trkpt><trkpt lat="42.144714968187614" lon="11.887767477625859"><ele>431.5</ele><time>2026-04-18T12:52:19Z</time></trkpt><trkpt lat="42.14474508752374" lon="11.88763745487457"><ele>432.66666666666663</ele><time>2026-04-18T12:52:20Z</time></trkpt><trkpt lat="42.14473801550321" lon="11.887509802664923"><ele>433.8333333333333</ele><time>2026-04-18T12:52:21Z</time></trkpt><trkpt lat="42.14473153922254" lon="11.88736875649316"><ele>435.0</ele><time>2026-04-18T12:52:22Z</time></trkpt><trkpt lat="42.1447288139585" lon="11.887250180378473"><ele>435.0</ele><time>2026-04-18T12:52:23Z</time></trkpt><trkpt lat="42.14473014174786" lon="11.88716108759558"><ele>435.0</ele><time>2026-04-18T12:52:24Z</time></trkpt><trkpt lat="42.14470380660068" lon="11.887067864281812"><ele>435.0</ele><time>2026-04-18T12:52:25Z</time></trkpt><trkpt lat="42.14465034583276" lon="11.886983003221768"><ele>435.0</ele><time>2026-04-18T12:52:26Z</time></trkpt><trkpt lat="42.144551015430956" lon="11.886921931092907"><ele>435.0</ele><time>2026-04-18T12:52:27Z</time></trkpt><trkpt lat="42.1444392223359" lon="11.886908950337864"><ele>435.0</ele><time>2026-04-18T12:52:28Z</time></trkpt><trkpt lat="42.14432745535068" lon="11.886898623745477"><ele>435.0</ele><time>2026-04-18T12:52:29Z</time></trkpt><trkpt lat="42.144226922074736" lon="11.886887242506997"><ele>435.0</ele><time>2026-04-18T12:52:30Z</time></trkpt><trkpt lat="42.144137053159405" lon="11.886826434014132"><ele>435.0</ele><time>2026-04-18T12:52:32Z</time></trkpt><trkpt lat="42.144048867761896" lon="11.88682319771993"><ele>435.0</ele><time>2026-04-18T12:52:34Z</time></trkpt><trkpt lat="42.144011478805744" lon="11.886734360550888"><ele>435.0</ele><time>2026-04-18T12:52:39Z</time></trkpt><trkpt lat="42.14395434600368" lon="11.886682173824992"><ele>435.0</ele><time>2026-04-18T12:52:41Z</time></trkpt><trkpt lat="42.14390582647298" lon="11.886571135699226"><ele>435.1666666666667</ele><time>2026-04-18T12:52:51Z</time></trkpt><trkpt lat="42.14389190113523" lon="11.886486906970587"><ele>435.33333333333337</ele><time>2026-04-18T12:52:52Z</time></trkpt><trkpt lat="42.143888259175235" lon="11.886385551497899"><ele>435.5</ele><time>2026-04-18T12:52:53.001Z</time></trkpt><trkpt lat="42.143927366606036" lon="11.88627798211419"><ele>435.6666666666667</ele><time>2026-04-18T12:52:54.001Z</time></trkpt><trkpt lat="42.14395120914163" lon="11.886188801902172"><ele>435.83333333333337</ele><time>2026-04-18T12:52:55.001Z</time></trkpt><trkpt lat="42.14398485403275" lon="11.886113151880085"><ele>436.0</ele><time>2026-04-18T12:52:56.001Z</time></trkpt><trkpt lat="42.14404827600687" lon="11.885975855465178"><ele>436.0</ele><time>2026-04-18T12:52:58.001Z</time></trkpt><trkpt lat="42.14410295332157" lon="11.885903309805428"><ele>436.0</ele><time>2026-04-18T12:52:59.001Z</time></trkpt><trkpt lat="42.14418605732138" lon="11.885812509633865"><ele>436.0</ele><time>2026-04-18T12:53:01.001Z</time></trkpt><trkpt lat="42.144043522407024" lon="11.885906773863049"><ele>436.0</ele><time>2026-04-18T12:53:13.001Z</time></trkpt><trkpt lat="42.14398845927107" lon="11.88601435253696"><ele>436.0</ele><time>2026-04-18T12:53:14.001Z</time></trkpt><trkpt lat="42.143920515874505" lon="11.886132874848863"><ele>436.0</ele><time>2026-04-18T12:53:15.001Z</time></trkpt><trkpt lat="42.143883805972465" lon="11.88626377997228"><ele>436.0</ele><time>2026-04-18T12:53:16.001Z</time></trkpt><trkpt lat="42.14386075770913" lon="11.88639272041098"><ele>436.0</ele><time>2026-04-18T12:53:17.001Z</time></trkpt><trkpt lat="42.14385206822012" lon="11.886518697214452"><ele>436.0</ele><time>2026-04-18T12:53:18.001Z</time></trkpt><trkpt lat="42.143864050038836" lon="11.8866338168476"><ele>436.0</ele><time>2026-04-18T12:53:19.001Z</time></trkpt><trkpt lat="42.14389623861094" lon="11.886715573822412"><ele>436.00000000000006</ele><time>2026-04-18T12:53:20.001Z</time></trkpt><trkpt lat="42.143944132298365" lon="11.88677747637343"><ele>436.0</ele><time>2026-04-18T12:53:21.001Z</time></trkpt><trkpt lat="42.143967936759545" lon="11.886857027718175"><ele>436.0</ele><time>2026-04-18T12:53:23.001Z</time></trkpt><trkpt lat="42.1439030864701" lon="11.88689233371353"><ele>436.0</ele><time>2026-04-18T12:53:26.001Z</time></trkpt><trkpt lat="42.14384530893466" lon="11.886799977227554"><ele>436.00000000000006</ele><time>2026-04-18T12:53:29.001Z</time></trkpt><trkpt lat="42.14379045964365" lon="11.886661936699909"><ele>436.0</ele><time>2026-04-18T12:53:31.001Z</time></trkpt><trkpt lat="42.14376605586244" lon="11.886582517940912"><ele>436.00000000000006</ele><time>2026-04-18T12:53:32.001Z</time></trkpt><trkpt lat="42.14373681732521" lon="11.886487176976313"><ele>436.0</ele><time>2026-04-18T12:53:33.001Z</time></trkpt><trkpt lat="42.14369260272568" lon="11.886395677671432"><ele>436.0</ele><time>2026-04-18T12:53:34.001Z</time></trkpt><trkpt lat="42.143638574289454" lon="11.886311787392538"><ele>436.0</ele><time>2026-04-18T12:53:35.001Z</time></trkpt><trkpt lat="42.14356733617661" lon="11.88623887487726"><ele>436.00000000000006</ele><time>2026-04-18T12:53:36.001Z</time></trkpt><trkpt lat="42.14350437129862" lon="11.886150651771086"><ele>436.0</ele><time>2026-04-18T12:53:37.001Z</time></trkpt><trkpt lat="42.1434434466715" lon="11.88606225426415"><ele>436.00000000000006</ele><time>2026-04-18T12:53:38.001Z</time></trkpt><trkpt lat="42.143399192602345" lon="11.8859637684452"><ele>436.0</ele><time>2026-04-18T12:53:39.001Z</time></trkpt><trkpt lat="42.14337461853665" lon="11.885873430297066"><ele>436.0</ele><time>2026-04-18T12:53:40.001Z</time></trkpt><trkpt lat="42.14332801497956" lon="11.885787840854409"><ele>436.0</ele><time>2026-04-18T12:53:42.001Z</time></trkpt><trkpt lat="42.14327791321623" lon="11.885842004068383"><ele>436.00000000000006</ele><time>2026-04-18T12:53:44.001Z</time></trkpt><trkpt lat="42.14326071136439" lon="11.885959222379283"><ele>436.0</ele><time>2026-04-18T12:53:55.001Z</time></trkpt><trkpt lat="42.14325286322971" lon="11.886129822324037"><ele>436.0</ele><time>2026-04-18T12:53:57.001Z</time></trkpt><trkpt lat="42.14326426133845" lon="11.8862305848011"><ele>436.0</ele><time>2026-04-18T12:53:58.001Z</time></trkpt><trkpt lat="42.14326432593223" lon="11.886400307238484"><ele>436.0</ele><time>2026-04-18T12:54:00.001Z</time></trkpt><trkpt lat="42.14326186890484" lon="11.886568699077987"><ele>436.0</ele><time>2026-04-18T12:54:02.001Z</time></trkpt><trkpt lat="42.143270658116755" lon="11.886654417711478"><ele>436.0</ele><time>2026-04-18T12:54:03.001Z</time></trkpt><trkpt lat="42.14327579043783" lon="11.886741535927705"><ele>438.6</ele><time>2026-04-18T12:54:04.001Z</time></trkpt><trkpt lat="42.14329674582356" lon="11.886846175721306"><ele>441.20000000000005</ele><time>2026-04-18T12:54:05.001Z</time></trkpt><trkpt lat="42.14330423243226" lon="11.886930853349948"><ele>443.79999999999995</ele><time>2026-04-18T12:54:06.001Z</time></trkpt><trkpt lat="42.14331735971337" lon="11.887021275856736"><ele>446.4</ele><time>2026-04-18T12:54:07.001Z</time></trkpt><trkpt lat="42.143352337503615" lon="11.887186551206275"><ele>449.0</ele><time>2026-04-18T12:54:09.002Z</time></trkpt><trkpt lat="42.14342666402656" lon="11.887332231657572"><ele>448.99999999999994</ele><time>2026-04-18T12:54:11.002Z</time></trkpt><trkpt lat="42.14345996369417" lon="11.887439596772408"><ele>449.0</ele><time>2026-04-18T12:54:12.002Z</time></trkpt><trkpt lat="42.14350139652671" lon="11.887538108601534"><ele>449.0</ele><time>2026-04-18T12:54:13.002Z</time></trkpt><trkpt lat="42.14354101471056" lon="11.887696478438452"><ele>449.0</ele><time>2026-04-18T12:54:15.002Z</time></trkpt><trkpt lat="42.14354727319597" lon="11.887799219800032"><ele>448.99999999999994</ele><time>2026-04-18T12:54:16.002Z</time></trkpt><trkpt lat="42.143549017220415" lon="11.88789189449763"><ele>449.0</ele><time>2026-04-18T12:54:17.002Z</time></trkpt><trkpt lat="42.14354884120955" lon="11.888002031982952"><ele>449.8333333333333</ele><time>2026-04-18T12:54:18.002Z</time></trkpt><trkpt lat="42.14356308405054" lon="11.888112007776575"><ele>450.66666666666663</ele><time>2026-04-18T12:54:19.002Z</time></trkpt><trkpt lat="42.14354297950116" lon="11.888228900280287"><ele>451.5</ele><time>2026-04-18T12:54:20Z</time></trkpt><trkpt lat="42.14352568914907" lon="11.888352542934905"><ele>452.33333333333337</ele><time>2026-04-18T12:54:21Z</time></trkpt><trkpt lat="42.14352058763619" lon="11.888480838615772"><ele>453.1666666666667</ele><time>2026-04-18T12:54:22Z</time></trkpt><trkpt lat="42.14351918633895" lon="11.888600783777045"><ele>454.0</ele><time>2026-04-18T12:54:23Z</time></trkpt><trkpt lat="42.14353231190418" lon="11.888701127754166"><ele>454.6666666666667</ele><time>2026-04-18T12:54:24Z</time></trkpt><trkpt lat="42.14354289824267" lon="11.888848852856801"><ele>455.33333333333337</ele><time>2026-04-18T12:54:26Z</time></trkpt><trkpt lat="42.143635285266136" lon="11.88892921361932"><ele>456.0</ele><time>2026-04-18T12:54:28Z</time></trkpt><trkpt lat="42.143701297438724" lon="11.888936153358173"><ele>456.66666666666663</ele><time>2026-04-18T12:54:29Z</time></trkpt><trkpt lat="42.143777693697814" lon="11.888946742380618"><ele>457.3333333333333</ele><time>2026-04-18T12:54:30Z</time></trkpt><trkpt lat="42.14384934982239" lon="11.888955435431415"><ele>458.0</ele><time>2026-04-18T12:54:31Z</time></trkpt><trkpt lat="42.14392433059403" lon="11.888995714980044"><ele>458.0</ele><time>2026-04-18T12:54:32Z</time></trkpt><trkpt lat="42.143987652494936" lon="11.889019912817611"><ele>457.99999999999994</ele><time>2026-04-18T12:54:33Z</time></trkpt><trkpt lat="42.144058153717246" lon="11.889046963531596"><ele>457.99999999999994</ele><time>2026-04-18T12:54:34Z</time></trkpt><trkpt lat="42.144196417356746" lon="11.889127821452549"><ele>458.0</ele><time>2026-04-18T12:54:36Z</time></trkpt><trkpt lat="42.144301554473145" lon="11.889169906630913"><ele>458.0</ele><time>2026-04-18T12:54:37Z</time></trkpt><trkpt lat="42.144382402237156" lon="11.88922201864158"><ele>456.8333333333333</ele><time>2026-04-18T12:54:38Z</time></trkpt><trkpt lat="42.14445969999132" lon="11.889254895590744"><ele>455.66666666666663</ele><time>2026-04-18T12:54:39Z</time></trkpt><trkpt lat="42.144529068491394" lon="11.889272723694676"><ele>454.5</ele><time>2026-04-18T12:54:40Z</time></trkpt><trkpt lat="42.1446016481139" lon="11.889266570843683"><ele>453.33333333333337</ele><time>2026-04-18T12:54:41Z</time></trkpt><trkpt lat="42.14467288559352" lon="11.889258078162545"><ele>452.1666666666667</ele><time>2026-04-18T12:54:42Z</time></trkpt><trkpt lat="42.1447363621459" lon="11.88926135311544"><ele>451.0</ele><time>2026-04-18T12:54:43Z</time></trkpt><trkpt lat="42.14480959590806" lon="11.889353458297785"><ele>451.20000000000005</ele><time>2026-04-18T12:54:45Z</time></trkpt><trkpt lat="42.14486778395814" lon="11.889512769834665"><ele>451.40000000000003</ele><time>2026-04-18T12:54:47Z</time></trkpt><trkpt lat="42.14491419168434" lon="11.889587982625093"><ele>451.6</ele><time>2026-04-18T12:54:48Z</time></trkpt><trkpt lat="42.14497040572164" lon="11.889656783840366"><ele>451.8</ele><time>2026-04-18T12:54:49Z</time></trkpt><trkpt lat="42.14498234379239" lon="11.889809221079206"><ele>452.0</ele><time>2026-04-18T12:54:51Z</time></trkpt><trkpt lat="42.14496722131127" lon="11.889895887162435"><ele>451.99999999999994</ele><time>2026-04-18T12:54:52Z</time></trkpt><trkpt lat="42.14494128628579" lon="11.889998442540408"><ele>452.0</ele><time>2026-04-18T12:54:53Z</time></trkpt><trkpt lat="42.144918393912924" lon="11.890112712832416"><ele>452.0</ele><time>2026-04-18T12:54:54Z</time></trkpt><trkpt lat="42.14489287129401" lon="11.89023370879197"><ele>452.0</ele><time>2026-04-18T12:54:55Z</time></trkpt><trkpt lat="42.14486760704069" lon="11.890345889640896"><ele>451.99999999999994</ele><time>2026-04-18T12:54:56Z</time></trkpt><trkpt lat="42.144841267412154" lon="11.890454033368666"><ele>452.0</ele><time>2026-04-18T12:54:57Z</time></trkpt><trkpt lat="42.14480362066252" lon="11.890555464326987"><ele>457.40000000000003</ele><time>2026-04-18T12:54:58Z</time></trkpt><trkpt lat="42.14477066772542" lon="11.890664261492363"><ele>462.80000000000007</ele><time>2026-04-18T12:54:59Z</time></trkpt><trkpt lat="42.14473405239517" lon="11.8907771729781"><ele>468.2</ele><time>2026-04-18T12:55:00Z</time></trkpt><trkpt lat="42.14469348845873" lon="11.890886662853926"><ele>473.6</ele><time>2026-04-18T12:55:01Z</time></trkpt><trkpt lat="42.144659457942126" lon="11.891001660768596"><ele>479.0</ele><time>2026-04-18T12:55:02Z</time></trkpt><trkpt lat="42.14462098766028" lon="11.89111259456086"><ele>479.8333333333333</ele><time>2026-04-18T12:55:03Z</time></trkpt><trkpt lat="42.144582495005366" lon="11.891228463917276"><ele>480.66666666666663</ele><time>2026-04-18T12:55:04Z</time></trkpt><trkpt lat="42.144533293310495" lon="11.891331050889807"><ele>481.5</ele><time>2026-04-18T12:55:05.001Z</time></trkpt><trkpt lat="42.1445203303426" lon="11.891441244091544"><ele>482.33333333333337</ele><time>2026-04-18T12:55:06.001Z</time></trkpt><trkpt lat="42.14451070297125" lon="11.891554494065009"><ele>483.1666666666667</ele><time>2026-04-18T12:55:07.001Z</time></trkpt><trkpt lat="42.14451351771523" lon="11.891681880113598"><ele>484.0</ele><time>2026-04-18T12:55:08.001Z</time></trkpt><trkpt lat="42.144491733296" lon="11.891795050896077"><ele>484.00000000000006</ele><time>2026-04-18T12:55:09.001Z</time></trkpt><trkpt lat="42.144479592724416" lon="11.8919015995541"><ele>484.0</ele><time>2026-04-18T12:55:10.001Z</time></trkpt><trkpt lat="42.14446629993858" lon="11.89200202740015"><ele>484.0</ele><time>2026-04-18T12:55:11.001Z</time></trkpt><trkpt lat="42.14445251391714" lon="11.89210611714988"><ele>484.0</ele><time>2026-04-18T12:55:12.001Z</time></trkpt><trkpt lat="42.14445900246582" lon="11.892203876407597"><ele>484.00000000000006</ele><time>2026-04-18T12:55:13.001Z</time></trkpt><trkpt lat="42.144449425179516" lon="11.892316429057082"><ele>484.0</ele><time>2026-04-18T12:55:14.001Z</time></trkpt><trkpt lat="42.14440979889025" lon="11.892434435401142"><ele>484.0</ele><time>2026-04-18T12:55:15.001Z</time></trkpt><trkpt lat="42.14437105675555" lon="11.892542946154459"><ele>484.0</ele><time>2026-04-18T12:55:16.001Z</time></trkpt><trkpt lat="42.14434055019513" lon="11.892665624552672"><ele>484.0</ele><time>2026-04-18T12:55:17.001Z</time></trkpt><trkpt lat="42.144332253658135" lon="11.892797311166738"><ele>484.0</ele><time>2026-04-18T12:55:18.001Z</time></trkpt><trkpt lat="42.14431325557787" lon="11.89291628386846"><ele>484.0</ele><time>2026-04-18T12:55:19.001Z</time></trkpt><trkpt lat="42.14428678753716" lon="11.893024506816346"><ele>483.00000000000006</ele><time>2026-04-18T12:55:20.001Z</time></trkpt><trkpt lat="42.14426678901563" lon="11.893132705859811"><ele>482.0</ele><time>2026-04-18T12:55:21.001Z</time></trkpt><trkpt lat="42.14424861026393" lon="11.893284342627032"><ele>481.0</ele><time>2026-04-18T12:55:23.001Z</time></trkpt><trkpt lat="42.14421304538917" lon="11.893358590562382"><ele>480.0</ele><time>2026-04-18T12:55:24.001Z</time></trkpt><trkpt lat="42.144191771620406" lon="11.893442362408823"><ele>479.00000000000006</ele><time>2026-04-18T12:55:25.001Z</time></trkpt><trkpt lat="42.14418581668746" lon="11.893530763683673"><ele>478.0</ele><time>2026-04-18T12:55:26.001Z</time></trkpt><trkpt lat="42.14415502771141" lon="11.893637877881902"><ele>479.50000000000006</ele><time>2026-04-18T12:55:27.001Z</time></trkpt><trkpt lat="42.144099242954454" lon="11.893759376762223"><ele>481.0</ele><time>2026-04-18T12:55:28.001Z</time></trkpt><trkpt lat="42.14406179711956" lon="11.893866455828226"><ele>482.5</ele><time>2026-04-18T12:55:29.001Z</time></trkpt><trkpt lat="42.144031306463795" lon="11.893954667039294"><ele>484.0</ele><time>2026-04-18T12:55:30.001Z</time></trkpt><trkpt lat="42.14400255796761" lon="11.894037837996276"><ele>485.50000000000006</ele><time>2026-04-18T12:55:31.001Z</time></trkpt><trkpt lat="42.143957346925454" lon="11.894165127635077"><ele>487.0</ele><time>2026-04-18T12:55:33.001Z</time></trkpt><trkpt lat="42.143932347177476" lon="11.89428653950446"><ele>487.0</ele><time>2026-04-18T12:55:35.001Z</time></trkpt><trkpt lat="42.14387905382283" lon="11.894374475551864"><ele>487.00000000000006</ele><time>2026-04-18T12:55:37.001Z</time></trkpt><trkpt lat="42.14382261762963" lon="11.894499303659753"><ele>487.00000000000006</ele><time>2026-04-18T12:56:30Z</time></trkpt><trkpt lat="42.1437995003473" lon="11.894617745641524"><ele>487.0</ele><time>2026-04-18T12:56:32Z</time></trkpt><trkpt lat="42.14378172510052" lon="11.894757721244812"><ele>487.0</ele><time>2026-04-18T12:56:34Z</time></trkpt><trkpt lat="42.143757384010804" lon="11.894886587011683"><ele>487.0</ele><time>2026-04-18T12:56:36Z</time></trkpt><trkpt lat="42.14371788636433" lon="11.895015375588194"><ele>487.00000000000006</ele><time>2026-04-18T12:56:38Z</time></trkpt><trkpt lat="42.14366185139196" lon="11.895095506265246"><ele>487.00000000000006</ele><time>2026-04-18T12:56:40Z</time></trkpt><trkpt lat="42.143594752367804" lon="11.895186919313918"><ele>487.0</ele><time>2026-04-18T12:56:42Z</time></trkpt><trkpt lat="42.143585803511165" lon="11.895289828439942"><ele>487.0</ele><time>2026-04-18T12:56:43Z</time></trkpt><trkpt lat="42.14349612389124" lon="11.895402213280097"><ele>486.7142857142857</ele><time>2026-04-18T12:56:45Z</time></trkpt><trkpt lat="42.14347471483015" lon="11.895538234894044"><ele>486.42857142857144</ele><time>2026-04-18T12:56:47Z</time></trkpt><trkpt lat="42.14349737581356" lon="11.895620777974313"><ele>486.14285714285717</ele><time>2026-04-18T12:56:51Z</time></trkpt><trkpt lat="42.14351902617105" lon="11.895720896416687"><ele>485.8571428571429</ele><time>2026-04-18T12:56:56Z</time></trkpt><trkpt lat="42.14352996046668" lon="11.895805190334897"><ele>485.57142857142856</ele><time>2026-04-18T12:57:07.001Z</time></trkpt><trkpt lat="42.14354043684614" lon="11.895893077838588"><ele>485.28571428571433</ele><time>2026-04-18T13:00:00.001Z</time></trkpt><trkpt lat="42.143520919558696" lon="11.895981464321887"><ele>485.00000000000006</ele><time>2026-04-18T13:00:03.001Z</time></trkpt><trkpt lat="42.143594006908046" lon="11.89607996659824"><ele>485.8333333333333</ele><time>2026-04-18T13:00:11.001Z</time></trkpt><trkpt lat="42.14367321892842" lon="11.896121724215043"><ele>486.66666666666663</ele><time>2026-04-18T13:00:13.001Z</time></trkpt><trkpt lat="42.14374690322689" lon="11.896110740862119"><ele>487.5</ele><time>2026-04-18T13:00:15.001Z</time></trkpt><trkpt lat="42.14384551957974" lon="11.896136627266994"><ele>488.33333333333337</ele><time>2026-04-18T13:00:17.001Z</time></trkpt><trkpt lat="42.14391696568165" lon="11.896152328317983"><ele>489.1666666666667</ele><time>2026-04-18T13:00:18.001Z</time></trkpt><trkpt lat="42.14399273593706" lon="11.896117430388927"><ele>490.0</ele><time>2026-04-18T13:00:20.001Z</time></trkpt><trkpt lat="42.144066745129265" lon="11.89616833178208"><ele>490.0</ele><time>2026-04-18T13:00:22.001Z</time></trkpt><trkpt lat="42.144128907106825" lon="11.89619760579788"><ele>490.0</ele><time>2026-04-18T13:00:23.001Z</time></trkpt><trkpt lat="42.14418578253936" lon="11.896234024103284"><ele>490.0</ele><time>2026-04-18T13:00:24.001Z</time></trkpt><trkpt lat="42.14423748188265" lon="11.896295618551441"><ele>490.0</ele><time>2026-04-18T13:00:25.001Z</time></trkpt><trkpt lat="42.14430632527322" lon="11.896350091835481"><ele>490.0</ele><time>2026-04-18T13:00:26.001Z</time></trkpt><trkpt lat="42.14436354305048" lon="11.896404899583828"><ele>490.0</ele><time>2026-04-18T13:00:27.001Z</time></trkpt><trkpt lat="42.14442697524439" lon="11.896443669531754"><ele>490.0</ele><time>2026-04-18T13:00:28.001Z</time></trkpt><trkpt lat="42.144492684333315" lon="11.89649195382314"><ele>490.00000000000006</ele><time>2026-04-18T13:00:29.001Z</time></trkpt><trkpt lat="42.144577578188986" lon="11.89659096466631"><ele>490.0</ele><time>2026-04-18T13:00:31.001Z</time></trkpt><trkpt lat="42.14463025826056" lon="11.896682891431121"><ele>490.0</ele><time>2026-04-18T13:00:32.001Z</time></trkpt><trkpt lat="42.14467285304301" lon="11.896764060458553"><ele>490.0</ele><time>2026-04-18T13:00:33.001Z</time></trkpt><trkpt lat="42.14470399140401" lon="11.896904204702803"><ele>490.00000000000006</ele><time>2026-04-18T13:00:35.001Z</time></trkpt><trkpt lat="42.14469396528192" lon="11.89698904049825"><ele>490.0</ele><time>2026-04-18T13:00:36.001Z</time></trkpt><trkpt lat="42.14466612392926" lon="11.897070428011943"><ele>490.8</ele><time>2026-04-18T13:00:37.001Z</time></trkpt><trkpt lat="42.144572938071974" lon="11.897147279936275"><ele>491.6</ele><time>2026-04-18T13:00:39.001Z</time></trkpt><trkpt lat="42.14449542471516" lon="11.897178852184247"><ele>492.4</ele><time>2026-04-18T13:00:41.001Z</time></trkpt><trkpt lat="42.14440921458432" lon="11.897254507813622"><ele>493.2</ele><time>2026-04-18T13:00:43.001Z</time></trkpt><trkpt lat="42.14432996913533" lon="11.897357180400531"><ele>494.0</ele><time>2026-04-18T13:00:45.001Z</time></trkpt><trkpt lat="42.1442694282372" lon="11.89748226034178"><ele>494.6</ele><time>2026-04-18T13:00:47.001Z</time></trkpt><trkpt lat="42.14426966671834" lon="11.897631539182745"><ele>495.2</ele><time>2026-04-18T13:00:49.001Z</time></trkpt><trkpt lat="42.14431831629984" lon="11.89780305842702"><ele>495.80000000000007</ele><time>2026-04-18T13:00:51.001Z</time></trkpt><trkpt lat="42.14434320149036" lon="11.897910331057577"><ele>496.40000000000003</ele><time>2026-04-18T13:00:52.001Z</time></trkpt><trkpt lat="42.144353008975294" lon="11.897995638623462"><ele>497.0</ele><time>2026-04-18T13:00:53.001Z</time></trkpt><trkpt lat="42.14438665862407" lon="11.89813871703832"><ele>496.99999999999994</ele><time>2026-04-18T13:00:55.001Z</time></trkpt><trkpt lat="42.14446048922257" lon="11.898220442824359"><ele>497.0</ele><time>2026-04-18T13:00:57.001Z</time></trkpt><trkpt lat="42.144527565209486" lon="11.898261871920381"><ele>497.0</ele><time>2026-04-18T13:00:59.001Z</time></trkpt><trkpt lat="42.144607024655656" lon="11.898305899780814"><ele>497.0</ele><time>2026-04-18T13:01:07.001Z</time></trkpt><trkpt lat="42.14467291613222" lon="11.898270009679756"><ele>496.99999999999994</ele><time>2026-04-18T13:01:09.001Z</time></trkpt><trkpt lat="42.144738914123046" lon="11.898239097018555"><ele>497.0</ele><time>2026-04-18T13:02:02.001Z</time></trkpt><trkpt lat="42.14483815648921" lon="11.898172171787945"><ele>497.3333333333333</ele><time>2026-04-18T13:02:04.001Z</time></trkpt><trkpt lat="42.14490947221439" lon="11.898131980277643"><ele>497.66666666666663</ele><time>2026-04-18T13:02:05.001Z</time></trkpt><trkpt lat="42.14499742953812" lon="11.898114101538473"><ele>498.0</ele><time>2026-04-18T13:02:06.001Z</time></trkpt><trkpt lat="42.14508848241855" lon="11.898081433317152"><ele>498.33333333333337</ele><time>2026-04-18T13:02:07.001Z</time></trkpt><trkpt lat="42.14517676621331" lon="11.898090524217729"><ele>498.6666666666667</ele><time>2026-04-18T13:02:08.001Z</time></trkpt><trkpt lat="42.145259317363944" lon="11.89811974930974"><ele>499.0</ele><time>2026-04-18T13:02:09.001Z</time></trkpt><trkpt lat="42.1453252994515" lon="11.898152764731062"><ele>499.00000000000006</ele><time>2026-04-18T13:02:10.001Z</time></trkpt><trkpt lat="42.14539477552174" lon="11.898191586815331"><ele>499.0</ele><time>2026-04-18T13:02:11.001Z</time></trkpt><trkpt lat="42.145455069732414" lon="11.898230577893305"><ele>499.0</ele><time>2026-04-18T13:02:12.001Z</time></trkpt><trkpt lat="42.14551168131261" lon="11.898273765419587"><ele>499.0</ele><time>2026-04-18T13:02:13.001Z</time></trkpt><trkpt lat="42.14559298918478" lon="11.898338748387122"><ele>499.00000000000006</ele><time>2026-04-18T13:02:15.001Z</time></trkpt><trkpt lat="42.14567128919121" lon="11.898411420872662"><ele>499.0</ele><time>2026-04-18T13:02:22.001Z</time></trkpt><trkpt lat="42.1457509699224" lon="11.898447988107081"><ele>498.1666666666667</ele><time>2026-04-18T13:02:24.001Z</time></trkpt><trkpt lat="42.14584277144296" lon="11.898481651692126"><ele>497.33333333333337</ele><time>2026-04-18T13:02:26.001Z</time></trkpt><trkpt lat="42.14595658179854" lon="11.898523890388336"><ele>496.5</ele><time>2026-04-18T13:02:28.001Z</time></trkpt><trkpt lat="42.14601064677499" lon="11.898575897629945"><ele>495.66666666666663</ele><time>2026-04-18T13:02:29.001Z</time></trkpt><trkpt lat="42.146075148016834" lon="11.898599352013386"><ele>494.8333333333333</ele><time>2026-04-18T13:02:30.001Z</time></trkpt><trkpt lat="42.14613519594799" lon="11.898649756893997"><ele>494.0</ele><time>2026-04-18T13:02:31.001Z</time></trkpt><trkpt lat="42.146194632593286" lon="11.898705252252915"><ele>494.0</ele><time>2026-04-18T13:02:32.001Z</time></trkpt><trkpt lat="42.14625299040147" lon="11.898765230449214"><ele>494.0</ele><time>2026-04-18T13:02:33.001Z</time></trkpt><trkpt lat="42.14631459436991" lon="11.898822485874481"><ele>494.0</ele><time>2026-04-18T13:02:34.001Z</time></trkpt><trkpt lat="42.14637333990175" lon="11.898876328632303"><ele>494.0</ele><time>2026-04-18T13:02:35.001Z</time></trkpt><trkpt lat="42.14643270864443" lon="11.898932427642418"><ele>494.0</ele><time>2026-04-18T13:02:36.001Z</time></trkpt><trkpt lat="42.146490808921435" lon="11.8989858901696"><ele>494.0</ele><time>2026-04-18T13:02:37.001Z</time></trkpt><trkpt lat="42.14655505357646" lon="11.899034412795531"><ele>494.0</ele><time>2026-04-18T13:02:38.001Z</time></trkpt><trkpt lat="42.146622412571844" lon="11.899096330359416"><ele>494.3333333333333</ele><time>2026-04-18T13:02:39.001Z</time></trkpt><trkpt lat="42.14668599200081" lon="11.899160432606267"><ele>494.66666666666663</ele><time>2026-04-18T13:02:40.001Z</time></trkpt><trkpt lat="42.14674970819809" lon="11.899219991609806"><ele>495.0</ele><time>2026-04-18T13:02:41.001Z</time></trkpt><trkpt lat="42.1468135886014" lon="11.899282511537718"><ele>495.33333333333337</ele><time>2026-04-18T13:02:42.001Z</time></trkpt><trkpt lat="42.14688953059677" lon="11.899331611272316"><ele>495.6666666666667</ele><time>2026-04-18T13:02:43.001Z</time></trkpt><trkpt lat="42.14696552577764" lon="11.899384985373667"><ele>496.0</ele><time>2026-04-18T13:02:44Z</time></trkpt><trkpt lat="42.147050916851036" lon="11.899361131027396"><ele>494.50000000000006</ele><time>2026-04-18T13:02:45Z</time></trkpt><trkpt lat="42.147128538057764" lon="11.899343093829616"><ele>493.0</ele><time>2026-04-18T13:02:46Z</time></trkpt><trkpt lat="42.147219483704866" lon="11.899312450199657"><ele>491.5</ele><time>2026-04-18T13:02:47Z</time></trkpt><trkpt lat="42.14730872763859" lon="11.8992762180055"><ele>490.0</ele><time>2026-04-18T13:02:48Z</time></trkpt><trkpt lat="42.14739971927499" lon="11.899272502571456"><ele>488.50000000000006</ele><time>2026-04-18T13:02:49Z</time></trkpt><trkpt lat="42.14748915435678" lon="11.899285873057046"><ele>487.0</ele><time>2026-04-18T13:02:50Z</time></trkpt><trkpt lat="42.14756559161076" lon="11.89932329550428"><ele>487.0</ele><time>2026-04-18T13:02:51Z</time></trkpt><trkpt lat="42.14762734239802" lon="11.8993695276938"><ele>487.00000000000006</ele><time>2026-04-18T13:02:52Z</time></trkpt><trkpt lat="42.147674803982014" lon="11.899464135687957"><ele>487.00000000000006</ele><time>2026-04-18T13:02:54Z</time></trkpt><trkpt lat="42.147574971677955" lon="11.899685809681623"><ele>487.0</ele><time>2026-04-18T13:02:59Z</time></trkpt><trkpt lat="42.1475373750891" lon="11.899759078214522"><ele>487.0</ele><time>2026-04-18T13:03:00Z</time></trkpt><trkpt lat="42.14749337268996" lon="11.899905808216216"><ele>487.0</ele><time>2026-04-18T13:03:02Z</time></trkpt><trkpt lat="42.147486782370116" lon="11.90000340180173"><ele>487.0</ele><time>2026-04-18T13:03:03Z</time></trkpt><trkpt lat="42.14750799090672" lon="11.900103797967786"><ele>487.0</ele><time>2026-04-18T13:03:04Z</time></trkpt><trkpt lat="42.147540602989274" lon="11.900190361964214"><ele>487.0</ele><time>2026-04-18T13:03:05Z</time></trkpt><trkpt lat="42.14758274347217" lon="11.900267808856594"><ele>487.0</ele><time>2026-04-18T13:03:06Z</time></trkpt><trkpt lat="42.14765732447075" lon="11.90029381750748"><ele>487.0</ele><time>2026-04-18T13:03:07Z</time></trkpt><trkpt lat="42.14772619117077" lon="11.900294552892891"><ele>487.0</ele><time>2026-04-18T13:03:08Z</time></trkpt><trkpt lat="42.14778572993393" lon="11.900329316879997"><ele>485.6666666666667</ele><time>2026-04-18T13:03:09Z</time></trkpt><trkpt lat="42.14784862293442" lon="11.9003761782406"><ele>484.33333333333337</ele><time>2026-04-18T13:03:10Z</time></trkpt><trkpt lat="42.147865047275424" lon="11.900518913190707"><ele>483.0</ele><time>2026-04-18T13:03:12Z</time></trkpt><trkpt lat="42.147850056763765" lon="11.900610669267994"><ele>481.66666666666663</ele><time>2026-04-18T13:03:13Z</time></trkpt><trkpt lat="42.14784727292028" lon="11.90071584443896"><ele>480.3333333333333</ele><time>2026-04-18T13:03:14Z</time></trkpt><trkpt lat="42.14784022410889" lon="11.90081287167888"><ele>479.0</ele><time>2026-04-18T13:03:15Z</time></trkpt><trkpt lat="42.147849288968146" lon="11.900907257256483"><ele>479.71428571428567</ele><time>2026-04-18T13:03:16Z</time></trkpt><trkpt lat="42.14788575834161" lon="11.901000701126"><ele>480.42857142857144</ele><time>2026-04-18T13:03:17Z</time></trkpt><trkpt lat="42.14793831101015" lon="11.901084321613846"><ele>481.1428571428571</ele><time>2026-04-18T13:03:18Z</time></trkpt><trkpt lat="42.14797283422374" lon="11.90116576263144"><ele>481.85714285714283</ele><time>2026-04-18T13:03:19Z</time></trkpt><trkpt lat="42.147972990172455" lon="11.901251571021383"><ele>482.57142857142856</ele><time>2026-04-18T13:03:20Z</time></trkpt><trkpt lat="42.14792682854844" lon="11.901312549047699"><ele>483.2857142857143</ele><time>2026-04-18T13:03:21Z</time></trkpt><trkpt lat="42.14786796970879" lon="11.901349652785683"><ele>484.0</ele><time>2026-04-18T13:03:22Z</time></trkpt><trkpt lat="42.14780202086468" lon="11.901408590697221"><ele>484.0</ele><time>2026-04-18T13:03:23Z</time></trkpt><trkpt lat="42.14770431331385" lon="11.901452090547114"><ele>484.0</ele><time>2026-04-18T13:03:24Z</time></trkpt><trkpt lat="42.14762779006508" lon="11.901511491528316"><ele>484.0</ele><time>2026-04-18T13:03:25Z</time></trkpt><trkpt lat="42.14755433023802" lon="11.90157039205368"><ele>484.0</ele><time>2026-04-18T13:03:26Z</time></trkpt><trkpt lat="42.14747273128195" lon="11.901647463157937"><ele>484.0</ele><time>2026-04-18T13:03:27Z</time></trkpt><trkpt lat="42.14739354364221" lon="11.901715019813524"><ele>481.79999999999995</ele><time>2026-04-18T13:03:28Z</time></trkpt><trkpt lat="42.147320150096995" lon="11.901785207189077"><ele>479.59999999999997</ele><time>2026-04-18T13:03:29Z</time></trkpt><trkpt lat="42.14726526051688" lon="11.90185090247307"><ele>477.4</ele><time>2026-04-18T13:03:30Z</time></trkpt><trkpt lat="42.14718919631283" lon="11.901923027090646"><ele>475.2</ele><time>2026-04-18T13:03:31Z</time></trkpt><trkpt lat="42.1470997534295" lon="11.902009096050202"><ele>473.0</ele><time>2026-04-18T13:03:32Z</time></trkpt><trkpt lat="42.14701429614691" lon="11.902111863460618"><ele>472.99999999999994</ele><time>2026-04-18T13:03:33Z</time></trkpt><trkpt lat="42.14694751489927" lon="11.902193430406479"><ele>473.0</ele><time>2026-04-18T13:03:34Z</time></trkpt><trkpt lat="42.14688437691886" lon="11.902266387840383"><ele>473.0</ele><time>2026-04-18T13:03:35Z</time></trkpt><trkpt lat="42.14683477393185" lon="11.902358212847805"><ele>473.0</ele><time>2026-04-18T13:03:36Z</time></trkpt><trkpt lat="42.1467827443816" lon="11.902459239385232"><ele>472.99999999999994</ele><time>2026-04-18T13:03:37Z</time></trkpt><trkpt lat="42.14674142023324" lon="11.902567694961856"><ele>473.0</ele><time>2026-04-18T13:03:38Z</time></trkpt><trkpt lat="42.14671783272344" lon="11.90267018263482"><ele>472.66666666666663</ele><time>2026-04-18T13:03:39Z</time></trkpt><trkpt lat="42.146712303473976" lon="11.902757760281606"><ele>472.3333333333333</ele><time>2026-04-18T13:03:40Z</time></trkpt><trkpt lat="42.14674507196908" lon="11.902840295959159"><ele>472.0</ele><time>2026-04-18T13:03:41Z</time></trkpt><trkpt lat="42.14675014515342" lon="11.90294443010267"><ele>471.66666666666663</ele><time>2026-04-18T13:03:42Z</time></trkpt><trkpt lat="42.14677092701825" lon="11.903079156108799"><ele>471.3333333333333</ele><time>2026-04-18T13:03:43Z</time></trkpt><trkpt lat="42.14679665332782" lon="11.903196822297039"><ele>471.0</ele><time>2026-04-18T13:03:44Z</time></trkpt><trkpt lat="42.146829501702975" lon="11.903296932300085"><ele>471.0</ele><time>2026-04-18T13:03:45Z</time></trkpt><trkpt lat="42.14689434586864" lon="11.903379648646869"><ele>471.0</ele><time>2026-04-18T13:03:46Z</time></trkpt><trkpt lat="42.14697886036829" lon="11.90340974048335"><ele>471.0</ele><time>2026-04-18T13:03:47Z</time></trkpt><trkpt lat="42.14704792056794" lon="11.90346252050928"><ele>471.0</ele><time>2026-04-18T13:03:48Z</time></trkpt><trkpt lat="42.14710628006849" lon="11.903507929546876"><ele>471.0</ele><time>2026-04-18T13:03:49Z</time></trkpt><trkpt lat="42.14714849618219" lon="11.903571276293281"><ele>471.0</ele><time>2026-04-18T13:03:50Z</time></trkpt><trkpt lat="42.1471239923788" lon="11.903687084670413"><ele>471.4</ele><time>2026-04-18T13:03:52Z</time></trkpt><trkpt lat="42.146973544645114" lon="11.903730528525504"><ele>471.8</ele><time>2026-04-18T13:03:54Z</time></trkpt><trkpt lat="42.1469062444957" lon="11.903746041007372"><ele>472.19999999999993</ele><time>2026-04-18T13:03:55Z</time></trkpt><trkpt lat="42.14679204481398" lon="11.903773720485722"><ele>472.59999999999997</ele><time>2026-04-18T13:03:57Z</time></trkpt><trkpt lat="42.14674395950118" lon="11.90383584086992"><ele>473.0</ele><time>2026-04-18T13:03:58Z</time></trkpt><trkpt lat="42.146742877714566" lon="11.90393685405135"><ele>472.99999999999994</ele><time>2026-04-18T13:03:59Z</time></trkpt><trkpt lat="42.14671214791066" lon="11.904017024222156"><ele>473.0</ele><time>2026-04-18T13:04:00Z</time></trkpt><trkpt lat="42.146713858297126" lon="11.904119403405963"><ele>473.0</ele><time>2026-04-18T13:04:01Z</time></trkpt><trkpt lat="42.14670309368044" lon="11.904224186025354"><ele>473.0</ele><time>2026-04-18T13:04:02Z</time></trkpt><trkpt lat="42.14668413117161" lon="11.904306626328975"><ele>472.99999999999994</ele><time>2026-04-18T13:04:03Z</time></trkpt><trkpt lat="42.14661580639827" lon="11.90433517982164"><ele>473.0</ele><time>2026-04-18T13:04:04Z</time></trkpt><trkpt lat="42.14651287820567" lon="11.904382824977223"><ele>471.8571428571429</ele><time>2026-04-18T13:04:06Z</time></trkpt><trkpt lat="42.146446396787105" lon="11.904390766116146"><ele>470.71428571428567</ele><time>2026-04-18T13:04:07Z</time></trkpt><trkpt lat="42.146379556727304" lon="11.904397809581992"><ele>469.57142857142856</ele><time>2026-04-18T13:04:08Z</time></trkpt><trkpt lat="42.1463088049326" lon="11.904405641687884"><ele>468.42857142857144</ele><time>2026-04-18T13:04:09Z</time></trkpt><trkpt lat="42.146237123041566" lon="11.904428856303436"><ele>467.28571428571433</ele><time>2026-04-18T13:04:10Z</time></trkpt><trkpt lat="42.14617521810102" lon="11.904454580682032"><ele>466.1428571428571</ele><time>2026-04-18T13:04:11Z</time></trkpt><trkpt lat="42.14610527036626" lon="11.904501270563495"><ele>465.0</ele><time>2026-04-18T13:04:12Z</time></trkpt><trkpt lat="42.14604304550524" lon="11.904563787750792"><ele>465.0</ele><time>2026-04-18T13:04:13Z</time></trkpt><trkpt lat="42.14596370661383" lon="11.904614629225179"><ele>465.0</ele><time>2026-04-18T13:04:14Z</time></trkpt><trkpt lat="42.14588898663614" lon="11.904683139422236"><ele>465.0</ele><time>2026-04-18T13:04:15Z</time></trkpt><trkpt lat="42.14580997850367" lon="11.90474556152056"><ele>465.0</ele><time>2026-04-18T13:04:16Z</time></trkpt><trkpt lat="42.14574207650072" lon="11.904805744049668"><ele>465.0</ele><time>2026-04-18T13:04:17Z</time></trkpt><trkpt lat="42.145701565230496" lon="11.904885932501601"><ele>465.0</ele><time>2026-04-18T13:04:18Z</time></trkpt><trkpt lat="42.145643860862116" lon="11.904949716651538"><ele>463.3333333333333</ele><time>2026-04-18T13:04:19Z</time></trkpt><trkpt lat="42.14560290308126" lon="11.905043401179407"><ele>461.66666666666663</ele><time>2026-04-18T13:04:20Z</time></trkpt><trkpt lat="42.14556464325003" lon="11.905143797168646"><ele>460.0</ele><time>2026-04-18T13:04:21Z</time></trkpt><trkpt lat="42.14553956714879" lon="11.905248265509488"><ele>458.3333333333333</ele><time>2026-04-18T13:04:22Z</time></trkpt><trkpt lat="42.14552256008126" lon="11.905349027338358"><ele>456.66666666666663</ele><time>2026-04-18T13:04:23Z</time></trkpt><trkpt lat="42.145498048737785" lon="11.90544532253694"><ele>455.0</ele><time>2026-04-18T13:04:24Z</time></trkpt><trkpt lat="42.145480863599275" lon="11.905552574433962"><ele>454.99999999999994</ele><time>2026-04-18T13:04:25Z</time></trkpt><trkpt lat="42.14545713347182" lon="11.905651355055964"><ele>455.0</ele><time>2026-04-18T13:04:26Z</time></trkpt><trkpt lat="42.14543235636975" lon="11.905740968748606"><ele>455.0</ele><time>2026-04-18T13:04:27Z</time></trkpt><trkpt lat="42.145384496205565" lon="11.905817580291373"><ele>455.0</ele><time>2026-04-18T13:04:28Z</time></trkpt><trkpt lat="42.145350288064115" lon="11.905891280091264"><ele>454.99999999999994</ele><time>2026-04-18T13:04:29Z</time></trkpt><trkpt lat="42.14528212885036" lon="11.906005236092112"><ele>455.0</ele><time>2026-04-18T13:04:31Z</time></trkpt><trkpt lat="42.14519466145844" lon="11.906068350664983"><ele>456.4</ele><time>2026-04-18T13:04:33Z</time></trkpt><trkpt lat="42.145088202804665" lon="11.906083578630565"><ele>457.8</ele><time>2026-04-18T13:04:35.001Z</time></trkpt><trkpt lat="42.14503062931198" lon="11.906121669073958"><ele>459.20000000000005</ele><time>2026-04-18T13:04:36.001Z</time></trkpt><trkpt lat="42.144919125786615" lon="11.906124657391285"><ele>460.6</ele><time>2026-04-18T13:04:38.001Z</time></trkpt><trkpt lat="42.14480703042966" lon="11.906170309042116"><ele>462.0</ele><time>2026-04-18T13:04:40.001Z</time></trkpt><trkpt lat="42.144758088418456" lon="11.906231817003455"><ele>457.20000000000005</ele><time>2026-04-18T13:04:41.001Z</time></trkpt><trkpt lat="42.14470575340238" lon="11.906296419850838"><ele>452.40000000000003</ele><time>2026-04-18T13:04:42.001Z</time></trkpt><trkpt lat="42.144607210784926" lon="11.906381301341549"><ele>447.59999999999997</ele><time>2026-04-18T13:04:44.001Z</time></trkpt><trkpt lat="42.144559405724685" lon="11.906441642714583"><ele>442.79999999999995</ele><time>2026-04-18T13:04:45.001Z</time></trkpt><trkpt lat="42.14448442655134" lon="11.90656346843223"><ele>438.0</ele><time>2026-04-18T13:04:47.001Z</time></trkpt><trkpt lat="42.144450457820966" lon="11.906707201958385"><ele>438.3333333333333</ele><time>2026-04-18T13:04:49.001Z</time></trkpt><trkpt lat="42.144410911085295" lon="11.906864876929149"><ele>438.66666666666663</ele><time>2026-04-18T13:04:50.998Z</time></trkpt><trkpt lat="42.144388920633034" lon="11.906955183683692"><ele>439.0</ele><time>2026-04-18T13:04:51.998Z</time></trkpt><trkpt lat="42.14437881251033" lon="11.907046086941342"><ele>439.3333333333333</ele><time>2026-04-18T13:04:52.998Z</time></trkpt><trkpt lat="42.14436612363448" lon="11.907140629689259"><ele>439.66666666666663</ele><time>2026-04-18T13:04:53.998Z</time></trkpt><trkpt lat="42.14433746144439" lon="11.90723200176975"><ele>440.0</ele><time>2026-04-18T13:04:54.998Z</time></trkpt><trkpt lat="42.14432657949866" lon="11.90732091579235"><ele>439.99999999999994</ele><time>2026-04-18T13:04:55.998Z</time></trkpt><trkpt lat="42.144294723964066" lon="11.907478271998768"><ele>440.0</ele><time>2026-04-18T13:04:57.999Z</time></trkpt><trkpt lat="42.14428549346157" lon="11.90756870795058"><ele>440.0</ele><time>2026-04-18T13:04:58.999Z</time></trkpt><trkpt lat="42.144280087633874" lon="11.907656094003881"><ele>440.0</ele><time>2026-04-18T13:04:59.999Z</time></trkpt><trkpt lat="42.14428653304146" lon="11.907748603325658"><ele>439.99999999999994</ele><time>2026-04-18T13:05:00.999Z</time></trkpt><trkpt lat="42.14429534926205" lon="11.90784262873277"><ele>440.0</ele><time>2026-04-18T13:05:01.999Z</time></trkpt><trkpt lat="42.14430221949249" lon="11.90793613564016"><ele>438.8333333333333</ele><time>2026-04-18T13:05:02.999Z</time></trkpt><trkpt lat="42.14431820304047" lon="11.908023526156263"><ele>437.66666666666663</ele><time>2026-04-18T13:05:03.999Z</time></trkpt><trkpt lat="42.144316127021334" lon="11.90813441981036"><ele>436.5</ele><time>2026-04-18T13:05:04.999Z</time></trkpt><trkpt lat="42.14430925444973" lon="11.90823338400305"><ele>435.33333333333337</ele><time>2026-04-18T13:05:05.999Z</time></trkpt><trkpt lat="42.1443658925321" lon="11.908324914135585"><ele>434.1666666666667</ele><time>2026-04-18T13:05:06.999Z</time></trkpt><trkpt lat="42.14437057173653" lon="11.908417509321636"><ele>433.0</ele><time>2026-04-18T13:05:07.999Z</time></trkpt><trkpt lat="42.14440206174111" lon="11.908575774935679"><ele>432.00000000000006</ele><time>2026-04-18T13:05:09.999Z</time></trkpt><trkpt lat="42.144428868344185" lon="11.908655103551988"><ele>431.0</ele><time>2026-04-18T13:05:10.999Z</time></trkpt><trkpt lat="42.14449805987644" lon="11.908763782124135"><ele>430.0</ele><time>2026-04-18T13:05:12.999Z</time></trkpt><trkpt lat="42.144620443789556" lon="11.908762336698567"><ele>429.0</ele><time>2026-04-18T13:05:14.999Z</time></trkpt><trkpt lat="42.14467508718645" lon="11.90871134670656"><ele>428.00000000000006</ele><time>2026-04-18T13:05:15.999Z</time></trkpt><trkpt lat="42.1447414246607" lon="11.908652076635917"><ele>427.0</ele><time>2026-04-18T13:05:16.999Z</time></trkpt><trkpt lat="42.14481597219654" lon="11.908574412241576"><ele>428.50000000000006</ele><time>2026-04-18T13:05:17.999Z</time></trkpt><trkpt lat="42.14488632344178" lon="11.908497554591914"><ele>430.0</ele><time>2026-04-18T13:05:18.999Z</time></trkpt><trkpt lat="42.14494663763309" lon="11.908410078797816"><ele>431.5</ele><time>2026-04-18T13:05:19.999Z</time></trkpt><trkpt lat="42.14500166790259" lon="11.908349321523955"><ele>433.0</ele><time>2026-04-18T13:05:20.999Z</time></trkpt><trkpt lat="42.14505298460557" lon="11.908295731956791"><ele>434.50000000000006</ele><time>2026-04-18T13:05:21.999Z</time></trkpt><trkpt lat="42.14512473535105" lon="11.908253032215056"><ele>436.0</ele><time>2026-04-18T13:05:23.999Z</time></trkpt><trkpt lat="42.145196330107154" lon="11.908359469099794"><ele>436.0</ele><time>2026-04-18T13:05:26Z</time></trkpt><trkpt lat="42.14517150992993" lon="11.908490120182517"><ele>436.0</ele><time>2026-04-18T13:05:28Z</time></trkpt><trkpt lat="42.14511819955722" lon="11.908616862881342"><ele>436.0</ele><time>2026-04-18T13:05:30Z</time></trkpt><trkpt lat="42.145089175332814" lon="11.908743536700415"><ele>436.0</ele><time>2026-04-18T13:05:32Z</time></trkpt><trkpt lat="42.145060271532245" lon="11.908859062838177"><ele>436.0</ele><time>2026-04-18T13:05:34Z</time></trkpt><trkpt lat="42.1450676174308" lon="11.908975472505292"><ele>436.00000000000006</ele><time>2026-04-18T13:05:36Z</time></trkpt><trkpt lat="42.145090182156494" lon="11.909068932198718"><ele>436.0</ele><time>2026-04-18T13:05:37Z</time></trkpt><trkpt lat="42.145021149076065" lon="11.90916796753652"><ele>436.0</ele><time>2026-04-18T13:05:39Z</time></trkpt><trkpt lat="42.144951408984326" lon="11.909207175666925"><ele>436.0</ele><time>2026-04-18T13:05:40Z</time></trkpt><trkpt lat="42.14492530280705" lon="11.909293077938445"><ele>436.00000000000006</ele><time>2026-04-18T13:05:41Z</time></trkpt><trkpt lat="42.14490840287623" lon="11.909390526255018"><ele>436.0</ele><time>2026-04-18T13:05:42Z</time></trkpt><trkpt lat="42.14493584062481" lon="11.909507907601943"><ele>435.1666666666667</ele><time>2026-04-18T13:05:43Z</time></trkpt><trkpt lat="42.144930036063336" lon="11.909638197611741"><ele>434.33333333333337</ele><time>2026-04-18T13:05:44Z</time></trkpt><trkpt lat="42.144902372498386" lon="11.909723140703685"><ele>433.5</ele><time>2026-04-18T13:05:45Z</time></trkpt><trkpt lat="42.14488289566294" lon="11.90980700327005"><ele>432.66666666666663</ele><time>2026-04-18T13:05:46Z</time></trkpt><trkpt lat="42.14487967336216" lon="11.909904833184868"><ele>431.8333333333333</ele><time>2026-04-18T13:05:47Z</time></trkpt><trkpt lat="42.14488094688745" lon="11.910069518521203"><ele>431.0</ele><time>2026-04-18T13:05:49Z</time></trkpt><trkpt lat="42.14480036766691" lon="11.910195070772202"><ele>428.66666666666663</ele><time>2026-04-18T13:05:51Z</time></trkpt><trkpt lat="42.14474574411427" lon="11.910243878467519"><ele>426.3333333333333</ele><time>2026-04-18T13:05:52Z</time></trkpt><trkpt lat="42.14470984721942" lon="11.910314967290319"><ele>424.0</ele><time>2026-04-18T13:05:53Z</time></trkpt><trkpt lat="42.14469986247642" lon="11.910476653595675"><ele>421.66666666666663</ele><time>2026-04-18T13:05:55Z</time></trkpt><trkpt lat="42.14471901819828" lon="11.910559916217998"><ele>419.3333333333333</ele><time>2026-04-18T13:05:56Z</time></trkpt><trkpt lat="42.14479064012939" lon="11.910698353897718"><ele>417.0</ele><time>2026-04-18T13:05:58Z</time></trkpt><trkpt lat="42.14484584325282" lon="11.91075689649914"><ele>416.0</ele><time>2026-04-18T13:05:59Z</time></trkpt><trkpt lat="42.144877968397324" lon="11.910915495613125"><ele>415.0</ele><time>2026-04-18T13:06:01Z</time></trkpt><trkpt lat="42.144860147106655" lon="11.911037675774319"><ele>414.0</ele><time>2026-04-18T13:06:02Z</time></trkpt><trkpt lat="42.14484714880233" lon="11.911146400489455"><ele>413.0</ele><time>2026-04-18T13:06:03Z</time></trkpt><trkpt lat="42.14482834504249" lon="11.911237754485963"><ele>412.0</ele><time>2026-04-18T13:06:04Z</time></trkpt><trkpt lat="42.14482702010899" lon="11.911393519921976"><ele>412.00000000000006</ele><time>2026-04-18T13:06:06Z</time></trkpt><trkpt lat="42.144851288448045" lon="11.911476607238995"><ele>412.0</ele><time>2026-04-18T13:06:07Z</time></trkpt><trkpt lat="42.14492427893219" lon="11.911588062103775"><ele>412.0</ele><time>2026-04-18T13:06:09Z</time></trkpt><trkpt lat="42.14499251173197" lon="11.911615898509398"><ele>412.0</ele><time>2026-04-18T13:06:10Z</time></trkpt><trkpt lat="42.14507772734738" lon="11.911660627053223"><ele>412.00000000000006</ele><time>2026-04-18T13:06:11Z</time></trkpt><trkpt lat="42.1451629692036" lon="11.91168882301482"><ele>412.0</ele><time>2026-04-18T13:06:12Z</time></trkpt><trkpt lat="42.145241656628606" lon="11.911710423575965"><ele>415.0</ele><time>2026-04-18T13:06:13Z</time></trkpt><trkpt lat="42.145312690763625" lon="11.911839686227"><ele>418.0</ele><time>2026-04-18T13:06:15Z</time></trkpt><trkpt lat="42.14530702428534" lon="11.911947783810703"><ele>421.00000000000006</ele><time>2026-04-18T13:06:17Z</time></trkpt><trkpt lat="42.145200188770744" lon="11.911989361373106"><ele>424.0</ele><time>2026-04-18T13:06:19Z</time></trkpt><trkpt lat="42.145109954431845" lon="11.911987522011376"><ele>427.0</ele><time>2026-04-18T13:06:20Z</time></trkpt><trkpt lat="42.14504213903893" lon="11.912000542572725"><ele>427.0</ele><time>2026-04-18T13:06:21Z</time></trkpt><trkpt lat="42.14497045318079" lon="11.912009049469157"><ele>427.00000000000006</ele><time>2026-04-18T13:06:22Z</time></trkpt><trkpt lat="42.144849706976366" lon="11.91201659756238"><ele>427.00000000000006</ele><time>2026-04-18T13:06:24Z</time></trkpt><trkpt lat="42.144779109738344" lon="11.912018488046588"><ele>427.0</ele><time>2026-04-18T13:06:25Z</time></trkpt><trkpt lat="42.144667979917486" lon="11.91203056637066"><ele>427.0</ele><time>2026-04-18T13:06:27Z</time></trkpt><trkpt lat="42.14456649843385" lon="11.912099282335731"><ele>422.8</ele><time>2026-04-18T13:06:29Z</time></trkpt><trkpt lat="42.14448257174625" lon="11.912205695411261"><ele>418.6</ele><time>2026-04-18T13:06:31Z</time></trkpt><trkpt lat="42.144433759326795" lon="11.912336634642413"><ele>414.40000000000003</ele><time>2026-04-18T13:06:33Z</time></trkpt><trkpt lat="42.14439968069627" lon="11.912507089993792"><ele>410.20000000000005</ele><time>2026-04-18T13:06:35Z</time></trkpt><trkpt lat="42.14438594724549" lon="11.912594160743197"><ele>406.0</ele><time>2026-04-18T13:06:36Z</time></trkpt><trkpt lat="42.14434756360179" lon="11.912746390478006"><ele>405.4</ele><time>2026-04-18T13:06:38Z</time></trkpt><trkpt lat="42.14429605510875" lon="11.91290870131109"><ele>404.8</ele><time>2026-04-18T13:06:40Z</time></trkpt><trkpt lat="42.144253565513445" lon="11.91306721331694"><ele>404.2</ele><time>2026-04-18T13:06:42Z</time></trkpt><trkpt lat="42.14423618003647" lon="11.91315972052211"><ele>403.59999999999997</ele><time>2026-04-18T13:06:43Z</time></trkpt><trkpt lat="42.14422055342393" lon="11.913257642216212"><ele>403.0</ele><time>2026-04-18T13:06:44Z</time></trkpt><trkpt lat="42.14418628421189" lon="11.913353031126219"><ele>402.50000000000006</ele><time>2026-04-18T13:06:45Z</time></trkpt><trkpt lat="42.14415546294315" lon="11.913453800474672"><ele>402.0</ele><time>2026-04-18T13:06:46Z</time></trkpt><trkpt lat="42.14412833969357" lon="11.913542824789834"><ele>401.5</ele><time>2026-04-18T13:06:47Z</time></trkpt><trkpt lat="42.14409991692529" lon="11.913636500744174"><ele>401.0</ele><time>2026-04-18T13:06:48Z</time></trkpt><trkpt lat="42.14407241578441" lon="11.913720550814732"><ele>400.50000000000006</ele><time>2026-04-18T13:06:49Z</time></trkpt><trkpt lat="42.14402934474539" lon="11.913885697336898"><ele>400.0</ele><time>2026-04-18T13:06:51.001Z</time></trkpt><trkpt lat="42.14402816618838" lon="11.914068980247041"><ele>400.0</ele><time>2026-04-18T13:06:53.001Z</time></trkpt><trkpt lat="42.1440528406214" lon="11.91415658434199"><ele>400.0</ele><time>2026-04-18T13:06:54.001Z</time></trkpt><trkpt lat="42.1441282591591" lon="11.914272047726065"><ele>400.0</ele><time>2026-04-18T13:06:55.998Z</time></trkpt><trkpt lat="42.14423107634607" lon="11.914352016636615"><ele>400.0</ele><time>2026-04-18T13:06:57.998Z</time></trkpt><trkpt lat="42.14434774668066" lon="11.914455527214566"><ele>400.0</ele><time>2026-04-18T13:06:59.998Z</time></trkpt><trkpt lat="42.1444065822899" lon="11.914520434157097"><ele>402.2</ele><time>2026-04-18T13:07:00.998Z</time></trkpt><trkpt lat="42.14446713584585" lon="11.914591077000585"><ele>404.4</ele><time>2026-04-18T13:07:01.998Z</time></trkpt><trkpt lat="42.14455664507773" lon="11.914693801336089"><ele>406.6</ele><time>2026-04-18T13:07:03.998Z</time></trkpt><trkpt lat="42.144543513082894" lon="11.914800212124039"><ele>408.8</ele><time>2026-04-18T13:07:05.998Z</time></trkpt><trkpt lat="42.1444702878369" lon="11.914854100143108"><ele>411.0</ele><time>2026-04-18T13:07:07.999Z</time></trkpt><trkpt lat="42.14432551547428" lon="11.914803918880311"><ele>411.0</ele><time>2026-04-18T13:07:09.999Z</time></trkpt><trkpt lat="42.14424136161487" lon="11.914777937402016"><ele>411.0</ele><time>2026-04-18T13:07:10.999Z</time></trkpt><trkpt lat="42.144169102509146" lon="11.91475099920807"><ele>411.0</ele><time>2026-04-18T13:07:11.999Z</time></trkpt><trkpt lat="42.14409599028246" lon="11.914733515439558"><ele>411.0</ele><time>2026-04-18T13:07:12.999Z</time></trkpt><trkpt lat="42.144022471257" lon="11.914735619181242"><ele>411.0</ele><time>2026-04-18T13:07:13.999Z</time></trkpt><trkpt lat="42.14393640930586" lon="11.914765114599058"><ele>411.0</ele><time>2026-04-18T13:07:14.999Z</time></trkpt><trkpt lat="42.143848122563554" lon="11.914808523596994"><ele>408.0</ele><time>2026-04-18T13:07:15.999Z</time></trkpt><trkpt lat="42.14376826639444" lon="11.914847567163061"><ele>405.0</ele><time>2026-04-18T13:07:16.999Z</time></trkpt><trkpt lat="42.14370198947263" lon="11.91488079624022"><ele>402.0</ele><time>2026-04-18T13:07:17.999Z</time></trkpt><trkpt lat="42.14364075550146" lon="11.914936691520632"><ele>399.0</ele><time>2026-04-18T13:07:18.999Z</time></trkpt><trkpt lat="42.14355972607838" lon="11.914997941800669"><ele>396.0</ele><time>2026-04-18T13:07:19.999Z</time></trkpt><trkpt lat="42.14350172521984" lon="11.915062159794537"><ele>393.0</ele><time>2026-04-18T13:07:20.999Z</time></trkpt><trkpt lat="42.143452331578665" lon="11.915114802388846"><ele>393.0</ele><time>2026-04-18T13:07:21.999Z</time></trkpt><trkpt lat="42.14338215582301" lon="11.915241382884805"><ele>393.0</ele><time>2026-04-18T13:07:23.999Z</time></trkpt><trkpt lat="42.14337926464798" lon="11.915337213997951"><ele>393.0</ele><time>2026-04-18T13:07:24.999Z</time></trkpt><trkpt lat="42.143366093512846" lon="11.91544815632334"><ele>393.0</ele><time>2026-04-18T13:07:25.999Z</time></trkpt><trkpt lat="42.143324692848275" lon="11.915543076423429"><ele>393.0</ele><time>2026-04-18T13:07:26.999Z</time></trkpt><trkpt lat="42.14331231220942" lon="11.915632848071093"><ele>393.0</ele><time>2026-04-18T13:07:27.999Z</time></trkpt><trkpt lat="42.14330616796846" lon="11.915722284878958"><ele>393.0</ele><time>2026-04-18T13:07:28.999Z</time></trkpt><trkpt lat="42.143296711118076" lon="11.91581377439728"><ele>393.0</ele><time>2026-04-18T13:07:29.999Z</time></trkpt><trkpt lat="42.143277968964945" lon="11.915955642265965"><ele>393.0</ele><time>2026-04-18T13:07:31.999Z</time></trkpt><trkpt lat="42.143248198453044" lon="11.916068401540144"><ele>393.0</ele><time>2026-04-18T13:07:34Z</time></trkpt><trkpt lat="42.143133605986144" lon="11.916155366435145"><ele>393.0</ele><time>2026-04-18T13:07:36Z</time></trkpt><trkpt lat="42.143075129356006" lon="11.916240045086774"><ele>391.3333333333333</ele><time>2026-04-18T13:07:37Z</time></trkpt><trkpt lat="42.143026379767456" lon="11.91632885223949"><ele>389.6666666666667</ele><time>2026-04-18T13:07:38Z</time></trkpt><trkpt lat="42.143005424310054" lon="11.916443230697558"><ele>388.0</ele><time>2026-04-18T13:07:39Z</time></trkpt><trkpt lat="42.14295774740365" lon="11.91653468194786"><ele>386.33333333333337</ele><time>2026-04-18T13:07:40Z</time></trkpt><trkpt lat="42.14290598615841" lon="11.916644740167522"><ele>384.6666666666667</ele><time>2026-04-18T13:07:41Z</time></trkpt><trkpt lat="42.142870537680366" lon="11.916739559391122"><ele>383.0</ele><time>2026-04-18T13:07:42Z</time></trkpt><trkpt lat="42.142841733625175" lon="11.91682587947149"><ele>382.6666666666667</ele><time>2026-04-18T13:07:43Z</time></trkpt><trkpt lat="42.14281269027947" lon="11.91691621039641"><ele>382.33333333333337</ele><time>2026-04-18T13:07:44Z</time></trkpt><trkpt lat="42.14277829766834" lon="11.91703329467561"><ele>382.0</ele><time>2026-04-18T13:07:45Z</time></trkpt><trkpt lat="42.142758669909085" lon="11.917157517181721"><ele>381.6666666666667</ele><time>2026-04-18T13:07:46Z</time></trkpt><trkpt lat="42.14275131356769" lon="11.917274466554105"><ele>381.3333333333333</ele><time>2026-04-18T13:07:47Z</time></trkpt><trkpt lat="42.14275667752735" lon="11.917385164489584"><ele>381.0</ele><time>2026-04-18T13:07:48Z</time></trkpt><trkpt lat="42.142774875176116" lon="11.917503619725727"><ele>380.8</ele><time>2026-04-18T13:07:49Z</time></trkpt><trkpt lat="42.14280435019041" lon="11.917616394656143"><ele>380.6</ele><time>2026-04-18T13:07:50Z</time></trkpt><trkpt lat="42.14283919861612" lon="11.917742983580075"><ele>380.4</ele><time>2026-04-18T13:07:51Z</time></trkpt><trkpt lat="42.142872526910246" lon="11.917862874505504"><ele>380.2</ele><time>2026-04-18T13:07:52Z</time></trkpt><trkpt lat="42.14290891059247" lon="11.917979377282593"><ele>380.0</ele><time>2026-04-18T13:07:53Z</time></trkpt><trkpt lat="42.14295136985408" lon="11.9180864002468"><ele>380.0</ele><time>2026-04-18T13:07:54Z</time></trkpt><trkpt lat="42.14300330187877" lon="11.918199086057351"><ele>380.0</ele><time>2026-04-18T13:07:55Z</time></trkpt><trkpt lat="42.14304738970945" lon="11.91831258090989"><ele>380.0</ele><time>2026-04-18T13:07:56Z</time></trkpt><trkpt lat="42.14309896290155" lon="11.91841136584373"><ele>380.0</ele><time>2026-04-18T13:07:57Z</time></trkpt><trkpt lat="42.14314926102777" lon="11.918505791570185"><ele>380.0</ele><time>2026-04-18T13:07:58Z</time></trkpt><trkpt lat="42.14318738088696" lon="11.91858499696383"><ele>380.0</ele><time>2026-04-18T13:07:59Z</time></trkpt><trkpt lat="42.14323087131955" lon="11.918667016724987"><ele>380.0</ele><time>2026-04-18T13:08:00Z</time></trkpt><trkpt lat="42.14329264426768" lon="11.918745976600007"><ele>380.0</ele><time>2026-04-18T13:08:01Z</time></trkpt><trkpt lat="42.14335349773241" lon="11.918802533037438"><ele>380.0</ele><time>2026-04-18T13:08:02Z</time></trkpt><trkpt lat="42.14343066913077" lon="11.91882598379681"><ele>380.0</ele><time>2026-04-18T13:08:03Z</time></trkpt><trkpt lat="42.14350128539963" lon="11.918821557249663"><ele>380.0</ele><time>2026-04-18T13:08:04Z</time></trkpt><trkpt lat="42.143597794067176" lon="11.918835616391144"><ele>380.0</ele><time>2026-04-18T13:08:06Z</time></trkpt><trkpt lat="42.14369918021462" lon="11.918846614588219"><ele>380.0</ele><time>2026-04-18T13:08:08Z</time></trkpt><trkpt lat="42.14378089446551" lon="11.918898890654257"><ele>380.0</ele><time>2026-04-18T13:08:10Z</time></trkpt><trkpt lat="42.14388143411479" lon="11.919016578283024"><ele>380.0</ele><time>2026-04-18T13:08:12Z</time></trkpt><trkpt lat="42.143928757471876" lon="11.919083468157996"><ele>380.0</ele><time>2026-04-18T13:08:13Z</time></trkpt><trkpt lat="42.143985229526905" lon="11.919223103141608"><ele>380.0</ele><time>2026-04-18T13:08:15Z</time></trkpt><trkpt lat="42.14400821847355" lon="11.919356674727988"><ele>379.6666666666667</ele><time>2026-04-18T13:08:17Z</time></trkpt><trkpt lat="42.144031809039845" lon="11.919458444524132"><ele>379.33333333333337</ele><time>2026-04-18T13:08:18Z</time></trkpt><trkpt lat="42.14403351913357" lon="11.919546759205344"><ele>379.0</ele><time>2026-04-18T13:08:19Z</time></trkpt><trkpt lat="42.144078591014924" lon="11.919615464016498"><ele>378.6666666666667</ele><time>2026-04-18T13:08:20Z</time></trkpt><trkpt lat="42.14420866043515" lon="11.919683515997633"><ele>378.3333333333333</ele><time>2026-04-18T13:08:22Z</time></trkpt><trkpt lat="42.14428470489737" lon="11.919722924950884"><ele>378.0</ele><time>2026-04-18T13:08:23Z</time></trkpt><trkpt lat="42.144354024501375" lon="11.9197634277329"><ele>380.8333333333333</ele><time>2026-04-18T13:08:24Z</time></trkpt><trkpt lat="42.14443852185712" lon="11.919827598255628"><ele>383.66666666666663</ele><time>2026-04-18T13:08:25Z</time></trkpt><trkpt lat="42.144520329518315" lon="11.919880988688902"><ele>386.5</ele><time>2026-04-18T13:08:26Z</time></trkpt><trkpt lat="42.144605659017515" lon="11.919920884922462"><ele>389.3333333333333</ele><time>2026-04-18T13:08:27Z</time></trkpt><trkpt lat="42.1446721820463" lon="11.919970502915781"><ele>392.16666666666663</ele><time>2026-04-18T13:08:28Z</time></trkpt><trkpt lat="42.144737507513625" lon="11.9200113704663"><ele>395.0</ele><time>2026-04-18T13:08:29.001Z</time></trkpt><trkpt lat="42.144820944821866" lon="11.92006484744463"><ele>398.6</ele><time>2026-04-18T13:08:30.001Z</time></trkpt><trkpt lat="42.14488745607828" lon="11.920094414949475"><ele>402.2</ele><time>2026-04-18T13:08:31.001Z</time></trkpt><trkpt lat="42.14494004839211" lon="11.920165352495905"><ele>405.79999999999995</ele><time>2026-04-18T13:08:32.001Z</time></trkpt><trkpt lat="42.14501130009509" lon="11.920197512114623"><ele>409.4</ele><time>2026-04-18T13:08:33.001Z</time></trkpt><trkpt lat="42.145105942232064" lon="11.920248801820957"><ele>413.0</ele><time>2026-04-18T13:08:35.001Z</time></trkpt><trkpt lat="42.14506130622761" lon="11.920040459619193"><ele>413.49999999999994</ele><time>2026-04-18T13:08:40.001Z</time></trkpt><trkpt lat="42.14499617547772" lon="11.920000740138619"><ele>414.0</ele><time>2026-04-18T13:08:41.001Z</time></trkpt><trkpt lat="42.14492349256822" lon="11.919972248694764"><ele>414.5</ele><time>2026-04-18T13:08:42.001Z</time></trkpt><trkpt lat="42.144872588495254" lon="11.91991086955814"><ele>415.0</ele><time>2026-04-18T13:08:43.001Z</time></trkpt><trkpt lat="42.14482931046381" lon="11.919839020871848"><ele>415.49999999999994</ele><time>2026-04-18T13:08:44.001Z</time></trkpt><trkpt lat="42.14484015919435" lon="11.919725945086066"><ele>416.0</ele><time>2026-04-18T13:08:45.001Z</time></trkpt><trkpt lat="42.14482190187353" lon="11.919575131721343"><ele>418.4</ele><time>2026-04-18T13:08:47.001Z</time></trkpt><trkpt lat="42.14486235413141" lon="11.919405993051074"><ele>420.8</ele><time>2026-04-18T13:08:49.001Z</time></trkpt><trkpt lat="42.14486774074081" lon="11.919276585279176"><ele>423.19999999999993</ele><time>2026-04-18T13:08:50.001Z</time></trkpt><trkpt lat="42.14488133075534" lon="11.919153445247973"><ele>425.59999999999997</ele><time>2026-04-18T13:08:51.001Z</time></trkpt><trkpt lat="42.14490401556514" lon="11.91906207007807"><ele>428.0</ele><time>2026-04-18T13:08:52.001Z</time></trkpt><trkpt lat="42.144917472195566" lon="11.918948736148632"><ele>427.99999999999994</ele><time>2026-04-18T13:08:53.001Z</time></trkpt><trkpt lat="42.144919296049224" lon="11.918849217950433"><ele>428.0</ele><time>2026-04-18T13:08:54.001Z</time></trkpt><trkpt lat="42.14490622180688" lon="11.91873343300072"><ele>428.0</ele><time>2026-04-18T13:08:55.001Z</time></trkpt><trkpt lat="42.14488652258557" lon="11.918619153335044"><ele>428.0</ele><time>2026-04-18T13:08:56.001Z</time></trkpt><trkpt lat="42.14484469950754" lon="11.91849186610558"><ele>427.99999999999994</ele><time>2026-04-18T13:08:57.001Z</time></trkpt><trkpt lat="42.14480310172618" lon="11.918392966738685"><ele>428.0</ele><time>2026-04-18T13:08:58.001Z</time></trkpt><trkpt lat="42.14475401681749" lon="11.918306384819946"><ele>425.66666666666663</ele><time>2026-04-18T13:08:59.001Z</time></trkpt><trkpt lat="42.144719704367695" lon="11.918206202311445"><ele>423.3333333333333</ele><time>2026-04-18T13:09:00.001Z</time></trkpt><trkpt lat="42.144685518213336" lon="11.918123192906693"><ele>421.0</ele><time>2026-04-18T13:09:01.001Z</time></trkpt><trkpt lat="42.14466439306859" lon="11.918039958630802"><ele>418.66666666666663</ele><time>2026-04-18T13:09:01.999Z</time></trkpt><trkpt lat="42.14465074008232" lon="11.91794815110723"><ele>416.3333333333333</ele><time>2026-04-18T13:09:02.999Z</time></trkpt><trkpt lat="42.1446427913735" lon="11.91784392829855"><ele>414.0</ele><time>2026-04-18T13:09:03.999Z</time></trkpt><trkpt lat="42.14462976011573" lon="11.917729435568008"><ele>414.0</ele><time>2026-04-18T13:09:04.999Z</time></trkpt><trkpt lat="42.14460873511547" lon="11.91760333484485"><ele>414.0</ele><time>2026-04-18T13:09:05.999Z</time></trkpt><trkpt lat="42.144587595681934" lon="11.917498832035825"><ele>414.0</ele><time>2026-04-18T13:09:06.999Z</time></trkpt><trkpt lat="42.14456229885012" lon="11.917407531114458"><ele>414.0</ele><time>2026-04-18T13:09:07.999Z</time></trkpt><trkpt lat="42.14457849030579" lon="11.917321631035975"><ele>414.0</ele><time>2026-04-18T13:09:09.999Z</time></trkpt><trkpt lat="42.14477346657522" lon="11.917283130336472"><ele>416.5</ele><time>2026-04-18T13:09:12.999Z</time></trkpt><trkpt lat="42.14487489815857" lon="11.91727524257442"><ele>419.0</ele><time>2026-04-18T13:09:13.999Z</time></trkpt><trkpt lat="42.144950524881864" lon="11.917300993868404"><ele>421.5</ele><time>2026-04-18T13:09:14.999Z</time></trkpt><trkpt lat="42.145018612204396" lon="11.917328282662805"><ele>424.0</ele><time>2026-04-18T13:09:15.999Z</time></trkpt><trkpt lat="42.14505474759935" lon="11.917423661532169"><ele>426.5</ele><time>2026-04-18T13:09:16.999Z</time></trkpt><trkpt lat="42.14510458522585" lon="11.917511055434428"><ele>429.0</ele><time>2026-04-18T13:09:17.999Z</time></trkpt><trkpt lat="42.1451603421756" lon="11.917623755127833"><ele>430.0</ele><time>2026-04-18T13:09:18.999Z</time></trkpt><trkpt lat="42.14523626717772" lon="11.917740465041701"><ele>431.0</ele><time>2026-04-18T13:09:19.999Z</time></trkpt><trkpt lat="42.1452927017948" lon="11.917875975491283"><ele>432.0</ele><time>2026-04-18T13:09:20.999Z</time></trkpt><trkpt lat="42.145362244207625" lon="11.918011425860765"><ele>433.0</ele><time>2026-04-18T13:09:21.999Z</time></trkpt><trkpt lat="42.145445581893675" lon="11.918144228574047"><ele>433.0</ele><time>2026-04-18T13:09:22.999Z</time></trkpt><trkpt lat="42.14551260173297" lon="11.918245305097058"><ele>432.99999999999994</ele><time>2026-04-18T13:09:24Z</time></trkpt><trkpt lat="42.14556193120123" lon="11.91832810652836"><ele>432.99999999999994</ele><time>2026-04-18T13:09:25Z</time></trkpt><trkpt lat="42.145617993148306" lon="11.918408230385053"><ele>433.0</ele><time>2026-04-18T13:09:26Z</time></trkpt><trkpt lat="42.14569331449607" lon="11.918508813897404"><ele>433.0</ele><time>2026-04-18T13:09:27Z</time></trkpt><trkpt lat="42.14577954361705" lon="11.918623107361505"><ele>436.4</ele><time>2026-04-18T13:09:28Z</time></trkpt><trkpt lat="42.14585428788935" lon="11.918710068075763"><ele>439.79999999999995</ele><time>2026-04-18T13:09:29Z</time></trkpt><trkpt lat="42.14592473401403" lon="11.918790234955184"><ele>443.2</ele><time>2026-04-18T13:09:30Z</time></trkpt><trkpt lat="42.14600085021865" lon="11.918866914827008"><ele>446.6</ele><time>2026-04-18T13:09:31Z</time></trkpt><trkpt lat="42.146097340878704" lon="11.918914001261951"><ele>450.0</ele><time>2026-04-18T13:09:32Z</time></trkpt><trkpt lat="42.14619222071454" lon="11.918929760214663"><ele>450.0</ele><time>2026-04-18T13:09:33Z</time></trkpt><trkpt lat="42.14627135160296" lon="11.918915251029354"><ele>450.0</ele><time>2026-04-18T13:09:34Z</time></trkpt><trkpt lat="42.14636129562141" lon="11.918866793452066"><ele>450.0</ele><time>2026-04-18T13:09:35Z</time></trkpt><trkpt lat="42.146466142205256" lon="11.918829579766463"><ele>450.0</ele><time>2026-04-18T13:09:36Z</time></trkpt><trkpt lat="42.14655318750825" lon="11.918811202200493"><ele>450.0</ele><time>2026-04-18T13:09:37Z</time></trkpt><trkpt lat="42.14665335760492" lon="11.918801117885778"><ele>452.5</ele><time>2026-04-18T13:09:38Z</time></trkpt><trkpt lat="42.146756965683345" lon="11.918768290383053"><ele>455.0</ele><time>2026-04-18T13:09:39Z</time></trkpt><trkpt lat="42.14687018848573" lon="11.918794192444448"><ele>457.5</ele><time>2026-04-18T13:09:40Z</time></trkpt><trkpt lat="42.14697808045365" lon="11.918824421717657"><ele>460.0</ele><time>2026-04-18T13:09:41Z</time></trkpt><trkpt lat="42.147092962500295" lon="11.918905111177104"><ele>460.0</ele><time>2026-04-18T13:09:42Z</time></trkpt><trkpt lat="42.14720186599872" lon="11.918985030310706"><ele>460.0</ele><time>2026-04-18T13:09:43Z</time></trkpt><trkpt lat="42.14732185986326" lon="11.919066896110762"><ele>460.0</ele><time>2026-04-18T13:09:44Z</time></trkpt><trkpt lat="42.14741350792316" lon="11.919150134671257"><ele>460.0</ele><time>2026-04-18T13:09:45Z</time></trkpt><trkpt lat="42.14750545043708" lon="11.919251015610008"><ele>462.2</ele><time>2026-04-18T13:09:46Z</time></trkpt><trkpt lat="42.147572907619846" lon="11.919357709208173"><ele>464.4</ele><time>2026-04-18T13:09:47Z</time></trkpt><trkpt lat="42.14765808164515" lon="11.919458149147635"><ele>466.6</ele><time>2026-04-18T13:09:48Z</time></trkpt><trkpt lat="42.14773535308494" lon="11.919568272808492"><ele>468.8</ele><time>2026-04-18T13:09:49Z</time></trkpt><trkpt lat="42.147786414272815" lon="11.919669929143906"><ele>471.0</ele><time>2026-04-18T13:09:50Z</time></trkpt><trkpt lat="42.147811298681546" lon="11.919778756761534"><ele>471.0</ele><time>2026-04-18T13:09:51Z</time></trkpt><trkpt lat="42.14781041697482" lon="11.919897505548738"><ele>471.0</ele><time>2026-04-18T13:09:52Z</time></trkpt><trkpt lat="42.14777713037367" lon="11.920018371133379"><ele>471.0</ele><time>2026-04-18T13:09:53Z</time></trkpt><trkpt lat="42.14774767245275" lon="11.920143493559966"><ele>471.0</ele><time>2026-04-18T13:09:54Z</time></trkpt><trkpt lat="42.14776166506806" lon="11.920262921415352"><ele>471.0</ele><time>2026-04-18T13:09:55Z</time></trkpt><trkpt lat="42.14779859485313" lon="11.920383826078526"><ele>470.4</ele><time>2026-04-18T13:09:56Z</time></trkpt><trkpt lat="42.14785538247019" lon="11.920505216143937"><ele>469.8</ele><time>2026-04-18T13:09:57Z</time></trkpt><trkpt lat="42.147918063154314" lon="11.92064504684969"><ele>469.19999999999993</ele><time>2026-04-18T13:09:58Z</time></trkpt><trkpt lat="42.14796287951675" lon="11.920783187590974"><ele>468.59999999999997</ele><time>2026-04-18T13:09:59Z</time></trkpt><trkpt lat="42.14800586886147" lon="11.920907025691221"><ele>468.0</ele><time>2026-04-18T13:10:00Z</time></trkpt><trkpt lat="42.14802854826417" lon="11.92100576850283"><ele>467.4</ele><time>2026-04-18T13:10:01Z</time></trkpt><trkpt lat="42.14805545167701" lon="11.92108846506122"><ele>466.79999999999995</ele><time>2026-04-18T13:10:02Z</time></trkpt><trkpt lat="42.14815474232564" lon="11.921175161078983"><ele>466.2</ele><time>2026-04-18T13:10:04Z</time></trkpt><trkpt lat="42.148222717585696" lon="11.921206872598686"><ele>465.6</ele><time>2026-04-18T13:10:05.001Z</time></trkpt><trkpt lat="42.14830787842098" lon="11.921250085916867"><ele>465.0</ele><time>2026-04-18T13:10:06.001Z</time></trkpt><trkpt lat="42.148413588441464" lon="11.921270015162035"><ele>468.75</ele><time>2026-04-18T13:10:07.001Z</time></trkpt><trkpt lat="42.148507604262335" lon="11.921259957852842"><ele>472.5</ele><time>2026-04-18T13:10:08.001Z</time></trkpt><trkpt lat="42.14862772323549" lon="11.921222489442295"><ele>476.25</ele><time>2026-04-18T13:10:09.001Z</time></trkpt><trkpt lat="42.148794802846915" lon="11.9212132620926"><ele>480.0</ele><time>2026-04-18T13:10:10.001Z</time></trkpt><trkpt lat="42.14891613575986" lon="11.921175405121495"><ele>480.0</ele><time>2026-04-18T13:10:11.001Z</time></trkpt><trkpt lat="42.149017657180266" lon="11.921160660671834"><ele>480.0</ele><time>2026-04-18T13:10:12.001Z</time></trkpt><trkpt lat="42.14910762393489" lon="11.921147919523055"><ele>480.0</ele><time>2026-04-18T13:10:13.001Z</time></trkpt><trkpt lat="42.14920319716725" lon="11.921129349842955"><ele>480.0</ele><time>2026-04-18T13:10:14.001Z</time></trkpt><trkpt lat="42.149293549013834" lon="11.92110253439942"><ele>480.0</ele><time>2026-04-18T13:10:15.001Z</time></trkpt><trkpt lat="42.149390096693374" lon="11.921053736045627"><ele>481.6</ele><time>2026-04-18T13:10:16.001Z</time></trkpt><trkpt lat="42.149481670130676" lon="11.920988781077341"><ele>483.2</ele><time>2026-04-18T13:10:17.001Z</time></trkpt><trkpt lat="42.14955324091077" lon="11.920906061260924"><ele>484.79999999999995</ele><time>2026-04-18T13:10:18.001Z</time></trkpt><trkpt lat="42.14960589701267" lon="11.920787441376975"><ele>486.4</ele><time>2026-04-18T13:10:19.001Z</time></trkpt><trkpt lat="42.149648456189226" lon="11.920672456319906"><ele>488.0</ele><time>2026-04-18T13:10:20.001Z</time></trkpt><trkpt lat="42.14967448532197" lon="11.92054846956226"><ele>489.66666666666663</ele><time>2026-04-18T13:10:21.001Z</time></trkpt><trkpt lat="42.14968344308125" lon="11.920420252533795"><ele>491.3333333333333</ele><time>2026-04-18T13:10:22.001Z</time></trkpt><trkpt lat="42.14969208914504" lon="11.920311942961069"><ele>493.0</ele><time>2026-04-18T13:10:23.001Z</time></trkpt><trkpt lat="42.14972609219591" lon="11.920190370089069"><ele>494.66666666666663</ele><time>2026-04-18T13:10:24.001Z</time></trkpt><trkpt lat="42.14976827211618" lon="11.920113590795856"><ele>496.3333333333333</ele><time>2026-04-18T13:10:25.001Z</time></trkpt><trkpt lat="42.149839230887515" lon="11.920052406843455"><ele>498.0</ele><time>2026-04-18T13:10:26.001Z</time></trkpt><trkpt lat="42.14993089413966" lon="11.920016399090219"><ele>499.3333333333333</ele><time>2026-04-18T13:10:27.001Z</time></trkpt><trkpt lat="42.15002045462863" lon="11.920023059150225"><ele>500.66666666666663</ele><time>2026-04-18T13:10:28.001Z</time></trkpt><trkpt lat="42.150093758675574" lon="11.920049968546225"><ele>502.0</ele><time>2026-04-18T13:10:29.001Z</time></trkpt><trkpt lat="42.15017113327271" lon="11.920064541346077"><ele>503.3333333333333</ele><time>2026-04-18T13:10:30.001Z</time></trkpt><trkpt lat="42.150252994037885" lon="11.920033952695071"><ele>504.66666666666663</ele><time>2026-04-18T13:10:32.001Z</time></trkpt><trkpt lat="42.15031938173421" lon="11.920072908417163"><ele>506.0</ele><time>2026-04-18T13:10:34.001Z</time></trkpt><trkpt lat="42.150362553257715" lon="11.920136752640229"><ele>506.0</ele><time>2026-04-18T13:10:35.001Z</time></trkpt><trkpt lat="42.15041453984863" lon="11.920230144030514"><ele>506.0</ele><time>2026-04-18T13:10:36.001Z</time></trkpt><trkpt lat="42.15048037941871" lon="11.92035118333752"><ele>506.0</ele><time>2026-04-18T13:10:37.001Z</time></trkpt><trkpt lat="42.15052931637524" lon="11.920477399873203"><ele>506.0</ele><time>2026-04-18T13:10:38.001Z</time></trkpt><trkpt lat="42.150590519075756" lon="11.92058596458966"><ele>506.0</ele><time>2026-04-18T13:10:39.001Z</time></trkpt><trkpt lat="42.15066688674249" lon="11.920733564355235"><ele>509.0</ele><time>2026-04-18T13:10:40.001Z</time></trkpt><trkpt lat="42.150740062861466" lon="11.920857936807735"><ele>512.0</ele><time>2026-04-18T13:10:41.001Z</time></trkpt><trkpt lat="42.15080941655258" lon="11.920979856463113"><ele>515.0</ele><time>2026-04-18T13:10:42.001Z</time></trkpt><trkpt lat="42.150862446779634" lon="11.92108028059051"><ele>518.0</ele><time>2026-04-18T13:10:43.001Z</time></trkpt><trkpt lat="42.15091503150795" lon="11.92115646039035"><ele>521.0</ele><time>2026-04-18T13:10:44.001Z</time></trkpt><trkpt lat="42.15095183429573" lon="11.92123398975701"><ele>521.0</ele><time>2026-04-18T13:10:45.001Z</time></trkpt><trkpt lat="42.150999190419896" lon="11.921305588784412"><ele>521.0</ele><time>2026-04-18T13:10:46.001Z</time></trkpt><trkpt lat="42.15105607230575" lon="11.92139033035751"><ele>521.0</ele><time>2026-04-18T13:10:47.001Z</time></trkpt><trkpt lat="42.15111404278067" lon="11.921480593232786"><ele>521.0</ele><time>2026-04-18T13:10:48.001Z</time></trkpt><trkpt lat="42.151172824907626" lon="11.921582900785362"><ele>521.0</ele><time>2026-04-18T13:10:49.001Z</time></trkpt><trkpt lat="42.15123418875069" lon="11.921682237138997"><ele>521.0</ele><time>2026-04-18T13:10:50.001Z</time></trkpt><trkpt lat="42.151295287411116" lon="11.921778785746287"><ele>521.8333333333333</ele><time>2026-04-18T13:10:51.001Z</time></trkpt><trkpt lat="42.15135336179484" lon="11.921877415623737"><ele>522.6666666666666</ele><time>2026-04-18T13:10:52.001Z</time></trkpt><trkpt lat="42.15140619282209" lon="11.921970189431883"><ele>523.5</ele><time>2026-04-18T13:10:53.001Z</time></trkpt><trkpt lat="42.15145211021206" lon="11.922064359744867"><ele>524.3333333333334</ele><time>2026-04-18T13:10:54.001Z</time></trkpt><trkpt lat="42.151491873559" lon="11.92216903181277"><ele>525.1666666666667</ele><time>2026-04-18T13:10:55.001Z</time></trkpt><trkpt lat="42.151523405858086" lon="11.922291839772598"><ele>526.0</ele><time>2026-04-18T13:10:56.001Z</time></trkpt><trkpt lat="42.15153979416209" lon="11.922431939812741"><ele>527.0</ele><time>2026-04-18T13:10:57.001Z</time></trkpt><trkpt lat="42.15155676440528" lon="11.922610564163545"><ele>528.0</ele><time>2026-04-18T13:10:58.001Z</time></trkpt><trkpt lat="42.151574180731465" lon="11.92281652635124"><ele>529.0</ele><time>2026-04-18T13:10:59.001Z</time></trkpt><trkpt lat="42.1515669765843" lon="11.923029452245663"><ele>530.0</ele><time>2026-04-18T13:11:00.001Z</time></trkpt><trkpt lat="42.151589240368445" lon="11.923262005949416"><ele>529.6666666666666</ele><time>2026-04-18T13:11:01.002Z</time></trkpt><trkpt lat="42.15157682430455" lon="11.923525070318355"><ele>529.3333333333334</ele><time>2026-04-18T13:11:02.002Z</time></trkpt><trkpt lat="42.15157720925293" lon="11.923749974860552"><ele>529.0</ele><time>2026-04-18T13:11:03.002Z</time></trkpt><trkpt lat="42.15156841508725" lon="11.923935891012755"><ele>529.0</ele><time>2026-04-18T13:11:04.002Z</time></trkpt><trkpt lat="42.15156083026532" lon="11.924093146426008"><ele>529.0</ele><time>2026-04-18T13:11:05.002Z</time></trkpt><trkpt lat="42.151509320545664" lon="11.92423082614577"><ele>529.0</ele><time>2026-04-18T13:11:06.002Z</time></trkpt><trkpt lat="42.15143143081307" lon="11.924346817724144"><ele>529.0</ele><time>2026-04-18T13:11:07.002Z</time></trkpt><trkpt lat="42.15132589396377" lon="11.924474904942258"><ele>531.5</ele><time>2026-04-18T13:11:07.999Z</time></trkpt><trkpt lat="42.15122486908622" lon="11.92458649899316"><ele>534.0</ele><time>2026-04-18T13:11:08.999Z</time></trkpt><trkpt lat="42.15113566792683" lon="11.924688850436883"><ele>536.5</ele><time>2026-04-18T13:11:09.999Z</time></trkpt><trkpt lat="42.15106061508035" lon="11.92482591196667"><ele>539.0</ele><time>2026-04-18T13:11:10.999Z</time></trkpt><trkpt lat="42.15100935536672" lon="11.92499460390418"><ele>537.75</ele><time>2026-04-18T13:11:11.999Z</time></trkpt><trkpt lat="42.15097086940574" lon="11.925187841513486"><ele>536.5</ele><time>2026-04-18T13:11:12.999Z</time></trkpt><trkpt lat="42.15093895357485" lon="11.925384195335967"><ele>535.25</ele><time>2026-04-18T13:11:13.999Z</time></trkpt><trkpt lat="42.150910699595684" lon="11.925572418067958"><ele>534.0</ele><time>2026-04-18T13:11:14.999Z</time></trkpt><trkpt lat="42.150887587776985" lon="11.925741488860563"><ele>533.5</ele><time>2026-04-18T13:11:15.999Z</time></trkpt><trkpt lat="42.15086155351873" lon="11.925908812296258"><ele>533.0</ele><time>2026-04-18T13:11:16.999Z</time></trkpt><trkpt lat="42.150838302136336" lon="11.926094115968061"><ele>532.5</ele><time>2026-04-18T13:11:17.999Z</time></trkpt><trkpt lat="42.15081676531339" lon="11.926263434490687"><ele>532.0</ele><time>2026-04-18T13:11:18.999Z</time></trkpt><trkpt lat="42.15079259877336" lon="11.926416499724798"><ele>532.0</ele><time>2026-04-18T13:11:19.999Z</time></trkpt><trkpt lat="42.150777997452785" lon="11.926574474003951"><ele>532.0</ele><time>2026-04-18T13:11:20.999Z</time></trkpt><trkpt lat="42.15075999859598" lon="11.92673982152163"><ele>532.0</ele><time>2026-04-18T13:11:21.999Z</time></trkpt><trkpt lat="42.150736961280764" lon="11.926897503490608"><ele>532.0</ele><time>2026-04-18T13:11:23Z</time></trkpt><trkpt lat="42.15072073611341" lon="11.927046208263738"><ele>530.75</ele><time>2026-04-18T13:11:24Z</time></trkpt><trkpt lat="42.15071331241391" lon="11.927192320861998"><ele>529.5</ele><time>2026-04-18T13:11:25Z</time></trkpt><trkpt lat="42.15070371906637" lon="11.927349815707403"><ele>528.25</ele><time>2026-04-18T13:11:26Z</time></trkpt><trkpt lat="42.150686438974766" lon="11.927515204681475"><ele>527.0</ele><time>2026-04-18T13:11:27Z</time></trkpt><trkpt lat="42.15066962137859" lon="11.927668094083426"><ele>524.0</ele><time>2026-04-18T13:11:28Z</time></trkpt><trkpt lat="42.15064538029663" lon="11.927821962262234"><ele>521.0</ele><time>2026-04-18T13:11:29Z</time></trkpt><trkpt lat="42.150620041059625" lon="11.927991095396346"><ele>518.0</ele><time>2026-04-18T13:11:30Z</time></trkpt><trkpt lat="42.1505948627836" lon="11.928150718711516"><ele>515.0</ele><time>2026-04-18T13:11:31Z</time></trkpt><trkpt lat="42.1505652216879" lon="11.928296763295194"><ele>514.2</ele><time>2026-04-18T13:11:32Z</time></trkpt><trkpt lat="42.15053713731856" lon="11.928435981004563"><ele>513.4</ele><time>2026-04-18T13:11:33Z</time></trkpt><trkpt lat="42.15050379268675" lon="11.928599199677034"><ele>512.6</ele><time>2026-04-18T13:11:34Z</time></trkpt><trkpt lat="42.150475174143686" lon="11.928743157874841"><ele>511.8</ele><time>2026-04-18T13:11:35Z</time></trkpt><trkpt lat="42.15044320799321" lon="11.928872296029905"><ele>511.0</ele><time>2026-04-18T13:11:36Z</time></trkpt><trkpt lat="42.15040918820337" lon="11.928989243895185"><ele>511.0</ele><time>2026-04-18T13:11:37Z</time></trkpt><trkpt lat="42.15037471460736" lon="11.929122341684817"><ele>511.0</ele><time>2026-04-18T13:11:38Z</time></trkpt><trkpt lat="42.15035181775742" lon="11.929213477720609"><ele>511.0</ele><time>2026-04-18T13:11:39Z</time></trkpt><trkpt lat="42.15022065404577" lon="11.929383036897663"><ele>511.0</ele><time>2026-04-18T13:11:41Z</time></trkpt><trkpt lat="42.15014486055308" lon="11.929484688641992"><ele>510.6666666666667</ele><time>2026-04-18T13:11:42Z</time></trkpt><trkpt lat="42.15009503730178" lon="11.92958696208057"><ele>510.33333333333337</ele><time>2026-04-18T13:11:43Z</time></trkpt><trkpt lat="42.150060337373795" lon="11.929690981327248"><ele>510.0</ele><time>2026-04-18T13:11:44Z</time></trkpt><trkpt lat="42.150024570648895" lon="11.929792067526645"><ele>509.66666666666663</ele><time>2026-04-18T13:11:45Z</time></trkpt><trkpt lat="42.149986327854066" lon="11.929897194897519"><ele>509.3333333333333</ele><time>2026-04-18T13:11:46Z</time></trkpt><trkpt lat="42.149952387407595" lon="11.930009840273739"><ele>509.0</ele><time>2026-04-18T13:11:47Z</time></trkpt><trkpt lat="42.14992240710176" lon="11.930128390938783"><ele>509.0</ele><time>2026-04-18T13:11:48Z</time></trkpt><trkpt lat="42.14988827585545" lon="11.930250607773772"><ele>509.0</ele><time>2026-04-18T13:11:49Z</time></trkpt><trkpt lat="42.1498468172852" lon="11.93037127321373"><ele>509.0</ele><time>2026-04-18T13:11:50Z</time></trkpt><trkpt lat="42.14980600560941" lon="11.930506820313397"><ele>509.0</ele><time>2026-04-18T13:11:51Z</time></trkpt><trkpt lat="42.149763443435624" lon="11.930657622409964"><ele>509.0</ele><time>2026-04-18T13:11:52Z</time></trkpt><trkpt lat="42.1497135708784" lon="11.930800817718783"><ele>505.75</ele><time>2026-04-18T13:11:53Z</time></trkpt><trkpt lat="42.1496663857042" lon="11.930941573503858"><ele>502.5</ele><time>2026-04-18T13:11:54Z</time></trkpt><trkpt lat="42.14961363168779" lon="11.931081335072047"><ele>499.25</ele><time>2026-04-18T13:11:55Z</time></trkpt><trkpt lat="42.14956828057927" lon="11.931234018768675"><ele>496.0</ele><time>2026-04-18T13:11:56Z</time></trkpt><trkpt lat="42.14951699221855" lon="11.931392503924444"><ele>496.0</ele><time>2026-04-18T13:11:57Z</time></trkpt><trkpt lat="42.1494680630655" lon="11.931547028070856"><ele>496.0</ele><time>2026-04-18T13:11:58Z</time></trkpt><trkpt lat="42.14941237804839" lon="11.931696473398087"><ele>496.0</ele><time>2026-04-18T13:11:59Z</time></trkpt><trkpt lat="42.14936842948038" lon="11.931863839866855"><ele>496.0</ele><time>2026-04-18T13:12:00Z</time></trkpt><trkpt lat="42.14934262999262" lon="11.932040273911456"><ele>495.5</ele><time>2026-04-18T13:12:01.001Z</time></trkpt><trkpt lat="42.14932856723524" lon="11.932222597873194"><ele>495.0</ele><time>2026-04-18T13:12:02.001Z</time></trkpt><trkpt lat="42.149330689426236" lon="11.932394549248928"><ele>494.5</ele><time>2026-04-18T13:12:03.001Z</time></trkpt><trkpt lat="42.1493395666712" lon="11.932574970562174"><ele>494.0</ele><time>2026-04-18T13:12:04.001Z</time></trkpt><trkpt lat="42.14936632346359" lon="11.932758207207963"><ele>490.5</ele><time>2026-04-18T13:12:05.001Z</time></trkpt><trkpt lat="42.1494119135251" lon="11.932931178796713"><ele>487.0</ele><time>2026-04-18T13:12:06.001Z</time></trkpt><trkpt lat="42.149459191729875" lon="11.93309130301812"><ele>483.5</ele><time>2026-04-18T13:12:07.001Z</time></trkpt><trkpt lat="42.149516413468255" lon="11.933235185028128"><ele>480.0</ele><time>2026-04-18T13:12:08.001Z</time></trkpt><trkpt lat="42.14958635016314" lon="11.933377632258598"><ele>477.5</ele><time>2026-04-18T13:12:09.001Z</time></trkpt><trkpt lat="42.14966474540588" lon="11.93351523314372"><ele>475.0</ele><time>2026-04-18T13:12:10.001Z</time></trkpt><trkpt lat="42.14974476966105" lon="11.93365994236572"><ele>472.5</ele><time>2026-04-18T13:12:11.001Z</time></trkpt><trkpt lat="42.14980917220561" lon="11.933785938067384"><ele>470.0</ele><time>2026-04-18T13:12:12.001Z</time></trkpt><trkpt lat="42.149879765909546" lon="11.933916161895663"><ele>474.25</ele><time>2026-04-18T13:12:13.001Z</time></trkpt><trkpt lat="42.1499474984718" lon="11.934051735822129"><ele>478.5</ele><time>2026-04-18T13:12:14.001Z</time></trkpt><trkpt lat="42.150011602786265" lon="11.934193927799171"><ele>482.75</ele><time>2026-04-18T13:12:15.001Z</time></trkpt><trkpt lat="42.15007492659705" lon="11.93434205418486"><ele>487.0</ele><time>2026-04-18T13:12:16.001Z</time></trkpt><trkpt lat="42.15012159370432" lon="11.934501728150064"><ele>487.0</ele><time>2026-04-18T13:12:17.001Z</time></trkpt><trkpt lat="42.1501411418955" lon="11.934673266841454"><ele>487.0</ele><time>2026-04-18T13:12:18.001Z</time></trkpt><trkpt lat="42.1501445847638" lon="11.934837871740076"><ele>487.0</ele><time>2026-04-18T13:12:19.001Z</time></trkpt><trkpt lat="42.15014300117571" lon="11.934991173705711"><ele>487.0</ele><time>2026-04-18T13:12:20.001Z</time></trkpt><trkpt lat="42.15013875796281" lon="11.935139428917001"><ele>486.8</ele><time>2026-04-18T13:12:21.001Z</time></trkpt><trkpt lat="42.15013546996329" lon="11.935269953251984"><ele>486.6</ele><time>2026-04-18T13:12:22.001Z</time></trkpt><trkpt lat="42.150135332120904" lon="11.935397922169901"><ele>486.40000000000003</ele><time>2026-04-18T13:12:23.001Z</time></trkpt><trkpt lat="42.15013517630178" lon="11.935521146477994"><ele>486.20000000000005</ele><time>2026-04-18T13:12:24.001Z</time></trkpt><trkpt lat="42.15013123732404" lon="11.935649414984008"><ele>486.0</ele><time>2026-04-18T13:12:25.001Z</time></trkpt><trkpt lat="42.15013172520664" lon="11.935787879579614"><ele>485.8</ele><time>2026-04-18T13:12:26.001Z</time></trkpt><trkpt lat="42.15012846474967" lon="11.935932255594864"><ele>485.6</ele><time>2026-04-18T13:12:27.001Z</time></trkpt><trkpt lat="42.1501258904296" lon="11.93606775294295"><ele>485.4</ele><time>2026-04-18T13:12:28.001Z</time></trkpt><trkpt lat="42.15012735820884" lon="11.936198564730143"><ele>485.2</ele><time>2026-04-18T13:12:29.001Z</time></trkpt><trkpt lat="42.150127212350974" lon="11.93632566948253"><ele>485.0</ele><time>2026-04-18T13:12:30.001Z</time></trkpt><trkpt lat="42.15012289294681" lon="11.936447479753495"><ele>484.99999999999994</ele><time>2026-04-18T13:12:31.001Z</time></trkpt><trkpt lat="42.15012162283954" lon="11.93656512332867"><ele>485.0</ele><time>2026-04-18T13:12:32.001Z</time></trkpt><trkpt lat="42.150120796671665" lon="11.936677862109944"><ele>485.0</ele><time>2026-04-18T13:12:33.001Z</time></trkpt><trkpt lat="42.15011998142107" lon="11.936791917040972"><ele>485.0</ele><time>2026-04-18T13:12:34.001Z</time></trkpt><trkpt lat="42.15012367800204" lon="11.936899915772443"><ele>484.99999999999994</ele><time>2026-04-18T13:12:35.001Z</time></trkpt><trkpt lat="42.150107509332635" lon="11.937009036698164"><ele>485.0</ele><time>2026-04-18T13:12:36.001Z</time></trkpt><trkpt lat="42.15010617269421" lon="11.937118398081585"><ele>485.16666666666663</ele><time>2026-04-18T13:12:37.001Z</time></trkpt><trkpt lat="42.15010477913089" lon="11.93723241678897"><ele>485.3333333333333</ele><time>2026-04-18T13:12:38.001Z</time></trkpt><trkpt lat="42.150103439879395" lon="11.937341991845575"><ele>485.5</ele><time>2026-04-18T13:12:39.001Z</time></trkpt><trkpt lat="42.15010220240925" lon="11.93744323937684"><ele>485.66666666666663</ele><time>2026-04-18T13:12:40.001Z</time></trkpt><trkpt lat="42.15010097071581" lon="11.937549225551017"><ele>485.8333333333333</ele><time>2026-04-18T13:12:41.001Z</time></trkpt><trkpt lat="42.150099744436204" lon="11.937649141747418"><ele>486.0</ele><time>2026-04-18T13:12:42.001Z</time></trkpt><trkpt lat="42.150097782937124" lon="11.937753493517047"><ele>485.6666666666667</ele><time>2026-04-18T13:12:43.001Z</time></trkpt><trkpt lat="42.150109483686954" lon="11.937874088790428"><ele>485.33333333333337</ele><time>2026-04-18T13:12:44.001Z</time></trkpt><trkpt lat="42.15010531522454" lon="11.938002084092066"><ele>485.0</ele><time>2026-04-18T13:12:45.001Z</time></trkpt><trkpt lat="42.150086684330574" lon="11.938116021946511"><ele>484.6666666666667</ele><time>2026-04-18T13:12:46.001Z</time></trkpt><trkpt lat="42.150084363118545" lon="11.938226898326606"><ele>484.33333333333337</ele><time>2026-04-18T13:12:47.001Z</time></trkpt><trkpt lat="42.15008237563136" lon="11.93833422242893"><ele>484.0</ele><time>2026-04-18T13:12:48.001Z</time></trkpt><trkpt lat="42.150080418603" lon="11.93843989717533"><ele>482.2</ele><time>2026-04-18T13:12:49.001Z</time></trkpt><trkpt lat="42.15008204601707" lon="11.938524878450915"><ele>480.4</ele><time>2026-04-18T13:12:50.001Z</time></trkpt><trkpt lat="42.15011623302714" lon="11.938664439958474"><ele>478.6</ele><time>2026-04-18T13:12:52.002Z</time></trkpt><trkpt lat="42.150163448351414" lon="11.938767484032484"><ele>476.8</ele><time>2026-04-18T13:12:54.002Z</time></trkpt><trkpt lat="42.150223563254876" lon="11.93885084727207"><ele>475.0</ele><time>2026-04-18T13:12:55.002Z</time></trkpt><trkpt lat="42.15031427622191" lon="11.938944321861642"><ele>475.0</ele><time>2026-04-18T13:12:56.002Z</time></trkpt><trkpt lat="42.150415831342904" lon="11.939007248112045"><ele>475.0</ele><time>2026-04-18T13:12:57.002Z</time></trkpt><trkpt lat="42.15049272561374" lon="11.939089892582782"><ele>475.0</ele><time>2026-04-18T13:12:58.002Z</time></trkpt><trkpt lat="42.15057812099364" lon="11.93915154039208"><ele>475.0</ele><time>2026-04-18T13:12:59.002Z</time></trkpt><trkpt lat="42.15065889616051" lon="11.939209852422302"><ele>475.0</ele><time>2026-04-18T13:13:00.002Z</time></trkpt><trkpt lat="42.15073302819896" lon="11.939265567660886"><ele>472.0</ele><time>2026-04-18T13:13:01.002Z</time></trkpt><trkpt lat="42.15081712152811" lon="11.939332445290491"><ele>469.0</ele><time>2026-04-18T13:13:02.002Z</time></trkpt><trkpt lat="42.15089732325492" lon="11.93939947062569"><ele>466.0</ele><time>2026-04-18T13:13:03.002Z</time></trkpt><trkpt lat="42.15099298296187" lon="11.93946103223387"><ele>463.0</ele><time>2026-04-18T13:13:04.002Z</time></trkpt><trkpt lat="42.151076197387624" lon="11.939554745423052"><ele>460.0</ele><time>2026-04-18T13:13:05.002Z</time></trkpt><trkpt lat="42.151172593629674" lon="11.939619011294408"><ele>460.0</ele><time>2026-04-18T13:13:06.002Z</time></trkpt><trkpt lat="42.151254804824056" lon="11.939720402777871"><ele>460.0</ele><time>2026-04-18T13:13:07.002Z</time></trkpt><trkpt lat="42.151334441592695" lon="11.939799551130344"><ele>460.0</ele><time>2026-04-18T13:13:08.002Z</time></trkpt><trkpt lat="42.15141909379317" lon="11.939869664626293"><ele>460.0</ele><time>2026-04-18T13:13:09.002Z</time></trkpt><trkpt lat="42.15149536091246" lon="11.939948131989135"><ele>460.0</ele><time>2026-04-18T13:13:10.002Z</time></trkpt><trkpt lat="42.15157342430668" lon="11.940029224028391"><ele>460.8</ele><time>2026-04-18T13:13:11.002Z</time></trkpt><trkpt lat="42.151651481167676" lon="11.9401095094867"><ele>461.6</ele><time>2026-04-18T13:13:12.002Z</time></trkpt><trkpt lat="42.15172676032457" lon="11.940186270419616"><ele>462.4</ele><time>2026-04-18T13:13:13.002Z</time></trkpt><trkpt lat="42.151796067219856" lon="11.940270209268906"><ele>463.2</ele><time>2026-04-18T13:13:14Z</time></trkpt><trkpt lat="42.1518733808671" lon="11.940343840913254"><ele>464.0</ele><time>2026-04-18T13:13:15Z</time></trkpt><trkpt lat="42.151953860869874" lon="11.940411829270403"><ele>463.99999999999994</ele><time>2026-04-18T13:13:16Z</time></trkpt><trkpt lat="42.15204134757863" lon="11.940473519625291"><ele>464.0</ele><time>2026-04-18T13:13:17Z</time></trkpt><trkpt lat="42.152124811221974" lon="11.940528348892073"><ele>464.0</ele><time>2026-04-18T13:13:18Z</time></trkpt><trkpt lat="42.15220064390226" lon="11.940586391293056"><ele>464.0</ele><time>2026-04-18T13:13:19Z</time></trkpt><trkpt lat="42.15226738726151" lon="11.940638836577692"><ele>463.99999999999994</ele><time>2026-04-18T13:13:20Z</time></trkpt><trkpt lat="42.15233821462656" lon="11.940689550783622"><ele>464.0</ele><time>2026-04-18T13:13:21Z</time></trkpt><trkpt lat="42.1524109691414" lon="11.940749215344333"><ele>466.66666666666663</ele><time>2026-04-18T13:13:22Z</time></trkpt><trkpt lat="42.152482557447335" lon="11.940801545203481"><ele>469.3333333333333</ele><time>2026-04-18T13:13:23Z</time></trkpt><trkpt lat="42.152532806034706" lon="11.940859977705797"><ele>472.0</ele><time>2026-04-18T13:13:24Z</time></trkpt><trkpt lat="42.15256011937165" lon="11.940949899695614"><ele>474.66666666666663</ele><time>2026-04-18T13:13:25Z</time></trkpt><trkpt lat="42.15256761103539" lon="11.941088449876238"><ele>477.3333333333333</ele><time>2026-04-18T13:13:27Z</time></trkpt><trkpt lat="42.152597923107585" lon="11.941189045738815"><ele>480.0</ele><time>2026-04-18T13:13:29Z</time></trkpt><trkpt lat="42.15269430559449" lon="11.94122999177277"><ele>480.14285714285717</ele><time>2026-04-18T13:13:31Z</time></trkpt><trkpt lat="42.15275847218974" lon="11.941243186965938"><ele>480.2857142857142</ele><time>2026-04-18T13:13:34Z</time></trkpt><trkpt lat="42.15279714514479" lon="11.941174689865315"><ele>480.4285714285714</ele><time>2026-04-18T13:13:38Z</time></trkpt><trkpt lat="42.15279620179955" lon="11.941088109682477"><ele>480.57142857142856</ele><time>2026-04-18T13:13:46Z</time></trkpt><trkpt lat="42.152760582459464" lon="11.941015434397524"><ele>480.71428571428567</ele><time>2026-04-18T13:13:56.001Z</time></trkpt><trkpt lat="42.152780321260444" lon="11.941114694731882"><ele>480.8571428571428</ele><time>2026-04-18T13:14:19.001Z</time></trkpt><trkpt lat="42.15279484655656" lon="11.94119755333249"><ele>480.99999999999994</ele><time>2026-04-18T13:14:25.001Z</time></trkpt><trkpt lat="42.15285941144705" lon="11.94128160341492"><ele>481.00000000000006</ele><time>2026-04-18T13:14:27.001Z</time></trkpt><trkpt lat="42.15295192503854" lon="11.94131317636975"><ele>481.0</ele><time>2026-04-18T13:14:29.001Z</time></trkpt><trkpt lat="42.15301960935588" lon="11.94135288213987"><ele>481.0</ele><time>2026-04-18T13:14:31.001Z</time></trkpt><trkpt lat="42.15308049545797" lon="11.941375869335324"><ele>481.0</ele><time>2026-04-18T13:14:33.001Z</time></trkpt><trkpt lat="42.153186797712216" lon="11.941355238649317"><ele>481.00000000000006</ele><time>2026-04-18T13:14:35.001Z</time></trkpt><trkpt lat="42.15321632735617" lon="11.941264821435889"><ele>481.0</ele><time>2026-04-18T13:14:36.001Z</time></trkpt><trkpt lat="42.15327351732768" lon="11.941207689439775"><ele>479.50000000000006</ele><time>2026-04-18T13:14:37.001Z</time></trkpt><trkpt lat="42.15332658620795" lon="11.941155515976725"><ele>478.0</ele><time>2026-04-18T13:14:38.001Z</time></trkpt><trkpt lat="42.15338350625909" lon="11.941102619097963"><ele>476.5</ele><time>2026-04-18T13:14:39.001Z</time></trkpt><trkpt lat="42.15346274304763" lon="11.941073862401735"><ele>475.0</ele><time>2026-04-18T13:14:40.001Z</time></trkpt><trkpt lat="42.153516712162265" lon="11.940995222975253"><ele>473.50000000000006</ele><time>2026-04-18T13:14:41.001Z</time></trkpt><trkpt lat="42.15356028485868" lon="11.940901581223228"><ele>472.0</ele><time>2026-04-18T13:14:42.001Z</time></trkpt><trkpt lat="42.15357428751074" lon="11.940773468000017"><ele>471.83333333333337</ele><time>2026-04-18T13:14:43.002Z</time></trkpt><trkpt lat="42.15353692204288" lon="11.940633404977932"><ele>471.6666666666667</ele><time>2026-04-18T13:14:44.002Z</time></trkpt><trkpt lat="42.15350833056383" lon="11.940515812858473"><ele>471.5</ele><time>2026-04-18T13:14:45.002Z</time></trkpt><trkpt lat="42.15346120539846" lon="11.940425437974854"><ele>471.33333333333337</ele><time>2026-04-18T13:14:46.002Z</time></trkpt><trkpt lat="42.15341439201296" lon="11.940339516124464"><ele>471.1666666666667</ele><time>2026-04-18T13:14:47.002Z</time></trkpt><trkpt lat="42.153370194312174" lon="11.940241270061508"><ele>471.0</ele><time>2026-04-18T13:14:48.002Z</time></trkpt><trkpt lat="42.15345019390828" lon="11.940108939942673"><ele>470.6</ele><time>2026-04-18T13:14:49.002Z</time></trkpt><trkpt lat="42.1534010047502" lon="11.939840475152256"><ele>470.20000000000005</ele><time>2026-04-18T13:14:50.002Z</time></trkpt><trkpt lat="42.15338432969003" lon="11.939715333943706"><ele>469.79999999999995</ele><time>2026-04-18T13:14:51.002Z</time></trkpt><trkpt lat="42.15339185401429" lon="11.93960618166338"><ele>469.4</ele><time>2026-04-18T13:14:52.002Z</time></trkpt><trkpt lat="42.15343869534466" lon="11.939539150414339"><ele>469.0</ele><time>2026-04-18T13:14:53.002Z</time></trkpt><trkpt lat="42.15349652883729" lon="11.939452349287798"><ele>469.0</ele><time>2026-04-18T13:14:54.002Z</time></trkpt><trkpt lat="42.1535510508621" lon="11.939363706196081"><ele>469.0</ele><time>2026-04-18T13:14:55.002Z</time></trkpt><trkpt lat="42.15365193416463" lon="11.939346030999157"><ele>469.0</ele><time>2026-04-18T13:14:56.002Z</time></trkpt><trkpt lat="42.15376075457289" lon="11.939349806023873"><ele>469.0</ele><time>2026-04-18T13:14:57.002Z</time></trkpt><trkpt lat="42.15385879069065" lon="11.93935724256417"><ele>469.0</ele><time>2026-04-18T13:14:58.002Z</time></trkpt><trkpt lat="42.153943276490565" lon="11.939353868460206"><ele>469.00000000000006</ele><time>2026-04-18T13:14:59.002Z</time></trkpt><trkpt lat="42.15402760045921" lon="11.939393721600469"><ele>469.0</ele><time>2026-04-18T13:15:00.002Z</time></trkpt><trkpt lat="42.15410509745144" lon="11.93938547843652"><ele>469.0</ele><time>2026-04-18T13:15:01.002Z</time></trkpt><trkpt lat="42.15417688365931" lon="11.939379281395953"><ele>469.0</ele><time>2026-04-18T13:15:02.002Z</time></trkpt><trkpt lat="42.15424628846425" lon="11.939381361456645"><ele>469.00000000000006</ele><time>2026-04-18T13:15:03.002Z</time></trkpt><trkpt lat="42.15432312271739" lon="11.9394048243607"><ele>469.0</ele><time>2026-04-18T13:15:04.002Z</time></trkpt><trkpt lat="42.15440078693038" lon="11.939440932859108"><ele>465.2</ele><time>2026-04-18T13:15:05.002Z</time></trkpt><trkpt lat="42.15447322838692" lon="11.939502676148637"><ele>461.4</ele><time>2026-04-18T13:15:06.002Z</time></trkpt><trkpt lat="42.154532431939984" lon="11.939589355275684"><ele>457.6</ele><time>2026-04-18T13:15:07.002Z</time></trkpt><trkpt lat="42.154560271732414" lon="11.939700406671133"><ele>453.8</ele><time>2026-04-18T13:15:08.002Z</time></trkpt><trkpt lat="42.154567901450356" lon="11.939819869558464"><ele>450.0</ele><time>2026-04-18T13:15:09.002Z</time></trkpt><trkpt lat="42.15458831532476" lon="11.93995827321784"><ele>448.8</ele><time>2026-04-18T13:15:10.002Z</time></trkpt><trkpt lat="42.1546080523973" lon="11.940097559815515"><ele>447.6</ele><time>2026-04-18T13:15:11.002Z</time></trkpt><trkpt lat="42.15463206088144" lon="11.940234965435522"><ele>446.4</ele><time>2026-04-18T13:15:12.002Z</time></trkpt><trkpt lat="42.154668725902916" lon="11.94037015343344"><ele>445.2</ele><time>2026-04-18T13:15:13.002Z</time></trkpt><trkpt lat="42.15470817876818" lon="11.940514007880811"><ele>444.0</ele><time>2026-04-18T13:15:14.002Z</time></trkpt><trkpt lat="42.15475824860717" lon="11.94065783991172"><ele>444.0</ele><time>2026-04-18T13:15:15.002Z</time></trkpt><trkpt lat="42.154818403842086" lon="11.940800566807162"><ele>444.0</ele><time>2026-04-18T13:15:16.002Z</time></trkpt><trkpt lat="42.15487855720128" lon="11.94093275187616"><ele>444.0</ele><time>2026-04-18T13:15:17.002Z</time></trkpt><trkpt lat="42.15494641610311" lon="11.941053553119058"><ele>444.0</ele><time>2026-04-18T13:15:18.002Z</time></trkpt><trkpt lat="42.15501663242513" lon="11.941159955341407"><ele>442.0</ele><time>2026-04-18T13:15:19.002Z</time></trkpt><trkpt lat="42.155088129018125" lon="11.941264518899699"><ele>440.0</ele><time>2026-04-18T13:15:20.001Z</time></trkpt><trkpt lat="42.155155899534506" lon="11.941371513121876"><ele>438.0</ele><time>2026-04-18T13:15:21.001Z</time></trkpt><trkpt lat="42.155222519549035" lon="11.941480185487668"><ele>436.0</ele><time>2026-04-18T13:15:22.001Z</time></trkpt><trkpt lat="42.155295065599816" lon="11.941589340936792"><ele>434.0</ele><time>2026-04-18T13:15:23.001Z</time></trkpt><trkpt lat="42.15537138778074" lon="11.941700905934745"><ele>433.0</ele><time>2026-04-18T13:15:24.001Z</time></trkpt><trkpt lat="42.155453922798024" lon="11.941803785270055"><ele>432.0</ele><time>2026-04-18T13:15:25.001Z</time></trkpt><trkpt lat="42.155537716365124" lon="11.941900786198355"><ele>431.0</ele><time>2026-04-18T13:15:26.001Z</time></trkpt><trkpt lat="42.1556151123447" lon="11.941994466579219"><ele>430.0</ele><time>2026-04-18T13:15:27.001Z</time></trkpt><trkpt lat="42.1557029885039" lon="11.94208668651504"><ele>429.0</ele><time>2026-04-18T13:15:28.001Z</time></trkpt><trkpt lat="42.1557858827262" lon="11.942175781463197"><ele>429.0</ele><time>2026-04-18T13:15:29.001Z</time></trkpt><trkpt lat="42.155856475639844" lon="11.942280030560562"><ele>429.0</ele><time>2026-04-18T13:15:30.001Z</time></trkpt><trkpt lat="42.15588879849819" lon="11.942422149249326"><ele>429.0</ele><time>2026-04-18T13:15:31.001Z</time></trkpt><trkpt lat="42.155949979802855" lon="11.942539456412536"><ele>429.0</ele><time>2026-04-18T13:15:32.001Z</time></trkpt><trkpt lat="42.15601747624784" lon="11.942663784029882"><ele>429.0</ele><time>2026-04-18T13:15:33.001Z</time></trkpt><trkpt lat="42.15610491118691" lon="11.942773119069601"><ele>425.75</ele><time>2026-04-18T13:15:34.001Z</time></trkpt><trkpt lat="42.15621691474688" lon="11.94287279753389"><ele>422.5</ele><time>2026-04-18T13:15:35.001Z</time></trkpt><trkpt lat="42.15634702525602" lon="11.942949639329404"><ele>419.25</ele><time>2026-04-18T13:15:36.001Z</time></trkpt><trkpt lat="42.15648282453732" lon="11.942987506420788"><ele>416.0</ele><time>2026-04-18T13:15:37.001Z</time></trkpt><trkpt lat="42.15661920955561" lon="11.942980420856049"><ele>416.0</ele><time>2026-04-18T13:15:38.001Z</time></trkpt><trkpt lat="42.15674894561688" lon="11.942933930493512"><ele>416.0</ele><time>2026-04-18T13:15:39.001Z</time></trkpt><trkpt lat="42.15688188918835" lon="11.942860032800677"><ele>416.0</ele><time>2026-04-18T13:15:40.001Z</time></trkpt><trkpt lat="42.15701160223409" lon="11.942761075040343"><ele>416.0</ele><time>2026-04-18T13:15:41.001Z</time></trkpt><trkpt lat="42.15711842811616" lon="11.94264281064233"><ele>418.5</ele><time>2026-04-18T13:15:42.001Z</time></trkpt><trkpt lat="42.157204170989694" lon="11.942510704559307"><ele>421.0</ele><time>2026-04-18T13:15:43.001Z</time></trkpt><trkpt lat="42.15727121225256" lon="11.942365442197955"><ele>423.5</ele><time>2026-04-18T13:15:44.001Z</time></trkpt><trkpt lat="42.15735194917389" lon="11.942248177662472"><ele>426.0</ele><time>2026-04-18T13:15:45.001Z</time></trkpt><trkpt lat="42.15744176921548" lon="11.942129833806208"><ele>426.0</ele><time>2026-04-18T13:15:46.001Z</time></trkpt><trkpt lat="42.15756178832108" lon="11.942033896959613"><ele>426.0</ele><time>2026-04-18T13:15:47.001Z</time></trkpt><trkpt lat="42.15771038599359" lon="11.941966752416434"><ele>426.0</ele><time>2026-04-18T13:15:48.001Z</time></trkpt><trkpt lat="42.157866005921136" lon="11.94189131142901"><ele>426.0</ele><time>2026-04-18T13:15:49.001Z</time></trkpt><trkpt lat="42.15800757826127" lon="11.941824933225831"><ele>426.0</ele><time>2026-04-18T13:15:50.001Z</time></trkpt><trkpt lat="42.158145417961386" lon="11.94176261869571"><ele>426.0</ele><time>2026-04-18T13:15:51.001Z</time></trkpt><trkpt lat="42.15827227518153" lon="11.94172342682671"><ele>426.0</ele><time>2026-04-18T13:15:52.001Z</time></trkpt><trkpt lat="42.158398089223745" lon="11.94171691746822"><ele>419.75</ele><time>2026-04-18T13:15:53.001Z</time></trkpt><trkpt lat="42.15853322699126" lon="11.941735200248555"><ele>413.5</ele><time>2026-04-18T13:15:54.001Z</time></trkpt><trkpt lat="42.15865480443775" lon="11.941848181197157"><ele>407.25</ele><time>2026-04-18T13:15:55.001Z</time></trkpt><trkpt lat="42.15878541835709" lon="11.941941440477224"><ele>401.0</ele><time>2026-04-18T13:15:56.001Z</time></trkpt><trkpt lat="42.15889544792645" lon="11.942085969170865"><ele>401.0</ele><time>2026-04-18T13:15:57.001Z</time></trkpt><trkpt lat="42.15898634816432" lon="11.942220853739553"><ele>401.0</ele><time>2026-04-18T13:15:58.001Z</time></trkpt><trkpt lat="42.15906893595642" lon="11.942315161108272"><ele>401.0</ele><time>2026-04-18T13:15:59.001Z</time></trkpt><trkpt lat="42.15917352761679" lon="11.94235588142055"><ele>401.0</ele><time>2026-04-18T13:16:00.001Z</time></trkpt><trkpt lat="42.15929308291047" lon="11.942334766246235"><ele>400.25</ele><time>2026-04-18T13:16:01.001Z</time></trkpt><trkpt lat="42.15941762908435" lon="11.942287334466062"><ele>399.5</ele><time>2026-04-18T13:16:02.001Z</time></trkpt><trkpt lat="42.159538157662176" lon="11.942184157054506"><ele>398.75</ele><time>2026-04-18T13:16:03.001Z</time></trkpt><trkpt lat="42.15965482595649" lon="11.942058342074155"><ele>398.0</ele><time>2026-04-18T13:16:04.001Z</time></trkpt><trkpt lat="42.15977266303684" lon="11.94192056759107"><ele>397.5</ele><time>2026-04-18T13:16:05.001Z</time></trkpt><trkpt lat="42.15987968165248" lon="11.941787597581635"><ele>397.0</ele><time>2026-04-18T13:16:06.001Z</time></trkpt><trkpt lat="42.15997645866658" lon="11.941651085652015"><ele>396.5</ele><time>2026-04-18T13:16:07.001Z</time></trkpt><trkpt lat="42.16004952323877" lon="11.941504668799688"><ele>396.0</ele><time>2026-04-18T13:16:08.001Z</time></trkpt><trkpt lat="42.16011604666354" lon="11.941338923787065"><ele>396.0</ele><time>2026-04-18T13:16:09.001Z</time></trkpt><trkpt lat="42.16016851432955" lon="11.941165286522983"><ele>396.0</ele><time>2026-04-18T13:16:10.001Z</time></trkpt><trkpt lat="42.16020740645227" lon="11.940997010750344"><ele>396.0</ele><time>2026-04-18T13:16:11.001Z</time></trkpt><trkpt lat="42.16024113378163" lon="11.940831691477532"><ele>396.0</ele><time>2026-04-18T13:16:12.001Z</time></trkpt><trkpt lat="42.16029643715851" lon="11.940668827715445"><ele>395.25</ele><time>2026-04-18T13:16:13.001Z</time></trkpt><trkpt lat="42.160338443561166" lon="11.940504577405084"><ele>394.5</ele><time>2026-04-18T13:16:14.001Z</time></trkpt><trkpt lat="42.160375202611164" lon="11.940354035341173"><ele>393.75</ele><time>2026-04-18T13:16:15.001Z</time></trkpt><trkpt lat="42.16044398791111" lon="11.940223116288744"><ele>393.0</ele><time>2026-04-18T13:16:16.001Z</time></trkpt><trkpt lat="42.16054163097451" lon="11.940141129684601"><ele>393.0</ele><time>2026-04-18T13:16:17.001Z</time></trkpt><trkpt lat="42.16064439383551" lon="11.940083216951708"><ele>393.0</ele><time>2026-04-18T13:16:18.001Z</time></trkpt><trkpt lat="42.16076463171794" lon="11.940056550574587"><ele>393.0</ele><time>2026-04-18T13:16:19.001Z</time></trkpt><trkpt lat="42.16091178042992" lon="11.940009198385955"><ele>393.0</ele><time>2026-04-18T13:16:20.001Z</time></trkpt><trkpt lat="42.16106470342805" lon="11.939979584710638"><ele>390.25</ele><time>2026-04-18T13:16:21.001Z</time></trkpt><trkpt lat="42.16120129782644" lon="11.939948639314403"><ele>387.5</ele><time>2026-04-18T13:16:22.001Z</time></trkpt><trkpt lat="42.16133506407626" lon="11.93995213205599"><ele>384.75</ele><time>2026-04-18T13:16:23.001Z</time></trkpt><trkpt lat="42.16144797194726" lon="11.939940322283183"><ele>382.0</ele><time>2026-04-18T13:16:24.001Z</time></trkpt><trkpt lat="42.161535917594264" lon="11.939998026628288"><ele>384.75</ele><time>2026-04-18T13:16:25.001Z</time></trkpt><trkpt lat="42.16161447804845" lon="11.940096335766006"><ele>387.5</ele><time>2026-04-18T13:16:26.001Z</time></trkpt><trkpt lat="42.16168797859333" lon="11.940229766226581"><ele>390.25</ele><time>2026-04-18T13:16:27.001Z</time></trkpt><trkpt lat="42.16174290867488" lon="11.94041153841091"><ele>393.0</ele><time>2026-04-18T13:16:28.001Z</time></trkpt><trkpt lat="42.161822329485325" lon="11.940587637692323"><ele>393.0</ele><time>2026-04-18T13:16:29.001Z</time></trkpt><trkpt lat="42.16190608576112" lon="11.940770866232848"><ele>393.0</ele><time>2026-04-18T13:16:30.001Z</time></trkpt><trkpt lat="42.16198139953801" lon="11.940934531530559"><ele>393.0</ele><time>2026-04-18T13:16:31.001Z</time></trkpt><trkpt lat="42.16204138896703" lon="11.941097372605606"><ele>393.0</ele><time>2026-04-18T13:16:32.001Z</time></trkpt><trkpt lat="42.162125679165776" lon="11.941248801778295"><ele>392.0</ele><time>2026-04-18T13:16:33.001Z</time></trkpt><trkpt lat="42.16219199866259" lon="11.941401979706834"><ele>391.0</ele><time>2026-04-18T13:16:34.001Z</time></trkpt><trkpt lat="42.162256357303676" lon="11.941555215364703"><ele>390.0</ele><time>2026-04-18T13:16:35.001Z</time></trkpt><trkpt lat="42.162313922449634" lon="11.941706415529135"><ele>389.0</ele><time>2026-04-18T13:16:36.001Z</time></trkpt><trkpt lat="42.16235553684621" lon="11.94185162471196"><ele>384.0</ele><time>2026-04-18T13:16:37.001Z</time></trkpt><trkpt lat="42.16237494924891" lon="11.94197688495424"><ele>379.0</ele><time>2026-04-18T13:16:38.001Z</time></trkpt><trkpt lat="42.16238191500269" lon="11.942082470590458"><ele>374.0</ele><time>2026-04-18T13:16:39.001Z</time></trkpt><trkpt lat="42.16239294660454" lon="11.942216262212975"><ele>369.0</ele><time>2026-04-18T13:16:41.002Z</time></trkpt><trkpt lat="42.16253097654718" lon="11.942235336816445"><ele>364.0</ele><time>2026-04-18T13:16:44.002Z</time></trkpt><trkpt lat="42.162630705617765" lon="11.94219853128789"><ele>364.0</ele><time>2026-04-18T13:16:45.002Z</time></trkpt><trkpt lat="42.162725292831965" lon="11.94218035361024"><ele>364.0</ele><time>2026-04-18T13:16:46.002Z</time></trkpt><trkpt lat="42.16280517591905" lon="11.9421529372737"><ele>364.0</ele><time>2026-04-18T13:16:47.002Z</time></trkpt><trkpt lat="42.16288744167128" lon="11.942103214602517"><ele>364.0</ele><time>2026-04-18T13:16:48.002Z</time></trkpt><trkpt lat="42.162977907933914" lon="11.942012600676069"><ele>364.0</ele><time>2026-04-18T13:16:49.002Z</time></trkpt><trkpt lat="42.163063359554656" lon="11.941946272859125"><ele>364.0</ele><time>2026-04-18T13:16:50.002Z</time></trkpt><trkpt lat="42.163134444961734" lon="11.941869843337635"><ele>364.0</ele><time>2026-04-18T13:16:51.002Z</time></trkpt><trkpt lat="42.16319589406599" lon="11.94178375843522"><ele>364.0</ele><time>2026-04-18T13:16:52.002Z</time></trkpt><trkpt lat="42.16327697231007" lon="11.941715303787522"><ele>364.0</ele><time>2026-04-18T13:16:53.002Z</time></trkpt><trkpt lat="42.16336679984436" lon="11.941654707641353"><ele>364.0</ele><time>2026-04-18T13:16:54.002Z</time></trkpt><trkpt lat="42.16346196864498" lon="11.941606271536557"><ele>362.0</ele><time>2026-04-18T13:16:55.002Z</time></trkpt><trkpt lat="42.163580282502714" lon="11.941583407233203"><ele>360.0</ele><time>2026-04-18T13:16:56.002Z</time></trkpt><trkpt lat="42.16370550556679" lon="11.94158419195158"><ele>358.0</ele><time>2026-04-18T13:16:57.002Z</time></trkpt><trkpt lat="42.16382214979953" lon="11.941595417817062"><ele>356.0</ele><time>2026-04-18T13:16:58.002Z</time></trkpt><trkpt lat="42.1639259367149" lon="11.941620988438043"><ele>356.0</ele><time>2026-04-18T13:16:59.002Z</time></trkpt><trkpt lat="42.16401305864619" lon="11.941702968097179"><ele>356.0</ele><time>2026-04-18T13:17:00.002Z</time></trkpt><trkpt lat="42.16411628083514" lon="11.941758254969235"><ele>356.0</ele><time>2026-04-18T13:17:01.002Z</time></trkpt><trkpt lat="42.16421431818543" lon="11.941820085786045"><ele>356.0</ele><time>2026-04-18T13:17:02.002Z</time></trkpt><trkpt lat="42.16431691735592" lon="11.94185680280008"><ele>356.0</ele><time>2026-04-18T13:17:03.002Z</time></trkpt><trkpt lat="42.164428553495746" lon="11.941882108801554"><ele>355.4</ele><time>2026-04-18T13:17:04.002Z</time></trkpt><trkpt lat="42.16453562839737" lon="11.941905649358366"><ele>354.8</ele><time>2026-04-18T13:17:05.002Z</time></trkpt><trkpt lat="42.16464012460497" lon="11.941921462419725"><ele>354.2</ele><time>2026-04-18T13:17:06.002Z</time></trkpt><trkpt lat="42.164748203813446" lon="11.941925320532631"><ele>353.59999999999997</ele><time>2026-04-18T13:17:07.002Z</time></trkpt><trkpt lat="42.164860478740486" lon="11.941903052966175"><ele>353.0</ele><time>2026-04-18T13:17:08.002Z</time></trkpt><trkpt lat="42.164975055064986" lon="11.941853622389143"><ele>352.0</ele><time>2026-04-18T13:17:09.002Z</time></trkpt><trkpt lat="42.165083449993766" lon="11.941782415658961"><ele>351.0</ele><time>2026-04-18T13:17:10.002Z</time></trkpt><trkpt lat="42.16518746186016" lon="11.941712481230487"><ele>350.0</ele><time>2026-04-18T13:17:11.002Z</time></trkpt><trkpt lat="42.16528356015096" lon="11.941656019302567"><ele>349.0</ele><time>2026-04-18T13:17:12.002Z</time></trkpt><trkpt lat="42.16537486388872" lon="11.941606686927901"><ele>348.0</ele><time>2026-04-18T13:17:13.002Z</time></trkpt><trkpt lat="42.16547338586634" lon="11.941563656858436"><ele>347.0</ele><time>2026-04-18T13:17:14.002Z</time></trkpt><trkpt lat="42.165577660716295" lon="11.941550391673065"><ele>346.0</ele><time>2026-04-18T13:17:15.002Z</time></trkpt><trkpt lat="42.165682055500305" lon="11.94152400021702"><ele>345.0</ele><time>2026-04-18T13:17:16.002Z</time></trkpt><trkpt lat="42.16579482412647" lon="11.94149667447945"><ele>344.0</ele><time>2026-04-18T13:17:17.002Z</time></trkpt><trkpt lat="42.165904257271904" lon="11.941463688330773"><ele>343.0</ele><time>2026-04-18T13:17:18.002Z</time></trkpt><trkpt lat="42.16602348870551" lon="11.941461583097723"><ele>343.0</ele><time>2026-04-18T13:17:19.002Z</time></trkpt><trkpt lat="42.16614428660007" lon="11.941401331600531"><ele>343.0</ele><time>2026-04-18T13:17:20.002Z</time></trkpt><trkpt lat="42.166254804007224" lon="11.941355035847067"><ele>343.0</ele><time>2026-04-18T13:17:21.002Z</time></trkpt><trkpt lat="42.16635835163655" lon="11.941306895434698"><ele>343.0</ele><time>2026-04-18T13:17:22.002Z</time></trkpt><trkpt lat="42.16645699542813" lon="11.941248342860302"><ele>343.79999999999995</ele><time>2026-04-18T13:17:23.002Z</time></trkpt><trkpt lat="42.166564647262135" lon="11.941191079059696"><ele>344.6</ele><time>2026-04-18T13:17:24.002Z</time></trkpt><trkpt lat="42.166676430829526" lon="11.941167678768968"><ele>345.4</ele><time>2026-04-18T13:17:25.002Z</time></trkpt><trkpt lat="42.16676935445821" lon="11.941130401853671"><ele>346.20000000000005</ele><time>2026-04-18T13:17:26.001Z</time></trkpt><trkpt lat="42.16687439590411" lon="11.94109980784557"><ele>347.0</ele><time>2026-04-18T13:17:27.001Z</time></trkpt><trkpt lat="42.16698205131937" lon="11.941087054737405"><ele>347.0</ele><time>2026-04-18T13:17:28.001Z</time></trkpt><trkpt lat="42.16710088796574" lon="11.94109618901027"><ele>347.0</ele><time>2026-04-18T13:17:29.001Z</time></trkpt><trkpt lat="42.16720898355502" lon="11.941115027606552"><ele>347.0</ele><time>2026-04-18T13:17:30.001Z</time></trkpt><trkpt lat="42.16732324343264" lon="11.94114238991422"><ele>347.0</ele><time>2026-04-18T13:17:31.001Z</time></trkpt><trkpt lat="42.16743850188869" lon="11.941169795371119"><ele>346.5</ele><time>2026-04-18T13:17:32.001Z</time></trkpt><trkpt lat="42.167554655709154" lon="11.94119060081052"><ele>346.0</ele><time>2026-04-18T13:17:33.001Z</time></trkpt><trkpt lat="42.167669341527" lon="11.94119309648662"><ele>345.5</ele><time>2026-04-18T13:17:34.001Z</time></trkpt><trkpt lat="42.167791545221405" lon="11.9412060436403"><ele>345.0</ele><time>2026-04-18T13:17:35.001Z</time></trkpt><trkpt lat="42.16791152189271" lon="11.941218054476607"><ele>345.0</ele><time>2026-04-18T13:17:36.001Z</time></trkpt><trkpt lat="42.16803701210595" lon="11.941230632935255"><ele>345.0</ele><time>2026-04-18T13:17:37.001Z</time></trkpt><trkpt lat="42.16815967700077" lon="11.94122979785589"><ele>345.0</ele><time>2026-04-18T13:17:38.001Z</time></trkpt><trkpt lat="42.16828584793495" lon="11.94120847465801"><ele>345.0</ele><time>2026-04-18T13:17:39.001Z</time></trkpt><trkpt lat="42.16840489454154" lon="11.941167542065012"><ele>342.75</ele><time>2026-04-18T13:17:40.001Z</time></trkpt><trkpt lat="42.16853035078183" lon="11.941153922327745"><ele>340.5</ele><time>2026-04-18T13:17:41.001Z</time></trkpt><trkpt lat="42.168646415285835" lon="11.941140228670026"><ele>338.25</ele><time>2026-04-18T13:17:42.001Z</time></trkpt><trkpt lat="42.168765398469915" lon="11.941124049679829"><ele>336.0</ele><time>2026-04-18T13:17:43.001Z</time></trkpt><trkpt lat="42.16887613436881" lon="11.9411942403761"><ele>336.0</ele><time>2026-04-18T13:17:44.001Z</time></trkpt><trkpt lat="42.168982871641596" lon="11.941259116649857"><ele>336.0</ele><time>2026-04-18T13:17:45.001Z</time></trkpt><trkpt lat="42.16908364029494" lon="11.94132607152515"><ele>336.0</ele><time>2026-04-18T13:17:46.001Z</time></trkpt><trkpt lat="42.169185696754916" lon="11.941373924016222"><ele>336.0</ele><time>2026-04-18T13:17:47.001Z</time></trkpt><trkpt lat="42.16927177971094" lon="11.941466940697271"><ele>336.0</ele><time>2026-04-18T13:17:48.001Z</time></trkpt><trkpt lat="42.16935267751889" lon="11.941535086540213"><ele>336.8</ele><time>2026-04-18T13:17:49.001Z</time></trkpt><trkpt lat="42.16942984052907" lon="11.941612220582227"><ele>337.6</ele><time>2026-04-18T13:17:50.001Z</time></trkpt><trkpt lat="42.16950909753018" lon="11.94170244074492"><ele>338.4</ele><time>2026-04-18T13:17:51.001Z</time></trkpt><trkpt lat="42.169581283795154" lon="11.941805420414791"><ele>339.2</ele><time>2026-04-18T13:17:52.001Z</time></trkpt><trkpt lat="42.16965644050372" lon="11.941918316480521"><ele>340.0</ele><time>2026-04-18T13:17:53.001Z</time></trkpt><trkpt lat="42.16970771218513" lon="11.942051315253833"><ele>340.0</ele><time>2026-04-18T13:17:54.001Z</time></trkpt><trkpt lat="42.16974380593469" lon="11.942177272918922"><ele>340.0</ele><time>2026-04-18T13:17:55.001Z</time></trkpt><trkpt lat="42.16976095706348" lon="11.942282731934197"><ele>340.0</ele><time>2026-04-18T13:17:56.001Z</time></trkpt><trkpt lat="42.169796525160685" lon="11.94236383289831"><ele>340.0</ele><time>2026-04-18T13:17:58.001Z</time></trkpt><trkpt lat="42.169865711651816" lon="11.942410714554592"><ele>340.0</ele><time>2026-04-18T13:18:01.001Z</time></trkpt><trkpt lat="42.169923275378856" lon="11.942350638353597"><ele>340.0</ele><time>2026-04-18T13:18:02.001Z</time></trkpt><trkpt lat="42.1700406306527" lon="11.942349792331195"><ele>338.16666666666663</ele><time>2026-04-18T13:18:04.001Z</time></trkpt><trkpt lat="42.17007890543732" lon="11.942424444901443"><ele>336.3333333333333</ele><time>2026-04-18T13:18:05.001Z</time></trkpt><trkpt lat="42.17013421384567" lon="11.94250349234486"><ele>334.5</ele><time>2026-04-18T13:18:07.001Z</time></trkpt><trkpt lat="42.17018697145881" lon="11.942550316823901"><ele>332.6666666666667</ele><time>2026-04-18T13:18:08.001Z</time></trkpt><trkpt lat="42.17025644242514" lon="11.94257926359578"><ele>330.83333333333337</ele><time>2026-04-18T13:18:09.001Z</time></trkpt><trkpt lat="42.170334655945936" lon="11.942632307220654"><ele>329.0</ele><time>2026-04-18T13:18:10.001Z</time></trkpt><trkpt lat="42.170423654320835" lon="11.942676422864759"><ele>329.0</ele><time>2026-04-18T13:18:11.001Z</time></trkpt><trkpt lat="42.17051428822234" lon="11.942741713112362"><ele>329.0</ele><time>2026-04-18T13:18:12.001Z</time></trkpt><trkpt lat="42.17060653861201" lon="11.94279053485718"><ele>329.0</ele><time>2026-04-18T13:18:13.001Z</time></trkpt><trkpt lat="42.17070708341602" lon="11.942842172685651"><ele>329.0</ele><time>2026-04-18T13:18:14.001Z</time></trkpt><trkpt lat="42.170802351408476" lon="11.942902432033325"><ele>329.0</ele><time>2026-04-18T13:18:15.001Z</time></trkpt><trkpt lat="42.170900813587025" lon="11.942976847479512"><ele>325.75</ele><time>2026-04-18T13:18:16.001Z</time></trkpt><trkpt lat="42.170980976519395" lon="11.943079636189188"><ele>322.5</ele><time>2026-04-18T13:18:17.001Z</time></trkpt><trkpt lat="42.17106719565645" lon="11.943190854356285"><ele>319.25</ele><time>2026-04-18T13:18:18.001Z</time></trkpt><trkpt lat="42.17115861606057" lon="11.943282985992521"><ele>316.0</ele><time>2026-04-18T13:18:19.001Z</time></trkpt><trkpt lat="42.17126943618642" lon="11.943366755704977"><ele>315.0</ele><time>2026-04-18T13:18:20.001Z</time></trkpt><trkpt lat="42.171381799590044" lon="11.943458497306645"><ele>314.0</ele><time>2026-04-18T13:18:21.001Z</time></trkpt><trkpt lat="42.17148209352686" lon="11.943535554853021"><ele>313.0</ele><time>2026-04-18T13:18:22.001Z</time></trkpt><trkpt lat="42.17158671981652" lon="11.943600453645303"><ele>312.0</ele><time>2026-04-18T13:18:23.001Z</time></trkpt><trkpt lat="42.171678975606746" lon="11.943705299949096"><ele>312.0</ele><time>2026-04-18T13:18:24.001Z</time></trkpt><trkpt lat="42.171764751743474" lon="11.943818427740702"><ele>312.0</ele><time>2026-04-18T13:18:25.001Z</time></trkpt><trkpt lat="42.171837013207885" lon="11.94396925791594"><ele>312.0</ele><time>2026-04-18T13:18:26.001Z</time></trkpt><trkpt lat="42.17191057483795" lon="11.944128622073809"><ele>312.0</ele><time>2026-04-18T13:18:27.001Z</time></trkpt><trkpt lat="42.17200099855158" lon="11.944271884524515"><ele>312.75</ele><time>2026-04-18T13:18:28.001Z</time></trkpt><trkpt lat="42.17210387328086" lon="11.944411258046962"><ele>313.5</ele><time>2026-04-18T13:18:29.001Z</time></trkpt><trkpt lat="42.17220582917284" lon="11.944556642565718"><ele>314.25</ele><time>2026-04-18T13:18:30.001Z</time></trkpt><trkpt lat="42.17229501167776" lon="11.944702850152758"><ele>315.0</ele><time>2026-04-18T13:18:31.001Z</time></trkpt><trkpt lat="42.1723651376818" lon="11.94484519769629"><ele>314.8</ele><time>2026-04-18T13:18:32.001Z</time></trkpt><trkpt lat="42.172432740260284" lon="11.94498598747496"><ele>314.6</ele><time>2026-04-18T13:18:33.001Z</time></trkpt><trkpt lat="42.1724808034569" lon="11.94509928348262"><ele>314.4</ele><time>2026-04-18T13:18:34.001Z</time></trkpt><trkpt lat="42.17252388650607" lon="11.94519961123355"><ele>314.2</ele><time>2026-04-18T13:18:35.001Z</time></trkpt><trkpt lat="42.17256056630413" lon="11.945286065953562"><ele>314.0</ele><time>2026-04-18T13:18:36.001Z</time></trkpt><trkpt lat="42.172607554080614" lon="11.945363542955098"><ele>314.0</ele><time>2026-04-18T13:18:38.001Z</time></trkpt><trkpt lat="42.17271848554329" lon="11.945293242439119"><ele>314.0</ele><time>2026-04-18T13:18:44.001Z</time></trkpt><trkpt lat="42.17268958011426" lon="11.945148423367066"><ele>314.0</ele><time>2026-04-18T13:18:46.001Z</time></trkpt><trkpt lat="42.172667960059165" lon="11.945005120524984"><ele>314.0</ele><time>2026-04-18T13:18:48.002Z</time></trkpt><trkpt lat="42.172653383817476" lon="11.944915707689578"><ele>314.0</ele><time>2026-04-18T13:18:49.002Z</time></trkpt><trkpt lat="42.17263749015691" lon="11.94481771389335"><ele>315.83333333333337</ele><time>2026-04-18T13:18:50.002Z</time></trkpt><trkpt lat="42.172619772114395" lon="11.944703804717184"><ele>317.6666666666667</ele><time>2026-04-18T13:18:51.002Z</time></trkpt><trkpt lat="42.172605381890925" lon="11.944611290046097"><ele>319.5</ele><time>2026-04-18T13:18:52.002Z</time></trkpt><trkpt lat="42.172596854296025" lon="11.944470056035659"><ele>321.3333333333333</ele><time>2026-04-18T13:18:54.002Z</time></trkpt><trkpt lat="42.17265253372265" lon="11.944367988165585"><ele>323.16666666666663</ele><time>2026-04-18T13:18:56.002Z</time></trkpt><trkpt lat="42.172736820991844" lon="11.944398311117034"><ele>325.0</ele><time>2026-04-18T13:18:58.002Z</time></trkpt><trkpt lat="42.17283047787995" lon="11.944452717831696"><ele>325.0</ele><time>2026-04-18T13:19:00.002Z</time></trkpt><trkpt lat="42.17283135492559" lon="11.9445895548177"><ele>325.0</ele><time>2026-04-18T13:19:01.002Z</time></trkpt><trkpt lat="42.1728637710009" lon="11.9446798609902"><ele>325.0</ele><time>2026-04-18T13:19:02.002Z</time></trkpt><trkpt lat="42.172897290682315" lon="11.944777578840014"><ele>325.0</ele><time>2026-04-18T13:19:03.002Z</time></trkpt><trkpt lat="42.17293885199286" lon="11.944882485310277"><ele>325.0</ele><time>2026-04-18T13:19:04.002Z</time></trkpt><trkpt lat="42.172992243705465" lon="11.944986726278907"><ele>325.0</ele><time>2026-04-18T13:19:05.002Z</time></trkpt><trkpt lat="42.17305182882525" lon="11.945084880104579"><ele>327.0</ele><time>2026-04-18T13:19:06.002Z</time></trkpt><trkpt lat="42.17311065413667" lon="11.945160349087368"><ele>329.0</ele><time>2026-04-18T13:19:07.002Z</time></trkpt><trkpt lat="42.17318025922821" lon="11.945224641650805"><ele>331.0</ele><time>2026-04-18T13:19:08.002Z</time></trkpt><trkpt lat="42.173273123970255" lon="11.945242686799395"><ele>333.0</ele><time>2026-04-18T13:19:09.002Z</time></trkpt><trkpt lat="42.1733677340074" lon="11.945251599680505"><ele>335.0</ele><time>2026-04-18T13:19:10.002Z</time></trkpt><trkpt lat="42.17346572643965" lon="11.945280678346096"><ele>335.0</ele><time>2026-04-18T13:19:11.002Z</time></trkpt><trkpt lat="42.173575317749474" lon="11.945339005072226"><ele>335.0</ele><time>2026-04-18T13:19:12.002Z</time></trkpt><trkpt lat="42.17369164267126" lon="11.945387085050855"><ele>335.0</ele><time>2026-04-18T13:19:13.002Z</time></trkpt><trkpt lat="42.173808572336206" lon="11.945437379419271"><ele>335.0</ele><time>2026-04-18T13:19:14.002Z</time></trkpt><trkpt lat="42.17391068366878" lon="11.945477911528393"><ele>335.0</ele><time>2026-04-18T13:19:15.002Z</time></trkpt><trkpt lat="42.17401826746213" lon="11.94552004685655"><ele>335.0</ele><time>2026-04-18T13:19:16.002Z</time></trkpt><trkpt lat="42.174130049660384" lon="11.945567798239145"><ele>335.0</ele><time>2026-04-18T13:19:17.002Z</time></trkpt><trkpt lat="42.17423233656745" lon="11.94561448481661"><ele>335.0</ele><time>2026-04-18T13:19:18.002Z</time></trkpt><trkpt lat="42.17433012346647" lon="11.945662635575422"><ele>335.0</ele><time>2026-04-18T13:19:19.002Z</time></trkpt><trkpt lat="42.174424050171574" lon="11.94571316246548"><ele>339.0</ele><time>2026-04-18T13:19:20.002Z</time></trkpt><trkpt lat="42.17452278728312" lon="11.945768308837279"><ele>343.0</ele><time>2026-04-18T13:19:21.002Z</time></trkpt><trkpt lat="42.17462599814402" lon="11.945815760028811"><ele>347.0</ele><time>2026-04-18T13:19:22.002Z</time></trkpt><trkpt lat="42.174715510731886" lon="11.945889545557536"><ele>351.0</ele><time>2026-04-18T13:19:23.002Z</time></trkpt><trkpt lat="42.17478532632038" lon="11.945970592773746"><ele>355.0</ele><time>2026-04-18T13:19:24.002Z</time></trkpt><trkpt lat="42.17482122454512" lon="11.946077259390876"><ele>359.0</ele><time>2026-04-18T13:19:25.002Z</time></trkpt><trkpt lat="42.174882155223074" lon="11.946236111094818"><ele>363.0</ele><time>2026-04-18T13:19:27.002Z</time></trkpt><trkpt lat="42.17490326526905" lon="11.946319382671941"><ele>367.0</ele><time>2026-04-18T13:19:28.002Z</time></trkpt><trkpt lat="42.17500128519497" lon="11.946386224289341"><ele>371.0</ele><time>2026-04-18T13:19:30.002Z</time></trkpt><trkpt lat="42.17509634840216" lon="11.946320785288584"><ele>375.0</ele><time>2026-04-18T13:19:32.001Z</time></trkpt><trkpt lat="42.17513363002673" lon="11.946218553287432"><ele>375.0</ele><time>2026-04-18T13:19:33.001Z</time></trkpt><trkpt lat="42.17519357519454" lon="11.946140825126474"><ele>375.0</ele><time>2026-04-18T13:19:34.001Z</time></trkpt><trkpt lat="42.175251509646515" lon="11.946036222207901"><ele>375.0</ele><time>2026-04-18T13:19:35.001Z</time></trkpt><trkpt lat="42.175304308990185" lon="11.94592943054574"><ele>375.0</ele><time>2026-04-18T13:19:36.001Z</time></trkpt><trkpt lat="42.17535098019355" lon="11.94582084660909"><ele>375.0</ele><time>2026-04-18T13:19:37.001Z</time></trkpt><trkpt lat="42.175398042676484" lon="11.945717357802893"><ele>374.2</ele><time>2026-04-18T13:19:38.001Z</time></trkpt><trkpt lat="42.17547867881656" lon="11.945611811582074"><ele>373.4</ele><time>2026-04-18T13:19:40.001Z</time></trkpt><trkpt lat="42.17558830036706" lon="11.945566642784096"><ele>372.6</ele><time>2026-04-18T13:19:42.001Z</time></trkpt><trkpt lat="42.17566214643756" lon="11.945519239543726"><ele>371.8</ele><time>2026-04-18T13:19:43.001Z</time></trkpt><trkpt lat="42.17572402933314" lon="11.945443274940319"><ele>371.0</ele><time>2026-04-18T13:19:44.001Z</time></trkpt><trkpt lat="42.175782685772894" lon="11.945376510563895"><ele>373.6666666666667</ele><time>2026-04-18T13:19:45.001Z</time></trkpt><trkpt lat="42.17584012003468" lon="11.945300779046384"><ele>376.33333333333337</ele><time>2026-04-18T13:19:46.001Z</time></trkpt><trkpt lat="42.17589730244618" lon="11.945219983226217"><ele>379.0</ele><time>2026-04-18T13:19:47.001Z</time></trkpt><trkpt lat="42.175959169270975" lon="11.945129879227744"><ele>381.6666666666667</ele><time>2026-04-18T13:19:48.001Z</time></trkpt><trkpt lat="42.17602163103475" lon="11.945040838298258"><ele>384.3333333333333</ele><time>2026-04-18T13:19:49.001Z</time></trkpt><trkpt lat="42.17608543526213" lon="11.944950799620655"><ele>387.0</ele><time>2026-04-18T13:19:50.001Z</time></trkpt><trkpt lat="42.17613187770642" lon="11.944848413721648"><ele>388.0</ele><time>2026-04-18T13:19:51.001Z</time></trkpt><trkpt lat="42.176174585462014" lon="11.944774041382377"><ele>389.0</ele><time>2026-04-18T13:19:52.001Z</time></trkpt><trkpt lat="42.17619445901988" lon="11.944690681936143"><ele>390.0</ele><time>2026-04-18T13:19:53.001Z</time></trkpt><trkpt lat="42.17619661229305" lon="11.944597558523876"><ele>391.0</ele><time>2026-04-18T13:19:54.001Z</time></trkpt><trkpt lat="42.17618170211492" lon="11.944486914724772"><ele>392.0</ele><time>2026-04-18T13:19:55.001Z</time></trkpt><trkpt lat="42.17616410497023" lon="11.944371647679487"><ele>393.0</ele><time>2026-04-18T13:19:56.001Z</time></trkpt><trkpt lat="42.1761220749574" lon="11.944231175069554"><ele>394.25</ele><time>2026-04-18T13:19:57.001Z</time></trkpt><trkpt lat="42.17606332928743" lon="11.944074245548936"><ele>395.5</ele><time>2026-04-18T13:19:58.001Z</time></trkpt><trkpt lat="42.175980839742046" lon="11.943918393662397"><ele>396.75</ele><time>2026-04-18T13:19:59.001Z</time></trkpt><trkpt lat="42.1759115048895" lon="11.943751198600177"><ele>398.0</ele><time>2026-04-18T13:20:00.001Z</time></trkpt><trkpt lat="42.17586045911721" lon="11.943613053142544"><ele>398.0</ele><time>2026-04-18T13:20:01.001Z</time></trkpt><trkpt lat="42.17581980498237" lon="11.9434732165499"><ele>398.0</ele><time>2026-04-18T13:20:02.001Z</time></trkpt><trkpt lat="42.175822729754096" lon="11.943317809947278"><ele>398.0</ele><time>2026-04-18T13:20:03.001Z</time></trkpt><trkpt lat="42.175814161434786" lon="11.943172278146118"><ele>398.0</ele><time>2026-04-18T13:20:04.001Z</time></trkpt><trkpt lat="42.17581933625572" lon="11.94302258798025"><ele>398.0</ele><time>2026-04-18T13:20:05.001Z</time></trkpt><trkpt lat="42.175833024876646" lon="11.942899875717007"><ele>398.66666666666663</ele><time>2026-04-18T13:20:06.001Z</time></trkpt><trkpt lat="42.17585338639754" lon="11.942783326415585"><ele>399.3333333333333</ele><time>2026-04-18T13:20:07.001Z</time></trkpt><trkpt lat="42.17589051494839" lon="11.94265866334794"><ele>400.0</ele><time>2026-04-18T13:20:08.001Z</time></trkpt><trkpt lat="42.17594695560643" lon="11.94254001942452"><ele>400.66666666666663</ele><time>2026-04-18T13:20:09.001Z</time></trkpt><trkpt lat="42.17600127674969" lon="11.942462280681927"><ele>401.3333333333333</ele><time>2026-04-18T13:20:10.001Z</time></trkpt><trkpt lat="42.176042493833876" lon="11.942385106056587"><ele>402.0</ele><time>2026-04-18T13:20:11.001Z</time></trkpt><trkpt lat="42.176138304104434" lon="11.942309006224022"><ele>402.0</ele><time>2026-04-18T13:20:13.001Z</time></trkpt><trkpt lat="42.176191269995904" lon="11.94225922734463"><ele>402.0</ele><time>2026-04-18T13:20:14.001Z</time></trkpt><trkpt lat="42.17625452473468" lon="11.942207517731054"><ele>402.0</ele><time>2026-04-18T13:20:15.001Z</time></trkpt><trkpt lat="42.17632477298731" lon="11.94215692014656"><ele>402.0</ele><time>2026-04-18T13:20:16.001Z</time></trkpt><trkpt lat="42.17639759318064" lon="11.942111569582377"><ele>402.0</ele><time>2026-04-18T13:20:17.001Z</time></trkpt><trkpt lat="42.17647387243183" lon="11.942068281895374"><ele>402.0</ele><time>2026-04-18T13:20:18.001Z</time></trkpt><trkpt lat="42.17655058124335" lon="11.94203370200415"><ele>403.6</ele><time>2026-04-18T13:20:19.001Z</time></trkpt><trkpt lat="42.17661358789185" lon="11.941992098683837"><ele>405.20000000000005</ele><time>2026-04-18T13:20:20.001Z</time></trkpt><trkpt lat="42.17673128334779" lon="11.941973489843834"><ele>406.8</ele><time>2026-04-18T13:20:22.001Z</time></trkpt><trkpt lat="42.17682804877672" lon="11.941983502952008"><ele>408.4</ele><time>2026-04-18T13:20:24.001Z</time></trkpt><trkpt lat="42.17692722407772" lon="11.941984693689811"><ele>410.0</ele><time>2026-04-18T13:20:31.001Z</time></trkpt><trkpt lat="42.1770433222453" lon="11.9419932374614"><ele>410.0</ele><time>2026-04-18T13:20:33.001Z</time></trkpt><trkpt lat="42.177127392236464" lon="11.942002388846424"><ele>410.0</ele><time>2026-04-18T13:20:34.001Z</time></trkpt><trkpt lat="42.17721929382378" lon="11.942014730789548"><ele>410.0</ele><time>2026-04-18T13:20:35.001Z</time></trkpt><trkpt lat="42.17730608619669" lon="11.942026386589685"><ele>410.0</ele><time>2026-04-18T13:20:36.001Z</time></trkpt><trkpt lat="42.17740137890641" lon="11.942040419145775"><ele>410.0</ele><time>2026-04-18T13:20:37.001Z</time></trkpt><trkpt lat="42.17750744616122" lon="11.942057789280536"><ele>409.8</ele><time>2026-04-18T13:20:38.001Z</time></trkpt><trkpt lat="42.177615976182445" lon="11.942067345851557"><ele>409.6</ele><time>2026-04-18T13:20:39.001Z</time></trkpt><trkpt lat="42.17771992748811" lon="11.942096220099574"><ele>409.4</ele><time>2026-04-18T13:20:40.001Z</time></trkpt><trkpt lat="42.1778156339964" lon="11.942113662264592"><ele>409.2</ele><time>2026-04-18T13:20:41.001Z</time></trkpt><trkpt lat="42.17791808543001" lon="11.942124090514993"><ele>409.0</ele><time>2026-04-18T13:20:42.001Z</time></trkpt><trkpt lat="42.17802026301833" lon="11.94213451307831"><ele>409.0</ele><time>2026-04-18T13:20:43.001Z</time></trkpt><trkpt lat="42.17812172751059" lon="11.942146899776004"><ele>409.0</ele><time>2026-04-18T13:20:44.001Z</time></trkpt><trkpt lat="42.17822945667957" lon="11.942164503047962"><ele>409.0</ele><time>2026-04-18T13:20:45.001Z</time></trkpt><trkpt lat="42.17833789213717" lon="11.942172792883552"><ele>409.0</ele><time>2026-04-18T13:20:46.001Z</time></trkpt><trkpt lat="42.17844316980663" lon="11.942170490195299"><ele>409.0</ele><time>2026-04-18T13:20:47.001Z</time></trkpt><trkpt lat="42.17855758598383" lon="11.942180644848563"><ele>410.75</ele><time>2026-04-18T13:20:48.001Z</time></trkpt><trkpt lat="42.178669811316915" lon="11.942206574777693"><ele>412.5</ele><time>2026-04-18T13:20:49.001Z</time></trkpt><trkpt lat="42.178786700060506" lon="11.942210871779112"><ele>414.25</ele><time>2026-04-18T13:20:50.001Z</time></trkpt><trkpt lat="42.178902708865124" lon="11.94221444373837"><ele>416.0</ele><time>2026-04-18T13:20:51.001Z</time></trkpt><trkpt lat="42.17902011263266" lon="11.942216526757871"><ele>417.75</ele><time>2026-04-18T13:20:52.001Z</time></trkpt><trkpt lat="42.17913073787695" lon="11.942218385423832"><ele>419.5</ele><time>2026-04-18T13:20:53.001Z</time></trkpt><trkpt lat="42.17925251717718" lon="11.94222043149963"><ele>421.25</ele><time>2026-04-18T13:20:54.001Z</time></trkpt><trkpt lat="42.179367764176256" lon="11.942222367820861"><ele>423.0</ele><time>2026-04-18T13:20:55.001Z</time></trkpt><trkpt lat="42.17948263545314" lon="11.942223338144743"><ele>423.0</ele><time>2026-04-18T13:20:56.001Z</time></trkpt><trkpt lat="42.179595576899096" lon="11.942224028428198"><ele>423.0</ele><time>2026-04-18T13:20:57.001Z</time></trkpt><trkpt lat="42.179713035020264" lon="11.942211002611725"><ele>423.0</ele><time>2026-04-18T13:20:58.001Z</time></trkpt><trkpt lat="42.17983090934726" lon="11.942212836611104"><ele>423.0</ele><time>2026-04-18T13:20:59.001Z</time></trkpt><trkpt lat="42.17994111117812" lon="11.942202557839252"><ele>425.0</ele><time>2026-04-18T13:21:00.001Z</time></trkpt><trkpt lat="42.18006037552588" lon="11.94219140962301"><ele>427.0</ele><time>2026-04-18T13:21:01.001Z</time></trkpt><trkpt lat="42.180167746860405" lon="11.942172531040523"><ele>428.99999999999994</ele><time>2026-04-18T13:21:02.001Z</time></trkpt><trkpt lat="42.180275672184635" lon="11.942147510618703"><ele>431.0</ele><time>2026-04-18T13:21:03.001Z</time></trkpt><trkpt lat="42.18038217104549" lon="11.942112727750143"><ele>433.0</ele><time>2026-04-18T13:21:04.001Z</time></trkpt><trkpt lat="42.180494022783" lon="11.942070533781793"><ele>433.0</ele><time>2026-04-18T13:21:05.001Z</time></trkpt><trkpt lat="42.18061050881058" lon="11.942039613467786"><ele>433.0</ele><time>2026-04-18T13:21:06.001Z</time></trkpt><trkpt lat="42.18072217750626" lon="11.942009334078259"><ele>433.0</ele><time>2026-04-18T13:21:07.001Z</time></trkpt><trkpt lat="42.18083666001315" lon="11.941984546559139"><ele>433.0</ele><time>2026-04-18T13:21:08.001Z</time></trkpt><trkpt lat="42.18095208746322" lon="11.941943461548572"><ele>435.0</ele><time>2026-04-18T13:21:09.001Z</time></trkpt><trkpt lat="42.18106027111996" lon="11.941892560298417"><ele>436.99999999999994</ele><time>2026-04-18T13:21:10.002Z</time></trkpt><trkpt lat="42.1811459247201" lon="11.941845457388192"><ele>438.99999999999994</ele><time>2026-04-18T13:21:11.002Z</time></trkpt><trkpt lat="42.18122148753318" lon="11.941812277940809"><ele>441.0</ele><time>2026-04-18T13:21:12.002Z</time></trkpt><trkpt lat="42.18133784432318" lon="11.941781392229363"><ele>443.0</ele><time>2026-04-18T13:21:14.002Z</time></trkpt><trkpt lat="42.18144615769193" lon="11.941751805415873"><ele>444.59999999999997</ele><time>2026-04-18T13:21:16.002Z</time></trkpt><trkpt lat="42.18156343988353" lon="11.94174311640221"><ele>446.19999999999993</ele><time>2026-04-18T13:21:18.002Z</time></trkpt><trkpt lat="42.18168423624444" lon="11.94178534360094"><ele>447.8</ele><time>2026-04-18T13:21:20.002Z</time></trkpt><trkpt lat="42.18176359548146" lon="11.94182610253448"><ele>449.4</ele><time>2026-04-18T13:21:21.002Z</time></trkpt><trkpt lat="42.1818339669871" lon="11.941862651879102"><ele>451.0</ele><time>2026-04-18T13:21:22.002Z</time></trkpt><trkpt lat="42.18190825326231" lon="11.941902348010691"><ele>451.00000000000006</ele><time>2026-04-18T13:21:23.002Z</time></trkpt><trkpt lat="42.181980901294004" lon="11.941941418418267"><ele>451.0</ele><time>2026-04-18T13:21:24.002Z</time></trkpt><trkpt lat="42.182066428938704" lon="11.94198577150325"><ele>451.0</ele><time>2026-04-18T13:21:25.002Z</time></trkpt><trkpt lat="42.18216410859565" lon="11.942015708973374"><ele>451.0</ele><time>2026-04-18T13:21:26.002Z</time></trkpt><trkpt lat="42.18226611418387" lon="11.94200929556739"><ele>451.00000000000006</ele><time>2026-04-18T13:21:27.002Z</time></trkpt><trkpt lat="42.18233128511735" lon="11.94202654745109"><ele>451.0</ele><time>2026-04-18T13:21:28.002Z</time></trkpt><trkpt lat="42.182434894010136" lon="11.942084188322069"><ele>450.1666666666667</ele><time>2026-04-18T13:21:30.002Z</time></trkpt><trkpt lat="42.18251340089899" lon="11.942137740108242"><ele>449.33333333333337</ele><time>2026-04-18T13:21:32.002Z</time></trkpt><trkpt lat="42.182585053540414" lon="11.942205666112772"><ele>448.5</ele><time>2026-04-18T13:21:34.002Z</time></trkpt><trkpt lat="42.18264613326497" lon="11.942271945598545"><ele>447.66666666666663</ele><time>2026-04-18T13:21:36.002Z</time></trkpt><trkpt lat="42.182723345672635" lon="11.942341269609635"><ele>446.8333333333333</ele><time>2026-04-18T13:21:38Z</time></trkpt><trkpt lat="42.182786811402224" lon="11.942413308314547"><ele>446.0</ele><time>2026-04-18T13:21:40Z</time></trkpt><trkpt lat="42.18284581463538" lon="11.942467161778593"><ele>445.99999999999994</ele><time>2026-04-18T13:21:42Z</time></trkpt><trkpt lat="42.182888316120724" lon="11.942538305324264"><ele>446.0</ele><time>2026-04-18T13:21:44Z</time></trkpt><trkpt lat="42.182982452612784" lon="11.942629328865475"><ele>446.0</ele><time>2026-04-18T13:21:46Z</time></trkpt><trkpt lat="42.183058059047426" lon="11.942681519517961"><ele>446.0</ele><time>2026-04-18T13:21:47Z</time></trkpt><trkpt lat="42.183124477266745" lon="11.942766489022235"><ele>445.99999999999994</ele><time>2026-04-18T13:21:48Z</time></trkpt><trkpt lat="42.18317800217731" lon="11.942839330054424"><ele>446.0</ele><time>2026-04-18T13:21:49Z</time></trkpt><trkpt lat="42.183210722394946" lon="11.942923286250242"><ele>443.16666666666663</ele><time>2026-04-18T13:21:50Z</time></trkpt><trkpt lat="42.183254803032945" lon="11.943021216942801"><ele>440.3333333333333</ele><time>2026-04-18T13:21:52Z</time></trkpt><trkpt lat="42.18319831828516" lon="11.942894007043467"><ele>437.5</ele><time>2026-04-18T13:22:11Z</time></trkpt><trkpt lat="42.183158418462774" lon="11.942766013073541"><ele>434.66666666666663</ele><time>2026-04-18T13:22:13Z</time></trkpt><trkpt lat="42.18310829326873" lon="11.942710858448594"><ele>431.8333333333333</ele><time>2026-04-18T13:22:14Z</time></trkpt><trkpt lat="42.18304379563785" lon="11.942664719654804"><ele>429.0</ele><time>2026-04-18T13:22:15Z</time></trkpt><trkpt lat="42.18298071450673" lon="11.942599349160249"><ele>431.8333333333333</ele><time>2026-04-18T13:22:16Z</time></trkpt><trkpt lat="42.18291265567379" lon="11.942519434914695"><ele>434.66666666666663</ele><time>2026-04-18T13:22:17Z</time></trkpt><trkpt lat="42.18285034532924" lon="11.942429280403077"><ele>437.5</ele><time>2026-04-18T13:22:18.001Z</time></trkpt><trkpt lat="42.18279295535344" lon="11.942350804036925"><ele>440.3333333333333</ele><time>2026-04-18T13:22:19.001Z</time></trkpt><trkpt lat="42.1827269824897" lon="11.942279255396375"><ele>443.16666666666663</ele><time>2026-04-18T13:22:20.001Z</time></trkpt><trkpt lat="42.18265484769364" lon="11.94221902870476"><ele>446.0</ele><time>2026-04-18T13:22:21.001Z</time></trkpt><trkpt lat="42.18258122615967" lon="11.942152844742274"><ele>445.99999999999994</ele><time>2026-04-18T13:22:22.001Z</time></trkpt><trkpt lat="42.18251675114257" lon="11.942086438575783"><ele>446.0</ele><time>2026-04-18T13:22:23.001Z</time></trkpt><trkpt lat="42.18244570382802" lon="11.942030371443908"><ele>446.0</ele><time>2026-04-18T13:22:24.001Z</time></trkpt><trkpt lat="42.18236764780545" lon="11.941985640254826"><ele>446.0</ele><time>2026-04-18T13:22:25.001Z</time></trkpt><trkpt lat="42.1822832342789" lon="11.941964902891728"><ele>445.99999999999994</ele><time>2026-04-18T13:22:26.001Z</time></trkpt><trkpt lat="42.18220543015522" lon="11.941958113665985"><ele>446.0</ele><time>2026-04-18T13:22:27.001Z</time></trkpt><trkpt lat="42.18212151187862" lon="11.941945982230754"><ele>447.0</ele><time>2026-04-18T13:22:28.001Z</time></trkpt><trkpt lat="42.18203275591147" lon="11.941917133625694"><ele>448.0</ele><time>2026-04-18T13:22:29.001Z</time></trkpt><trkpt lat="42.18193600328393" lon="11.941888712259992"><ele>449.0</ele><time>2026-04-18T13:22:30.001Z</time></trkpt><trkpt lat="42.181849927388946" lon="11.941822932628686"><ele>450.0</ele><time>2026-04-18T13:22:31.001Z</time></trkpt><trkpt lat="42.181744568236844" lon="11.941790399985699"><ele>451.0</ele><time>2026-04-18T13:22:32.001Z</time></trkpt><trkpt lat="42.181647084796715" lon="11.941736304814112"><ele>449.6666666666667</ele><time>2026-04-18T13:22:33.001Z</time></trkpt><trkpt lat="42.18155322167813" lon="11.941704987740351"><ele>448.33333333333337</ele><time>2026-04-18T13:22:34.001Z</time></trkpt><trkpt lat="42.18147813770137" lon="11.941701015978785"><ele>447.0</ele><time>2026-04-18T13:22:35.001Z</time></trkpt><trkpt lat="42.181404519551194" lon="11.941713695281253"><ele>445.66666666666663</ele><time>2026-04-18T13:22:36.001Z</time></trkpt><trkpt lat="42.181343816800975" lon="11.941750934863487"><ele>444.3333333333333</ele><time>2026-04-18T13:22:37.001Z</time></trkpt><trkpt lat="42.18122419620658" lon="11.941782737778617"><ele>443.0</ele><time>2026-04-18T13:22:39.001Z</time></trkpt><trkpt lat="42.18114661008365" lon="11.941822603840176"><ele>443.0</ele><time>2026-04-18T13:22:41.001Z</time></trkpt><trkpt lat="42.181197087932254" lon="11.941770847589787"><ele>442.99999999999994</ele><time>2026-04-18T13:22:46.001Z</time></trkpt><trkpt lat="42.18131651132526" lon="11.941720005785184"><ele>442.99999999999994</ele><time>2026-04-18T13:22:48.001Z</time></trkpt><trkpt lat="42.181421178439365" lon="11.941682085151548"><ele>443.0</ele><time>2026-04-18T13:22:50.001Z</time></trkpt><trkpt lat="42.1815156222337" lon="11.941601254980476"><ele>443.0</ele><time>2026-04-18T13:22:52.001Z</time></trkpt><trkpt lat="42.181617205939766" lon="11.941588313345832"><ele>442.2</ele><time>2026-04-18T13:22:54.001Z</time></trkpt><trkpt lat="42.18170810592362" lon="11.94158268343152"><ele>441.4</ele><time>2026-04-18T13:22:56.001Z</time></trkpt><trkpt lat="42.18177522328834" lon="11.941506728951422"><ele>440.59999999999997</ele><time>2026-04-18T13:22:58.001Z</time></trkpt><trkpt lat="42.18186643672009" lon="11.941454178939647"><ele>439.79999999999995</ele><time>2026-04-18T13:23:00.001Z</time></trkpt><trkpt lat="42.18193019761476" lon="11.941383542240652"><ele>439.0</ele><time>2026-04-18T13:23:02.001Z</time></trkpt><trkpt lat="42.18201245716713" lon="11.94132948662633"><ele>439.0</ele><time>2026-04-18T13:23:04.001Z</time></trkpt><trkpt lat="42.18209551755983" lon="11.941272056807382"><ele>439.0</ele><time>2026-04-18T13:23:07.001Z</time></trkpt><trkpt lat="42.18216344747509" lon="11.941224086566905"><ele>439.0</ele><time>2026-04-18T13:23:08.001Z</time></trkpt><trkpt lat="42.182232390595324" lon="11.941175895796883"><ele>439.0</ele><time>2026-04-18T13:23:09.001Z</time></trkpt><trkpt lat="42.18230804354077" lon="11.941136242297157"><ele>439.0</ele><time>2026-04-18T13:23:10.001Z</time></trkpt><trkpt lat="42.18243020588081" lon="11.941064336162928"><ele>438.0</ele><time>2026-04-18T13:23:12.001Z</time></trkpt><trkpt lat="42.18249375754566" lon="11.941032006959901"><ele>437.0</ele><time>2026-04-18T13:23:13.001Z</time></trkpt><trkpt lat="42.18260401227241" lon="11.940984870757882"><ele>436.0</ele><time>2026-04-18T13:23:15.001Z</time></trkpt><trkpt lat="42.18270309888284" lon="11.940907244695417"><ele>435.0</ele><time>2026-04-18T13:23:17.001Z</time></trkpt><trkpt lat="42.182770263779425" lon="11.940855072978918"><ele>434.0</ele><time>2026-04-18T13:23:18.001Z</time></trkpt><trkpt lat="42.182841193808294" lon="11.94075723818852"><ele>434.0</ele><time>2026-04-18T13:23:19.001Z</time></trkpt><trkpt lat="42.182921946996046" lon="11.940652901318632"><ele>434.0</ele><time>2026-04-18T13:23:21.001Z</time></trkpt><trkpt lat="42.18304292299986" lon="11.940590166101616"><ele>434.0</ele><time>2026-04-18T13:23:23.001Z</time></trkpt><trkpt lat="42.1831074667613" lon="11.94052373025887"><ele>434.0</ele><time>2026-04-18T13:23:24.001Z</time></trkpt><trkpt lat="42.18317515577809" lon="11.94049891198657"><ele>434.0</ele><time>2026-04-18T13:23:25.001Z</time></trkpt><trkpt lat="42.18326084823499" lon="11.940482287501041"><ele>431.66666666666663</ele><time>2026-04-18T13:23:27.001Z</time></trkpt><trkpt lat="42.183340335538546" lon="11.940525002389624"><ele>429.3333333333333</ele><time>2026-04-18T13:23:28.001Z</time></trkpt><trkpt lat="42.18340811171887" lon="11.940551712505235"><ele>427.0</ele><time>2026-04-18T13:23:29.001Z</time></trkpt><trkpt lat="42.18347889003687" lon="11.94058534272867"><ele>424.66666666666663</ele><time>2026-04-18T13:23:30.001Z</time></trkpt><trkpt lat="42.18354487770915" lon="11.940592510015277"><ele>422.3333333333333</ele><time>2026-04-18T13:23:31.001Z</time></trkpt><trkpt lat="42.183638263588406" lon="11.94059644326312"><ele>420.0</ele><time>2026-04-18T13:23:32.001Z</time></trkpt><trkpt lat="42.18372949262588" lon="11.94060367118199"><ele>420.0</ele><time>2026-04-18T13:23:33.001Z</time></trkpt><trkpt lat="42.18380602833641" lon="11.940584534567108"><ele>420.0</ele><time>2026-04-18T13:23:34.001Z</time></trkpt><trkpt lat="42.183932738893006" lon="11.940524408780037"><ele>420.0</ele><time>2026-04-18T13:23:36.002Z</time></trkpt><trkpt lat="42.183994322067136" lon="11.94048253301311"><ele>420.0</ele><time>2026-04-18T13:23:37.002Z</time></trkpt><trkpt lat="42.184069688467225" lon="11.940452484120065"><ele>420.0</ele><time>2026-04-18T13:23:38.002Z</time></trkpt><trkpt lat="42.18413330254361" lon="11.940434283579103"><ele>420.0</ele><time>2026-04-18T13:23:39.002Z</time></trkpt><trkpt lat="42.18419745789587" lon="11.940409944048339"><ele>418.0</ele><time>2026-04-18T13:23:40.002Z</time></trkpt><trkpt lat="42.184265334070254" lon="11.940390937291111"><ele>416.0</ele><time>2026-04-18T13:23:41.002Z</time></trkpt><trkpt lat="42.18433265530277" lon="11.940351249421246"><ele>414.0</ele><time>2026-04-18T13:23:42.002Z</time></trkpt><trkpt lat="42.184398228194596" lon="11.940294980989949"><ele>412.0</ele><time>2026-04-18T13:23:43.002Z</time></trkpt><trkpt lat="42.184467591200296" lon="11.940252533921056"><ele>410.0</ele><time>2026-04-18T13:23:44Z</time></trkpt><trkpt lat="42.184537531901654" lon="11.940217865320841"><ele>408.0</ele><time>2026-04-18T13:23:45Z</time></trkpt><trkpt lat="42.184660840572214" lon="11.940177604367166"><ele>408.0</ele><time>2026-04-18T13:23:47Z</time></trkpt><trkpt lat="42.18473173670416" lon="11.940059415107559"><ele>408.0</ele><time>2026-04-18T13:23:49Z</time></trkpt><trkpt lat="42.1847785643014" lon="11.940000625935763"><ele>408.0</ele><time>2026-04-18T13:23:50Z</time></trkpt><trkpt lat="42.18482839090412" lon="11.939819571871892"><ele>408.0</ele><time>2026-04-18T13:23:52Z</time></trkpt><trkpt lat="42.18484254323322" lon="11.939725587510425"><ele>408.0</ele><time>2026-04-18T13:23:53Z</time></trkpt><trkpt lat="42.184838413998015" lon="11.939638330994978"><ele>412.4</ele><time>2026-04-18T13:23:54Z</time></trkpt><trkpt lat="42.18482698576361" lon="11.939494594269236"><ele>416.79999999999995</ele><time>2026-04-18T13:23:56Z</time></trkpt><trkpt lat="42.184811187152974" lon="11.939354475143116"><ele>421.2</ele><time>2026-04-18T13:23:58Z</time></trkpt><trkpt lat="42.18480592225165" lon="11.939192168558574"><ele>425.6</ele><time>2026-04-18T13:24:00Z</time></trkpt><trkpt lat="42.184780257748955" lon="11.939109451066711"><ele>430.0</ele><time>2026-04-18T13:24:01Z</time></trkpt><trkpt lat="42.18473898856866" lon="11.939005763357276"><ele>432.4</ele><time>2026-04-18T13:24:02Z</time></trkpt><trkpt lat="42.184741048362454" lon="11.938892752754917"><ele>434.8</ele><time>2026-04-18T13:24:03Z</time></trkpt><trkpt lat="42.1847792437131" lon="11.93877235941331"><ele>437.20000000000005</ele><time>2026-04-18T13:24:05Z</time></trkpt><trkpt lat="42.18482832981762" lon="11.938658873997957"><ele>439.6</ele><time>2026-04-18T13:24:07Z</time></trkpt><trkpt lat="42.18492031668564" lon="11.93862262835239"><ele>442.0</ele><time>2026-04-18T13:24:09Z</time></trkpt><trkpt lat="42.185078301902074" lon="11.938661771171686"><ele>435.83333333333337</ele><time>2026-04-18T13:24:11Z</time></trkpt><trkpt lat="42.18515975128437" lon="11.938683906389375"><ele>429.6666666666667</ele><time>2026-04-18T13:24:12Z</time></trkpt><trkpt lat="42.185243286282805" lon="11.938691858589177"><ele>423.5</ele><time>2026-04-18T13:24:13Z</time></trkpt><trkpt lat="42.18532069405863" lon="11.938683756123323"><ele>417.33333333333337</ele><time>2026-04-18T13:24:14Z</time></trkpt><trkpt lat="42.185406267835084" lon="11.938644384609006"><ele>411.1666666666667</ele><time>2026-04-18T13:24:15Z</time></trkpt><trkpt lat="42.18549492896348" lon="11.938597432396447"><ele>405.0</ele><time>2026-04-18T13:24:16Z</time></trkpt><trkpt lat="42.185587531619156" lon="11.938555684972451"><ele>402.8</ele><time>2026-04-18T13:24:17Z</time></trkpt><trkpt lat="42.185707604298045" lon="11.93848447374378"><ele>400.6</ele><time>2026-04-18T13:24:18Z</time></trkpt><trkpt lat="42.18581263305293" lon="11.938434645083682"><ele>398.4</ele><time>2026-04-18T13:24:19Z</time></trkpt><trkpt lat="42.18589317631268" lon="11.93841227889261"><ele>396.2</ele><time>2026-04-18T13:24:20Z</time></trkpt><trkpt lat="42.18598936025812" lon="11.93841625772321"><ele>394.0</ele><time>2026-04-18T13:24:21Z</time></trkpt><trkpt lat="42.18607421823199" lon="11.938416026004901"><ele>394.0</ele><time>2026-04-18T13:24:22Z</time></trkpt><trkpt lat="42.186165489319244" lon="11.93847767024977"><ele>394.0</ele><time>2026-04-18T13:24:24Z</time></trkpt><trkpt lat="42.186221881196694" lon="11.938537857110292"><ele>394.0</ele><time>2026-04-18T13:24:25Z</time></trkpt><trkpt lat="42.18627038575147" lon="11.938679341084107"><ele>394.0</ele><time>2026-04-18T13:24:27Z</time></trkpt><trkpt lat="42.186286165393724" lon="11.938771427933153"><ele>394.0</ele><time>2026-04-18T13:24:28Z</time></trkpt><trkpt lat="42.186334104883194" lon="11.938879648650708"><ele>394.00000000000006</ele><time>2026-04-18T13:24:29Z</time></trkpt><trkpt lat="42.18639320494939" lon="11.9390175304318"><ele>394.0</ele><time>2026-04-18T13:24:30Z</time></trkpt><trkpt lat="42.18643996899996" lon="11.939114034838"><ele>394.0</ele><time>2026-04-18T13:24:31Z</time></trkpt><trkpt lat="42.18647879379985" lon="11.939203340274387"><ele>394.0</ele><time>2026-04-18T13:24:32Z</time></trkpt><trkpt lat="42.18651762727607" lon="11.939270487470289"><ele>394.00000000000006</ele><time>2026-04-18T13:24:33.001Z</time></trkpt><trkpt lat="42.186574537063024" lon="11.939391085718848"><ele>394.0</ele><time>2026-04-18T13:24:35.001Z</time></trkpt><trkpt lat="42.18663139264278" lon="11.939496148834259"><ele>392.2</ele><time>2026-04-18T13:24:37.001Z</time></trkpt><trkpt lat="42.186717735097474" lon="11.939536614236811"><ele>390.4</ele><time>2026-04-18T13:24:39.001Z</time></trkpt><trkpt lat="42.18680111960949" lon="11.939543114835274"><ele>388.6</ele><time>2026-04-18T13:24:40.001Z</time></trkpt><trkpt lat="42.18688550959223" lon="11.939563875565185"><ele>386.8</ele><time>2026-04-18T13:24:41.001Z</time></trkpt><trkpt lat="42.18700894742849" lon="11.939589024170271"><ele>385.0</ele><time>2026-04-18T13:24:43.001Z</time></trkpt><trkpt lat="42.18709718659507" lon="11.939566997057948"><ele>385.0</ele><time>2026-04-18T13:24:45.001Z</time></trkpt><trkpt lat="42.1871667416425" lon="11.93946374132221"><ele>385.0</ele><time>2026-04-18T13:24:47.001Z</time></trkpt><trkpt lat="42.18720815701528" lon="11.939347502076616"><ele>385.0</ele><time>2026-04-18T13:24:49.001Z</time></trkpt><trkpt lat="42.18723333303847" lon="11.939161155182694"><ele>385.0</ele><time>2026-04-18T13:24:51.001Z</time></trkpt><trkpt lat="42.187241397443046" lon="11.93904147491465"><ele>385.0</ele><time>2026-04-18T13:24:52.001Z</time></trkpt><trkpt lat="42.187244522275336" lon="11.938916335172571"><ele>388.8</ele><time>2026-04-18T13:24:53.001Z</time></trkpt><trkpt lat="42.187255422865036" lon="11.93880283684878"><ele>392.6</ele><time>2026-04-18T13:24:54.001Z</time></trkpt><trkpt lat="42.18728728124741" lon="11.938633311330895"><ele>396.4</ele><time>2026-04-18T13:24:56.001Z</time></trkpt><trkpt lat="42.187303261084175" lon="11.938535832546341"><ele>400.2</ele><time>2026-04-18T13:24:57.001Z</time></trkpt><trkpt lat="42.18731000610668" lon="11.938372147427003"><ele>404.0</ele><time>2026-04-18T13:24:59.001Z</time></trkpt><trkpt lat="42.18731142487497" lon="11.938226961909645"><ele>405.0</ele><time>2026-04-18T13:25:01.001Z</time></trkpt><trkpt lat="42.1873142775028" lon="11.93809663277301"><ele>406.0</ele><time>2026-04-18T13:25:03.001Z</time></trkpt><trkpt lat="42.187288555330895" lon="11.937966993569502"><ele>407.0</ele><time>2026-04-18T13:25:05.001Z</time></trkpt><trkpt lat="42.187279436886975" lon="11.937881995285984"><ele>408.0</ele><time>2026-04-18T13:25:06.001Z</time></trkpt><trkpt lat="42.18724690829363" lon="11.937749390370602"><ele>409.0</ele><time>2026-04-18T13:25:08.001Z</time></trkpt><trkpt lat="42.187194702263405" lon="11.937631313235741"><ele>407.6</ele><time>2026-04-18T13:25:10.001Z</time></trkpt><trkpt lat="42.18711634822165" lon="11.937516415879449"><ele>406.2</ele><time>2026-04-18T13:25:12.001Z</time></trkpt><trkpt lat="42.18705578965216" lon="11.93745959803505"><ele>404.8</ele><time>2026-04-18T13:25:13.001Z</time></trkpt><trkpt lat="42.186976690163846" lon="11.937380428244852"><ele>403.40000000000003</ele><time>2026-04-18T13:25:14.001Z</time></trkpt><trkpt lat="42.18689572617275" lon="11.937318008568646"><ele>402.0</ele><time>2026-04-18T13:25:15.001Z</time></trkpt><trkpt lat="42.1868018824505" lon="11.937222784260902"><ele>402.0</ele><time>2026-04-18T13:25:17.001Z</time></trkpt><trkpt lat="42.18676047838922" lon="11.937087393505099"><ele>402.0</ele><time>2026-04-18T13:25:19.001Z</time></trkpt><trkpt lat="42.18676175789731" lon="11.936925664446068"><ele>402.0</ele><time>2026-04-18T13:25:21.001Z</time></trkpt><trkpt lat="42.186776208048904" lon="11.93684062447495"><ele>402.0</ele><time>2026-04-18T13:25:22.001Z</time></trkpt><trkpt lat="42.18681681319023" lon="11.936740595729638"><ele>402.0</ele><time>2026-04-18T13:25:23.001Z</time></trkpt><trkpt lat="42.186860750918946" lon="11.93664646201473"><ele>401.6666666666667</ele><time>2026-04-18T13:25:24.001Z</time></trkpt><trkpt lat="42.1869022587016" lon="11.936562992528367"><ele>401.33333333333337</ele><time>2026-04-18T13:25:25.001Z</time></trkpt><trkpt lat="42.18695242017432" lon="11.936482202809238"><ele>401.0</ele><time>2026-04-18T13:25:26.001Z</time></trkpt><trkpt lat="42.18699988511869" lon="11.936404387702426"><ele>400.6666666666667</ele><time>2026-04-18T13:25:27.001Z</time></trkpt><trkpt lat="42.18706179217941" lon="11.936320507139868"><ele>400.33333333333337</ele><time>2026-04-18T13:25:28.001Z</time></trkpt><trkpt lat="42.18713682099642" lon="11.936239886879525"><ele>400.0</ele><time>2026-04-18T13:25:29.001Z</time></trkpt><trkpt lat="42.187213509333496" lon="11.936158582700822"><ele>400.00000000000006</ele><time>2026-04-18T13:25:30.001Z</time></trkpt><trkpt lat="42.1872663326272" lon="11.936106327724799"><ele>400.0</ele><time>2026-04-18T13:25:31.001Z</time></trkpt><trkpt lat="42.187306935186555" lon="11.936032550635543"><ele>400.0</ele><time>2026-04-18T13:25:32.001Z</time></trkpt><trkpt lat="42.18734710980608" lon="11.935955456813666"><ele>400.0</ele><time>2026-04-18T13:25:33.001Z</time></trkpt><trkpt lat="42.187413713908924" lon="11.93586638066504"><ele>400.00000000000006</ele><time>2026-04-18T13:25:35.001Z</time></trkpt><trkpt lat="42.187522884926274" lon="11.935885693510874"><ele>400.0</ele><time>2026-04-18T13:25:37.001Z</time></trkpt><trkpt lat="42.18759343196297" lon="11.93591174629835"><ele>394.4</ele><time>2026-04-18T13:25:38.001Z</time></trkpt><trkpt lat="42.18771255756471" lon="11.93594244900471"><ele>388.8</ele><time>2026-04-18T13:25:40.001Z</time></trkpt><trkpt lat="42.18779576808193" lon="11.935965412110153"><ele>383.20000000000005</ele><time>2026-04-18T13:25:42.001Z</time></trkpt><trkpt lat="42.18790185935266" lon="11.93597345542678"><ele>377.6</ele><time>2026-04-18T13:25:44.001Z</time></trkpt><trkpt lat="42.1880029324432" lon="11.936008852239974"><ele>372.0</ele><time>2026-04-18T13:25:46.001Z</time></trkpt><trkpt lat="42.188112307975" lon="11.936034111033264"><ele>371.5</ele><time>2026-04-18T13:25:48.002Z</time></trkpt><trkpt lat="42.18821546506439" lon="11.936040876495099"><ele>371.0</ele><time>2026-04-18T13:25:50Z</time></trkpt><trkpt lat="42.188283795007266" lon="11.936042639092973"><ele>370.5</ele><time>2026-04-18T13:25:52Z</time></trkpt><trkpt lat="42.18834765294272" lon="11.935971457689542"><ele>370.0</ele><time>2026-04-18T13:25:54Z</time></trkpt><trkpt lat="42.18836554375844" lon="11.935872979468188"><ele>369.5</ele><time>2026-04-18T13:25:56Z</time></trkpt><trkpt lat="42.18837797412239" lon="11.935788474576713"><ele>369.0</ele><time>2026-04-18T13:25:58Z</time></trkpt><trkpt lat="42.18837342128555" lon="11.93568754564605"><ele>369.0</ele><time>2026-04-18T13:26:00Z</time></trkpt><trkpt lat="42.18835824885473" lon="11.93558793843398"><ele>369.0</ele><time>2026-04-18T13:26:02Z</time></trkpt><trkpt lat="42.18832249255508" lon="11.935430078237397"><ele>369.0</ele><time>2026-04-18T13:26:04Z</time></trkpt><trkpt lat="42.188308284731406" lon="11.935341603251814"><ele>369.0</ele><time>2026-04-18T13:26:05Z</time></trkpt><trkpt lat="42.18829779989758" lon="11.935244001280193"><ele>369.0</ele><time>2026-04-18T13:26:06Z</time></trkpt><trkpt lat="42.188277010517204" lon="11.935111372161645"><ele>369.0</ele><time>2026-04-18T13:26:07Z</time></trkpt><trkpt lat="42.188266030552704" lon="11.934980158126306"><ele>368.0</ele><time>2026-04-18T13:26:08Z</time></trkpt><trkpt lat="42.18826215413126" lon="11.93485501088738"><ele>367.0</ele><time>2026-04-18T13:26:09Z</time></trkpt><trkpt lat="42.18825924558045" lon="11.934750970314441"><ele>366.0</ele><time>2026-04-18T13:26:10Z</time></trkpt><trkpt lat="42.18826226808565" lon="11.934661301795408"><ele>365.0</ele><time>2026-04-18T13:26:11Z</time></trkpt><trkpt lat="42.18827238412871" lon="11.934569360204392"><ele>364.0</ele><time>2026-04-18T13:26:12Z</time></trkpt><trkpt lat="42.188262997106186" lon="11.934399126977699"><ele>363.0</ele><time>2026-04-18T13:26:14Z</time></trkpt><trkpt lat="42.1882354120634" lon="11.934315518940197"><ele>361.8333333333333</ele><time>2026-04-18T13:26:15Z</time></trkpt><trkpt lat="42.18819170626805" lon="11.934186223594814"><ele>360.6666666666667</ele><time>2026-04-18T13:26:17Z</time></trkpt><trkpt lat="42.18819265555542" lon="11.934095177495884"><ele>359.5</ele><time>2026-04-18T13:26:18Z</time></trkpt><trkpt lat="42.18819994495485" lon="11.93400718656293"><ele>358.33333333333337</ele><time>2026-04-18T13:26:19Z</time></trkpt><trkpt lat="42.18821019122055" lon="11.933919364147286"><ele>357.1666666666667</ele><time>2026-04-18T13:26:20Z</time></trkpt><trkpt lat="42.18822454877731" lon="11.93377522237846"><ele>356.0</ele><time>2026-04-18T13:26:22Z</time></trkpt><trkpt lat="42.18824320453425" lon="11.933631726372631"><ele>356.0</ele><time>2026-04-18T13:26:24Z</time></trkpt><trkpt lat="42.18826566535968" lon="11.933550276392845"><ele>356.0</ele><time>2026-04-18T13:26:26Z</time></trkpt><trkpt lat="42.188344538017304" lon="11.933532094449255"><ele>356.0</ele><time>2026-04-18T13:26:29Z</time></trkpt><trkpt lat="42.18842989905154" lon="11.933592979664295"><ele>356.0</ele><time>2026-04-18T13:27:00.001Z</time></trkpt><trkpt lat="42.18852987561382" lon="11.933619128952278"><ele>356.0</ele><time>2026-04-18T13:27:03.001Z</time></trkpt><trkpt lat="42.18860749716847" lon="11.933678561724651"><ele>356.0</ele><time>2026-04-18T13:27:05.001Z</time></trkpt><trkpt lat="42.18867180279471" lon="11.933736097846463"><ele>356.0</ele><time>2026-04-18T13:27:07.001Z</time></trkpt><trkpt lat="42.18873363302838" lon="11.933766851817587"><ele>356.0</ele><time>2026-04-18T13:27:09.001Z</time></trkpt><trkpt lat="42.188816004022485" lon="11.93378778586745"><ele>356.0</ele><time>2026-04-18T13:27:11.001Z</time></trkpt><trkpt lat="42.18890132137157" lon="11.933776885508708"><ele>356.0</ele><time>2026-04-18T13:27:13.001Z</time></trkpt><trkpt lat="42.18901303118356" lon="11.933805835286075"><ele>356.0</ele><time>2026-04-18T13:27:15.001Z</time></trkpt><trkpt lat="42.18911148873235" lon="11.933805053249557"><ele>356.0</ele><time>2026-04-18T13:27:17.001Z</time></trkpt><trkpt lat="42.189174199025295" lon="11.933797441343776"><ele>353.20000000000005</ele><time>2026-04-18T13:27:18.001Z</time></trkpt><trkpt lat="42.18928684846398" lon="11.933732517960692"><ele>350.40000000000003</ele><time>2026-04-18T13:27:20.001Z</time></trkpt><trkpt lat="42.189353044007284" lon="11.933708914676394"><ele>347.6</ele><time>2026-04-18T13:27:21.001Z</time></trkpt><trkpt lat="42.189457689226025" lon="11.933655013682966"><ele>344.8</ele><time>2026-04-18T13:27:23.001Z</time></trkpt><trkpt lat="42.18953195011865" lon="11.933543963016932"><ele>342.0</ele><time>2026-04-18T13:27:25.001Z</time></trkpt><trkpt lat="42.18956609524298" lon="11.933404287475256"><ele>340.6</ele><time>2026-04-18T13:27:27.001Z</time></trkpt><trkpt lat="42.18962273424914" lon="11.933281460095154"><ele>339.20000000000005</ele><time>2026-04-18T13:27:29.001Z</time></trkpt><trkpt lat="42.18967023287842" lon="11.933193670615394"><ele>337.8</ele><time>2026-04-18T13:27:31.001Z</time></trkpt><trkpt lat="42.189772637594075" lon="11.933240024948823"><ele>336.4</ele><time>2026-04-18T13:27:33.001Z</time></trkpt><trkpt lat="42.189822182836885" lon="11.933302635013208"><ele>335.0</ele><time>2026-04-18T13:27:34.001Z</time></trkpt><trkpt lat="42.18990355248896" lon="11.933449686474965"><ele>335.0</ele><time>2026-04-18T13:27:36.001Z</time></trkpt><trkpt lat="42.189939525123854" lon="11.933521747636293"><ele>335.0</ele><time>2026-04-18T13:27:37.001Z</time></trkpt><trkpt lat="42.19002105354509" lon="11.933624308073643"><ele>335.0</ele><time>2026-04-18T13:27:39.001Z</time></trkpt><trkpt lat="42.19011545973624" lon="11.933623803175106"><ele>335.0</ele><time>2026-04-18T13:27:41.001Z</time></trkpt><trkpt lat="42.19023592410389" lon="11.933586468919856"><ele>335.0</ele><time>2026-04-18T13:27:43.001Z</time></trkpt><trkpt lat="42.19033073812654" lon="11.933564644621907"><ele>335.0</ele><time>2026-04-18T13:27:44.001Z</time></trkpt><trkpt lat="42.19044174980317" lon="11.933554956654431"><ele>335.0</ele><time>2026-04-18T13:27:45.001Z</time></trkpt><trkpt lat="42.190529484820644" lon="11.933557731765196"><ele>335.0</ele><time>2026-04-18T13:27:46.001Z</time></trkpt><trkpt lat="42.190598861061815" lon="11.933586587478247"><ele>335.0</ele><time>2026-04-18T13:27:47.001Z</time></trkpt><trkpt lat="42.190677016518485" lon="11.933624699848082"><ele>335.0</ele><time>2026-04-18T13:27:48.001Z</time></trkpt><trkpt lat="42.190735415227614" lon="11.933685607992782"><ele>335.0</ele><time>2026-04-18T13:27:49.001Z</time></trkpt><trkpt lat="42.190818717123655" lon="11.93374498667201"><ele>335.5</ele><time>2026-04-18T13:27:50.001Z</time></trkpt><trkpt lat="42.19087187779112" lon="11.93379118656663"><ele>336.0</ele><time>2026-04-18T13:27:51.002Z</time></trkpt><trkpt lat="42.19091889103018" lon="11.933882875511928"><ele>336.5</ele><time>2026-04-18T13:27:53.002Z</time></trkpt><trkpt lat="42.191002540477534" lon="11.934041315971927"><ele>337.0</ele><time>2026-04-18T13:27:55.002Z</time></trkpt><trkpt lat="42.191046766647545" lon="11.934111312668788"><ele>337.5</ele><time>2026-04-18T13:27:56.001Z</time></trkpt><trkpt lat="42.1911191958175" lon="11.934158148951619"><ele>338.0</ele><time>2026-04-18T13:27:58.001Z</time></trkpt><trkpt lat="42.19119657209812" lon="11.93409435918614"><ele>338.0</ele><time>2026-04-18T13:28:00.001Z</time></trkpt><trkpt lat="42.191254807922874" lon="11.933986046616234"><ele>338.0</ele><time>2026-04-18T13:28:02.001Z</time></trkpt><trkpt lat="42.19134103643237" lon="11.933864230260113"><ele>338.0</ele><time>2026-04-18T13:28:04.001Z</time></trkpt><trkpt lat="42.19137392063317" lon="11.933775875262528"><ele>338.0</ele><time>2026-04-18T13:28:05.001Z</time></trkpt><trkpt lat="42.1914016301154" lon="11.933692355736767"><ele>338.0</ele><time>2026-04-18T13:28:06.001Z</time></trkpt><trkpt lat="42.19143257793329" lon="11.93353324821609"><ele>341.0</ele><time>2026-04-18T13:28:08Z</time></trkpt><trkpt lat="42.19141870140427" lon="11.93338391358473"><ele>344.0</ele><time>2026-04-18T13:28:10Z</time></trkpt><trkpt lat="42.19136868671121" lon="11.933259941804168"><ele>347.0</ele><time>2026-04-18T13:28:11Z</time></trkpt><trkpt lat="42.19135530190771" lon="11.93311582193823"><ele>350.0</ele><time>2026-04-18T13:28:12Z</time></trkpt><trkpt lat="42.191338679610716" lon="11.933012189775276"><ele>353.0</ele><time>2026-04-18T13:28:13Z</time></trkpt><trkpt lat="42.191324195190774" lon="11.932850431132945"><ele>353.0</ele><time>2026-04-18T13:28:15Z</time></trkpt><trkpt lat="42.19131482751559" lon="11.932759181425615"><ele>353.0</ele><time>2026-04-18T13:28:16Z</time></trkpt><trkpt lat="42.191304389900246" lon="11.93267386586878"><ele>353.0</ele><time>2026-04-18T13:28:17Z</time></trkpt><trkpt lat="42.191288066670076" lon="11.932540880385833"><ele>353.0</ele><time>2026-04-18T13:28:19Z</time></trkpt><trkpt lat="42.19128572811995" lon="11.93242349269458"><ele>353.0</ele><time>2026-04-18T13:28:21.001Z</time></trkpt><trkpt lat="42.1913181420633" lon="11.93234611035148"><ele>353.0</ele><time>2026-04-18T13:28:23.001Z</time></trkpt><trkpt lat="42.19141960012328" lon="11.932322831865857"><ele>353.2</ele><time>2026-04-18T13:28:26.001Z</time></trkpt><trkpt lat="42.19151779219899" lon="11.932417672686661"><ele>353.4</ele><time>2026-04-18T13:28:28.001Z</time></trkpt><trkpt lat="42.19159253007149" lon="11.932469776142627"><ele>353.59999999999997</ele><time>2026-04-18T13:28:29.001Z</time></trkpt><trkpt lat="42.19168844540597" lon="11.932509788133709"><ele>353.79999999999995</ele><time>2026-04-18T13:28:30.001Z</time></trkpt><trkpt lat="42.19176981795149" lon="11.932550472829195"><ele>354.0</ele><time>2026-04-18T13:28:31.001Z</time></trkpt><trkpt lat="42.191846857933214" lon="11.932580351629918"><ele>352.5</ele><time>2026-04-18T13:28:32.001Z</time></trkpt><trkpt lat="42.1919212989482" lon="11.93263089416808"><ele>351.0</ele><time>2026-04-18T13:28:33.001Z</time></trkpt><trkpt lat="42.19197330339789" lon="11.932694228054077"><ele>349.5</ele><time>2026-04-18T13:28:34.001Z</time></trkpt><trkpt lat="42.19201926385569" lon="11.932759339024845"><ele>348.0</ele><time>2026-04-18T13:28:35.001Z</time></trkpt><trkpt lat="42.19206658358631" lon="11.93285167926672"><ele>346.5</ele><time>2026-04-18T13:28:36.001Z</time></trkpt><trkpt lat="42.1920643113198" lon="11.933012237460662"><ele>345.0</ele><time>2026-04-18T13:28:38.001Z</time></trkpt><trkpt lat="42.19206952881574" lon="11.933102444205433"><ele>345.0</ele><time>2026-04-18T13:28:39.001Z</time></trkpt><trkpt lat="42.19209862012873" lon="11.93321258551116"><ele>345.0</ele><time>2026-04-18T13:28:40.001Z</time></trkpt><trkpt lat="42.192116260282596" lon="11.933314211696107"><ele>345.0</ele><time>2026-04-18T13:28:41.001Z</time></trkpt><trkpt lat="42.19214397518056" lon="11.933396514567415"><ele>345.0</ele><time>2026-04-18T13:28:42.001Z</time></trkpt><trkpt lat="42.19216273233547" lon="11.933493982921645"><ele>345.0</ele><time>2026-04-18T13:28:43.001Z</time></trkpt><trkpt lat="42.19217432050655" lon="11.933589176705182"><ele>345.0</ele><time>2026-04-18T13:28:44.001Z</time></trkpt><trkpt lat="42.19218045523544" lon="11.933676748185242"><ele>345.0</ele><time>2026-04-18T13:28:45.001Z</time></trkpt><trkpt lat="42.19219236995071" lon="11.933774284423173"><ele>344.3333333333333</ele><time>2026-04-18T13:28:46.001Z</time></trkpt><trkpt lat="42.19220469031515" lon="11.933870336674879"><ele>343.6666666666667</ele><time>2026-04-18T13:28:47.001Z</time></trkpt><trkpt lat="42.19222477036507" lon="11.933964079037514"><ele>343.0</ele><time>2026-04-18T13:28:48.001Z</time></trkpt><trkpt lat="42.19223409704358" lon="11.9340616541168"><ele>342.33333333333337</ele><time>2026-04-18T13:28:49.001Z</time></trkpt><trkpt lat="42.19224537307839" lon="11.934155664168474"><ele>341.6666666666667</ele><time>2026-04-18T13:28:50.001Z</time></trkpt><trkpt lat="42.19231037530337" lon="11.934292554802825"><ele>341.0</ele><time>2026-04-18T13:28:52.001Z</time></trkpt><trkpt lat="42.19240894300477" lon="11.934346869423758"><ele>343.6666666666667</ele><time>2026-04-18T13:28:54.001Z</time></trkpt><trkpt lat="42.19249038164823" lon="11.934341717327666"><ele>346.33333333333337</ele><time>2026-04-18T13:28:58.001Z</time></trkpt><trkpt lat="42.192547331303516" lon="11.934236113167653"><ele>349.0</ele><time>2026-04-18T13:29:01.001Z</time></trkpt><trkpt lat="42.192573729161694" lon="11.934142829170057"><ele>351.6666666666667</ele><time>2026-04-18T13:29:03.001Z</time></trkpt><trkpt lat="42.192586201893064" lon="11.9340418811548"><ele>354.3333333333333</ele><time>2026-04-18T13:29:05.001Z</time></trkpt><trkpt lat="42.192592593184344" lon="11.933923272811839"><ele>357.0</ele><time>2026-04-18T13:29:07.001Z</time></trkpt><trkpt lat="42.192596416016926" lon="11.93382548695889"><ele>357.5</ele><time>2026-04-18T13:29:09.001Z</time></trkpt><trkpt lat="42.19261511303253" lon="11.933705274897672"><ele>358.0</ele><time>2026-04-18T13:29:11.001Z</time></trkpt><trkpt lat="42.19263946546071" lon="11.93359600676745"><ele>358.5</ele><time>2026-04-18T13:29:14.001Z</time></trkpt><trkpt lat="42.19265893185656" lon="11.933468949194637"><ele>359.0</ele><time>2026-04-18T13:29:16.001Z</time></trkpt><trkpt lat="42.19270664869834" lon="11.933364877592481"><ele>359.5</ele><time>2026-04-18T13:29:19.001Z</time></trkpt><trkpt lat="42.19273643003799" lon="11.933272913945794"><ele>360.0</ele><time>2026-04-18T13:29:21.001Z</time></trkpt><trkpt lat="42.19279081777093" lon="11.933198658722565"><ele>360.4</ele><time>2026-04-18T13:29:23.001Z</time></trkpt><trkpt lat="42.19286139738558" lon="11.933101844738204"><ele>360.8</ele><time>2026-04-18T13:29:25.001Z</time></trkpt><trkpt lat="42.19292026889821" lon="11.932981079835027"><ele>361.20000000000005</ele><time>2026-04-18T13:29:27.001Z</time></trkpt><trkpt lat="42.192968898834835" lon="11.932848093590176"><ele>361.6</ele><time>2026-04-18T13:29:29.001Z</time></trkpt><trkpt lat="42.193002746140735" lon="11.932737379129856"><ele>362.0</ele><time>2026-04-18T13:29:31.001Z</time></trkpt><trkpt lat="42.19304424043201" lon="11.932623823075604"><ele>362.8</ele><time>2026-04-18T13:29:33.001Z</time></trkpt><trkpt lat="42.19298254207831" lon="11.932512086314082"><ele>363.6</ele><time>2026-04-18T13:29:36.001Z</time></trkpt><trkpt lat="42.1929243067376" lon="11.932434218859964"><ele>364.40000000000003</ele><time>2026-04-18T13:29:38.001Z</time></trkpt><trkpt lat="42.19287165943835" lon="11.932348248501535"><ele>365.20000000000005</ele><time>2026-04-18T13:29:40.001Z</time></trkpt><trkpt lat="42.192838557801174" lon="11.932229044069874"><ele>366.0</ele><time>2026-04-18T13:29:42.001Z</time></trkpt><trkpt lat="42.19280586994428" lon="11.932110133080185"><ele>366.0</ele><time>2026-04-18T13:29:44.001Z</time></trkpt><trkpt lat="42.19280363296868" lon="11.931992194701474"><ele>366.0</ele><time>2026-04-18T13:29:46.001Z</time></trkpt><trkpt lat="42.19282215496414" lon="11.931853399510763"><ele>366.0</ele><time>2026-04-18T13:29:48.001Z</time></trkpt><trkpt lat="42.192801453530016" lon="11.931733614534034"><ele>366.0</ele><time>2026-04-18T13:29:50.001Z</time></trkpt><trkpt lat="42.19276573580914" lon="11.931615652615562"><ele>366.0</ele><time>2026-04-18T13:29:52.001Z</time></trkpt><trkpt lat="42.1927328984508" lon="11.93150547696962"><ele>367.6666666666667</ele><time>2026-04-18T13:29:54.001Z</time></trkpt><trkpt lat="42.19267394024183" lon="11.931426448482156"><ele>369.3333333333333</ele><time>2026-04-18T13:29:56.002Z</time></trkpt><trkpt lat="42.19262274825316" lon="11.931337165874504"><ele>371.0</ele><time>2026-04-18T13:29:59.002Z</time></trkpt><trkpt lat="42.19256893321173" lon="11.931240320589348"><ele>372.66666666666663</ele><time>2026-04-18T13:30:01.002Z</time></trkpt><trkpt lat="42.192506731290095" lon="11.931192948185881"><ele>374.3333333333333</ele><time>2026-04-18T13:30:03.001Z</time></trkpt><trkpt lat="42.19244741797047" lon="11.931140243867983"><ele>376.0</ele><time>2026-04-18T13:30:05.001Z</time></trkpt><trkpt lat="42.19238771439747" lon="11.93108858404628"><ele>376.8333333333333</ele><time>2026-04-18T13:30:07.001Z</time></trkpt><trkpt lat="42.19232307057791" lon="11.93103858030154"><ele>377.66666666666663</ele><time>2026-04-18T13:32:30.001Z</time></trkpt><trkpt lat="42.19224564295498" lon="11.93098462276764"><ele>378.5</ele><time>2026-04-18T13:32:32.001Z</time></trkpt><trkpt lat="42.192171125531694" lon="11.93090494594337"><ele>379.3333333333333</ele><time>2026-04-18T13:32:34.001Z</time></trkpt><trkpt lat="42.19210739497016" lon="11.930877339410923"><ele>380.1666666666667</ele><time>2026-04-18T13:32:35.001Z</time></trkpt><trkpt lat="42.19203297763915" lon="11.930790989219004"><ele>381.0</ele><time>2026-04-18T13:32:37.001Z</time></trkpt><trkpt lat="42.191913219973145" lon="11.930722997552996"><ele>381.0</ele><time>2026-04-18T13:32:39.001Z</time></trkpt><trkpt lat="42.19180418322859" lon="11.930661578073465"><ele>381.0</ele><time>2026-04-18T13:32:41.001Z</time></trkpt><trkpt lat="42.191741300893156" lon="11.930579244479748"><ele>381.0</ele><time>2026-04-18T13:32:43.001Z</time></trkpt><trkpt lat="42.191647315386234" lon="11.930509410730405"><ele>381.0</ele><time>2026-04-18T13:32:45.001Z</time></trkpt><trkpt lat="42.19156717477433" lon="11.930447275567394"><ele>381.0</ele><time>2026-04-18T13:32:47.001Z</time></trkpt><trkpt lat="42.19149028124886" lon="11.93040719037819"><ele>379.6</ele><time>2026-04-18T13:32:49.001Z</time></trkpt><trkpt lat="42.19141512705894" lon="11.930351947264905"><ele>378.20000000000005</ele><time>2026-04-18T13:32:51.001Z</time></trkpt><trkpt lat="42.19132530223397" lon="11.930282402479712"><ele>376.79999999999995</ele><time>2026-04-18T13:32:53.001Z</time></trkpt><trkpt lat="42.1912547901843" lon="11.930221076297801"><ele>375.4</ele><time>2026-04-18T13:32:55.001Z</time></trkpt><trkpt lat="42.191182120098176" lon="11.930149227938834"><ele>374.0</ele><time>2026-04-18T13:32:57.001Z</time></trkpt><trkpt lat="42.191115527129426" lon="11.930064312343"><ele>375.33333333333337</ele><time>2026-04-18T13:32:59.001Z</time></trkpt><trkpt lat="42.191020982539904" lon="11.929960783111623"><ele>376.6666666666667</ele><time>2026-04-18T13:33:01.001Z</time></trkpt><trkpt lat="42.19096640205589" lon="11.929896490086431"><ele>378.0</ele><time>2026-04-18T13:33:03.001Z</time></trkpt><trkpt lat="42.19091086063758" lon="11.9298457817783"><ele>379.3333333333333</ele><time>2026-04-18T13:33:07.001Z</time></trkpt><trkpt lat="42.190873684546574" lon="11.929776810754795"><ele>380.66666666666663</ele><time>2026-04-18T13:33:09.001Z</time></trkpt><trkpt lat="42.19083636233724" lon="11.929627128676435"><ele>382.0</ele><time>2026-04-18T13:33:11.001Z</time></trkpt><trkpt lat="42.19083908603827" lon="11.929484298846269"><ele>382.0</ele><time>2026-04-18T13:33:13.001Z</time></trkpt><trkpt lat="42.190834109048645" lon="11.929332232116824"><ele>382.0</ele><time>2026-04-18T13:33:15.001Z</time></trkpt><trkpt lat="42.19082802218077" lon="11.9291813727119"><ele>382.0</ele><time>2026-04-18T13:33:17.001Z</time></trkpt><trkpt lat="42.19082720642048" lon="11.929029598052164"><ele>382.0</ele><time>2026-04-18T13:33:19.001Z</time></trkpt><trkpt lat="42.190822558195556" lon="11.928940286307279"><ele>382.0</ele><time>2026-04-18T13:33:20.001Z</time></trkpt><trkpt lat="42.19082551964639" lon="11.928848476020361"><ele>383.6</ele><time>2026-04-18T13:33:21.001Z</time></trkpt><trkpt lat="42.190830744341554" lon="11.928726377404445"><ele>385.20000000000005</ele><time>2026-04-18T13:33:23.001Z</time></trkpt><trkpt lat="42.1908504563047" lon="11.928599102766285"><ele>386.8</ele><time>2026-04-18T13:33:25.001Z</time></trkpt><trkpt lat="42.19083658877252" lon="11.928504904032481"><ele>388.4</ele><time>2026-04-18T13:33:26.001Z</time></trkpt><trkpt lat="42.190828987384414" lon="11.928379301860506"><ele>390.0</ele><time>2026-04-18T13:33:28.001Z</time></trkpt><trkpt lat="42.19081779416243" lon="11.928219235723045"><ele>390.1666666666667</ele><time>2026-04-18T13:33:30.001Z</time></trkpt><trkpt lat="42.19082556728722" lon="11.928076278846532"><ele>390.33333333333337</ele><time>2026-04-18T13:33:32.001Z</time></trkpt><trkpt lat="42.19083388514539" lon="11.927990002094878"><ele>390.5</ele><time>2026-04-18T13:33:33.001Z</time></trkpt><trkpt lat="42.190831852521626" lon="11.927896731399043"><ele>390.6666666666667</ele><time>2026-04-18T13:33:34.001Z</time></trkpt><trkpt lat="42.19083523047691" lon="11.927809011738606"><ele>390.83333333333337</ele><time>2026-04-18T13:33:35.001Z</time></trkpt><trkpt lat="42.19083410789323" lon="11.927648022803586"><ele>391.0</ele><time>2026-04-18T13:33:37.001Z</time></trkpt><trkpt lat="42.1908606449135" lon="11.92749767036864"><ele>391.00000000000006</ele><time>2026-04-18T13:33:39.001Z</time></trkpt><trkpt lat="42.19087930951936" lon="11.927407119276243"><ele>391.0</ele><time>2026-04-18T13:33:40.001Z</time></trkpt><trkpt lat="42.190917436637136" lon="11.927294925648747"><ele>391.0</ele><time>2026-04-18T13:33:42.001Z</time></trkpt><trkpt lat="42.190898287489475" lon="11.927177438874216"><ele>391.0</ele><time>2026-04-18T13:33:44.001Z</time></trkpt><trkpt lat="42.19087525118919" lon="11.927095882287022"><ele>391.00000000000006</ele><time>2026-04-18T13:33:45.001Z</time></trkpt><trkpt lat="42.1908587213069" lon="11.927010033084098"><ele>391.0</ele><time>2026-04-18T13:33:46.001Z</time></trkpt><trkpt lat="42.19086229972932" lon="11.926908535421491"><ele>391.00000000000006</ele><time>2026-04-18T13:33:48.001Z</time></trkpt><trkpt lat="42.19091513066574" lon="11.926802101943045"><ele>391.0</ele><time>2026-04-18T13:33:50.001Z</time></trkpt><trkpt lat="42.1909587800658" lon="11.926740700857856"><ele>391.0</ele><time>2026-04-18T13:33:52.001Z</time></trkpt><trkpt lat="42.19099644609969" lon="11.926643431483662"><ele>391.0</ele><time>2026-04-18T13:33:55.001Z</time></trkpt><trkpt lat="42.19094321638138" lon="11.926550433044032"><ele>391.00000000000006</ele><time>2026-04-18T13:33:57.001Z</time></trkpt><trkpt lat="42.190892754486754" lon="11.926455000419427"><ele>391.0</ele><time>2026-04-18T13:33:59.001Z</time></trkpt><trkpt lat="42.1908527420665" lon="11.926372136645359"><ele>391.4</ele><time>2026-04-18T13:34:01.001Z</time></trkpt><trkpt lat="42.190818826361294" lon="11.926250269587547"><ele>391.8</ele><time>2026-04-18T13:34:03.001Z</time></trkpt><trkpt lat="42.190811114940466" lon="11.926125404446804"><ele>392.2</ele><time>2026-04-18T13:34:05.001Z</time></trkpt><trkpt lat="42.190819198110745" lon="11.926006408360129"><ele>392.59999999999997</ele><time>2026-04-18T13:34:07.001Z</time></trkpt><trkpt lat="42.19076971726783" lon="11.925878699384555"><ele>393.0</ele><time>2026-04-18T13:34:09.001Z</time></trkpt><trkpt lat="42.19073294793763" lon="11.925763189977756"><ele>393.25</ele><time>2026-04-18T13:34:11.001Z</time></trkpt><trkpt lat="42.19073202728494" lon="11.92562401098602"><ele>393.5</ele><time>2026-04-18T13:34:13.001Z</time></trkpt><trkpt lat="42.19075034099927" lon="11.925480484836672"><ele>393.75</ele><time>2026-04-18T13:34:15.001Z</time></trkpt><trkpt lat="42.19077928904792" lon="11.925318763331177"><ele>394.0</ele><time>2026-04-18T13:34:17.001Z</time></trkpt><trkpt lat="42.190804517210516" lon="11.925144554984362"><ele>394.79999999999995</ele><time>2026-04-18T13:34:19.001Z</time></trkpt><trkpt lat="42.190837918193715" lon="11.925005984387948"><ele>395.59999999999997</ele><time>2026-04-18T13:34:21.001Z</time></trkpt><trkpt lat="42.19085345353049" lon="11.92491736893974"><ele>396.4</ele><time>2026-04-18T13:34:22.001Z</time></trkpt><trkpt lat="42.19082724593992" lon="11.924793653896286"><ele>397.2</ele><time>2026-04-18T13:34:24.001Z</time></trkpt><trkpt lat="42.19076744829308" lon="11.924673561380274"><ele>398.0</ele><time>2026-04-18T13:34:26.001Z</time></trkpt><trkpt lat="42.19072413960156" lon="11.924559024594219"><ele>397.99999999999994</ele><time>2026-04-18T13:34:28.001Z</time></trkpt><trkpt lat="42.19068113578902" lon="11.924438505688832"><ele>398.0</ele><time>2026-04-18T13:34:29.001Z</time></trkpt><trkpt lat="42.19064643947731" lon="11.924363202268113"><ele>398.0</ele><time>2026-04-18T13:34:30.001Z</time></trkpt><trkpt lat="42.190525278311405" lon="11.92430621155809"><ele>398.0</ele><time>2026-04-18T13:34:32.001Z</time></trkpt><trkpt lat="42.19045471744314" lon="11.924276053508976"><ele>397.99999999999994</ele><time>2026-04-18T13:34:33.001Z</time></trkpt><trkpt lat="42.190391185955214" lon="11.924258025534101"><ele>398.0</ele><time>2026-04-18T13:34:34.001Z</time></trkpt><trkpt lat="42.190309260722316" lon="11.924233893212477"><ele>397.59999999999997</ele><time>2026-04-18T13:34:36.001Z</time></trkpt><trkpt lat="42.19021342625307" lon="11.92423156273612"><ele>397.2</ele><time>2026-04-18T13:34:38.001Z</time></trkpt><trkpt lat="42.190121194220765" lon="11.924238410238736"><ele>396.8</ele><time>2026-04-18T13:34:39.001Z</time></trkpt><trkpt lat="42.19004382683329" lon="11.924233161552376"><ele>396.4</ele><time>2026-04-18T13:34:40.001Z</time></trkpt><trkpt lat="42.18991692303275" lon="11.924183922163255"><ele>396.0</ele><time>2026-04-18T13:34:42.001Z</time></trkpt><trkpt lat="42.189848754123645" lon="11.92414607640644"><ele>397.6</ele><time>2026-04-18T13:34:43.001Z</time></trkpt><trkpt lat="42.18975587482398" lon="11.924098964815132"><ele>399.20000000000005</ele><time>2026-04-18T13:34:45.001Z</time></trkpt><trkpt lat="42.1896367137665" lon="11.924096116022339"><ele>400.79999999999995</ele><time>2026-04-18T13:34:47.001Z</time></trkpt><trkpt lat="42.189613317084614" lon="11.92395123366887"><ele>402.4</ele><time>2026-04-18T13:34:48.001Z</time></trkpt><trkpt lat="42.189532635802806" lon="11.923912443796947"><ele>404.0</ele><time>2026-04-18T13:34:49.001Z</time></trkpt><trkpt lat="42.18947168075638" lon="11.923886071183789"><ele>404.0</ele><time>2026-04-18T13:34:50.001Z</time></trkpt><trkpt lat="42.18938498632184" lon="11.923852778125521"><ele>404.0</ele><time>2026-04-18T13:34:51.001Z</time></trkpt><trkpt lat="42.189308926112474" lon="11.923833377165106"><ele>404.0</ele><time>2026-04-18T13:34:52.001Z</time></trkpt><trkpt lat="42.18923137018873" lon="11.923830431042795"><ele>404.0</ele><time>2026-04-18T13:34:53.001Z</time></trkpt><trkpt lat="42.189104733746774" lon="11.92383518917977"><ele>404.0</ele><time>2026-04-18T13:34:55.001Z</time></trkpt><trkpt lat="42.18902797580641" lon="11.923817767292247"><ele>405.16666666666663</ele><time>2026-04-18T13:34:56.001Z</time></trkpt><trkpt lat="42.18895429333374" lon="11.92379907768542"><ele>406.3333333333333</ele><time>2026-04-18T13:34:57.001Z</time></trkpt><trkpt lat="42.18887198933157" lon="11.923779533782426"><ele>407.5</ele><time>2026-04-18T13:34:58.001Z</time></trkpt><trkpt lat="42.18879333807596" lon="11.923766235549367"><ele>408.66666666666663</ele><time>2026-04-18T13:34:59.001Z</time></trkpt><trkpt lat="42.188718506772375" lon="11.923755724655598"><ele>409.8333333333333</ele><time>2026-04-18T13:35:00.001Z</time></trkpt><trkpt lat="42.18865495085298" lon="11.92374679752198"><ele>411.0</ele><time>2026-04-18T13:35:01.001Z</time></trkpt><trkpt lat="42.188580044204215" lon="11.923741056896311"><ele>411.0</ele><time>2026-04-18T13:35:02.001Z</time></trkpt><trkpt lat="42.18849377587973" lon="11.923734993184224"><ele>411.0</ele><time>2026-04-18T13:35:03.001Z</time></trkpt><trkpt lat="42.188411721636236" lon="11.923730530825367"><ele>411.0</ele><time>2026-04-18T13:35:04.001Z</time></trkpt><trkpt lat="42.188308381475956" lon="11.923730197693992"><ele>411.0</ele><time>2026-04-18T13:35:05.001Z</time></trkpt><trkpt lat="42.18822044620781" lon="11.923733125368477"><ele>411.0</ele><time>2026-04-18T13:35:06.001Z</time></trkpt><trkpt lat="42.18813700084644" lon="11.923735883551535"><ele>411.0</ele><time>2026-04-18T13:35:07.001Z</time></trkpt><trkpt lat="42.18803891052058" lon="11.923736905090283"><ele>411.8333333333333</ele><time>2026-04-18T13:35:08.001Z</time></trkpt><trkpt lat="42.18794463657848" lon="11.923734021208311"><ele>412.66666666666663</ele><time>2026-04-18T13:35:09.001Z</time></trkpt><trkpt lat="42.18786159756806" lon="11.923737828127761"><ele>413.5</ele><time>2026-04-18T13:35:10.001Z</time></trkpt><trkpt lat="42.18779733472099" lon="11.923708005347168"><ele>414.3333333333333</ele><time>2026-04-18T13:35:11.001Z</time></trkpt><trkpt lat="42.18772712170221" lon="11.923673186181237"><ele>415.16666666666663</ele><time>2026-04-18T13:35:12.001Z</time></trkpt><trkpt lat="42.18764639917003" lon="11.923634775850594"><ele>416.0</ele><time>2026-04-18T13:35:13.001Z</time></trkpt><trkpt lat="42.18758171949493" lon="11.923596177098558"><ele>415.99999999999994</ele><time>2026-04-18T13:35:14.001Z</time></trkpt><trkpt lat="42.18749629354224" lon="11.923597733118505"><ele>416.0</ele><time>2026-04-18T13:35:15.001Z</time></trkpt><trkpt lat="42.18740114332308" lon="11.923612305281713"><ele>416.0</ele><time>2026-04-18T13:35:16.001Z</time></trkpt><trkpt lat="42.187306206266825" lon="11.92359600510542"><ele>416.0</ele><time>2026-04-18T13:35:17.001Z</time></trkpt><trkpt lat="42.18720812180723" lon="11.92359885958498"><ele>415.99999999999994</ele><time>2026-04-18T13:35:18.001Z</time></trkpt><trkpt lat="42.18713709630657" lon="11.923598786456465"><ele>416.0</ele><time>2026-04-18T13:35:19.001Z</time></trkpt><trkpt lat="42.187048310279316" lon="11.92358472973712"><ele>416.20000000000005</ele><time>2026-04-18T13:35:20.001Z</time></trkpt><trkpt lat="42.186982138476445" lon="11.923537750315319"><ele>416.40000000000003</ele><time>2026-04-18T13:35:21.001Z</time></trkpt><trkpt lat="42.18686307397012" lon="11.923397254122154"><ele>416.6</ele><time>2026-04-18T13:35:23.001Z</time></trkpt><trkpt lat="42.18680425022476" lon="11.92333960219225"><ele>416.8</ele><time>2026-04-18T13:35:24.001Z</time></trkpt><trkpt lat="42.18674321226637" lon="11.923279505337195"><ele>417.0</ele><time>2026-04-18T13:35:25.001Z</time></trkpt><trkpt lat="42.186646290418096" lon="11.923207026870145"><ele>418.20000000000005</ele><time>2026-04-18T13:35:26.001Z</time></trkpt><trkpt lat="42.186566018441326" lon="11.923128118010256"><ele>419.4</ele><time>2026-04-18T13:35:27.001Z</time></trkpt><trkpt lat="42.186492949398996" lon="11.92302645024454"><ele>420.6</ele><time>2026-04-18T13:35:28.001Z</time></trkpt><trkpt lat="42.18640665638586" lon="11.922958428349931"><ele>421.79999999999995</ele><time>2026-04-18T13:35:29.001Z</time></trkpt><trkpt lat="42.18634232272931" lon="11.92286415788138"><ele>423.0</ele><time>2026-04-18T13:35:30.001Z</time></trkpt><trkpt lat="42.18626540078338" lon="11.922790468683461"><ele>423.59999999999997</ele><time>2026-04-18T13:35:31.001Z</time></trkpt><trkpt lat="42.1862032632111" lon="11.922736269043705"><ele>424.2</ele><time>2026-04-18T13:35:32.001Z</time></trkpt><trkpt lat="42.18614001882189" lon="11.92268752852865"><ele>424.8</ele><time>2026-04-18T13:35:33.001Z</time></trkpt><trkpt lat="42.18605470159047" lon="11.922595208148863"><ele>425.4</ele><time>2026-04-18T13:35:35.001Z</time></trkpt><trkpt lat="42.18594503263147" lon="11.922533135894396"><ele>426.0</ele><time>2026-04-18T13:35:37.001Z</time></trkpt><trkpt lat="42.185849347862394" lon="11.922501870672297"><ele>426.0</ele><time>2026-04-18T13:35:39.001Z</time></trkpt><trkpt lat="42.185785403201436" lon="11.922488842659389"><ele>426.0</ele><time>2026-04-18T13:35:41.001Z</time></trkpt><trkpt lat="42.185712833370026" lon="11.922470451599615"><ele>426.0</ele><time>2026-04-18T13:35:43.001Z</time></trkpt><trkpt lat="42.18558201202471" lon="11.922427436423787"><ele>426.0</ele><time>2026-04-18T13:35:45.001Z</time></trkpt><trkpt lat="42.1855151206127" lon="11.922411235760471"><ele>426.0</ele><time>2026-04-18T13:35:46.001Z</time></trkpt><trkpt lat="42.18546811586606" lon="11.9223384573797"><ele>426.0</ele><time>2026-04-18T13:35:47.001Z</time></trkpt><trkpt lat="42.18539984106877" lon="11.922262371489136"><ele>427.3333333333333</ele><time>2026-04-18T13:35:48.001Z</time></trkpt><trkpt lat="42.18532485107153" lon="11.922205599917596"><ele>428.66666666666663</ele><time>2026-04-18T13:35:49.001Z</time></trkpt><trkpt lat="42.18526629830392" lon="11.922165678287602"><ele>430.0</ele><time>2026-04-18T13:35:50.001Z</time></trkpt><trkpt lat="42.18520231038866" lon="11.922126879992792"><ele>431.3333333333333</ele><time>2026-04-18T13:35:51.001Z</time></trkpt><trkpt lat="42.18514270290258" lon="11.922092315249166"><ele>432.66666666666663</ele><time>2026-04-18T13:35:52.001Z</time></trkpt><trkpt lat="42.18507817933388" lon="11.922088009859506"><ele>434.0</ele><time>2026-04-18T13:35:53.001Z</time></trkpt><trkpt lat="42.18496612787552" lon="11.92204804256381"><ele>434.0</ele><time>2026-04-18T13:35:55.001Z</time></trkpt><trkpt lat="42.18488198301795" lon="11.922013059621458"><ele>434.0</ele><time>2026-04-18T13:35:56.001Z</time></trkpt><trkpt lat="42.18477647403872" lon="11.921956271960081"><ele>434.0</ele><time>2026-04-18T13:35:58.001Z</time></trkpt><trkpt lat="42.18471792877566" lon="11.92190818253729"><ele>434.0</ele><time>2026-04-18T13:35:59.001Z</time></trkpt><trkpt lat="42.18466148124659" lon="11.92177118844307"><ele>434.0</ele><time>2026-04-18T13:36:01.001Z</time></trkpt><trkpt lat="42.18462406618867" lon="11.921689699086423"><ele>434.2</ele><time>2026-04-18T13:36:02.001Z</time></trkpt><trkpt lat="42.18458769859537" lon="11.921609119897346"><ele>434.4</ele><time>2026-04-18T13:36:03.001Z</time></trkpt><trkpt lat="42.184558023545996" lon="11.92152670092039"><ele>434.6</ele><time>2026-04-18T13:36:04.001Z</time></trkpt><trkpt lat="42.18451973664896" lon="11.92140855560152"><ele>434.8</ele><time>2026-04-18T13:36:05.001Z</time></trkpt><trkpt lat="42.18447570906917" lon="11.921273511053034"><ele>435.0</ele><time>2026-04-18T13:36:06.001Z</time></trkpt><trkpt lat="42.184410863412936" lon="11.921149246669486"><ele>435.0</ele><time>2026-04-18T13:36:07.001Z</time></trkpt><trkpt lat="42.18438254092282" lon="11.921034033999634"><ele>435.0</ele><time>2026-04-18T13:36:08.001Z</time></trkpt><trkpt lat="42.18434089099931" lon="11.920943480279618"><ele>435.0</ele><time>2026-04-18T13:36:09.001Z</time></trkpt><trkpt lat="42.18427977881653" lon="11.920858149683305"><ele>435.0</ele><time>2026-04-18T13:36:10.001Z</time></trkpt><trkpt lat="42.18423021902546" lon="11.920752156530963"><ele>435.0</ele><time>2026-04-18T13:36:11.001Z</time></trkpt><trkpt lat="42.18416320882254" lon="11.920695797330794"><ele>435.0</ele><time>2026-04-18T13:36:12.001Z</time></trkpt><trkpt lat="42.18409970630617" lon="11.920635607742781"><ele>434.4</ele><time>2026-04-18T13:36:13.001Z</time></trkpt><trkpt lat="42.18403768330139" lon="11.920541850873152"><ele>433.8</ele><time>2026-04-18T13:36:14.001Z</time></trkpt><trkpt lat="42.18399617250241" lon="11.920441123663096"><ele>433.20000000000005</ele><time>2026-04-18T13:36:15.001Z</time></trkpt><trkpt lat="42.18393812388884" lon="11.920303280071446"><ele>432.6</ele><time>2026-04-18T13:36:16.001Z</time></trkpt><trkpt lat="42.18387809170862" lon="11.920133705960088"><ele>432.0</ele><time>2026-04-18T13:36:17.001Z</time></trkpt><trkpt lat="42.18382234580303" lon="11.919988625016506"><ele>435.6</ele><time>2026-04-18T13:36:18.001Z</time></trkpt><trkpt lat="42.183778131799116" lon="11.919860291515256"><ele>439.20000000000005</ele><time>2026-04-18T13:36:19.001Z</time></trkpt><trkpt lat="42.18372008842499" lon="11.919732663042396"><ele>442.8</ele><time>2026-04-18T13:36:20Z</time></trkpt><trkpt lat="42.183648835015816" lon="11.91962520248582"><ele>446.4</ele><time>2026-04-18T13:36:21Z</time></trkpt><trkpt lat="42.18356726393104" lon="11.919542991132472"><ele>450.0</ele><time>2026-04-18T13:36:22Z</time></trkpt><trkpt lat="42.183528899644216" lon="11.919431380819818"><ele>450.0</ele><time>2026-04-18T13:36:23Z</time></trkpt><trkpt lat="42.18348174653846" lon="11.919295792288862"><ele>450.0</ele><time>2026-04-18T13:36:24Z</time></trkpt><trkpt lat="42.18343119492849" lon="11.919129095593982"><ele>450.0</ele><time>2026-04-18T13:36:25Z</time></trkpt><trkpt lat="42.18336576739774" lon="11.91900429509212"><ele>450.0</ele><time>2026-04-18T13:36:26Z</time></trkpt><trkpt lat="42.183317903726326" lon="11.918924191813158"><ele>450.0</ele><time>2026-04-18T13:36:27Z</time></trkpt><trkpt lat="42.183249738972286" lon="11.918845067991876"><ele>451.0</ele><time>2026-04-18T13:36:28Z</time></trkpt><trkpt lat="42.183162963131075" lon="11.918757236248883"><ele>452.0</ele><time>2026-04-18T13:36:29Z</time></trkpt><trkpt lat="42.183064933073496" lon="11.918681908808239"><ele>453.0</ele><time>2026-04-18T13:36:30Z</time></trkpt><trkpt lat="42.18299437628076" lon="11.918584797624199"><ele>454.0</ele><time>2026-04-18T13:36:31Z</time></trkpt><trkpt lat="42.18293980617915" lon="11.918525519513558"><ele>455.0</ele><time>2026-04-18T13:36:32Z</time></trkpt><trkpt lat="42.18286686719043" lon="11.918461441897318"><ele>453.0</ele><time>2026-04-18T13:36:35Z</time></trkpt><trkpt lat="42.18308492100035" lon="11.918386025055153"><ele>451.0</ele><time>2026-04-18T13:38:09.001Z</time></trkpt><trkpt lat="42.183168192074675" lon="11.91834046396879"><ele>449.0</ele><time>2026-04-18T13:38:10.001Z</time></trkpt><trkpt lat="42.183232291185206" lon="11.918310049800956"><ele>447.0</ele><time>2026-04-18T13:38:11.001Z</time></trkpt><trkpt lat="42.183302889725944" lon="11.91827192040381"><ele>444.6</ele><time>2026-04-18T13:38:12.001Z</time></trkpt><trkpt lat="42.18336741868167" lon="11.918234660256552"><ele>442.20000000000005</ele><time>2026-04-18T13:38:13.001Z</time></trkpt><trkpt lat="42.183428218881055" lon="11.918199553157391"><ele>439.8</ele><time>2026-04-18T13:38:14.001Z</time></trkpt><trkpt lat="42.18353327105495" lon="11.918146110527873"><ele>437.4</ele><time>2026-04-18T13:38:16.001Z</time></trkpt><trkpt lat="42.183675509320075" lon="11.918100319058194"><ele>435.0</ele><time>2026-04-18T13:38:18.001Z</time></trkpt><trkpt lat="42.183763726907074" lon="11.91808384732682"><ele>435.0</ele><time>2026-04-18T13:38:19.001Z</time></trkpt><trkpt lat="42.18384804314277" lon="11.918052809946154"><ele>435.0</ele><time>2026-04-18T13:38:20.001Z</time></trkpt><trkpt lat="42.18393384865933" lon="11.918051837470554"><ele>435.0</ele><time>2026-04-18T13:38:21.001Z</time></trkpt><trkpt lat="42.18401672840159" lon="11.918056238409168"><ele>435.0</ele><time>2026-04-18T13:38:22.001Z</time></trkpt><trkpt lat="42.184121199466816" lon="11.91807379569862"><ele>435.0</ele><time>2026-04-18T13:38:23.001Z</time></trkpt><trkpt lat="42.18424538244242" lon="11.918102102356952"><ele>432.5</ele><time>2026-04-18T13:38:24.001Z</time></trkpt><trkpt lat="42.184372979488906" lon="11.918121524656183"><ele>430.0</ele><time>2026-04-18T13:38:25.001Z</time></trkpt><trkpt lat="42.18449876392771" lon="11.918142486070535"><ele>427.5</ele><time>2026-04-18T13:38:25.999Z</time></trkpt><trkpt lat="42.18462566126772" lon="11.918166001734066"><ele>425.0</ele><time>2026-04-18T13:38:26.999Z</time></trkpt><trkpt lat="42.18471653595913" lon="11.918171141531168"><ele>425.0</ele><time>2026-04-18T13:38:27.999Z</time></trkpt><trkpt lat="42.18481585745139" lon="11.918203115298317"><ele>425.0</ele><time>2026-04-18T13:38:28.999Z</time></trkpt><trkpt lat="42.18490460351401" lon="11.918239225096364"><ele>425.0</ele><time>2026-04-18T13:38:29.999Z</time></trkpt><trkpt lat="42.1849917799138" lon="11.918284424298639"><ele>425.0</ele><time>2026-04-18T13:38:30.999Z</time></trkpt><trkpt lat="42.18508358036166" lon="11.918306286639503"><ele>425.0</ele><time>2026-04-18T13:38:31.999Z</time></trkpt><trkpt lat="42.1851577439494" lon="11.918306915154863"><ele>423.6</ele><time>2026-04-18T13:38:32.999Z</time></trkpt><trkpt lat="42.18522102672451" lon="11.918273014932483"><ele>422.2</ele><time>2026-04-18T13:38:33.999Z</time></trkpt><trkpt lat="42.185263892130834" lon="11.918129493021715"><ele>420.79999999999995</ele><time>2026-04-18T13:38:34.999Z</time></trkpt><trkpt lat="42.1853135604023" lon="11.918016497511136"><ele>419.4</ele><time>2026-04-18T13:38:35.999Z</time></trkpt><trkpt lat="42.1853898080477" lon="11.917895920051654"><ele>418.0</ele><time>2026-04-18T13:38:36.999Z</time></trkpt><trkpt lat="42.185458771964484" lon="11.91776520934591"><ele>418.0</ele><time>2026-04-18T13:38:37.999Z</time></trkpt><trkpt lat="42.185517474091135" lon="11.917662085840897"><ele>418.0</ele><time>2026-04-18T13:38:38.999Z</time></trkpt><trkpt lat="42.18558966674738" lon="11.917541145322705"><ele>418.0</ele><time>2026-04-18T13:38:40Z</time></trkpt><trkpt lat="42.18567446433261" lon="11.91740415442998"><ele>418.0</ele><time>2026-04-18T13:38:41Z</time></trkpt><trkpt lat="42.185744775489525" lon="11.91729438225449"><ele>417.0</ele><time>2026-04-18T13:38:42Z</time></trkpt><trkpt lat="42.18581792520702" lon="11.91718087999636"><ele>416.0</ele><time>2026-04-18T13:38:43Z</time></trkpt><trkpt lat="42.18589483106216" lon="11.917063114947243"><ele>415.0</ele><time>2026-04-18T13:38:44Z</time></trkpt><trkpt lat="42.18595177557382" lon="11.916950377683339"><ele>414.0</ele><time>2026-04-18T13:38:45Z</time></trkpt><trkpt lat="42.18600984131221" lon="11.916864891847194"><ele>413.0</ele><time>2026-04-18T13:38:46Z</time></trkpt><trkpt lat="42.18608697795937" lon="11.916791206300426"><ele>414.0</ele><time>2026-04-18T13:38:47Z</time></trkpt><trkpt lat="42.186163422531" lon="11.916693286318177"><ele>415.0</ele><time>2026-04-18T13:38:48Z</time></trkpt><trkpt lat="42.18623605788269" lon="11.916610034982456"><ele>416.0</ele><time>2026-04-18T13:38:49Z</time></trkpt><trkpt lat="42.186307269479194" lon="11.916541056552276"><ele>417.0</ele><time>2026-04-18T13:38:50Z</time></trkpt><trkpt lat="42.18639699294634" lon="11.916467007782941"><ele>418.0</ele><time>2026-04-18T13:38:51Z</time></trkpt><trkpt lat="42.18649673091559" lon="11.91638372536249"><ele>417.25</ele><time>2026-04-18T13:38:52Z</time></trkpt><trkpt lat="42.186612447924745" lon="11.916309139595953"><ele>416.5</ele><time>2026-04-18T13:38:53Z</time></trkpt><trkpt lat="42.186733684429385" lon="11.916231942449159"><ele>415.75</ele><time>2026-04-18T13:38:54Z</time></trkpt><trkpt lat="42.18685152682988" lon="11.916149981967818"><ele>415.0</ele><time>2026-04-18T13:38:55Z</time></trkpt><trkpt lat="42.18696255641439" lon="11.916064446390601"><ele>415.0</ele><time>2026-04-18T13:38:56Z</time></trkpt><trkpt lat="42.187104979236764" lon="11.916004591369994"><ele>415.0</ele><time>2026-04-18T13:38:57Z</time></trkpt><trkpt lat="42.18720208974071" lon="11.915943847468222"><ele>415.0</ele><time>2026-04-18T13:38:58Z</time></trkpt><trkpt lat="42.187304034202306" lon="11.915885176513237"><ele>415.0</ele><time>2026-04-18T13:38:59Z</time></trkpt><trkpt lat="42.18739766294685" lon="11.915840815448721"><ele>416.0</ele><time>2026-04-18T13:39:00Z</time></trkpt><trkpt lat="42.187491125737395" lon="11.915819244600128"><ele>417.0</ele><time>2026-04-18T13:39:01Z</time></trkpt><trkpt lat="42.187586634012455" lon="11.915776585037083"><ele>418.0</ele><time>2026-04-18T13:39:02Z</time></trkpt><trkpt lat="42.18767544414011" lon="11.91572246617259"><ele>419.0</ele><time>2026-04-18T13:39:03Z</time></trkpt><trkpt lat="42.18775185266478" lon="11.915637444533472"><ele>420.0</ele><time>2026-04-18T13:39:04Z</time></trkpt><trkpt lat="42.187835540293854" lon="11.915568539508728"><ele>420.0</ele><time>2026-04-18T13:39:05Z</time></trkpt><trkpt lat="42.18787892683341" lon="11.915464711000773"><ele>420.0</ele><time>2026-04-18T13:39:06Z</time></trkpt><trkpt lat="42.18788688710353" lon="11.915379676246822"><ele>420.0</ele><time>2026-04-18T13:39:07Z</time></trkpt><trkpt lat="42.18788575289019" lon="11.915279303476826"><ele>420.0</ele><time>2026-04-18T13:39:08Z</time></trkpt><trkpt lat="42.18787764035774" lon="11.915171758474756"><ele>420.0</ele><time>2026-04-18T13:39:09Z</time></trkpt><trkpt lat="42.18785440793202" lon="11.915054949707276"><ele>420.0</ele><time>2026-04-18T13:39:10Z</time></trkpt><trkpt lat="42.18783086871593" lon="11.914947488906988"><ele>420.8333333333333</ele><time>2026-04-18T13:39:11Z</time></trkpt><trkpt lat="42.187809554609316" lon="11.914855071550251"><ele>421.66666666666663</ele><time>2026-04-18T13:39:12Z</time></trkpt><trkpt lat="42.18779077298452" lon="11.914762234300285"><ele>422.5</ele><time>2026-04-18T13:39:13Z</time></trkpt><trkpt lat="42.187770737805664" lon="11.914672766229454"><ele>423.3333333333333</ele><time>2026-04-18T13:39:14Z</time></trkpt><trkpt lat="42.187739180522975" lon="11.914583148956757"><ele>424.16666666666663</ele><time>2026-04-18T13:39:15Z</time></trkpt><trkpt lat="42.187700176461504" lon="11.91449164493762"><ele>425.0</ele><time>2026-04-18T13:39:16Z</time></trkpt><trkpt lat="42.18765402215443" lon="11.914389165852814"><ele>424.99999999999994</ele><time>2026-04-18T13:39:17Z</time></trkpt><trkpt lat="42.18760751863481" lon="11.914283709516923"><ele>425.0</ele><time>2026-04-18T13:39:18Z</time></trkpt><trkpt lat="42.18756455404568" lon="11.914170264976066"><ele>425.0</ele><time>2026-04-18T13:39:19Z</time></trkpt><trkpt lat="42.187532523434164" lon="11.914073392910643"><ele>425.0</ele><time>2026-04-18T13:39:20Z</time></trkpt><trkpt lat="42.18751251077907" lon="11.913981171471576"><ele>424.99999999999994</ele><time>2026-04-18T13:39:21Z</time></trkpt><trkpt lat="42.187507806601204" lon="11.91389231439925"><ele>425.0</ele><time>2026-04-18T13:39:22Z</time></trkpt><trkpt lat="42.18750829751084" lon="11.913783573377996"><ele>424.99999999999994</ele><time>2026-04-18T13:39:23Z</time></trkpt><trkpt lat="42.18751289037702" lon="11.913687524225693"><ele>425.0</ele><time>2026-04-18T13:39:24Z</time></trkpt><trkpt lat="42.18752361815903" lon="11.913579980217547"><ele>425.0</ele><time>2026-04-18T13:39:25Z</time></trkpt><trkpt lat="42.18753679572381" lon="11.913455776994311"><ele>425.0</ele><time>2026-04-18T13:39:26Z</time></trkpt><trkpt lat="42.18758379265163" lon="11.913346915276703"><ele>424.99999999999994</ele><time>2026-04-18T13:39:27Z</time></trkpt><trkpt lat="42.187639680200114" lon="11.913246203705821"><ele>425.0</ele><time>2026-04-18T13:39:28Z</time></trkpt><trkpt lat="42.18771141152365" lon="11.913162957468884"><ele>425.0</ele><time>2026-04-18T13:39:29Z</time></trkpt><trkpt lat="42.18779526366406" lon="11.913099456992837"><ele>425.0</ele><time>2026-04-18T13:39:30Z</time></trkpt><trkpt lat="42.18789878440956" lon="11.913056786302477"><ele>425.0</ele><time>2026-04-18T13:39:31Z</time></trkpt><trkpt lat="42.18797994370399" lon="11.912984508546776"><ele>425.0</ele><time>2026-04-18T13:39:32Z</time></trkpt><trkpt lat="42.18806042570691" lon="11.912936712336387"><ele>425.0</ele><time>2026-04-18T13:39:33Z</time></trkpt><trkpt lat="42.18814644216874" lon="11.91287766898089"><ele>421.8</ele><time>2026-04-18T13:39:34Z</time></trkpt><trkpt lat="42.18822876669353" lon="11.91281868743475"><ele>418.6</ele><time>2026-04-18T13:39:35Z</time></trkpt><trkpt lat="42.18831439654225" lon="11.912755530124652"><ele>415.4</ele><time>2026-04-18T13:39:36Z</time></trkpt><trkpt lat="42.18840199166572" lon="11.91269601999586"><ele>412.2</ele><time>2026-04-18T13:39:37Z</time></trkpt><trkpt lat="42.18846944944933" lon="11.912607456097364"><ele>409.0</ele><time>2026-04-18T13:39:38Z</time></trkpt><trkpt lat="42.188535043512935" lon="11.9125164785243"><ele>409.00000000000006</ele><time>2026-04-18T13:39:39Z</time></trkpt><trkpt lat="42.18858459162167" lon="11.912403998630895"><ele>409.0</ele><time>2026-04-18T13:39:40Z</time></trkpt><trkpt lat="42.18862316266107" lon="11.912306127924031"><ele>409.0</ele><time>2026-04-18T13:39:41Z</time></trkpt><trkpt lat="42.18865093280443" lon="11.912194841857374"><ele>409.0</ele><time>2026-04-18T13:39:42Z</time></trkpt><trkpt lat="42.188670198874775" lon="11.912080864060744"><ele>409.00000000000006</ele><time>2026-04-18T13:39:43Z</time></trkpt><trkpt lat="42.18866346074743" lon="11.911959121762699"><ele>409.0</ele><time>2026-04-18T13:39:44Z</time></trkpt><trkpt lat="42.188642861714555" lon="11.91184791610857"><ele>409.1666666666667</ele><time>2026-04-18T13:39:45Z</time></trkpt><trkpt lat="42.18863155238307" lon="11.911736081178343"><ele>409.33333333333337</ele><time>2026-04-18T13:39:46Z</time></trkpt><trkpt lat="42.18861031291672" lon="11.911603817228112"><ele>409.5</ele><time>2026-04-18T13:39:47Z</time></trkpt><trkpt lat="42.18858045532957" lon="11.9115054679989"><ele>409.66666666666663</ele><time>2026-04-18T13:39:48Z</time></trkpt><trkpt lat="42.1885862505004" lon="11.911401325750445"><ele>409.8333333333333</ele><time>2026-04-18T13:39:49Z</time></trkpt><trkpt lat="42.18862169066611" lon="11.911279242223635"><ele>410.0</ele><time>2026-04-18T13:39:50Z</time></trkpt><trkpt lat="42.18865326266065" lon="11.91116209176589"><ele>409.99999999999994</ele><time>2026-04-18T13:39:51Z</time></trkpt><trkpt lat="42.18868524866459" lon="11.911047637064783"><ele>410.0</ele><time>2026-04-18T13:39:52Z</time></trkpt><trkpt lat="42.18871713498878" lon="11.91094442292769"><ele>410.0</ele><time>2026-04-18T13:39:53Z</time></trkpt><trkpt lat="42.18873720777104" lon="11.91084319592688"><ele>410.0</ele><time>2026-04-18T13:39:54Z</time></trkpt><trkpt lat="42.188762292289255" lon="11.910743579804505"><ele>409.99999999999994</ele><time>2026-04-18T13:39:55Z</time></trkpt><trkpt lat="42.18878631207192" lon="11.910649748111155"><ele>410.0</ele><time>2026-04-18T13:39:56Z</time></trkpt><trkpt lat="42.18879654810685" lon="11.910550640404566"><ele>410.3333333333333</ele><time>2026-04-18T13:39:57Z</time></trkpt><trkpt lat="42.188803656209885" lon="11.910432178081583"><ele>410.66666666666663</ele><time>2026-04-18T13:39:58Z</time></trkpt><trkpt lat="42.188767321240924" lon="11.910320681493085"><ele>411.0</ele><time>2026-04-18T13:39:59Z</time></trkpt><trkpt lat="42.188764730151995" lon="11.910206953814459"><ele>411.33333333333337</ele><time>2026-04-18T13:40:00Z</time></trkpt><trkpt lat="42.188751613395475" lon="11.91010462921647"><ele>411.6666666666667</ele><time>2026-04-18T13:40:01Z</time></trkpt><trkpt lat="42.18874599685543" lon="11.909996789552032"><ele>412.0</ele><time>2026-04-18T13:40:02Z</time></trkpt><trkpt lat="42.18875645732707" lon="11.909893634431906"><ele>412.0</ele><time>2026-04-18T13:40:03Z</time></trkpt><trkpt lat="42.188774704361045" lon="11.909773460361706"><ele>412.0</ele><time>2026-04-18T13:40:04Z</time></trkpt><trkpt lat="42.18879356380228" lon="11.909640176859176"><ele>412.0</ele><time>2026-04-18T13:40:05Z</time></trkpt><trkpt lat="42.18879902995046" lon="11.909499263522239"><ele>412.0</ele><time>2026-04-18T13:40:06Z</time></trkpt><trkpt lat="42.188825326947686" lon="11.909358634494348"><ele>412.0</ele><time>2026-04-18T13:40:07Z</time></trkpt><trkpt lat="42.188852773450634" lon="11.909210581489722"><ele>412.8</ele><time>2026-04-18T13:40:08Z</time></trkpt><trkpt lat="42.18889906873468" lon="11.909093328785973"><ele>413.6</ele><time>2026-04-18T13:40:09Z</time></trkpt><trkpt lat="42.188943977385584" lon="11.90899343224913"><ele>414.40000000000003</ele><time>2026-04-18T13:40:10Z</time></trkpt><trkpt lat="42.18899388946679" lon="11.90891102128134"><ele>415.20000000000005</ele><time>2026-04-18T13:40:11Z</time></trkpt><trkpt lat="42.18903995790537" lon="11.90880545337914"><ele>416.0</ele><time>2026-04-18T13:40:12Z</time></trkpt><trkpt lat="42.18913334791462" lon="11.908696335516765"><ele>412.20000000000005</ele><time>2026-04-18T13:40:13Z</time></trkpt><trkpt lat="42.189212790479345" lon="11.908583958924288"><ele>408.40000000000003</ele><time>2026-04-18T13:40:14Z</time></trkpt><trkpt lat="42.18926123662725" lon="11.908477482411708"><ele>404.6</ele><time>2026-04-18T13:40:15Z</time></trkpt><trkpt lat="42.18931066289684" lon="11.908345627282275"><ele>400.8</ele><time>2026-04-18T13:40:16Z</time></trkpt><trkpt lat="42.18935859008339" lon="11.90818492878895"><ele>397.0</ele><time>2026-04-18T13:40:17Z</time></trkpt><trkpt lat="42.18941082767996" lon="11.907982804349336"><ele>397.0</ele><time>2026-04-18T13:40:18Z</time></trkpt><trkpt lat="42.18947198347296" lon="11.90779585285032"><ele>397.0</ele><time>2026-04-18T13:40:19Z</time></trkpt><trkpt lat="42.189519910880584" lon="11.907640074699534"><ele>397.0</ele><time>2026-04-18T13:40:20Z</time></trkpt><trkpt lat="42.18955659511381" lon="11.907518017251872"><ele>397.0</ele><time>2026-04-18T13:40:21Z</time></trkpt><trkpt lat="42.18959629863384" lon="11.907417787525203"><ele>399.20000000000005</ele><time>2026-04-18T13:40:22Z</time></trkpt><trkpt lat="42.189639531712665" lon="11.907320673595118"><ele>401.4</ele><time>2026-04-18T13:40:23Z</time></trkpt><trkpt lat="42.189643788690574" lon="11.907220787731568"><ele>403.6</ele><time>2026-04-18T13:40:24Z</time></trkpt><trkpt lat="42.189655317177206" lon="11.907011896759245"><ele>405.79999999999995</ele><time>2026-04-18T13:40:26Z</time></trkpt><trkpt lat="42.189679375930716" lon="11.906867939935916"><ele>408.0</ele><time>2026-04-18T13:40:27Z</time></trkpt><trkpt lat="42.18969643238703" lon="11.906733686652743"><ele>408.4</ele><time>2026-04-18T13:40:28Z</time></trkpt><trkpt lat="42.18977280033892" lon="11.906614520744967"><ele>408.79999999999995</ele><time>2026-04-18T13:40:29Z</time></trkpt><trkpt lat="42.189806236967215" lon="11.9064820344388"><ele>409.2</ele><time>2026-04-18T13:40:30Z</time></trkpt><trkpt lat="42.18983163836407" lon="11.906353253490675"><ele>409.6</ele><time>2026-04-18T13:40:31.001Z</time></trkpt><trkpt lat="42.18983452945328" lon="11.906221490714023"><ele>410.0</ele><time>2026-04-18T13:40:32Z</time></trkpt><trkpt lat="42.189849313959925" lon="11.906077533611452"><ele>401.0</ele><time>2026-04-18T13:40:33Z</time></trkpt><trkpt lat="42.189865248065395" lon="11.905935225324614"><ele>392.0</ele><time>2026-04-18T13:40:34Z</time></trkpt><trkpt lat="42.18989093902437" lon="11.905797726884607"><ele>383.0</ele><time>2026-04-18T13:40:35Z</time></trkpt><trkpt lat="42.1899067991164" lon="11.90565812215739"><ele>374.0</ele><time>2026-04-18T13:40:36Z</time></trkpt><trkpt lat="42.18993222316488" lon="11.905520876749064"><ele>365.0</ele><time>2026-04-18T13:40:37Z</time></trkpt><trkpt lat="42.18995762372904" lon="11.905390061003887"><ele>365.0</ele><time>2026-04-18T13:40:38Z</time></trkpt><trkpt lat="42.18998474507215" lon="11.905259383029506"><ele>365.0</ele><time>2026-04-18T13:40:39Z</time></trkpt><trkpt lat="42.190022713310405" lon="11.905145820677934"><ele>365.0</ele><time>2026-04-18T13:40:40Z</time></trkpt><trkpt lat="42.19011157892176" lon="11.905066670847354"><ele>365.0</ele><time>2026-04-18T13:40:41Z</time></trkpt><trkpt lat="42.19018493313622" lon="11.90496387137911"><ele>365.0</ele><time>2026-04-18T13:40:42Z</time></trkpt><trkpt lat="42.190258817597766" lon="11.904882108506653"><ele>365.4</ele><time>2026-04-18T13:40:43Z</time></trkpt><trkpt lat="42.19031518151119" lon="11.90478981310275"><ele>365.8</ele><time>2026-04-18T13:40:44Z</time></trkpt><trkpt lat="42.190357810518506" lon="11.90468102504624"><ele>366.20000000000005</ele><time>2026-04-18T13:40:45Z</time></trkpt><trkpt lat="42.19038777336488" lon="11.90455183384986"><ele>366.6</ele><time>2026-04-18T13:40:46Z</time></trkpt><trkpt lat="42.19040769971953" lon="11.904411160209294"><ele>367.0</ele><time>2026-04-18T13:40:47Z</time></trkpt><trkpt lat="42.190420048979874" lon="11.90426441162541"><ele>367.75</ele><time>2026-04-18T13:40:48Z</time></trkpt><trkpt lat="42.19044973324761" lon="11.904105532502975"><ele>368.5</ele><time>2026-04-18T13:40:49Z</time></trkpt><trkpt lat="42.19046320306544" lon="11.90395845027414"><ele>369.25</ele><time>2026-04-18T13:40:50Z</time></trkpt><trkpt lat="42.19047915375934" lon="11.903802232798009"><ele>370.0</ele><time>2026-04-18T13:40:51Z</time></trkpt><trkpt lat="42.19049077000586" lon="11.903650489394986"><ele>370.0</ele><time>2026-04-18T13:40:52Z</time></trkpt><trkpt lat="42.19052218190526" lon="11.903491106913231"><ele>370.0</ele><time>2026-04-18T13:40:53Z</time></trkpt><trkpt lat="42.190557487605446" lon="11.903338602077437"><ele>370.0</ele><time>2026-04-18T13:40:54Z</time></trkpt><trkpt lat="42.19058832432622" lon="11.903169848438061"><ele>370.0</ele><time>2026-04-18T13:40:55Z</time></trkpt><trkpt lat="42.190610822202935" lon="11.903008847810405"><ele>367.25</ele><time>2026-04-18T13:40:56Z</time></trkpt><trkpt lat="42.19064837443497" lon="11.902849529468567"><ele>364.5</ele><time>2026-04-18T13:40:57Z</time></trkpt><trkpt lat="42.19068058162798" lon="11.902687373701996"><ele>361.75</ele><time>2026-04-18T13:40:58Z</time></trkpt><trkpt lat="42.19070811878783" lon="11.902523956854385"><ele>359.0</ele><time>2026-04-18T13:40:59Z</time></trkpt><trkpt lat="42.19070699284463" lon="11.902355558620346"><ele>356.0</ele><time>2026-04-18T13:41:00Z</time></trkpt><trkpt lat="42.19073169081255" lon="11.902201399232812"><ele>353.0</ele><time>2026-04-18T13:41:01Z</time></trkpt><trkpt lat="42.1907572011492" lon="11.902055597418121"><ele>350.0</ele><time>2026-04-18T13:41:02Z</time></trkpt><trkpt lat="42.1907827563871" lon="11.901915353175339"><ele>347.0</ele><time>2026-04-18T13:41:03Z</time></trkpt><trkpt lat="42.19081796827994" lon="11.901801218448647"><ele>344.0</ele><time>2026-04-18T13:41:04Z</time></trkpt><trkpt lat="42.19086738559865" lon="11.90169037144622"><ele>343.0</ele><time>2026-04-18T13:41:05Z</time></trkpt><trkpt lat="42.190937477042574" lon="11.901572781145784"><ele>342.0</ele><time>2026-04-18T13:41:06Z</time></trkpt><trkpt lat="42.19099889987521" lon="11.90146280631401"><ele>341.0</ele><time>2026-04-18T13:41:07Z</time></trkpt><trkpt lat="42.191033672683275" lon="11.901355538518983"><ele>340.0</ele><time>2026-04-18T13:41:08Z</time></trkpt><trkpt lat="42.19104875371764" lon="11.901240207641454"><ele>339.0</ele><time>2026-04-18T13:41:09Z</time></trkpt><trkpt lat="42.19105516363986" lon="11.901082818655306"><ele>337.75</ele><time>2026-04-18T13:41:10Z</time></trkpt><trkpt lat="42.19106065353508" lon="11.900914073105627"><ele>336.5</ele><time>2026-04-18T13:41:11Z</time></trkpt><trkpt lat="42.1910670412075" lon="11.900765722268847"><ele>335.25</ele><time>2026-04-18T13:41:12Z</time></trkpt><trkpt lat="42.19108103150654" lon="11.900604855418006"><ele>334.0</ele><time>2026-04-18T13:41:13Z</time></trkpt><trkpt lat="42.19109207445526" lon="11.900445163132654"><ele>334.0</ele><time>2026-04-18T13:41:14Z</time></trkpt><trkpt lat="42.19110974925542" lon="11.900288299710436"><ele>334.0</ele><time>2026-04-18T13:41:15Z</time></trkpt><trkpt lat="42.19112344884444" lon="11.90013057306465"><ele>334.0</ele><time>2026-04-18T13:41:16Z</time></trkpt><trkpt lat="42.19113395516293" lon="11.899991577036943"><ele>334.0</ele><time>2026-04-18T13:41:17Z</time></trkpt><trkpt lat="42.19116880981453" lon="11.899882931566902"><ele>334.0</ele><time>2026-04-18T13:41:18Z</time></trkpt><trkpt lat="42.19119246615961" lon="11.89978097579522"><ele>334.2</ele><time>2026-04-18T13:41:19Z</time></trkpt><trkpt lat="42.19121245693806" lon="11.899681248728607"><ele>334.4</ele><time>2026-04-18T13:41:20Z</time></trkpt><trkpt lat="42.1912506648257" lon="11.899586801343911"><ele>334.6</ele><time>2026-04-18T13:41:21Z</time></trkpt><trkpt lat="42.19132563888295" lon="11.899472851150426"><ele>334.8</ele><time>2026-04-18T13:41:22Z</time></trkpt><trkpt lat="42.19138994741659" lon="11.899327102973931"><ele>335.0</ele><time>2026-04-18T13:41:23Z</time></trkpt><trkpt lat="42.191452052027834" lon="11.899213802946642"><ele>334.0</ele><time>2026-04-18T13:41:24Z</time></trkpt><trkpt lat="42.191503199976346" lon="11.899105799139063"><ele>333.0</ele><time>2026-04-18T13:41:25Z</time></trkpt><trkpt lat="42.191559235756365" lon="11.898990061290975"><ele>332.0</ele><time>2026-04-18T13:41:26Z</time></trkpt><trkpt lat="42.191620117570075" lon="11.898869388603837"><ele>331.0</ele><time>2026-04-18T13:41:27Z</time></trkpt><trkpt lat="42.19167894729226" lon="11.898745912302154"><ele>330.0</ele><time>2026-04-18T13:41:28Z</time></trkpt><trkpt lat="42.191734502169375" lon="11.8986275810698"><ele>330.8</ele><time>2026-04-18T13:41:29Z</time></trkpt><trkpt lat="42.19179449976925" lon="11.898516550107326"><ele>331.6</ele><time>2026-04-18T13:41:30Z</time></trkpt><trkpt lat="42.191844354455675" lon="11.898396271061715"><ele>332.4</ele><time>2026-04-18T13:41:31Z</time></trkpt><trkpt lat="42.19190778867455" lon="11.898271589991408"><ele>333.2</ele><time>2026-04-18T13:41:32Z</time></trkpt><trkpt lat="42.1919610303847" lon="11.898138661477427"><ele>334.0</ele><time>2026-04-18T13:41:33Z</time></trkpt><trkpt lat="42.1920271217278" lon="11.898015585269617"><ele>334.0</ele><time>2026-04-18T13:41:34Z</time></trkpt><trkpt lat="42.19207837143432" lon="11.89788673793662"><ele>334.0</ele><time>2026-04-18T13:41:35Z</time></trkpt><trkpt lat="42.19212893394423" lon="11.897754534917242"><ele>334.0</ele><time>2026-04-18T13:41:36Z</time></trkpt><trkpt lat="42.19216731133273" lon="11.89762655536233"><ele>334.0</ele><time>2026-04-18T13:41:37Z</time></trkpt><trkpt lat="42.19221673287423" lon="11.897521533843737"><ele>334.0</ele><time>2026-04-18T13:41:38Z</time></trkpt><trkpt lat="42.19228824049616" lon="11.897428351435426"><ele>333.6</ele><time>2026-04-18T13:41:39Z</time></trkpt><trkpt lat="42.19236303608" lon="11.897390091280243"><ele>333.2</ele><time>2026-04-18T13:41:40Z</time></trkpt><trkpt lat="42.192484350766016" lon="11.897393088385543"><ele>332.8</ele><time>2026-04-18T13:41:42Z</time></trkpt><trkpt lat="42.19257880286408" lon="11.897404939308265"><ele>332.40000000000003</ele><time>2026-04-18T13:41:43Z</time></trkpt><trkpt lat="42.192686587000765" lon="11.89741481731576"><ele>332.0</ele><time>2026-04-18T13:41:44Z</time></trkpt><trkpt lat="42.192769686838865" lon="11.897453159730837"><ele>332.0</ele><time>2026-04-18T13:41:45Z</time></trkpt><trkpt lat="42.19285061832944" lon="11.897494312039575"><ele>332.0</ele><time>2026-04-18T13:41:46Z</time></trkpt><trkpt lat="42.19294037038833" lon="11.89754275350824"><ele>332.0</ele><time>2026-04-18T13:41:47Z</time></trkpt><trkpt lat="42.19302917119304" lon="11.897574329836775"><ele>332.0</ele><time>2026-04-18T13:41:48Z</time></trkpt><trkpt lat="42.193113425331866" lon="11.897596611773643"><ele>332.0</ele><time>2026-04-18T13:41:49Z</time></trkpt><trkpt lat="42.19319112824325" lon="11.897609530704441"><ele>332.0</ele><time>2026-04-18T13:41:50Z</time></trkpt><trkpt lat="42.19328827315092" lon="11.897606685332969"><ele>331.0</ele><time>2026-04-18T13:41:51Z</time></trkpt><trkpt lat="42.19337602394038" lon="11.897560292650104"><ele>330.0</ele><time>2026-04-18T13:41:52Z</time></trkpt><trkpt lat="42.19346076320468" lon="11.897513569359743"><ele>329.0</ele><time>2026-04-18T13:41:53Z</time></trkpt><trkpt lat="42.19354038862637" lon="11.897456482223632"><ele>328.0</ele><time>2026-04-18T13:41:54Z</time></trkpt><trkpt lat="42.19361174934633" lon="11.897393104220837"><ele>327.0</ele><time>2026-04-18T13:41:55Z</time></trkpt><trkpt lat="42.19368787076993" lon="11.897327699733843"><ele>327.0</ele><time>2026-04-18T13:41:56Z</time></trkpt><trkpt lat="42.19377125153904" lon="11.897304442707041"><ele>327.0</ele><time>2026-04-18T13:41:57Z</time></trkpt><trkpt lat="42.19385469243176" lon="11.897242654647446"><ele>327.0</ele><time>2026-04-18T13:41:58Z</time></trkpt><trkpt lat="42.193952343874784" lon="11.897222251082285"><ele>327.0</ele><time>2026-04-18T13:41:59Z</time></trkpt><trkpt lat="42.19403972676076" lon="11.89717124893319"><ele>327.0</ele><time>2026-04-18T13:42:00Z</time></trkpt><trkpt lat="42.1941192387067" lon="11.897127667032363"><ele>327.3333333333333</ele><time>2026-04-18T13:42:01Z</time></trkpt><trkpt lat="42.19419903194747" lon="11.897079332394936"><ele>327.6666666666667</ele><time>2026-04-18T13:42:02Z</time></trkpt><trkpt lat="42.1942790812283" lon="11.897045902506461"><ele>328.0</ele><time>2026-04-18T13:42:03Z</time></trkpt><trkpt lat="42.19435554223366" lon="11.897009276434407"><ele>328.33333333333337</ele><time>2026-04-18T13:42:04Z</time></trkpt><trkpt lat="42.194440979450356" lon="11.896984205445914"><ele>328.6666666666667</ele><time>2026-04-18T13:42:05Z</time></trkpt><trkpt lat="42.194545620274475" lon="11.896958113036199"><ele>329.0</ele><time>2026-04-18T13:42:06Z</time></trkpt><trkpt lat="42.19464452606968" lon="11.896936593322621"><ele>329.0</ele><time>2026-04-18T13:42:07Z</time></trkpt><trkpt lat="42.194743318350845" lon="11.896921345479486"><ele>329.0</ele><time>2026-04-18T13:42:08Z</time></trkpt><trkpt lat="42.19483364387731" lon="11.896892190502255"><ele>329.0</ele><time>2026-04-18T13:42:09Z</time></trkpt><trkpt lat="42.194929821434364" lon="11.89687673975636"><ele>329.0</ele><time>2026-04-18T13:42:10Z</time></trkpt><trkpt lat="42.195020552894654" lon="11.896851337362905"><ele>329.0</ele><time>2026-04-18T13:42:11.001Z</time></trkpt><trkpt lat="42.19510246080991" lon="11.896847012742006"><ele>328.1666666666667</ele><time>2026-04-18T13:42:12.001Z</time></trkpt><trkpt lat="42.195178075526414" lon="11.89685004664868"><ele>327.33333333333337</ele><time>2026-04-18T13:42:13.001Z</time></trkpt><trkpt lat="42.19524667213641" lon="11.896844258154324"><ele>326.5</ele><time>2026-04-18T13:42:14.001Z</time></trkpt><trkpt lat="42.195315272651605" lon="11.89683615389999"><ele>325.6666666666667</ele><time>2026-04-18T13:42:15.001Z</time></trkpt><trkpt lat="42.19539607660811" lon="11.896832503618036"><ele>324.8333333333333</ele><time>2026-04-18T13:42:16.001Z</time></trkpt><trkpt lat="42.19548236893579" lon="11.896815089221622"><ele>324.0</ele><time>2026-04-18T13:42:17.001Z</time></trkpt><trkpt lat="42.19555732551242" lon="11.896788067143197"><ele>319.59999999999997</ele><time>2026-04-18T13:42:18.001Z</time></trkpt><trkpt lat="42.195642136434415" lon="11.896746487036928"><ele>315.2</ele><time>2026-04-18T13:42:19.001Z</time></trkpt><trkpt lat="42.19576069388529" lon="11.896702805277176"><ele>310.79999999999995</ele><time>2026-04-18T13:42:20.001Z</time></trkpt><trkpt lat="42.195862189187594" lon="11.896637147732708"><ele>306.4</ele><time>2026-04-18T13:42:21.001Z</time></trkpt><trkpt lat="42.195949841781726" lon="11.896593661017677"><ele>302.0</ele><time>2026-04-18T13:42:22.001Z</time></trkpt><trkpt lat="42.19602259226264" lon="11.89652633358061"><ele>301.1666666666667</ele><time>2026-04-18T13:42:23.001Z</time></trkpt><trkpt lat="42.19609275731163" lon="11.896443838697756"><ele>300.33333333333337</ele><time>2026-04-18T13:42:24.001Z</time></trkpt><trkpt lat="42.19615441906239" lon="11.896355608639128"><ele>299.5</ele><time>2026-04-18T13:42:25.001Z</time></trkpt><trkpt lat="42.19621544340125" lon="11.896273860503717"><ele>298.6666666666667</ele><time>2026-04-18T13:42:26.001Z</time></trkpt><trkpt lat="42.19628078000783" lon="11.896203749131477"><ele>297.8333333333333</ele><time>2026-04-18T13:42:27.001Z</time></trkpt><trkpt lat="42.19635348930417" lon="11.896138046634498"><ele>297.0</ele><time>2026-04-18T13:42:28.001Z</time></trkpt><trkpt lat="42.196427309508444" lon="11.89608220343916"><ele>296.3333333333333</ele><time>2026-04-18T13:42:29.001Z</time></trkpt><trkpt lat="42.19650467451727" lon="11.896025771121428"><ele>295.6666666666667</ele><time>2026-04-18T13:42:30.001Z</time></trkpt><trkpt lat="42.196579101126325" lon="11.895993361934073"><ele>295.0</ele><time>2026-04-18T13:42:31.001Z</time></trkpt><trkpt lat="42.19665035691315" lon="11.895968305322011"><ele>294.33333333333337</ele><time>2026-04-18T13:42:32.001Z</time></trkpt><trkpt lat="42.1967303597872" lon="11.89596294194814"><ele>293.6666666666667</ele><time>2026-04-18T13:42:33.001Z</time></trkpt><trkpt lat="42.19681001279155" lon="11.89596321583323"><ele>293.0</ele><time>2026-04-18T13:42:34.001Z</time></trkpt><trkpt lat="42.19689270800561" lon="11.895989693291703"><ele>293.0</ele><time>2026-04-18T13:42:35.001Z</time></trkpt><trkpt lat="42.19696054820492" lon="11.896063911968929"><ele>293.0</ele><time>2026-04-18T13:42:36.001Z</time></trkpt><trkpt lat="42.19702988919141" lon="11.896115372517421"><ele>293.0</ele><time>2026-04-18T13:42:37.001Z</time></trkpt><trkpt lat="42.19713646039743" lon="11.896165574459161"><ele>293.0</ele><time>2026-04-18T13:42:39Z</time></trkpt><trkpt lat="42.19723445283149" lon="11.896261181797328"><ele>293.0</ele><time>2026-04-18T13:42:41Z</time></trkpt><trkpt lat="42.197278846955484" lon="11.896356844127578"><ele>293.0</ele><time>2026-04-18T13:42:42Z</time></trkpt><trkpt lat="42.19732371179436" lon="11.89644382529296"><ele>293.0</ele><time>2026-04-18T13:42:43Z</time></trkpt><trkpt lat="42.19736084296611" lon="11.8965522695606"><ele>293.0</ele><time>2026-04-18T13:42:44Z</time></trkpt><trkpt lat="42.197405632568135" lon="11.896687367042047"><ele>293.0</ele><time>2026-04-18T13:42:45Z</time></trkpt><trkpt lat="42.19745515450766" lon="11.896836785044282"><ele>293.0</ele><time>2026-04-18T13:42:46Z</time></trkpt><trkpt lat="42.19750344137917" lon="11.896962278812808"><ele>290.6</ele><time>2026-04-18T13:42:47Z</time></trkpt><trkpt lat="42.19755003355767" lon="11.897086386685194"><ele>288.20000000000005</ele><time>2026-04-18T13:42:48Z</time></trkpt><trkpt lat="42.19757727529517" lon="11.897214507732775"><ele>285.8</ele><time>2026-04-18T13:42:49Z</time></trkpt><trkpt lat="42.19762025642279" lon="11.897349462895866"><ele>283.40000000000003</ele><time>2026-04-18T13:42:50Z</time></trkpt><trkpt lat="42.19768059088894" lon="11.897483011350513"><ele>281.0</ele><time>2026-04-18T13:42:51Z</time></trkpt><trkpt lat="42.19773278978815" lon="11.897614196579637"><ele>281.0</ele><time>2026-04-18T13:42:52Z</time></trkpt><trkpt lat="42.19777309730306" lon="11.89772985231222"><ele>281.0</ele><time>2026-04-18T13:42:53Z</time></trkpt><trkpt lat="42.1978142285623" lon="11.897848103392757"><ele>281.0</ele><time>2026-04-18T13:42:54Z</time></trkpt><trkpt lat="42.197846891169526" lon="11.897949538967763"><ele>281.0</ele><time>2026-04-18T13:42:55Z</time></trkpt><trkpt lat="42.19788808371261" lon="11.898053757859547"><ele>281.0</ele><time>2026-04-18T13:42:56Z</time></trkpt><trkpt lat="42.19793011009138" lon="11.898168996074954"><ele>281.0</ele><time>2026-04-18T13:42:57Z</time></trkpt><trkpt lat="42.19795882631155" lon="11.898266538215573"><ele>281.0</ele><time>2026-04-18T13:42:58Z</time></trkpt><trkpt lat="42.19799581881974" lon="11.89837681415108"><ele>281.0</ele><time>2026-04-18T13:42:59Z</time></trkpt><trkpt lat="42.19803599777205" lon="11.898473509421082"><ele>281.0</ele><time>2026-04-18T13:43:00Z</time></trkpt><trkpt lat="42.198077487633014" lon="11.898559324774528"><ele>281.0</ele><time>2026-04-18T13:43:01Z</time></trkpt><trkpt lat="42.19812271397598" lon="11.898644155563996"><ele>281.0</ele><time>2026-04-18T13:43:02Z</time></trkpt><trkpt lat="42.19815524677403" lon="11.898724402338399"><ele>277.5</ele><time>2026-04-18T13:43:03Z</time></trkpt><trkpt lat="42.19818820587202" lon="11.898803180911367"><ele>274.0</ele><time>2026-04-18T13:43:04Z</time></trkpt><trkpt lat="42.19821585098527" lon="11.898888459590344"><ele>270.5</ele><time>2026-04-18T13:43:05Z</time></trkpt><trkpt lat="42.19824554330852" lon="11.898982770248578"><ele>267.0</ele><time>2026-04-18T13:43:06Z</time></trkpt><trkpt lat="42.19827475510081" lon="11.899103918233566"><ele>263.5</ele><time>2026-04-18T13:43:07Z</time></trkpt><trkpt lat="42.19829882580917" lon="11.89920979931518"><ele>260.0</ele><time>2026-04-18T13:43:08Z</time></trkpt><trkpt lat="42.19830954506026" lon="11.89931158046513"><ele>260.00000000000006</ele><time>2026-04-18T13:43:09Z</time></trkpt><trkpt lat="42.19833388149663" lon="11.899410894210455"><ele>260.0</ele><time>2026-04-18T13:43:10Z</time></trkpt><trkpt lat="42.19834402536429" lon="11.899507265851149"><ele>260.0</ele><time>2026-04-18T13:43:11Z</time></trkpt><trkpt lat="42.19836055148437" lon="11.89959913033417"><ele>260.0</ele><time>2026-04-18T13:43:12Z</time></trkpt><trkpt lat="42.1983856444202" lon="11.899690559764792"><ele>260.0</ele><time>2026-04-18T13:43:13Z</time></trkpt><trkpt lat="42.198393640709135" lon="11.899778609638108"><ele>260.00000000000006</ele><time>2026-04-18T13:43:14Z</time></trkpt><trkpt lat="42.19840798403679" lon="11.899871722706894"><ele>260.0</ele><time>2026-04-18T13:43:15Z</time></trkpt><trkpt lat="42.19843283857025" lon="11.899950020054337"><ele>260.0</ele><time>2026-04-18T13:43:16Z</time></trkpt><trkpt lat="42.19847673231674" lon="11.900062027623859"><ele>260.0</ele><time>2026-04-18T13:43:18Z</time></trkpt><trkpt lat="42.198560898670976" lon="11.900097720107125"><ele>260.0</ele><time>2026-04-18T13:43:20Z</time></trkpt><trkpt lat="42.19863494147866" lon="11.90003096815577"><ele>260.0</ele><time>2026-04-18T13:43:22Z</time></trkpt><trkpt lat="42.198667270543055" lon="11.89985160474233"><ele>260.0</ele><time>2026-04-18T13:43:24Z</time></trkpt><trkpt lat="42.19869883431479" lon="11.899758422103986"><ele>260.00000000000006</ele><time>2026-04-18T13:43:25Z</time></trkpt><trkpt lat="42.198718335249524" lon="11.899671611079672"><ele>260.0</ele><time>2026-04-18T13:43:26Z</time></trkpt><trkpt lat="42.19873529708859" lon="11.899589172213721"><ele>260.0</ele><time>2026-04-18T13:43:27Z</time></trkpt><trkpt lat="42.198753323308374" lon="11.899490529094278"><ele>260.0</ele><time>2026-04-18T13:43:28Z</time></trkpt><trkpt lat="42.19876477375117" lon="11.899397029137544"><ele>260.0</ele><time>2026-04-18T13:43:29Z</time></trkpt><trkpt lat="42.19877360149811" lon="11.89929766207399"><ele>260.00000000000006</ele><time>2026-04-18T13:43:30Z</time></trkpt><trkpt lat="42.19876874400812" lon="11.89918894315598"><ele>260.0</ele><time>2026-04-18T13:43:31Z</time></trkpt><trkpt lat="42.1987552660523" lon="11.89906916461844"><ele>260.0</ele><time>2026-04-18T13:43:32Z</time></trkpt><trkpt lat="42.198750105611985" lon="11.898960046163024"><ele>260.0</ele><time>2026-04-18T13:43:33Z</time></trkpt><trkpt lat="42.19875541242382" lon="11.8988559282854"><ele>260.0</ele><time>2026-04-18T13:43:34Z</time></trkpt><trkpt lat="42.19876936958146" lon="11.89874596163722"><ele>260.0</ele><time>2026-04-18T13:43:35Z</time></trkpt><trkpt lat="42.19879587747027" lon="11.89864974751208"><ele>260.0</ele><time>2026-04-18T13:43:36Z</time></trkpt><trkpt lat="42.1988355673863" lon="11.89855551809458"><ele>260.0</ele><time>2026-04-18T13:43:37Z</time></trkpt><trkpt lat="42.198882097688255" lon="11.89845960078286"><ele>259.33333333333337</ele><time>2026-04-18T13:43:38Z</time></trkpt><trkpt lat="42.19891600039805" lon="11.89836242686068"><ele>258.6666666666667</ele><time>2026-04-18T13:43:39Z</time></trkpt><trkpt lat="42.198966534459146" lon="11.89827248274973"><ele>258.0</ele><time>2026-04-18T13:43:40Z</time></trkpt><trkpt lat="42.19900662923036" lon="11.898186349741884"><ele>257.3333333333333</ele><time>2026-04-18T13:43:41Z</time></trkpt><trkpt lat="42.19906058400885" lon="11.898097635445442"><ele>256.66666666666663</ele><time>2026-04-18T13:43:42.001Z</time></trkpt><trkpt lat="42.19911081905592" lon="11.897997757697132"><ele>256.0</ele><time>2026-04-18T13:43:43.001Z</time></trkpt><trkpt lat="42.19916280448585" lon="11.897897266936898"><ele>251.49999999999997</ele><time>2026-04-18T13:43:44.001Z</time></trkpt><trkpt lat="42.199204727343435" lon="11.897797411532233"><ele>247.0</ele><time>2026-04-18T13:43:45.001Z</time></trkpt><trkpt lat="42.19924612127379" lon="11.897689754608754"><ele>242.5</ele><time>2026-04-18T13:43:46.001Z</time></trkpt><trkpt lat="42.19928406415362" lon="11.897585408594848"><ele>238.0</ele><time>2026-04-18T13:43:47.001Z</time></trkpt><trkpt lat="42.199319581837614" lon="11.897482057655369"><ele>233.49999999999997</ele><time>2026-04-18T13:43:48.001Z</time></trkpt><trkpt lat="42.19937702599914" lon="11.897387380563922"><ele>229.0</ele><time>2026-04-18T13:43:49.001Z</time></trkpt><trkpt lat="42.19942980093536" lon="11.897265552708117"><ele>228.6</ele><time>2026-04-18T13:43:50.001Z</time></trkpt><trkpt lat="42.19948130278107" lon="11.897142471900526"><ele>228.2</ele><time>2026-04-18T13:43:51.001Z</time></trkpt><trkpt lat="42.199528131503904" lon="11.897029212453589"><ele>227.79999999999998</ele><time>2026-04-18T13:43:52.001Z</time></trkpt><trkpt lat="42.19958340262581" lon="11.896909477071011"><ele>227.39999999999998</ele><time>2026-04-18T13:43:53.001Z</time></trkpt><trkpt lat="42.19963667685581" lon="11.896793364050504"><ele>227.0</ele><time>2026-04-18T13:43:54.001Z</time></trkpt><trkpt lat="42.19968580586591" lon="11.896680586743813"><ele>227.0</ele><time>2026-04-18T13:43:55.001Z</time></trkpt><trkpt lat="42.199735276540835" lon="11.896575431830032"><ele>227.0</ele><time>2026-04-18T13:43:56.001Z</time></trkpt><trkpt lat="42.19979716150229" lon="11.896474066878449"><ele>227.0</ele><time>2026-04-18T13:43:57.001Z</time></trkpt><trkpt lat="42.19985661546356" lon="11.89636790139673"><ele>227.0</ele><time>2026-04-18T13:43:58.001Z</time></trkpt><trkpt lat="42.199908723010736" lon="11.896271895653593"><ele>227.0</ele><time>2026-04-18T13:43:59.001Z</time></trkpt><trkpt lat="42.19995167906165" lon="11.896188156732471"><ele>224.50000000000003</ele><time>2026-04-18T13:44:00.001Z</time></trkpt><trkpt lat="42.200005226514186" lon="11.896111991385121"><ele>222.0</ele><time>2026-04-18T13:44:01.001Z</time></trkpt><trkpt lat="42.200045000762074" lon="11.896024216602571"><ele>219.5</ele><time>2026-04-18T13:44:02.001Z</time></trkpt><trkpt lat="42.200103673330354" lon="11.8959321912817"><ele>217.0</ele><time>2026-04-18T13:44:03.001Z</time></trkpt><trkpt lat="42.200144290870945" lon="11.89583034002091"><ele>214.50000000000003</ele><time>2026-04-18T13:44:04.001Z</time></trkpt><trkpt lat="42.200208451765846" lon="11.89573224072636"><ele>212.0</ele><time>2026-04-18T13:44:05.001Z</time></trkpt><trkpt lat="42.200268166469144" lon="11.89562520601276"><ele>212.00000000000003</ele><time>2026-04-18T13:44:06.001Z</time></trkpt><trkpt lat="42.200332374615044" lon="11.895529337137317"><ele>212.0</ele><time>2026-04-18T13:44:07.001Z</time></trkpt><trkpt lat="42.20039947261629" lon="11.895441222932016"><ele>212.0</ele><time>2026-04-18T13:44:08.001Z</time></trkpt><trkpt lat="42.200458099647356" lon="11.895366779431448"><ele>212.0</ele><time>2026-04-18T13:44:09.001Z</time></trkpt><trkpt lat="42.20050618903173" lon="11.895286666805145"><ele>212.00000000000003</ele><time>2026-04-18T13:44:10.001Z</time></trkpt><trkpt lat="42.20056083906009" lon="11.895238912935723"><ele>212.0</ele><time>2026-04-18T13:44:11.001Z</time></trkpt><trkpt lat="42.20064961766698" lon="11.895136845259387"><ele>210.2</ele><time>2026-04-18T13:44:13.001Z</time></trkpt><trkpt lat="42.20073272623667" lon="11.895057090284496"><ele>208.39999999999998</ele><time>2026-04-18T13:44:15.001Z</time></trkpt><trkpt lat="42.200777351401015" lon="11.89497519443458"><ele>206.60000000000002</ele><time>2026-04-18T13:44:16.001Z</time></trkpt><trkpt lat="42.200901287345665" lon="11.895025353660746"><ele>204.8</ele><time>2026-04-18T13:44:18.001Z</time></trkpt><trkpt lat="42.20101575828745" lon="11.89510873869121"><ele>203.0</ele><time>2026-04-18T13:44:20.001Z</time></trkpt><trkpt lat="42.20108341750457" lon="11.895144349939809"><ele>202.2</ele><time>2026-04-18T13:44:21.001Z</time></trkpt><trkpt lat="42.20113874534869" lon="11.895189348098132"><ele>201.4</ele><time>2026-04-18T13:44:22.001Z</time></trkpt><trkpt lat="42.201241829516796" lon="11.89526672768256"><ele>200.6</ele><time>2026-04-18T13:44:24.001Z</time></trkpt><trkpt lat="42.20133579971402" lon="11.895358097259772"><ele>199.79999999999998</ele><time>2026-04-18T13:44:26.001Z</time></trkpt><trkpt lat="42.2014458346238" lon="11.895409380936073"><ele>199.0</ele><time>2026-04-18T13:44:28.001Z</time></trkpt><trkpt lat="42.20155241313288" lon="11.895445019808578"><ele>196.25</ele><time>2026-04-18T13:44:30.001Z</time></trkpt><trkpt lat="42.20166322098539" lon="11.895443703096484"><ele>193.5</ele><time>2026-04-18T13:44:32.001Z</time></trkpt><trkpt lat="42.20177372855524" lon="11.895430166705253"><ele>190.75</ele><time>2026-04-18T13:44:34.001Z</time></trkpt><trkpt lat="42.20188559503952" lon="11.895413722516468"><ele>188.0</ele><time>2026-04-18T13:44:36.001Z</time></trkpt><trkpt lat="42.20200311807752" lon="11.895368489887735"><ele>188.0</ele><time>2026-04-18T13:44:38.001Z</time></trkpt><trkpt lat="42.20211876368856" lon="11.895316096787305"><ele>188.0</ele><time>2026-04-18T13:44:40.001Z</time></trkpt><trkpt lat="42.20223599378045" lon="11.895267120550315"><ele>188.0</ele><time>2026-04-18T13:44:42.001Z</time></trkpt><trkpt lat="42.202297628993655" lon="11.895238679816952"><ele>188.0</ele><time>2026-04-18T13:44:43.001Z</time></trkpt><trkpt lat="42.20241451557681" lon="11.895193737381275"><ele>188.0</ele><time>2026-04-18T13:44:45Z</time></trkpt><trkpt lat="42.202534335014185" lon="11.895158261660562"><ele>186.0</ele><time>2026-04-18T13:44:47Z</time></trkpt><trkpt lat="42.20259785174635" lon="11.895144192139817"><ele>184.0</ele><time>2026-04-18T13:44:48Z</time></trkpt><trkpt lat="42.20269442878629" lon="11.895118334062417"><ele>182.0</ele><time>2026-04-18T13:44:50Z</time></trkpt><trkpt lat="42.20273810170973" lon="11.895039245012985"><ele>180.0</ele><time>2026-04-18T13:44:52Z</time></trkpt><trkpt lat="42.202735855455835" lon="11.894859702303176"><ele>178.0</ele><time>2026-04-18T13:44:54Z</time></trkpt><trkpt lat="42.20273929810653" lon="11.894693013916337"><ele>178.0</ele><time>2026-04-18T13:44:55Z</time></trkpt><trkpt lat="42.20273571885023" lon="11.89449888648838"><ele>178.0</ele><time>2026-04-18T13:44:56Z</time></trkpt><trkpt lat="42.20272573203457" lon="11.894302496536282"><ele>178.0</ele><time>2026-04-18T13:44:57Z</time></trkpt><trkpt lat="42.202709805890116" lon="11.894134747069467"><ele>178.0</ele><time>2026-04-18T13:44:58Z</time></trkpt><trkpt lat="42.20269306093114" lon="11.89396825320135"><ele>178.0</ele><time>2026-04-18T13:44:59Z</time></trkpt><trkpt lat="42.20267786151429" lon="11.893778187612552"><ele>178.0</ele><time>2026-04-18T13:45:00Z</time></trkpt><trkpt lat="42.20266572219741" lon="11.893599179293314"><ele>178.0</ele><time>2026-04-18T13:45:01Z</time></trkpt><trkpt lat="42.20265519611131" lon="11.893434734815752"><ele>178.0</ele><time>2026-04-18T13:45:02Z</time></trkpt><trkpt lat="42.20263841298315" lon="11.89329021666521"><ele>177.60000000000002</ele><time>2026-04-18T13:45:03Z</time></trkpt><trkpt lat="42.202658026203494" lon="11.893141031465609"><ele>177.20000000000002</ele><time>2026-04-18T13:45:04Z</time></trkpt><trkpt lat="42.20265348749503" lon="11.893001057768648"><ele>176.8</ele><time>2026-04-18T13:45:05Z</time></trkpt><trkpt lat="42.20265900847978" lon="11.892872226044197"><ele>176.4</ele><time>2026-04-18T13:45:06Z</time></trkpt><trkpt lat="42.20270741066077" lon="11.892769525001304"><ele>176.0</ele><time>2026-04-18T13:45:07Z</time></trkpt><trkpt lat="42.20272587101226" lon="11.892666241203079"><ele>176.0</ele><time>2026-04-18T13:45:08Z</time></trkpt><trkpt lat="42.202736344470075" lon="11.892560980818491"><ele>176.0</ele><time>2026-04-18T13:45:09Z</time></trkpt><trkpt lat="42.202744590175" lon="11.892442709584328"><ele>176.0</ele><time>2026-04-18T13:45:10Z</time></trkpt><trkpt lat="42.20275203952307" lon="11.892336960403565"><ele>176.0</ele><time>2026-04-18T13:45:11Z</time></trkpt><trkpt lat="42.20275736511688" lon="11.89222286607244"><ele>176.0</ele><time>2026-04-18T13:45:12Z</time></trkpt><trkpt lat="42.202757461974926" lon="11.892104970380878"><ele>176.0</ele><time>2026-04-18T13:45:13Z</time></trkpt><trkpt lat="42.20274243138995" lon="11.891985194672813"><ele>176.0</ele><time>2026-04-18T13:45:14Z</time></trkpt><trkpt lat="42.20273962997361" lon="11.891870564412713"><ele>176.0</ele><time>2026-04-18T13:45:15Z</time></trkpt><trkpt lat="42.20273404642288" lon="11.891763949892923"><ele>176.0</ele><time>2026-04-18T13:45:16Z</time></trkpt><trkpt lat="42.202723948706115" lon="11.891658535066354"><ele>176.0</ele><time>2026-04-18T13:45:17Z</time></trkpt><trkpt lat="42.202702195488584" lon="11.89157121934126"><ele>176.0</ele><time>2026-04-18T13:45:18Z</time></trkpt><trkpt lat="42.20270193173592" lon="11.891473914912904"><ele>176.0</ele><time>2026-04-18T13:45:19Z</time></trkpt><trkpt lat="42.20268112462538" lon="11.891373233243485"><ele>175.5</ele><time>2026-04-18T13:45:20Z</time></trkpt><trkpt lat="42.202640202615505" lon="11.891257535795448"><ele>175.0</ele><time>2026-04-18T13:45:21Z</time></trkpt><trkpt lat="42.20259850914233" lon="11.891168640823906"><ele>174.5</ele><time>2026-04-18T13:45:22Z</time></trkpt><trkpt lat="42.20254871830352" lon="11.891077076516302"><ele>174.0</ele><time>2026-04-18T13:45:23Z</time></trkpt><trkpt lat="42.202494227338335" lon="11.890990277737753"><ele>173.5</ele><time>2026-04-18T13:45:24Z</time></trkpt><trkpt lat="42.20244509493116" lon="11.89092464689996"><ele>173.0</ele><time>2026-04-18T13:45:25Z</time></trkpt><trkpt lat="42.202390303152825" lon="11.890851472728038"><ele>172.16666666666666</ele><time>2026-04-18T13:45:26Z</time></trkpt><trkpt lat="42.20232349901949" lon="11.89076227058923"><ele>171.33333333333331</ele><time>2026-04-18T13:45:27Z</time></trkpt><trkpt lat="42.202251468142414" lon="11.890668527997743"><ele>170.5</ele><time>2026-04-18T13:45:28Z</time></trkpt><trkpt lat="42.20219043906173" lon="11.890589313608192"><ele>169.66666666666666</ele><time>2026-04-18T13:45:29Z</time></trkpt><trkpt lat="42.20214234333975" lon="11.890526886464132"><ele>168.83333333333334</ele><time>2026-04-18T13:45:30Z</time></trkpt><trkpt lat="42.20208895850439" lon="11.890466863433318"><ele>168.0</ele><time>2026-04-18T13:45:31Z</time></trkpt><trkpt lat="42.20203160246065" lon="11.890425330158628"><ele>168.0</ele><time>2026-04-18T13:45:32Z</time></trkpt><trkpt lat="42.20196029038458" lon="11.890392207788397"><ele>168.0</ele><time>2026-04-18T13:45:33Z</time></trkpt><trkpt lat="42.20186647504024" lon="11.89035236438869"><ele>168.0</ele><time>2026-04-18T13:45:34Z</time></trkpt><trkpt lat="42.20176672111233" lon="11.890312934048515"><ele>168.0</ele><time>2026-04-18T13:45:35Z</time></trkpt><trkpt lat="42.20168227226571" lon="11.89027255943666"><ele>168.0</ele><time>2026-04-18T13:45:36Z</time></trkpt><trkpt lat="42.2015952223418" lon="11.890220667580191"><ele>167.83333333333334</ele><time>2026-04-18T13:45:37Z</time></trkpt><trkpt lat="42.20149737852737" lon="11.890144696019815"><ele>167.66666666666666</ele><time>2026-04-18T13:45:38Z</time></trkpt><trkpt lat="42.20141687502599" lon="11.890069953957909"><ele>167.5</ele><time>2026-04-18T13:45:39Z</time></trkpt><trkpt lat="42.20136053974991" lon="11.889989496051715"><ele>167.33333333333331</ele><time>2026-04-18T13:45:40Z</time></trkpt><trkpt lat="42.20132560053161" lon="11.889905546166888"><ele>167.16666666666666</ele><time>2026-04-18T13:45:41Z</time></trkpt><trkpt lat="42.20129640878854" lon="11.889806342219492"><ele>167.0</ele><time>2026-04-18T13:45:42Z</time></trkpt><trkpt lat="42.201264082377904" lon="11.889671085487718"><ele>167.0</ele><time>2026-04-18T13:45:43Z</time></trkpt><trkpt lat="42.20123389942708" lon="11.889505191131894"><ele>167.0</ele><time>2026-04-18T13:45:44Z</time></trkpt><trkpt lat="42.20121829393548" lon="11.88936457808992"><ele>167.0</ele><time>2026-04-18T13:45:45Z</time></trkpt><trkpt lat="42.20121792231001" lon="11.88922730396546"><ele>167.0</ele><time>2026-04-18T13:45:46Z</time></trkpt><trkpt lat="42.20121090148778" lon="11.889092374814705"><ele>167.0</ele><time>2026-04-18T13:45:47Z</time></trkpt><trkpt lat="42.20119954242265" lon="11.88897681441788"><ele>165.0</ele><time>2026-04-18T13:45:48Z</time></trkpt><trkpt lat="42.201158832495715" lon="11.888810656067747"><ele>163.0</ele><time>2026-04-18T13:45:49Z</time></trkpt><trkpt lat="42.20111108629712" lon="11.88863448129785"><ele>161.0</ele><time>2026-04-18T13:45:50Z</time></trkpt><trkpt lat="42.20108225186536" lon="11.888494986219639"><ele>159.0</ele><time>2026-04-18T13:45:51Z</time></trkpt><trkpt lat="42.20107212442116" lon="11.888368244977952"><ele>158.4</ele><time>2026-04-18T13:45:52Z</time></trkpt><trkpt lat="42.20109646433962" lon="11.88821765752746"><ele>157.8</ele><time>2026-04-18T13:45:53.001Z</time></trkpt><trkpt lat="42.20110396307236" lon="11.88806533182259"><ele>157.2</ele><time>2026-04-18T13:45:54.001Z</time></trkpt><trkpt lat="42.20109074219986" lon="11.887940547000428"><ele>156.6</ele><time>2026-04-18T13:45:55.001Z</time></trkpt><trkpt lat="42.201067482073995" lon="11.887853001598657"><ele>156.0</ele><time>2026-04-18T13:45:56.001Z</time></trkpt><trkpt lat="42.20100701711923" lon="11.887794006768319"><ele>156.0</ele><time>2026-04-18T13:45:57.001Z</time></trkpt><trkpt lat="42.20093667886212" lon="11.88772120255592"><ele>156.0</ele><time>2026-04-18T13:45:58.001Z</time></trkpt><trkpt lat="42.20084528280193" lon="11.887638984162832"><ele>156.0</ele><time>2026-04-18T13:45:59.001Z</time></trkpt><trkpt lat="42.20077487472876" lon="11.887509749362504"><ele>156.0</ele><time>2026-04-18T13:46:00.001Z</time></trkpt><trkpt lat="42.20072087101648" lon="11.887391746094169"><ele>156.0</ele><time>2026-04-18T13:46:01.001Z</time></trkpt><trkpt lat="42.20066218007034" lon="11.887268453202285"><ele>156.75</ele><time>2026-04-18T13:46:02.001Z</time></trkpt><trkpt lat="42.200593399937404" lon="11.887118048542229"><ele>157.5</ele><time>2026-04-18T13:46:03.001Z</time></trkpt><trkpt lat="42.20050997456696" lon="11.8869524480718"><ele>158.25</ele><time>2026-04-18T13:46:04.001Z</time></trkpt><trkpt lat="42.20043562524503" lon="11.886811056490293"><ele>159.0</ele><time>2026-04-18T13:46:05.001Z</time></trkpt><trkpt lat="42.20038394280814" lon="11.886693305233548"><ele>159.0</ele><time>2026-04-18T13:46:06.001Z</time></trkpt><trkpt lat="42.200342056422514" lon="11.886604590719234"><ele>159.0</ele><time>2026-04-18T13:46:07.001Z</time></trkpt><trkpt lat="42.200242488592174" lon="11.886526997713192"><ele>159.0</ele><time>2026-04-18T13:46:09.001Z</time></trkpt><trkpt lat="42.20017414627488" lon="11.88650684559522"><ele>159.0</ele><time>2026-04-18T13:46:10.001Z</time></trkpt><trkpt lat="42.20008354906479" lon="11.886461039378933"><ele>159.0</ele><time>2026-04-18T13:46:11.001Z</time></trkpt><trkpt lat="42.199998860754846" lon="11.886470386463714"><ele>159.0</ele><time>2026-04-18T13:46:12.001Z</time></trkpt><trkpt lat="42.199925398034125" lon="11.886432250282228"><ele>159.0</ele><time>2026-04-18T13:46:13.001Z</time></trkpt><trkpt lat="42.19983943411806" lon="11.886395951362932"><ele>159.0</ele><time>2026-04-18T13:46:14.001Z</time></trkpt><trkpt lat="42.199752763338466" lon="11.886365196193491"><ele>159.0</ele><time>2026-04-18T13:46:15.001Z</time></trkpt><trkpt lat="42.19968535492775" lon="11.886322233060037"><ele>159.0</ele><time>2026-04-18T13:46:16.001Z</time></trkpt><trkpt lat="42.199622156311214" lon="11.886278103881025"><ele>159.0</ele><time>2026-04-18T13:46:17.001Z</time></trkpt><trkpt lat="42.19956521150503" lon="11.886213848400207"><ele>159.0</ele><time>2026-04-18T13:46:18.001Z</time></trkpt><trkpt lat="42.199503320444336" lon="11.88612343460841"><ele>159.25</ele><time>2026-04-18T13:46:19.001Z</time></trkpt><trkpt lat="42.199425783073636" lon="11.885994548447712"><ele>159.5</ele><time>2026-04-18T13:46:20.001Z</time></trkpt><trkpt lat="42.19934442717604" lon="11.885856075631313"><ele>159.75</ele><time>2026-04-18T13:46:21.001Z</time></trkpt><trkpt lat="42.19927632426207" lon="11.885739614139338"><ele>160.0</ele><time>2026-04-18T13:46:22.001Z</time></trkpt><trkpt lat="42.1992136972824" lon="11.885634860548842"><ele>160.0</ele><time>2026-04-18T13:46:23.001Z</time></trkpt><trkpt lat="42.19917518488562" lon="11.885486809115559"><ele>160.0</ele><time>2026-04-18T13:46:24.001Z</time></trkpt><trkpt lat="42.19909998976782" lon="11.885362886413464"><ele>160.0</ele><time>2026-04-18T13:46:25.001Z</time></trkpt><trkpt lat="42.19902243351437" lon="11.885235072564642"><ele>160.0</ele><time>2026-04-18T13:46:26.001Z</time></trkpt><trkpt lat="42.19894644464103" lon="11.885109841758448"><ele>161.6</ele><time>2026-04-18T13:46:27.001Z</time></trkpt><trkpt lat="42.19886771810366" lon="11.884982909695852"><ele>163.2</ele><time>2026-04-18T13:46:28.001Z</time></trkpt><trkpt lat="42.19879348128941" lon="11.884888860269731"><ele>164.8</ele><time>2026-04-18T13:46:29.001Z</time></trkpt><trkpt lat="42.19873528250059" lon="11.884788641093541"><ele>166.4</ele><time>2026-04-18T13:46:30.001Z</time></trkpt><trkpt lat="42.198675370663885" lon="11.884692421573565"><ele>168.0</ele><time>2026-04-18T13:46:31.001Z</time></trkpt><trkpt lat="42.19861708658257" lon="11.884600667716088"><ele>168.0</ele><time>2026-04-18T13:46:32.001Z</time></trkpt><trkpt lat="42.19854156717649" lon="11.884506235373934"><ele>168.0</ele><time>2026-04-18T13:46:33.001Z</time></trkpt><trkpt lat="42.198475669177306" lon="11.884446570590272"><ele>168.0</ele><time>2026-04-18T13:46:34.001Z</time></trkpt><trkpt lat="42.19839775724284" lon="11.88439811890583"><ele>168.0</ele><time>2026-04-18T13:46:35.001Z</time></trkpt><trkpt lat="42.19832866170577" lon="11.884355374238561"><ele>168.0</ele><time>2026-04-18T13:46:36.001Z</time></trkpt><trkpt lat="42.198227291831266" lon="11.884293182464136"><ele>168.0</ele><time>2026-04-18T13:46:38.001Z</time></trkpt><trkpt lat="42.19808728327351" lon="11.884261486581128"><ele>168.0</ele><time>2026-04-18T13:46:40.001Z</time></trkpt><trkpt lat="42.19800168816902" lon="11.884232389736058"><ele>168.0</ele><time>2026-04-18T13:46:41.001Z</time></trkpt><trkpt lat="42.197918528930145" lon="11.884185541264914"><ele>168.0</ele><time>2026-04-18T13:46:42.001Z</time></trkpt><trkpt lat="42.19786144590852" lon="11.884133510757994"><ele>168.0</ele><time>2026-04-18T13:46:43.001Z</time></trkpt><trkpt lat="42.19778387354532" lon="11.884042604245815"><ele>168.0</ele><time>2026-04-18T13:46:44.001Z</time></trkpt><trkpt lat="42.197689976516266" lon="11.883926706625454"><ele>168.0</ele><time>2026-04-18T13:46:45.001Z</time></trkpt><trkpt lat="42.1975937981061" lon="11.883780243776146"><ele>168.0</ele><time>2026-04-18T13:46:46.001Z</time></trkpt><trkpt lat="42.19752205383663" lon="11.8836437829444"><ele>168.0</ele><time>2026-04-18T13:46:47.001Z</time></trkpt><trkpt lat="42.19746029506584" lon="11.883503769797962"><ele>168.0</ele><time>2026-04-18T13:46:48.001Z</time></trkpt><trkpt lat="42.197401098856076" lon="11.883341560963636"><ele>168.0</ele><time>2026-04-18T13:46:49.001Z</time></trkpt><trkpt lat="42.197357916531466" lon="11.88318895244394"><ele>168.0</ele><time>2026-04-18T13:46:50Z</time></trkpt><trkpt lat="42.197313860793656" lon="11.88305815980715"><ele>168.0</ele><time>2026-04-18T13:46:51Z</time></trkpt><trkpt lat="42.19728367956902" lon="11.88294347510228"><ele>168.0</ele><time>2026-04-18T13:46:52Z</time></trkpt><trkpt lat="42.1972571389028" lon="11.882832675833486"><ele>168.0</ele><time>2026-04-18T13:46:53Z</time></trkpt><trkpt lat="42.197230103587664" lon="11.882736735902034"><ele>168.0</ele><time>2026-04-18T13:46:54Z</time></trkpt><trkpt lat="42.19719195711626" lon="11.882652158798637"><ele>168.0</ele><time>2026-04-18T13:46:55Z</time></trkpt><trkpt lat="42.197140609673056" lon="11.882542449120987"><ele>168.0</ele><time>2026-04-18T13:46:57Z</time></trkpt><trkpt lat="42.197094444573096" lon="11.882431755481345"><ele>168.0</ele><time>2026-04-18T13:47:02Z</time></trkpt><trkpt lat="42.19704349493401" lon="11.88232580874359"><ele>166.8</ele><time>2026-04-18T13:47:05Z</time></trkpt><trkpt lat="42.19699969294579" lon="11.882234725162604"><ele>165.60000000000002</ele><time>2026-04-18T13:47:07Z</time></trkpt><trkpt lat="42.19696079293839" lon="11.88212280441209"><ele>164.39999999999998</ele><time>2026-04-18T13:47:09Z</time></trkpt><trkpt lat="42.19696755355429" lon="11.882005945616193"><ele>163.2</ele><time>2026-04-18T13:47:10Z</time></trkpt><trkpt lat="42.19697299629161" lon="11.881878772761473"><ele>162.0</ele><time>2026-04-18T13:47:11Z</time></trkpt><trkpt lat="42.19695729173639" lon="11.881726934627547"><ele>161.0</ele><time>2026-04-18T13:47:12Z</time></trkpt><trkpt lat="42.19695820341502" lon="11.88153389224203"><ele>160.0</ele><time>2026-04-18T13:47:13Z</time></trkpt><trkpt lat="42.19696202420887" lon="11.881353820706599"><ele>159.0</ele><time>2026-04-18T13:47:14Z</time></trkpt><trkpt lat="42.19694656501657" lon="11.881193282907475"><ele>158.0</ele><time>2026-04-18T13:47:15Z</time></trkpt><trkpt lat="42.19694274869476" lon="11.881043219779933"><ele>156.75</ele><time>2026-04-18T13:47:16Z</time></trkpt><trkpt lat="42.19694508037262" lon="11.880888932366997"><ele>155.5</ele><time>2026-04-18T13:47:17Z</time></trkpt><trkpt lat="42.19693178851034" lon="11.880715613144563"><ele>154.25</ele><time>2026-04-18T13:47:18Z</time></trkpt><trkpt lat="42.19693182160071" lon="11.880540767746751"><ele>153.0</ele><time>2026-04-18T13:47:19Z</time></trkpt><trkpt lat="42.196933825289875" lon="11.880359441063773"><ele>153.0</ele><time>2026-04-18T13:47:20Z</time></trkpt><trkpt lat="42.19692459560628" lon="11.880178250470559"><ele>153.0</ele><time>2026-04-18T13:47:21Z</time></trkpt><trkpt lat="42.19690576830131" lon="11.880025034317953"><ele>153.0</ele><time>2026-04-18T13:47:22Z</time></trkpt><trkpt lat="42.19690267283004" lon="11.879885586140889"><ele>153.0</ele><time>2026-04-18T13:47:23Z</time></trkpt><trkpt lat="42.196901828460064" lon="11.879756239463616"><ele>153.0</ele><time>2026-04-18T13:47:24Z</time></trkpt><trkpt lat="42.196901924681626" lon="11.879640826751519"><ele>152.83333333333334</ele><time>2026-04-18T13:47:25Z</time></trkpt><trkpt lat="42.196902302070114" lon="11.87953781853764"><ele>152.66666666666666</ele><time>2026-04-18T13:47:26Z</time></trkpt><trkpt lat="42.196904804904094" lon="11.87943538829703"><ele>152.5</ele><time>2026-04-18T13:47:27Z</time></trkpt><trkpt lat="42.19690869320082" lon="11.87932512126725"><ele>152.33333333333331</ele><time>2026-04-18T13:47:28Z</time></trkpt><trkpt lat="42.19691153094435" lon="11.879237652111343"><ele>152.16666666666666</ele><time>2026-04-18T13:47:29Z</time></trkpt><trkpt lat="42.196957133382384" lon="11.879106459837368"><ele>152.0</ele><time>2026-04-18T13:47:31Z</time></trkpt><trkpt lat="42.19703758061913" lon="11.87903779826895"><ele>152.0</ele><time>2026-04-18T13:47:33Z</time></trkpt><trkpt lat="42.19717411327472" lon="11.879085908038642"><ele>152.0</ele><time>2026-04-18T13:47:35Z</time></trkpt><trkpt lat="42.19728902162761" lon="11.879093978131264"><ele>152.0</ele><time>2026-04-18T13:47:36Z</time></trkpt><trkpt lat="42.19742175274173" lon="11.879101750174629"><ele>152.0</ele><time>2026-04-18T13:47:37Z</time></trkpt><trkpt lat="42.19754938429247" lon="11.879080587749996"><ele>152.33333333333331</ele><time>2026-04-18T13:47:38Z</time></trkpt><trkpt lat="42.19765446593575" lon="11.87907330999339"><ele>152.66666666666666</ele><time>2026-04-18T13:47:39Z</time></trkpt><trkpt lat="42.1977432373162" lon="11.879060991163966"><ele>153.0</ele><time>2026-04-18T13:47:40Z</time></trkpt><trkpt lat="42.197821842537195" lon="11.879032624657176"><ele>153.33333333333334</ele><time>2026-04-18T13:47:41Z</time></trkpt><trkpt lat="42.19789174884213" lon="11.878987073750327"><ele>153.66666666666669</ele><time>2026-04-18T13:47:42Z</time></trkpt><trkpt lat="42.197967297117096" lon="11.878927769590357"><ele>154.0</ele><time>2026-04-18T13:47:43Z</time></trkpt><trkpt lat="42.19803905821858" lon="11.878842137366393"><ele>154.0</ele><time>2026-04-18T13:47:44Z</time></trkpt><trkpt lat="42.19811797160806" lon="11.878745117287343"><ele>154.0</ele><time>2026-04-18T13:47:45Z</time></trkpt><trkpt lat="42.19820802671549" lon="11.87863990799285"><ele>154.0</ele><time>2026-04-18T13:47:46Z</time></trkpt><trkpt lat="42.19829877557225" lon="11.878524687053348"><ele>154.0</ele><time>2026-04-18T13:47:47Z</time></trkpt><trkpt lat="42.198377815341495" lon="11.878377343414176"><ele>154.66666666666669</ele><time>2026-04-18T13:47:48Z</time></trkpt><trkpt lat="42.198471457716934" lon="11.878226049921643"><ele>155.33333333333334</ele><time>2026-04-18T13:47:49Z</time></trkpt><trkpt lat="42.19858425811903" lon="11.878087804779732"><ele>156.0</ele><time>2026-04-18T13:47:50Z</time></trkpt><trkpt lat="42.198688832177176" lon="11.877935021412984"><ele>156.0</ele><time>2026-04-18T13:47:51Z</time></trkpt><trkpt lat="42.1987834511585" lon="11.877796782597532"><ele>156.0</ele><time>2026-04-18T13:47:52Z</time></trkpt><trkpt lat="42.198869897490354" lon="11.877644253004215"><ele>156.0</ele><time>2026-04-18T13:47:53Z</time></trkpt><trkpt lat="42.19897297344532" lon="11.877502718431883"><ele>156.0</ele><time>2026-04-18T13:47:54Z</time></trkpt><trkpt lat="42.19907629792884" lon="11.87734947870132"><ele>155.33333333333334</ele><time>2026-04-18T13:47:55Z</time></trkpt><trkpt lat="42.19918167587591" lon="11.877202066101686"><ele>154.66666666666669</ele><time>2026-04-18T13:47:56Z</time></trkpt><trkpt lat="42.19928396981118" lon="11.877059114368928"><ele>154.0</ele><time>2026-04-18T13:47:57Z</time></trkpt><trkpt lat="42.19938833794648" lon="11.87690643461414"><ele>156.0</ele><time>2026-04-18T13:47:58Z</time></trkpt><trkpt lat="42.199491783661635" lon="11.876751278281303"><ele>158.0</ele><time>2026-04-18T13:47:59Z</time></trkpt><trkpt lat="42.19959818094338" lon="11.876588044154257"><ele>160.0</ele><time>2026-04-18T13:48:00Z</time></trkpt><trkpt lat="42.19970965325897" lon="11.876461093427727"><ele>160.0</ele><time>2026-04-18T13:48:01Z</time></trkpt><trkpt lat="42.1998000113546" lon="11.876340351940113"><ele>160.0</ele><time>2026-04-18T13:48:02Z</time></trkpt><trkpt lat="42.199868239094364" lon="11.876204836337086"><ele>160.0</ele><time>2026-04-18T13:48:03Z</time></trkpt><trkpt lat="42.199945687535504" lon="11.876088941416766"><ele>160.0</ele><time>2026-04-18T13:48:04Z</time></trkpt><trkpt lat="42.20001663266487" lon="11.875983053078224"><ele>159.8</ele><time>2026-04-18T13:48:05Z</time></trkpt><trkpt lat="42.20007596404896" lon="11.875880938428994"><ele>159.6</ele><time>2026-04-18T13:48:06Z</time></trkpt><trkpt lat="42.20010819061072" lon="11.875769139380948"><ele>159.4</ele><time>2026-04-18T13:48:07Z</time></trkpt><trkpt lat="42.20011174214335" lon="11.875644952205601"><ele>159.2</ele><time>2026-04-18T13:48:08Z</time></trkpt><trkpt lat="42.200080604136296" lon="11.875507070449352"><ele>159.0</ele><time>2026-04-18T13:48:09Z</time></trkpt><trkpt lat="42.20004756254627" lon="11.875337039079849"><ele>159.0</ele><time>2026-04-18T13:48:10Z</time></trkpt><trkpt lat="42.200012149813375" lon="11.875141417315323"><ele>159.0</ele><time>2026-04-18T13:48:11Z</time></trkpt><trkpt lat="42.199981864216" lon="11.87496344590844"><ele>159.0</ele><time>2026-04-18T13:48:12Z</time></trkpt><trkpt lat="42.199955746976364" lon="11.874808039013685"><ele>159.0</ele><time>2026-04-18T13:48:13Z</time></trkpt><trkpt lat="42.199929562095505" lon="11.874652995640206"><ele>159.2</ele><time>2026-04-18T13:48:14Z</time></trkpt><trkpt lat="42.19988781614173" lon="11.874514357534714"><ele>159.4</ele><time>2026-04-18T13:48:15Z</time></trkpt><trkpt lat="42.199865873546884" lon="11.874386916727413"><ele>159.6</ele><time>2026-04-18T13:48:16Z</time></trkpt><trkpt lat="42.199849486951244" lon="11.874270453128295"><ele>159.8</ele><time>2026-04-18T13:48:17Z</time></trkpt><trkpt lat="42.19982131967938" lon="11.874160005694128"><ele>160.0</ele><time>2026-04-18T13:48:18Z</time></trkpt><trkpt lat="42.19979619995829" lon="11.874055314273074"><ele>160.66666666666669</ele><time>2026-04-18T13:48:19.001Z</time></trkpt><trkpt lat="42.19976833852974" lon="11.8739561135913"><ele>161.33333333333334</ele><time>2026-04-18T13:48:20.001Z</time></trkpt><trkpt lat="42.199742734023964" lon="11.873852810122733"><ele>162.0</ele><time>2026-04-18T13:48:21.001Z</time></trkpt><trkpt lat="42.19971593926404" lon="11.8737524668516"><ele>162.66666666666666</ele><time>2026-04-18T13:48:22.001Z</time></trkpt><trkpt lat="42.199693659988625" lon="11.873653431611672"><ele>163.33333333333331</ele><time>2026-04-18T13:48:23.001Z</time></trkpt><trkpt lat="42.199700108132355" lon="11.873555188975391"><ele>164.0</ele><time>2026-04-18T13:48:24.001Z</time></trkpt><trkpt lat="42.19969432401066" lon="11.873456595199734"><ele>163.66666666666666</ele><time>2026-04-18T13:48:25.001Z</time></trkpt><trkpt lat="42.199693236581375" lon="11.873363318197697"><ele>163.33333333333331</ele><time>2026-04-18T13:48:26.001Z</time></trkpt><trkpt lat="42.199696356700926" lon="11.873260587836562"><ele>163.0</ele><time>2026-04-18T13:48:27.001Z</time></trkpt><trkpt lat="42.199705324545796" lon="11.873135882500364"><ele>162.66666666666666</ele><time>2026-04-18T13:48:28.001Z</time></trkpt><trkpt lat="42.199721082804174" lon="11.87300767461277"><ele>162.33333333333334</ele><time>2026-04-18T13:48:29.001Z</time></trkpt><trkpt lat="42.199746764468834" lon="11.872865923002824"><ele>162.0</ele><time>2026-04-18T13:48:30.001Z</time></trkpt><trkpt lat="42.199759890578676" lon="11.872716406468388"><ele>161.0</ele><time>2026-04-18T13:48:31.001Z</time></trkpt><trkpt lat="42.19979248913352" lon="11.872564097153859"><ele>160.0</ele><time>2026-04-18T13:48:32.001Z</time></trkpt><trkpt lat="42.19982638952724" lon="11.872414853314424"><ele>159.0</ele><time>2026-04-18T13:48:33.001Z</time></trkpt><trkpt lat="42.199857495948294" lon="11.872279560987163"><ele>158.0</ele><time>2026-04-18T13:48:34.001Z</time></trkpt><trkpt lat="42.19988634572259" lon="11.872150592091652"><ele>157.0</ele><time>2026-04-18T13:48:35.001Z</time></trkpt><trkpt lat="42.199895167530975" lon="11.872013496337305"><ele>156.0</ele><time>2026-04-18T13:48:36.001Z</time></trkpt><trkpt lat="42.19988248261281" lon="11.8718757711543"><ele>155.0</ele><time>2026-04-18T13:48:37.001Z</time></trkpt><trkpt lat="42.19987100239616" lon="11.8717339375905"><ele>154.0</ele><time>2026-04-18T13:48:38.001Z</time></trkpt><trkpt lat="42.19984494618959" lon="11.871588781577719"><ele>153.0</ele><time>2026-04-18T13:48:39.001Z</time></trkpt><trkpt lat="42.19980848323245" lon="11.871448249780673"><ele>152.0</ele><time>2026-04-18T13:48:40.001Z</time></trkpt><trkpt lat="42.19981529144648" lon="11.871301910846448"><ele>150.75</ele><time>2026-04-18T13:48:41.001Z</time></trkpt><trkpt lat="42.19981797690151" lon="11.871149389474787"><ele>149.5</ele><time>2026-04-18T13:48:42.001Z</time></trkpt><trkpt lat="42.199830896711724" lon="11.870993720773326"><ele>148.25</ele><time>2026-04-18T13:48:43.001Z</time></trkpt><trkpt lat="42.19985537563173" lon="11.870829029358687"><ele>147.0</ele><time>2026-04-18T13:48:44.001Z</time></trkpt><trkpt lat="42.19988696791641" lon="11.87067123977212"><ele>147.0</ele><time>2026-04-18T13:48:45.001Z</time></trkpt><trkpt lat="42.199919436746896" lon="11.870523821516938"><ele>147.0</ele><time>2026-04-18T13:48:46.001Z</time></trkpt><trkpt lat="42.19995808904391" lon="11.870385155333615"><ele>147.0</ele><time>2026-04-18T13:48:47.001Z</time></trkpt><trkpt lat="42.2000086816615" lon="11.87024137030998"><ele>147.0</ele><time>2026-04-18T13:48:48.001Z</time></trkpt><trkpt lat="42.20007502915569" lon="11.87010221891637"><ele>145.0</ele><time>2026-04-18T13:48:49.001Z</time></trkpt><trkpt lat="42.20014394047473" lon="11.869951588646375"><ele>143.0</ele><time>2026-04-18T13:48:50.001Z</time></trkpt><trkpt lat="42.20023819744471" lon="11.869815026234287"><ele>141.0</ele><time>2026-04-18T13:48:51.001Z</time></trkpt><trkpt lat="42.20032048456071" lon="11.869679986920838"><ele>139.0</ele><time>2026-04-18T13:48:52.001Z</time></trkpt><trkpt lat="42.200394157155024" lon="11.869529432394494"><ele>139.0</ele><time>2026-04-18T13:48:53.001Z</time></trkpt><trkpt lat="42.20044900455485" lon="11.869378099954103"><ele>139.0</ele><time>2026-04-18T13:48:54.001Z</time></trkpt><trkpt lat="42.20049678011118" lon="11.86923466901001"><ele>139.0</ele><time>2026-04-18T13:48:55.001Z</time></trkpt><trkpt lat="42.200535920821274" lon="11.869097660960437"><ele>139.0</ele><time>2026-04-18T13:48:56Z</time></trkpt><trkpt lat="42.20056749345607" lon="11.8689635127273"><ele>138.4</ele><time>2026-04-18T13:48:57Z</time></trkpt><trkpt lat="42.200589340750014" lon="11.868824767063785"><ele>137.8</ele><time>2026-04-18T13:48:58Z</time></trkpt><trkpt lat="42.20062466795291" lon="11.868686388505497"><ele>137.2</ele><time>2026-04-18T13:48:59Z</time></trkpt><trkpt lat="42.200649448476945" lon="11.868541843830617"><ele>136.6</ele><time>2026-04-18T13:49:00Z</time></trkpt><trkpt lat="42.20067401481345" lon="11.868403276405886"><ele>136.0</ele><time>2026-04-18T13:49:01Z</time></trkpt><trkpt lat="42.200701657119396" lon="11.868282151633794"><ele>136.0</ele><time>2026-04-18T13:49:02Z</time></trkpt><trkpt lat="42.20074081152666" lon="11.868162723231968"><ele>136.0</ele><time>2026-04-18T13:49:03Z</time></trkpt><trkpt lat="42.20077364590703" lon="11.86804835267338"><ele>136.0</ele><time>2026-04-18T13:49:04Z</time></trkpt><trkpt lat="42.20078612799494" lon="11.867959407654642"><ele>136.0</ele><time>2026-04-18T13:49:05Z</time></trkpt><trkpt lat="42.20081171200141" lon="11.867851750652088"><ele>136.0</ele><time>2026-04-18T13:49:07Z</time></trkpt><trkpt lat="42.20075537444929" lon="11.867763234525485"><ele>136.0</ele><time>2026-04-18T13:49:10Z</time></trkpt><trkpt lat="42.200639440236124" lon="11.867747646668088"><ele>134.5</ele><time>2026-04-18T13:49:12Z</time></trkpt><trkpt lat="42.20051511371171" lon="11.867809753091501"><ele>133.0</ele><time>2026-04-18T13:49:14Z</time></trkpt><trkpt lat="42.20043848148651" lon="11.867891857124516"><ele>131.5</ele><time>2026-04-18T13:49:16Z</time></trkpt><trkpt lat="42.20039391607514" lon="11.867955488017849"><ele>130.0</ele><time>2026-04-18T13:49:18Z</time></trkpt><trkpt lat="42.2003451272872" lon="11.868026060320732"><ele>128.5</ele><time>2026-04-18T13:49:20Z</time></trkpt><trkpt lat="42.200295164662045" lon="11.868096462556581"><ele>127.0</ele><time>2026-04-18T13:49:22Z</time></trkpt><trkpt lat="42.20025813645587" lon="11.868173632373898"><ele>127.0</ele><time>2026-04-18T13:49:24Z</time></trkpt><trkpt lat="42.200195097558584" lon="11.868250180196288"><ele>126.99999999999999</ele><time>2026-04-18T13:49:26Z</time></trkpt><trkpt lat="42.200134625874334" lon="11.868326629469648"><ele>126.99999999999999</ele><time>2026-04-18T13:49:28Z</time></trkpt><trkpt lat="42.200069063349375" lon="11.868416846257794"><ele>127.0</ele><time>2026-04-18T13:49:30Z</time></trkpt><trkpt lat="42.19998434377986" lon="11.868512413263574"><ele>127.0</ele><time>2026-04-18T13:49:32Z</time></trkpt><trkpt lat="42.199902172720556" lon="11.868631344458201"><ele>127.83333333333334</ele><time>2026-04-18T13:49:34Z</time></trkpt><trkpt lat="42.19985611016369" lon="11.868702350381042"><ele>128.66666666666669</ele><time>2026-04-18T13:49:35Z</time></trkpt><trkpt lat="42.19980583851049" lon="11.868782299679054"><ele>129.5</ele><time>2026-04-18T13:49:36Z</time></trkpt><trkpt lat="42.199755064226885" lon="11.868873279257013"><ele>130.33333333333334</ele><time>2026-04-18T13:49:37Z</time></trkpt><trkpt lat="42.199700698385705" lon="11.868980700406956"><ele>131.16666666666666</ele><time>2026-04-18T13:49:38Z</time></trkpt><trkpt lat="42.19964864625942" lon="11.86910451391323"><ele>132.0</ele><time>2026-04-18T13:49:39Z</time></trkpt><trkpt lat="42.19959860680533" lon="11.869238363719075"><ele>130.5</ele><time>2026-04-18T13:49:40Z</time></trkpt><trkpt lat="42.19954897206859" lon="11.869379833355115"><ele>129.0</ele><time>2026-04-18T13:49:41Z</time></trkpt><trkpt lat="42.1995028295293" lon="11.869523116373239"><ele>127.5</ele><time>2026-04-18T13:49:42Z</time></trkpt><trkpt lat="42.19947276667985" lon="11.869674032186209"><ele>126.0</ele><time>2026-04-18T13:49:43Z</time></trkpt><trkpt lat="42.19942147507068" lon="11.869801910699987"><ele>126.0</ele><time>2026-04-18T13:49:44Z</time></trkpt><trkpt lat="42.19937888323448" lon="11.869929413725993"><ele>126.0</ele><time>2026-04-18T13:49:45Z</time></trkpt><trkpt lat="42.19935021320714" lon="11.870072139608375"><ele>126.0</ele><time>2026-04-18T13:49:46Z</time></trkpt><trkpt lat="42.199316321866775" lon="11.870219772664925"><ele>126.0</ele><time>2026-04-18T13:49:47Z</time></trkpt><trkpt lat="42.19925138196118" lon="11.870336686671335"><ele>126.0</ele><time>2026-04-18T13:49:48Z</time></trkpt><trkpt lat="42.19918487425577" lon="11.870420068767995"><ele>127.66666666666667</ele><time>2026-04-18T13:49:49Z</time></trkpt><trkpt lat="42.199121541737796" lon="11.870494337071884"><ele>129.33333333333334</ele><time>2026-04-18T13:49:50Z</time></trkpt><trkpt lat="42.19905565555053" lon="11.870569231155766"><ele>131.0</ele><time>2026-04-18T13:49:51Z</time></trkpt><trkpt lat="42.19899120260857" lon="11.87060131336885"><ele>132.66666666666669</ele><time>2026-04-18T13:49:52Z</time></trkpt><trkpt lat="42.19892829405251" lon="11.870607295029357"><ele>134.33333333333334</ele><time>2026-04-18T13:49:53Z</time></trkpt><trkpt lat="42.19886622063977" lon="11.870591414516792"><ele>136.0</ele><time>2026-04-18T13:49:54Z</time></trkpt><trkpt lat="42.19876839283986" lon="11.870484304669374"><ele>137.0</ele><time>2026-04-18T13:49:56Z</time></trkpt><trkpt lat="42.19872325805998" lon="11.870424765916185"><ele>138.0</ele><time>2026-04-18T13:49:57Z</time></trkpt><trkpt lat="42.19867134908566" lon="11.870345216143159"><ele>139.0</ele><time>2026-04-18T13:49:58Z</time></trkpt><trkpt lat="42.19860940037796" lon="11.870234975662948"><ele>140.0</ele><time>2026-04-18T13:49:59Z</time></trkpt><trkpt lat="42.19853573645639" lon="11.870105266166808"><ele>141.0</ele><time>2026-04-18T13:50:00Z</time></trkpt><trkpt lat="42.19846536786757" lon="11.870000447037842"><ele>137.6</ele><time>2026-04-18T13:50:01Z</time></trkpt><trkpt lat="42.198380969407694" lon="11.869891059973186"><ele>134.2</ele><time>2026-04-18T13:50:02Z</time></trkpt><trkpt lat="42.19830888908772" lon="11.86978401464738"><ele>130.8</ele><time>2026-04-18T13:50:03Z</time></trkpt><trkpt lat="42.1982483989521" lon="11.869688157116661"><ele>127.4</ele><time>2026-04-18T13:50:04Z</time></trkpt><trkpt lat="42.198207259407525" lon="11.869587747513759"><ele>124.0</ele><time>2026-04-18T13:50:05Z</time></trkpt><trkpt lat="42.19819018435181" lon="11.869464797226017"><ele>124.0</ele><time>2026-04-18T13:50:06Z</time></trkpt><trkpt lat="42.1981842348353" lon="11.869317687961782"><ele>124.0</ele><time>2026-04-18T13:50:07Z</time></trkpt><trkpt lat="42.19816210640876" lon="11.8691557130901"><ele>124.0</ele><time>2026-04-18T13:50:08Z</time></trkpt><trkpt lat="42.19815788117277" lon="11.869022357697515"><ele>124.0</ele><time>2026-04-18T13:50:09Z</time></trkpt><trkpt lat="42.19813735797778" lon="11.868896898992334"><ele>124.0</ele><time>2026-04-18T13:50:10Z</time></trkpt><trkpt lat="42.19809687611053" lon="11.868758404818"><ele>125.5</ele><time>2026-04-18T13:50:11Z</time></trkpt><trkpt lat="42.198042174730105" lon="11.86861987939407"><ele>127.0</ele><time>2026-04-18T13:50:12Z</time></trkpt><trkpt lat="42.19797994370172" lon="11.868483024738762"><ele>128.5</ele><time>2026-04-18T13:50:13Z</time></trkpt><trkpt lat="42.19791084156788" lon="11.868353979243526"><ele>130.0</ele><time>2026-04-18T13:50:14Z</time></trkpt><trkpt lat="42.197831973664215" lon="11.868221345203864"><ele>130.0</ele><time>2026-04-18T13:50:15Z</time></trkpt><trkpt lat="42.197776857738916" lon="11.868072775204837"><ele>130.0</ele><time>2026-04-18T13:50:16Z</time></trkpt><trkpt lat="42.19770263127649" lon="11.867922532677236"><ele>130.0</ele><time>2026-04-18T13:50:17Z</time></trkpt><trkpt lat="42.19761162055743" lon="11.867782551937138"><ele>130.0</ele><time>2026-04-18T13:50:18Z</time></trkpt><trkpt lat="42.197527812469254" lon="11.867618699579264"><ele>132.33333333333334</ele><time>2026-04-18T13:50:19Z</time></trkpt><trkpt lat="42.19743077977271" lon="11.86744096397307"><ele>134.66666666666666</ele><time>2026-04-18T13:50:20Z</time></trkpt><trkpt lat="42.19732621371272" lon="11.867244450403382"><ele>137.0</ele><time>2026-04-18T13:50:21Z</time></trkpt><trkpt lat="42.19724377744345" lon="11.867066370098685"><ele>137.0</ele><time>2026-04-18T13:50:22Z</time></trkpt><trkpt lat="42.197157764708756" lon="11.866909150678358"><ele>137.0</ele><time>2026-04-18T13:50:23Z</time></trkpt><trkpt lat="42.197066158152666" lon="11.866709870122381"><ele>137.0</ele><time>2026-04-18T13:50:24Z</time></trkpt><trkpt lat="42.19696399434725" lon="11.86652042735204"><ele>134.0</ele><time>2026-04-18T13:50:25Z</time></trkpt><trkpt lat="42.196865222253976" lon="11.866346079373479"><ele>131.0</ele><time>2026-04-18T13:50:26Z</time></trkpt><trkpt lat="42.19675899035095" lon="11.866164818047345"><ele>128.0</ele><time>2026-04-18T13:50:27Z</time></trkpt><trkpt lat="42.19666146356145" lon="11.86599885057454"><ele>127.0</ele><time>2026-04-18T13:50:28Z</time></trkpt><trkpt lat="42.196556101096775" lon="11.865846466630993"><ele>126.0</ele><time>2026-04-18T13:50:29Z</time></trkpt><trkpt lat="42.19646560944333" lon="11.86566699287434"><ele>125.0</ele><time>2026-04-18T13:50:30Z</time></trkpt><trkpt lat="42.1963898294431" lon="11.865510136545227"><ele>128.66666666666666</ele><time>2026-04-18T13:50:31Z</time></trkpt><trkpt lat="42.19629873706946" lon="11.865328255944593"><ele>132.33333333333334</ele><time>2026-04-18T13:50:32Z</time></trkpt><trkpt lat="42.19620558441534" lon="11.86514888135495"><ele>136.0</ele><time>2026-04-18T13:50:33Z</time></trkpt><trkpt lat="42.196111132454945" lon="11.864980116984524"><ele>136.0</ele><time>2026-04-18T13:50:34Z</time></trkpt><trkpt lat="42.196017323050214" lon="11.864831678756362"><ele>136.0</ele><time>2026-04-18T13:50:35Z</time></trkpt><trkpt lat="42.19593619747116" lon="11.864670939046166"><ele>136.0</ele><time>2026-04-18T13:50:36Z</time></trkpt><trkpt lat="42.195840509438355" lon="11.864490584536545"><ele>136.0</ele><time>2026-04-18T13:50:37Z</time></trkpt><trkpt lat="42.19576205435779" lon="11.864321679431253"><ele>136.0</ele><time>2026-04-18T13:50:38Z</time></trkpt><trkpt lat="42.19567522072498" lon="11.864154120717284"><ele>136.0</ele><time>2026-04-18T13:50:39Z</time></trkpt><trkpt lat="42.195580696490964" lon="11.863983018933917"><ele>137.0</ele><time>2026-04-18T13:50:40Z</time></trkpt><trkpt lat="42.1954831347737" lon="11.863815091279822"><ele>138.0</ele><time>2026-04-18T13:50:41Z</time></trkpt><trkpt lat="42.19541534036885" lon="11.863651834949021"><ele>139.0</ele><time>2026-04-18T13:50:42Z</time></trkpt><trkpt lat="42.195315574531946" lon="11.863503015052004"><ele>140.0</ele><time>2026-04-18T13:50:43Z</time></trkpt><trkpt lat="42.19522710376896" lon="11.863334893765526"><ele>140.0</ele><time>2026-04-18T13:50:44Z</time></trkpt><trkpt lat="42.195139470167575" lon="11.863175289236883"><ele>140.0</ele><time>2026-04-18T13:50:45Z</time></trkpt><trkpt lat="42.19505262393765" lon="11.863013688775162"><ele>140.0</ele><time>2026-04-18T13:50:46Z</time></trkpt><trkpt lat="42.194962835099886" lon="11.86286580940339"><ele>140.0</ele><time>2026-04-18T13:50:47Z</time></trkpt><trkpt lat="42.19487591478427" lon="11.862728104992032"><ele>140.25</ele><time>2026-04-18T13:50:48Z</time></trkpt><trkpt lat="42.19479485629902" lon="11.86261190235353"><ele>140.5</ele><time>2026-04-18T13:50:49Z</time></trkpt><trkpt lat="42.19469092808766" lon="11.862489076113297"><ele>140.75</ele><time>2026-04-18T13:50:50Z</time></trkpt><trkpt lat="42.1945766997379" lon="11.862368340761943"><ele>141.0</ele><time>2026-04-18T13:50:51Z</time></trkpt><trkpt lat="42.19445608445173" lon="11.862260069067718"><ele>141.0</ele><time>2026-04-18T13:50:52Z</time></trkpt><trkpt lat="42.19435331422449" lon="11.862131105768436"><ele>141.0</ele><time>2026-04-18T13:50:53Z</time></trkpt><trkpt lat="42.194250888727964" lon="11.861985279209897"><ele>141.0</ele><time>2026-04-18T13:50:54Z</time></trkpt><trkpt lat="42.194163610485816" lon="11.861833946796777"><ele>141.0</ele><time>2026-04-18T13:50:55.001Z</time></trkpt><trkpt lat="42.194083650015415" lon="11.861675265339432"><ele>142.66666666666666</ele><time>2026-04-18T13:50:56.001Z</time></trkpt><trkpt lat="42.193994976387614" lon="11.86149921989226"><ele>144.33333333333331</ele><time>2026-04-18T13:50:57.001Z</time></trkpt><trkpt lat="42.19389785418786" lon="11.861313411994425"><ele>146.0</ele><time>2026-04-18T13:50:58.001Z</time></trkpt><trkpt lat="42.19380495959474" lon="11.86115448936404"><ele>146.0</ele><time>2026-04-18T13:50:59.001Z</time></trkpt><trkpt lat="42.193728288730654" lon="11.861015544679129"><ele>146.0</ele><time>2026-04-18T13:51:00.001Z</time></trkpt><trkpt lat="42.19366995250248" lon="11.860874324754885"><ele>146.0</ele><time>2026-04-18T13:51:01.001Z</time></trkpt><trkpt lat="42.19361144243921" lon="11.860759544377466"><ele>146.0</ele><time>2026-04-18T13:51:02Z</time></trkpt><trkpt lat="42.19354968470011" lon="11.860638296644447"><ele>145.25</ele><time>2026-04-18T13:51:03Z</time></trkpt><trkpt lat="42.193481892139104" lon="11.86050520087088"><ele>144.5</ele><time>2026-04-18T13:51:04Z</time></trkpt><trkpt lat="42.19340979846394" lon="11.860364299152565"><ele>143.75</ele><time>2026-04-18T13:51:05Z</time></trkpt><trkpt lat="42.19331971183586" lon="11.860231439217602"><ele>143.0</ele><time>2026-04-18T13:51:06Z</time></trkpt><trkpt lat="42.19325771311362" lon="11.860076737135515"><ele>142.25</ele><time>2026-04-18T13:51:07Z</time></trkpt><trkpt lat="42.19316672606189" lon="11.859947352148835"><ele>141.5</ele><time>2026-04-18T13:51:08Z</time></trkpt><trkpt lat="42.19311039390711" lon="11.859812943523103"><ele>140.75</ele><time>2026-04-18T13:51:09Z</time></trkpt><trkpt lat="42.193052631703324" lon="11.859693801031044"><ele>140.0</ele><time>2026-04-18T13:51:10Z</time></trkpt><trkpt lat="42.192992914848595" lon="11.859579504527769"><ele>140.0</ele><time>2026-04-18T13:51:11Z</time></trkpt><trkpt lat="42.1929357816569" lon="11.859483040877898"><ele>140.0</ele><time>2026-04-18T13:51:12Z</time></trkpt><trkpt lat="42.192866424212205" lon="11.859373345368395"><ele>140.0</ele><time>2026-04-18T13:51:13Z</time></trkpt><trkpt lat="42.19282840790249" lon="11.859252767692942"><ele>140.0</ele><time>2026-04-18T13:51:14Z</time></trkpt><trkpt lat="42.19278279608974" lon="11.85916335204327"><ele>140.0</ele><time>2026-04-18T13:51:15Z</time></trkpt><trkpt lat="42.19272627700899" lon="11.859078345385004"><ele>140.6</ele><time>2026-04-18T13:51:16Z</time></trkpt><trkpt lat="42.19267248215173" lon="11.859016872589006"><ele>141.2</ele><time>2026-04-18T13:51:17Z</time></trkpt><trkpt lat="42.19256894682769" lon="11.858903391013017"><ele>141.8</ele><time>2026-04-18T13:51:19Z</time></trkpt><trkpt lat="42.19251437128358" lon="11.858845407797851"><ele>142.4</ele><time>2026-04-18T13:51:20Z</time></trkpt><trkpt lat="42.19244478185715" lon="11.858790790987205"><ele>143.0</ele><time>2026-04-18T13:51:21Z</time></trkpt><trkpt lat="42.192337591109755" lon="11.858642939942236"><ele>143.0</ele><time>2026-04-18T13:51:23Z</time></trkpt><trkpt lat="42.192269126881875" lon="11.858531957651183"><ele>143.0</ele><time>2026-04-18T13:51:24Z</time></trkpt><trkpt lat="42.192180373541504" lon="11.858440531047194"><ele>143.0</ele><time>2026-04-18T13:51:25Z</time></trkpt><trkpt lat="42.19208990676698" lon="11.858343304769843"><ele>143.0</ele><time>2026-04-18T13:51:26Z</time></trkpt><trkpt lat="42.19201416174118" lon="11.858262171947118"><ele>143.0</ele><time>2026-04-18T13:51:27Z</time></trkpt><trkpt lat="42.19193633153399" lon="11.858203435681363"><ele>141.20000000000002</ele><time>2026-04-18T13:51:28Z</time></trkpt><trkpt lat="42.19187126517968" lon="11.858120625946519"><ele>139.4</ele><time>2026-04-18T13:51:29Z</time></trkpt><trkpt lat="42.19179694957695" lon="11.858050601782024"><ele>137.60000000000002</ele><time>2026-04-18T13:51:30Z</time></trkpt><trkpt lat="42.19172296279109" lon="11.857982033355068"><ele>135.8</ele><time>2026-04-18T13:51:31Z</time></trkpt><trkpt lat="42.19163920676838" lon="11.857912210290356"><ele>134.0</ele><time>2026-04-18T13:51:32Z</time></trkpt><trkpt lat="42.191543422047104" lon="11.857851100840989"><ele>135.0</ele><time>2026-04-18T13:51:33Z</time></trkpt><trkpt lat="42.19146215766033" lon="11.857784724442139"><ele>136.0</ele><time>2026-04-18T13:51:34Z</time></trkpt><trkpt lat="42.19139036030389" lon="11.857727189988397"><ele>137.0</ele><time>2026-04-18T13:51:35Z</time></trkpt><trkpt lat="42.19131968912561" lon="11.857689634741348"><ele>138.0</ele><time>2026-04-18T13:51:36Z</time></trkpt><trkpt lat="42.19124777763701" lon="11.85769490316075"><ele>139.0</ele><time>2026-04-18T13:51:37Z</time></trkpt><trkpt lat="42.19117659436784" lon="11.857724839752438"><ele>140.0</ele><time>2026-04-18T13:51:38Z</time></trkpt><trkpt lat="42.1911093587343" lon="11.857775889735267"><ele>140.0</ele><time>2026-04-18T13:51:39Z</time></trkpt><trkpt lat="42.19101512387364" lon="11.857836669924923"><ele>140.0</ele><time>2026-04-18T13:51:40Z</time></trkpt><trkpt lat="42.19089320099781" lon="11.857889830271384"><ele>140.0</ele><time>2026-04-18T13:51:41Z</time></trkpt><trkpt lat="42.19077420708631" lon="11.857923823221778"><ele>140.0</ele><time>2026-04-18T13:51:42Z</time></trkpt><trkpt lat="42.19065896039575" lon="11.857958832001085"><ele>139.4</ele><time>2026-04-18T13:51:43Z</time></trkpt><trkpt lat="42.19055378588317" lon="11.857997881115176"><ele>138.8</ele><time>2026-04-18T13:51:44Z</time></trkpt><trkpt lat="42.190449676938094" lon="11.858039075337254"><ele>138.2</ele><time>2026-04-18T13:51:45Z</time></trkpt><trkpt lat="42.19035138880884" lon="11.858088206906155"><ele>137.6</ele><time>2026-04-18T13:51:46Z</time></trkpt><trkpt lat="42.1902441723465" lon="11.858134802494629"><ele>137.0</ele><time>2026-04-18T13:51:47Z</time></trkpt><trkpt lat="42.190130555235115" lon="11.85816883060636"><ele>137.0</ele><time>2026-04-18T13:51:48Z</time></trkpt><trkpt lat="42.19001201159586" lon="11.858197720612258"><ele>137.0</ele><time>2026-04-18T13:51:49Z</time></trkpt><trkpt lat="42.18988808803051" lon="11.858232296710481"><ele>137.0</ele><time>2026-04-18T13:51:50Z</time></trkpt><trkpt lat="42.189788819692524" lon="11.858267170122582"><ele>137.0</ele><time>2026-04-18T13:51:51Z</time></trkpt><trkpt lat="42.189694582138614" lon="11.858296301276841"><ele>137.0</ele><time>2026-04-18T13:51:52Z</time></trkpt><trkpt lat="42.1896101570636" lon="11.85833179831516"><ele>137.4</ele><time>2026-04-18T13:51:53Z</time></trkpt><trkpt lat="42.189536868521095" lon="11.85833644330758"><ele>137.79999999999998</ele><time>2026-04-18T13:51:54Z</time></trkpt><trkpt lat="42.18947370378806" lon="11.858309391884154"><ele>138.2</ele><time>2026-04-18T13:51:55Z</time></trkpt><trkpt lat="42.18937107803401" lon="11.858178922452684"><ele>138.6</ele><time>2026-04-18T13:51:57Z</time></trkpt><trkpt lat="42.18924669348424" lon="11.858127588203697"><ele>139.0</ele><time>2026-04-18T13:51:58Z</time></trkpt><trkpt lat="42.18911177435451" lon="11.858047648983929"><ele>141.25</ele><time>2026-04-18T13:51:59Z</time></trkpt><trkpt lat="42.18894807749586" lon="11.857955055554054"><ele>143.5</ele><time>2026-04-18T13:52:00Z</time></trkpt><trkpt lat="42.188821584921556" lon="11.857869891167512"><ele>145.75</ele><time>2026-04-18T13:52:01Z</time></trkpt><trkpt lat="42.18875402438356" lon="11.857750927698921"><ele>148.0</ele><time>2026-04-18T13:52:02Z</time></trkpt><trkpt lat="42.18870722275221" lon="11.857632571371997"><ele>146.0</ele><time>2026-04-18T13:52:03Z</time></trkpt><trkpt lat="42.18865128752344" lon="11.857489550056078"><ele>144.0</ele><time>2026-04-18T13:52:04Z</time></trkpt><trkpt lat="42.188584321047685" lon="11.857334269737947"><ele>142.0</ele><time>2026-04-18T13:52:05Z</time></trkpt><trkpt lat="42.18851849473949" lon="11.857188491792618"><ele>140.0</ele><time>2026-04-18T13:52:06Z</time></trkpt><trkpt lat="42.1884648096873" lon="11.857060253552604"><ele>140.0</ele><time>2026-04-18T13:52:07Z</time></trkpt><trkpt lat="42.188425672849846" lon="11.856917050173722"><ele>140.0</ele><time>2026-04-18T13:52:08Z</time></trkpt><trkpt lat="42.18838692508606" lon="11.856750086249155"><ele>140.0</ele><time>2026-04-18T13:52:09Z</time></trkpt><trkpt lat="42.18834631759757" lon="11.856592744879585"><ele>140.0</ele><time>2026-04-18T13:52:10Z</time></trkpt><trkpt lat="42.188287135745966" lon="11.856456158876714"><ele>139.4</ele><time>2026-04-18T13:52:11Z</time></trkpt><trkpt lat="42.188244336877176" lon="11.85631405338868"><ele>138.8</ele><time>2026-04-18T13:52:12Z</time></trkpt><trkpt lat="42.18820177999964" lon="11.856185177890605"><ele>138.2</ele><time>2026-04-18T13:52:13Z</time></trkpt><trkpt lat="42.18815808687228" lon="11.85605718416938"><ele>137.6</ele><time>2026-04-18T13:52:14Z</time></trkpt><trkpt lat="42.188111780574154" lon="11.855930270106406"><ele>137.0</ele><time>2026-04-18T13:52:15Z</time></trkpt><trkpt lat="42.18805981345524" lon="11.85580555152341"><ele>139.0</ele><time>2026-04-18T13:52:16Z</time></trkpt><trkpt lat="42.18799291556" lon="11.85568774004802"><ele>141.0</ele><time>2026-04-18T13:52:17Z</time></trkpt><trkpt lat="42.18791195454171" lon="11.855557910852179"><ele>143.0</ele><time>2026-04-18T13:52:18Z</time></trkpt><trkpt lat="42.18784906491659" lon="11.855420405910397"><ele>145.0</ele><time>2026-04-18T13:52:19Z</time></trkpt><trkpt lat="42.18779264443023" lon="11.85527618138522"><ele>145.0</ele><time>2026-04-18T13:52:20Z</time></trkpt><trkpt lat="42.187724553114826" lon="11.855131394316786"><ele>145.0</ele><time>2026-04-18T13:52:21Z</time></trkpt><trkpt lat="42.187630797884715" lon="11.854999734967718"><ele>145.0</ele><time>2026-04-18T13:52:22Z</time></trkpt><trkpt lat="42.18753137034864" lon="11.85487526873038"><ele>145.0</ele><time>2026-04-18T13:52:23Z</time></trkpt><trkpt lat="42.18743856458161" lon="11.854768512046768"><ele>145.5</ele><time>2026-04-18T13:52:24Z</time></trkpt><trkpt lat="42.18734027302726" lon="11.854656693847074"><ele>146.0</ele><time>2026-04-18T13:52:25Z</time></trkpt><trkpt lat="42.187257023237315" lon="11.854551436337692"><ele>146.5</ele><time>2026-04-18T13:52:26Z</time></trkpt><trkpt lat="42.18715545730954" lon="11.854449368923586"><ele>147.0</ele><time>2026-04-18T13:52:27Z</time></trkpt><trkpt lat="42.18705364605258" lon="11.854346236434639"><ele>144.75</ele><time>2026-04-18T13:52:28Z</time></trkpt><trkpt lat="42.18696221072123" lon="11.854234591301982"><ele>142.5</ele><time>2026-04-18T13:52:29Z</time></trkpt><trkpt lat="42.18691272095837" lon="11.854087380906032"><ele>140.25</ele><time>2026-04-18T13:52:30Z</time></trkpt><trkpt lat="42.18685057901715" lon="11.853931655216595"><ele>138.0</ele><time>2026-04-18T13:52:31Z</time></trkpt><trkpt lat="42.18678406140596" lon="11.853770832641189"><ele>138.0</ele><time>2026-04-18T13:52:32Z</time></trkpt><trkpt lat="42.186719173015454" lon="11.853639561945482"><ele>138.0</ele><time>2026-04-18T13:52:33Z</time></trkpt><trkpt lat="42.186626436302795" lon="11.853535813127095"><ele>138.0</ele><time>2026-04-18T13:52:34Z</time></trkpt><trkpt lat="42.18653811529225" lon="11.853445270339943"><ele>138.0</ele><time>2026-04-18T13:52:35Z</time></trkpt><trkpt lat="42.1864131807991" lon="11.853364574882013"><ele>137.75</ele><time>2026-04-18T13:52:36Z</time></trkpt><trkpt lat="42.18626583181928" lon="11.853297543725622"><ele>137.5</ele><time>2026-04-18T13:52:37Z</time></trkpt><trkpt lat="42.18612246074733" lon="11.853259384291896"><ele>137.25</ele><time>2026-04-18T13:52:38Z</time></trkpt><trkpt lat="42.18598544192653" lon="11.853256047204132"><ele>137.0</ele><time>2026-04-18T13:52:39Z</time></trkpt><trkpt lat="42.185835566497005" lon="11.853266634692858"><ele>137.0</ele><time>2026-04-18T13:52:40Z</time></trkpt><trkpt lat="42.185696001259956" lon="11.853296208436806"><ele>137.0</ele><time>2026-04-18T13:52:41Z</time></trkpt><trkpt lat="42.185574129027756" lon="11.853339942222792"><ele>137.0</ele><time>2026-04-18T13:52:42Z</time></trkpt><trkpt lat="42.1854590121046" lon="11.853338802785881"><ele>137.0</ele><time>2026-04-18T13:52:43Z</time></trkpt><trkpt lat="42.18535813686654" lon="11.85333328124539"><ele>137.5</ele><time>2026-04-18T13:52:44Z</time></trkpt><trkpt lat="42.185264746970475" lon="11.853272134489139"><ele>138.0</ele><time>2026-04-18T13:52:45Z</time></trkpt><trkpt lat="42.185160860726675" lon="11.85318740121761"><ele>138.5</ele><time>2026-04-18T13:52:46Z</time></trkpt><trkpt lat="42.185053424750905" lon="11.853094670451854"><ele>139.0</ele><time>2026-04-18T13:52:47Z</time></trkpt><trkpt lat="42.184959468587834" lon="11.852998105007337"><ele>139.0</ele><time>2026-04-18T13:52:48Z</time></trkpt><trkpt lat="42.18487088080615" lon="11.852912312096732"><ele>139.0</ele><time>2026-04-18T13:52:49Z</time></trkpt><trkpt lat="42.18479445617223" lon="11.852831365560855"><ele>139.0</ele><time>2026-04-18T13:52:50Z</time></trkpt><trkpt lat="42.18471787102492" lon="11.85275780536854"><ele>139.0</ele><time>2026-04-18T13:52:51Z</time></trkpt><trkpt lat="42.18462996009407" lon="11.852697225748054"><ele>139.0</ele><time>2026-04-18T13:52:52Z</time></trkpt><trkpt lat="42.18452980690264" lon="11.85263297212283"><ele>137.75</ele><time>2026-04-18T13:52:53Z</time></trkpt><trkpt lat="42.18441538429618" lon="11.852567267299564"><ele>136.5</ele><time>2026-04-18T13:52:54Z</time></trkpt><trkpt lat="42.184302844985204" lon="11.85249408576789"><ele>135.25</ele><time>2026-04-18T13:52:55Z</time></trkpt><trkpt lat="42.184198296529374" lon="11.85242263476856"><ele>134.0</ele><time>2026-04-18T13:52:56Z</time></trkpt><trkpt lat="42.18408966073326" lon="11.852371053636922"><ele>135.2</ele><time>2026-04-18T13:52:57Z</time></trkpt><trkpt lat="42.1840094389022" lon="11.852291510115583"><ele>136.4</ele><time>2026-04-18T13:52:58Z</time></trkpt><trkpt lat="42.18392831363212" lon="11.852234101038848"><ele>137.6</ele><time>2026-04-18T13:52:59Z</time></trkpt><trkpt lat="42.183825046171975" lon="11.852180138799588"><ele>138.8</ele><time>2026-04-18T13:53:00Z</time></trkpt><trkpt lat="42.18372794319812" lon="11.852099826189669"><ele>140.0</ele><time>2026-04-18T13:53:01Z</time></trkpt><trkpt lat="42.183639244614604" lon="11.852030733603053"><ele>140.0</ele><time>2026-04-18T13:53:02Z</time></trkpt><trkpt lat="42.18356166144238" lon="11.851975296453107"><ele>140.0</ele><time>2026-04-18T13:53:03Z</time></trkpt><trkpt lat="42.18349303387718" lon="11.851909639443045"><ele>140.0</ele><time>2026-04-18T13:53:04Z</time></trkpt><trkpt lat="42.183411449556544" lon="11.85185651880599"><ele>140.0</ele><time>2026-04-18T13:53:05Z</time></trkpt><trkpt lat="42.18331802468345" lon="11.851823510815745"><ele>140.0</ele><time>2026-04-18T13:53:06Z</time></trkpt><trkpt lat="42.18320954327265" lon="11.851757399278641"><ele>138.75</ele><time>2026-04-18T13:53:07Z</time></trkpt><trkpt lat="42.1831000929445" lon="11.851671058620209"><ele>137.5</ele><time>2026-04-18T13:53:08Z</time></trkpt><trkpt lat="42.18299995511591" lon="11.851614196754566"><ele>136.25</ele><time>2026-04-18T13:53:09Z</time></trkpt><trkpt lat="42.182897382258105" lon="11.851547770633283"><ele>135.0</ele><time>2026-04-18T13:53:10Z</time></trkpt><trkpt lat="42.18278814345092" lon="11.851478556233804"><ele>135.0</ele><time>2026-04-18T13:53:11Z</time></trkpt><trkpt lat="42.18269043284587" lon="11.851406425829431"><ele>135.0</ele><time>2026-04-18T13:53:12Z</time></trkpt><trkpt lat="42.18259998731757" lon="11.851344311058146"><ele>135.0</ele><time>2026-04-18T13:53:13Z</time></trkpt><trkpt lat="42.18250981009343" lon="11.851280356099196"><ele>135.0</ele><time>2026-04-18T13:53:14Z</time></trkpt><trkpt lat="42.18242719912546" lon="11.851223240936426"><ele>135.0</ele><time>2026-04-18T13:53:15Z</time></trkpt><trkpt lat="42.182353301227245" lon="11.851142942469751"><ele>135.8</ele><time>2026-04-18T13:53:16Z</time></trkpt><trkpt lat="42.182259471338604" lon="11.851079657592626"><ele>136.6</ele><time>2026-04-18T13:53:17Z</time></trkpt><trkpt lat="42.18217066399989" lon="11.851022519430868"><ele>137.4</ele><time>2026-04-18T13:53:18Z</time></trkpt><trkpt lat="42.18207753724139" lon="11.850946406852678"><ele>138.2</ele><time>2026-04-18T13:53:19Z</time></trkpt><trkpt lat="42.181977017450826" lon="11.850898149836938"><ele>139.0</ele><time>2026-04-18T13:53:20Z</time></trkpt><trkpt lat="42.18187843544006" lon="11.850848678806432"><ele>137.2</ele><time>2026-04-18T13:53:21Z</time></trkpt><trkpt lat="42.181787153935744" lon="11.85081489501726"><ele>135.4</ele><time>2026-04-18T13:53:22Z</time></trkpt><trkpt lat="42.18169083191442" lon="11.850796905655503"><ele>133.6</ele><time>2026-04-18T13:53:23Z</time></trkpt><trkpt lat="42.181590273547286" lon="11.850796247417302"><ele>131.8</ele><time>2026-04-18T13:53:24Z</time></trkpt><trkpt lat="42.18149623759046" lon="11.850796010786263"><ele>130.0</ele><time>2026-04-18T13:53:25Z</time></trkpt><trkpt lat="42.18141281137831" lon="11.85080620158461"><ele>130.0</ele><time>2026-04-18T13:53:26Z</time></trkpt><trkpt lat="42.181327220512756" lon="11.850785602791758"><ele>130.0</ele><time>2026-04-18T13:53:27Z</time></trkpt><trkpt lat="42.18125683713885" lon="11.850771437440626"><ele>130.0</ele><time>2026-04-18T13:53:28Z</time></trkpt><trkpt lat="42.181181189561755" lon="11.850746250800016"><ele>130.0</ele><time>2026-04-18T13:53:29Z</time></trkpt><trkpt lat="42.181101118447685" lon="11.850714133806244"><ele>130.0</ele><time>2026-04-18T13:53:30Z</time></trkpt><trkpt lat="42.18102381780089" lon="11.850671010041788"><ele>130.0</ele><time>2026-04-18T13:53:31Z</time></trkpt><trkpt lat="42.18096275518756" lon="11.850621045957373"><ele>130.0</ele><time>2026-04-18T13:53:32Z</time></trkpt><trkpt lat="42.18089829110686" lon="11.85052646356215"><ele>130.0</ele><time>2026-04-18T13:53:34Z</time></trkpt><trkpt lat="42.18082624074614" lon="11.850429837242539"><ele>130.0</ele><time>2026-04-18T13:53:36Z</time></trkpt><trkpt lat="42.180750173415774" lon="11.850374535993948"><ele>130.0</ele><time>2026-04-18T13:53:38Z</time></trkpt><trkpt lat="42.18064971973016" lon="11.85026989709703"><ele>130.0</ele><time>2026-04-18T13:53:40Z</time></trkpt><trkpt lat="42.180572910818434" lon="11.850190859297678"><ele>130.16666666666669</ele><time>2026-04-18T13:53:42Z</time></trkpt><trkpt lat="42.18048974214069" lon="11.850114104247508"><ele>130.33333333333334</ele><time>2026-04-18T13:53:44Z</time></trkpt><trkpt lat="42.18043074256081" lon="11.850079346031814"><ele>130.5</ele><time>2026-04-18T13:53:45Z</time></trkpt><trkpt lat="42.180379824283214" lon="11.850009879645702"><ele>130.66666666666666</ele><time>2026-04-18T13:53:46Z</time></trkpt><trkpt lat="42.18032194631804" lon="11.849938404855317"><ele>130.83333333333331</ele><time>2026-04-18T13:53:47Z</time></trkpt><trkpt lat="42.18026518357684" lon="11.849866572542647"><ele>131.0</ele><time>2026-04-18T13:53:48Z</time></trkpt><trkpt lat="42.1802177802158" lon="11.849807374987193"><ele>131.0</ele><time>2026-04-18T13:53:49Z</time></trkpt><trkpt lat="42.18017050055455" lon="11.84974882162157"><ele>131.0</ele><time>2026-04-18T13:53:50Z</time></trkpt><trkpt lat="42.180118033139614" lon="11.849676648165302"><ele>131.0</ele><time>2026-04-18T13:53:51Z</time></trkpt><trkpt lat="42.18003268547228" lon="11.84954906250977"><ele>131.0</ele><time>2026-04-18T13:53:53Z</time></trkpt><trkpt lat="42.17999835340351" lon="11.849456069677636"><ele>131.0</ele><time>2026-04-18T13:53:54Z</time></trkpt><trkpt lat="42.179912691091886" lon="11.849325963146452"><ele>131.4</ele><time>2026-04-18T13:53:56Z</time></trkpt><trkpt lat="42.17989661931871" lon="11.849239881251213"><ele>131.8</ele><time>2026-04-18T13:53:57Z</time></trkpt><trkpt lat="42.179879323619225" lon="11.84915250290337"><ele>132.20000000000002</ele><time>2026-04-18T13:53:58Z</time></trkpt><trkpt lat="42.17983539420677" lon="11.848998021050381"><ele>132.6</ele><time>2026-04-18T13:54:00Z</time></trkpt><trkpt lat="42.17982890046652" lon="11.84885237629643"><ele>133.0</ele><time>2026-04-18T13:54:02Z</time></trkpt><trkpt lat="42.17982710759723" lon="11.848675464077651"><ele>133.0</ele><time>2026-04-18T13:54:04Z</time></trkpt><trkpt lat="42.17982311284615" lon="11.848572568500296"><ele>133.0</ele><time>2026-04-18T13:54:05Z</time></trkpt><trkpt lat="42.17982153088876" lon="11.848471505685389"><ele>133.0</ele><time>2026-04-18T13:54:06Z</time></trkpt><trkpt lat="42.179818224031926" lon="11.848374138076881"><ele>133.0</ele><time>2026-04-18T13:54:07Z</time></trkpt><trkpt lat="42.179814376936086" lon="11.848257418226662"><ele>133.0</ele><time>2026-04-18T13:54:08Z</time></trkpt><trkpt lat="42.17981427968674" lon="11.848145840115853"><ele>133.0</ele><time>2026-04-18T13:54:09Z</time></trkpt><trkpt lat="42.17982012077433" lon="11.848023302668382"><ele>132.57142857142858</ele><time>2026-04-18T13:54:10Z</time></trkpt><trkpt lat="42.17980989288199" lon="11.847921942594285"><ele>132.14285714285714</ele><time>2026-04-18T13:54:11Z</time></trkpt><trkpt lat="42.1798016752017" lon="11.847822403985052"><ele>131.71428571428572</ele><time>2026-04-18T13:54:12Z</time></trkpt><trkpt lat="42.179797295993644" lon="11.847715745882883"><ele>131.28571428571428</ele><time>2026-04-18T13:54:13Z</time></trkpt><trkpt lat="42.17979024798903" lon="11.84761567081597"><ele>130.85714285714286</ele><time>2026-04-18T13:54:14Z</time></trkpt><trkpt lat="42.179775509456626" lon="11.847532682578615"><ele>130.42857142857144</ele><time>2026-04-18T13:54:15Z</time></trkpt><trkpt lat="42.1797503996594" lon="11.84745321458853"><ele>130.0</ele><time>2026-04-18T13:54:16Z</time></trkpt><trkpt lat="42.17971511753763" lon="11.84737289206555"><ele>128.6</ele><time>2026-04-18T13:54:17Z</time></trkpt><trkpt lat="42.179680356216" lon="11.847267118613955"><ele>127.2</ele><time>2026-04-18T13:54:18Z</time></trkpt><trkpt lat="42.17965869390356" lon="11.847173867429394"><ele>125.80000000000001</ele><time>2026-04-18T13:54:19Z</time></trkpt><trkpt lat="42.17963859374988" lon="11.847009320428684"><ele>124.4</ele><time>2026-04-18T13:54:21Z</time></trkpt><trkpt lat="42.17958454903284" lon="11.846879017339994"><ele>123.0</ele><time>2026-04-18T13:54:23Z</time></trkpt><trkpt lat="42.17954034063012" lon="11.84670642824701"><ele>121.66666666666667</ele><time>2026-04-18T13:54:25Z</time></trkpt><trkpt lat="42.1795198978183" lon="11.846621840186295"><ele>120.33333333333334</ele><time>2026-04-18T13:54:26Z</time></trkpt><trkpt lat="42.17948579296735" lon="11.84652948394315"><ele>119.0</ele><time>2026-04-18T13:54:27Z</time></trkpt><trkpt lat="42.17946327005809" lon="11.846432227017882"><ele>117.66666666666667</ele><time>2026-04-18T13:54:28Z</time></trkpt><trkpt lat="42.179436558946676" lon="11.84630715007089"><ele>116.33333333333334</ele><time>2026-04-18T13:54:29Z</time></trkpt><trkpt lat="42.17941366604767" lon="11.846191439853321"><ele>115.0</ele><time>2026-04-18T13:54:30Z</time></trkpt><trkpt lat="42.17939838948294" lon="11.846090888538578"><ele>115.00000000000001</ele><time>2026-04-18T13:54:31Z</time></trkpt><trkpt lat="42.17937492762271" lon="11.845982839735909"><ele>115.0</ele><time>2026-04-18T13:54:32Z</time></trkpt><trkpt lat="42.17935423584498" lon="11.845881842778168"><ele>115.0</ele><time>2026-04-18T13:54:33Z</time></trkpt><trkpt lat="42.179329749555514" lon="11.845764666066925"><ele>115.0</ele><time>2026-04-18T13:54:35Z</time></trkpt><trkpt lat="42.17927883767417" lon="11.845629653118197"><ele>115.00000000000001</ele><time>2026-04-18T13:54:38Z</time></trkpt><trkpt lat="42.179245829682955" lon="11.845548869569015"><ele>115.0</ele><time>2026-04-18T13:54:39Z</time></trkpt><trkpt lat="42.17920733706906" lon="11.845444925597247"><ele>114.2</ele><time>2026-04-18T13:54:40Z</time></trkpt><trkpt lat="42.179167431094875" lon="11.845332673301336"><ele>113.4</ele><time>2026-04-18T13:54:41Z</time></trkpt><trkpt lat="42.17912384771938" lon="11.845206668077765"><ele>112.6</ele><time>2026-04-18T13:54:42Z</time></trkpt><trkpt lat="42.179082743402944" lon="11.845072022083388"><ele>111.8</ele><time>2026-04-18T13:54:43Z</time></trkpt><trkpt lat="42.17903900298332" lon="11.84494041739318"><ele>111.0</ele><time>2026-04-18T13:54:44Z</time></trkpt><trkpt lat="42.178999439128944" lon="11.844826459663253"><ele>109.75</ele><time>2026-04-18T13:54:45Z</time></trkpt><trkpt lat="42.17895317510491" lon="11.844695810542047"><ele>108.5</ele><time>2026-04-18T13:54:46Z</time></trkpt><trkpt lat="42.17890473239461" lon="11.844556132785787"><ele>107.25</ele><time>2026-04-18T13:54:47Z</time></trkpt><trkpt lat="42.17885483058338" lon="11.844412339193433"><ele>106.0</ele><time>2026-04-18T13:54:48Z</time></trkpt><trkpt lat="42.178816231185166" lon="11.844263752798648"><ele>105.75</ele><time>2026-04-18T13:54:49Z</time></trkpt><trkpt lat="42.17876432078631" lon="11.844125986372259"><ele>105.5</ele><time>2026-04-18T13:54:50Z</time></trkpt><trkpt lat="42.17871296886743" lon="11.843989702069385"><ele>105.25</ele><time>2026-04-18T13:54:51Z</time></trkpt><trkpt lat="42.17866207513523" lon="11.843854633763916"><ele>105.0</ele><time>2026-04-18T13:54:52Z</time></trkpt><trkpt lat="42.17859802222541" lon="11.843728971514892"><ele>105.0</ele><time>2026-04-18T13:54:53Z</time></trkpt><trkpt lat="42.17854318675189" lon="11.843600168292914"><ele>105.0</ele><time>2026-04-18T13:54:54Z</time></trkpt><trkpt lat="42.17849215637172" lon="11.843471639705005"><ele>105.0</ele><time>2026-04-18T13:54:55Z</time></trkpt><trkpt lat="42.178423188218304" lon="11.843352261777312"><ele>105.0</ele><time>2026-04-18T13:54:56Z</time></trkpt><trkpt lat="42.17835874438606" lon="11.843214779761333"><ele>104.8</ele><time>2026-04-18T13:54:57Z</time></trkpt><trkpt lat="42.178266527093925" lon="11.843120227798384"><ele>104.6</ele><time>2026-04-18T13:54:58Z</time></trkpt><trkpt lat="42.178198512280204" lon="11.843046677615073"><ele>104.4</ele><time>2026-04-18T13:54:59Z</time></trkpt><trkpt lat="42.17814378882752" lon="11.842983306766252"><ele>104.2</ele><time>2026-04-18T13:55:00Z</time></trkpt><trkpt lat="42.17810299230435" lon="11.84290500230979"><ele>104.0</ele><time>2026-04-18T13:55:01Z</time></trkpt><trkpt lat="42.178005076649804" lon="11.842785116392834"><ele>104.0</ele><time>2026-04-18T13:55:03Z</time></trkpt><trkpt lat="42.17790305408705" lon="11.842689891366748"><ele>104.0</ele><time>2026-04-18T13:55:05Z</time></trkpt><trkpt lat="42.17784096847979" lon="11.842602240046537"><ele>104.0</ele><time>2026-04-18T13:55:07Z</time></trkpt><trkpt lat="42.17776085752062" lon="11.842514786591904"><ele>104.0</ele><time>2026-04-18T13:55:13Z</time></trkpt><trkpt lat="42.17769691534126" lon="11.842431825088736"><ele>104.0</ele><time>2026-04-18T13:55:15Z</time></trkpt><trkpt lat="42.177637168583175" lon="11.842357226692991"><ele>103.80000000000001</ele><time>2026-04-18T13:55:18Z</time></trkpt><trkpt lat="42.177561055517934" lon="11.842261845202348"><ele>103.60000000000001</ele><time>2026-04-18T13:55:20Z</time></trkpt><trkpt lat="42.177491168257276" lon="11.842161273922803"><ele>103.4</ele><time>2026-04-18T13:55:22Z</time></trkpt><trkpt lat="42.17742809787135" lon="11.842070305175818"><ele>103.2</ele><time>2026-04-18T13:55:24Z</time></trkpt><trkpt lat="42.17736225715099" lon="11.8419919528088"><ele>103.0</ele><time>2026-04-18T13:55:26Z</time></trkpt><trkpt lat="42.17729658610023" lon="11.841908559938295"><ele>102.4</ele><time>2026-04-18T13:55:28Z</time></trkpt><trkpt lat="42.17722213997546" lon="11.841840508051723"><ele>101.80000000000001</ele><time>2026-04-18T13:55:30Z</time></trkpt><trkpt lat="42.17715788798609" lon="11.84176168295653"><ele>101.2</ele><time>2026-04-18T13:55:32Z</time></trkpt><trkpt lat="42.17708016366749" lon="11.841641261324366"><ele>100.6</ele><time>2026-04-18T13:55:34Z</time></trkpt><trkpt lat="42.17702839338902" lon="11.841575230707477"><ele>100.0</ele><time>2026-04-18T13:55:35Z</time></trkpt><trkpt lat="42.17693764446324" lon="11.841477012789285"><ele>99.6</ele><time>2026-04-18T13:55:37Z</time></trkpt><trkpt lat="42.17685663859307" lon="11.841383826900413"><ele>99.2</ele><time>2026-04-18T13:55:39Z</time></trkpt><trkpt lat="42.176786027664384" lon="11.841284312140296"><ele>98.80000000000001</ele><time>2026-04-18T13:55:41Z</time></trkpt><trkpt lat="42.17670027278587" lon="11.841187116289138"><ele>98.4</ele><time>2026-04-18T13:55:43Z</time></trkpt><trkpt lat="42.17663652781509" lon="11.841083447812784"><ele>98.0</ele><time>2026-04-18T13:55:45Z</time></trkpt><trkpt lat="42.17656782734733" lon="11.840987946247981"><ele>96.49999999999999</ele><time>2026-04-18T13:55:47Z</time></trkpt><trkpt lat="42.176498404249074" lon="11.84090515682409"><ele>95.0</ele><time>2026-04-18T13:55:49Z</time></trkpt><trkpt lat="42.176432402931226" lon="11.840818520568998"><ele>93.5</ele><time>2026-04-18T13:55:51Z</time></trkpt><trkpt lat="42.176367200212056" lon="11.840744922183491"><ele>92.0</ele><time>2026-04-18T13:55:53Z</time></trkpt><trkpt lat="42.176298249460785" lon="11.840677148465739"><ele>90.5</ele><time>2026-04-18T13:55:55Z</time></trkpt><trkpt lat="42.17623585499027" lon="11.840608276060115"><ele>89.0</ele><time>2026-04-18T13:56:02Z</time></trkpt><trkpt lat="42.1761779472673" lon="11.840536786271446"><ele>89.0</ele><time>2026-04-18T13:56:06Z</time></trkpt><trkpt lat="42.17613544092835" lon="11.840473616443871"><ele>89.0</ele><time>2026-04-18T13:56:09Z</time></trkpt><trkpt lat="42.17609002377937" lon="11.840413431748477"><ele>89.0</ele><time>2026-04-18T13:56:12Z</time></trkpt><trkpt lat="42.17603459891026" lon="11.840344098225476"><ele>89.0</ele><time>2026-04-18T13:56:14Z</time></trkpt><trkpt lat="42.17597902761098" lon="11.840284008636162"><ele>89.0</ele><time>2026-04-18T13:56:16Z</time></trkpt><trkpt lat="42.17592262568216" lon="11.84023044087826"><ele>89.0</ele><time>2026-04-18T13:56:21Z</time></trkpt><trkpt lat="42.17583377771172" lon="11.840137291903313"><ele>87.80000000000001</ele><time>2026-04-18T13:56:23Z</time></trkpt><trkpt lat="42.17578375443203" lon="11.84007449590632"><ele>86.60000000000001</ele><time>2026-04-18T13:56:24Z</time></trkpt><trkpt lat="42.17571563769891" lon="11.83997354766651"><ele>85.4</ele><time>2026-04-18T13:56:26Z</time></trkpt><trkpt lat="42.17565071476776" lon="11.839881758722031"><ele>84.2</ele><time>2026-04-18T13:56:28Z</time></trkpt><trkpt lat="42.17558450705362" lon="11.839782848243239"><ele>83.0</ele><time>2026-04-18T13:56:30Z</time></trkpt><trkpt lat="42.17551279661403" lon="11.839701516252509"><ele>82.33333333333334</ele><time>2026-04-18T13:56:32Z</time></trkpt><trkpt lat="42.17544419741475" lon="11.839614515656761"><ele>81.66666666666667</ele><time>2026-04-18T13:56:34Z</time></trkpt><trkpt lat="42.17539213788226" lon="11.839564224591037"><ele>81.0</ele><time>2026-04-18T13:56:35Z</time></trkpt><trkpt lat="42.17534056060101" lon="11.839501645127351"><ele>80.33333333333333</ele><time>2026-04-18T13:56:36Z</time></trkpt><trkpt lat="42.175268909747395" lon="11.839416563067518"><ele>79.66666666666666</ele><time>2026-04-18T13:56:38Z</time></trkpt><trkpt lat="42.17516731903307" lon="11.839391897997851"><ele>79.0</ele><time>2026-04-18T13:56:40Z</time></trkpt><trkpt lat="42.17507167012309" lon="11.83946521260827"><ele>79.0</ele><time>2026-04-18T13:56:42Z</time></trkpt><trkpt lat="42.17501460111492" lon="11.83960268072529"><ele>79.0</ele><time>2026-04-18T13:56:44Z</time></trkpt><trkpt lat="42.175017398659996" lon="11.839727215506255"><ele>79.0</ele><time>2026-04-18T13:56:46Z</time></trkpt><trkpt lat="42.17500227370347" lon="11.839863992827866"><ele>79.0</ele><time>2026-04-18T13:56:48Z</time></trkpt><trkpt lat="42.17498840371318" lon="11.839996632578586"><ele>79.0</ele><time>2026-04-18T13:56:50Z</time></trkpt><trkpt lat="42.174969064138786" lon="11.840123499970213"><ele>78.16666666666666</ele><time>2026-04-18T13:56:52Z</time></trkpt><trkpt lat="42.17496040604622" lon="11.8402171643529"><ele>77.33333333333333</ele><time>2026-04-18T13:56:54Z</time></trkpt><trkpt lat="42.17496978535555" lon="11.84035101341494"><ele>76.5</ele><time>2026-04-18T13:56:57Z</time></trkpt><trkpt lat="42.174985173448476" lon="11.840455633872443"><ele>75.66666666666667</ele><time>2026-04-18T13:56:59Z</time></trkpt><trkpt lat="42.17500339993629" lon="11.840547885924334"><ele>74.83333333333334</ele><time>2026-04-18T13:57:01Z</time></trkpt><trkpt lat="42.17505243018182" lon="11.840667590587634"><ele>74.0</ele><time>2026-04-18T13:57:03Z</time></trkpt><trkpt lat="42.17509170136883" lon="11.840770210344484"><ele>74.0</ele><time>2026-04-18T13:57:05Z</time></trkpt><trkpt lat="42.17505629961404" lon="11.84085151989117"><ele>74.0</ele><time>2026-04-18T13:57:07Z</time></trkpt><trkpt lat="42.1749871847392" lon="11.840859730327786"><ele>74.0</ele><time>2026-04-18T13:57:09Z</time></trkpt><trkpt lat="42.174909652035524" lon="11.840767910544066"><ele>74.0</ele><time>2026-04-18T13:57:12Z</time></trkpt><trkpt lat="42.1748522660726" lon="11.84068548660546"><ele>74.0</ele><time>2026-04-18T13:57:14Z</time></trkpt><trkpt lat="42.17478543285371" lon="11.840605458326747"><ele>74.0</ele><time>2026-04-18T13:57:17Z</time></trkpt><trkpt lat="42.17473431920136" lon="11.840555354002465"><ele>71.33333333333334</ele><time>2026-04-18T13:57:26Z</time></trkpt><trkpt lat="42.17467146645889" lon="11.84048175725501"><ele>68.66666666666667</ele><time>2026-04-18T13:57:28Z</time></trkpt><trkpt lat="42.17461570248157" lon="11.840401332987941"><ele>66.0</ele><time>2026-04-18T13:57:30Z</time></trkpt><trkpt lat="42.174560540591784" lon="11.840325385760284"><ele>63.33333333333333</ele><time>2026-04-18T13:57:32Z</time></trkpt><trkpt lat="42.1744865920978" lon="11.840251749066734"><ele>60.666666666666664</ele><time>2026-04-18T13:57:34Z</time></trkpt><trkpt lat="42.17442656461577" lon="11.840181841942076"><ele>58.0</ele><time>2026-04-18T13:57:36Z</time></trkpt><trkpt lat="42.17436641459626" lon="11.840074440608742"><ele>58.00000000000001</ele><time>2026-04-18T13:57:38Z</time></trkpt><trkpt lat="42.17431924127714" lon="11.84001694056245"><ele>58.0</ele><time>2026-04-18T13:57:40Z</time></trkpt><trkpt lat="42.17429430899102" lon="11.83991555489273"><ele>58.00000000000001</ele><time>2026-04-18T13:57:43Z</time></trkpt><trkpt lat="42.17432304354386" lon="11.839808632099842"><ele>58.00000000000001</ele><time>2026-04-18T13:58:34Z</time></trkpt><trkpt lat="42.174368246596096" lon="11.839738699296669"><ele>58.0</ele><time>2026-04-18T13:58:36Z</time></trkpt><trkpt lat="42.17440403565316" lon="11.839659533059667"><ele>58.00000000000001</ele><time>2026-04-18T13:58:40Z</time></trkpt><trkpt lat="42.17444059565894" lon="11.839582499047525"><ele>58.00000000000001</ele><time>2026-04-18T13:58:45Z</time></trkpt><trkpt lat="42.174416447933325" lon="11.839493005670498"><ele>57.99999999999999</ele><time>2026-04-18T13:58:52Z</time></trkpt><trkpt lat="42.174337051988395" lon="11.839526692378007"><ele>58.0</ele><time>2026-04-18T13:58:55Z</time></trkpt><trkpt lat="42.17427653712664" lon="11.83958988668644"><ele>58.0</ele><time>2026-04-18T13:58:57Z</time></trkpt><trkpt lat="42.17420098396968" lon="11.839634131225349"><ele>58.0</ele><time>2026-04-18T13:58:59Z</time></trkpt><trkpt lat="42.174137777725775" lon="11.839696953456283"><ele>57.99999999999999</ele><time>2026-04-18T13:59:01Z</time></trkpt><trkpt lat="42.17406766221327" lon="11.839725067123467"><ele>58.0</ele><time>2026-04-18T13:59:04.001Z</time></trkpt><trkpt lat="42.17407782958869" lon="11.83963740873568"><ele>58.00000000000001</ele><time>2026-04-18T13:59:17.001Z</time></trkpt><trkpt lat="42.17409107810132" lon="11.83973941999923"><ele>58.0</ele><time>2026-04-18T13:59:53Z</time></trkpt><trkpt lat="42.17404572844771" lon="11.839817230068446"><ele>58.00000000000001</ele><time>2026-04-18T13:59:56Z</time></trkpt><trkpt lat="42.17398061506741" lon="11.839899258374276"><ele>58.00000000000001</ele><time>2026-04-18T14:00:06Z</time></trkpt><trkpt lat="42.17393603767451" lon="11.839965806917512"><ele>58.0</ele><time>2026-04-18T14:00:08Z</time></trkpt><trkpt lat="42.17389871363639" lon="11.840044930374289"><ele>58.00000000000001</ele><time>2026-04-18T14:00:10Z</time></trkpt><trkpt lat="42.17386653495388" lon="11.840122342896318"><ele>58.00000000000001</ele><time>2026-04-18T14:00:12Z</time></trkpt><trkpt lat="42.173844404057235" lon="11.840241801636902"><ele>57.99999999999999</ele><time>2026-04-18T14:00:14Z</time></trkpt><trkpt lat="42.173862614267684" lon="11.840352355641533"><ele>58.0</ele><time>2026-04-18T14:00:16Z</time></trkpt><trkpt lat="42.17390901600432" lon="11.840455574915993"><ele>58.0</ele><time>2026-04-18T14:00:18Z</time></trkpt><trkpt lat="42.17396620543613" lon="11.840526638731252"><ele>58.0</ele><time>2026-04-18T14:00:20Z</time></trkpt><trkpt lat="42.174016741870005" lon="11.840591636886307"><ele>57.99999999999999</ele><time>2026-04-18T14:00:22Z</time></trkpt><trkpt lat="42.17404959187605" lon="11.840687118259675"><ele>58.0</ele><time>2026-04-18T14:00:25Z</time></trkpt><trkpt lat="42.17407483518006" lon="11.840789320949064"><ele>57.99999999999999</ele><time>2026-04-18T14:00:36Z</time></trkpt><trkpt lat="42.17409282307874" lon="11.840912539049375"><ele>58.0</ele><time>2026-04-18T14:00:38Z</time></trkpt><trkpt lat="42.174108108914766" lon="11.841022339418657"><ele>58.0</ele><time>2026-04-18T14:00:40Z</time></trkpt><trkpt lat="42.1741259234758" lon="11.841128209314144"><ele>58.0</ele><time>2026-04-18T14:00:42Z</time></trkpt><trkpt lat="42.17412939967917" lon="11.841234216828093"><ele>57.99999999999999</ele><time>2026-04-18T14:00:44Z</time></trkpt><trkpt lat="42.17410630922283" lon="11.841319006191135"><ele>58.0</ele><time>2026-04-18T14:00:46Z</time></trkpt><trkpt lat="42.17403681787297" lon="11.841423480135333"><ele>57.83333333333333</ele><time>2026-04-18T14:00:49Z</time></trkpt><trkpt lat="42.173952956607394" lon="11.841521345835671"><ele>57.666666666666664</ele><time>2026-04-18T14:00:51Z</time></trkpt><trkpt lat="42.17389623199394" lon="11.841616131260666"><ele>57.5</ele><time>2026-04-18T14:00:53Z</time></trkpt><trkpt lat="42.173838240098604" lon="11.841672785200174"><ele>57.33333333333333</ele><time>2026-04-18T14:00:55Z</time></trkpt><trkpt lat="42.173758807705994" lon="11.841682371015551"><ele>57.166666666666664</ele><time>2026-04-18T14:00:57Z</time></trkpt><trkpt lat="42.173689511215954" lon="11.841687431516746"><ele>57.0</ele><time>2026-04-18T14:00:59Z</time></trkpt><trkpt lat="42.17362736933355" lon="11.841665266157287"><ele>57.0</ele><time>2026-04-18T14:01:14Z</time></trkpt><trkpt lat="42.173739072928484" lon="11.8416863121672"><ele>57.0</ele><time>2026-04-18T14:01:31.999Z</time></trkpt><trkpt lat="42.17384785311186" lon="11.84165130530771"><ele>57.0</ele><time>2026-04-18T14:01:42.999Z</time></trkpt><trkpt lat="42.173911659549844" lon="11.841595709035781"><ele>57.0</ele><time>2026-04-18T14:01:44.999Z</time></trkpt><trkpt lat="42.173971580422084" lon="11.84149539319099"><ele>57.0</ele><time>2026-04-18T14:01:47.999Z</time></trkpt><trkpt lat="42.17403116394776" lon="11.841425916076808"><ele>57.166666666666664</ele><time>2026-04-18T14:01:50Z</time></trkpt><trkpt lat="42.17407564668384" lon="11.84134934374795"><ele>57.33333333333333</ele><time>2026-04-18T14:01:52Z</time></trkpt><trkpt lat="42.174089902443306" lon="11.841255600829156"><ele>57.5</ele><time>2026-04-18T14:01:54Z</time></trkpt><trkpt lat="42.17411422713254" lon="11.841153741496983"><ele>57.666666666666664</ele><time>2026-04-18T14:01:56Z</time></trkpt><trkpt lat="42.174117412539175" lon="11.841035703438324"><ele>57.83333333333333</ele><time>2026-04-18T14:01:58Z</time></trkpt><trkpt lat="42.17408615407138" lon="11.840897019611152"><ele>58.0</ele><time>2026-04-18T14:02:00Z</time></trkpt><trkpt lat="42.17406500376814" lon="11.840754955791468"><ele>56.8</ele><time>2026-04-18T14:02:02Z</time></trkpt><trkpt lat="42.17401977037969" lon="11.840610495179702"><ele>55.599999999999994</ele><time>2026-04-18T14:02:04Z</time></trkpt><trkpt lat="42.17395941836509" lon="11.840510825259884"><ele>54.400000000000006</ele><time>2026-04-18T14:02:06Z</time></trkpt><trkpt lat="42.17388721865401" lon="11.840409784758391"><ele>53.2</ele><time>2026-04-18T14:02:08Z</time></trkpt><trkpt lat="42.173840194051294" lon="11.840303164301462"><ele>52.0</ele><time>2026-04-18T14:02:10Z</time></trkpt><trkpt lat="42.17383448443153" lon="11.840178714203377"><ele>51.49999999999999</ele><time>2026-04-18T14:02:12Z</time></trkpt><trkpt lat="42.17386644916818" lon="11.840069496184585"><ele>51.0</ele><time>2026-04-18T14:02:14Z</time></trkpt><trkpt lat="42.17393907197311" lon="11.839951951950736"><ele>50.5</ele><time>2026-04-18T14:02:16Z</time></trkpt><trkpt lat="42.17398077209729" lon="11.839878750875348"><ele>50.0</ele><time>2026-04-18T14:02:17Z</time></trkpt><trkpt lat="42.174026161002296" lon="11.839803473759355"><ele>49.49999999999999</ele><time>2026-04-18T14:02:19Z</time></trkpt><trkpt lat="42.17406341586467" lon="11.83971344334082"><ele>49.0</ele><time>2026-04-18T14:02:26Z</time></trkpt><trkpt lat="42.174091694867954" lon="11.839592477018593"><ele>49.42857142857143</ele><time>2026-04-18T14:02:29Z</time></trkpt><trkpt lat="42.174116180443875" lon="11.839510477967952"><ele>49.85714285714286</ele><time>2026-04-18T14:02:31Z</time></trkpt><trkpt lat="42.1741463485599" lon="11.839435230070086"><ele>50.285714285714285</ele><time>2026-04-18T14:02:33Z</time></trkpt><trkpt lat="42.174174055028296" lon="11.839352285889493"><ele>50.714285714285715</ele><time>2026-04-18T14:02:35Z</time></trkpt><trkpt lat="42.174192463012055" lon="11.8392707052529"><ele>51.142857142857146</ele><time>2026-04-18T14:02:46Z</time></trkpt><trkpt lat="42.174157446908694" lon="11.83936305636267"><ele>51.57142857142857</ele><time>2026-04-18T14:04:14Z</time></trkpt><trkpt lat="42.17414193942338" lon="11.839445656869598"><ele>52.0</ele><time>2026-04-18T14:04:15Z</time></trkpt><trkpt lat="42.174120525270446" lon="11.83953015099414"><ele>53.2</ele><time>2026-04-18T14:04:16Z</time></trkpt><trkpt lat="42.17408681506213" lon="11.839648880744491"><ele>54.400000000000006</ele><time>2026-04-18T14:04:18Z</time></trkpt><trkpt lat="42.174045097782475" lon="11.839734406090535"><ele>55.599999999999994</ele><time>2026-04-18T14:04:20Z</time></trkpt><trkpt lat="42.174117704262855" lon="11.839732295727213"><ele>56.8</ele><time>2026-04-18T14:04:24Z</time></trkpt><trkpt lat="42.174183957894854" lon="11.839636079608951"><ele>58.0</ele><time>2026-04-18T14:05:10Z</time></trkpt><trkpt lat="42.17428696100742" lon="11.839537814276216"><ele>58.0</ele><time>2026-04-18T14:05:12Z</time></trkpt><trkpt lat="42.17434910324409" lon="11.83949578417891"><ele>58.0</ele><time>2026-04-18T14:05:13Z</time></trkpt><trkpt lat="42.17444566885223" lon="11.839464139314622"><ele>58.0</ele><time>2026-04-18T14:05:15Z</time></trkpt><trkpt lat="42.1744356980702" lon="11.839567389479761"><ele>58.0</ele><time>2026-04-18T14:05:23.001Z</time></trkpt><trkpt lat="42.17441195997401" lon="11.839695825439437"><ele>58.0</ele><time>2026-04-18T14:05:25.001Z</time></trkpt><trkpt lat="42.17432615249776" lon="11.839851897452986"><ele>57.99999999999999</ele><time>2026-04-18T14:05:27.001Z</time></trkpt><trkpt lat="42.17428637337124" lon="11.83992365416051"><ele>58.0</ele><time>2026-04-18T14:05:28.001Z</time></trkpt><trkpt lat="42.17429285639039" lon="11.840016693700868"><ele>58.0</ele><time>2026-04-18T14:05:30.001Z</time></trkpt><trkpt lat="42.174349785774695" lon="11.840077996120629"><ele>58.0</ele><time>2026-04-18T14:06:19Z</time></trkpt><trkpt lat="42.1744259005214" lon="11.840159963920017"><ele>57.99999999999999</ele><time>2026-04-18T14:06:32Z</time></trkpt><trkpt lat="42.17446914400502" lon="11.840226246116773"><ele>58.0</ele><time>2026-04-18T14:06:34Z</time></trkpt><trkpt lat="42.174536510423266" lon="11.840301149471685"><ele>58.0</ele><time>2026-04-18T14:06:36Z</time></trkpt><trkpt lat="42.17461190943747" lon="11.8403897497236"><ele>58.0</ele><time>2026-04-18T14:06:38Z</time></trkpt><trkpt lat="42.174682805229125" lon="11.840481544031151"><ele>58.0</ele><time>2026-04-18T14:06:40Z</time></trkpt><trkpt lat="42.17474241921912" lon="11.840567704951534"><ele>58.0</ele><time>2026-04-18T14:06:42Z</time></trkpt><trkpt lat="42.17482188054748" lon="11.84064178050146"><ele>58.0</ele><time>2026-04-18T14:06:44Z</time></trkpt><trkpt lat="42.17487616758129" lon="11.84070302237944"><ele>60.666666666666664</ele><time>2026-04-18T14:06:46Z</time></trkpt><trkpt lat="42.174945001183794" lon="11.840790629329398"><ele>63.33333333333333</ele><time>2026-04-18T14:06:48Z</time></trkpt><trkpt lat="42.1750027494564" lon="11.84085864937463"><ele>66.0</ele><time>2026-04-18T14:06:50Z</time></trkpt><trkpt lat="42.175064361114664" lon="11.840838792282343"><ele>68.66666666666667</ele><time>2026-04-18T14:06:52Z</time></trkpt><trkpt lat="42.17508956365124" lon="11.84073000280548"><ele>71.33333333333334</ele><time>2026-04-18T14:06:54Z</time></trkpt><trkpt lat="42.175047891306114" lon="11.840620846406456"><ele>74.0</ele><time>2026-04-18T14:06:56Z</time></trkpt><trkpt lat="42.174983211429684" lon="11.840504546017959"><ele>74.0</ele><time>2026-04-18T14:06:58Z</time></trkpt><trkpt lat="42.174972891183685" lon="11.840405175290545"><ele>74.0</ele><time>2026-04-18T14:07:00Z</time></trkpt><trkpt lat="42.17495692155073" lon="11.840273979470284"><ele>74.0</ele><time>2026-04-18T14:07:02.001Z</time></trkpt><trkpt lat="42.17496160549448" lon="11.84016320021899"><ele>74.0</ele><time>2026-04-18T14:07:04.001Z</time></trkpt><trkpt lat="42.17497902493686" lon="11.840049904851329"><ele>74.0</ele><time>2026-04-18T14:07:06.001Z</time></trkpt><trkpt lat="42.174989319722265" lon="11.839951720486605"><ele>74.0</ele><time>2026-04-18T14:07:08.001Z</time></trkpt><trkpt lat="42.17500820253714" lon="11.839812001884999"><ele>75.0</ele><time>2026-04-18T14:07:10.001Z</time></trkpt><trkpt lat="42.17502109469183" lon="11.839683849406951"><ele>76.0</ele><time>2026-04-18T14:07:12.001Z</time></trkpt><trkpt lat="42.17502709365818" lon="11.839572458790727"><ele>77.0</ele><time>2026-04-18T14:07:14.001Z</time></trkpt><trkpt lat="42.17507111882275" lon="11.839450638553906"><ele>78.0</ele><time>2026-04-18T14:07:16.001Z</time></trkpt><trkpt lat="42.175166959786104" lon="11.839381365883101"><ele>79.0</ele><time>2026-04-18T14:07:18.001Z</time></trkpt><trkpt lat="42.17527333370291" lon="11.839385169912962"><ele>79.0</ele><time>2026-04-18T14:07:20.001Z</time></trkpt><trkpt lat="42.17534691044644" lon="11.839468274349098"><ele>79.0</ele><time>2026-04-18T14:07:22.001Z</time></trkpt><trkpt lat="42.17542140437981" lon="11.839580683497232"><ele>79.0</ele><time>2026-04-18T14:07:24.001Z</time></trkpt><trkpt lat="42.17549739890884" lon="11.839669321005562"><ele>79.0</ele><time>2026-04-18T14:07:26.001Z</time></trkpt><trkpt lat="42.17557285658521" lon="11.839756739914856"><ele>79.0</ele><time>2026-04-18T14:07:28.001Z</time></trkpt><trkpt lat="42.17562014982157" lon="11.839819269050231"><ele>79.80000000000001</ele><time>2026-04-18T14:07:29.001Z</time></trkpt><trkpt lat="42.175695073415945" lon="11.839916699083712"><ele>80.60000000000001</ele><time>2026-04-18T14:07:31.001Z</time></trkpt><trkpt lat="42.17577399277894" lon="11.840037447916014"><ele>81.4</ele><time>2026-04-18T14:07:33.001Z</time></trkpt><trkpt lat="42.17584117243026" lon="11.840129704302194"><ele>82.2</ele><time>2026-04-18T14:07:35.001Z</time></trkpt><trkpt lat="42.1759239547914" lon="11.840218982226007"><ele>83.0</ele><time>2026-04-18T14:07:37.001Z</time></trkpt><trkpt lat="42.17598521802421" lon="11.84028266181111"><ele>84.0</ele><time>2026-04-18T14:07:39.001Z</time></trkpt><trkpt lat="42.17604338244078" lon="11.840349713717329"><ele>85.0</ele><time>2026-04-18T14:07:47.001Z</time></trkpt><trkpt lat="42.17610147822404" lon="11.840419224651702"><ele>86.0</ele><time>2026-04-18T14:07:50Z</time></trkpt><trkpt lat="42.17615759872745" lon="11.840489981198084"><ele>87.0</ele><time>2026-04-18T14:07:55Z</time></trkpt><trkpt lat="42.1762153630519" lon="11.840567437291956"><ele>88.0</ele><time>2026-04-18T14:07:57Z</time></trkpt><trkpt lat="42.17627968132561" lon="11.840650268001012"><ele>89.0</ele><time>2026-04-18T14:07:59Z</time></trkpt><trkpt lat="42.17634160065702" lon="11.840718016505226"><ele>89.0</ele><time>2026-04-18T14:08:01Z</time></trkpt><trkpt lat="42.17639970183058" lon="11.840782234562441"><ele>89.0</ele><time>2026-04-18T14:08:03Z</time></trkpt><trkpt lat="42.176453996742985" lon="11.840838219211433"><ele>89.0</ele><time>2026-04-18T14:08:05Z</time></trkpt><trkpt lat="42.176506809056875" lon="11.840921731316444"><ele>89.0</ele><time>2026-04-18T14:08:07Z</time></trkpt><trkpt lat="42.176552163551634" lon="11.840983967194463"><ele>89.0</ele><time>2026-04-18T14:08:08Z</time></trkpt><trkpt lat="42.17662573621204" lon="11.841073672019059"><ele>89.0</ele><time>2026-04-18T14:08:10Z</time></trkpt><trkpt lat="42.17667888463474" lon="11.841145030380671"><ele>90.80000000000001</ele><time>2026-04-18T14:08:12Z</time></trkpt><trkpt lat="42.17674917765742" lon="11.841236813588381"><ele>92.60000000000001</ele><time>2026-04-18T14:08:14Z</time></trkpt><trkpt lat="42.17682752699244" lon="11.841339786259446"><ele>94.4</ele><time>2026-04-18T14:08:16Z</time></trkpt><trkpt lat="42.17689600486952" lon="11.841418017533973"><ele>96.2</ele><time>2026-04-18T14:08:18Z</time></trkpt><trkpt lat="42.176954112961376" lon="11.841510345887336"><ele>98.0</ele><time>2026-04-18T14:08:20Z</time></trkpt><trkpt lat="42.177006895405" lon="11.841562045745675"><ele>98.0</ele><time>2026-04-18T14:08:21Z</time></trkpt><trkpt lat="42.17708520986246" lon="11.841662437065978"><ele>98.0</ele><time>2026-04-18T14:08:23Z</time></trkpt><trkpt lat="42.17715667544796" lon="11.84173304922439"><ele>98.0</ele><time>2026-04-18T14:08:25Z</time></trkpt><trkpt lat="42.177217532405244" lon="11.841844171839929"><ele>98.0</ele><time>2026-04-18T14:08:27Z</time></trkpt><trkpt lat="42.17731293217715" lon="11.841924679270324"><ele>98.0</ele><time>2026-04-18T14:08:29Z</time></trkpt><trkpt lat="42.17737291784484" lon="11.84199267364733"><ele>99.0</ele><time>2026-04-18T14:08:31Z</time></trkpt><trkpt lat="42.177429735794995" lon="11.842070766768817"><ele>100.0</ele><time>2026-04-18T14:08:33Z</time></trkpt><trkpt lat="42.17751684348255" lon="11.842189593754147"><ele>101.0</ele><time>2026-04-18T14:08:35Z</time></trkpt><trkpt lat="42.17755994916857" lon="11.842253936262505"><ele>102.0</ele><time>2026-04-18T14:08:36Z</time></trkpt><trkpt lat="42.17763346094803" lon="11.842351385282889"><ele>103.0</ele><time>2026-04-18T14:08:38Z</time></trkpt><trkpt lat="42.177710285652275" lon="11.842442222551549"><ele>103.00000000000001</ele><time>2026-04-18T14:08:40Z</time></trkpt><trkpt lat="42.177776536801986" lon="11.842520831218007"><ele>103.0</ele><time>2026-04-18T14:08:42Z</time></trkpt><trkpt lat="42.17782936873942" lon="11.842600438346988"><ele>103.0</ele><time>2026-04-18T14:08:44Z</time></trkpt><trkpt lat="42.17789172588882" lon="11.842678470669743"><ele>103.0</ele><time>2026-04-18T14:08:49Z</time></trkpt><trkpt lat="42.177941270061815" lon="11.842761999962875"><ele>103.00000000000001</ele><time>2026-04-18T14:08:53Z</time></trkpt><trkpt lat="42.17798764101229" lon="11.842828531719746"><ele>103.0</ele><time>2026-04-18T14:08:54Z</time></trkpt><trkpt lat="42.17804295037111" lon="11.842893889201292"><ele>103.16666666666667</ele><time>2026-04-18T14:08:55Z</time></trkpt><trkpt lat="42.17809275158758" lon="11.842954937294255"><ele>103.33333333333334</ele><time>2026-04-18T14:08:56Z</time></trkpt><trkpt lat="42.17814416322333" lon="11.843011085673277"><ele>103.5</ele><time>2026-04-18T14:08:57Z</time></trkpt><trkpt lat="42.17819869447623" lon="11.843065351604663"><ele>103.66666666666666</ele><time>2026-04-18T14:08:58.001Z</time></trkpt><trkpt lat="42.178288998869036" lon="11.843169669475614"><ele>103.83333333333333</ele><time>2026-04-18T14:09:00.001Z</time></trkpt><trkpt lat="42.17837962690766" lon="11.843289475255379"><ele>104.0</ele><time>2026-04-18T14:09:02.001Z</time></trkpt><trkpt lat="42.17842787799733" lon="11.84336155257047"><ele>104.16666666666666</ele><time>2026-04-18T14:09:03.001Z</time></trkpt><trkpt lat="42.1784739468486" lon="11.843440063918576"><ele>104.33333333333333</ele><time>2026-04-18T14:09:04.001Z</time></trkpt><trkpt lat="42.17851409086741" lon="11.843524470748557"><ele>104.5</ele><time>2026-04-18T14:09:05.001Z</time></trkpt><trkpt lat="42.17855416148926" lon="11.843614514850573"><ele>104.66666666666666</ele><time>2026-04-18T14:09:06.001Z</time></trkpt><trkpt lat="42.17859498595056" lon="11.84370976336166"><ele>104.83333333333333</ele><time>2026-04-18T14:09:07.001Z</time></trkpt><trkpt lat="42.17860922477753" lon="11.843813834728172"><ele>105.0</ele><time>2026-04-18T14:09:08.001Z</time></trkpt><trkpt lat="42.17865240942501" lon="11.843928079491162"><ele>105.0</ele><time>2026-04-18T14:09:10.001Z</time></trkpt><trkpt lat="42.1786908429495" lon="11.844030079286242"><ele>105.0</ele><time>2026-04-18T14:09:12.001Z</time></trkpt><trkpt lat="42.17872948118362" lon="11.844132622249326"><ele>105.0</ele><time>2026-04-18T14:09:14.001Z</time></trkpt><trkpt lat="42.17876189009127" lon="11.844218633097748"><ele>105.0</ele><time>2026-04-18T14:09:20.001Z</time></trkpt><trkpt lat="42.17880788385224" lon="11.84429151854334"><ele>105.0</ele><time>2026-04-18T14:09:21.001Z</time></trkpt><trkpt lat="42.1788620732233" lon="11.844449768711836"><ele>105.0</ele><time>2026-04-18T14:09:23.001Z</time></trkpt><trkpt lat="42.178894652332964" lon="11.844537836703116"><ele>105.2</ele><time>2026-04-18T14:09:24.001Z</time></trkpt><trkpt lat="42.17895257600944" lon="11.84469033417018"><ele>105.4</ele><time>2026-04-18T14:09:26.001Z</time></trkpt><trkpt lat="42.17901183943878" lon="11.84484810136513"><ele>105.6</ele><time>2026-04-18T14:09:28.001Z</time></trkpt><trkpt lat="42.17905156623509" lon="11.844961019649713"><ele>105.8</ele><time>2026-04-18T14:09:29.001Z</time></trkpt><trkpt lat="42.179088926038574" lon="11.845075304106945"><ele>106.0</ele><time>2026-04-18T14:09:30.001Z</time></trkpt><trkpt lat="42.17911537319977" lon="11.84517361292159"><ele>106.8</ele><time>2026-04-18T14:09:31.001Z</time></trkpt><trkpt lat="42.17914574753311" lon="11.845258298540172"><ele>107.6</ele><time>2026-04-18T14:09:32.001Z</time></trkpt><trkpt lat="42.17919477668877" lon="11.845410838185876"><ele>108.4</ele><time>2026-04-18T14:09:34.001Z</time></trkpt><trkpt lat="42.17924810476435" lon="11.84554232469831"><ele>109.2</ele><time>2026-04-18T14:09:36.001Z</time></trkpt><trkpt lat="42.17931988268153" lon="11.845590681448865"><ele>110.0</ele><time>2026-04-18T14:09:38.001Z</time></trkpt><trkpt lat="42.17939482020071" lon="11.845579453618337"><ele>109.99999999999999</ele><time>2026-04-18T14:09:44.001Z</time></trkpt><trkpt lat="42.179410796167616" lon="11.845433848674652"><ele>110.0</ele><time>2026-04-18T14:09:47.001Z</time></trkpt><trkpt lat="42.17943249207652" lon="11.845353228382667"><ele>110.0</ele><time>2026-04-18T14:09:48.001Z</time></trkpt><trkpt lat="42.17945673234907" lon="11.845259647282235"><ele>110.0</ele><time>2026-04-18T14:09:49.001Z</time></trkpt><trkpt lat="42.17948072971071" lon="11.845165421485207"><ele>109.99999999999999</ele><time>2026-04-18T14:09:50.001Z</time></trkpt><trkpt lat="42.17950529065391" lon="11.845053351974723"><ele>110.0</ele><time>2026-04-18T14:09:51.001Z</time></trkpt><trkpt lat="42.17953267207916" lon="11.844954809033162"><ele>110.16666666666666</ele><time>2026-04-18T14:09:52.001Z</time></trkpt><trkpt lat="42.17955621188176" lon="11.844844141705781"><ele>110.33333333333333</ele><time>2026-04-18T14:09:53.001Z</time></trkpt><trkpt lat="42.17958634586243" lon="11.844729632632113"><ele>110.5</ele><time>2026-04-18T14:09:54.001Z</time></trkpt><trkpt lat="42.1796192063022" lon="11.844622513260292"><ele>110.66666666666666</ele><time>2026-04-18T14:09:55.001Z</time></trkpt><trkpt lat="42.179647975435635" lon="11.844514183561452"><ele>110.83333333333333</ele><time>2026-04-18T14:09:55.999Z</time></trkpt><trkpt lat="42.179675964069126" lon="11.844399142114638"><ele>111.0</ele><time>2026-04-18T14:09:56.999Z</time></trkpt><trkpt lat="42.17970565999692" lon="11.844285771707394"><ele>111.33333333333333</ele><time>2026-04-18T14:09:57.999Z</time></trkpt><trkpt lat="42.17973827619716" lon="11.844169079446877"><ele>111.66666666666666</ele><time>2026-04-18T14:09:58.999Z</time></trkpt><trkpt lat="42.17977008965107" lon="11.844042069894474"><ele>112.0</ele><time>2026-04-18T14:09:59.999Z</time></trkpt><trkpt lat="42.17980208174888" lon="11.843911608719413"><ele>112.33333333333333</ele><time>2026-04-18T14:10:00.999Z</time></trkpt><trkpt lat="42.179835464355605" lon="11.843810938340555"><ele>112.66666666666666</ele><time>2026-04-18T14:10:01.999Z</time></trkpt><trkpt lat="42.17985770226755" lon="11.843720248272096"><ele>113.0</ele><time>2026-04-18T14:10:02.999Z</time></trkpt><trkpt lat="42.17988678075888" lon="11.843616736402346"><ele>113.99999999999999</ele><time>2026-04-18T14:10:04Z</time></trkpt><trkpt lat="42.17991950259359" lon="11.84350828849147"><ele>115.0</ele><time>2026-04-18T14:10:05Z</time></trkpt><trkpt lat="42.1799515400279" lon="11.843394889358304"><ele>116.0</ele><time>2026-04-18T14:10:06Z</time></trkpt><trkpt lat="42.17998119766386" lon="11.843291823114365"><ele>117.0</ele><time>2026-04-18T14:10:07Z</time></trkpt><trkpt lat="42.18000884834003" lon="11.843205650559025"><ele>117.99999999999999</ele><time>2026-04-18T14:10:08Z</time></trkpt><trkpt lat="42.180039621068694" lon="11.843110450999928"><ele>119.0</ele><time>2026-04-18T14:10:09Z</time></trkpt><trkpt lat="42.18006785894902" lon="11.84301455595949"><ele>118.99999999999999</ele><time>2026-04-18T14:10:10Z</time></trkpt><trkpt lat="42.1800905226165" lon="11.842927901242206"><ele>119.0</ele><time>2026-04-18T14:10:11Z</time></trkpt><trkpt lat="42.18010985117778" lon="11.842845845581234"><ele>119.0</ele><time>2026-04-18T14:10:12Z</time></trkpt><trkpt lat="42.1801287277171" lon="11.842764191059112"><ele>119.0</ele><time>2026-04-18T14:10:13Z</time></trkpt><trkpt lat="42.18015678410336" lon="11.842668641621822"><ele>118.99999999999999</ele><time>2026-04-18T14:10:14Z</time></trkpt><trkpt lat="42.18019687964749" lon="11.842558860201962"><ele>119.0</ele><time>2026-04-18T14:10:15Z</time></trkpt><trkpt lat="42.180235552823014" lon="11.842425004796844"><ele>118.0</ele><time>2026-04-18T14:10:16Z</time></trkpt><trkpt lat="42.180271068399755" lon="11.842274218755104"><ele>117.0</ele><time>2026-04-18T14:10:17Z</time></trkpt><trkpt lat="42.18030752400666" lon="11.842121259510014"><ele>116.0</ele><time>2026-04-18T14:10:18Z</time></trkpt><trkpt lat="42.18034993174623" lon="11.841966767909192"><ele>115.0</ele><time>2026-04-18T14:10:19Z</time></trkpt><trkpt lat="42.18038851182173" lon="11.841809110047416"><ele>114.5</ele><time>2026-04-18T14:10:20Z</time></trkpt><trkpt lat="42.18042282237645" lon="11.841633631562015"><ele>114.0</ele><time>2026-04-18T14:10:21Z</time></trkpt><trkpt lat="42.180455135038194" lon="11.84146743939769"><ele>113.5</ele><time>2026-04-18T14:10:22Z</time></trkpt><trkpt lat="42.180483975470544" lon="11.841325684724882"><ele>113.0</ele><time>2026-04-18T14:10:23Z</time></trkpt><trkpt lat="42.18051004795872" lon="11.841182734809152"><ele>113.0</ele><time>2026-04-18T14:10:24Z</time></trkpt><trkpt lat="42.18053800899772" lon="11.841036867513715"><ele>113.00000000000001</ele><time>2026-04-18T14:10:25Z</time></trkpt><trkpt lat="42.18056205044653" lon="11.840892551208444"><ele>113.00000000000001</ele><time>2026-04-18T14:10:26Z</time></trkpt><trkpt lat="42.18058633084338" lon="11.840750570471148"><ele>113.0</ele><time>2026-04-18T14:10:27Z</time></trkpt><trkpt lat="42.18061189866675" lon="11.840609851196001"><ele>113.0</ele><time>2026-04-18T14:10:28Z</time></trkpt><trkpt lat="42.18063548463457" lon="11.84046913510941"><ele>113.60000000000001</ele><time>2026-04-18T14:10:29Z</time></trkpt><trkpt lat="42.180661117318024" lon="11.840325694860468"><ele>114.20000000000002</ele><time>2026-04-18T14:10:30Z</time></trkpt><trkpt lat="42.18068402917154" lon="11.840185280379117"><ele>114.8</ele><time>2026-04-18T14:10:31Z</time></trkpt><trkpt lat="42.180705207911004" lon="11.84004502390595"><ele>115.4</ele><time>2026-04-18T14:10:32Z</time></trkpt><trkpt lat="42.18072747027669" lon="11.839910102497294"><ele>116.0</ele><time>2026-04-18T14:10:33Z</time></trkpt><trkpt lat="42.180751557705904" lon="11.839790186798135"><ele>116.0</ele><time>2026-04-18T14:10:34Z</time></trkpt><trkpt lat="42.180774722020146" lon="11.839668241307718"><ele>116.0</ele><time>2026-04-18T14:10:35Z</time></trkpt><trkpt lat="42.180794420893186" lon="11.839555092273269"><ele>116.0</ele><time>2026-04-18T14:10:36Z</time></trkpt><trkpt lat="42.18082282654706" lon="11.839401161279172"><ele>116.0</ele><time>2026-04-18T14:10:37Z</time></trkpt><trkpt lat="42.18085488238767" lon="11.839226872278951"><ele>116.0</ele><time>2026-04-18T14:10:38Z</time></trkpt><trkpt lat="42.180887953500466" lon="11.839054283723465"><ele>115.75</ele><time>2026-04-18T14:10:39Z</time></trkpt><trkpt lat="42.180924244052285" lon="11.838887488752864"><ele>115.5</ele><time>2026-04-18T14:10:40Z</time></trkpt><trkpt lat="42.180967161888375" lon="11.838722512153462"><ele>115.25</ele><time>2026-04-18T14:10:41Z</time></trkpt><trkpt lat="42.18101057995073" lon="11.838561564150423"><ele>115.0</ele><time>2026-04-18T14:10:42Z</time></trkpt><trkpt lat="42.18105349385191" lon="11.83841882430059"><ele>114.6</ele><time>2026-04-18T14:10:43Z</time></trkpt><trkpt lat="42.1810994083368" lon="11.838285231293879"><ele>114.2</ele><time>2026-04-18T14:10:44Z</time></trkpt><trkpt lat="42.18115233920296" lon="11.838159681775256"><ele>113.80000000000001</ele><time>2026-04-18T14:10:45Z</time></trkpt><trkpt lat="42.18121240404234" lon="11.83803743295702"><ele>113.4</ele><time>2026-04-18T14:10:46Z</time></trkpt><trkpt lat="42.181276410120994" lon="11.837905654034122"><ele>113.0</ele><time>2026-04-18T14:10:47Z</time></trkpt><trkpt lat="42.18134389966404" lon="11.837763527202426"><ele>113.0</ele><time>2026-04-18T14:10:48Z</time></trkpt><trkpt lat="42.18140760211442" lon="11.837612603771255"><ele>113.0</ele><time>2026-04-18T14:10:49Z</time></trkpt><trkpt lat="42.18147389531427" lon="11.837463295149336"><ele>113.0</ele><time>2026-04-18T14:10:50Z</time></trkpt><trkpt lat="42.18154184973912" lon="11.83731940109962"><ele>113.0</ele><time>2026-04-18T14:10:51Z</time></trkpt><trkpt lat="42.18161808778227" lon="11.837166221754323"><ele>113.0</ele><time>2026-04-18T14:10:52Z</time></trkpt><trkpt lat="42.18169079969822" lon="11.837009723457783"><ele>113.0</ele><time>2026-04-18T14:10:53Z</time></trkpt><trkpt lat="42.18175787770393" lon="11.836854945167508"><ele>113.0</ele><time>2026-04-18T14:10:54Z</time></trkpt><trkpt lat="42.18182465211709" lon="11.836703829675955"><ele>113.0</ele><time>2026-04-18T14:10:55Z</time></trkpt><trkpt lat="42.18188843226178" lon="11.836565660981243"><ele>112.25</ele><time>2026-04-18T14:10:56Z</time></trkpt><trkpt lat="42.18195508486131" lon="11.836421707369638"><ele>111.5</ele><time>2026-04-18T14:10:57Z</time></trkpt><trkpt lat="42.18202048793434" lon="11.836277618056092"><ele>110.75</ele><time>2026-04-18T14:10:58Z</time></trkpt><trkpt lat="42.18208881708253" lon="11.836132712771603"><ele>110.0</ele><time>2026-04-18T14:10:59Z</time></trkpt><trkpt lat="42.18215629224983" lon="11.835982096192978"><ele>110.25</ele><time>2026-04-18T14:11:00Z</time></trkpt><trkpt lat="42.18222664432885" lon="11.835829609589268"><ele>110.5</ele><time>2026-04-18T14:11:01Z</time></trkpt><trkpt lat="42.1822980425831" lon="11.835676043494248"><ele>110.75</ele><time>2026-04-18T14:11:02Z</time></trkpt><trkpt lat="42.1823667225419" lon="11.835525481310004"><ele>111.0</ele><time>2026-04-18T14:11:03Z</time></trkpt><trkpt lat="42.182430268855505" lon="11.835393625796204"><ele>111.0</ele><time>2026-04-18T14:11:04.001Z</time></trkpt><trkpt lat="42.18248607487341" lon="11.835277282408223"><ele>111.0</ele><time>2026-04-18T14:11:05.001Z</time></trkpt><trkpt lat="42.18251317304267" lon="11.835179502175611"><ele>111.0</ele><time>2026-04-18T14:11:06.001Z</time></trkpt><trkpt lat="42.18250486067323" lon="11.835080108614813"><ele>111.0</ele><time>2026-04-18T14:11:07.001Z</time></trkpt><trkpt lat="42.18247230537978" lon="11.83494922644222"><ele>111.0</ele><time>2026-04-18T14:11:08.001Z</time></trkpt><trkpt lat="42.18245801778279" lon="11.834807065113296"><ele>110.4</ele><time>2026-04-18T14:11:09.001Z</time></trkpt><trkpt lat="42.182440464430826" lon="11.834673162218541"><ele>109.8</ele><time>2026-04-18T14:11:10.001Z</time></trkpt><trkpt lat="42.182424112478415" lon="11.834548424011594"><ele>109.20000000000002</ele><time>2026-04-18T14:11:11.001Z</time></trkpt><trkpt lat="42.18239899245665" lon="11.834430796176942"><ele>108.60000000000001</ele><time>2026-04-18T14:11:12.001Z</time></trkpt><trkpt lat="42.18237906176103" lon="11.834319222162243"><ele>108.0</ele><time>2026-04-18T14:11:13.001Z</time></trkpt><trkpt lat="42.18236908267831" lon="11.834204442046872"><ele>107.4</ele><time>2026-04-18T14:11:14.001Z</time></trkpt><trkpt lat="42.182355592164235" lon="11.834085002671177"><ele>106.80000000000001</ele><time>2026-04-18T14:11:15.001Z</time></trkpt><trkpt lat="42.18234459006199" lon="11.833935359706848"><ele>106.2</ele><time>2026-04-18T14:11:16.001Z</time></trkpt><trkpt lat="42.182318630896674" lon="11.833794144506996"><ele>105.6</ele><time>2026-04-18T14:11:17.001Z</time></trkpt><trkpt lat="42.1822947109455" lon="11.83365950499665"><ele>105.0</ele><time>2026-04-18T14:11:18.001Z</time></trkpt><trkpt lat="42.18227997112187" lon="11.833526209206967"><ele>102.8</ele><time>2026-04-18T14:11:19.001Z</time></trkpt><trkpt lat="42.18223769072726" lon="11.833403974803481"><ele>100.6</ele><time>2026-04-18T14:11:20.001Z</time></trkpt><trkpt lat="42.18222183654383" lon="11.833274292107149"><ele>98.4</ele><time>2026-04-18T14:11:21.001Z</time></trkpt><trkpt lat="42.18221902910529" lon="11.833140725380352"><ele>96.2</ele><time>2026-04-18T14:11:22.001Z</time></trkpt><trkpt lat="42.18222453348555" lon="11.833004783703503"><ele>94.0</ele><time>2026-04-18T14:11:23.001Z</time></trkpt><trkpt lat="42.18222730672872" lon="11.83285976581211"><ele>94.0</ele><time>2026-04-18T14:11:24.001Z</time></trkpt><trkpt lat="42.182224084751184" lon="11.832710561098095"><ele>94.0</ele><time>2026-04-18T14:11:25.001Z</time></trkpt><trkpt lat="42.182221484112596" lon="11.832553196930178"><ele>94.0</ele><time>2026-04-18T14:11:26.001Z</time></trkpt><trkpt lat="42.182218965511844" lon="11.832393067009686"><ele>94.0</ele><time>2026-04-18T14:11:27.001Z</time></trkpt><trkpt lat="42.1822159132038" lon="11.832234117703969"><ele>92.25</ele><time>2026-04-18T14:11:28.001Z</time></trkpt><trkpt lat="42.1821944798608" lon="11.83207886816318"><ele>90.5</ele><time>2026-04-18T14:11:29.001Z</time></trkpt><trkpt lat="42.182169095488526" lon="11.831923191282366"><ele>88.75</ele><time>2026-04-18T14:11:30.001Z</time></trkpt><trkpt lat="42.1821381293765" lon="11.831763421959705"><ele>87.0</ele><time>2026-04-18T14:11:31.001Z</time></trkpt><trkpt lat="42.182114674650215" lon="11.83159644045886"><ele>85.25</ele><time>2026-04-18T14:11:32.001Z</time></trkpt><trkpt lat="42.18210018083578" lon="11.831432385938271"><ele>83.5</ele><time>2026-04-18T14:11:33.001Z</time></trkpt><trkpt lat="42.18209712935575" lon="11.831262427312431"><ele>81.75</ele><time>2026-04-18T14:11:34.001Z</time></trkpt><trkpt lat="42.18210215159082" lon="11.831098311293612"><ele>80.0</ele><time>2026-04-18T14:11:35.001Z</time></trkpt><trkpt lat="42.18211652538015" lon="11.830937977465744"><ele>78.5</ele><time>2026-04-18T14:11:36.001Z</time></trkpt><trkpt lat="42.182168036632625" lon="11.830791617841667"><ele>77.0</ele><time>2026-04-18T14:11:37.001Z</time></trkpt><trkpt lat="42.18222511501211" lon="11.830651983696969"><ele>75.5</ele><time>2026-04-18T14:11:38.001Z</time></trkpt><trkpt lat="42.18229400051402" lon="11.830514147272211"><ele>74.0</ele><time>2026-04-18T14:11:39.001Z</time></trkpt><trkpt lat="42.18240687121497" lon="11.830441918034847"><ele>72.0</ele><time>2026-04-18T14:11:40.001Z</time></trkpt><trkpt lat="42.18250005597706" lon="11.830334211368825"><ele>70.0</ele><time>2026-04-18T14:11:41.001Z</time></trkpt><trkpt lat="42.182595747979974" lon="11.830247171719732"><ele>68.0</ele><time>2026-04-18T14:11:42.001Z</time></trkpt><trkpt lat="42.182692991046935" lon="11.830162589142187"><ele>66.0</ele><time>2026-04-18T14:11:43.001Z</time></trkpt><trkpt lat="42.18279014272596" lon="11.830076280153454"><ele>64.8</ele><time>2026-04-18T14:11:44.001Z</time></trkpt><trkpt lat="42.182882751277766" lon="11.829999518364442"><ele>63.599999999999994</ele><time>2026-04-18T14:11:45.001Z</time></trkpt><trkpt lat="42.18297674321475" lon="11.829966514180711"><ele>62.4</ele><time>2026-04-18T14:11:46.001Z</time></trkpt><trkpt lat="42.183068070071904" lon="11.830013887458366"><ele>61.2</ele><time>2026-04-18T14:11:47.001Z</time></trkpt><trkpt lat="42.1831829798294" lon="11.83001315315545"><ele>60.0</ele><time>2026-04-18T14:11:48.001Z</time></trkpt><trkpt lat="42.183315715095226" lon="11.83004413154572"><ele>60.25</ele><time>2026-04-18T14:11:49.001Z</time></trkpt><trkpt lat="42.18344354549551" lon="11.83006581218606"><ele>60.5</ele><time>2026-04-18T14:11:50.001Z</time></trkpt><trkpt lat="42.183568540126295" lon="11.830092819853256"><ele>60.75</ele><time>2026-04-18T14:11:51.001Z</time></trkpt><trkpt lat="42.18368930177062" lon="11.830122305924712"><ele>61.0</ele><time>2026-04-18T14:11:52.001Z</time></trkpt><trkpt lat="42.18380378201526" lon="11.830148451917754"><ele>61.0</ele><time>2026-04-18T14:11:53.001Z</time></trkpt><trkpt lat="42.183912839545684" lon="11.830170168721876"><ele>60.99999999999999</ele><time>2026-04-18T14:11:54.001Z</time></trkpt><trkpt lat="42.18401821762077" lon="11.830193653745003"><ele>60.99999999999999</ele><time>2026-04-18T14:11:55.001Z</time></trkpt><trkpt lat="42.1841185406561" lon="11.83021703762541"><ele>61.0</ele><time>2026-04-18T14:11:56.001Z</time></trkpt><trkpt lat="42.18421588219804" lon="11.830239806639256"><ele>61.0</ele><time>2026-04-18T14:11:57.001Z</time></trkpt><trkpt lat="42.18431034221432" lon="11.830261502707035"><ele>58.49999999999999</ele><time>2026-04-18T14:11:58.001Z</time></trkpt><trkpt lat="42.18440242996257" lon="11.830282586625186"><ele>56.0</ele><time>2026-04-18T14:11:59.001Z</time></trkpt><trkpt lat="42.184488150317556" lon="11.830301905824138"><ele>53.5</ele><time>2026-04-18T14:12:00.001Z</time></trkpt><trkpt lat="42.18457953605971" lon="11.83033460569345"><ele>51.0</ele><time>2026-04-18T14:12:02Z</time></trkpt><trkpt lat="42.184641728372675" lon="11.83034963935987"><ele>48.5</ele><time>2026-04-18T14:12:05Z</time></trkpt><trkpt lat="42.18457048481222" lon="11.830331352893028"><ele>46.0</ele><time>2026-04-18T14:12:27Z</time></trkpt><trkpt lat="42.184480417962185" lon="11.830292518898213"><ele>46.0</ele><time>2026-04-18T14:12:29Z</time></trkpt><trkpt lat="42.18440099983504" lon="11.830290115322661"><ele>46.0</ele><time>2026-04-18T14:12:32Z</time></trkpt><trkpt lat="42.18431459673548" lon="11.830252202737952"><ele>46.0</ele><time>2026-04-18T14:12:34Z</time></trkpt><trkpt lat="42.18423943507601" lon="11.830225048560585"><ele>46.0</ele><time>2026-04-18T14:12:35Z</time></trkpt><trkpt lat="42.184163326980205" lon="11.830209480003665"><ele>46.0</ele><time>2026-04-18T14:12:36Z</time></trkpt><trkpt lat="42.184078579251775" lon="11.83020052434737"><ele>46.0</ele><time>2026-04-18T14:12:37Z</time></trkpt><trkpt lat="42.18397872388288" lon="11.830192330585648"><ele>46.75</ele><time>2026-04-18T14:12:38Z</time></trkpt><trkpt lat="42.1838710730916" lon="11.830175371986115"><ele>47.5</ele><time>2026-04-18T14:12:39Z</time></trkpt><trkpt lat="42.183750077298726" lon="11.830142357023307"><ele>48.25</ele><time>2026-04-18T14:12:40Z</time></trkpt><trkpt lat="42.18361526605679" lon="11.830101282725385"><ele>49.0</ele><time>2026-04-18T14:12:41Z</time></trkpt><trkpt lat="42.18348319809942" lon="11.83007057765924"><ele>49.0</ele><time>2026-04-18T14:12:42Z</time></trkpt><trkpt lat="42.1833586687304" lon="11.830048104529679"><ele>49.0</ele><time>2026-04-18T14:12:43Z</time></trkpt><trkpt lat="42.18326023468467" lon="11.830028653915562"><ele>49.0</ele><time>2026-04-18T14:12:44Z</time></trkpt><trkpt lat="42.18316029636138" lon="11.830012838487779"><ele>49.0</ele><time>2026-04-18T14:12:45Z</time></trkpt><trkpt lat="42.18305445083484" lon="11.829966927758246"><ele>49.0</ele><time>2026-04-18T14:12:46Z</time></trkpt><trkpt lat="42.18296093244768" lon="11.82996830185281"><ele>51.2</ele><time>2026-04-18T14:12:47Z</time></trkpt><trkpt lat="42.1828929261455" lon="11.829956466351804"><ele>53.400000000000006</ele><time>2026-04-18T14:12:48Z</time></trkpt><trkpt lat="42.182826818212654" lon="11.830030122647482"><ele>55.6</ele><time>2026-04-18T14:12:49Z</time></trkpt><trkpt lat="42.182741329212085" lon="11.83008854996369"><ele>57.8</ele><time>2026-04-18T14:12:50Z</time></trkpt><trkpt lat="42.18265146180737" lon="11.830166997176894"><ele>60.0</ele><time>2026-04-18T14:12:51Z</time></trkpt><trkpt lat="42.182554745798846" lon="11.830252167720985"><ele>61.5</ele><time>2026-04-18T14:12:52Z</time></trkpt><trkpt lat="42.18246427668108" lon="11.830358698080818"><ele>63.0</ele><time>2026-04-18T14:12:53.001Z</time></trkpt><trkpt lat="42.182354832134436" lon="11.830440012287399"><ele>64.5</ele><time>2026-04-18T14:12:54.001Z</time></trkpt><trkpt lat="42.182262691036954" lon="11.830539189909464"><ele>66.0</ele><time>2026-04-18T14:12:55.001Z</time></trkpt><trkpt lat="42.18218567764267" lon="11.8306353114893"><ele>67.6</ele><time>2026-04-18T14:12:56.001Z</time></trkpt><trkpt lat="42.18213115714961" lon="11.830757834342604"><ele>69.19999999999999</ele><time>2026-04-18T14:12:57.001Z</time></trkpt><trkpt lat="42.18209943363643" lon="11.830895628048328"><ele>70.80000000000001</ele><time>2026-04-18T14:12:58.001Z</time></trkpt><trkpt lat="42.182091341873914" lon="11.831055827537597"><ele>72.4</ele><time>2026-04-18T14:12:59.001Z</time></trkpt><trkpt lat="42.18208370107014" lon="11.83121089017072"><ele>74.0</ele><time>2026-04-18T14:13:00.001Z</time></trkpt><trkpt lat="42.1820818024936" lon="11.831370372639604"><ele>75.5</ele><time>2026-04-18T14:13:01.001Z</time></trkpt><trkpt lat="42.18209443306586" lon="11.831527954046479"><ele>77.0</ele><time>2026-04-18T14:13:02.001Z</time></trkpt><trkpt lat="42.182118323784245" lon="11.831698101964408"><ele>78.5</ele><time>2026-04-18T14:13:03.001Z</time></trkpt><trkpt lat="42.182149558236176" lon="11.831878598715337"><ele>80.0</ele><time>2026-04-18T14:13:04.001Z</time></trkpt><trkpt lat="42.182179899778106" lon="11.832051723368657"><ele>81.75</ele><time>2026-04-18T14:13:05.001Z</time></trkpt><trkpt lat="42.18219523550654" lon="11.832226579424072"><ele>83.5</ele><time>2026-04-18T14:13:06.001Z</time></trkpt><trkpt lat="42.18220486428743" lon="11.832419338610482"><ele>85.25</ele><time>2026-04-18T14:13:07.001Z</time></trkpt><trkpt lat="42.18221571862234" lon="11.832621313193863"><ele>87.0</ele><time>2026-04-18T14:13:08.001Z</time></trkpt><trkpt lat="42.18221667267468" lon="11.832829447682585"><ele>88.39999999999999</ele><time>2026-04-18T14:13:09.001Z</time></trkpt><trkpt lat="42.182209590442" lon="11.833001619564286"><ele>89.8</ele><time>2026-04-18T14:13:10.001Z</time></trkpt><trkpt lat="42.182201444925" lon="11.833137149316705"><ele>91.2</ele><time>2026-04-18T14:13:11.001Z</time></trkpt><trkpt lat="42.18220062689883" lon="11.833261289436008"><ele>92.6</ele><time>2026-04-18T14:13:12.001Z</time></trkpt><trkpt lat="42.18221978911427" lon="11.833403530183238"><ele>94.0</ele><time>2026-04-18T14:13:13.001Z</time></trkpt><trkpt lat="42.182260235839806" lon="11.833558877882716"><ele>96.25</ele><time>2026-04-18T14:13:14.001Z</time></trkpt><trkpt lat="42.18229014639332" lon="11.833728312035413"><ele>98.5</ele><time>2026-04-18T14:13:15.001Z</time></trkpt><trkpt lat="42.18231279960594" lon="11.833914889421917"><ele>100.75</ele><time>2026-04-18T14:13:16.001Z</time></trkpt><trkpt lat="42.18234428093893" lon="11.83410129495304"><ele>103.0</ele><time>2026-04-18T14:13:17.001Z</time></trkpt><trkpt lat="42.182369014170284" lon="11.834251234078698"><ele>104.0</ele><time>2026-04-18T14:13:18.001Z</time></trkpt><trkpt lat="42.1823839940343" lon="11.834383799151281"><ele>105.0</ele><time>2026-04-18T14:13:19.001Z</time></trkpt><trkpt lat="42.18239956866773" lon="11.83452980519752"><ele>106.00000000000001</ele><time>2026-04-18T14:13:20.001Z</time></trkpt><trkpt lat="42.18241797000977" lon="11.834677004026254"><ele>107.0</ele><time>2026-04-18T14:13:21.001Z</time></trkpt><trkpt lat="42.18243773121743" lon="11.834813665987804"><ele>108.0</ele><time>2026-04-18T14:13:22.001Z</time></trkpt><trkpt lat="42.182455317973215" lon="11.834941884246106"><ele>108.0</ele><time>2026-04-18T14:13:23.001Z</time></trkpt><trkpt lat="42.18247629917072" lon="11.83507542157831"><ele>108.0</ele><time>2026-04-18T14:13:24.001Z</time></trkpt><trkpt lat="42.182488679813474" lon="11.835188103662286"><ele>108.0</ele><time>2026-04-18T14:13:25.001Z</time></trkpt><trkpt lat="42.182474666047334" lon="11.835285014539092"><ele>108.0</ele><time>2026-04-18T14:13:26.001Z</time></trkpt><trkpt lat="42.1824260509409" lon="11.835349962854465"><ele>108.0</ele><time>2026-04-18T14:13:27.001Z</time></trkpt><trkpt lat="42.18239820339947" lon="11.835443848868977"><ele>108.0</ele><time>2026-04-18T14:13:28.001Z</time></trkpt><trkpt lat="42.18235327875894" lon="11.835535433175943"><ele>108.0</ele><time>2026-04-18T14:13:29.001Z</time></trkpt><trkpt lat="42.182305641814864" lon="11.835637377303033"><ele>108.00000000000001</ele><time>2026-04-18T14:13:30.001Z</time></trkpt><trkpt lat="42.18225346336846" lon="11.835747108957152"><ele>108.00000000000001</ele><time>2026-04-18T14:13:31.001Z</time></trkpt><trkpt lat="42.18219634291621" lon="11.835861262815111"><ele>108.0</ele><time>2026-04-18T14:13:32.001Z</time></trkpt><trkpt lat="42.1821431795188" lon="11.835975773376848"><ele>108.0</ele><time>2026-04-18T14:13:33.001Z</time></trkpt><trkpt lat="42.182095129907204" lon="11.83607961271968"><ele>108.4</ele><time>2026-04-18T14:13:34.001Z</time></trkpt><trkpt lat="42.182042830269324" lon="11.836188430228765"><ele>108.80000000000001</ele><time>2026-04-18T14:13:35.001Z</time></trkpt><trkpt lat="42.18198990484516" lon="11.836304917566789"><ele>109.2</ele><time>2026-04-18T14:13:36.001Z</time></trkpt><trkpt lat="42.18193573774145" lon="11.836425127499368"><ele>109.6</ele><time>2026-04-18T14:13:37.001Z</time></trkpt><trkpt lat="42.18188690884254" lon="11.836532161917164"><ele>110.0</ele><time>2026-04-18T14:13:38.001Z</time></trkpt><trkpt lat="42.181845067355745" lon="11.83662335462055"><ele>109.99999999999999</ele><time>2026-04-18T14:13:39.001Z</time></trkpt><trkpt lat="42.18180815685119" lon="11.836704442318593"><ele>110.0</ele><time>2026-04-18T14:13:40.001Z</time></trkpt><trkpt lat="42.18176537085191" lon="11.836798280769095"><ele>110.0</ele><time>2026-04-18T14:13:41.001Z</time></trkpt><trkpt lat="42.181720130271806" lon="11.836903275585676"><ele>110.0</ele><time>2026-04-18T14:13:42.001Z</time></trkpt><trkpt lat="42.181672637255836" lon="11.837011642444144"><ele>109.99999999999999</ele><time>2026-04-18T14:13:43.001Z</time></trkpt><trkpt lat="42.181623732177364" lon="11.837122936224317"><ele>110.0</ele><time>2026-04-18T14:13:44.001Z</time></trkpt><trkpt lat="42.18157460947864" lon="11.837233167453748"><ele>110.6</ele><time>2026-04-18T14:13:45.001Z</time></trkpt><trkpt lat="42.18152246180164" lon="11.837340384456974"><ele>111.2</ele><time>2026-04-18T14:13:46.001Z</time></trkpt><trkpt lat="42.181474152431285" lon="11.83744803037725"><ele>111.80000000000001</ele><time>2026-04-18T14:13:47.001Z</time></trkpt><trkpt lat="42.18142241424807" lon="11.837558502047653"><ele>112.4</ele><time>2026-04-18T14:13:48.001Z</time></trkpt><trkpt lat="42.1813689172874" lon="11.837672742118256"><ele>113.0</ele><time>2026-04-18T14:13:49.001Z</time></trkpt><trkpt lat="42.18131433086019" lon="11.837791319849426"><ele>113.0</ele><time>2026-04-18T14:13:50.001Z</time></trkpt><trkpt lat="42.181253757988195" lon="11.837917160168946"><ele>113.00000000000001</ele><time>2026-04-18T14:13:51.001Z</time></trkpt><trkpt lat="42.18119287713757" lon="11.838037620487084"><ele>113.00000000000001</ele><time>2026-04-18T14:13:52.001Z</time></trkpt><trkpt lat="42.1811339351631" lon="11.83816511248973"><ele>113.0</ele><time>2026-04-18T14:13:53.001Z</time></trkpt><trkpt lat="42.18108534787891" lon="11.838283822736276"><ele>113.0</ele><time>2026-04-18T14:13:54.001Z</time></trkpt><trkpt lat="42.18103791223646" lon="11.83841418374587"><ele>113.5</ele><time>2026-04-18T14:13:55.001Z</time></trkpt><trkpt lat="42.18099634336067" lon="11.8385655889017"><ele>114.0</ele><time>2026-04-18T14:13:56.001Z</time></trkpt><trkpt lat="42.180947389318135" lon="11.838731650980296"><ele>114.5</ele><time>2026-04-18T14:13:57.001Z</time></trkpt><trkpt lat="42.18090684079107" lon="11.83890760314502"><ele>115.0</ele><time>2026-04-18T14:13:58.001Z</time></trkpt><trkpt lat="42.180869239874475" lon="11.839085687468762"><ele>115.0</ele><time>2026-04-18T14:13:59.001Z</time></trkpt><trkpt lat="42.18083239298253" lon="11.839278744328093"><ele>115.0</ele><time>2026-04-18T14:14:00.001Z</time></trkpt><trkpt lat="42.18079406438304" lon="11.839476043137799"><ele>115.0</ele><time>2026-04-18T14:14:01.001Z</time></trkpt><trkpt lat="42.18075806637673" lon="11.839676016502123"><ele>115.25</ele><time>2026-04-18T14:14:02.002Z</time></trkpt><trkpt lat="42.180719447270214" lon="11.83987089822476"><ele>115.5</ele><time>2026-04-18T14:14:03.002Z</time></trkpt><trkpt lat="42.180681861838174" lon="11.840061255332746"><ele>115.75</ele><time>2026-04-18T14:14:04.002Z</time></trkpt><trkpt lat="42.18065343893451" lon="11.840256498525504"><ele>116.0</ele><time>2026-04-18T14:14:05.002Z</time></trkpt><trkpt lat="42.180624195690356" lon="11.84043937112466"><ele>116.0</ele><time>2026-04-18T14:14:06.002Z</time></trkpt><trkpt lat="42.18059925840289" lon="11.840593092595958"><ele>116.0</ele><time>2026-04-18T14:14:07.002Z</time></trkpt><trkpt lat="42.18057608326246" lon="11.840725771994165"><ele>116.0</ele><time>2026-04-18T14:14:08Z</time></trkpt><trkpt lat="42.180554913464356" lon="11.84084859575981"><ele>116.0</ele><time>2026-04-18T14:14:09Z</time></trkpt><trkpt lat="42.18053265947849" lon="11.840969894852282"><ele>116.0</ele><time>2026-04-18T14:14:10Z</time></trkpt><trkpt lat="42.180509095978096" lon="11.841106195780794"><ele>115.4</ele><time>2026-04-18T14:14:11Z</time></trkpt><trkpt lat="42.18048254547894" lon="11.841239108514031"><ele>114.8</ele><time>2026-04-18T14:14:12Z</time></trkpt><trkpt lat="42.18045524014363" lon="11.841379717305617"><ele>114.20000000000002</ele><time>2026-04-18T14:14:13Z</time></trkpt><trkpt lat="42.180423124718146" lon="11.841516568306035"><ele>113.60000000000001</ele><time>2026-04-18T14:14:14Z</time></trkpt><trkpt lat="42.18039466371976" lon="11.841651798166241"><ele>113.0</ele><time>2026-04-18T14:14:15Z</time></trkpt><trkpt lat="42.180368610551966" lon="11.841788597492478"><ele>113.33333333333333</ele><time>2026-04-18T14:14:16Z</time></trkpt><trkpt lat="42.18034463291106" lon="11.841914222576042"><ele>113.66666666666666</ele><time>2026-04-18T14:14:17Z</time></trkpt><trkpt lat="42.180313592524676" lon="11.842025475934737"><ele>114.0</ele><time>2026-04-18T14:14:18Z</time></trkpt><trkpt lat="42.180287558062226" lon="11.84214179955933"><ele>114.33333333333334</ele><time>2026-04-18T14:14:19Z</time></trkpt><trkpt lat="42.180257997114474" lon="11.842243377521768"><ele>114.66666666666667</ele><time>2026-04-18T14:14:20Z</time></trkpt><trkpt lat="42.18023327531097" lon="11.842337983943537"><ele>115.0</ele><time>2026-04-18T14:14:21Z</time></trkpt><trkpt lat="42.18020911173535" lon="11.842431643964389"><ele>115.00000000000001</ele><time>2026-04-18T14:14:22Z</time></trkpt><trkpt lat="42.18018285683653" lon="11.84252695583773"><ele>115.0</ele><time>2026-04-18T14:14:23Z</time></trkpt><trkpt lat="42.18015550174416" lon="11.84262750438742"><ele>115.0</ele><time>2026-04-18T14:14:24Z</time></trkpt><trkpt lat="42.18012920034342" lon="11.842734428054236"><ele>115.0</ele><time>2026-04-18T14:14:25Z</time></trkpt><trkpt lat="42.180103109337175" lon="11.842834393666239"><ele>115.00000000000001</ele><time>2026-04-18T14:14:26Z</time></trkpt><trkpt lat="42.18006969925244" lon="11.84293254435678"><ele>115.0</ele><time>2026-04-18T14:14:27Z</time></trkpt><trkpt lat="42.180040940133225" lon="11.843048971748752"><ele>115.66666666666667</ele><time>2026-04-18T14:14:28Z</time></trkpt><trkpt lat="42.180003097886186" lon="11.843163716649146"><ele>116.33333333333334</ele><time>2026-04-18T14:14:29Z</time></trkpt><trkpt lat="42.17996826058949" lon="11.843276321860518"><ele>117.0</ele><time>2026-04-18T14:14:30Z</time></trkpt><trkpt lat="42.17994165410345" lon="11.843356114183315"><ele>117.66666666666666</ele><time>2026-04-18T14:14:31Z</time></trkpt><trkpt lat="42.17990343183591" lon="11.843483354191346"><ele>118.33333333333333</ele><time>2026-04-18T14:14:33Z</time></trkpt><trkpt lat="42.17988307464886" lon="11.843578485781705"><ele>119.0</ele><time>2026-04-18T14:14:35Z</time></trkpt><trkpt lat="42.17985341854873" lon="11.843710927858732"><ele>117.99999999999999</ele><time>2026-04-18T14:14:37Z</time></trkpt><trkpt lat="42.17980866982192" lon="11.843866175184152"><ele>117.0</ele><time>2026-04-18T14:14:39Z</time></trkpt><trkpt lat="42.17978380036977" lon="11.843946156167894"><ele>116.0</ele><time>2026-04-18T14:14:40Z</time></trkpt><trkpt lat="42.17975636680696" lon="11.844030010757063"><ele>115.0</ele><time>2026-04-18T14:14:41Z</time></trkpt><trkpt lat="42.1797302878808" lon="11.84412865753427"><ele>113.99999999999999</ele><time>2026-04-18T14:14:42Z</time></trkpt><trkpt lat="42.17970582296079" lon="11.844236357475962"><ele>113.0</ele><time>2026-04-18T14:14:43Z</time></trkpt><trkpt lat="42.179680195213045" lon="11.844349135022695"><ele>112.60000000000001</ele><time>2026-04-18T14:14:44Z</time></trkpt><trkpt lat="42.17965051469262" lon="11.844457852545887"><ele>112.20000000000002</ele><time>2026-04-18T14:14:45Z</time></trkpt><trkpt lat="42.17962001641103" lon="11.844570793780436"><ele>111.8</ele><time>2026-04-18T14:14:46.001Z</time></trkpt><trkpt lat="42.17959018604826" lon="11.84468864377876"><ele>111.4</ele><time>2026-04-18T14:14:47.001Z</time></trkpt><trkpt lat="42.1795600560386" lon="11.844815719845222"><ele>111.0</ele><time>2026-04-18T14:14:48.001Z</time></trkpt><trkpt lat="42.179523105148284" lon="11.84493724184119"><ele>111.0</ele><time>2026-04-18T14:14:49.001Z</time></trkpt><trkpt lat="42.179496904042416" lon="11.845061848599947"><ele>111.0</ele><time>2026-04-18T14:14:50.001Z</time></trkpt><trkpt lat="42.17946766212961" lon="11.845181219594778"><ele>111.0</ele><time>2026-04-18T14:14:51.001Z</time></trkpt><trkpt lat="42.17944145166605" lon="11.845290150923347"><ele>111.0</ele><time>2026-04-18T14:14:52.001Z</time></trkpt><trkpt lat="42.17941606119431" lon="11.845397102983"><ele>111.0</ele><time>2026-04-18T14:14:53.001Z</time></trkpt><trkpt lat="42.179370890940234" lon="11.845486692330153"><ele>111.0</ele><time>2026-04-18T14:14:54.001Z</time></trkpt><trkpt lat="42.17933870580267" lon="11.845585598661062"><ele>110.83333333333333</ele><time>2026-04-18T14:14:55.001Z</time></trkpt><trkpt lat="42.179337507864375" lon="11.845687725452139"><ele>110.66666666666666</ele><time>2026-04-18T14:14:56.001Z</time></trkpt><trkpt lat="42.17932871900613" lon="11.845778347610516"><ele>110.5</ele><time>2026-04-18T14:14:57.001Z</time></trkpt><trkpt lat="42.17933801357427" lon="11.8458699030037"><ele>110.33333333333333</ele><time>2026-04-18T14:14:58.001Z</time></trkpt><trkpt lat="42.17936350688684" lon="11.845970896186321"><ele>110.16666666666666</ele><time>2026-04-18T14:14:59.001Z</time></trkpt><trkpt lat="42.179395065279586" lon="11.846098559447551"><ele>110.0</ele><time>2026-04-18T14:15:00.001Z</time></trkpt><trkpt lat="42.17942028845812" lon="11.8462255198389"><ele>110.83333333333333</ele><time>2026-04-18T14:15:01.001Z</time></trkpt><trkpt lat="42.17944109456893" lon="11.846333028021734"><ele>111.66666666666666</ele><time>2026-04-18T14:15:02.001Z</time></trkpt><trkpt lat="42.17946309425993" lon="11.846434314487373"><ele>112.5</ele><time>2026-04-18T14:15:03.001Z</time></trkpt><trkpt lat="42.17948738198386" lon="11.846537461681239"><ele>113.33333333333334</ele><time>2026-04-18T14:15:04.001Z</time></trkpt><trkpt lat="42.1795114857898" lon="11.846642765381237"><ele>114.16666666666667</ele><time>2026-04-18T14:15:05.001Z</time></trkpt><trkpt lat="42.179540465465784" lon="11.846733880886363"><ele>115.0</ele><time>2026-04-18T14:15:06.001Z</time></trkpt><trkpt lat="42.17957145817632" lon="11.846819915928007"><ele>116.6</ele><time>2026-04-18T14:15:07.001Z</time></trkpt><trkpt lat="42.17959474272413" lon="11.846911562382546"><ele>118.2</ele><time>2026-04-18T14:15:08.001Z</time></trkpt><trkpt lat="42.17963306163685" lon="11.847071124933382"><ele>119.80000000000001</ele><time>2026-04-18T14:15:10.001Z</time></trkpt><trkpt lat="42.17966014034536" lon="11.847167589973198"><ele>121.4</ele><time>2026-04-18T14:15:11.001Z</time></trkpt><trkpt lat="42.179700737685955" lon="11.847257026505012"><ele>123.0</ele><time>2026-04-18T14:15:12.001Z</time></trkpt><trkpt lat="42.17971437692035" lon="11.84742584891867"><ele>123.0</ele><time>2026-04-18T14:15:14.001Z</time></trkpt><trkpt lat="42.17973999056195" lon="11.847518323985604"><ele>123.0</ele><time>2026-04-18T14:15:15.001Z</time></trkpt><trkpt lat="42.179801742039665" lon="11.847654141016129"><ele>123.0</ele><time>2026-04-18T14:15:17.001Z</time></trkpt><trkpt lat="42.17981149088612" lon="11.847771943408235"><ele>123.0</ele><time>2026-04-18T14:15:18.001Z</time></trkpt><trkpt lat="42.179815013373826" lon="11.84788862096184"><ele>123.0</ele><time>2026-04-18T14:15:19.001Z</time></trkpt><trkpt lat="42.179818681266596" lon="11.847998515388943"><ele>123.0</ele><time>2026-04-18T14:15:20.001Z</time></trkpt><trkpt lat="42.17982344759532" lon="11.848109004225103"><ele>124.16666666666667</ele><time>2026-04-18T14:15:21.001Z</time></trkpt><trkpt lat="42.17982631285411" lon="11.848225165485193"><ele>125.33333333333334</ele><time>2026-04-18T14:15:22.001Z</time></trkpt><trkpt lat="42.17982556983423" lon="11.848345599997723"><ele>126.5</ele><time>2026-04-18T14:15:23.001Z</time></trkpt><trkpt lat="42.179823369303485" lon="11.848447718486323"><ele>127.66666666666667</ele><time>2026-04-18T14:15:24.001Z</time></trkpt><trkpt lat="42.17982429609684" lon="11.84854285792822"><ele>128.83333333333334</ele><time>2026-04-18T14:15:25.001Z</time></trkpt><trkpt lat="42.17982734430251" lon="11.848645434877172"><ele>130.0</ele><time>2026-04-18T14:15:26.001Z</time></trkpt><trkpt lat="42.179835011832736" lon="11.848751701332523"><ele>130.16666666666669</ele><time>2026-04-18T14:15:27.001Z</time></trkpt><trkpt lat="42.17983918586595" lon="11.848846655464689"><ele>130.33333333333334</ele><time>2026-04-18T14:15:28.001Z</time></trkpt><trkpt lat="42.17984118491403" lon="11.848944164176867"><ele>130.5</ele><time>2026-04-18T14:15:29.001Z</time></trkpt><trkpt lat="42.17984695955177" lon="11.849031415488792"><ele>130.66666666666666</ele><time>2026-04-18T14:15:30.001Z</time></trkpt><trkpt lat="42.1798882394607" lon="11.849191967157118"><ele>130.83333333333331</ele><time>2026-04-18T14:15:32.001Z</time></trkpt><trkpt lat="42.17992210704664" lon="11.84928387225933"><ele>131.0</ele><time>2026-04-18T14:15:33.001Z</time></trkpt><trkpt lat="42.179948243749465" lon="11.849373929244658"><ele>131.0</ele><time>2026-04-18T14:15:34.001Z</time></trkpt><trkpt lat="42.17998401200952" lon="11.849468491970287"><ele>131.0</ele><time>2026-04-18T14:15:35.001Z</time></trkpt><trkpt lat="42.18006640729281" lon="11.849604235613583"><ele>131.0</ele><time>2026-04-18T14:15:37.001Z</time></trkpt><trkpt lat="42.18012245553921" lon="11.849670220809303"><ele>131.0</ele><time>2026-04-18T14:15:38.001Z</time></trkpt><trkpt lat="42.180176432143426" lon="11.849743047427294"><ele>131.0</ele><time>2026-04-18T14:15:39.001Z</time></trkpt><trkpt lat="42.18023659144773" lon="11.849804847862"><ele>131.0</ele><time>2026-04-18T14:15:40.001Z</time></trkpt><trkpt lat="42.180287328854256" lon="11.849867725446199"><ele>131.0</ele><time>2026-04-18T14:15:41.001Z</time></trkpt><trkpt lat="42.18034673791966" lon="11.849940876517481"><ele>131.0</ele><time>2026-04-18T14:15:42.001Z</time></trkpt><trkpt lat="42.180403342984285" lon="11.850017035883251"><ele>131.0</ele><time>2026-04-18T14:15:43.001Z</time></trkpt><trkpt lat="42.18045901827422" lon="11.850093294319537"><ele>131.0</ele><time>2026-04-18T14:15:44.001Z</time></trkpt><trkpt lat="42.18052469437437" lon="11.850174915601778"><ele>131.0</ele><time>2026-04-18T14:15:45.001Z</time></trkpt><trkpt lat="42.18058055001875" lon="11.850232702365128"><ele>131.0</ele><time>2026-04-18T14:15:46.001Z</time></trkpt><trkpt lat="42.18068769785079" lon="11.850301029897963"><ele>130.8</ele><time>2026-04-18T14:15:48.001Z</time></trkpt><trkpt lat="42.180748982217" lon="11.850339306564653"><ele>130.6</ele><time>2026-04-18T14:15:49.001Z</time></trkpt><trkpt lat="42.18085627810167" lon="11.850479009308774"><ele>130.4</ele><time>2026-04-18T14:15:51.001Z</time></trkpt><trkpt lat="42.180910093126855" lon="11.85056643484272"><ele>130.2</ele><time>2026-04-18T14:15:52.001Z</time></trkpt><trkpt lat="42.18095657873043" lon="11.850636685053516"><ele>130.0</ele><time>2026-04-18T14:15:53.001Z</time></trkpt><trkpt lat="42.18104688363821" lon="11.850727100557455"><ele>130.0</ele><time>2026-04-18T14:15:55.001Z</time></trkpt><trkpt lat="42.18110155418251" lon="11.85077560540896"><ele>130.0</ele><time>2026-04-18T14:15:56.001Z</time></trkpt><trkpt lat="42.18118118828599" lon="11.850801764916739"><ele>130.0</ele><time>2026-04-18T14:15:57.001Z</time></trkpt><trkpt lat="42.18125515963955" lon="11.850817853074359"><ele>130.0</ele><time>2026-04-18T14:15:58.001Z</time></trkpt><trkpt lat="42.18133858254562" lon="11.850830887474816"><ele>130.0</ele><time>2026-04-18T14:15:59.002Z</time></trkpt><trkpt lat="42.1814031337759" lon="11.850836325202417"><ele>130.0</ele><time>2026-04-18T14:16:00.002Z</time></trkpt><trkpt lat="42.181489632443586" lon="11.850838664319902"><ele>129.66666666666669</ele><time>2026-04-18T14:16:01.002Z</time></trkpt><trkpt lat="42.18156008547028" lon="11.850831557426934"><ele>129.33333333333334</ele><time>2026-04-18T14:16:02.002Z</time></trkpt><trkpt lat="42.18164404229923" lon="11.850815049377772"><ele>129.0</ele><time>2026-04-18T14:16:03.002Z</time></trkpt><trkpt lat="42.181719381737025" lon="11.850817389025393"><ele>128.66666666666666</ele><time>2026-04-18T14:16:04.002Z</time></trkpt><trkpt lat="42.18179831854293" lon="11.850834429238605"><ele>128.33333333333331</ele><time>2026-04-18T14:16:05.002Z</time></trkpt><trkpt lat="42.18188104764859" lon="11.850860763644365"><ele>128.0</ele><time>2026-04-18T14:16:06.002Z</time></trkpt><trkpt lat="42.18195186415818" lon="11.850900951941025"><ele>127.99999999999999</ele><time>2026-04-18T14:16:07.002Z</time></trkpt><trkpt lat="42.18202586386455" lon="11.850948821507435"><ele>128.0</ele><time>2026-04-18T14:16:08.002Z</time></trkpt><trkpt lat="42.18211202059904" lon="11.851003334563615"><ele>128.0</ele><time>2026-04-18T14:16:09.002Z</time></trkpt><trkpt lat="42.18219398025935" lon="11.851064814248906"><ele>128.0</ele><time>2026-04-18T14:16:10.002Z</time></trkpt><trkpt lat="42.182265557708924" lon="11.851126638428614"><ele>127.99999999999999</ele><time>2026-04-18T14:16:11.002Z</time></trkpt><trkpt lat="42.18234106056836" lon="11.851177373535437"><ele>128.0</ele><time>2026-04-18T14:16:12.002Z</time></trkpt><trkpt lat="42.18241613125572" lon="11.851221429985396"><ele>129.4</ele><time>2026-04-18T14:16:13.002Z</time></trkpt><trkpt lat="42.18248343609661" lon="11.85127087450016"><ele>130.8</ele><time>2026-04-18T14:16:14.001Z</time></trkpt><trkpt lat="42.182563624691504" lon="11.851331751677174"><ele>132.2</ele><time>2026-04-18T14:16:15.001Z</time></trkpt><trkpt lat="42.182643150904376" lon="11.851392764230269"><ele>133.6</ele><time>2026-04-18T14:16:16.001Z</time></trkpt><trkpt lat="42.18271831041426" lon="11.851454925801901"><ele>135.0</ele><time>2026-04-18T14:16:17.001Z</time></trkpt><trkpt lat="42.18281150030026" lon="11.851515912591468"><ele>135.0</ele><time>2026-04-18T14:16:18.001Z</time></trkpt><trkpt lat="42.18290098297355" lon="11.851578916406394"><ele>135.0</ele><time>2026-04-18T14:16:19.001Z</time></trkpt><trkpt lat="42.18298079374233" lon="11.851630345822295"><ele>135.0</ele><time>2026-04-18T14:16:20.001Z</time></trkpt><trkpt lat="42.183055948169795" lon="11.851686914664858"><ele>135.0</ele><time>2026-04-18T14:16:21.001Z</time></trkpt><trkpt lat="42.18313906852979" lon="11.851742318537665"><ele>135.0</ele><time>2026-04-18T14:16:22.001Z</time></trkpt><trkpt lat="42.18322223258485" lon="11.851791783695413"><ele>135.83333333333334</ele><time>2026-04-18T14:16:23.001Z</time></trkpt><trkpt lat="42.18331146798085" lon="11.851835402789217"><ele>136.66666666666666</ele><time>2026-04-18T14:16:24.001Z</time></trkpt><trkpt lat="42.18339822962663" lon="11.851897628237655"><ele>137.5</ele><time>2026-04-18T14:16:25.001Z</time></trkpt><trkpt lat="42.18346917994945" lon="11.85194497108093"><ele>138.33333333333331</ele><time>2026-04-18T14:16:26Z</time></trkpt><trkpt lat="42.18354307264514" lon="11.85199436324089"><ele>139.16666666666666</ele><time>2026-04-18T14:16:27Z</time></trkpt><trkpt lat="42.18362054864697" lon="11.852056501028114"><ele>140.0</ele><time>2026-04-18T14:16:28Z</time></trkpt><trkpt lat="42.183703148652825" lon="11.85211841805544"><ele>140.0</ele><time>2026-04-18T14:16:29Z</time></trkpt><trkpt lat="42.183794102183946" lon="11.85218659689208"><ele>140.0</ele><time>2026-04-18T14:16:30Z</time></trkpt><trkpt lat="42.18388924810199" lon="11.852256488131575"><ele>140.0</ele><time>2026-04-18T14:16:31Z</time></trkpt><trkpt lat="42.18397868852561" lon="11.852320497962163"><ele>140.0</ele><time>2026-04-18T14:16:32Z</time></trkpt><trkpt lat="42.184074787073676" lon="11.85237983761356"><ele>140.0</ele><time>2026-04-18T14:16:33Z</time></trkpt><trkpt lat="42.18416384114699" lon="11.852446388258192"><ele>140.4</ele><time>2026-04-18T14:16:34.001Z</time></trkpt><trkpt lat="42.184241564139995" lon="11.85249153689007"><ele>140.8</ele><time>2026-04-18T14:16:35.001Z</time></trkpt><trkpt lat="42.184324684277016" lon="11.852540225742741"><ele>141.2</ele><time>2026-04-18T14:16:36.001Z</time></trkpt><trkpt lat="42.184424246971176" lon="11.852599086327233"><ele>141.6</ele><time>2026-04-18T14:16:37.001Z</time></trkpt><trkpt lat="42.18451093350603" lon="11.852665919066403"><ele>142.0</ele><time>2026-04-18T14:16:38.001Z</time></trkpt><trkpt lat="42.184598621602284" lon="11.85272103817137"><ele>142.0</ele><time>2026-04-18T14:16:39.001Z</time></trkpt><trkpt lat="42.18467962140807" lon="11.852765960400799"><ele>142.0</ele><time>2026-04-18T14:16:40.001Z</time></trkpt><trkpt lat="42.18475468513157" lon="11.852820468960827"><ele>142.0</ele><time>2026-04-18T14:16:41.001Z</time></trkpt><trkpt lat="42.184808930366046" lon="11.852882358034414"><ele>142.0</ele><time>2026-04-18T14:16:42.001Z</time></trkpt><trkpt lat="42.18486730168907" lon="11.852952709588603"><ele>142.0</ele><time>2026-04-18T14:16:43.001Z</time></trkpt><trkpt lat="42.1849192660321" lon="11.85301345472042"><ele>142.0</ele><time>2026-04-18T14:16:44.001Z</time></trkpt><trkpt lat="42.184978990246975" lon="11.853069581305915"><ele>141.4</ele><time>2026-04-18T14:16:45.001Z</time></trkpt><trkpt lat="42.18504986917347" lon="11.853129094443663"><ele>140.79999999999998</ele><time>2026-04-18T14:16:46.001Z</time></trkpt><trkpt lat="42.18512195004037" lon="11.853186196035798"><ele>140.2</ele><time>2026-04-18T14:16:47.001Z</time></trkpt><trkpt lat="42.185202874237525" lon="11.853258068419915"><ele>139.6</ele><time>2026-04-18T14:16:48.001Z</time></trkpt><trkpt lat="42.18528416667492" lon="11.85332493882214"><ele>139.0</ele><time>2026-04-18T14:16:49.001Z</time></trkpt><trkpt lat="42.185369198207134" lon="11.85337178934738"><ele>139.0</ele><time>2026-04-18T14:16:50.001Z</time></trkpt><trkpt lat="42.185466212979776" lon="11.853385747797734"><ele>139.0</ele><time>2026-04-18T14:16:51.001Z</time></trkpt><trkpt lat="42.185583342477884" lon="11.853364407715127"><ele>139.0</ele><time>2026-04-18T14:16:52.001Z</time></trkpt><trkpt lat="42.18570106997687" lon="11.853330580310084"><ele>139.0</ele><time>2026-04-18T14:16:53.001Z</time></trkpt><trkpt lat="42.1857977211564" lon="11.853304357593517"><ele>139.0</ele><time>2026-04-18T14:16:54.001Z</time></trkpt><trkpt lat="42.18590380098539" lon="11.853283442190545"><ele>138.6</ele><time>2026-04-18T14:16:55.001Z</time></trkpt><trkpt lat="42.18602096112716" lon="11.853275619001353"><ele>138.2</ele><time>2026-04-18T14:16:56.001Z</time></trkpt><trkpt lat="42.18613903349" lon="11.85328453170364"><ele>137.79999999999998</ele><time>2026-04-18T14:16:57.001Z</time></trkpt><trkpt lat="42.18624227171869" lon="11.853308536753435"><ele>137.4</ele><time>2026-04-18T14:16:58.001Z</time></trkpt><trkpt lat="42.18634252881951" lon="11.853342769566558"><ele>137.0</ele><time>2026-04-18T14:16:59.001Z</time></trkpt><trkpt lat="42.186443589086565" lon="11.853396790696655"><ele>137.2</ele><time>2026-04-18T14:17:00.001Z</time></trkpt><trkpt lat="42.18653686092185" lon="11.853466083920711"><ele>137.39999999999998</ele><time>2026-04-18T14:17:01.001Z</time></trkpt><trkpt lat="42.18662605887765" lon="11.85355161979434"><ele>137.60000000000002</ele><time>2026-04-18T14:17:02.001Z</time></trkpt><trkpt lat="42.186706382842196" lon="11.8536570894489"><ele>137.8</ele><time>2026-04-18T14:17:03.001Z</time></trkpt><trkpt lat="42.186753345064076" lon="11.85378889951856"><ele>138.0</ele><time>2026-04-18T14:17:04.001Z</time></trkpt><trkpt lat="42.18680968974754" lon="11.853923779257267"><ele>138.0</ele><time>2026-04-18T14:17:05.001Z</time></trkpt><trkpt lat="42.18686884199637" lon="11.854072364798801"><ele>138.0</ele><time>2026-04-18T14:17:06.001Z</time></trkpt><trkpt lat="42.186930696966996" lon="11.854220354583614"><ele>138.0</ele><time>2026-04-18T14:17:07.001Z</time></trkpt><trkpt lat="42.18700441025591" lon="11.854326202493683"><ele>138.0</ele><time>2026-04-18T14:17:08.001Z</time></trkpt><trkpt lat="42.18709569340126" lon="11.854429561951457"><ele>138.0</ele><time>2026-04-18T14:17:09.001Z</time></trkpt><trkpt lat="42.18720132680033" lon="11.854521135396908"><ele>138.0</ele><time>2026-04-18T14:17:10.001Z</time></trkpt><trkpt lat="42.18730430937971" lon="11.854623428568411"><ele>138.0</ele><time>2026-04-18T14:17:11.001Z</time></trkpt><trkpt lat="42.18738563074911" lon="11.854726068726825"><ele>138.0</ele><time>2026-04-18T14:17:12.001Z</time></trkpt><trkpt lat="42.18746482018478" lon="11.854828521230921"><ele>138.0</ele><time>2026-04-18T14:17:13.001Z</time></trkpt><trkpt lat="42.187547041082176" lon="11.854927471361297"><ele>138.0</ele><time>2026-04-18T14:17:14.001Z</time></trkpt><trkpt lat="42.18761923708872" lon="11.855044919703243"><ele>138.0</ele><time>2026-04-18T14:17:15.001Z</time></trkpt><trkpt lat="42.18769262673306" lon="11.855148468331898"><ele>138.0</ele><time>2026-04-18T14:17:16.001Z</time></trkpt><trkpt lat="42.18774616377959" lon="11.855245676912075"><ele>138.0</ele><time>2026-04-18T14:17:17.001Z</time></trkpt><trkpt lat="42.18779855622871" lon="11.855353596699286"><ele>139.4</ele><time>2026-04-18T14:17:18.001Z</time></trkpt><trkpt lat="42.18785244623492" lon="11.855491154441328"><ele>140.8</ele><time>2026-04-18T14:17:19.001Z</time></trkpt><trkpt lat="42.18792262074329" lon="11.855607140442306"><ele>142.2</ele><time>2026-04-18T14:17:20.001Z</time></trkpt><trkpt lat="42.187964303133036" lon="11.855733729700063"><ele>143.6</ele><time>2026-04-18T14:17:21.001Z</time></trkpt><trkpt lat="42.18801991496493" lon="11.855850734843012"><ele>145.0</ele><time>2026-04-18T14:17:22.001Z</time></trkpt><trkpt lat="42.18808507713153" lon="11.855948403142275"><ele>146.0</ele><time>2026-04-18T14:17:23.001Z</time></trkpt><trkpt lat="42.18813009241888" lon="11.856075931299591"><ele>147.0</ele><time>2026-04-18T14:17:24.001Z</time></trkpt><trkpt lat="42.18817739959322" lon="11.856209186114668"><ele>148.0</ele><time>2026-04-18T14:17:25.001Z</time></trkpt><trkpt lat="42.18822925400189" lon="11.856355249591319"><ele>149.0</ele><time>2026-04-18T14:17:26.001Z</time></trkpt><trkpt lat="42.18827416194044" lon="11.856485202298334"><ele>150.0</ele><time>2026-04-18T14:17:27.001Z</time></trkpt><trkpt lat="42.18832243001278" lon="11.856634083778868"><ele>148.0</ele><time>2026-04-18T14:17:28.001Z</time></trkpt><trkpt lat="42.18837580085365" lon="11.856778726615845"><ele>146.0</ele><time>2026-04-18T14:17:29.001Z</time></trkpt><trkpt lat="42.18840301825857" lon="11.856924602315482"><ele>144.0</ele><time>2026-04-18T14:17:30.001Z</time></trkpt><trkpt lat="42.18843270695532" lon="11.857063258879164"><ele>142.0</ele><time>2026-04-18T14:17:31.001Z</time></trkpt><trkpt lat="42.18847517453988" lon="11.857175817734086"><ele>140.0</ele><time>2026-04-18T14:17:32.001Z</time></trkpt><trkpt lat="42.18851804390864" lon="11.857283186514747"><ele>140.0</ele><time>2026-04-18T14:17:33.001Z</time></trkpt><trkpt lat="42.18855245510615" lon="11.857387627395193"><ele>140.0</ele><time>2026-04-18T14:17:34.001Z</time></trkpt><trkpt lat="42.18859251319803" lon="11.857484219416937"><ele>140.0</ele><time>2026-04-18T14:17:35.001Z</time></trkpt><trkpt lat="42.18864707885011" lon="11.857576550365652"><ele>140.0</ele><time>2026-04-18T14:17:36.001Z</time></trkpt><trkpt lat="42.188705141851614" lon="11.857695113409639"><ele>140.0</ele><time>2026-04-18T14:17:37.001Z</time></trkpt><trkpt lat="42.188769433287135" lon="11.857819153598593"><ele>139.75</ele><time>2026-04-18T14:17:38.001Z</time></trkpt><trkpt lat="42.18884771610996" lon="11.857909020558406"><ele>139.5</ele><time>2026-04-18T14:17:39.001Z</time></trkpt><trkpt lat="42.18895246313657" lon="11.85797739650036"><ele>139.25</ele><time>2026-04-18T14:17:40.001Z</time></trkpt><trkpt lat="42.18907505829122" lon="11.858063288466534"><ele>139.0</ele><time>2026-04-18T14:17:41.001Z</time></trkpt><trkpt lat="42.189192582685834" lon="11.85812551783235"><ele>139.0</ele><time>2026-04-18T14:17:42.001Z</time></trkpt><trkpt lat="42.18929681732032" lon="11.858181011230558"><ele>139.0</ele><time>2026-04-18T14:17:43.001Z</time></trkpt><trkpt lat="42.18939501449694" lon="11.858224794660675"><ele>139.0</ele><time>2026-04-18T14:17:44.001Z</time></trkpt><trkpt lat="42.18946889722387" lon="11.858301396859895"><ele>139.0</ele><time>2026-04-18T14:17:45.001Z</time></trkpt><trkpt lat="42.18953270759957" lon="11.858358694705268"><ele>139.0</ele><time>2026-04-18T14:17:46.001Z</time></trkpt><trkpt lat="42.18960170494031" lon="11.858377766119363"><ele>139.0</ele><time>2026-04-18T14:17:47.001Z</time></trkpt><trkpt lat="42.189664789863514" lon="11.858359114088682"><ele>139.0</ele><time>2026-04-18T14:17:48.001Z</time></trkpt><trkpt lat="42.18974525972778" lon="11.858312549622609"><ele>139.0</ele><time>2026-04-18T14:17:49.001Z</time></trkpt><trkpt lat="42.18985326867023" lon="11.858277247076856"><ele>139.0</ele><time>2026-04-18T14:17:50.001Z</time></trkpt><trkpt lat="42.189960999920224" lon="11.85823025495256"><ele>139.0</ele><time>2026-04-18T14:17:51.001Z</time></trkpt><trkpt lat="42.19006263050906" lon="11.858186555319223"><ele>138.5</ele><time>2026-04-18T14:17:52.001Z</time></trkpt><trkpt lat="42.19016726813836" lon="11.858144487330588"><ele>138.0</ele><time>2026-04-18T14:17:53.001Z</time></trkpt><trkpt lat="42.190277165359994" lon="11.858102897495659"><ele>137.5</ele><time>2026-04-18T14:17:54.001Z</time></trkpt><trkpt lat="42.190386639323705" lon="11.858066284583058"><ele>137.0</ele><time>2026-04-18T14:17:55.001Z</time></trkpt><trkpt lat="42.190497386747204" lon="11.858031534636792"><ele>137.0</ele><time>2026-04-18T14:17:56.001Z</time></trkpt><trkpt lat="42.19059413340178" lon="11.858001177848337"><ele>137.0</ele><time>2026-04-18T14:17:57.001Z</time></trkpt><trkpt lat="42.19069270146485" lon="11.857966367602534"><ele>137.0</ele><time>2026-04-18T14:17:58.001Z</time></trkpt><trkpt lat="42.1907955941243" lon="11.857913630042079"><ele>137.0</ele><time>2026-04-18T14:17:59.001Z</time></trkpt><trkpt lat="42.1909022984971" lon="11.857880481133732"><ele>137.0</ele><time>2026-04-18T14:18:00.001Z</time></trkpt><trkpt lat="42.190994335271796" lon="11.85783700329695"><ele>137.5</ele><time>2026-04-18T14:18:01.001Z</time></trkpt><trkpt lat="42.191084563846175" lon="11.857809466686692"><ele>138.0</ele><time>2026-04-18T14:18:02.002Z</time></trkpt><trkpt lat="42.19116351251069" lon="11.857773750618861"><ele>138.5</ele><time>2026-04-18T14:18:03.002Z</time></trkpt><trkpt lat="42.19123877604896" lon="11.857739701691463"><ele>139.0</ele><time>2026-04-18T14:18:04.002Z</time></trkpt><trkpt lat="42.191302560332346" lon="11.857723067447933"><ele>139.5</ele><time>2026-04-18T14:18:05.002Z</time></trkpt><trkpt lat="42.191415306457216" lon="11.85777599340016"><ele>140.0</ele><time>2026-04-18T14:18:07.002Z</time></trkpt><trkpt lat="42.19150548136407" lon="11.857824029112363"><ele>138.8</ele><time>2026-04-18T14:18:08.002Z</time></trkpt><trkpt lat="42.191599463331464" lon="11.857915974616052"><ele>137.6</ele><time>2026-04-18T14:18:09.002Z</time></trkpt><trkpt lat="42.191707412972214" lon="11.857998483201841"><ele>136.4</ele><time>2026-04-18T14:18:10.002Z</time></trkpt><trkpt lat="42.19179779849018" lon="11.858069105850511"><ele>135.2</ele><time>2026-04-18T14:18:11.002Z</time></trkpt><trkpt lat="42.19186969883188" lon="11.858142561559866"><ele>134.0</ele><time>2026-04-18T14:18:12.002Z</time></trkpt><trkpt lat="42.19194221052569" lon="11.858222392712566"><ele>134.0</ele><time>2026-04-18T14:18:13.002Z</time></trkpt><trkpt lat="42.19201420750864" lon="11.85830517827559"><ele>134.0</ele><time>2026-04-18T14:18:14.002Z</time></trkpt><trkpt lat="42.19209778278985" lon="11.858399269772049"><ele>134.0</ele><time>2026-04-18T14:18:15.002Z</time></trkpt><trkpt lat="42.192175443482164" lon="11.858483238898636"><ele>134.0</ele><time>2026-04-18T14:18:16.002Z</time></trkpt><trkpt lat="42.1922551897791" lon="11.858561499787903"><ele>134.0</ele><time>2026-04-18T14:18:17.002Z</time></trkpt><trkpt lat="42.19230914566693" lon="11.85866481195008"><ele>134.16666666666666</ele><time>2026-04-18T14:18:18.002Z</time></trkpt><trkpt lat="42.19237472273709" lon="11.858748416143348"><ele>134.33333333333331</ele><time>2026-04-18T14:18:19.002Z</time></trkpt><trkpt lat="42.19243604590233" lon="11.858818448423188"><ele>134.5</ele><time>2026-04-18T14:18:20.001Z</time></trkpt><trkpt lat="42.19249365576294" lon="11.858880484988628"><ele>134.66666666666666</ele><time>2026-04-18T14:18:21.001Z</time></trkpt><trkpt lat="42.19255416806614" lon="11.858944907372285"><ele>134.83333333333334</ele><time>2026-04-18T14:18:22.001Z</time></trkpt><trkpt lat="42.19261709932021" lon="11.859013956549315"><ele>135.0</ele><time>2026-04-18T14:18:23.001Z</time></trkpt><trkpt lat="42.19267454092536" lon="11.859049152417372"><ele>135.0</ele><time>2026-04-18T14:18:24.001Z</time></trkpt><trkpt lat="42.192713222526876" lon="11.859123323116313"><ele>135.0</ele><time>2026-04-18T14:18:25.001Z</time></trkpt><trkpt lat="42.19276323542687" lon="11.859191761825368"><ele>135.0</ele><time>2026-04-18T14:18:27.001Z</time></trkpt><trkpt lat="42.19291496408133" lon="11.85908709212602"><ele>135.0</ele><time>2026-04-18T14:18:29.001Z</time></trkpt><trkpt lat="42.19298427232884" lon="11.858985465805972"><ele>135.0</ele><time>2026-04-18T14:18:31.001Z</time></trkpt><trkpt lat="42.193038199495355" lon="11.858853997680301"><ele>135.0</ele><time>2026-04-18T14:18:33.001Z</time></trkpt><trkpt lat="42.19307655547304" lon="11.85873630732472"><ele>135.0</ele><time>2026-04-18T14:18:35.001Z</time></trkpt><trkpt lat="42.19304151464274" lon="11.858603853575888"><ele>135.0</ele><time>2026-04-18T14:18:37.001Z</time></trkpt><trkpt lat="42.192993090524986" lon="11.858538945118683"><ele>135.0</ele><time>2026-04-18T14:18:38.001Z</time></trkpt><trkpt lat="42.192934842308574" lon="11.858493642171684"><ele>135.0</ele><time>2026-04-18T14:18:39.001Z</time></trkpt><trkpt lat="42.19287737468079" lon="11.85843260905104"><ele>135.0</ele><time>2026-04-18T14:18:40.001Z</time></trkpt><trkpt lat="42.19280913397174" lon="11.858365460217374"><ele>133.85714285714286</ele><time>2026-04-18T14:18:41.001Z</time></trkpt><trkpt lat="42.1927481671568" lon="11.858306985531378"><ele>132.7142857142857</ele><time>2026-04-18T14:18:42.001Z</time></trkpt><trkpt lat="42.19268932063237" lon="11.858256182651635"><ele>131.57142857142856</ele><time>2026-04-18T14:18:43.001Z</time></trkpt><trkpt lat="42.19262299694811" lon="11.858193209783181"><ele>130.42857142857142</ele><time>2026-04-18T14:18:44.001Z</time></trkpt><trkpt lat="42.192555098423725" lon="11.858126423726995"><ele>129.28571428571428</ele><time>2026-04-18T14:18:45.001Z</time></trkpt><trkpt lat="42.192499439852845" lon="11.858070640192832"><ele>128.14285714285714</ele><time>2026-04-18T14:18:46.001Z</time></trkpt><trkpt lat="42.192445373623016" lon="11.858022437932046"><ele>127.0</ele><time>2026-04-18T14:18:47.001Z</time></trkpt><trkpt lat="42.19237532802466" lon="11.857959996621137"><ele>126.39999999999999</ele><time>2026-04-18T14:18:48.001Z</time></trkpt><trkpt lat="42.192299155222216" lon="11.857874048619067"><ele>125.79999999999998</ele><time>2026-04-18T14:18:49.001Z</time></trkpt><trkpt lat="42.19221862402394" lon="11.857787001639242"><ele>125.2</ele><time>2026-04-18T14:18:50.001Z</time></trkpt><trkpt lat="42.19215331605332" lon="11.857709748118126"><ele>124.6</ele><time>2026-04-18T14:18:51.001Z</time></trkpt><trkpt lat="42.19208206661482" lon="11.857638821957815"><ele>124.0</ele><time>2026-04-18T14:18:52.001Z</time></trkpt><trkpt lat="42.19200582077263" lon="11.857554346638292"><ele>124.0</ele><time>2026-04-18T14:18:53.001Z</time></trkpt><trkpt lat="42.19194442531904" lon="11.857455280958558"><ele>124.0</ele><time>2026-04-18T14:18:54.001Z</time></trkpt><trkpt lat="42.191880881210395" lon="11.85733057776388"><ele>124.0</ele><time>2026-04-18T14:18:55.001Z</time></trkpt><trkpt lat="42.191815187115544" lon="11.857197100389836"><ele>124.0</ele><time>2026-04-18T14:18:56.001Z</time></trkpt><trkpt lat="42.191752605971416" lon="11.857068840917604"><ele>124.0</ele><time>2026-04-18T14:18:57.001Z</time></trkpt><trkpt lat="42.19171202092001" lon="11.856942579777796"><ele>124.0</ele><time>2026-04-18T14:18:58.001Z</time></trkpt><trkpt lat="42.1916538266346" lon="11.856825960369058"><ele>124.0</ele><time>2026-04-18T14:18:59.001Z</time></trkpt><trkpt lat="42.19157664482799" lon="11.856713623766895"><ele>124.0</ele><time>2026-04-18T14:19:00.001Z</time></trkpt><trkpt lat="42.191519456989326" lon="11.856581318653914"><ele>124.0</ele><time>2026-04-18T14:19:01.001Z</time></trkpt><trkpt lat="42.19144680192493" lon="11.856447917002354"><ele>122.25</ele><time>2026-04-18T14:19:02.001Z</time></trkpt><trkpt lat="42.1913831701577" lon="11.856294944248756"><ele>120.5</ele><time>2026-04-18T14:19:03.001Z</time></trkpt><trkpt lat="42.191329212262744" lon="11.85613278273827"><ele>118.75</ele><time>2026-04-18T14:19:04.001Z</time></trkpt><trkpt lat="42.191312009807085" lon="11.855972531885682"><ele>117.0</ele><time>2026-04-18T14:19:05.001Z</time></trkpt><trkpt lat="42.19129377058191" lon="11.85581102322239"><ele>115.5</ele><time>2026-04-18T14:19:06.001Z</time></trkpt><trkpt lat="42.19128882585263" lon="11.855624318256098"><ele>114.0</ele><time>2026-04-18T14:19:07.001Z</time></trkpt><trkpt lat="42.1912666682156" lon="11.855445040199433"><ele>112.5</ele><time>2026-04-18T14:19:08.001Z</time></trkpt><trkpt lat="42.191258660073956" lon="11.855273302358702"><ele>111.0</ele><time>2026-04-18T14:19:09.001Z</time></trkpt><trkpt lat="42.19124930949312" lon="11.855107309469105"><ele>110.75</ele><time>2026-04-18T14:19:10.001Z</time></trkpt><trkpt lat="42.19123195581296" lon="11.854963029433039"><ele>110.5</ele><time>2026-04-18T14:19:11.001Z</time></trkpt><trkpt lat="42.19121753481861" lon="11.854824594518185"><ele>110.25</ele><time>2026-04-18T14:19:12.001Z</time></trkpt><trkpt lat="42.19116666947787" lon="11.854678761016682"><ele>110.0</ele><time>2026-04-18T14:19:13.001Z</time></trkpt><trkpt lat="42.19106970944415" lon="11.85455924133887"><ele>110.0</ele><time>2026-04-18T14:19:14.001Z</time></trkpt><trkpt lat="42.19098426337369" lon="11.854414699094653"><ele>110.0</ele><time>2026-04-18T14:19:15.001Z</time></trkpt><trkpt lat="42.190860521677685" lon="11.854291309855789"><ele>110.0</ele><time>2026-04-18T14:19:16.001Z</time></trkpt><trkpt lat="42.19074734903237" lon="11.854161387481417"><ele>110.0</ele><time>2026-04-18T14:19:17.001Z</time></trkpt><trkpt lat="42.19065200867091" lon="11.854036381191115"><ele>108.0</ele><time>2026-04-18T14:19:18.001Z</time></trkpt><trkpt lat="42.19055472222944" lon="11.85392703078096"><ele>106.0</ele><time>2026-04-18T14:19:19.001Z</time></trkpt><trkpt lat="42.19045737937319" lon="11.853817760157654"><ele>104.0</ele><time>2026-04-18T14:19:20.001Z</time></trkpt><trkpt lat="42.1903686302712" lon="11.853706805075845"><ele>102.0</ele><time>2026-04-18T14:19:21.001Z</time></trkpt><trkpt lat="42.19028253601852" lon="11.853576848092258"><ele>101.75</ele><time>2026-04-18T14:19:22.001Z</time></trkpt><trkpt lat="42.19022087168225" lon="11.853413085075157"><ele>101.5</ele><time>2026-04-18T14:19:23.001Z</time></trkpt><trkpt lat="42.19013446348653" lon="11.853245218584464"><ele>101.25</ele><time>2026-04-18T14:19:24.001Z</time></trkpt><trkpt lat="42.190059372788205" lon="11.853062182107653"><ele>101.0</ele><time>2026-04-18T14:19:25.001Z</time></trkpt><trkpt lat="42.189996955809505" lon="11.852887135190949"><ele>101.0</ele><time>2026-04-18T14:19:26.001Z</time></trkpt><trkpt lat="42.18995717588729" lon="11.852725909223727"><ele>101.0</ele><time>2026-04-18T14:19:27.001Z</time></trkpt><trkpt lat="42.18990662573573" lon="11.852572953943557"><ele>101.0</ele><time>2026-04-18T14:19:28.001Z</time></trkpt><trkpt lat="42.18987015267653" lon="11.852441535497125"><ele>101.0</ele><time>2026-04-18T14:19:29.001Z</time></trkpt><trkpt lat="42.18984219818677" lon="11.852308014416716"><ele>99.5</ele><time>2026-04-18T14:19:30.001Z</time></trkpt><trkpt lat="42.18983076445846" lon="11.852153142829902"><ele>98.0</ele><time>2026-04-18T14:19:31.001Z</time></trkpt><trkpt lat="42.18980484287766" lon="11.851982380690401"><ele>96.5</ele><time>2026-04-18T14:19:32.001Z</time></trkpt><trkpt lat="42.189812034136615" lon="11.851821805628893"><ele>95.0</ele><time>2026-04-18T14:19:33.001Z</time></trkpt><trkpt lat="42.18980550451314" lon="11.851667311467214"><ele>94.0</ele><time>2026-04-18T14:19:34.001Z</time></trkpt><trkpt lat="42.18979979302036" lon="11.85152567456927"><ele>93.0</ele><time>2026-04-18T14:19:35.001Z</time></trkpt><trkpt lat="42.18977836948827" lon="11.851386514321128"><ele>92.0</ele><time>2026-04-18T14:19:36.001Z</time></trkpt><trkpt lat="42.18977747118469" lon="11.851238743178829"><ele>91.0</ele><time>2026-04-18T14:19:37.001Z</time></trkpt><trkpt lat="42.18977183763075" lon="11.851106460482834"><ele>90.0</ele><time>2026-04-18T14:19:38.001Z</time></trkpt><trkpt lat="42.18975250142157" lon="11.850984625451282"><ele>88.8</ele><time>2026-04-18T14:19:39.001Z</time></trkpt><trkpt lat="42.189746072125025" lon="11.85085443235885"><ele>87.6</ele><time>2026-04-18T14:19:40.001Z</time></trkpt><trkpt lat="42.189715968656515" lon="11.850740182311576"><ele>86.4</ele><time>2026-04-18T14:19:41.001Z</time></trkpt><trkpt lat="42.189674922659385" lon="11.850630889936513"><ele>85.2</ele><time>2026-04-18T14:19:42.001Z</time></trkpt><trkpt lat="42.1896207540862" lon="11.85053879644949"><ele>84.0</ele><time>2026-04-18T14:19:43.001Z</time></trkpt><trkpt lat="42.18954210390251" lon="11.850453560124322"><ele>84.0</ele><time>2026-04-18T14:19:44.001Z</time></trkpt><trkpt lat="42.1894614862095" lon="11.850374318216735"><ele>84.0</ele><time>2026-04-18T14:19:45.001Z</time></trkpt><trkpt lat="42.189393809489985" lon="11.850302762167813"><ele>84.0</ele><time>2026-04-18T14:19:46.001Z</time></trkpt><trkpt lat="42.18933743648883" lon="11.85022418215341"><ele>84.0</ele><time>2026-04-18T14:19:47.001Z</time></trkpt><trkpt lat="42.1892919031256" lon="11.850142403128883"><ele>84.0</ele><time>2026-04-18T14:19:48.001Z</time></trkpt><trkpt lat="42.189272962055774" lon="11.850045962504316"><ele>84.0</ele><time>2026-04-18T14:19:49.001Z</time></trkpt><trkpt lat="42.18928465489692" lon="11.849944994919747"><ele>83.5</ele><time>2026-04-18T14:19:50.001Z</time></trkpt><trkpt lat="42.1893017617722" lon="11.849849818414159"><ele>83.0</ele><time>2026-04-18T14:19:51.001Z</time></trkpt><trkpt lat="42.18932202269286" lon="11.849765749903401"><ele>82.5</ele><time>2026-04-18T14:19:52.001Z</time></trkpt><trkpt lat="42.18937236691928" lon="11.84960208101279"><ele>82.0</ele><time>2026-04-18T14:19:54.001Z</time></trkpt><trkpt lat="42.18941463588655" lon="11.849523342975784"><ele>81.5</ele><time>2026-04-18T14:19:55.001Z</time></trkpt><trkpt lat="42.18947231896388" lon="11.849404808971663"><ele>81.0</ele><time>2026-04-18T14:19:56.001Z</time></trkpt><trkpt lat="42.18952348476646" lon="11.849270377566137"><ele>79.8</ele><time>2026-04-18T14:19:57.001Z</time></trkpt><trkpt lat="42.189559534461765" lon="11.849133308002836"><ele>78.6</ele><time>2026-04-18T14:19:58.001Z</time></trkpt><trkpt lat="42.18958077841327" lon="11.848996023099742"><ele>77.4</ele><time>2026-04-18T14:19:59.001Z</time></trkpt><trkpt lat="42.18959024116077" lon="11.848866271493993"><ele>76.2</ele><time>2026-04-18T14:20:00.001Z</time></trkpt><trkpt lat="42.189592103518265" lon="11.848730954340521"><ele>75.0</ele><time>2026-04-18T14:20:01.001Z</time></trkpt><trkpt lat="42.18956961656941" lon="11.848607988329869"><ele>75.0</ele><time>2026-04-18T14:20:02.001Z</time></trkpt><trkpt lat="42.18951747975675" lon="11.848497629611494"><ele>75.0</ele><time>2026-04-18T14:20:03.001Z</time></trkpt><trkpt lat="42.18945576044484" lon="11.848403978094666"><ele>75.0</ele><time>2026-04-18T14:20:04.001Z</time></trkpt><trkpt lat="42.189389651709426" lon="11.848309888404593"><ele>75.0</ele><time>2026-04-18T14:20:05.001Z</time></trkpt><trkpt lat="42.18933089345271" lon="11.848194432334287"><ele>75.0</ele><time>2026-04-18T14:20:06.001Z</time></trkpt><trkpt lat="42.18926436717494" lon="11.848090884546936"><ele>74.5</ele><time>2026-04-18T14:20:07.001Z</time></trkpt><trkpt lat="42.18920385272451" lon="11.847988391997257"><ele>74.0</ele><time>2026-04-18T14:20:08.001Z</time></trkpt><trkpt lat="42.18915736792196" lon="11.847902617911387"><ele>73.5</ele><time>2026-04-18T14:20:09.001Z</time></trkpt><trkpt lat="42.18911323685136" lon="11.847817345199056"><ele>73.0</ele><time>2026-04-18T14:20:10.001Z</time></trkpt><trkpt lat="42.189070837855674" lon="11.847745164069885"><ele>72.5</ele><time>2026-04-18T14:20:11.001Z</time></trkpt><trkpt lat="42.18902860385999" lon="11.847642849359358"><ele>72.0</ele><time>2026-04-18T14:20:12.001Z</time></trkpt><trkpt lat="42.18898247343896" lon="11.847555842171808"><ele>71.5</ele><time>2026-04-18T14:20:13.001Z</time></trkpt><trkpt lat="42.18892172143619" lon="11.847469743961021"><ele>71.0</ele><time>2026-04-18T14:20:14.001Z</time></trkpt><trkpt lat="42.18886220172124" lon="11.847395255680457"><ele>70.5</ele><time>2026-04-18T14:20:15.001Z</time></trkpt><trkpt lat="42.18881254907394" lon="11.847312684718883"><ele>70.0</ele><time>2026-04-18T14:20:16.001Z</time></trkpt><trkpt lat="42.188761868267164" lon="11.847243987868604"><ele>69.5</ele><time>2026-04-18T14:20:17.001Z</time></trkpt><trkpt lat="42.188714711052896" lon="11.847187093271023"><ele>69.0</ele><time>2026-04-18T14:20:18.001Z</time></trkpt><trkpt lat="42.18859470566437" lon="11.847096663532541"><ele>69.0</ele><time>2026-04-18T14:20:20.001Z</time></trkpt><trkpt lat="42.18851358345279" lon="11.846987222843024"><ele>69.0</ele><time>2026-04-18T14:20:22.001Z</time></trkpt><trkpt lat="42.188479713476376" lon="11.846852243946815"><ele>69.0</ele><time>2026-04-18T14:20:24.001Z</time></trkpt><trkpt lat="42.18846099030497" lon="11.846709572939622"><ele>69.0</ele><time>2026-04-18T14:20:26Z</time></trkpt><trkpt lat="42.188423955198196" lon="11.846610980425138"><ele>69.0</ele><time>2026-04-18T14:20:27Z</time></trkpt><trkpt lat="42.18839747995727" lon="11.846500761606277"><ele>68.4</ele><time>2026-04-18T14:20:28Z</time></trkpt><trkpt lat="42.18835997710087" lon="11.846425120437242"><ele>67.80000000000001</ele><time>2026-04-18T14:20:29Z</time></trkpt><trkpt lat="42.18831463417613" lon="11.846363672014517"><ele>67.19999999999999</ele><time>2026-04-18T14:20:30Z</time></trkpt><trkpt lat="42.188236214517275" lon="11.84622887268632"><ele>66.6</ele><time>2026-04-18T14:20:32Z</time></trkpt><trkpt lat="42.18820704436888" lon="11.846151496836088"><ele>66.0</ele><time>2026-04-18T14:20:33Z</time></trkpt><trkpt lat="42.18815729250773" lon="11.845981228729205"><ele>64.33333333333333</ele><time>2026-04-18T14:20:35Z</time></trkpt><trkpt lat="42.188127129026206" lon="11.845886041365576"><ele>62.66666666666667</ele><time>2026-04-18T14:20:36Z</time></trkpt><trkpt lat="42.18809002315763" lon="11.845800901399638"><ele>61.0</ele><time>2026-04-18T14:20:37Z</time></trkpt><trkpt lat="42.188048522298324" lon="11.845727399458498"><ele>59.333333333333336</ele><time>2026-04-18T14:20:38Z</time></trkpt><trkpt lat="42.187996502046374" lon="11.84565943759049"><ele>57.66666666666667</ele><time>2026-04-18T14:20:39Z</time></trkpt><trkpt lat="42.18793053055046" lon="11.845598438297785"><ele>56.0</ele><time>2026-04-18T14:20:40Z</time></trkpt><trkpt lat="42.18785451027091" lon="11.845534705252858"><ele>56.00000000000001</ele><time>2026-04-18T14:20:41Z</time></trkpt><trkpt lat="42.187783336340686" lon="11.845474997411204"><ele>56.0</ele><time>2026-04-18T14:20:42Z</time></trkpt><trkpt lat="42.18770544268366" lon="11.845403014979901"><ele>56.0</ele><time>2026-04-18T14:20:43Z</time></trkpt><trkpt lat="42.18763075434366" lon="11.845335720123524"><ele>56.0</ele><time>2026-04-18T14:20:44Z</time></trkpt><trkpt lat="42.1875852603454" lon="11.845242114021005"><ele>56.00000000000001</ele><time>2026-04-18T14:20:45Z</time></trkpt><trkpt lat="42.187525205785604" lon="11.845177536771784"><ele>56.0</ele><time>2026-04-18T14:20:46Z</time></trkpt><trkpt lat="42.187455897916976" lon="11.845104004310452"><ele>56.16666666666667</ele><time>2026-04-18T14:20:47Z</time></trkpt><trkpt lat="42.18738577481036" lon="11.845036258297084"><ele>56.333333333333336</ele><time>2026-04-18T14:20:48Z</time></trkpt><trkpt lat="42.187317517099686" lon="11.844970314354736"><ele>56.5</ele><time>2026-04-18T14:20:49Z</time></trkpt><trkpt lat="42.18724924133218" lon="11.844899862905617"><ele>56.66666666666667</ele><time>2026-04-18T14:20:50Z</time></trkpt><trkpt lat="42.187182427004046" lon="11.844821710283096"><ele>56.833333333333336</ele><time>2026-04-18T14:20:51Z</time></trkpt><trkpt lat="42.18711784446883" lon="11.844751502121053"><ele>57.0</ele><time>2026-04-18T14:20:52Z</time></trkpt><trkpt lat="42.18703728629393" lon="11.844686385982367"><ele>56.6</ele><time>2026-04-18T14:20:53Z</time></trkpt><trkpt lat="42.18695347429129" lon="11.84461693415937"><ele>56.2</ele><time>2026-04-18T14:20:54Z</time></trkpt><trkpt lat="42.1868791124599" lon="11.844550213678943"><ele>55.8</ele><time>2026-04-18T14:20:55Z</time></trkpt><trkpt lat="42.186801132483296" lon="11.844472127181813"><ele>55.4</ele><time>2026-04-18T14:20:56Z</time></trkpt><trkpt lat="42.186717865784516" lon="11.844405422156312"><ele>55.0</ele><time>2026-04-18T14:20:57Z</time></trkpt><trkpt lat="42.186654054850955" lon="11.844301542111078"><ele>54.8</ele><time>2026-04-18T14:20:58Z</time></trkpt><trkpt lat="42.186578239646494" lon="11.844227334529895"><ele>54.6</ele><time>2026-04-18T14:20:59Z</time></trkpt><trkpt lat="42.18649687723864" lon="11.84415375535125"><ele>54.400000000000006</ele><time>2026-04-18T14:21:00Z</time></trkpt><trkpt lat="42.186416868419165" lon="11.844077278972275"><ele>54.2</ele><time>2026-04-18T14:21:01Z</time></trkpt><trkpt lat="42.1863326236158" lon="11.843995561292825"><ele>54.0</ele><time>2026-04-18T14:21:02Z</time></trkpt><trkpt lat="42.18625835199526" lon="11.843900346474461"><ele>52.800000000000004</ele><time>2026-04-18T14:21:03Z</time></trkpt><trkpt lat="42.186159464668194" lon="11.843837418678685"><ele>51.60000000000001</ele><time>2026-04-18T14:21:04Z</time></trkpt><trkpt lat="42.18607406027527" lon="11.843751260699978"><ele>50.4</ele><time>2026-04-18T14:21:05Z</time></trkpt><trkpt lat="42.185991920855564" lon="11.843660185637647"><ele>49.2</ele><time>2026-04-18T14:21:06Z</time></trkpt><trkpt lat="42.18591230669863" lon="11.843562643290497"><ele>48.0</ele><time>2026-04-18T14:21:07.001Z</time></trkpt><trkpt lat="42.185853235804665" lon="11.843439848043836"><ele>48.0</ele><time>2026-04-18T14:21:08.001Z</time></trkpt><trkpt lat="42.185787051431156" lon="11.843335759439645"><ele>48.0</ele><time>2026-04-18T14:21:09.001Z</time></trkpt><trkpt lat="42.18572642968358" lon="11.843227185413987"><ele>48.0</ele><time>2026-04-18T14:21:10.001Z</time></trkpt><trkpt lat="42.18567695753028" lon="11.843106155601486"><ele>48.0</ele><time>2026-04-18T14:21:11.001Z</time></trkpt><trkpt lat="42.18564155139122" lon="11.84297429912193"><ele>48.0</ele><time>2026-04-18T14:21:12.001Z</time></trkpt><trkpt lat="42.18561959252259" lon="11.842835402291126"><ele>47.8</ele><time>2026-04-18T14:21:13.001Z</time></trkpt><trkpt lat="42.185606407402055" lon="11.842692808516842"><ele>47.599999999999994</ele><time>2026-04-18T14:21:14.001Z</time></trkpt><trkpt lat="42.18561637894239" lon="11.842553021129042"><ele>47.400000000000006</ele><time>2026-04-18T14:21:15.001Z</time></trkpt><trkpt lat="42.18563777914108" lon="11.842413285926305"><ele>47.2</ele><time>2026-04-18T14:21:16.001Z</time></trkpt><trkpt lat="42.18565356100607" lon="11.84226206265249"><ele>47.0</ele><time>2026-04-18T14:21:17.001Z</time></trkpt><trkpt lat="42.185689124523286" lon="11.842113039989682"><ele>47.0</ele><time>2026-04-18T14:21:18.001Z</time></trkpt><trkpt lat="42.1857104737778" lon="11.841950139840899"><ele>47.0</ele><time>2026-04-18T14:21:19.001Z</time></trkpt><trkpt lat="42.18572762604049" lon="11.841785951561716"><ele>47.0</ele><time>2026-04-18T14:21:20.001Z</time></trkpt><trkpt lat="42.18575581204887" lon="11.841633989997032"><ele>47.0</ele><time>2026-04-18T14:21:21.001Z</time></trkpt><trkpt lat="42.185775201723665" lon="11.841482631297282"><ele>46.2</ele><time>2026-04-18T14:21:22.001Z</time></trkpt><trkpt lat="42.185791494193126" lon="11.841337390707213"><ele>45.400000000000006</ele><time>2026-04-18T14:21:23.001Z</time></trkpt><trkpt lat="42.185811317193874" lon="11.841189950448147"><ele>44.599999999999994</ele><time>2026-04-18T14:21:24.001Z</time></trkpt><trkpt lat="42.185825409786055" lon="11.841066677892746"><ele>43.8</ele><time>2026-04-18T14:21:25.001Z</time></trkpt><trkpt lat="42.18584252382691" lon="11.840959404579252"><ele>43.0</ele><time>2026-04-18T14:21:26.001Z</time></trkpt><trkpt lat="42.18585797700637" lon="11.84086139541369"><ele>42.4</ele><time>2026-04-18T14:21:27.001Z</time></trkpt><trkpt lat="42.18587415941386" lon="11.840761614075294"><ele>41.8</ele><time>2026-04-18T14:21:28.001Z</time></trkpt><trkpt lat="42.185890075346094" lon="11.840654243644682"><ele>41.2</ele><time>2026-04-18T14:21:29.001Z</time></trkpt><trkpt lat="42.1859013829888" lon="11.840539141162429"><ele>40.6</ele><time>2026-04-18T14:21:30.001Z</time></trkpt><trkpt lat="42.18591437387731" lon="11.840402668532505"><ele>40.0</ele><time>2026-04-18T14:21:31.001Z</time></trkpt><trkpt lat="42.185937841568155" lon="11.840251360905699"><ele>39.75</ele><time>2026-04-18T14:21:32.001Z</time></trkpt><trkpt lat="42.18596522050551" lon="11.840088236475289"><ele>39.5</ele><time>2026-04-18T14:21:33.001Z</time></trkpt><trkpt lat="42.185990431423285" lon="11.839922118471739"><ele>39.25</ele><time>2026-04-18T14:21:34.001Z</time></trkpt><trkpt lat="42.18601913691064" lon="11.83974521868505"><ele>39.0</ele><time>2026-04-18T14:21:35.001Z</time></trkpt><trkpt lat="42.186049327328135" lon="11.839575549606074"><ele>39.0</ele><time>2026-04-18T14:21:36.001Z</time></trkpt><trkpt lat="42.18608984783147" lon="11.839424380602837"><ele>39.0</ele><time>2026-04-18T14:21:37.001Z</time></trkpt><trkpt lat="42.18615704841487" lon="11.839290060678394"><ele>39.0</ele><time>2026-04-18T14:21:38.001Z</time></trkpt><trkpt lat="42.18621921767636" lon="11.839157905603543"><ele>39.0</ele><time>2026-04-18T14:21:39.001Z</time></trkpt><trkpt lat="42.18629152187967" lon="11.839043367573831"><ele>39.25</ele><time>2026-04-18T14:21:40.001Z</time></trkpt><trkpt lat="42.18637178450283" lon="11.838945849146917"><ele>39.5</ele><time>2026-04-18T14:21:41.001Z</time></trkpt><trkpt lat="42.18646244746172" lon="11.838850223139689"><ele>39.75</ele><time>2026-04-18T14:21:42.001Z</time></trkpt><trkpt lat="42.186564279584424" lon="11.838748832433254"><ele>40.0</ele><time>2026-04-18T14:21:43.001Z</time></trkpt><trkpt lat="42.18667509616475" lon="11.83864348658482"><ele>40.5</ele><time>2026-04-18T14:21:44.001Z</time></trkpt><trkpt lat="42.18677951815758" lon="11.838547070086411"><ele>41.0</ele><time>2026-04-18T14:21:45.001Z</time></trkpt><trkpt lat="42.186876461559145" lon="11.838440175095887"><ele>41.5</ele><time>2026-04-18T14:21:46.001Z</time></trkpt><trkpt lat="42.186998928837454" lon="11.838353254772835"><ele>42.0</ele><time>2026-04-18T14:21:47.001Z</time></trkpt><trkpt lat="42.18711427877898" lon="11.838218696089756"><ele>41.25</ele><time>2026-04-18T14:21:48.001Z</time></trkpt><trkpt lat="42.18725064800399" lon="11.838094970798348"><ele>40.5</ele><time>2026-04-18T14:21:49.001Z</time></trkpt><trkpt lat="42.18736712309968" lon="11.83797728184509"><ele>39.75</ele><time>2026-04-18T14:21:50.001Z</time></trkpt><trkpt lat="42.18748148113726" lon="11.837871203457212"><ele>39.0</ele><time>2026-04-18T14:21:51.001Z</time></trkpt><trkpt lat="42.18758622033927" lon="11.837778655808073"><ele>39.0</ele><time>2026-04-18T14:21:52.001Z</time></trkpt><trkpt lat="42.18768131612001" lon="11.83769349493719"><ele>39.0</ele><time>2026-04-18T14:21:53.001Z</time></trkpt><trkpt lat="42.18777420698702" lon="11.837610410560883"><ele>39.0</ele><time>2026-04-18T14:21:54.001Z</time></trkpt><trkpt lat="42.18786199444596" lon="11.837531014975351"><ele>39.0</ele><time>2026-04-18T14:21:55.001Z</time></trkpt><trkpt lat="42.187937216120154" lon="11.837454559419346"><ele>39.0</ele><time>2026-04-18T14:21:56.001Z</time></trkpt><trkpt lat="42.18800184603988" lon="11.837369476226604"><ele>38.75</ele><time>2026-04-18T14:21:57.001Z</time></trkpt><trkpt lat="42.188062481913725" lon="11.837259403276443"><ele>38.5</ele><time>2026-04-18T14:21:58.001Z</time></trkpt><trkpt lat="42.188119269052386" lon="11.837137144725864"><ele>38.25</ele><time>2026-04-18T14:21:59.001Z</time></trkpt><trkpt lat="42.188128868601304" lon="11.83696023362913"><ele>38.0</ele><time>2026-04-18T14:22:00.001Z</time></trkpt><trkpt lat="42.18812956406275" lon="11.83679168400019"><ele>37.75</ele><time>2026-04-18T14:22:01.001Z</time></trkpt><trkpt lat="42.188103051578395" lon="11.836642083849966"><ele>37.5</ele><time>2026-04-18T14:22:02.001Z</time></trkpt><trkpt lat="42.188052287128095" lon="11.836488289235698"><ele>37.25</ele><time>2026-04-18T14:22:03.001Z</time></trkpt><trkpt lat="42.18797603115305" lon="11.836340083682556"><ele>37.0</ele><time>2026-04-18T14:22:04.001Z</time></trkpt><trkpt lat="42.18787501576247" lon="11.836177145798109"><ele>37.0</ele><time>2026-04-18T14:22:05.001Z</time></trkpt><trkpt lat="42.18778583740448" lon="11.835977426934727"><ele>37.0</ele><time>2026-04-18T14:22:06.001Z</time></trkpt><trkpt lat="42.18767210593244" lon="11.835804972412257"><ele>37.0</ele><time>2026-04-18T14:22:07.001Z</time></trkpt><trkpt lat="42.18759469841784" lon="11.835653048043515"><ele>36.333333333333336</ele><time>2026-04-18T14:22:08.001Z</time></trkpt><trkpt lat="42.187500671372476" lon="11.835489565260621"><ele>35.666666666666664</ele><time>2026-04-18T14:22:09.001Z</time></trkpt><trkpt lat="42.18740459666237" lon="11.835328521686911"><ele>35.0</ele><time>2026-04-18T14:22:10.001Z</time></trkpt><trkpt lat="42.187324729207845" lon="11.835151918851095"><ele>36.0</ele><time>2026-04-18T14:22:11.001Z</time></trkpt><trkpt lat="42.18722492892408" lon="11.8350068869611"><ele>37.0</ele><time>2026-04-18T14:22:12.001Z</time></trkpt><trkpt lat="42.18714618264468" lon="11.834840847629197"><ele>38.0</ele><time>2026-04-18T14:22:13.001Z</time></trkpt><trkpt lat="42.18706108285299" lon="11.8346840229215"><ele>39.0</ele><time>2026-04-18T14:22:14.001Z</time></trkpt><trkpt lat="42.18698359783249" lon="11.834540269257719"><ele>39.0</ele><time>2026-04-18T14:22:15.001Z</time></trkpt><trkpt lat="42.18690314589025" lon="11.834399318366032"><ele>39.0</ele><time>2026-04-18T14:22:16.001Z</time></trkpt><trkpt lat="42.18680486882597" lon="11.834240799255557"><ele>39.0</ele><time>2026-04-18T14:22:17.001Z</time></trkpt><trkpt lat="42.18670868793553" lon="11.83407373037516"><ele>39.0</ele><time>2026-04-18T14:22:18.001Z</time></trkpt><trkpt lat="42.1866101588535" lon="11.833891003012752"><ele>38.666666666666664</ele><time>2026-04-18T14:22:19.001Z</time></trkpt><trkpt lat="42.18650310982095" lon="11.833699558951947"><ele>38.33333333333333</ele><time>2026-04-18T14:22:20.001Z</time></trkpt><trkpt lat="42.18639314740113" lon="11.833513151767002"><ele>38.0</ele><time>2026-04-18T14:22:21.001Z</time></trkpt><trkpt lat="42.18629321496086" lon="11.83333970014748"><ele>38.0</ele><time>2026-04-18T14:22:22.001Z</time></trkpt><trkpt lat="42.18620843204987" lon="11.83318416010393"><ele>38.0</ele><time>2026-04-18T14:22:23.001Z</time></trkpt><trkpt lat="42.18613252309349" lon="11.833034622458767"><ele>38.0</ele><time>2026-04-18T14:22:24.001Z</time></trkpt><trkpt lat="42.186049942876615" lon="11.832887500712356"><ele>38.0</ele><time>2026-04-18T14:22:25.001Z</time></trkpt><trkpt lat="42.185969892083264" lon="11.832746175792833"><ele>37.25</ele><time>2026-04-18T14:22:26.001Z</time></trkpt><trkpt lat="42.18589120891904" lon="11.83260047965573"><ele>36.5</ele><time>2026-04-18T14:22:27.001Z</time></trkpt><trkpt lat="42.185807660307304" lon="11.83245143030694"><ele>35.75</ele><time>2026-04-18T14:22:28.001Z</time></trkpt><trkpt lat="42.18571570667419" lon="11.83228573224859"><ele>35.0</ele><time>2026-04-18T14:22:29.001Z</time></trkpt><trkpt lat="42.185620527046595" lon="11.83211568315785"><ele>37.0</ele><time>2026-04-18T14:22:30.001Z</time></trkpt><trkpt lat="42.18551563672651" lon="11.831932482125701"><ele>39.0</ele><time>2026-04-18T14:22:31.001Z</time></trkpt><trkpt lat="42.18541109167226" lon="11.831744668136567"><ele>41.0</ele><time>2026-04-18T14:22:32Z</time></trkpt><trkpt lat="42.18530250924892" lon="11.831547857479974"><ele>41.0</ele><time>2026-04-18T14:22:33Z</time></trkpt><trkpt lat="42.18520794654612" lon="11.831374921812548"><ele>41.0</ele><time>2026-04-18T14:22:34Z</time></trkpt><trkpt lat="42.185127968266364" lon="11.831214882523007"><ele>41.0</ele><time>2026-04-18T14:22:35Z</time></trkpt><trkpt lat="42.18505846660661" lon="11.831075749344539"><ele>41.0</ele><time>2026-04-18T14:22:36Z</time></trkpt><trkpt lat="42.184978949781225" lon="11.830940049184044"><ele>42.0</ele><time>2026-04-18T14:22:37Z</time></trkpt><trkpt lat="42.18491544100048" lon="11.830808610180412"><ele>43.0</ele><time>2026-04-18T14:22:38Z</time></trkpt><trkpt lat="42.18488431372729" lon="11.830664964707292"><ele>44.0</ele><time>2026-04-18T14:22:39Z</time></trkpt><trkpt lat="42.18484470093155" lon="11.830528099723693"><ele>45.0</ele><time>2026-04-18T14:22:40Z</time></trkpt><trkpt lat="42.18482520710376" lon="11.830400862627528"><ele>46.0</ele><time>2026-04-18T14:22:41Z</time></trkpt><trkpt lat="42.18480488977531" lon="11.830261007721191"><ele>44.0</ele><time>2026-04-18T14:22:42Z</time></trkpt><trkpt lat="42.18478649962185" lon="11.830091412751317"><ele>42.0</ele><time>2026-04-18T14:22:43Z</time></trkpt><trkpt lat="42.18479319341478" lon="11.829901720128133"><ele>40.0</ele><time>2026-04-18T14:22:44Z</time></trkpt><trkpt lat="42.18479438069622" lon="11.829691406424134"><ele>38.0</ele><time>2026-04-18T14:22:45Z</time></trkpt><trkpt lat="42.18479175535033" lon="11.82947328969648"><ele>37.33333333333333</ele><time>2026-04-18T14:22:46Z</time></trkpt><trkpt lat="42.18478772414422" lon="11.829234599413246"><ele>36.666666666666664</ele><time>2026-04-18T14:22:47Z</time></trkpt><trkpt lat="42.18478249359533" lon="11.828975465230517"><ele>36.0</ele><time>2026-04-18T14:22:48Z</time></trkpt><trkpt lat="42.18478109183374" lon="11.828706458104032"><ele>35.666666666666664</ele><time>2026-04-18T14:22:49Z</time></trkpt><trkpt lat="42.18477998410116" lon="11.828432125181038"><ele>35.33333333333333</ele><time>2026-04-18T14:22:50Z</time></trkpt><trkpt lat="42.184778386372116" lon="11.828146567899974"><ele>35.0</ele><time>2026-04-18T14:22:51Z</time></trkpt><trkpt lat="42.184778710957545" lon="11.827857520683692"><ele>35.33333333333333</ele><time>2026-04-18T14:22:52Z</time></trkpt><trkpt lat="42.1847794931651" lon="11.82758780817583"><ele>35.666666666666664</ele><time>2026-04-18T14:22:53Z</time></trkpt><trkpt lat="42.18478061235269" lon="11.827342205498802"><ele>36.0</ele><time>2026-04-18T14:22:54Z</time></trkpt><trkpt lat="42.18477818700043" lon="11.827113551971093"><ele>36.0</ele><time>2026-04-18T14:22:55Z</time></trkpt><trkpt lat="42.18477478063146" lon="11.826887207711357"><ele>36.0</ele><time>2026-04-18T14:22:56Z</time></trkpt><trkpt lat="42.18477487469615" lon="11.826656387501622"><ele>36.0</ele><time>2026-04-18T14:22:57Z</time></trkpt><trkpt lat="42.184774043947435" lon="11.826416980057669"><ele>37.0</ele><time>2026-04-18T14:22:58Z</time></trkpt><trkpt lat="42.18477155519025" lon="11.82618040335954"><ele>38.0</ele><time>2026-04-18T14:22:59Z</time></trkpt><trkpt lat="42.184772841921735" lon="11.825943395022179"><ele>39.0</ele><time>2026-04-18T14:23:00Z</time></trkpt><trkpt lat="42.184772948485985" lon="11.82570653882043"><ele>41.0</ele><time>2026-04-18T14:23:01Z</time></trkpt><trkpt lat="42.184770333878106" lon="11.825474756633636"><ele>43.0</ele><time>2026-04-18T14:23:02Z</time></trkpt><trkpt lat="42.18476814038561" lon="11.825236939211342"><ele>45.0</ele><time>2026-04-18T14:23:03Z</time></trkpt><trkpt lat="42.18476801203398" lon="11.824998235682308"><ele>45.333333333333336</ele><time>2026-04-18T14:23:04Z</time></trkpt><trkpt lat="42.184767808031594" lon="11.824754347848055"><ele>45.66666666666667</ele><time>2026-04-18T14:23:05Z</time></trkpt><trkpt lat="42.18476647253042" lon="11.82451696627722"><ele>46.0</ele><time>2026-04-18T14:23:06Z</time></trkpt><trkpt lat="42.18476522164988" lon="11.824272991701276"><ele>45.333333333333336</ele><time>2026-04-18T14:23:07Z</time></trkpt><trkpt lat="42.184771018359754" lon="11.824024464652323"><ele>44.666666666666664</ele><time>2026-04-18T14:23:08Z</time></trkpt><trkpt lat="42.18476700211087" lon="11.823781969753377"><ele>44.0</ele><time>2026-04-18T14:23:09Z</time></trkpt><trkpt lat="42.184761146427206" lon="11.823528714955312"><ele>42.0</ele><time>2026-04-18T14:23:10Z</time></trkpt><trkpt lat="42.18475637385296" lon="11.82327693740202"><ele>40.0</ele><time>2026-04-18T14:23:11Z</time></trkpt><trkpt lat="42.18475234152802" lon="11.823024272642822"><ele>38.0</ele><time>2026-04-18T14:23:12Z</time></trkpt><trkpt lat="42.18474751672838" lon="11.822769701023844"><ele>35.33333333333333</ele><time>2026-04-18T14:23:13Z</time></trkpt><trkpt lat="42.18474844337528" lon="11.822541656474279"><ele>32.666666666666664</ele><time>2026-04-18T14:23:14Z</time></trkpt><trkpt lat="42.18475035446273" lon="11.822328333454127"><ele>30.0</ele><time>2026-04-18T14:23:15Z</time></trkpt><trkpt lat="42.18475455989476" lon="11.822124101125851"><ele>30.0</ele><time>2026-04-18T14:23:16Z</time></trkpt><trkpt lat="42.18476756340056" lon="11.821935390821187"><ele>30.0</ele><time>2026-04-18T14:23:17Z</time></trkpt><trkpt lat="42.18480908032812" lon="11.821759293370523"><ele>30.0</ele><time>2026-04-18T14:23:18Z</time></trkpt><trkpt lat="42.1848757058242" lon="11.821607468394465"><ele>30.0</ele><time>2026-04-18T14:23:19Z</time></trkpt><trkpt lat="42.18497124281456" lon="11.821455671274105"><ele>28.333333333333336</ele><time>2026-04-18T14:23:20Z</time></trkpt><trkpt lat="42.18509115040357" lon="11.821340122030488"><ele>26.666666666666668</ele><time>2026-04-18T14:23:21Z</time></trkpt><trkpt lat="42.185227646763764" lon="11.821242360823955"><ele>25.0</ele><time>2026-04-18T14:23:22.001Z</time></trkpt><trkpt lat="42.18538159571923" lon="11.821151944930222"><ele>25.0</ele><time>2026-04-18T14:23:23.001Z</time></trkpt><trkpt lat="42.18554803876174" lon="11.821031160385154"><ele>25.0</ele><time>2026-04-18T14:23:24.001Z</time></trkpt><trkpt lat="42.18571716637325" lon="11.82092959479185"><ele>25.0</ele><time>2026-04-18T14:23:25.001Z</time></trkpt><trkpt lat="42.185881826737685" lon="11.82082782249319"><ele>24.333333333333336</ele><time>2026-04-18T14:23:26.001Z</time></trkpt><trkpt lat="42.18605967113071" lon="11.820718164985578"><ele>23.666666666666668</ele><time>2026-04-18T14:23:27.001Z</time></trkpt><trkpt lat="42.18623318996825" lon="11.820609924394404"><ele>23.0</ele><time>2026-04-18T14:23:28.001Z</time></trkpt><trkpt lat="42.186426415807404" lon="11.820492856806943"><ele>23.666666666666668</ele><time>2026-04-18T14:23:29.001Z</time></trkpt><trkpt lat="42.18655838378142" lon="11.820395426328542"><ele>24.333333333333336</ele><time>2026-04-18T14:23:30.001Z</time></trkpt><trkpt lat="42.18670354735398" lon="11.820305784466555"><ele>25.0</ele><time>2026-04-18T14:23:31.001Z</time></trkpt><trkpt lat="42.186847627120734" lon="11.820216821267628"><ele>24.333333333333336</ele><time>2026-04-18T14:23:32.001Z</time></trkpt><trkpt lat="42.186997435651435" lon="11.8201245111092"><ele>23.666666666666668</ele><time>2026-04-18T14:23:33.001Z</time></trkpt><trkpt lat="42.18715711251314" lon="11.820023388590728"><ele>23.0</ele><time>2026-04-18T14:23:34.001Z</time></trkpt><trkpt lat="42.18731399006938" lon="11.819931727003365"><ele>23.666666666666668</ele><time>2026-04-18T14:23:35.001Z</time></trkpt><trkpt lat="42.18747467751799" lon="11.819830928848008"><ele>24.333333333333336</ele><time>2026-04-18T14:23:36.001Z</time></trkpt><trkpt lat="42.18762184249772" lon="11.819735394058945"><ele>25.0</ele><time>2026-04-18T14:23:37.001Z</time></trkpt><trkpt lat="42.18775016819544" lon="11.819654316276324"><ele>25.0</ele><time>2026-04-18T14:23:38.001Z</time></trkpt><trkpt lat="42.18787701003022" lon="11.819592545248081"><ele>25.0</ele><time>2026-04-18T14:23:39.001Z</time></trkpt><trkpt lat="42.18800268306397" lon="11.819536600827957"><ele>25.0</ele><time>2026-04-18T14:23:40.001Z</time></trkpt><trkpt lat="42.188125158109216" lon="11.81942840893199"><ele>25.0</ele><time>2026-04-18T14:23:41.001Z</time></trkpt><trkpt lat="42.1882325496086" lon="11.819281404070244"><ele>25.666666666666668</ele><time>2026-04-18T14:23:42.001Z</time></trkpt><trkpt lat="42.18829470291591" lon="11.819096652686978"><ele>26.333333333333336</ele><time>2026-04-18T14:23:43.001Z</time></trkpt><trkpt lat="42.18831620722269" lon="11.818873302225894"><ele>27.0</ele><time>2026-04-18T14:23:44.001Z</time></trkpt><trkpt lat="42.1883009324104" lon="11.818628209612159"><ele>27.333333333333336</ele><time>2026-04-18T14:23:45.001Z</time></trkpt><trkpt lat="42.188283389752485" lon="11.818368919686158"><ele>27.666666666666668</ele><time>2026-04-18T14:23:46.001Z</time></trkpt><trkpt lat="42.18828188244245" lon="11.81808640684166"><ele>28.0</ele><time>2026-04-18T14:23:47.001Z</time></trkpt><trkpt lat="42.188283399704034" lon="11.817791272997987"><ele>27.666666666666668</ele><time>2026-04-18T14:23:48.001Z</time></trkpt><trkpt lat="42.18828200129856" lon="11.817505779848553"><ele>27.333333333333336</ele><time>2026-04-18T14:23:49.001Z</time></trkpt><trkpt lat="42.18828415787871" lon="11.81724800009746"><ele>27.0</ele><time>2026-04-18T14:23:50.001Z</time></trkpt><trkpt lat="42.18828456243242" lon="11.817007777109765"><ele>26.666666666666664</ele><time>2026-04-18T14:23:51.001Z</time></trkpt><trkpt lat="42.1882853065846" lon="11.816764479976275"><ele>26.333333333333332</ele><time>2026-04-18T14:23:52.001Z</time></trkpt><trkpt lat="42.18828558011296" lon="11.81651321925867"><ele>26.0</ele><time>2026-04-18T14:23:53.001Z</time></trkpt><trkpt lat="42.188287311192624" lon="11.816268326658232"><ele>26.0</ele><time>2026-04-18T14:23:54.001Z</time></trkpt><trkpt lat="42.18828706329668" lon="11.816026433233697"><ele>26.0</ele><time>2026-04-18T14:23:55.001Z</time></trkpt><trkpt lat="42.188283983462675" lon="11.815798873693122"><ele>26.0</ele><time>2026-04-18T14:23:56.001Z</time></trkpt><trkpt lat="42.18827912213012" lon="11.815573820232824"><ele>25.666666666666664</ele><time>2026-04-18T14:23:57.001Z</time></trkpt><trkpt lat="42.188258533886454" lon="11.815337659308565"><ele>25.333333333333336</ele><time>2026-04-18T14:23:58.001Z</time></trkpt><trkpt lat="42.18821776766" lon="11.815083005667207"><ele>25.0</ele><time>2026-04-18T14:23:59.001Z</time></trkpt><trkpt lat="42.18816873621982" lon="11.814812235395024"><ele>23.666666666666668</ele><time>2026-04-18T14:24:00.001Z</time></trkpt><trkpt lat="42.18812651952955" lon="11.814530506659484"><ele>22.333333333333336</ele><time>2026-04-18T14:24:01.001Z</time></trkpt><trkpt lat="42.1880854313514" lon="11.814236624130176"><ele>21.0</ele><time>2026-04-18T14:24:02.001Z</time></trkpt><trkpt lat="42.188038088227735" lon="11.813935854502947"><ele>20.5</ele><time>2026-04-18T14:24:03.001Z</time></trkpt><trkpt lat="42.18798747179059" lon="11.813622579078709"><ele>20.0</ele><time>2026-04-18T14:24:04.001Z</time></trkpt><trkpt lat="42.18794031188588" lon="11.813311973237113"><ele>20.0</ele><time>2026-04-18T14:24:05.001Z</time></trkpt><trkpt lat="42.18789971951149" lon="11.813024892509372"><ele>20.0</ele><time>2026-04-18T14:24:06.001Z</time></trkpt><trkpt lat="42.187863650717944" lon="11.812758867880667"><ele>20.0</ele><time>2026-04-18T14:24:07.001Z</time></trkpt><trkpt lat="42.187824843977864" lon="11.812483920759348"><ele>19.666666666666668</ele><time>2026-04-18T14:24:08.001Z</time></trkpt><trkpt lat="42.187783740137185" lon="11.812204046530255"><ele>19.333333333333332</ele><time>2026-04-18T14:24:09.001Z</time></trkpt><trkpt lat="42.18774406767037" lon="11.811926192820223"><ele>19.0</ele><time>2026-04-18T14:24:10.001Z</time></trkpt><trkpt lat="42.18770084117325" lon="11.811649367332375"><ele>19.0</ele><time>2026-04-18T14:24:11.001Z</time></trkpt><trkpt lat="42.18765798400899" lon="11.811368724103895"><ele>19.0</ele><time>2026-04-18T14:24:12.001Z</time></trkpt><trkpt lat="42.1876189019557" lon="11.811088416518091"><ele>19.0</ele><time>2026-04-18T14:24:13.001Z</time></trkpt><trkpt lat="42.18758196559009" lon="11.81080348888405"><ele>19.333333333333332</ele><time>2026-04-18T14:24:14.001Z</time></trkpt><trkpt lat="42.187541786678594" lon="11.810516255278188"><ele>19.666666666666668</ele><time>2026-04-18T14:24:15.001Z</time></trkpt><trkpt lat="42.18749346400533" lon="11.810233666900588"><ele>20.0</ele><time>2026-04-18T14:24:16.001Z</time></trkpt><trkpt lat="42.187451088793466" lon="11.809969911602343"><ele>20.666666666666668</ele><time>2026-04-18T14:24:17.001Z</time></trkpt><trkpt lat="42.1874124507748" lon="11.809716694795187"><ele>21.333333333333332</ele><time>2026-04-18T14:24:18.001Z</time></trkpt><trkpt lat="42.187376780208425" lon="11.809458767675382"><ele>22.0</ele><time>2026-04-18T14:24:19.001Z</time></trkpt><trkpt lat="42.18734581115423" lon="11.809191718381676"><ele>20.333333333333332</ele><time>2026-04-18T14:24:20.001Z</time></trkpt><trkpt lat="42.18732201097236" lon="11.808926364937152"><ele>18.666666666666668</ele><time>2026-04-18T14:24:21.001Z</time></trkpt><trkpt lat="42.18730126321777" lon="11.808658859751548"><ele>17.0</ele><time>2026-04-18T14:24:22.001Z</time></trkpt><trkpt lat="42.18728870285921" lon="11.808404964192032"><ele>17.0</ele><time>2026-04-18T14:24:23.001Z</time></trkpt><trkpt lat="42.18727824205046" lon="11.808154148370068"><ele>17.0</ele><time>2026-04-18T14:24:24.001Z</time></trkpt><trkpt lat="42.187269490636496" lon="11.807894698048104"><ele>17.0</ele><time>2026-04-18T14:24:25.001Z</time></trkpt><trkpt lat="42.18726034843542" lon="11.807633661098473"><ele>16.333333333333336</ele><time>2026-04-18T14:24:26.001Z</time></trkpt><trkpt lat="42.187245813751886" lon="11.807369967850647"><ele>15.666666666666668</ele><time>2026-04-18T14:24:27.001Z</time></trkpt><trkpt lat="42.187230459773446" lon="11.807104559266806"><ele>15.0</ele><time>2026-04-18T14:24:28.001Z</time></trkpt><trkpt lat="42.187217688180766" lon="11.806833259848263"><ele>15.333333333333332</ele><time>2026-04-18T14:24:29.001Z</time></trkpt><trkpt lat="42.187208773626324" lon="11.806560664790497"><ele>15.666666666666666</ele><time>2026-04-18T14:24:30.001Z</time></trkpt><trkpt lat="42.18719575169394" lon="11.806285382738137"><ele>16.0</ele><time>2026-04-18T14:24:31.001Z</time></trkpt><trkpt lat="42.18717699220322" lon="11.80600723468566"><ele>16.333333333333332</ele><time>2026-04-18T14:24:32.001Z</time></trkpt><trkpt lat="42.18716123224916" lon="11.805741424953482"><ele>16.666666666666668</ele><time>2026-04-18T14:24:33.001Z</time></trkpt><trkpt lat="42.18714822960925" lon="11.805481642857774"><ele>17.0</ele><time>2026-04-18T14:24:34.001Z</time></trkpt><trkpt lat="42.187137312657754" lon="11.805213143121954"><ele>16.666666666666668</ele><time>2026-04-18T14:24:35.001Z</time></trkpt><trkpt lat="42.18712808961991" lon="11.804952683915849"><ele>16.333333333333332</ele><time>2026-04-18T14:24:36.001Z</time></trkpt><trkpt lat="42.18711714647083" lon="11.80469306796193"><ele>16.0</ele><time>2026-04-18T14:24:37.001Z</time></trkpt><trkpt lat="42.187106988328296" lon="11.804436934351742"><ele>15.666666666666666</ele><time>2026-04-18T14:24:38Z</time></trkpt><trkpt lat="42.187098002486614" lon="11.804180031306776"><ele>15.333333333333332</ele><time>2026-04-18T14:24:39Z</time></trkpt><trkpt lat="42.18708636413571" lon="11.803923473603438"><ele>15.0</ele><time>2026-04-18T14:24:40Z</time></trkpt><trkpt lat="42.18706210294638" lon="11.80366889613173"><ele>15.0</ele><time>2026-04-18T14:24:41Z</time></trkpt><trkpt lat="42.18701305495163" lon="11.803412338526686"><ele>15.0</ele><time>2026-04-18T14:24:42Z</time></trkpt><trkpt lat="42.18694284763655" lon="11.803152847586066"><ele>15.0</ele><time>2026-04-18T14:24:43Z</time></trkpt><trkpt lat="42.18686914022465" lon="11.802910283537502"><ele>15.0</ele><time>2026-04-18T14:24:44Z</time></trkpt><trkpt lat="42.18680956595683" lon="11.802690881345576"><ele>15.0</ele><time>2026-04-18T14:24:45Z</time></trkpt><trkpt lat="42.186775505081215" lon="11.80246706318953"><ele>15.0</ele><time>2026-04-18T14:24:46Z</time></trkpt><trkpt lat="42.18678173815836" lon="11.80222903817361"><ele>15.0</ele><time>2026-04-18T14:24:47Z</time></trkpt><trkpt lat="42.18682553652597" lon="11.801979232230247"><ele>15.0</ele><time>2026-04-18T14:24:48Z</time></trkpt><trkpt lat="42.18689649876432" lon="11.801732641771572"><ele>15.0</ele><time>2026-04-18T14:24:49Z</time></trkpt><trkpt lat="42.18698478765257" lon="11.801482490377397"><ele>14.333333333333332</ele><time>2026-04-18T14:24:50Z</time></trkpt><trkpt lat="42.18709401294619" lon="11.801239364608485"><ele>13.666666666666666</ele><time>2026-04-18T14:24:51Z</time></trkpt><trkpt lat="42.187209249617794" lon="11.801001435156332"><ele>13.0</ele><time>2026-04-18T14:24:52Z</time></trkpt><trkpt lat="42.18732303043541" lon="11.800760309287863"><ele>13.333333333333332</ele><time>2026-04-18T14:24:53Z</time></trkpt><trkpt lat="42.18743604787585" lon="11.800514677520933"><ele>13.666666666666668</ele><time>2026-04-18T14:24:54Z</time></trkpt><trkpt lat="42.18754705632175" lon="11.800264664165997"><ele>14.0</ele><time>2026-04-18T14:24:55Z</time></trkpt><trkpt lat="42.187658606115235" lon="11.800011345776552"><ele>14.0</ele><time>2026-04-18T14:24:56Z</time></trkpt><trkpt lat="42.18777332084901" lon="11.799755480524963"><ele>14.0</ele><time>2026-04-18T14:24:57Z</time></trkpt><trkpt lat="42.18788976767507" lon="11.799501579838594"><ele>14.0</ele><time>2026-04-18T14:24:58Z</time></trkpt><trkpt lat="42.18800835984988" lon="11.799245887415152"><ele>14.0</ele><time>2026-04-18T14:24:59Z</time></trkpt><trkpt lat="42.1881206215885" lon="11.799003822972326"><ele>14.0</ele><time>2026-04-18T14:25:00Z</time></trkpt><trkpt lat="42.188222523734645" lon="11.79877986601094"><ele>14.0</ele><time>2026-04-18T14:25:01Z</time></trkpt><trkpt lat="42.18831988656947" lon="11.798561262463114"><ele>15.0</ele><time>2026-04-18T14:25:02Z</time></trkpt><trkpt lat="42.188416232486254" lon="11.798333592184436"><ele>16.0</ele><time>2026-04-18T14:25:03Z</time></trkpt><trkpt lat="42.188517672152386" lon="11.798102518340073"><ele>17.0</ele><time>2026-04-18T14:25:04Z</time></trkpt><trkpt lat="42.18862245399927" lon="11.797878124826829"><ele>15.666666666666668</ele><time>2026-04-18T14:25:05Z</time></trkpt><trkpt lat="42.188734489516506" lon="11.797661727319747"><ele>14.333333333333332</ele><time>2026-04-18T14:25:06Z</time></trkpt><trkpt lat="42.1888540572465" lon="11.797464428190832"><ele>13.0</ele><time>2026-04-18T14:25:07Z</time></trkpt><trkpt lat="42.18899018408189" lon="11.797274446922271"><ele>13.333333333333332</ele><time>2026-04-18T14:25:08Z</time></trkpt><trkpt lat="42.189135904740155" lon="11.797086113156519"><ele>13.666666666666668</ele><time>2026-04-18T14:25:09Z</time></trkpt><trkpt lat="42.18927911551472" lon="11.796897612602963"><ele>14.0</ele><time>2026-04-18T14:25:10Z</time></trkpt><trkpt lat="42.189412371992354" lon="11.796728146750473"><ele>13.0</ele><time>2026-04-18T14:25:11Z</time></trkpt><trkpt lat="42.18954878741694" lon="11.796562105240849"><ele>12.0</ele><time>2026-04-18T14:25:12Z</time></trkpt><trkpt lat="42.18968515916949" lon="11.796386234081309"><ele>11.0</ele><time>2026-04-18T14:25:13Z</time></trkpt><trkpt lat="42.18980977158712" lon="11.796222734884289"><ele>10.666666666666666</ele><time>2026-04-18T14:25:14Z</time></trkpt><trkpt lat="42.18992454572801" lon="11.796067401177533"><ele>10.333333333333334</ele><time>2026-04-18T14:25:15Z</time></trkpt><trkpt lat="42.19001338691861" lon="11.795907981778388"><ele>10.0</ele><time>2026-04-18T14:25:16Z</time></trkpt><trkpt lat="42.19006055542596" lon="11.795722570975869"><ele>10.0</ele><time>2026-04-18T14:25:17Z</time></trkpt><trkpt lat="42.19007033802811" lon="11.79550698448344"><ele>10.0</ele><time>2026-04-18T14:25:18Z</time></trkpt><trkpt lat="42.19001866798607" lon="11.795294763748146"><ele>10.0</ele><time>2026-04-18T14:25:19Z</time></trkpt><trkpt lat="42.18995151791343" lon="11.795081377079141"><ele>9.666666666666668</ele><time>2026-04-18T14:25:20Z</time></trkpt><trkpt lat="42.189841042853" lon="11.794870368611047"><ele>9.333333333333334</ele><time>2026-04-18T14:25:21Z</time></trkpt><trkpt lat="42.189731314251986" lon="11.794637864093339"><ele>9.0</ele><time>2026-04-18T14:25:22Z</time></trkpt><trkpt lat="42.18962608632139" lon="11.79438872418863"><ele>9.0</ele><time>2026-04-18T14:25:23Z</time></trkpt><trkpt lat="42.18951811836765" lon="11.79413228872097"><ele>9.0</ele><time>2026-04-18T14:25:24Z</time></trkpt><trkpt lat="42.18941652526803" lon="11.793890621263436"><ele>9.0</ele><time>2026-04-18T14:25:25Z</time></trkpt><trkpt lat="42.18932407202573" lon="11.793671338515493"><ele>9.0</ele><time>2026-04-18T14:25:26Z</time></trkpt><trkpt lat="42.18923128879323" lon="11.793450600561222"><ele>9.0</ele><time>2026-04-18T14:25:27Z</time></trkpt><trkpt lat="42.18913481402256" lon="11.793225497326855"><ele>9.0</ele><time>2026-04-18T14:25:28Z</time></trkpt><trkpt lat="42.1890353510614" lon="11.79299347246679"><ele>8.666666666666666</ele><time>2026-04-18T14:25:29Z</time></trkpt><trkpt lat="42.188938657114846" lon="11.792758978111314"><ele>8.333333333333332</ele><time>2026-04-18T14:25:30Z</time></trkpt><trkpt lat="42.188842686665424" lon="11.792519471688877"><ele>8.0</ele><time>2026-04-18T14:25:31Z</time></trkpt><trkpt lat="42.18874156276458" lon="11.792278796100826"><ele>8.0</ele><time>2026-04-18T14:25:32Z</time></trkpt><trkpt lat="42.18864488596534" lon="11.792050406068459"><ele>8.0</ele><time>2026-04-18T14:25:33Z</time></trkpt><trkpt lat="42.188556499629065" lon="11.791843791196028"><ele>8.0</ele><time>2026-04-18T14:25:34Z</time></trkpt><trkpt lat="42.188474984722916" lon="11.791651272931546"><ele>8.0</ele><time>2026-04-18T14:25:35Z</time></trkpt><trkpt lat="42.18839923458357" lon="11.79147350652487"><ele>8.0</ele><time>2026-04-18T14:25:36Z</time></trkpt><trkpt lat="42.1883281897504" lon="11.791303415863428"><ele>8.0</ele><time>2026-04-18T14:25:37Z</time></trkpt><trkpt lat="42.188266412364875" lon="11.791145600866107"><ele>8.0</ele><time>2026-04-18T14:25:38Z</time></trkpt><trkpt lat="42.18821276133985" lon="11.790996079317567"><ele>10.2</ele><time>2026-04-18T14:25:39.001Z</time></trkpt><trkpt lat="42.18817268481776" lon="11.79085760200458"><ele>12.4</ele><time>2026-04-18T14:25:40.001Z</time></trkpt><trkpt lat="42.18815369873539" lon="11.790735358262245"><ele>14.599999999999998</ele><time>2026-04-18T14:25:41.001Z</time></trkpt><trkpt lat="42.18814971067027" lon="11.790616605812756"><ele>16.8</ele><time>2026-04-18T14:25:43.001Z</time></trkpt><trkpt lat="42.188043754107035" lon="11.790656957161662"><ele>19.0</ele><time>2026-04-18T14:25:45.001Z</time></trkpt><trkpt lat="42.18799142036356" lon="11.790801295745132"><ele>19.0</ele><time>2026-04-18T14:25:47.001Z</time></trkpt><trkpt lat="42.18795483030384" lon="11.790897077913316"><ele>19.0</ele><time>2026-04-18T14:25:48.001Z</time></trkpt><trkpt lat="42.187907611695856" lon="11.791010029771268"><ele>19.0</ele><time>2026-04-18T14:25:49.001Z</time></trkpt><trkpt lat="42.18785236431832" lon="11.791131130106296"><ele>19.0</ele><time>2026-04-18T14:25:50.001Z</time></trkpt><trkpt lat="42.18778698414908" lon="11.791269666176056"><ele>19.0</ele><time>2026-04-18T14:25:51.001Z</time></trkpt><trkpt lat="42.1877156604623" lon="11.791418845624884"><ele>18.25</ele><time>2026-04-18T14:25:52.001Z</time></trkpt><trkpt lat="42.18764040234394" lon="11.791570147733115"><ele>17.5</ele><time>2026-04-18T14:25:53.001Z</time></trkpt><trkpt lat="42.187562787534134" lon="11.791724900252543"><ele>16.75</ele><time>2026-04-18T14:25:54.001Z</time></trkpt><trkpt lat="42.18748384228722" lon="11.791891363799754"><ele>16.0</ele><time>2026-04-18T14:25:55.001Z</time></trkpt><trkpt lat="42.187404304210716" lon="11.792067367795987"><ele>16.75</ele><time>2026-04-18T14:25:56.001Z</time></trkpt><trkpt lat="42.18733369600405" lon="11.79222398572314"><ele>17.5</ele><time>2026-04-18T14:25:57.001Z</time></trkpt><trkpt lat="42.18726527124609" lon="11.79237576023595"><ele>18.25</ele><time>2026-04-18T14:25:58.001Z</time></trkpt><trkpt lat="42.18719946981813" lon="11.792521715866519"><ele>19.0</ele><time>2026-04-18T14:25:59.001Z</time></trkpt><trkpt lat="42.18711918238453" lon="11.792703718919405"><ele>19.0</ele><time>2026-04-18T14:26:00.001Z</time></trkpt><trkpt lat="42.18705088245366" lon="11.792868093618319"><ele>19.0</ele><time>2026-04-18T14:26:01.001Z</time></trkpt><trkpt lat="42.1869855341347" lon="11.793018163945161"><ele>19.0</ele><time>2026-04-18T14:26:02.001Z</time></trkpt><trkpt lat="42.1869256930491" lon="11.79318430805308"><ele>19.0</ele><time>2026-04-18T14:26:03.001Z</time></trkpt><trkpt lat="42.186844001428945" lon="11.793337379700253"><ele>19.0</ele><time>2026-04-18T14:26:04.001Z</time></trkpt><trkpt lat="42.18674042407191" lon="11.793494039024855"><ele>19.0</ele><time>2026-04-18T14:26:05.001Z</time></trkpt><trkpt lat="42.18664500873751" lon="11.793660862860834"><ele>19.0</ele><time>2026-04-18T14:26:06.001Z</time></trkpt><trkpt lat="42.18655654889661" lon="11.793814404955176"><ele>18.0</ele><time>2026-04-18T14:26:07.001Z</time></trkpt><trkpt lat="42.18647638080125" lon="11.793962380787939"><ele>17.0</ele><time>2026-04-18T14:26:08.001Z</time></trkpt><trkpt lat="42.186402795294164" lon="11.794099919940006"><ele>16.0</ele><time>2026-04-18T14:26:09.001Z</time></trkpt><trkpt lat="42.18633418606205" lon="11.794227527257068"><ele>15.0</ele><time>2026-04-18T14:26:10.001Z</time></trkpt><trkpt lat="42.18625855482863" lon="11.794368168724368"><ele>15.0</ele><time>2026-04-18T14:26:11.001Z</time></trkpt><trkpt lat="42.18618080042432" lon="11.794504005425583"><ele>15.0</ele><time>2026-04-18T14:26:12.001Z</time></trkpt><trkpt lat="42.18609657361129" lon="11.794618728428803"><ele>15.0</ele><time>2026-04-18T14:26:13.001Z</time></trkpt><trkpt lat="42.185995693890014" lon="11.794721190441576"><ele>15.0</ele><time>2026-04-18T14:26:14.001Z</time></trkpt><trkpt lat="42.185876423573795" lon="11.794834979433341"><ele>15.0</ele><time>2026-04-18T14:26:15.001Z</time></trkpt><trkpt lat="42.18577520619294" lon="11.79496366902083"><ele>15.0</ele><time>2026-04-18T14:26:16.001Z</time></trkpt><trkpt lat="42.18566225760273" lon="11.795072490080177"><ele>15.0</ele><time>2026-04-18T14:26:17.001Z</time></trkpt><trkpt lat="42.18555032563116" lon="11.79518095001117"><ele>15.0</ele><time>2026-04-18T14:26:18.001Z</time></trkpt><trkpt lat="42.18544621651294" lon="11.795290206750485"><ele>15.4</ele><time>2026-04-18T14:26:19.001Z</time></trkpt><trkpt lat="42.1853634153743" lon="11.795369966420171"><ele>15.8</ele><time>2026-04-18T14:26:20.001Z</time></trkpt><trkpt lat="42.18528943163977" lon="11.795446579962308"><ele>16.2</ele><time>2026-04-18T14:26:22.001Z</time></trkpt><trkpt lat="42.18524248367297" lon="11.795274936024898"><ele>16.6</ele><time>2026-04-18T14:26:25.001Z</time></trkpt><trkpt lat="42.18518960444012" lon="11.79521163259213"><ele>17.0</ele><time>2026-04-18T14:26:26.001Z</time></trkpt><trkpt lat="42.185141050841" lon="11.795107028262482"><ele>17.0</ele><time>2026-04-18T14:26:27.001Z</time></trkpt><trkpt lat="42.185078616319934" lon="11.795000146994324"><ele>17.0</ele><time>2026-04-18T14:26:28.001Z</time></trkpt><trkpt lat="42.18500758222799" lon="11.794886481925545"><ele>17.0</ele><time>2026-04-18T14:26:29.001Z</time></trkpt><trkpt lat="42.184940695703595" lon="11.794752891749223"><ele>17.0</ele><time>2026-04-18T14:26:30.001Z</time></trkpt><trkpt lat="42.184884449137265" lon="11.79459880933029"><ele>17.75</ele><time>2026-04-18T14:26:31.001Z</time></trkpt><trkpt lat="42.18483145742357" lon="11.794436935917307"><ele>18.5</ele><time>2026-04-18T14:26:32.001Z</time></trkpt><trkpt lat="42.184782608893634" lon="11.794264583835218"><ele>19.25</ele><time>2026-04-18T14:26:33.001Z</time></trkpt><trkpt lat="42.18474176606542" lon="11.794095473029051"><ele>20.0</ele><time>2026-04-18T14:26:34.001Z</time></trkpt><trkpt lat="42.18471338768274" lon="11.793919417996138"><ele>22.0</ele><time>2026-04-18T14:26:35.001Z</time></trkpt><trkpt lat="42.18469453977337" lon="11.793738137723464"><ele>24.0</ele><time>2026-04-18T14:26:36.001Z</time></trkpt><trkpt lat="42.184684196942584" lon="11.79354586864603"><ele>26.0</ele><time>2026-04-18T14:26:37.001Z</time></trkpt><trkpt lat="42.18467740686166" lon="11.793345971127053"><ele>28.0</ele><time>2026-04-18T14:26:38.001Z</time></trkpt><trkpt lat="42.18467242592327" lon="11.793143344392178"><ele>30.333333333333336</ele><time>2026-04-18T14:26:39.001Z</time></trkpt><trkpt lat="42.18467121411883" lon="11.79293140975842"><ele>32.666666666666664</ele><time>2026-04-18T14:26:40.001Z</time></trkpt><trkpt lat="42.18467106530301" lon="11.792706814438779"><ele>35.0</ele><time>2026-04-18T14:26:41.001Z</time></trkpt><trkpt lat="42.18467081799376" lon="11.792476076918303"><ele>36.75</ele><time>2026-04-18T14:26:42.001Z</time></trkpt><trkpt lat="42.18466990621115" lon="11.792269346990752"><ele>38.5</ele><time>2026-04-18T14:26:43.001Z</time></trkpt><trkpt lat="42.184669821189345" lon="11.792099356022673"><ele>40.25</ele><time>2026-04-18T14:26:44Z</time></trkpt><trkpt lat="42.18466696718427" lon="11.791948282298547"><ele>42.0</ele><time>2026-04-18T14:26:45Z</time></trkpt><trkpt lat="42.18466284367086" lon="11.791777476438751"><ele>42.6</ele><time>2026-04-18T14:26:46Z</time></trkpt><trkpt lat="42.18466142271482" lon="11.791623759351646"><ele>43.2</ele><time>2026-04-18T14:26:47Z</time></trkpt><trkpt lat="42.184660833109845" lon="11.791479521707812"><ele>43.8</ele><time>2026-04-18T14:26:48Z</time></trkpt><trkpt lat="42.18465871006893" lon="11.791349955457276"><ele>44.4</ele><time>2026-04-18T14:26:49Z</time></trkpt><trkpt lat="42.18465698058467" lon="11.791227471066874"><ele>45.0</ele><time>2026-04-18T14:26:50Z</time></trkpt><trkpt lat="42.1846528812011" lon="11.791128130917931"><ele>45.0</ele><time>2026-04-18T14:26:51Z</time></trkpt><trkpt lat="42.18463705647924" lon="11.791044226462011"><ele>45.0</ele><time>2026-04-18T14:26:52Z</time></trkpt><trkpt lat="42.184450081254006" lon="11.79099399452536"><ele>45.0</ele><time>2026-04-18T14:26:55Z</time></trkpt><trkpt lat="42.1843554300665" lon="11.791006908968331"><ele>45.0</ele><time>2026-04-18T14:26:56Z</time></trkpt><trkpt lat="42.18425148329114" lon="11.79098036903365"><ele>45.25</ele><time>2026-04-18T14:26:57Z</time></trkpt><trkpt lat="42.18413830941176" lon="11.790973431187654"><ele>45.5</ele><time>2026-04-18T14:26:58Z</time></trkpt><trkpt lat="42.18402667253497" lon="11.790965019212024"><ele>45.75</ele><time>2026-04-18T14:26:59Z</time></trkpt><trkpt lat="42.183919000367354" lon="11.790966766460242"><ele>46.0</ele><time>2026-04-18T14:27:00Z</time></trkpt><trkpt lat="42.1837978761612" lon="11.79096631437189"><ele>45.25</ele><time>2026-04-18T14:27:01Z</time></trkpt><trkpt lat="42.18368104390183" lon="11.790953880765626"><ele>44.5</ele><time>2026-04-18T14:27:02Z</time></trkpt><trkpt lat="42.18356856239886" lon="11.790945890537584"><ele>43.75</ele><time>2026-04-18T14:27:03Z</time></trkpt><trkpt lat="42.18344601015185" lon="11.790937235071002"><ele>43.0</ele><time>2026-04-18T14:27:04Z</time></trkpt><trkpt lat="42.18331576585042" lon="11.790902873767141"><ele>43.0</ele><time>2026-04-18T14:27:05Z</time></trkpt><trkpt lat="42.183185927448335" lon="11.790893124963937"><ele>43.0</ele><time>2026-04-18T14:27:06Z</time></trkpt><trkpt lat="42.183057272932075" lon="11.790905911637841"><ele>43.0</ele><time>2026-04-18T14:27:07Z</time></trkpt><trkpt lat="42.18292893377863" lon="11.790875138608378"><ele>43.0</ele><time>2026-04-18T14:27:08Z</time></trkpt><trkpt lat="42.18279918004118" lon="11.790865052308456"><ele>42.75</ele><time>2026-04-18T14:27:09Z</time></trkpt><trkpt lat="42.18266833702802" lon="11.790854406432635"><ele>42.5</ele><time>2026-04-18T14:27:10Z</time></trkpt><trkpt lat="42.18254040684156" lon="11.790843997557136"><ele>42.25</ele><time>2026-04-18T14:27:11Z</time></trkpt><trkpt lat="42.18241296750577" lon="11.79084469745121"><ele>42.0</ele><time>2026-04-18T14:27:12Z</time></trkpt><trkpt lat="42.182285861620585" lon="11.790844560335021"><ele>41.75</ele><time>2026-04-18T14:27:13Z</time></trkpt><trkpt lat="42.18216165114989" lon="11.79083329371282"><ele>41.5</ele><time>2026-04-18T14:27:14Z</time></trkpt><trkpt lat="42.182040059848156" lon="11.790802957552431"><ele>41.25</ele><time>2026-04-18T14:27:15Z</time></trkpt><trkpt lat="42.18191687956399" lon="11.790810776711629"><ele>41.0</ele><time>2026-04-18T14:27:16Z</time></trkpt><trkpt lat="42.18179733747244" lon="11.790775045779013"><ele>41.0</ele><time>2026-04-18T14:27:17Z</time></trkpt><trkpt lat="42.181665317360206" lon="11.790771098771714"><ele>41.0</ele><time>2026-04-18T14:27:18Z</time></trkpt><trkpt lat="42.181525550280504" lon="11.790772725011013"><ele>41.0</ele><time>2026-04-18T14:27:19Z</time></trkpt><trkpt lat="42.18139332738996" lon="11.790765110354144"><ele>41.0</ele><time>2026-04-18T14:27:20Z</time></trkpt><trkpt lat="42.1812697855469" lon="11.790760227615888"><ele>40.4</ele><time>2026-04-18T14:27:21Z</time></trkpt><trkpt lat="42.18115381147947" lon="11.790752157057552"><ele>39.8</ele><time>2026-04-18T14:27:22Z</time></trkpt><trkpt lat="42.18104708695722" lon="11.790741248374841"><ele>39.199999999999996</ele><time>2026-04-18T14:27:23Z</time></trkpt><trkpt lat="42.18094961263803" lon="11.790734920077414"><ele>38.599999999999994</ele><time>2026-04-18T14:27:24Z</time></trkpt><trkpt lat="42.180862832706474" lon="11.790730438907866"><ele>38.0</ele><time>2026-04-18T14:27:25Z</time></trkpt><trkpt lat="42.18079844442537" lon="11.790709875170798"><ele>38.0</ele><time>2026-04-18T14:27:26Z</time></trkpt><trkpt lat="42.180730259660244" lon="11.79071837212206"><ele>38.0</ele><time>2026-04-18T14:27:48Z</time></trkpt><trkpt lat="42.18059488124864" lon="11.790715048421035"><ele>38.0</ele><time>2026-04-18T14:27:50Z</time></trkpt><trkpt lat="42.180501958929824" lon="11.790717984878953"><ele>38.0</ele><time>2026-04-18T14:27:51.001Z</time></trkpt><trkpt lat="42.180399328533106" lon="11.790707118545376"><ele>38.0</ele><time>2026-04-18T14:27:52.001Z</time></trkpt><trkpt lat="42.1802979767246" lon="11.790700913764027"><ele>38.199999999999996</ele><time>2026-04-18T14:27:53.001Z</time></trkpt><trkpt lat="42.18020482041257" lon="11.790691186497048"><ele>38.4</ele><time>2026-04-18T14:27:54.001Z</time></trkpt><trkpt lat="42.180107260368466" lon="11.790677431010707"><ele>38.599999999999994</ele><time>2026-04-18T14:27:55.001Z</time></trkpt><trkpt lat="42.18000244421127" lon="11.790658623215856"><ele>38.8</ele><time>2026-04-18T14:27:56.001Z</time></trkpt><trkpt lat="42.17989381069338" lon="11.790639714085295"><ele>39.0</ele><time>2026-04-18T14:27:57.001Z</time></trkpt><trkpt lat="42.179788071100546" lon="11.79062041298029"><ele>40.333333333333336</ele><time>2026-04-18T14:27:58.001Z</time></trkpt><trkpt lat="42.179702682617254" lon="11.790615233718427"><ele>41.666666666666664</ele><time>2026-04-18T14:27:59.001Z</time></trkpt><trkpt lat="42.17964857116388" lon="11.790661025768399"><ele>43.0</ele><time>2026-04-18T14:28:00.001Z</time></trkpt><trkpt lat="42.179624790701325" lon="11.790751852918309"><ele>44.33333333333333</ele><time>2026-04-18T14:28:01.001Z</time></trkpt><trkpt lat="42.1796375670142" lon="11.790858022100409"><ele>45.666666666666664</ele><time>2026-04-18T14:28:02.001Z</time></trkpt><trkpt lat="42.17965474909937" lon="11.790970582430571"><ele>47.0</ele><time>2026-04-18T14:28:03.001Z</time></trkpt><trkpt lat="42.17966019100745" lon="11.791098579737026"><ele>47.2</ele><time>2026-04-18T14:28:04.001Z</time></trkpt><trkpt lat="42.17965585649447" lon="11.79124060539848"><ele>47.400000000000006</ele><time>2026-04-18T14:28:05.001Z</time></trkpt><trkpt lat="42.179650604078944" lon="11.791392496660952"><ele>47.599999999999994</ele><time>2026-04-18T14:28:06.001Z</time></trkpt><trkpt lat="42.17964944607721" lon="11.791548798807703"><ele>47.8</ele><time>2026-04-18T14:28:07.001Z</time></trkpt><trkpt lat="42.179654126732245" lon="11.791683137405846"><ele>48.0</ele><time>2026-04-18T14:28:08.001Z</time></trkpt><trkpt lat="42.1796567736653" lon="11.791813412476204"><ele>48.5</ele><time>2026-04-18T14:28:09.001Z</time></trkpt><trkpt lat="42.179621471402704" lon="11.791964835828944"><ele>49.0</ele><time>2026-04-18T14:28:10.001Z</time></trkpt><trkpt lat="42.179620574374155" lon="11.792133858574584"><ele>49.5</ele><time>2026-04-18T14:28:11.001Z</time></trkpt><trkpt lat="42.17961965980977" lon="11.792306185930789"><ele>50.0</ele><time>2026-04-18T14:28:12.001Z</time></trkpt><trkpt lat="42.17961884498002" lon="11.792485825687066"><ele>50.25</ele><time>2026-04-18T14:28:13.001Z</time></trkpt><trkpt lat="42.17961884498053" lon="11.792675400675062"><ele>50.5</ele><time>2026-04-18T14:28:14.001Z</time></trkpt><trkpt lat="42.17961884498095" lon="11.792862380825557"><ele>50.75</ele><time>2026-04-18T14:28:15.001Z</time></trkpt><trkpt lat="42.17961884498112" lon="11.793050267515932"><ele>51.0</ele><time>2026-04-18T14:28:16.001Z</time></trkpt><trkpt lat="42.17961884498233" lon="11.793237452034795"><ele>51.0</ele><time>2026-04-18T14:28:17.001Z</time></trkpt><trkpt lat="42.17961789115687" lon="11.793426129043823"><ele>51.0</ele><time>2026-04-18T14:28:18.001Z</time></trkpt><trkpt lat="42.17961646995265" lon="11.79362093040646"><ele>51.0</ele><time>2026-04-18T14:28:19.001Z</time></trkpt><trkpt lat="42.17961506009926" lon="11.793814175894415"><ele>51.0</ele><time>2026-04-18T14:28:20.001Z</time></trkpt><trkpt lat="42.179613727255216" lon="11.79399686601868"><ele>50.75</ele><time>2026-04-18T14:28:21.001Z</time></trkpt><trkpt lat="42.17961192188269" lon="11.794161574280777"><ele>50.5</ele><time>2026-04-18T14:28:22.001Z</time></trkpt><trkpt lat="42.17960898514745" lon="11.794327030125105"><ele>50.25</ele><time>2026-04-18T14:28:23.001Z</time></trkpt><trkpt lat="42.17960485920974" lon="11.794484794700553"><ele>50.0</ele><time>2026-04-18T14:28:24.001Z</time></trkpt><trkpt lat="42.17959746843991" lon="11.794628159021244"><ele>50.0</ele><time>2026-04-18T14:28:25.001Z</time></trkpt><trkpt lat="42.179577758426404" lon="11.79476058894337"><ele>50.0</ele><time>2026-04-18T14:28:26.001Z</time></trkpt><trkpt lat="42.179539159559496" lon="11.794888155130579"><ele>50.0</ele><time>2026-04-18T14:28:27.001Z</time></trkpt><trkpt lat="42.17947303278815" lon="11.794998497548502"><ele>50.0</ele><time>2026-04-18T14:28:28.001Z</time></trkpt><trkpt lat="42.17939567899068" lon="11.795116335096466"><ele>50.0</ele><time>2026-04-18T14:28:29.001Z</time></trkpt><trkpt lat="42.1793148050404" lon="11.795239372097269"><ele>50.16666666666667</ele><time>2026-04-18T14:28:30.001Z</time></trkpt><trkpt lat="42.17924419814617" lon="11.795346368511556"><ele>50.333333333333336</ele><time>2026-04-18T14:28:31.001Z</time></trkpt><trkpt lat="42.17918272395801" lon="11.795438460191281"><ele>50.5</ele><time>2026-04-18T14:28:32.001Z</time></trkpt><trkpt lat="42.17913986937323" lon="11.7955347639079"><ele>50.66666666666667</ele><time>2026-04-18T14:28:33.001Z</time></trkpt><trkpt lat="42.179084759134476" lon="11.795609299856935"><ele>50.833333333333336</ele><time>2026-04-18T14:28:35.001Z</time></trkpt><trkpt lat="42.179019066432666" lon="11.795659274186294"><ele>51.0</ele><time>2026-04-18T14:28:37.001Z</time></trkpt><trkpt lat="42.17889466473785" lon="11.795576768089203"><ele>52.0</ele><time>2026-04-18T14:28:38.001Z</time></trkpt><trkpt lat="42.17877711362342" lon="11.795581534612172"><ele>53.0</ele><time>2026-04-18T14:28:39.001Z</time></trkpt><trkpt lat="42.17864521506706" lon="11.795552766722144"><ele>54.0</ele><time>2026-04-18T14:28:40.001Z</time></trkpt><trkpt lat="42.17849243610029" lon="11.795524062589282"><ele>55.0</ele><time>2026-04-18T14:28:41.001Z</time></trkpt><trkpt lat="42.178328563978994" lon="11.795495599171662"><ele>55.5</ele><time>2026-04-18T14:28:42.001Z</time></trkpt><trkpt lat="42.17818257920793" lon="11.795464616315304"><ele>56.0</ele><time>2026-04-18T14:28:43.001Z</time></trkpt><trkpt lat="42.17804076438794" lon="11.795430097957116"><ele>56.5</ele><time>2026-04-18T14:28:44.001Z</time></trkpt><trkpt lat="42.177903295631445" lon="11.795413540950518"><ele>57.0</ele><time>2026-04-18T14:28:45.001Z</time></trkpt><trkpt lat="42.17777219031725" lon="11.795405197044587"><ele>57.0</ele><time>2026-04-18T14:28:46.001Z</time></trkpt><trkpt lat="42.17764295239707" lon="11.795452066721248"><ele>57.0</ele><time>2026-04-18T14:28:47.001Z</time></trkpt><trkpt lat="42.1775093416104" lon="11.795563054622964"><ele>57.0</ele><time>2026-04-18T14:28:48.001Z</time></trkpt><trkpt lat="42.17736061077261" lon="11.795700544231758"><ele>57.33333333333333</ele><time>2026-04-18T14:28:49.001Z</time></trkpt><trkpt lat="42.177188627304865" lon="11.795813896516009"><ele>57.666666666666664</ele><time>2026-04-18T14:28:50Z</time></trkpt><trkpt lat="42.177016364006114" lon="11.795948925423492"><ele>58.0</ele><time>2026-04-18T14:28:51Z</time></trkpt><trkpt lat="42.176829390666455" lon="11.79608171789752"><ele>58.0</ele><time>2026-04-18T14:28:52Z</time></trkpt><trkpt lat="42.176647761117934" lon="11.796207319287632"><ele>58.0</ele><time>2026-04-18T14:28:53Z</time></trkpt><trkpt lat="42.17648562140589" lon="11.796324034554251"><ele>58.0</ele><time>2026-04-18T14:28:54Z</time></trkpt><trkpt lat="42.17632435374885" lon="11.796440121833461"><ele>57.666666666666664</ele><time>2026-04-18T14:28:55Z</time></trkpt><trkpt lat="42.17616359377502" lon="11.796555843871634"><ele>57.33333333333333</ele><time>2026-04-18T14:28:56Z</time></trkpt><trkpt lat="42.17600105410105" lon="11.796669945649255"><ele>57.0</ele><time>2026-04-18T14:28:57Z</time></trkpt><trkpt lat="42.17584008105123" lon="11.796782934137996"><ele>56.66666666666667</ele><time>2026-04-18T14:28:58Z</time></trkpt><trkpt lat="42.17567721432535" lon="11.796897252147884"><ele>56.333333333333336</ele><time>2026-04-18T14:28:59Z</time></trkpt><trkpt lat="42.17551701349348" lon="11.797010005407964"><ele>56.0</ele><time>2026-04-18T14:29:00Z</time></trkpt><trkpt lat="42.175355288640795" lon="11.797124140630308"><ele>56.0</ele><time>2026-04-18T14:29:01Z</time></trkpt><trkpt lat="42.17519865148134" lon="11.797234684665387"><ele>56.0</ele><time>2026-04-18T14:29:02Z</time></trkpt><trkpt lat="42.17504202562129" lon="11.79734522227318"><ele>56.0</ele><time>2026-04-18T14:29:03Z</time></trkpt><trkpt lat="42.17488527360972" lon="11.797455847563526"><ele>56.0</ele><time>2026-04-18T14:29:04Z</time></trkpt><trkpt lat="42.17472704832743" lon="11.797567512592192"><ele>56.0</ele><time>2026-04-18T14:29:05Z</time></trkpt><trkpt lat="42.17457240106754" lon="11.797676462454179"><ele>56.0</ele><time>2026-04-18T14:29:06Z</time></trkpt><trkpt lat="42.17441500533145" lon="11.797786573475497"><ele>56.0</ele><time>2026-04-18T14:29:07Z</time></trkpt><trkpt lat="42.174262923729785" lon="11.797891079178129"><ele>56.0</ele><time>2026-04-18T14:29:08Z</time></trkpt><trkpt lat="42.17410739007372" lon="11.797997552782643"><ele>56.0</ele><time>2026-04-18T14:29:09Z</time></trkpt><trkpt lat="42.17395445677122" lon="11.798103705725172"><ele>56.0</ele><time>2026-04-18T14:29:10Z</time></trkpt><trkpt lat="42.17380660233267" lon="11.79820780822884"><ele>56.0</ele><time>2026-04-18T14:29:11Z</time></trkpt><trkpt lat="42.17366044411801" lon="11.798317499783655"><ele>56.0</ele><time>2026-04-18T14:29:12Z</time></trkpt><trkpt lat="42.173515908685246" lon="11.798426098138254"><ele>56.0</ele><time>2026-04-18T14:29:13Z</time></trkpt><trkpt lat="42.173372153724976" lon="11.798529061026134"><ele>56.0</ele><time>2026-04-18T14:29:14Z</time></trkpt><trkpt lat="42.17322226135375" lon="11.798634949939288"><ele>56.0</ele><time>2026-04-18T14:29:15Z</time></trkpt><trkpt lat="42.17307663309223" lon="11.798737826480389"><ele>56.0</ele><time>2026-04-18T14:29:16Z</time></trkpt><trkpt lat="42.172928555491445" lon="11.798842433309872"><ele>56.0</ele><time>2026-04-18T14:29:17Z</time></trkpt><trkpt lat="42.17277994891205" lon="11.798947413763267"><ele>56.0</ele><time>2026-04-18T14:29:18Z</time></trkpt><trkpt lat="42.17262920374989" lon="11.799054495237444"><ele>56.0</ele><time>2026-04-18T14:29:19Z</time></trkpt><trkpt lat="42.172480804058935" lon="11.79916011069825"><ele>56.0</ele><time>2026-04-18T14:29:20Z</time></trkpt><trkpt lat="42.17232811480283" lon="11.799268779007237"><ele>56.0</ele><time>2026-04-18T14:29:21Z</time></trkpt><trkpt lat="42.17217339599048" lon="11.799378059721171"><ele>56.333333333333336</ele><time>2026-04-18T14:29:22Z</time></trkpt><trkpt lat="42.17201102523787" lon="11.79949245023996"><ele>56.66666666666667</ele><time>2026-04-18T14:29:23Z</time></trkpt><trkpt lat="42.171843137170534" lon="11.799610727661019"><ele>57.0</ele><time>2026-04-18T14:29:24Z</time></trkpt><trkpt lat="42.17167403323014" lon="11.79972828491486"><ele>57.33333333333333</ele><time>2026-04-18T14:29:25Z</time></trkpt><trkpt lat="42.17149799363577" lon="11.799841987892922"><ele>57.666666666666664</ele><time>2026-04-18T14:29:26Z</time></trkpt><trkpt lat="42.17133267441212" lon="11.799949280345588"><ele>58.0</ele><time>2026-04-18T14:29:27Z</time></trkpt><trkpt lat="42.17117669174973" lon="11.800052712355022"><ele>58.0</ele><time>2026-04-18T14:29:28Z</time></trkpt><trkpt lat="42.17102322299173" lon="11.800157616896481"><ele>58.0</ele><time>2026-04-18T14:29:29Z</time></trkpt><trkpt lat="42.170867867727445" lon="11.80027082756827"><ele>58.0</ele><time>2026-04-18T14:29:30Z</time></trkpt><trkpt lat="42.17071148666756" lon="11.80038771352471"><ele>58.666666666666664</ele><time>2026-04-18T14:29:31Z</time></trkpt><trkpt lat="42.17056013730789" lon="11.800500838613836"><ele>59.33333333333333</ele><time>2026-04-18T14:29:32Z</time></trkpt><trkpt lat="42.17040444627753" lon="11.800615039879208"><ele>60.0</ele><time>2026-04-18T14:29:33Z</time></trkpt><trkpt lat="42.17024260037791" lon="11.800710632510631"><ele>60.0</ele><time>2026-04-18T14:29:34Z</time></trkpt><trkpt lat="42.170073919099586" lon="11.800789092763226"><ele>60.0</ele><time>2026-04-18T14:29:35Z</time></trkpt><trkpt lat="42.16990449318249" lon="11.80086407252382"><ele>60.0</ele><time>2026-04-18T14:29:36Z</time></trkpt><trkpt lat="42.16972458937439" lon="11.800943245929686"><ele>60.0</ele><time>2026-04-18T14:29:37Z</time></trkpt><trkpt lat="42.16954924390849" lon="11.801020411246009"><ele>60.0</ele><time>2026-04-18T14:29:38Z</time></trkpt><trkpt lat="42.16936870083077" lon="11.801100937068371"><ele>60.0</ele><time>2026-04-18T14:29:39Z</time></trkpt><trkpt lat="42.16918768092075" lon="11.801182098829992"><ele>59.0</ele><time>2026-04-18T14:29:40Z</time></trkpt><trkpt lat="42.16901242070918" lon="11.80125914603166"><ele>58.0</ele><time>2026-04-18T14:29:41Z</time></trkpt><trkpt lat="42.16884497447748" lon="11.801332521336759"><ele>57.0</ele><time>2026-04-18T14:29:42Z</time></trkpt><trkpt lat="42.16868720563857" lon="11.801402806951964"><ele>57.0</ele><time>2026-04-18T14:29:43Z</time></trkpt><trkpt lat="42.16852576818118" lon="11.801475539266718"><ele>57.0</ele><time>2026-04-18T14:29:44Z</time></trkpt><trkpt lat="42.168366075485324" lon="11.801547485516316"><ele>57.0</ele><time>2026-04-18T14:29:45Z</time></trkpt><trkpt lat="42.16820748488695" lon="11.801618594731766"><ele>56.66666666666667</ele><time>2026-04-18T14:29:46Z</time></trkpt><trkpt lat="42.168047250256095" lon="11.80168862802836"><ele>56.333333333333336</ele><time>2026-04-18T14:29:47Z</time></trkpt><trkpt lat="42.167891891635705" lon="11.801754727725783"><ele>56.0</ele><time>2026-04-18T14:29:48Z</time></trkpt><trkpt lat="42.16774179842164" lon="11.801817497447484"><ele>57.333333333333336</ele><time>2026-04-18T14:29:49Z</time></trkpt><trkpt lat="42.16758318862388" lon="11.80188401404596"><ele>58.66666666666667</ele><time>2026-04-18T14:29:50Z</time></trkpt><trkpt lat="42.167424410686145" lon="11.801950741927659"><ele>60.0</ele><time>2026-04-18T14:29:51Z</time></trkpt><trkpt lat="42.167253864370814" lon="11.802022415574445"><ele>61.0</ele><time>2026-04-18T14:29:52Z</time></trkpt><trkpt lat="42.16715596292554" lon="11.80206137436648"><ele>62.0</ele><time>2026-04-18T14:29:53Z</time></trkpt><trkpt lat="42.167035964305136" lon="11.802108985149975"><ele>63.0</ele><time>2026-04-18T14:29:54Z</time></trkpt><trkpt lat="42.16692250276609" lon="11.802154028127404"><ele>64.0</ele><time>2026-04-18T14:29:55Z</time></trkpt><trkpt lat="42.16682099334273" lon="11.802194783872588"><ele>63.99999999999999</ele><time>2026-04-18T14:29:56Z</time></trkpt><trkpt lat="42.16673049655827" lon="11.802231118046276"><ele>64.0</ele><time>2026-04-18T14:29:57Z</time></trkpt><trkpt lat="42.16666470042923" lon="11.802278406599129"><ele>64.0</ele><time>2026-04-18T14:29:58Z</time></trkpt><trkpt lat="42.16659367713037" lon="11.802258196115327"><ele>64.0</ele><time>2026-04-18T14:30:00Z</time></trkpt><trkpt lat="42.166596024091845" lon="11.802119158893356"><ele>63.99999999999999</ele><time>2026-04-18T14:30:02Z</time></trkpt><trkpt lat="42.16658437911918" lon="11.802006696290304"><ele>64.0</ele><time>2026-04-18T14:30:03Z</time></trkpt><trkpt lat="42.166573436838355" lon="11.801900145846126"><ele>63.25</ele><time>2026-04-18T14:30:04Z</time></trkpt><trkpt lat="42.16654744623611" lon="11.80174847247271"><ele>62.5</ele><time>2026-04-18T14:30:05Z</time></trkpt><trkpt lat="42.16653617714156" lon="11.801579667705047"><ele>61.75</ele><time>2026-04-18T14:30:06Z</time></trkpt><trkpt lat="42.16651794502869" lon="11.801394333106172"><ele>61.0</ele><time>2026-04-18T14:30:07Z</time></trkpt><trkpt lat="42.16649223757673" lon="11.801172235804806"><ele>61.0</ele><time>2026-04-18T14:30:08Z</time></trkpt><trkpt lat="42.16646258300257" lon="11.800916037915549"><ele>61.0</ele><time>2026-04-18T14:30:09Z</time></trkpt><trkpt lat="42.16643342952831" lon="11.800645214946439"><ele>61.0</ele><time>2026-04-18T14:30:10Z</time></trkpt><trkpt lat="42.16640752002968" lon="11.800343935033418"><ele>61.0</ele><time>2026-04-18T14:30:11Z</time></trkpt><trkpt lat="42.16637427507875" lon="11.800065507521701"><ele>61.0</ele><time>2026-04-18T14:30:12Z</time></trkpt><trkpt lat="42.16634213365777" lon="11.79979325494979"><ele>61.0</ele><time>2026-04-18T14:30:13Z</time></trkpt><trkpt lat="42.16632768255644" lon="11.79952330396691"><ele>60.666666666666664</ele><time>2026-04-18T14:30:14Z</time></trkpt><trkpt lat="42.16630096551267" lon="11.799274648677823"><ele>60.33333333333333</ele><time>2026-04-18T14:30:15.001Z</time></trkpt><trkpt lat="42.16626444071189" lon="11.79902612169971"><ele>60.0</ele><time>2026-04-18T14:30:16.001Z</time></trkpt><trkpt lat="42.166234425446" lon="11.798776290380951"><ele>60.0</ele><time>2026-04-18T14:30:17.001Z</time></trkpt><trkpt lat="42.16622384593904" lon="11.79852607605373"><ele>60.0</ele><time>2026-04-18T14:30:18.001Z</time></trkpt><trkpt lat="42.166197656865485" lon="11.798268186971864"><ele>60.0</ele><time>2026-04-18T14:30:19.001Z</time></trkpt><trkpt lat="42.16617194918113" lon="11.79801648087799"><ele>59.33333333333333</ele><time>2026-04-18T14:30:20.001Z</time></trkpt><trkpt lat="42.16614548320936" lon="11.797762393359225"><ele>58.666666666666664</ele><time>2026-04-18T14:30:21.001Z</time></trkpt><trkpt lat="42.16611996339942" lon="11.797517389485936"><ele>58.0</ele><time>2026-04-18T14:30:22.001Z</time></trkpt><trkpt lat="42.16609235848462" lon="11.79725685091293"><ele>58.0</ele><time>2026-04-18T14:30:23.001Z</time></trkpt><trkpt lat="42.16604937302452" lon="11.79701464618368"><ele>58.0</ele><time>2026-04-18T14:30:24.001Z</time></trkpt><trkpt lat="42.16603856219246" lon="11.796762650954665"><ele>58.0</ele><time>2026-04-18T14:30:25.001Z</time></trkpt><trkpt lat="42.16601164432785" lon="11.796515369839675"><ele>56.666666666666664</ele><time>2026-04-18T14:30:26.001Z</time></trkpt><trkpt lat="42.16598546651361" lon="11.79627488721368"><ele>55.33333333333333</ele><time>2026-04-18T14:30:27.001Z</time></trkpt><trkpt lat="42.165943473495574" lon="11.796041586437331"><ele>54.0</ele><time>2026-04-18T14:30:28.001Z</time></trkpt><trkpt lat="42.16591806211036" lon="11.795802821944756"><ele>52.66666666666667</ele><time>2026-04-18T14:30:29.001Z</time></trkpt><trkpt lat="42.165892706058536" lon="11.795562321575588"><ele>51.333333333333336</ele><time>2026-04-18T14:30:30.001Z</time></trkpt><trkpt lat="42.16586468007028" lon="11.795319154272228"><ele>50.0</ele><time>2026-04-18T14:30:31.001Z</time></trkpt><trkpt lat="42.165842837630194" lon="11.795071302948541"><ele>49.66666666666667</ele><time>2026-04-18T14:30:32.001Z</time></trkpt><trkpt lat="42.16581451893281" lon="11.794823159279597"><ele>49.33333333333333</ele><time>2026-04-18T14:30:33.001Z</time></trkpt><trkpt lat="42.1657869609621" lon="11.79457354817734"><ele>49.0</ele><time>2026-04-18T14:30:34.001Z</time></trkpt><trkpt lat="42.16576390626676" lon="11.794326378488627"><ele>49.0</ele><time>2026-04-18T14:30:35.001Z</time></trkpt><trkpt lat="42.16573368945426" lon="11.794089886428297"><ele>49.0</ele><time>2026-04-18T14:30:36.001Z</time></trkpt><trkpt lat="42.1657231116098" lon="11.793863540180618"><ele>49.0</ele><time>2026-04-18T14:30:37.001Z</time></trkpt><trkpt lat="42.16568324100308" lon="11.793649058018106"><ele>48.0</ele><time>2026-04-18T14:30:38.001Z</time></trkpt><trkpt lat="42.16567447718301" lon="11.793421326174512"><ele>47.0</ele><time>2026-04-18T14:30:39.001Z</time></trkpt><trkpt lat="42.165635172581624" lon="11.793203591796262"><ele>46.0</ele><time>2026-04-18T14:30:40.001Z</time></trkpt><trkpt lat="42.16561348314829" lon="11.792977825177767"><ele>46.0</ele><time>2026-04-18T14:30:41.001Z</time></trkpt><trkpt lat="42.16558620107982" lon="11.792754176554519"><ele>46.0</ele><time>2026-04-18T14:30:42.001Z</time></trkpt><trkpt lat="42.16557364065243" lon="11.79253372246744"><ele>46.0</ele><time>2026-04-18T14:30:43.001Z</time></trkpt><trkpt lat="42.16553440034882" lon="11.792317388337795"><ele>46.0</ele><time>2026-04-18T14:30:44.001Z</time></trkpt><trkpt lat="42.16551691007183" lon="11.792108636411221"><ele>46.0</ele><time>2026-04-18T14:30:45.001Z</time></trkpt><trkpt lat="42.16549557960889" lon="11.791920677911033"><ele>46.0</ele><time>2026-04-18T14:30:46.001Z</time></trkpt><trkpt lat="42.16546428337872" lon="11.79173517016627"><ele>46.0</ele><time>2026-04-18T14:30:47.001Z</time></trkpt><trkpt lat="42.165420079776354" lon="11.79155399292436"><ele>46.0</ele><time>2026-04-18T14:30:48.001Z</time></trkpt><trkpt lat="42.1653459541647" lon="11.791369227239505"><ele>46.0</ele><time>2026-04-18T14:30:49.001Z</time></trkpt><trkpt lat="42.165250884531545" lon="11.791190843411819"><ele>46.0</ele><time>2026-04-18T14:30:50.001Z</time></trkpt><trkpt lat="42.16513657276112" lon="11.791032251407362"><ele>44.333333333333336</ele><time>2026-04-18T14:30:51.001Z</time></trkpt><trkpt lat="42.16500213618054" lon="11.790895243146975"><ele>42.666666666666664</ele><time>2026-04-18T14:30:52.001Z</time></trkpt><trkpt lat="42.16486694901669" lon="11.790769698864477"><ele>41.0</ele><time>2026-04-18T14:30:53.001Z</time></trkpt><trkpt lat="42.164746120507395" lon="11.790655058888976"><ele>40.75</ele><time>2026-04-18T14:30:54.001Z</time></trkpt><trkpt lat="42.16463679349732" lon="11.790545196843343"><ele>40.5</ele><time>2026-04-18T14:30:55.001Z</time></trkpt><trkpt lat="42.1645349462799" lon="11.790427336226323"><ele>40.25</ele><time>2026-04-18T14:30:56Z</time></trkpt><trkpt lat="42.164445404867074" lon="11.790294738439968"><ele>40.0</ele><time>2026-04-18T14:30:57Z</time></trkpt><trkpt lat="42.16437510647187" lon="11.790153342689003"><ele>39.5</ele><time>2026-04-18T14:30:58Z</time></trkpt><trkpt lat="42.1643221629253" lon="11.790007444164225"><ele>39.0</ele><time>2026-04-18T14:30:59Z</time></trkpt><trkpt lat="42.16427682116446" lon="11.78986675681011"><ele>38.5</ele><time>2026-04-18T14:31:00Z</time></trkpt><trkpt lat="42.164305848167245" lon="11.789702511517671"><ele>38.0</ele><time>2026-04-18T14:31:01Z</time></trkpt><trkpt lat="42.16435603988793" lon="11.789568551244757"><ele>38.0</ele><time>2026-04-18T14:31:02Z</time></trkpt><trkpt lat="42.16442812209106" lon="11.789423781281997"><ele>38.0</ele><time>2026-04-18T14:31:03Z</time></trkpt><trkpt lat="42.16449394367346" lon="11.789262720204878"><ele>38.0</ele><time>2026-04-18T14:31:04Z</time></trkpt><trkpt lat="42.164509118091175" lon="11.789059813437216"><ele>38.0</ele><time>2026-04-18T14:31:05Z</time></trkpt><trkpt lat="42.164482871105065" lon="11.788861391496233"><ele>37.25</ele><time>2026-04-18T14:31:06Z</time></trkpt><trkpt lat="42.164421574019215" lon="11.788680144096482"><ele>36.5</ele><time>2026-04-18T14:31:07Z</time></trkpt><trkpt lat="42.1643329046988" lon="11.788536043681805"><ele>35.75</ele><time>2026-04-18T14:31:08Z</time></trkpt><trkpt lat="42.164221267670825" lon="11.788413606326094"><ele>35.0</ele><time>2026-04-18T14:31:09Z</time></trkpt><trkpt lat="42.16407783927971" lon="11.788354126922576"><ele>35.0</ele><time>2026-04-18T14:31:10Z</time></trkpt><trkpt lat="42.16393859828637" lon="11.788332488169866"><ele>35.0</ele><time>2026-04-18T14:31:11Z</time></trkpt><trkpt lat="42.163784000836685" lon="11.788330171850282"><ele>35.0</ele><time>2026-04-18T14:31:12Z</time></trkpt><trkpt lat="42.16363446953194" lon="11.78832333548876"><ele>35.0</ele><time>2026-04-18T14:31:13Z</time></trkpt><trkpt lat="42.163515797761" lon="11.788250749937422"><ele>35.0</ele><time>2026-04-18T14:31:14Z</time></trkpt><trkpt lat="42.163411073373666" lon="11.788118252241214"><ele>35.0</ele><time>2026-04-18T14:31:15Z</time></trkpt><trkpt lat="42.16329429236962" lon="11.787966982184813"><ele>35.0</ele><time>2026-04-18T14:31:16Z</time></trkpt><trkpt lat="42.16315027154832" lon="11.787856988436246"><ele>35.33333333333333</ele><time>2026-04-18T14:31:17Z</time></trkpt><trkpt lat="42.16297947651972" lon="11.787799281294141"><ele>35.666666666666664</ele><time>2026-04-18T14:31:18Z</time></trkpt><trkpt lat="42.16279910586492" lon="11.787798135824909"><ele>36.0</ele><time>2026-04-18T14:31:19Z</time></trkpt><trkpt lat="42.16262456182918" lon="11.787859808177569"><ele>36.0</ele><time>2026-04-18T14:31:20Z</time></trkpt><trkpt lat="42.162453310577234" lon="11.787950214910678"><ele>36.0</ele><time>2026-04-18T14:31:21Z</time></trkpt><trkpt lat="42.1622822540576" lon="11.788067523855535"><ele>36.0</ele><time>2026-04-18T14:31:22Z</time></trkpt><trkpt lat="42.16211387347525" lon="11.788202374262003"><ele>36.0</ele><time>2026-04-18T14:31:23Z</time></trkpt><trkpt lat="42.161952762423425" lon="11.788325734807145"><ele>36.0</ele><time>2026-04-18T14:31:24Z</time></trkpt><trkpt lat="42.16178101375416" lon="11.788430591936269"><ele>36.0</ele><time>2026-04-18T14:31:25Z</time></trkpt><trkpt lat="42.161596648802096" lon="11.788506454833794"><ele>34.666666666666664</ele><time>2026-04-18T14:31:26Z</time></trkpt><trkpt lat="42.16140794220157" lon="11.788554796512072"><ele>33.33333333333333</ele><time>2026-04-18T14:31:27Z</time></trkpt><trkpt lat="42.16121056573292" lon="11.788581205002314"><ele>32.0</ele><time>2026-04-18T14:31:28Z</time></trkpt><trkpt lat="42.16100642361358" lon="11.788605979500634"><ele>32.0</ele><time>2026-04-18T14:31:29Z</time></trkpt><trkpt lat="42.160799713308094" lon="11.788624208201716"><ele>32.0</ele><time>2026-04-18T14:31:30Z</time></trkpt><trkpt lat="42.16058831904475" lon="11.78864365879018"><ele>32.0</ele><time>2026-04-18T14:31:31Z</time></trkpt><trkpt lat="42.16038467364409" lon="11.78866701087802"><ele>30.333333333333332</ele><time>2026-04-18T14:31:32Z</time></trkpt><trkpt lat="42.16017878242009" lon="11.788698130739403"><ele>28.666666666666664</ele><time>2026-04-18T14:31:33Z</time></trkpt><trkpt lat="42.15996705730772" lon="11.788736907720338"><ele>27.0</ele><time>2026-04-18T14:31:34Z</time></trkpt><trkpt lat="42.159751983866755" lon="11.788782830941585"><ele>27.0</ele><time>2026-04-18T14:31:35Z</time></trkpt><trkpt lat="42.159528969392674" lon="11.788831003846948"><ele>27.0</ele><time>2026-04-18T14:31:36Z</time></trkpt><trkpt lat="42.159299482088976" lon="11.788879411070685"><ele>27.0</ele><time>2026-04-18T14:31:37Z</time></trkpt><trkpt lat="42.159070115152225" lon="11.788934185253396"><ele>27.0</ele><time>2026-04-18T14:31:38Z</time></trkpt><trkpt lat="42.15884619361541" lon="11.78899360751428"><ele>29.333333333333336</ele><time>2026-04-18T14:31:39Z</time></trkpt><trkpt lat="42.158624422437136" lon="11.789055391562291"><ele>31.666666666666668</ele><time>2026-04-18T14:31:40Z</time></trkpt><trkpt lat="42.158408163616144" lon="11.78912047763007"><ele>34.0</ele><time>2026-04-18T14:31:41Z</time></trkpt><trkpt lat="42.15819206027082" lon="11.789191791740484"><ele>34.66666666666667</ele><time>2026-04-18T14:31:42Z</time></trkpt><trkpt lat="42.157978800155696" lon="11.789263022234932"><ele>35.333333333333336</ele><time>2026-04-18T14:31:43Z</time></trkpt><trkpt lat="42.157770956734915" lon="11.789336280543045"><ele>36.0</ele><time>2026-04-18T14:31:44Z</time></trkpt><trkpt lat="42.157561771024675" lon="11.7894168134986"><ele>37.333333333333336</ele><time>2026-04-18T14:31:45Z</time></trkpt><trkpt lat="42.15735657338758" lon="11.789497818461506"><ele>38.66666666666667</ele><time>2026-04-18T14:31:46Z</time></trkpt><trkpt lat="42.15715225207774" lon="11.789575411553542"><ele>40.0</ele><time>2026-04-18T14:31:47Z</time></trkpt><trkpt lat="42.156949355888486" lon="11.789653567364443"><ele>40.0</ele><time>2026-04-18T14:31:48Z</time></trkpt><trkpt lat="42.15675322499865" lon="11.789733339015479"><ele>40.0</ele><time>2026-04-18T14:31:49Z</time></trkpt><trkpt lat="42.15655829109652" lon="11.789821994364718"><ele>40.0</ele><time>2026-04-18T14:31:50Z</time></trkpt><trkpt lat="42.15636453124454" lon="11.789917134078134"><ele>41.0</ele><time>2026-04-18T14:31:51Z</time></trkpt><trkpt lat="42.156166963285536" lon="11.790012897384258"><ele>42.0</ele><time>2026-04-18T14:31:52Z</time></trkpt><trkpt lat="42.155968718865324" lon="11.790114168160331"><ele>43.0</ele><time>2026-04-18T14:31:53Z</time></trkpt><trkpt lat="42.15577540338166" lon="11.790212111519002"><ele>43.66666666666667</ele><time>2026-04-18T14:31:54Z</time></trkpt><trkpt lat="42.15558363790538" lon="11.790312205989709"><ele>44.333333333333336</ele><time>2026-04-18T14:31:55Z</time></trkpt><trkpt lat="42.15540391152902" lon="11.790400583888777"><ele>45.0</ele><time>2026-04-18T14:31:56Z</time></trkpt><trkpt lat="42.155227315747474" lon="11.790487088656132"><ele>45.0</ele><time>2026-04-18T14:31:57Z</time></trkpt><trkpt lat="42.15505048826538" lon="11.790576447524899"><ele>45.0</ele><time>2026-04-18T14:31:58Z</time></trkpt><trkpt lat="42.15487196111764" lon="11.790667814960218"><ele>45.0</ele><time>2026-04-18T14:31:59Z</time></trkpt><trkpt lat="42.154694820917136" lon="11.79075381961311"><ele>45.333333333333336</ele><time>2026-04-18T14:32:00Z</time></trkpt><trkpt lat="42.154515893838216" lon="11.790845062877853"><ele>45.66666666666667</ele><time>2026-04-18T14:32:01Z</time></trkpt><trkpt lat="42.15433475242145" lon="11.790936064014607"><ele>46.0</ele><time>2026-04-18T14:32:02Z</time></trkpt><trkpt lat="42.154151423523686" lon="11.791027699233235"><ele>45.66666666666667</ele><time>2026-04-18T14:32:03Z</time></trkpt><trkpt lat="42.15397033209346" lon="11.791114292986181"><ele>45.333333333333336</ele><time>2026-04-18T14:32:04Z</time></trkpt><trkpt lat="42.15378824611182" lon="11.7912066077003"><ele>45.0</ele><time>2026-04-18T14:32:05Z</time></trkpt><trkpt lat="42.15360461713935" lon="11.791295858092246"><ele>45.0</ele><time>2026-04-18T14:32:06Z</time></trkpt><trkpt lat="42.153432881671236" lon="11.791371025846566"><ele>45.0</ele><time>2026-04-18T14:32:07Z</time></trkpt><trkpt lat="42.15326392323656" lon="11.791444446907501"><ele>45.0</ele><time>2026-04-18T14:32:08Z</time></trkpt><trkpt lat="42.153077239263745" lon="11.791511639454345"><ele>45.0</ele><time>2026-04-18T14:32:09Z</time></trkpt><trkpt lat="42.15288819215146" lon="11.79157113972866"><ele>45.0</ele><time>2026-04-18T14:32:10Z</time></trkpt><trkpt lat="42.152694711946246" lon="11.791629348837054"><ele>45.0</ele><time>2026-04-18T14:32:11Z</time></trkpt><trkpt lat="42.15248719838252" lon="11.791687885523052"><ele>42.0</ele><time>2026-04-18T14:32:12Z</time></trkpt><trkpt lat="42.15225812136557" lon="11.791736902600444"><ele>39.0</ele><time>2026-04-18T14:32:13Z</time></trkpt><trkpt lat="42.152018566910584" lon="11.791760060867079"><ele>39.0</ele><time>2026-04-18T14:32:14Z</time></trkpt><trkpt lat="42.15176551276368" lon="11.791767660499994"><ele>39.0</ele><time>2026-04-18T14:32:15Z</time></trkpt><trkpt lat="42.151499556792835" lon="11.791755692659443"><ele>38.5</ele><time>2026-04-18T14:32:16Z</time></trkpt><trkpt lat="42.15122253536396" lon="11.791732989393454"><ele>38.0</ele><time>2026-04-18T14:32:17Z</time></trkpt><trkpt lat="42.150940477664385" lon="11.791708504078974"><ele>32.5</ele><time>2026-04-18T14:32:18Z</time></trkpt><trkpt lat="42.15065140389732" lon="11.791696071489334"><ele>27.0</ele><time>2026-04-18T14:32:19Z</time></trkpt><trkpt lat="42.15036004860469" lon="11.791692857481848"><ele>27.0</ele><time>2026-04-18T14:32:20Z</time></trkpt><trkpt lat="42.150066124846354" lon="11.791691448698472"><ele>27.0</ele><time>2026-04-18T14:32:21Z</time></trkpt><trkpt lat="42.14977102332871" lon="11.791690117183595"><ele>27.5</ele><time>2026-04-18T14:32:22Z</time></trkpt><trkpt lat="42.14947235272938" lon="11.791683966132432"><ele>28.0</ele><time>2026-04-18T14:32:23.001Z</time></trkpt><trkpt lat="42.14917171311326" lon="11.791677645819762"><ele>32.5</ele><time>2026-04-18T14:32:24.001Z</time></trkpt><trkpt lat="42.148868968833966" lon="11.791671256513744"><ele>37.0</ele><time>2026-04-18T14:32:25.001Z</time></trkpt><trkpt lat="42.1485627648758" lon="11.791662480075402"><ele>37.0</ele><time>2026-04-18T14:32:26.001Z</time></trkpt><trkpt lat="42.14825481766349" lon="11.791653797514568"><ele>37.0</ele><time>2026-04-18T14:32:27.001Z</time></trkpt><trkpt lat="42.14795594080629" lon="11.791648934175091"><ele>41.5</ele><time>2026-04-18T14:32:28.001Z</time></trkpt><trkpt lat="42.14768708053409" lon="11.791643565651727"><ele>46.0</ele><time>2026-04-18T14:32:29.001Z</time></trkpt><trkpt lat="42.14744416883751" lon="11.791637008987248"><ele>46.66666666666667</ele><time>2026-04-18T14:32:30.001Z</time></trkpt><trkpt lat="42.1472186946449" lon="11.79162977020309"><ele>47.333333333333336</ele><time>2026-04-18T14:32:31.001Z</time></trkpt><trkpt lat="42.147001688586215" lon="11.791628334531286"><ele>48.0</ele><time>2026-04-18T14:32:32.001Z</time></trkpt><trkpt lat="42.14678156789744" lon="11.791638533134345"><ele>48.0</ele><time>2026-04-18T14:32:33.001Z</time></trkpt><trkpt lat="42.146558309928714" lon="11.791665254497472"><ele>48.0</ele><time>2026-04-18T14:32:34.001Z</time></trkpt><trkpt lat="42.146336003739115" lon="11.791710731200366"><ele>48.0</ele><time>2026-04-18T14:32:35.001Z</time></trkpt><trkpt lat="42.146119244253825" lon="11.791766188439881"><ele>47.333333333333336</ele><time>2026-04-18T14:32:36.001Z</time></trkpt><trkpt lat="42.14590083773428" lon="11.79182289299279"><ele>46.66666666666667</ele><time>2026-04-18T14:32:37.001Z</time></trkpt><trkpt lat="42.14568964174233" lon="11.791882327100911"><ele>46.0</ele><time>2026-04-18T14:32:38.001Z</time></trkpt><trkpt lat="42.14548638359529" lon="11.791951935177869"><ele>48.66666666666667</ele><time>2026-04-18T14:32:39.001Z</time></trkpt><trkpt lat="42.145285476619755" lon="11.792027115390335"><ele>51.333333333333336</ele><time>2026-04-18T14:32:40.001Z</time></trkpt><trkpt lat="42.14508361842586" lon="11.79210735540222"><ele>54.0</ele><time>2026-04-18T14:32:41.001Z</time></trkpt><trkpt lat="42.144880254420244" lon="11.79218835644559"><ele>53.66666666666667</ele><time>2026-04-18T14:32:42.001Z</time></trkpt><trkpt lat="42.14467579388058" lon="11.792269529963557"><ele>53.333333333333336</ele><time>2026-04-18T14:32:43.001Z</time></trkpt><trkpt lat="42.14447121219929" lon="11.792348743283267"><ele>53.0</ele><time>2026-04-18T14:32:44.001Z</time></trkpt><trkpt lat="42.14426307607957" lon="11.792428187084159"><ele>53.0</ele><time>2026-04-18T14:32:45.001Z</time></trkpt><trkpt lat="42.144054179601824" lon="11.792506125861987"><ele>53.0</ele><time>2026-04-18T14:32:46.001Z</time></trkpt><trkpt lat="42.14384307418093" lon="11.792565589982265"><ele>53.0</ele><time>2026-04-18T14:32:47.001Z</time></trkpt><trkpt lat="42.14363277093154" lon="11.792623458753672"><ele>54.66666666666667</ele><time>2026-04-18T14:32:48.001Z</time></trkpt><trkpt lat="42.143424141663374" lon="11.792706336522297"><ele>56.33333333333333</ele><time>2026-04-18T14:32:49.001Z</time></trkpt><trkpt lat="42.14321804064865" lon="11.79279342873823"><ele>58.0</ele><time>2026-04-18T14:32:50.001Z</time></trkpt><trkpt lat="42.14300958426795" lon="11.792879782000924"><ele>59.33333333333333</ele><time>2026-04-18T14:32:51.001Z</time></trkpt><trkpt lat="42.14280176895768" lon="11.792961163121214"><ele>60.66666666666667</ele><time>2026-04-18T14:32:52.001Z</time></trkpt><trkpt lat="42.142591150847394" lon="11.793041448815305"><ele>62.0</ele><time>2026-04-18T14:32:53.001Z</time></trkpt><trkpt lat="42.14237707917898" lon="11.793120846610432"><ele>62.66666666666667</ele><time>2026-04-18T14:32:54.001Z</time></trkpt><trkpt lat="42.14216498062549" lon="11.793201055751684"><ele>63.33333333333333</ele><time>2026-04-18T14:32:55.001Z</time></trkpt><trkpt lat="42.14195311525956" lon="11.793286036897287"><ele>64.0</ele><time>2026-04-18T14:32:56.001Z</time></trkpt><trkpt lat="42.141741131471534" lon="11.793374516853122"><ele>64.33333333333333</ele><time>2026-04-18T14:32:57.001Z</time></trkpt><trkpt lat="42.141526850406294" lon="11.793460064737795"><ele>64.66666666666667</ele><time>2026-04-18T14:32:58.001Z</time></trkpt><trkpt lat="42.14131092355919" lon="11.793543690958277"><ele>65.0</ele><time>2026-04-18T14:32:59.001Z</time></trkpt><trkpt lat="42.14109429075631" lon="11.793628513488024"><ele>66.5</ele><time>2026-04-18T14:33:00.001Z</time></trkpt><trkpt lat="42.14087487379649" lon="11.793713461512171"><ele>68.0</ele><time>2026-04-18T14:33:01.001Z</time></trkpt><trkpt lat="42.140659812380534" lon="11.793799465215924"><ele>68.66666666666667</ele><time>2026-04-18T14:33:02Z</time></trkpt><trkpt lat="42.140444459569366" lon="11.793882953265712"><ele>69.33333333333333</ele><time>2026-04-18T14:33:03Z</time></trkpt><trkpt lat="42.14022952129229" lon="11.793965633468497"><ele>70.0</ele><time>2026-04-18T14:33:04Z</time></trkpt><trkpt lat="42.14001364317331" lon="11.79405033951185"><ele>71.0</ele><time>2026-04-18T14:33:05Z</time></trkpt><trkpt lat="42.139798781059895" lon="11.794133832178787"><ele>72.0</ele><time>2026-04-18T14:33:06Z</time></trkpt><trkpt lat="42.139581885197444" lon="11.794217010349161"><ele>73.0</ele><time>2026-04-18T14:33:07Z</time></trkpt><trkpt lat="42.13936657500217" lon="11.794302254539078"><ele>74.0</ele><time>2026-04-18T14:33:08Z</time></trkpt><trkpt lat="42.139146609006765" lon="11.794387863140852"><ele>75.0</ele><time>2026-04-18T14:33:09Z</time></trkpt><trkpt lat="42.138926604724666" lon="11.794474020295853"><ele>79.0</ele><time>2026-04-18T14:33:10Z</time></trkpt><trkpt lat="42.13870647485797" lon="11.79455910915455"><ele>83.0</ele><time>2026-04-18T14:33:11Z</time></trkpt><trkpt lat="42.13848749976684" lon="11.794647320161646"><ele>83.0</ele><time>2026-04-18T14:33:12Z</time></trkpt><trkpt lat="42.1382622255721" lon="11.794727890318057"><ele>83.0</ele><time>2026-04-18T14:33:13Z</time></trkpt><trkpt lat="42.13803603775385" lon="11.794796429046798"><ele>85.0</ele><time>2026-04-18T14:33:14Z</time></trkpt><trkpt lat="42.13780704422043" lon="11.794856380064232"><ele>87.0</ele><time>2026-04-18T14:33:15Z</time></trkpt><trkpt lat="42.13757588343171" lon="11.794911024367138"><ele>89.0</ele><time>2026-04-18T14:33:16Z</time></trkpt><trkpt lat="42.13734176120213" lon="11.794955588656507"><ele>91.0</ele><time>2026-04-18T14:33:17Z</time></trkpt><trkpt lat="42.13710435348428" lon="11.7949865757534"><ele>91.0</ele><time>2026-04-18T14:33:18Z</time></trkpt><trkpt lat="42.1368677688534" lon="11.795000019415339"><ele>91.0</ele><time>2026-04-18T14:33:19Z</time></trkpt><trkpt lat="42.136629502199746" lon="11.794999435066934"><ele>92.0</ele><time>2026-04-18T14:33:20Z</time></trkpt><trkpt lat="42.136391113092486" lon="11.794981801125216"><ele>93.0</ele><time>2026-04-18T14:33:21Z</time></trkpt><trkpt lat="42.136152074109695" lon="11.794949589296525"><ele>93.0</ele><time>2026-04-18T14:33:22Z</time></trkpt><trkpt lat="42.13590963380696" lon="11.794906757094452"><ele>93.0</ele><time>2026-04-18T14:33:23Z</time></trkpt><trkpt lat="42.13566669416225" lon="11.794855949553854"><ele>93.5</ele><time>2026-04-18T14:33:24Z</time></trkpt><trkpt lat="42.13542371833595" lon="11.79479229838725"><ele>94.0</ele><time>2026-04-18T14:33:25Z</time></trkpt><trkpt lat="42.13518111672123" lon="11.794716301353612"><ele>94.0</ele><time>2026-04-18T14:33:26Z</time></trkpt><trkpt lat="42.13493835682505" lon="11.794633874335727"><ele>94.0</ele><time>2026-04-18T14:33:27Z</time></trkpt><trkpt lat="42.134694101701804" lon="11.79454921565642"><ele>95.0</ele><time>2026-04-18T14:33:28Z</time></trkpt><trkpt lat="42.13444739415335" lon="11.794459936157802"><ele>96.0</ele><time>2026-04-18T14:33:29Z</time></trkpt><trkpt lat="42.1342012408169" lon="11.794371053636507"><ele>94.5</ele><time>2026-04-18T14:33:30Z</time></trkpt><trkpt lat="42.13395760195145" lon="11.794277292675556"><ele>93.0</ele><time>2026-04-18T14:33:31Z</time></trkpt><trkpt lat="42.1337133759862" lon="11.794181876639385"><ele>93.0</ele><time>2026-04-18T14:33:32Z</time></trkpt><trkpt lat="42.13346850690406" lon="11.794082772175349"><ele>93.0</ele><time>2026-04-18T14:33:33Z</time></trkpt><trkpt lat="42.13322976392722" lon="11.79399568788519"><ele>92.0</ele><time>2026-04-18T14:33:34Z</time></trkpt><trkpt lat="42.132990104862635" lon="11.793910134518981"><ele>91.0</ele><time>2026-04-18T14:33:35Z</time></trkpt><trkpt lat="42.13275105911534" lon="11.793821511367021"><ele>91.0</ele><time>2026-04-18T14:33:36Z</time></trkpt><trkpt lat="42.13251589124247" lon="11.793739011674319"><ele>91.0</ele><time>2026-04-18T14:33:37Z</time></trkpt><trkpt lat="42.132297562417115" lon="11.793659844096826"><ele>91.0</ele><time>2026-04-18T14:33:38Z</time></trkpt><trkpt lat="42.13208829069367" lon="11.793579497046746"><ele>91.0</ele><time>2026-04-18T14:33:39Z</time></trkpt><trkpt lat="42.13187957295324" lon="11.7935027864582"><ele>91.0</ele><time>2026-04-18T14:33:40Z</time></trkpt><trkpt lat="42.131661421238306" lon="11.793420762981155"><ele>87.0</ele><time>2026-04-18T14:33:41Z</time></trkpt><trkpt lat="42.13144313531049" lon="11.79334209857452"><ele>83.0</ele><time>2026-04-18T14:33:42Z</time></trkpt><trkpt lat="42.131225162048665" lon="11.793258042002485"><ele>83.0</ele><time>2026-04-18T14:33:43Z</time></trkpt><trkpt lat="42.13100780473424" lon="11.793173139247585"><ele>83.0</ele><time>2026-04-18T14:33:44Z</time></trkpt><trkpt lat="42.130789337090185" lon="11.793091586805982"><ele>82.0</ele><time>2026-04-18T14:33:45Z</time></trkpt><trkpt lat="42.13056940778935" lon="11.793018035324975"><ele>81.0</ele><time>2026-04-18T14:33:46Z</time></trkpt><trkpt lat="42.1303469145477" lon="11.792938835346762"><ele>81.0</ele><time>2026-04-18T14:33:47Z</time></trkpt><trkpt lat="42.13012724579283" lon="11.792854555296206"><ele>81.0</ele><time>2026-04-18T14:33:48Z</time></trkpt><trkpt lat="42.129909259752985" lon="11.792767710193688"><ele>78.0</ele><time>2026-04-18T14:33:49Z</time></trkpt><trkpt lat="42.129691084712675" lon="11.79268352773852"><ele>75.0</ele><time>2026-04-18T14:33:50Z</time></trkpt><trkpt lat="42.12946788909228" lon="11.79260306297891"><ele>72.5</ele><time>2026-04-18T14:33:51Z</time></trkpt><trkpt lat="42.129243001601" lon="11.792524828972276"><ele>70.0</ele><time>2026-04-18T14:33:52Z</time></trkpt><trkpt lat="42.12901983841548" lon="11.792448301643006"><ele>69.0</ele><time>2026-04-18T14:33:53Z</time></trkpt><trkpt lat="42.128791501519075" lon="11.79236529825707"><ele>68.0</ele><time>2026-04-18T14:33:54Z</time></trkpt><trkpt lat="42.12856743998627" lon="11.792282575909233"><ele>68.0</ele><time>2026-04-18T14:33:55Z</time></trkpt><trkpt lat="42.128346907063865" lon="11.792200603853475"><ele>68.0</ele><time>2026-04-18T14:33:56Z</time></trkpt><trkpt lat="42.128125073342645" lon="11.792117232770007"><ele>65.0</ele><time>2026-04-18T14:33:57Z</time></trkpt><trkpt lat="42.12790129424568" lon="11.792032472229481"><ele>62.0</ele><time>2026-04-18T14:33:58Z</time></trkpt><trkpt lat="42.12767345676843" lon="11.791948077051723"><ele>62.0</ele><time>2026-04-18T14:33:59Z</time></trkpt><trkpt lat="42.12744710150107" lon="11.791865462034325"><ele>62.0</ele><time>2026-04-18T14:34:00Z</time></trkpt><trkpt lat="42.12721900221248" lon="11.791781484856136"><ele>61.0</ele><time>2026-04-18T14:34:01Z</time></trkpt><trkpt lat="42.12698933582566" lon="11.79169792257743"><ele>60.0</ele><time>2026-04-18T14:34:02Z</time></trkpt><trkpt lat="42.126755819545785" lon="11.791611157019405"><ele>60.0</ele><time>2026-04-18T14:34:03Z</time></trkpt><trkpt lat="42.12652450382218" lon="11.79153047494365"><ele>60.0</ele><time>2026-04-18T14:34:04Z</time></trkpt><trkpt lat="42.126289537006066" lon="11.791454551443687"><ele>60.0</ele><time>2026-04-18T14:34:05Z</time></trkpt><trkpt lat="42.12605379415669" lon="11.791383478196906"><ele>60.0</ele><time>2026-04-18T14:34:06Z</time></trkpt><trkpt lat="42.12581759091237" lon="11.791319385850173"><ele>58.0</ele><time>2026-04-18T14:34:07Z</time></trkpt><trkpt lat="42.125579094595444" lon="11.791260908578765"><ele>56.0</ele><time>2026-04-18T14:34:08Z</time></trkpt><trkpt lat="42.12534082677755" lon="11.791204075306831"><ele>56.0</ele><time>2026-04-18T14:34:09Z</time></trkpt><trkpt lat="42.1250973718226" lon="11.791145942032136"><ele>56.0</ele><time>2026-04-18T14:34:10Z</time></trkpt><trkpt lat="42.124853157787825" lon="11.791089405217857"><ele>56.0</ele><time>2026-04-18T14:34:11Z</time></trkpt><trkpt lat="42.12460653123825" lon="11.791040460432088"><ele>56.0</ele><time>2026-04-18T14:34:12Z</time></trkpt><trkpt lat="42.12435676476919" lon="11.791001846793314"><ele>56.5</ele><time>2026-04-18T14:34:13Z</time></trkpt><trkpt lat="42.12410560089238" lon="11.790968016477812"><ele>57.0</ele><time>2026-04-18T14:34:14Z</time></trkpt><trkpt lat="42.1238574313327" lon="11.790939994301162"><ele>55.0</ele><time>2026-04-18T14:34:15Z</time></trkpt><trkpt lat="42.123607683822016" lon="11.790912871074722"><ele>53.0</ele><time>2026-04-18T14:34:16Z</time></trkpt><trkpt lat="42.12335830633292" lon="11.790891378479621"><ele>47.5</ele><time>2026-04-18T14:34:17Z</time></trkpt><trkpt lat="42.123104330571614" lon="11.790872542102905"><ele>42.0</ele><time>2026-04-18T14:34:18Z</time></trkpt><trkpt lat="42.122852110663196" lon="11.790856780135453"><ele>42.0</ele><time>2026-04-18T14:34:19Z</time></trkpt><trkpt lat="42.1226028397551" lon="11.790846030285183"><ele>42.0</ele><time>2026-04-18T14:34:20Z</time></trkpt><trkpt lat="42.12235146567062" lon="11.790840275618024"><ele>38.5</ele><time>2026-04-18T14:34:21Z</time></trkpt><trkpt lat="42.122097200912506" lon="11.790845993195619"><ele>35.0</ele><time>2026-04-18T14:34:22Z</time></trkpt><trkpt lat="42.12184221720942" lon="11.79085639527565"><ele>35.0</ele><time>2026-04-18T14:34:23Z</time></trkpt><trkpt lat="42.1215877034915" lon="11.790869584286058"><ele>35.0</ele><time>2026-04-18T14:34:24Z</time></trkpt><trkpt lat="42.12133101503085" lon="11.790885374604297"><ele>39.0</ele><time>2026-04-18T14:34:25Z</time></trkpt><trkpt lat="42.12108191341256" lon="11.790902085079683"><ele>43.0</ele><time>2026-04-18T14:34:26Z</time></trkpt><trkpt lat="42.12084841826383" lon="11.790921072153251"><ele>45.0</ele><time>2026-04-18T14:34:27Z</time></trkpt><trkpt lat="42.120618168534" lon="11.790949881534889"><ele>47.0</ele><time>2026-04-18T14:34:28Z</time></trkpt><trkpt lat="42.1203885352035" lon="11.790982393674277"><ele>49.5</ele><time>2026-04-18T14:34:29Z</time></trkpt><trkpt lat="42.12015681703566" lon="11.79101835480313"><ele>52.0</ele><time>2026-04-18T14:34:30Z</time></trkpt><trkpt lat="42.119921157792845" lon="11.791058286603384"><ele>47.5</ele><time>2026-04-18T14:34:31Z</time></trkpt><trkpt lat="42.1196821029707" lon="11.791097705655941"><ele>43.0</ele><time>2026-04-18T14:34:32Z</time></trkpt><trkpt lat="42.11944979259956" lon="11.79115318458078"><ele>43.0</ele><time>2026-04-18T14:34:33Z</time></trkpt><trkpt lat="42.11920901713005" lon="11.791210091847963"><ele>43.0</ele><time>2026-04-18T14:34:34.001Z</time></trkpt><trkpt lat="42.118967849287024" lon="11.79126242926955"><ele>40.5</ele><time>2026-04-18T14:34:35.001Z</time></trkpt><trkpt lat="42.11873040923837" lon="11.791314444767773"><ele>38.0</ele><time>2026-04-18T14:34:36.001Z</time></trkpt><trkpt lat="42.11848429477728" lon="11.791371472166057"><ele>38.0</ele><time>2026-04-18T14:34:37.001Z</time></trkpt><trkpt lat="42.11824216724593" lon="11.791426403772855"><ele>38.0</ele><time>2026-04-18T14:34:38.001Z</time></trkpt><trkpt lat="42.117995756539734" lon="11.791482426584489"><ele>39.5</ele><time>2026-04-18T14:34:39.001Z</time></trkpt><trkpt lat="42.11775409001342" lon="11.791539159784001"><ele>41.0</ele><time>2026-04-18T14:34:40.001Z</time></trkpt><trkpt lat="42.11751042114526" lon="11.791596580695776"><ele>44.0</ele><time>2026-04-18T14:34:41.001Z</time></trkpt><trkpt lat="42.117265343505" lon="11.791653574060495"><ele>47.0</ele><time>2026-04-18T14:34:42.001Z</time></trkpt><trkpt lat="42.117018485877686" lon="11.791707929745877"><ele>47.0</ele><time>2026-04-18T14:34:43.001Z</time></trkpt><trkpt lat="42.1167703287755" lon="11.791766027922732"><ele>47.0</ele><time>2026-04-18T14:34:44.001Z</time></trkpt><trkpt lat="42.11651497429881" lon="11.791823424487038"><ele>46.5</ele><time>2026-04-18T14:34:45.001Z</time></trkpt><trkpt lat="42.11626370514878" lon="11.791880019546948"><ele>46.0</ele><time>2026-04-18T14:34:46.001Z</time></trkpt><trkpt lat="42.116015195648124" lon="11.791938614058555"><ele>46.0</ele><time>2026-04-18T14:34:47.001Z</time></trkpt><trkpt lat="42.11576102688017" lon="11.792000424134017"><ele>46.0</ele><time>2026-04-18T14:34:48.001Z</time></trkpt><trkpt lat="42.11550458864764" lon="11.792061856740299"><ele>49.0</ele><time>2026-04-18T14:34:49.001Z</time></trkpt><trkpt lat="42.11524829984178" lon="11.792120835954433"><ele>52.0</ele><time>2026-04-18T14:34:50.001Z</time></trkpt><trkpt lat="42.11499053590828" lon="11.79217817452171"><ele>52.0</ele><time>2026-04-18T14:34:51.001Z</time></trkpt><trkpt lat="42.1147316415015" lon="11.792228733239623"><ele>52.0</ele><time>2026-04-18T14:34:52.001Z</time></trkpt><trkpt lat="42.114471282392124" lon="11.792270308132753"><ele>52.0</ele><time>2026-04-18T14:34:53.001Z</time></trkpt><trkpt lat="42.11421145719787" lon="11.792307334405974"><ele>52.0</ele><time>2026-04-18T14:34:54.001Z</time></trkpt><trkpt lat="42.11394919020168" lon="11.792332308565834"><ele>50.5</ele><time>2026-04-18T14:34:55.001Z</time></trkpt><trkpt lat="42.11368218929661" lon="11.792351067694904"><ele>49.0</ele><time>2026-04-18T14:34:56.001Z</time></trkpt><trkpt lat="42.11341159077242" lon="11.792370069969111"><ele>46.5</ele><time>2026-04-18T14:34:57.001Z</time></trkpt><trkpt lat="42.11313781434692" lon="11.79238534017501"><ele>44.0</ele><time>2026-04-18T14:34:58.001Z</time></trkpt><trkpt lat="42.11287437338021" lon="11.792398573789049"><ele>44.0</ele><time>2026-04-18T14:34:59.001Z</time></trkpt><trkpt lat="42.112636058608146" lon="11.792408910780486"><ele>44.0</ele><time>2026-04-18T14:35:00.001Z</time></trkpt><trkpt lat="42.112412784509914" lon="11.792420750995891"><ele>41.666666666666664</ele><time>2026-04-18T14:35:01.001Z</time></trkpt><trkpt lat="42.1121915878937" lon="11.792429580271097"><ele>39.333333333333336</ele><time>2026-04-18T14:35:02.001Z</time></trkpt><trkpt lat="42.111966495532265" lon="11.792438192783727"><ele>37.0</ele><time>2026-04-18T14:35:03.001Z</time></trkpt><trkpt lat="42.111745264334466" lon="11.792445887669281"><ele>35.0</ele><time>2026-04-18T14:35:04.001Z</time></trkpt><trkpt lat="42.11153694957695" lon="11.792454941110186"><ele>33.0</ele><time>2026-04-18T14:35:05.001Z</time></trkpt><trkpt lat="42.11132824557869" lon="11.79246874653405"><ele>31.0</ele><time>2026-04-18T14:35:06.001Z</time></trkpt><trkpt lat="42.11111321298297" lon="11.792484154989758"><ele>31.0</ele><time>2026-04-18T14:35:07.001Z</time></trkpt><trkpt lat="42.11089579789622" lon="11.792493141433967"><ele>31.0</ele><time>2026-04-18T14:35:08Z</time></trkpt><trkpt lat="42.110675845193136" lon="11.792499796689393"><ele>31.0</ele><time>2026-04-18T14:35:09Z</time></trkpt><trkpt lat="42.110456204094156" lon="11.792509075687162"><ele>31.0</ele><time>2026-04-18T14:35:10Z</time></trkpt><trkpt lat="42.11023792539424" lon="11.792518122703298"><ele>31.0</ele><time>2026-04-18T14:35:11Z</time></trkpt><trkpt lat="42.11002984683692" lon="11.7925268388943"><ele>31.0</ele><time>2026-04-18T14:35:12Z</time></trkpt><trkpt lat="42.10981933769869" lon="11.792537371361167"><ele>28.666666666666668</ele><time>2026-04-18T14:35:13Z</time></trkpt><trkpt lat="42.109607610035994" lon="11.792549420526688"><ele>26.333333333333336</ele><time>2026-04-18T14:35:14Z</time></trkpt><trkpt lat="42.10940004373905" lon="11.79256158610539"><ele>24.0</ele><time>2026-04-18T14:35:15Z</time></trkpt><trkpt lat="42.109190921637115" lon="11.792570553382914"><ele>22.0</ele><time>2026-04-18T14:35:16Z</time></trkpt><trkpt lat="42.108985423889365" lon="11.7925719516682"><ele>20.0</ele><time>2026-04-18T14:35:17Z</time></trkpt><trkpt lat="42.1087737784494" lon="11.792557950514402"><ele>18.0</ele><time>2026-04-18T14:35:18Z</time></trkpt><trkpt lat="42.1085611212224" lon="11.792514747278219"><ele>18.0</ele><time>2026-04-18T14:35:19Z</time></trkpt><trkpt lat="42.10834727667924" lon="11.792446548296995"><ele>18.0</ele><time>2026-04-18T14:35:20Z</time></trkpt><trkpt lat="42.108135747132906" lon="11.792354596288702"><ele>18.0</ele><time>2026-04-18T14:35:21Z</time></trkpt><trkpt lat="42.10792930984862" lon="11.79225052894429"><ele>16.666666666666668</ele><time>2026-04-18T14:35:22Z</time></trkpt><trkpt lat="42.10774097859683" lon="11.792132528167778"><ele>15.333333333333334</ele><time>2026-04-18T14:35:23Z</time></trkpt><trkpt lat="42.107560706402914" lon="11.792007389404038"><ele>14.0</ele><time>2026-04-18T14:35:24Z</time></trkpt><trkpt lat="42.10738603759243" lon="11.791863247031515"><ele>13.333333333333334</ele><time>2026-04-18T14:35:25Z</time></trkpt><trkpt lat="42.10722192687037" lon="11.791697081668586"><ele>12.666666666666668</ele><time>2026-04-18T14:35:26Z</time></trkpt><trkpt lat="42.10706275238372" lon="11.791517957009471"><ele>12.0</ele><time>2026-04-18T14:35:27Z</time></trkpt><trkpt lat="42.106914551586684" lon="11.791321273688794"><ele>12.0</ele><time>2026-04-18T14:35:28Z</time></trkpt><trkpt lat="42.10677634029662" lon="11.79110904823122"><ele>12.0</ele><time>2026-04-18T14:35:29Z</time></trkpt><trkpt lat="42.106648076168916" lon="11.790880339425593"><ele>12.0</ele><time>2026-04-18T14:35:30Z</time></trkpt><trkpt lat="42.10652242230414" lon="11.790652746777006"><ele>12.0</ele><time>2026-04-18T14:35:31Z</time></trkpt><trkpt lat="42.10640057169533" lon="11.790424388378694"><ele>12.0</ele><time>2026-04-18T14:35:32Z</time></trkpt><trkpt lat="42.106279064553966" lon="11.790197794266442"><ele>12.0</ele><time>2026-04-18T14:35:33Z</time></trkpt><trkpt lat="42.10615475273378" lon="11.789971422046507"><ele>11.0</ele><time>2026-04-18T14:35:34Z</time></trkpt><trkpt lat="42.10603108722361" lon="11.789744612062654"><ele>10.0</ele><time>2026-04-18T14:35:35Z</time></trkpt><trkpt lat="42.105906703996574" lon="11.789517988408981"><ele>9.0</ele><time>2026-04-18T14:35:36Z</time></trkpt><trkpt lat="42.10578453063088" lon="11.7892843651691"><ele>9.333333333333334</ele><time>2026-04-18T14:35:37Z</time></trkpt><trkpt lat="42.10566279899204" lon="11.789052205626422"><ele>9.666666666666668</ele><time>2026-04-18T14:35:38Z</time></trkpt><trkpt lat="42.105541286024966" lon="11.788821588828881"><ele>10.0</ele><time>2026-04-18T14:35:39Z</time></trkpt><trkpt lat="42.1054260149724" lon="11.788590527193017"><ele>9.0</ele><time>2026-04-18T14:35:40Z</time></trkpt><trkpt lat="42.105307023814355" lon="11.788356724237397"><ele>8.0</ele><time>2026-04-18T14:35:41Z</time></trkpt><trkpt lat="42.10518967784144" lon="11.78812296731823"><ele>7.0</ele><time>2026-04-18T14:35:42Z</time></trkpt><trkpt lat="42.10507745572002" lon="11.787894796458987"><ele>7.666666666666667</ele><time>2026-04-18T14:35:43Z</time></trkpt><trkpt lat="42.1049622310149" lon="11.787663648839201"><ele>8.333333333333334</ele><time>2026-04-18T14:35:44Z</time></trkpt><trkpt lat="42.10484845774935" lon="11.787432613882048"><ele>9.0</ele><time>2026-04-18T14:35:45Z</time></trkpt><trkpt lat="42.104736689173976" lon="11.787200099492077"><ele>9.0</ele><time>2026-04-18T14:35:46Z</time></trkpt><trkpt lat="42.104621922155786" lon="11.786965853814273"><ele>9.0</ele><time>2026-04-18T14:35:47Z</time></trkpt><trkpt lat="42.10450884587799" lon="11.786733369169012"><ele>9.0</ele><time>2026-04-18T14:35:48Z</time></trkpt><trkpt lat="42.104394608504975" lon="11.786496626916993"><ele>8.666666666666666</ele><time>2026-04-18T14:35:49Z</time></trkpt><trkpt lat="42.104286871478415" lon="11.786276142103619"><ele>8.333333333333332</ele><time>2026-04-18T14:35:50Z</time></trkpt><trkpt lat="42.104179425754076" lon="11.786058973929869"><ele>8.0</ele><time>2026-04-18T14:35:51Z</time></trkpt><trkpt lat="42.10406781405912" lon="11.785831176244434"><ele>6.333333333333333</ele><time>2026-04-18T14:35:52Z</time></trkpt><trkpt lat="42.10395584683319" lon="11.785594765926826"><ele>4.666666666666666</ele><time>2026-04-18T14:35:53Z</time></trkpt><trkpt lat="42.103845580957774" lon="11.785366512287311"><ele>3.0</ele><time>2026-04-18T14:35:54Z</time></trkpt><trkpt lat="42.1037312710487" lon="11.78513427583827"><ele>3.0</ele><time>2026-04-18T14:35:55Z</time></trkpt><trkpt lat="42.10361621707322" lon="11.784896667115992"><ele>3.0</ele><time>2026-04-18T14:35:56Z</time></trkpt><trkpt lat="42.103512458541836" lon="11.784658120233948"><ele>3.0</ele><time>2026-04-18T14:35:57Z</time></trkpt><trkpt lat="42.103422185767464" lon="11.784429887743151"><ele>3.0</ele><time>2026-04-18T14:35:58Z</time></trkpt><trkpt lat="42.103335825926216" lon="11.784219831884627"><ele>3.0</ele><time>2026-04-18T14:35:59Z</time></trkpt><trkpt lat="42.10325543251603" lon="11.784028315019636"><ele>3.0</ele><time>2026-04-18T14:36:00Z</time></trkpt><trkpt lat="42.10318051832088" lon="11.783844407545866"><ele>3.0</ele><time>2026-04-18T14:36:01Z</time></trkpt><trkpt lat="42.10310959018908" lon="11.783674631593364"><ele>3.0</ele><time>2026-04-18T14:36:02Z</time></trkpt><trkpt lat="42.10304448087517" lon="11.783523655669091"><ele>3.0</ele><time>2026-04-18T14:36:03Z</time></trkpt><trkpt lat="42.10298692737593" lon="11.783384068344255"><ele>3.0</ele><time>2026-04-18T14:36:04Z</time></trkpt><trkpt lat="42.10291556399007" lon="11.783227339059243"><ele>2.5</ele><time>2026-04-18T14:36:05Z</time></trkpt><trkpt lat="42.10283045628663" lon="11.783078072291374"><ele>2.0</ele><time>2026-04-18T14:36:06Z</time></trkpt><trkpt lat="42.10271959655886" lon="11.782957259531507"><ele>1.5</ele><time>2026-04-18T14:36:07Z</time></trkpt><trkpt lat="42.102585801981135" lon="11.782871544221923"><ele>1.0</ele><time>2026-04-18T14:36:08Z</time></trkpt><trkpt lat="42.10243781958606" lon="11.782823509705043"><ele>0.3333333333333333</ele><time>2026-04-18T14:36:09Z</time></trkpt><trkpt lat="42.102281102748925" lon="11.782821261454906"><ele>-0.3333333333333333</ele><time>2026-04-18T14:36:10Z</time></trkpt><trkpt lat="42.10212581279949" lon="11.782864584936872"><ele>-1.0</ele><time>2026-04-18T14:36:11Z</time></trkpt><trkpt lat="42.10196941986916" lon="11.782953594269479"><ele>-1.0</ele><time>2026-04-18T14:36:12Z</time></trkpt><trkpt lat="42.10181662145681" lon="11.783071205761233"><ele>-1.0</ele><time>2026-04-18T14:36:13Z</time></trkpt><trkpt lat="42.10167371300157" lon="11.783185972550399"><ele>-1.0</ele><time>2026-04-18T14:36:14Z</time></trkpt><trkpt lat="42.10152208034413" lon="11.78329315289248"><ele>-0.3333333333333333</ele><time>2026-04-18T14:36:15Z</time></trkpt><trkpt lat="42.10136475271372" lon="11.78340035212986"><ele>0.3333333333333333</ele><time>2026-04-18T14:36:16Z</time></trkpt><trkpt lat="42.10120374064128" lon="11.783506343750906"><ele>1.0</ele><time>2026-04-18T14:36:17Z</time></trkpt><trkpt lat="42.10104331138" lon="11.783609822949503"><ele>1.3333333333333333</ele><time>2026-04-18T14:36:18Z</time></trkpt><trkpt lat="42.10088268221939" lon="11.783712506987623"><ele>1.6666666666666665</ele><time>2026-04-18T14:36:19Z</time></trkpt><trkpt lat="42.10072790000666" lon="11.783814934316448"><ele>2.0</ele><time>2026-04-18T14:36:20Z</time></trkpt><trkpt lat="42.1005729237716" lon="11.783920100006698"><ele>2.0</ele><time>2026-04-18T14:36:21Z</time></trkpt><trkpt lat="42.100415688414174" lon="11.784026521174699"><ele>2.0</ele><time>2026-04-18T14:36:22Z</time></trkpt><trkpt lat="42.10025816472251" lon="11.78413229612088"><ele>2.0</ele><time>2026-04-18T14:36:23Z</time></trkpt><trkpt lat="42.10009453886958" lon="11.784245826793304"><ele>2.333333333333333</ele><time>2026-04-18T14:36:24.001Z</time></trkpt><trkpt lat="42.099933270361284" lon="11.784358175121893"><ele>2.6666666666666665</ele><time>2026-04-18T14:36:25.001Z</time></trkpt><trkpt lat="42.099772364370416" lon="11.784476076557928"><ele>3.0</ele><time>2026-04-18T14:36:26.001Z</time></trkpt><trkpt lat="42.09961698492633" lon="11.784588182644752"><ele>3.0</ele><time>2026-04-18T14:36:27.001Z</time></trkpt><trkpt lat="42.099476066756644" lon="11.784698903468007"><ele>3.0</ele><time>2026-04-18T14:36:28.001Z</time></trkpt><trkpt lat="42.09933624596371" lon="11.784816991855255"><ele>3.0</ele><time>2026-04-18T14:36:29.001Z</time></trkpt><trkpt lat="42.09921759295072" lon="11.78493721752234"><ele>3.0</ele><time>2026-04-18T14:36:30.001Z</time></trkpt><trkpt lat="42.099105064067366" lon="11.785055372675165"><ele>3.0</ele><time>2026-04-18T14:36:31.001Z</time></trkpt><trkpt lat="42.0989987910348" lon="11.785163742069809"><ele>3.0</ele><time>2026-04-18T14:36:32.001Z</time></trkpt><trkpt lat="42.098901454949356" lon="11.785269843337565"><ele>3.0</ele><time>2026-04-18T14:36:33.001Z</time></trkpt><trkpt lat="42.0987899228039" lon="11.785331374930111"><ele>2.8</ele><time>2026-04-18T14:36:34.001Z</time></trkpt><trkpt lat="42.098695784843585" lon="11.78540610238785"><ele>2.5999999999999996</ele><time>2026-04-18T14:36:35.001Z</time></trkpt><trkpt lat="42.09859547253964" lon="11.785433602654688"><ele>2.4000000000000004</ele><time>2026-04-18T14:36:36.001Z</time></trkpt><trkpt lat="42.09849337955746" lon="11.785446936105053"><ele>2.2</ele><time>2026-04-18T14:36:37.001Z</time></trkpt><trkpt lat="42.09838959789819" lon="11.78544339960681"><ele>2.0</ele><time>2026-04-18T14:36:38.001Z</time></trkpt><trkpt lat="42.09829227971638" lon="11.785441561915972"><ele>2.0</ele><time>2026-04-18T14:36:39.001Z</time></trkpt><trkpt lat="42.098221613560966" lon="11.78548963785346"><ele>2.0</ele><time>2026-04-18T14:36:40.001Z</time></trkpt><trkpt lat="42.09815173304116" lon="11.78551077205878"><ele>2.0</ele><time>2026-04-18T14:36:41.001Z</time></trkpt><trkpt lat="42.09814986996717" lon="11.785704675177845"><ele>2.0</ele><time>2026-04-18T14:36:42.001Z</time></trkpt><trkpt lat="42.09813892663962" lon="11.785862016167274"><ele>2.0</ele><time>2026-04-18T14:36:43.001Z</time></trkpt><trkpt lat="42.098116578128" lon="11.786012349907358"><ele>2.0</ele><time>2026-04-18T14:36:44.001Z</time></trkpt><trkpt lat="42.09805244109535" lon="11.786133393320256"><ele>2.0</ele><time>2026-04-18T14:36:45.001Z</time></trkpt><trkpt lat="42.09795409193271" lon="11.786237464190473"><ele>2.0</ele><time>2026-04-18T14:36:46.001Z</time></trkpt><trkpt lat="42.097838728278994" lon="11.786338092084522"><ele>2.0</ele><time>2026-04-18T14:36:47.001Z</time></trkpt><trkpt lat="42.09772443640549" lon="11.786444375335217"><ele>2.0</ele><time>2026-04-18T14:36:48.001Z</time></trkpt><trkpt lat="42.09761599693893" lon="11.786557589256194"><ele>2.0</ele><time>2026-04-18T14:36:49.001Z</time></trkpt><trkpt lat="42.09750185329082" lon="11.78667642173192"><ele>2.0</ele><time>2026-04-18T14:36:50.001Z</time></trkpt><trkpt lat="42.097394603818806" lon="11.786786633803297"><ele>2.0</ele><time>2026-04-18T14:36:51.001Z</time></trkpt><trkpt lat="42.097299548689264" lon="11.78688485307102"><ele>2.8</ele><time>2026-04-18T14:36:52.001Z</time></trkpt><trkpt lat="42.09721413922216" lon="11.786976657683676"><ele>3.6</ele><time>2026-04-18T14:36:53.001Z</time></trkpt><trkpt lat="42.09713369017546" lon="11.7870610409935"><ele>4.3999999999999995</ele><time>2026-04-18T14:36:54.001Z</time></trkpt><trkpt lat="42.09705618895987" lon="11.78714169423177"><ele>5.2</ele><time>2026-04-18T14:36:55.001Z</time></trkpt><trkpt lat="42.09699100130573" lon="11.787235790894586"><ele>6.0</ele><time>2026-04-18T14:36:56.001Z</time></trkpt><trkpt lat="42.09696940714618" lon="11.787348769830093"><ele>6.0</ele><time>2026-04-18T14:36:57.001Z</time></trkpt><trkpt lat="42.0970047638374" lon="11.787484497656791"><ele>6.0</ele><time>2026-04-18T14:36:58.001Z</time></trkpt><trkpt lat="42.097071366999174" lon="11.787591420214866"><ele>6.0</ele><time>2026-04-18T14:36:59.001Z</time></trkpt><trkpt lat="42.09708834319424" lon="11.787761942500689"><ele>6.0</ele><time>2026-04-18T14:37:00.001Z</time></trkpt><trkpt lat="42.0971177315407" lon="11.787912633090912"><ele>6.0</ele><time>2026-04-18T14:37:01.001Z</time></trkpt><trkpt lat="42.097133962979015" lon="11.788070504273431"><ele>6.0</ele><time>2026-04-18T14:37:02.001Z</time></trkpt><trkpt lat="42.09714259353632" lon="11.788226913446183"><ele>6.0</ele><time>2026-04-18T14:37:03.001Z</time></trkpt><trkpt lat="42.09713836187165" lon="11.788384472119183"><ele>6.0</ele><time>2026-04-18T14:37:04.001Z</time></trkpt><trkpt lat="42.0971244061536" lon="11.788531720518474"><ele>6.199999999999999</ele><time>2026-04-18T14:37:05.001Z</time></trkpt><trkpt lat="42.09709890212136" lon="11.78866594719935"><ele>6.3999999999999995</ele><time>2026-04-18T14:37:06.001Z</time></trkpt><trkpt lat="42.0970730784012" lon="11.788801587121615"><ele>6.6</ele><time>2026-04-18T14:37:07.001Z</time></trkpt><trkpt lat="42.097042084022185" lon="11.788923327926389"><ele>6.8</ele><time>2026-04-18T14:37:08.001Z</time></trkpt><trkpt lat="42.09700184016057" lon="11.789034902651506"><ele>7.0</ele><time>2026-04-18T14:37:09.001Z</time></trkpt><trkpt lat="42.09696159178675" lon="11.789137078939328"><ele>7.000000000000001</ele><time>2026-04-18T14:37:10.001Z</time></trkpt><trkpt lat="42.096908471496725" lon="11.789236965789211"><ele>7.0</ele><time>2026-04-18T14:37:12.001Z</time></trkpt><trkpt lat="42.09683605041159" lon="11.789328227137874"><ele>7.0</ele><time>2026-04-18T14:37:14Z</time></trkpt><trkpt lat="42.096780604501944" lon="11.78940625192416"><ele>7.0</ele><time>2026-04-18T14:37:15Z</time></trkpt><trkpt lat="42.09670892455085" lon="11.789449807158029"><ele>7.000000000000001</ele><time>2026-04-18T14:37:16Z</time></trkpt><trkpt lat="42.096624054911516" lon="11.789456370713614"><ele>7.0</ele><time>2026-04-18T14:37:17Z</time></trkpt><trkpt lat="42.09654629548307" lon="11.789468640996828"><ele>7.500000000000001</ele><time>2026-04-18T14:37:18Z</time></trkpt><trkpt lat="42.096476266206494" lon="11.789486564829867"><ele>8.0</ele><time>2026-04-18T14:37:19Z</time></trkpt><trkpt lat="42.09641170751073" lon="11.789502656586807"><ele>8.5</ele><time>2026-04-18T14:37:20Z</time></trkpt><trkpt lat="42.096312729958186" lon="11.789527913611462"><ele>9.0</ele><time>2026-04-18T14:37:22Z</time></trkpt><trkpt lat="42.096233997866065" lon="11.789557178066985"><ele>9.5</ele><time>2026-04-18T14:37:25Z</time></trkpt><trkpt lat="42.09612552772111" lon="11.789594096355797"><ele>10.0</ele><time>2026-04-18T14:37:28Z</time></trkpt><trkpt lat="42.0960504747286" lon="11.789601321235253"><ele>10.0</ele><time>2026-04-18T14:37:30Z</time></trkpt><trkpt lat="42.09594376571791" lon="11.789643998826481"><ele>10.0</ele><time>2026-04-18T14:37:32Z</time></trkpt><trkpt lat="42.095879790717206" lon="11.789659557679057"><ele>10.0</ele><time>2026-04-18T14:37:33Z</time></trkpt><trkpt lat="42.09580512289722" lon="11.789672512381944"><ele>10.0</ele><time>2026-04-18T14:37:34Z</time></trkpt><trkpt lat="42.09573857873781" lon="11.789682007086734"><ele>10.0</ele><time>2026-04-18T14:37:35Z</time></trkpt><trkpt lat="42.09560158871524" lon="11.78970685198313"><ele>10.0</ele><time>2026-04-18T14:37:37Z</time></trkpt><trkpt lat="42.09552886503195" lon="11.789724853722818"><ele>10.0</ele><time>2026-04-18T14:37:38Z</time></trkpt><trkpt lat="42.095460887600126" lon="11.789740187715484"><ele>10.0</ele><time>2026-04-18T14:37:39Z</time></trkpt><trkpt lat="42.09538322195285" lon="11.789762678280058"><ele>10.0</ele><time>2026-04-18T14:37:40Z</time></trkpt><trkpt lat="42.09530917359255" lon="11.789785184318418"><ele>10.0</ele><time>2026-04-18T14:37:41Z</time></trkpt><trkpt lat="42.095236183454894" lon="11.789803163415352"><ele>10.0</ele><time>2026-04-18T14:37:42Z</time></trkpt><trkpt lat="42.09516289317658" lon="11.789823294116879"><ele>10.0</ele><time>2026-04-18T14:37:43Z</time></trkpt><trkpt lat="42.09508910311407" lon="11.789848577370785"><ele>10.0</ele><time>2026-04-18T14:37:44Z</time></trkpt><trkpt lat="42.095013835838856" lon="11.789848091174608"><ele>10.0</ele><time>2026-04-18T14:37:45Z</time></trkpt><trkpt lat="42.09494861985378" lon="11.789858203900309"><ele>10.0</ele><time>2026-04-18T14:37:46Z</time></trkpt><trkpt lat="42.09488122079655" lon="11.789871407018452"><ele>10.0</ele><time>2026-04-18T14:37:47Z</time></trkpt><trkpt lat="42.09481478709142" lon="11.789898569923562"><ele>10.0</ele><time>2026-04-18T14:37:48Z</time></trkpt><trkpt lat="42.094750332567976" lon="11.789937008521687"><ele>10.0</ele><time>2026-04-18T14:37:49Z</time></trkpt><trkpt lat="42.09469055503954" lon="11.789982301625288"><ele>10.0</ele><time>2026-04-18T14:37:50Z</time></trkpt><trkpt lat="42.094644105741104" lon="11.790043594579961"><ele>9.666666666666668</ele><time>2026-04-18T14:37:51Z</time></trkpt><trkpt lat="42.09458095119232" lon="11.790092358664555"><ele>9.333333333333334</ele><time>2026-04-18T14:37:52Z</time></trkpt><trkpt lat="42.09451592683168" lon="11.79014307752536"><ele>9.0</ele><time>2026-04-18T14:37:53Z</time></trkpt><trkpt lat="42.09444639114127" lon="11.790189526797844"><ele>8.666666666666666</ele><time>2026-04-18T14:37:54Z</time></trkpt><trkpt lat="42.0943793520142" lon="11.79024645859936"><ele>8.333333333333332</ele><time>2026-04-18T14:37:55Z</time></trkpt><trkpt lat="42.09431248512442" lon="11.790303973588806"><ele>8.0</ele><time>2026-04-18T14:37:56Z</time></trkpt><trkpt lat="42.09424309218426" lon="11.790367211017351"><ele>9.166666666666666</ele><time>2026-04-18T14:37:57Z</time></trkpt><trkpt lat="42.094168662379914" lon="11.790424647913209"><ele>10.333333333333332</ele><time>2026-04-18T14:37:58Z</time></trkpt><trkpt lat="42.0940959475496" lon="11.79047209427868"><ele>11.5</ele><time>2026-04-18T14:37:59Z</time></trkpt><trkpt lat="42.09402243267291" lon="11.790518776837871"><ele>12.666666666666666</ele><time>2026-04-18T14:38:00Z</time></trkpt><trkpt lat="42.09394823048108" lon="11.79056093462652"><ele>13.833333333333334</ele><time>2026-04-18T14:38:01Z</time></trkpt><trkpt lat="42.093871777708806" lon="11.790605693720622"><ele>15.0</ele><time>2026-04-18T14:38:02Z</time></trkpt><trkpt lat="42.09379412572969" lon="11.79065222727895"><ele>15.666666666666666</ele><time>2026-04-18T14:38:03Z</time></trkpt><trkpt lat="42.093715473658754" lon="11.790700328395602"><ele>16.333333333333332</ele><time>2026-04-18T14:38:04Z</time></trkpt><trkpt lat="42.09363326408968" lon="11.790742282582828"><ele>17.0</ele><time>2026-04-18T14:38:05Z</time></trkpt><trkpt lat="42.093557921502985" lon="11.790763921706262"><ele>17.666666666666664</ele><time>2026-04-18T14:38:06Z</time></trkpt><trkpt lat="42.09348549968608" lon="11.790801970323121"><ele>18.333333333333332</ele><time>2026-04-18T14:38:07Z</time></trkpt><trkpt lat="42.09341982735108" lon="11.790838734260923"><ele>19.0</ele><time>2026-04-18T14:38:08Z</time></trkpt><trkpt lat="42.09335982855666" lon="11.790872322114204"><ele>19.0</ele><time>2026-04-18T14:38:09Z</time></trkpt><trkpt lat="42.09329070555849" lon="11.790911019704259"><ele>19.0</ele><time>2026-04-18T14:38:10Z</time></trkpt><trkpt lat="42.09322409562621" lon="11.790958220292936"><ele>19.0</ele><time>2026-04-18T14:38:11Z</time></trkpt><trkpt lat="42.093156017341265" lon="11.791007715718438"><ele>19.0</ele><time>2026-04-18T14:38:12Z</time></trkpt><trkpt lat="42.09309519682356" lon="11.79105684396104"><ele>19.0</ele><time>2026-04-18T14:38:13Z</time></trkpt><trkpt lat="42.09303969873555" lon="11.791102840032599"><ele>19.0</ele><time>2026-04-18T14:38:14Z</time></trkpt><trkpt lat="42.09295453129951" lon="11.791174884993408"><ele>18.666666666666664</ele><time>2026-04-18T14:38:16Z</time></trkpt><trkpt lat="42.0928973746581" lon="11.791223235021858"><ele>18.333333333333332</ele><time>2026-04-18T14:38:17Z</time></trkpt><trkpt lat="42.09280096033014" lon="11.791304760422168"><ele>18.0</ele><time>2026-04-18T14:38:19Z</time></trkpt><trkpt lat="42.09274377956347" lon="11.791354251363945"><ele>17.666666666666668</ele><time>2026-04-18T14:38:20Z</time></trkpt><trkpt lat="42.09268642108934" lon="11.791403896112854"><ele>17.333333333333336</ele><time>2026-04-18T14:38:21Z</time></trkpt><trkpt lat="42.09263011999844" lon="11.791452625678494"><ele>17.0</ele><time>2026-04-18T14:38:22Z</time></trkpt><trkpt lat="42.092572106032286" lon="11.79150283779237"><ele>17.0</ele><time>2026-04-18T14:38:23Z</time></trkpt><trkpt lat="42.092512271237084" lon="11.791557258431219"><ele>17.0</ele><time>2026-04-18T14:38:24Z</time></trkpt><trkpt lat="42.092462385742756" lon="11.79163718956769"><ele>17.0</ele><time>2026-04-18T14:38:25Z</time></trkpt><trkpt lat="42.09240052711299" lon="11.791689672462391"><ele>17.0</ele><time>2026-04-18T14:38:26Z</time></trkpt><trkpt lat="42.09233569553231" lon="11.79174355525734"><ele>17.0</ele><time>2026-04-18T14:38:27Z</time></trkpt><trkpt lat="42.09227138254926" lon="11.791798677869389"><ele>17.0</ele><time>2026-04-18T14:38:28Z</time></trkpt><trkpt lat="42.09220592346473" lon="11.791854172484426"><ele>16.666666666666668</ele><time>2026-04-18T14:38:29Z</time></trkpt><trkpt lat="42.092139092798945" lon="11.791916676985469"><ele>16.333333333333336</ele><time>2026-04-18T14:38:30Z</time></trkpt><trkpt lat="42.09207875773201" lon="11.791976205491418"><ele>16.0</ele><time>2026-04-18T14:38:31Z</time></trkpt><trkpt lat="42.09202637383452" lon="11.792026763249634"><ele>15.666666666666668</ele><time>2026-04-18T14:38:32Z</time></trkpt><trkpt lat="42.09195214979051" lon="11.792096519460443"><ele>15.333333333333334</ele><time>2026-04-18T14:38:33.001Z</time></trkpt><trkpt lat="42.091864612108935" lon="11.792176658759287"><ele>15.0</ele><time>2026-04-18T14:38:34.001Z</time></trkpt><trkpt lat="42.09178057744195" lon="11.792252693652573"><ele>15.0</ele><time>2026-04-18T14:38:35.001Z</time></trkpt><trkpt lat="42.09170183169232" lon="11.79232645026694"><ele>15.0</ele><time>2026-04-18T14:38:36.001Z</time></trkpt><trkpt lat="42.091786857208405" lon="11.79223347081604"><ele>15.0</ele><time>2026-04-18T14:38:37.001Z</time></trkpt><trkpt lat="42.09168759857379" lon="11.792318274798811"><ele>15.0</ele><time>2026-04-18T14:38:38.001Z</time></trkpt><trkpt lat="42.09161224390682" lon="11.792385405371734"><ele>15.0</ele><time>2026-04-18T14:38:40.001Z</time></trkpt><trkpt lat="42.09152034015884" lon="11.792467324701283"><ele>15.0</ele><time>2026-04-18T14:38:42.001Z</time></trkpt><trkpt lat="42.09145935561749" lon="11.792513926990813"><ele>15.0</ele><time>2026-04-18T14:38:43.001Z</time></trkpt><trkpt lat="42.09140136152227" lon="11.7925562740846"><ele>15.0</ele><time>2026-04-18T14:38:44.001Z</time></trkpt><trkpt lat="42.09131630826666" lon="11.792632785213165"><ele>15.0</ele><time>2026-04-18T14:38:46.001Z</time></trkpt><trkpt lat="42.09126825060177" lon="11.792703715070008"><ele>15.0</ele><time>2026-04-18T14:38:56.001Z</time></trkpt><trkpt lat="42.0911918710771" lon="11.792770853867886"><ele>15.0</ele><time>2026-04-18T14:38:58.001Z</time></trkpt><trkpt lat="42.091113117962735" lon="11.792802690099512"><ele>15.0</ele><time>2026-04-18T14:39:00.001Z</time></trkpt><trkpt lat="42.09103774007129" lon="11.79281953000617"><ele>15.0</ele><time>2026-04-18T14:39:02.001Z</time></trkpt><trkpt lat="42.09097655851723" lon="11.792748570755002"><ele>15.0</ele><time>2026-04-18T14:39:05.001Z</time></trkpt><trkpt lat="42.09091589455046" lon="11.79267918491558"><ele>15.0</ele><time>2026-04-18T14:39:07.001Z</time></trkpt><trkpt lat="42.090857248979766" lon="11.792604956035824"><ele>15.0</ele><time>2026-04-18T14:39:17.001Z</time></trkpt><trkpt lat="42.090776696526966" lon="11.792506988406014"><ele>15.0</ele><time>2026-04-18T14:39:38Z</time></trkpt><trkpt lat="42.090702139036495" lon="11.792418060705241"><ele>13.5</ele><time>2026-04-18T14:39:40Z</time></trkpt><trkpt lat="42.09062517907673" lon="11.792338258935365"><ele>12.0</ele><time>2026-04-18T14:39:42Z</time></trkpt><trkpt lat="42.09056420992872" lon="11.792296737960893"><ele>10.5</ele><time>2026-04-18T14:39:44Z</time></trkpt><trkpt lat="42.0904934411597" lon="11.792280013314063"><ele>9.0</ele><time>2026-04-18T14:39:46Z</time></trkpt><trkpt lat="42.09041319556435" lon="11.792288292200809"><ele>7.5</ele><time>2026-04-18T14:39:49Z</time></trkpt><trkpt lat="42.09038465087508" lon="11.792384690321507"><ele>6.0</ele><time>2026-04-18T14:39:50Z</time></trkpt><trkpt lat="42.090321875602896" lon="11.792472719711682"><ele>6.0</ele><time>2026-04-18T14:39:52Z</time></trkpt><trkpt lat="42.090274115976165" lon="11.792570895881363"><ele>6.0</ele><time>2026-04-18T14:39:54Z</time></trkpt><trkpt lat="42.090239001082644" lon="11.792643772978568"><ele>6.0</ele><time>2026-04-18T14:39:56Z</time></trkpt><trkpt lat="42.09018891171151" lon="11.792748895401237"><ele>6.0</ele><time>2026-04-18T14:39:58Z</time></trkpt><trkpt lat="42.090159251049805" lon="11.792829428902415"><ele>6.0</ele><time>2026-04-18T14:40:00Z</time></trkpt><trkpt lat="42.0901117907065" lon="11.792921782822114"><ele>6.0</ele><time>2026-04-18T14:40:03Z</time></trkpt><trkpt lat="42.090074618239946" lon="11.793018312381482"><ele>6.4</ele><time>2026-04-18T14:40:05Z</time></trkpt><trkpt lat="42.09002089724596" lon="11.79313616528054"><ele>6.8</ele><time>2026-04-18T14:40:07Z</time></trkpt><trkpt lat="42.089967170372205" lon="11.793243221587678"><ele>7.200000000000001</ele><time>2026-04-18T14:40:09Z</time></trkpt><trkpt lat="42.0899070491711" lon="11.793359973444314"><ele>7.6000000000000005</ele><time>2026-04-18T14:40:11Z</time></trkpt><trkpt lat="42.089848364789965" lon="11.79348183334499"><ele>8.0</ele><time>2026-04-18T14:40:13Z</time></trkpt><trkpt lat="42.089811706768934" lon="11.793561229712784"><ele>7.0</ele><time>2026-04-18T14:40:15Z</time></trkpt><trkpt lat="42.089746766817676" lon="11.793678953395894"><ele>6.000000000000001</ele><time>2026-04-18T14:40:17Z</time></trkpt><trkpt lat="42.089708448960984" lon="11.793794611805488"><ele>5.0</ele><time>2026-04-18T14:40:19Z</time></trkpt><trkpt lat="42.08967537182139" lon="11.793869592518405"><ele>4.0</ele><time>2026-04-18T14:40:23Z</time></trkpt><trkpt lat="42.08962582867969" lon="11.79396057440732"><ele>3.0</ele><time>2026-04-18T14:40:25Z</time></trkpt><trkpt lat="42.08956544685623" lon="11.794086624846567"><ele>3.0</ele><time>2026-04-18T14:40:27Z</time></trkpt><trkpt lat="42.08953229650591" lon="11.794163680038112"><ele>3.0</ele><time>2026-04-18T14:40:28Z</time></trkpt><trkpt lat="42.089487627383185" lon="11.794255251279283"><ele>3.0</ele><time>2026-04-18T14:40:29Z</time></trkpt><trkpt lat="42.089438326828905" lon="11.794365471753167"><ele>3.0</ele><time>2026-04-18T14:40:30.001Z</time></trkpt><trkpt lat="42.089375147731936" lon="11.79449699680869"><ele>3.0</ele><time>2026-04-18T14:40:31.001Z</time></trkpt><trkpt lat="42.089316649399365" lon="11.79462511891582"><ele>2.6666666666666665</ele><time>2026-04-18T14:40:32.001Z</time></trkpt><trkpt lat="42.08926404588601" lon="11.794725574326824"><ele>2.3333333333333335</ele><time>2026-04-18T14:40:33.001Z</time></trkpt><trkpt lat="42.089222204755636" lon="11.794815032031966"><ele>2.0</ele><time>2026-04-18T14:40:34.001Z</time></trkpt><trkpt lat="42.08918472429589" lon="11.794898399978027"><ele>1.6666666666666665</ele><time>2026-04-18T14:40:35.001Z</time></trkpt><trkpt lat="42.08913395817125" lon="11.794973568298202"><ele>1.3333333333333333</ele><time>2026-04-18T14:40:36.001Z</time></trkpt><trkpt lat="42.089104497432096" lon="11.79506998971025"><ele>1.0</ele><time>2026-04-18T14:40:37.001Z</time></trkpt><trkpt lat="42.089065297028895" lon="11.795149057894996"><ele>1.3333333333333333</ele><time>2026-04-18T14:40:38.001Z</time></trkpt><trkpt lat="42.089002588048146" lon="11.795274110504183"><ele>1.6666666666666665</ele><time>2026-04-18T14:40:40.001Z</time></trkpt><trkpt lat="42.088956985307185" lon="11.795352102088573"><ele>2.0</ele><time>2026-04-18T14:40:43.001Z</time></trkpt><trkpt lat="42.08892312742839" lon="11.795425040946517"><ele>2.3333333333333335</ele><time>2026-04-18T14:40:46.001Z</time></trkpt><trkpt lat="42.08888307101269" lon="11.795508735863892"><ele>2.6666666666666665</ele><time>2026-04-18T14:40:48.001Z</time></trkpt><trkpt lat="42.088829015541684" lon="11.795611506532527"><ele>3.0</ele><time>2026-04-18T14:40:50.001Z</time></trkpt><trkpt lat="42.08880050475186" lon="11.795697417851475"><ele>3.0</ele><time>2026-04-18T14:40:52.001Z</time></trkpt><trkpt lat="42.088755827659476" lon="11.795814963697605"><ele>3.0</ele><time>2026-04-18T14:40:54.001Z</time></trkpt><trkpt lat="42.088707048499955" lon="11.795908032234042"><ele>3.0</ele><time>2026-04-18T14:40:55.001Z</time></trkpt><trkpt lat="42.088648491599216" lon="11.796034619286278"><ele>3.0</ele><time>2026-04-18T14:40:56.001Z</time></trkpt><trkpt lat="42.0885732733633" lon="11.79619265770417"><ele>3.0</ele><time>2026-04-18T14:40:57.001Z</time></trkpt><trkpt lat="42.08849070576402" lon="11.796361844497714"><ele>2.8</ele><time>2026-04-18T14:40:58.001Z</time></trkpt><trkpt lat="42.08842800211259" lon="11.79650273872598"><ele>2.5999999999999996</ele><time>2026-04-18T14:40:59.001Z</time></trkpt><trkpt lat="42.08838230371621" lon="11.796612849481654"><ele>2.4000000000000004</ele><time>2026-04-18T14:41:00.001Z</time></trkpt><trkpt lat="42.08833893358199" lon="11.796697917294301"><ele>2.2</ele><time>2026-04-18T14:41:01.001Z</time></trkpt><trkpt lat="42.08826977483942" lon="11.796774773493901"><ele>2.0</ele><time>2026-04-18T14:41:03.001Z</time></trkpt><trkpt lat="42.08819295551404" lon="11.796782754484992"><ele>2.0</ele><time>2026-04-18T14:41:05.001Z</time></trkpt><trkpt lat="42.088113493366485" lon="11.796726310241974"><ele>2.0</ele><time>2026-04-18T14:41:08.001Z</time></trkpt><trkpt lat="42.08808328603459" lon="11.796510918238186"><ele>2.0</ele><time>2026-04-18T14:41:10.001Z</time></trkpt><trkpt lat="42.088096714114606" lon="11.796412921471891"><ele>2.0</ele><time>2026-04-18T14:41:12.001Z</time></trkpt><trkpt lat="42.08811451663391" lon="11.796276704332932"><ele>2.0</ele><time>2026-04-18T14:41:14.001Z</time></trkpt><trkpt lat="42.088135487226396" lon="11.796118963139767"><ele>1.9999999999999998</ele><time>2026-04-18T14:41:16.001Z</time></trkpt><trkpt lat="42.088153906353625" lon="11.796028089042641"><ele>2.0</ele><time>2026-04-18T14:41:17.001Z</time></trkpt><trkpt lat="42.08817504839959" lon="11.79594604125434"><ele>2.0</ele><time>2026-04-18T14:41:18.001Z</time></trkpt><trkpt lat="42.088218229661294" lon="11.795804882526483"><ele>2.0</ele><time>2026-04-18T14:41:20.001Z</time></trkpt><trkpt lat="42.0882486894777" lon="11.795726987362329"><ele>1.9999999999999998</ele><time>2026-04-18T14:41:21.001Z</time></trkpt><trkpt lat="42.088283450897286" lon="11.795639797488862"><ele>2.0</ele><time>2026-04-18T14:41:23.001Z</time></trkpt><trkpt lat="42.088314098445935" lon="11.79556292616624"><ele>2.1666666666666665</ele><time>2026-04-18T14:41:25.001Z</time></trkpt><trkpt lat="42.088346717739924" lon="11.795485830423068"><ele>2.333333333333333</ele><time>2026-04-18T14:41:27Z</time></trkpt><trkpt lat="42.08837739084684" lon="11.795397763263704"><ele>2.5</ele><time>2026-04-18T14:41:29Z</time></trkpt><trkpt lat="42.08840988822059" lon="11.795288791047401"><ele>2.6666666666666665</ele><time>2026-04-18T14:41:31Z</time></trkpt><trkpt lat="42.08844941948114" lon="11.795156232093655"><ele>2.8333333333333335</ele><time>2026-04-18T14:41:33Z</time></trkpt><trkpt lat="42.0884729754829" lon="11.795077242427547"><ele>3.0</ele><time>2026-04-18T14:41:34Z</time></trkpt><trkpt lat="42.088499697697294" lon="11.794987635594621"><ele>2.6</ele><time>2026-04-18T14:41:35Z</time></trkpt><trkpt lat="42.08864268152404" lon="11.794969194659965"><ele>2.1999999999999997</ele><time>2026-04-18T14:41:36Z</time></trkpt><trkpt lat="42.088678142594006" lon="11.79489879575167"><ele>1.8</ele><time>2026-04-18T14:41:37Z</time></trkpt><trkpt lat="42.088714308745494" lon="11.794818635787117"><ele>1.4</ele><time>2026-04-18T14:41:38Z</time></trkpt><trkpt lat="42.088770254926594" lon="11.794697527592618"><ele>1.0</ele><time>2026-04-18T14:41:40Z</time></trkpt><trkpt lat="42.08881956443996" lon="11.794578195392276"><ele>1.0</ele><time>2026-04-18T14:41:42Z</time></trkpt><trkpt lat="42.08888158055373" lon="11.794458819110824"><ele>1.0</ele><time>2026-04-18T14:41:44Z</time></trkpt><trkpt lat="42.088941433220675" lon="11.794343826178938"><ele>1.0</ele><time>2026-04-18T14:41:46Z</time></trkpt><trkpt lat="42.088999863101556" lon="11.79421106226103"><ele>1.0</ele><time>2026-04-18T14:41:48Z</time></trkpt><trkpt lat="42.0890556691847" lon="11.794073771338326"><ele>1.0</ele><time>2026-04-18T14:41:50Z</time></trkpt><trkpt lat="42.089110636024685" lon="11.793936057912056"><ele>1.25</ele><time>2026-04-18T14:41:52Z</time></trkpt><trkpt lat="42.08917806034851" lon="11.79380987929225"><ele>1.5</ele><time>2026-04-18T14:41:54Z</time></trkpt><trkpt lat="42.08924821924045" lon="11.793685132421055"><ele>1.75</ele><time>2026-04-18T14:41:56Z</time></trkpt><trkpt lat="42.08931442430076" lon="11.793554506477303"><ele>2.0</ele><time>2026-04-18T14:41:58Z</time></trkpt><trkpt lat="42.08937113217179" lon="11.793432420822242"><ele>2.0</ele><time>2026-04-18T14:42:00Z</time></trkpt><trkpt lat="42.08941490097847" lon="11.793337254176823"><ele>1.9999999999999998</ele><time>2026-04-18T14:42:02Z</time></trkpt><trkpt lat="42.089465277353156" lon="11.793245629070428"><ele>2.0</ele><time>2026-04-18T14:42:04Z</time></trkpt><trkpt lat="42.08950037915939" lon="11.793156754651616"><ele>2.0</ele><time>2026-04-18T14:42:06Z</time></trkpt><trkpt lat="42.08953245029393" lon="11.793079003761054"><ele>1.9999999999999998</ele><time>2026-04-18T14:42:08Z</time></trkpt><trkpt lat="42.089557285273315" lon="11.792996534597892"><ele>2.0</ele><time>2026-04-18T14:42:10Z</time></trkpt><trkpt lat="42.0895520324562" lon="11.792900368161947"><ele>2.0</ele><time>2026-04-18T14:42:14Z</time></trkpt><trkpt lat="42.08954375550661" lon="11.792807951319874"><ele>2.0</ele><time>2026-04-18T14:42:20Z</time></trkpt><trkpt lat="42.08956567554936" lon="11.792720472721653"><ele>1.9999999999999998</ele><time>2026-04-18T14:42:26Z</time></trkpt><trkpt lat="42.08952042823861" lon="11.792789996415705"><ele>2.0</ele><time>2026-04-18T14:42:39Z</time></trkpt><trkpt lat="42.08950094780713" lon="11.792879963616187"><ele>2.0</ele><time>2026-04-18T14:42:41Z</time></trkpt><trkpt lat="42.08944020916433" lon="11.792959231124591"><ele>1.9999999999999998</ele><time>2026-04-18T14:42:44Z</time></trkpt><trkpt lat="42.08944052130783" lon="11.793057999806068"><ele>2.0</ele><time>2026-04-18T14:42:47Z</time></trkpt><trkpt lat="42.08945867069125" lon="11.79314069465273"><ele>2.0</ele><time>2026-04-18T14:42:50.001Z</time></trkpt><trkpt lat="42.0894347929844" lon="11.79304430857869"><ele>2.0</ele><time>2026-04-18T14:47:50.999Z</time></trkpt><trkpt lat="42.08942955006567" lon="11.792958492700595"><ele>1.9999999999999998</ele><time>2026-04-18T14:47:57.999Z</time></trkpt><trkpt lat="42.08948198020864" lon="11.79290273798175"><ele>2.0</ele><time>2026-04-18T14:48:06.999Z</time></trkpt><trkpt lat="42.089541243565364" lon="11.79285315934162"><ele>2.0</ele><time>2026-04-18T14:48:13.999Z</time></trkpt><trkpt lat="42.089572670946325" lon="11.792765846922759"><ele>1.9999999999999998</ele><time>2026-04-18T14:48:22Z</time></trkpt><trkpt lat="42.08959958095977" lon="11.792682223581163"><ele>2.0</ele><time>2026-04-18T14:48:29Z</time></trkpt><trkpt lat="42.089646030718114" lon="11.792623398079794"><ele>2.0</ele><time>2026-04-18T14:48:42Z</time></trkpt><trkpt lat="42.089711455005364" lon="11.792574721790956"><ele>2.0</ele><time>2026-04-18T14:49:58.995Z</time></trkpt><trkpt lat="42.089770963598255" lon="11.79253719587624"><ele>1.9999999999999998</ele><time>2026-04-18T14:50:04.996Z</time></trkpt><trkpt lat="42.089829663955555" lon="11.792488560097787"><ele>2.0</ele><time>2026-04-18T14:50:29.998Z</time></trkpt><trkpt lat="42.08988820748808" lon="11.792436088152156"><ele>2.0</ele><time>2026-04-18T14:52:24Z</time></trkpt><trkpt lat="42.08993698824917" lon="11.792372187069505"><ele>1.9999999999999998</ele><time>2026-04-18T14:52:31.001Z</time></trkpt><trkpt lat="42.08997653500532" lon="11.792302892122335"><ele>2.0</ele><time>2026-04-18T14:52:57.001Z</time></trkpt><trkpt lat="42.08991100592954" lon="11.792352700498514"><ele>2.0</ele><time>2026-04-18T16:16:59Z</time></trkpt><trkpt lat="42.089868825740986" lon="11.79227077435214"><ele>2.0</ele><time>2026-04-18T16:17:23Z</time></trkpt><trkpt lat="42.08981408723751" lon="11.792224279620713"><ele>1.9999999999999998</ele><time>2026-04-18T16:17:31Z</time></trkpt><trkpt lat="42.089754607653255" lon="11.792189221846785"><ele>2.0</ele><time>2026-04-18T16:17:39Z</time></trkpt><trkpt lat="42.089694953710044" lon="11.792139074554397"><ele>2.0</ele><time>2026-04-18T16:17:48Z</time></trkpt><trkpt lat="42.08966548438814" lon="11.792061362021853"><ele>1.9999999999999998</ele><time>2026-04-18T16:18:07Z</time></trkpt><trkpt lat="42.08961736664832" lon="11.792001041986559"><ele>2.0</ele><time>2026-04-18T16:18:32Z</time></trkpt><trkpt lat="42.08954481749121" lon="11.792019769238706"><ele>2.0</ele><time>2026-04-18T16:19:11Z</time></trkpt><trkpt lat="42.08954284642636" lon="11.791928725631221"><ele>2.0</ele><time>2026-04-18T16:19:24Z</time></trkpt><trkpt lat="42.08953575236765" lon="11.791840994489332"><ele>1.9999999999999998</ele><time>2026-04-18T16:19:36Z</time></trkpt><trkpt lat="42.08950970577009" lon="11.791752088461536"><ele>2.0</ele><time>2026-04-18T16:20:23Z</time></trkpt><trkpt lat="42.089518765624504" lon="11.791642094090681"><ele>2.0</ele><time>2026-04-18T16:20:37Z</time></trkpt><trkpt lat="42.08951957102134" lon="11.791557148125289"><ele>1.9999999999999998</ele><time>2026-04-18T16:20:50Z</time></trkpt><trkpt lat="42.08954827105721" lon="11.791639907838634"><ele>2.0</ele><time>2026-04-18T16:21:26Z</time></trkpt><trkpt lat="42.089550772942" lon="11.791727269158928"><ele>2.0</ele><time>2026-04-18T16:21:37Z</time></trkpt><trkpt lat="42.08957112241288" lon="11.791808875799264"><ele>2.0</ele><time>2026-04-18T16:21:49Z</time></trkpt><trkpt lat="42.089591328880225" lon="11.791900669750348"><ele>1.9999999999999998</ele><time>2026-04-18T16:22:03Z</time></trkpt><trkpt lat="42.08958702004437" lon="11.791988376749782"><ele>2.0</ele><time>2026-04-18T16:22:17Z</time></trkpt><trkpt lat="42.089617739245575" lon="11.79206402150968"><ele>2.0</ele><time>2026-04-18T16:22:38Z</time></trkpt><trkpt lat="42.08964250258382" lon="11.792145649833783"><ele>1.9999999999999998</ele><time>2026-04-18T16:22:54Z</time></trkpt><trkpt lat="42.08964918115368" lon="11.79224056313668"><ele>2.0</ele><time>2026-04-18T16:23:24Z</time></trkpt><trkpt lat="42.0896551083804" lon="11.792325444882408"><ele>2.0</ele><time>2026-04-18T16:23:35Z</time></trkpt><trkpt lat="42.08965060253514" lon="11.792412261732172"><ele>2.0</ele><time>2026-04-18T16:27:31Z</time></trkpt><trkpt lat="42.08956685358188" lon="11.792429000594815"><ele>1.9999999999999998</ele><time>2026-04-18T16:27:41Z</time></trkpt><trkpt lat="42.08960819830072" lon="11.792364524967315"><ele>2.0</ele><time>2026-04-18T16:29:57Z</time></trkpt><trkpt lat="42.089680743982655" lon="11.792363885725937"><ele>2.0</ele><time>2026-04-18T16:30:36Z</time></trkpt><trkpt lat="42.08974501495121" lon="11.792395875590275"><ele>1.9999999999999998</ele><time>2026-04-18T16:33:04Z</time></trkpt><trkpt lat="42.08980989436277" lon="11.792412529738057"><ele>2.0</ele><time>2026-04-18T16:33:13Z</time></trkpt><trkpt lat="42.08985066642277" lon="11.79248560226554"><ele>2.0</ele><time>2026-04-18T16:33:29Z</time></trkpt><trkpt lat="42.08978605440536" lon="11.792470158728328"><ele>2.0</ele><time>2026-04-18T16:34:45Z</time></trkpt><trkpt lat="42.08975859496371" lon="11.792550105816078"><ele>1.9999999999999998</ele><time>2026-04-18T16:34:54Z</time></trkpt><trkpt lat="42.08970478634323" lon="11.79260553178773"><ele>2.0</ele><time>2026-04-18T16:35:01Z</time></trkpt><trkpt lat="42.0896456148948" lon="11.792689950555946"><ele>2.0</ele><time>2026-04-18T16:35:11Z</time></trkpt><trkpt lat="42.089615473911714" lon="11.792774674193664"><ele>1.9999999999999998</ele><time>2026-04-18T16:35:22Z</time></trkpt><trkpt lat="42.08958975749996" lon="11.792858141999913"><ele>2.0</ele><time>2026-04-18T16:35:32Z</time></trkpt><trkpt lat="42.08955901402533" lon="11.792937934745746"><ele>2.0</ele><time>2026-04-18T16:35:40Z</time></trkpt><trkpt lat="42.08954240872382" lon="11.79302663151122"><ele>1.9999999999999998</ele><time>2026-04-18T16:35:52Z</time></trkpt><trkpt lat="42.08948840967529" lon="11.793084329143442"><ele>2.0</ele><time>2026-04-18T16:36:08Z</time></trkpt><trkpt lat="42.08945375065573" lon="11.793177443110942"><ele>2.0</ele><time>2026-04-18T16:38:53Z</time></trkpt><trkpt lat="42.089437328919885" lon="11.793279826625628"><ele>2.0</ele><time>2026-04-18T16:38:56Z</time></trkpt><trkpt lat="42.08939844484697" lon="11.793382969113827"><ele>1.9999999999999998</ele><time>2026-04-18T16:38:59Z</time></trkpt><trkpt lat="42.08934875813763" lon="11.793472940146753"><ele>2.0</ele><time>2026-04-18T16:39:02Z</time></trkpt><trkpt lat="42.08930425036702" lon="11.793569202698187"><ele>2.142857142857143</ele><time>2026-04-18T16:39:05Z</time></trkpt><trkpt lat="42.089263329896724" lon="11.793669228479306"><ele>2.2857142857142856</ele><time>2026-04-18T16:39:08Z</time></trkpt><trkpt lat="42.08922780198443" lon="11.793741276906026"><ele>2.4285714285714284</ele><time>2026-04-18T16:39:10Z</time></trkpt><trkpt lat="42.089191975753515" lon="11.793823324858888"><ele>2.571428571428571</ele><time>2026-04-18T16:39:12Z</time></trkpt><trkpt lat="42.08914582490623" lon="11.793892005783064"><ele>2.7142857142857144</ele><time>2026-04-18T16:39:14Z</time></trkpt><trkpt lat="42.089096270190936" lon="11.793963185397741"><ele>2.8571428571428568</ele><time>2026-04-18T16:39:16Z</time></trkpt><trkpt lat="42.08905590051745" lon="11.794039233276713"><ele>3.0</ele><time>2026-04-18T16:39:18Z</time></trkpt><trkpt lat="42.089026283998855" lon="11.79412621446665"><ele>2.714285714285714</ele><time>2026-04-18T16:39:20Z</time></trkpt><trkpt lat="42.088993711212346" lon="11.794214210539202"><ele>2.4285714285714284</ele><time>2026-04-18T16:39:22Z</time></trkpt><trkpt lat="42.088960915190945" lon="11.79430840932261"><ele>2.142857142857143</ele><time>2026-04-18T16:39:24Z</time></trkpt><trkpt lat="42.08893091975263" lon="11.794394674588782"><ele>1.857142857142857</ele><time>2026-04-18T16:39:26Z</time></trkpt><trkpt lat="42.088878314972085" lon="11.794493156287272"><ele>1.5714285714285712</ele><time>2026-04-18T16:39:29Z</time></trkpt><trkpt lat="42.08883868672915" lon="11.794569638756077"><ele>1.2857142857142856</ele><time>2026-04-18T16:39:31Z</time></trkpt><trkpt lat="42.088803647905436" lon="11.79464311227189"><ele>1.0</ele><time>2026-04-18T16:39:33Z</time></trkpt><trkpt lat="42.08876694467576" lon="11.794718756520481"><ele>0.9999999999999999</ele><time>2026-04-18T16:39:35Z</time></trkpt><trkpt lat="42.08872481110848" lon="11.794803015552258"><ele>1.0</ele><time>2026-04-18T16:39:38Z</time></trkpt><trkpt lat="42.08869085254637" lon="11.79489479690626"><ele>1.0</ele><time>2026-04-18T16:39:41Z</time></trkpt><trkpt lat="42.08865089720865" lon="11.794987568263915"><ele>1.0</ele><time>2026-04-18T16:39:44Z</time></trkpt><trkpt lat="42.088608716305224" lon="11.795088707708786"><ele>0.9999999999999999</ele><time>2026-04-18T16:39:47Z</time></trkpt><trkpt lat="42.08857086384378" lon="11.795157952934806"><ele>1.0</ele><time>2026-04-18T16:39:49Z</time></trkpt><trkpt lat="42.08853417502008" lon="11.795259333910709"><ele>1.3333333333333333</ele><time>2026-04-18T16:39:52Z</time></trkpt><trkpt lat="42.08852084669322" lon="11.795349595872274"><ele>1.6666666666666665</ele><time>2026-04-18T16:39:55Z</time></trkpt><trkpt lat="42.08850044879913" lon="11.79543805255342"><ele>2.0</ele><time>2026-04-18T16:39:57Z</time></trkpt><trkpt lat="42.08847468356833" lon="11.7955327811371"><ele>2.3333333333333335</ele><time>2026-04-18T16:39:59Z</time></trkpt><trkpt lat="42.08846235071147" lon="11.795638480772743"><ele>2.6666666666666665</ele><time>2026-04-18T16:40:01Z</time></trkpt><trkpt lat="42.08843558062526" lon="11.795771012459403"><ele>3.0</ele><time>2026-04-18T16:40:03Z</time></trkpt><trkpt lat="42.08840167574994" lon="11.795888990546091"><ele>3.0</ele><time>2026-04-18T16:40:05Z</time></trkpt><trkpt lat="42.08837219801608" lon="11.795991403677588"><ele>3.0</ele><time>2026-04-18T16:40:07Z</time></trkpt><trkpt lat="42.08834117211345" lon="11.796085178223375"><ele>3.0</ele><time>2026-04-18T16:40:09Z</time></trkpt><trkpt lat="42.08830838659635" lon="11.796175659091656"><ele>3.0</ele><time>2026-04-18T16:40:11Z</time></trkpt><trkpt lat="42.088284955754936" lon="11.796281107640613"><ele>3.0</ele><time>2026-04-18T16:40:13Z</time></trkpt><trkpt lat="42.088264140519314" lon="11.796378066147767"><ele>3.0</ele><time>2026-04-18T16:40:15Z</time></trkpt><trkpt lat="42.08821474120439" lon="11.796491282922752"><ele>2.8571428571428568</ele><time>2026-04-18T16:40:18Z</time></trkpt><trkpt lat="42.08817744025522" lon="11.79657368621748"><ele>2.7142857142857144</ele><time>2026-04-18T16:40:20Z</time></trkpt><trkpt lat="42.08814433257541" lon="11.79665474605333"><ele>2.571428571428571</ele><time>2026-04-18T16:40:22Z</time></trkpt><trkpt lat="42.088125659000475" lon="11.79673813064173"><ele>2.4285714285714284</ele><time>2026-04-18T16:40:24Z</time></trkpt><trkpt lat="42.08814536087424" lon="11.796833420482495"><ele>2.2857142857142856</ele><time>2026-04-18T16:40:26Z</time></trkpt><trkpt lat="42.08816217119087" lon="11.796933887551862"><ele>2.142857142857143</ele><time>2026-04-18T16:40:29Z</time></trkpt><trkpt lat="42.08814351264985" lon="11.797035986484456"><ele>2.0</ele><time>2026-04-18T16:40:33Z</time></trkpt><trkpt lat="42.08810621058534" lon="11.79716857176995"><ele>2.833333333333333</ele><time>2026-04-18T16:43:13Z</time></trkpt><trkpt lat="42.08805615014361" lon="11.79727143702653"><ele>3.666666666666667</ele><time>2026-04-18T16:43:15Z</time></trkpt><trkpt lat="42.08799377712223" lon="11.797406962805598"><ele>4.5</ele><time>2026-04-18T16:43:17Z</time></trkpt><trkpt lat="42.08795472277437" lon="11.797491999013229"><ele>5.333333333333334</ele><time>2026-04-18T16:43:18Z</time></trkpt><trkpt lat="42.08791005579038" lon="11.797584375895102"><ele>6.166666666666667</ele><time>2026-04-18T16:43:19Z</time></trkpt><trkpt lat="42.08787210898886" lon="11.797673109799833"><ele>7.0</ele><time>2026-04-18T16:43:20Z</time></trkpt><trkpt lat="42.08783091653836" lon="11.797759873894831"><ele>7.6</ele><time>2026-04-18T16:43:21Z</time></trkpt><trkpt lat="42.08779365616219" lon="11.797849947435315"><ele>8.2</ele><time>2026-04-18T16:43:22Z</time></trkpt><trkpt lat="42.08774620256701" lon="11.797954908297461"><ele>8.8</ele><time>2026-04-18T16:43:23Z</time></trkpt><trkpt lat="42.087696880119935" lon="11.798055888722212"><ele>9.4</ele><time>2026-04-18T16:43:24Z</time></trkpt><trkpt lat="42.0876436348958" lon="11.798166805768501"><ele>10.0</ele><time>2026-04-18T16:43:25Z</time></trkpt><trkpt lat="42.08757658619271" lon="11.798281124640564"><ele>10.0</ele><time>2026-04-18T16:43:26Z</time></trkpt><trkpt lat="42.08752442046216" lon="11.79840517519827"><ele>10.0</ele><time>2026-04-18T16:43:27Z</time></trkpt><trkpt lat="42.087483280881884" lon="11.798498843686696"><ele>10.0</ele><time>2026-04-18T16:43:28Z</time></trkpt><trkpt lat="42.087440823367785" lon="11.798592695703396"><ele>10.0</ele><time>2026-04-18T16:43:29Z</time></trkpt><trkpt lat="42.087390353143796" lon="11.79869996937838"><ele>10.0</ele><time>2026-04-18T16:43:30Z</time></trkpt><trkpt lat="42.08733879225674" lon="11.798803506831046"><ele>9.5</ele><time>2026-04-18T16:43:31Z</time></trkpt><trkpt lat="42.08729428498118" lon="11.798893958872494"><ele>9.0</ele><time>2026-04-18T16:43:32Z</time></trkpt><trkpt lat="42.08725602435153" lon="11.798975260702099"><ele>8.5</ele><time>2026-04-18T16:43:33Z</time></trkpt><trkpt lat="42.0872148924129" lon="11.799062894225598"><ele>8.0</ele><time>2026-04-18T16:43:34Z</time></trkpt><trkpt lat="42.0871684010821" lon="11.799167315965995"><ele>7.500000000000001</ele><time>2026-04-18T16:43:35Z</time></trkpt><trkpt lat="42.08711947815333" lon="11.79927312966329"><ele>7.0</ele><time>2026-04-18T16:43:36Z</time></trkpt><trkpt lat="42.087071896665556" lon="11.799365434491184"><ele>7.000000000000001</ele><time>2026-04-18T16:43:37Z</time></trkpt><trkpt lat="42.087027918287795" lon="11.799461140796478"><ele>7.0</ele><time>2026-04-18T16:43:38Z</time></trkpt><trkpt lat="42.08697878254136" lon="11.799560040914786"><ele>7.0</ele><time>2026-04-18T16:43:39Z</time></trkpt><trkpt lat="42.08693256675853" lon="11.799659118371483"><ele>7.0</ele><time>2026-04-18T16:43:40Z</time></trkpt><trkpt lat="42.08688629532578" lon="11.799753123663207"><ele>7.000000000000001</ele><time>2026-04-18T16:43:41Z</time></trkpt><trkpt lat="42.0868365071207" lon="11.799846575397636"><ele>7.0</ele><time>2026-04-18T16:43:42Z</time></trkpt><trkpt lat="42.086790890285" lon="11.799947361452205"><ele>7.000000000000001</ele><time>2026-04-18T16:43:43Z</time></trkpt><trkpt lat="42.086744362194075" lon="11.800043505638355"><ele>7.0</ele><time>2026-04-18T16:43:44Z</time></trkpt><trkpt lat="42.086695718106434" lon="11.8001411664316"><ele>7.0</ele><time>2026-04-18T16:43:45Z</time></trkpt><trkpt lat="42.086649178096756" lon="11.800244092434756"><ele>7.0</ele><time>2026-04-18T16:43:46Z</time></trkpt><trkpt lat="42.08660373124776" lon="11.800338054492974"><ele>7.000000000000001</ele><time>2026-04-18T16:43:47Z</time></trkpt><trkpt lat="42.086555054874154" lon="11.800426178935425"><ele>7.0</ele><time>2026-04-18T16:43:48Z</time></trkpt><trkpt lat="42.08651724619716" lon="11.800518412642285"><ele>7.0</ele><time>2026-04-18T16:43:49Z</time></trkpt><trkpt lat="42.08648358828779" lon="11.800599774782993"><ele>6.999999999999999</ele><time>2026-04-18T16:43:50Z</time></trkpt><trkpt lat="42.08641357235122" lon="11.800748474625662"><ele>6.999999999999999</ele><time>2026-04-18T16:43:52Z</time></trkpt><trkpt lat="42.08637057323593" lon="11.800838165729866"><ele>7.0</ele><time>2026-04-18T16:43:53Z</time></trkpt><trkpt lat="42.08632600622058" lon="11.800940753751712"><ele>7.0</ele><time>2026-04-18T16:43:54Z</time></trkpt><trkpt lat="42.08628266360082" lon="11.801037413626297"><ele>7.833333333333334</ele><time>2026-04-18T16:43:55Z</time></trkpt><trkpt lat="42.086245728657985" lon="11.801118985193195"><ele>8.666666666666668</ele><time>2026-04-18T16:43:56Z</time></trkpt><trkpt lat="42.08620631033548" lon="11.801199153904586"><ele>9.5</ele><time>2026-04-18T16:43:57Z</time></trkpt><trkpt lat="42.08616630991926" lon="11.801280497430122"><ele>10.333333333333334</ele><time>2026-04-18T16:43:58Z</time></trkpt><trkpt lat="42.086124080124755" lon="11.80136279044902"><ele>11.166666666666666</ele><time>2026-04-18T16:43:59Z</time></trkpt><trkpt lat="42.08607604269177" lon="11.801450551166733"><ele>12.0</ele><time>2026-04-18T16:44:00Z</time></trkpt><trkpt lat="42.08602135144482" lon="11.801542221277336"><ele>12.0</ele><time>2026-04-18T16:44:01Z</time></trkpt><trkpt lat="42.08595884299924" lon="11.801631301613103"><ele>12.0</ele><time>2026-04-18T16:44:02Z</time></trkpt><trkpt lat="42.08589576942998" lon="11.801722414995488"><ele>12.0</ele><time>2026-04-18T16:44:03Z</time></trkpt><trkpt lat="42.08584078649822" lon="11.801799247461739"><ele>12.0</ele><time>2026-04-18T16:44:04Z</time></trkpt><trkpt lat="42.085792026885635" lon="11.801861157474644"><ele>12.0</ele><time>2026-04-18T16:44:05Z</time></trkpt><trkpt lat="42.085739944779775" lon="11.801934572097379"><ele>12.0</ele><time>2026-04-18T16:44:06Z</time></trkpt><trkpt lat="42.08568907815136" lon="11.802006568121598"><ele>12.166666666666666</ele><time>2026-04-18T16:44:07Z</time></trkpt><trkpt lat="42.08563885484233" lon="11.80207493134915"><ele>12.333333333333332</ele><time>2026-04-18T16:44:08Z</time></trkpt><trkpt lat="42.08558630990725" lon="11.802142531895731"><ele>12.5</ele><time>2026-04-18T16:44:09Z</time></trkpt><trkpt lat="42.08553424836389" lon="11.802208747593925"><ele>12.666666666666666</ele><time>2026-04-18T16:44:10Z</time></trkpt><trkpt lat="42.0854652728388" lon="11.802327270380808"><ele>12.833333333333332</ele><time>2026-04-18T16:44:12Z</time></trkpt><trkpt lat="42.085408505444946" lon="11.802387961123173"><ele>13.0</ele><time>2026-04-18T16:44:13Z</time></trkpt><trkpt lat="42.08534806397899" lon="11.802469311749002"><ele>13.0</ele><time>2026-04-18T16:44:14Z</time></trkpt><trkpt lat="42.085293745081444" lon="11.802537742457616"><ele>13.0</ele><time>2026-04-18T16:44:15Z</time></trkpt><trkpt lat="42.085245436439706" lon="11.802602942831752"><ele>13.0</ele><time>2026-04-18T16:44:16Z</time></trkpt><trkpt lat="42.085197515559074" lon="11.802662007712078"><ele>13.0</ele><time>2026-04-18T16:44:17Z</time></trkpt><trkpt lat="42.08515355211251" lon="11.802725640054513"><ele>13.0</ele><time>2026-04-18T16:44:18Z</time></trkpt><trkpt lat="42.0851063630821" lon="11.802795433063656"><ele>13.0</ele><time>2026-04-18T16:44:19Z</time></trkpt><trkpt lat="42.08505873175482" lon="11.802869180817774"><ele>13.0</ele><time>2026-04-18T16:44:20Z</time></trkpt><trkpt lat="42.08500525706076" lon="11.802935530040129"><ele>12.999999999999998</ele><time>2026-04-18T16:44:21Z</time></trkpt><trkpt lat="42.08496054822567" lon="11.802996228807455"><ele>13.0</ele><time>2026-04-18T16:44:22Z</time></trkpt><trkpt lat="42.08487694192245" lon="11.80311037135196"><ele>13.0</ele><time>2026-04-18T16:44:24Z</time></trkpt><trkpt lat="42.08480602267838" lon="11.803201674099679"><ele>13.0</ele><time>2026-04-18T16:44:26Z</time></trkpt><trkpt lat="42.08475165088938" lon="11.803275080357556"><ele>12.999999999999998</ele><time>2026-04-18T16:44:28Z</time></trkpt><trkpt lat="42.084696200685514" lon="11.803340371531583"><ele>13.0</ele><time>2026-04-18T16:44:30Z</time></trkpt><trkpt lat="42.08461352518493" lon="11.803305404065467"><ele>13.0</ele><time>2026-04-18T16:44:32Z</time></trkpt><trkpt lat="42.08452833897899" lon="11.803199047560044"><ele>13.0</ele><time>2026-04-18T16:44:34Z</time></trkpt><trkpt lat="42.084438747575334" lon="11.803075753058575"><ele>13.0</ele><time>2026-04-18T16:44:36Z</time></trkpt><trkpt lat="42.084395519900276" lon="11.803013451802224"><ele>13.0</ele><time>2026-04-18T16:44:37Z</time></trkpt><trkpt lat="42.08433676195279" lon="11.802906811963181"><ele>13.0</ele><time>2026-04-18T16:44:39Z</time></trkpt><trkpt lat="42.084219252640374" lon="11.802931573723622"><ele>13.0</ele><time>2026-04-18T16:44:41Z</time></trkpt><trkpt lat="42.084153817813075" lon="11.803004537621467"><ele>13.0</ele><time>2026-04-18T16:44:42Z</time></trkpt><trkpt lat="42.084099194365564" lon="11.803065637502257"><ele>13.0</ele><time>2026-04-18T16:44:43Z</time></trkpt><trkpt lat="42.0839910049759" lon="11.80316482609414"><ele>13.0</ele><time>2026-04-18T16:44:45Z</time></trkpt><trkpt lat="42.08387836100628" lon="11.803254661466461"><ele>13.0</ele><time>2026-04-18T16:44:47Z</time></trkpt><trkpt lat="42.0838119615484" lon="11.803302856552927"><ele>13.2</ele><time>2026-04-18T16:44:48Z</time></trkpt><trkpt lat="42.08374613838946" lon="11.803351468075938"><ele>13.4</ele><time>2026-04-18T16:44:49Z</time></trkpt><trkpt lat="42.08367524330298" lon="11.803403344727162"><ele>13.599999999999998</ele><time>2026-04-18T16:44:50Z</time></trkpt><trkpt lat="42.08359828851941" lon="11.803463296892776"><ele>13.799999999999999</ele><time>2026-04-18T16:44:51Z</time></trkpt><trkpt lat="42.08351308085042" lon="11.803533504874204"><ele>14.0</ele><time>2026-04-18T16:44:52Z</time></trkpt><trkpt lat="42.08342390811652" lon="11.803611718771043"><ele>14.0</ele><time>2026-04-18T16:44:53Z</time></trkpt><trkpt lat="42.08330507298111" lon="11.803679024539647"><ele>14.0</ele><time>2026-04-18T16:44:54Z</time></trkpt><trkpt lat="42.08319362840685" lon="11.803763132713959"><ele>14.0</ele><time>2026-04-18T16:44:55Z</time></trkpt><trkpt lat="42.08307847395035" lon="11.803850040769259"><ele>14.0</ele><time>2026-04-18T16:44:56Z</time></trkpt><trkpt lat="42.08321116382558" lon="11.803760722628795"><ele>13.666666666666668</ele><time>2026-04-18T16:44:57Z</time></trkpt><trkpt lat="42.08314333427958" lon="11.80381038179541"><ele>13.333333333333334</ele><time>2026-04-18T16:44:58Z</time></trkpt><trkpt lat="42.083072635406886" lon="11.80386138456449"><ele>13.0</ele><time>2026-04-18T16:44:59Z</time></trkpt><trkpt lat="42.08300492693539" lon="11.803912640080267"><ele>12.666666666666668</ele><time>2026-04-18T16:45:00Z</time></trkpt><trkpt lat="42.08292402133829" lon="11.803962163552296"><ele>12.333333333333334</ele><time>2026-04-18T16:45:01Z</time></trkpt><trkpt lat="42.08284621343381" lon="11.804007926461091"><ele>12.0</ele><time>2026-04-18T16:45:02Z</time></trkpt><trkpt lat="42.082780710265176" lon="11.804073639740846"><ele>12.0</ele><time>2026-04-18T16:45:03Z</time></trkpt><trkpt lat="42.08271272481955" lon="11.804126721878875"><ele>12.0</ele><time>2026-04-18T16:45:04Z</time></trkpt><trkpt lat="42.08264566556398" lon="11.804179318174029"><ele>12.0</ele><time>2026-04-18T16:45:05Z</time></trkpt><trkpt lat="42.082575941340394" lon="11.804222873904695"><ele>12.0</ele><time>2026-04-18T16:45:06Z</time></trkpt><trkpt lat="42.08251166524877" lon="11.804278761244"><ele>12.0</ele><time>2026-04-18T16:45:07Z</time></trkpt><trkpt lat="42.082444159961064" lon="11.80433185038612"><ele>12.0</ele><time>2026-04-18T16:45:08Z</time></trkpt><trkpt lat="42.08237556535643" lon="11.804386562936232"><ele>11.428571428571427</ele><time>2026-04-18T16:45:09Z</time></trkpt><trkpt lat="42.082310530758186" lon="11.804435618286828"><ele>10.857142857142858</ele><time>2026-04-18T16:45:10Z</time></trkpt><trkpt lat="42.0822528180187" lon="11.804480008362207"><ele>10.285714285714285</ele><time>2026-04-18T16:45:11Z</time></trkpt><trkpt lat="42.08218840437985" lon="11.804489192162006"><ele>9.714285714285714</ele><time>2026-04-18T16:45:12Z</time></trkpt><trkpt lat="42.08212856287653" lon="11.804535024520852"><ele>9.142857142857142</ele><time>2026-04-18T16:45:13Z</time></trkpt><trkpt lat="42.08206614081885" lon="11.80458395238027"><ele>8.571428571428571</ele><time>2026-04-18T16:45:14Z</time></trkpt><trkpt lat="42.08199925612614" lon="11.804637573310401"><ele>8.0</ele><time>2026-04-18T16:45:15Z</time></trkpt><trkpt lat="42.08194401238025" lon="11.80468186179075"><ele>7.999999999999999</ele><time>2026-04-18T16:45:16Z</time></trkpt><trkpt lat="42.08185234503745" lon="11.804769751375494"><ele>8.0</ele><time>2026-04-18T16:45:18Z</time></trkpt><trkpt lat="42.081770406048285" lon="11.804826527477623"><ele>8.0</ele><time>2026-04-18T16:45:20Z</time></trkpt><trkpt lat="42.08171416562795" lon="11.804876583442201"><ele>8.0</ele><time>2026-04-18T16:45:23Z</time></trkpt><trkpt lat="42.0816454119007" lon="11.804902401601328"><ele>7.999999999999999</ele><time>2026-04-18T16:45:56Z</time></trkpt><trkpt lat="42.08156901127055" lon="11.804955974022665"><ele>8.0</ele><time>2026-04-18T16:45:59Z</time></trkpt><trkpt lat="42.081497640213996" lon="11.805006019692202"><ele>7.999999999999999</ele><time>2026-04-18T16:46:02Z</time></trkpt><trkpt lat="42.08143686159827" lon="11.80504863790666"><ele>8.0</ele><time>2026-04-18T16:46:06Z</time></trkpt><trkpt lat="42.0815002236069" lon="11.805182788060211"><ele>8.0</ele><time>2026-04-18T16:47:42Z</time></trkpt><trkpt lat="42.08155779767178" lon="11.805119668927242"><ele>8.0</ele><time>2026-04-18T16:48:34Z</time></trkpt><trkpt lat="42.08161315898676" lon="11.805078116010021"><ele>7.999999999999999</ele><time>2026-04-18T16:48:41Z</time></trkpt><trkpt lat="42.08168092951421" lon="11.805078856434235"><ele>8.0</ele><time>2026-04-18T16:48:52Z</time></trkpt><trkpt lat="42.08161499471845" lon="11.805119436527558"><ele>8.0</ele><time>2026-04-18T17:25:20Z</time></trkpt><trkpt lat="42.08161754199634" lon="11.80521306994513"><ele>8.0</ele><time>2026-04-18T17:25:26Z</time></trkpt><trkpt lat="42.08164588954994" lon="11.805317137077646"><ele>8.0</ele><time>2026-04-18T17:25:30Z</time></trkpt><trkpt lat="42.08163768949131" lon="11.80522401896522"><ele>8.0</ele><time>2026-04-18T17:26:08Z</time></trkpt><trkpt lat="42.08163916137285" lon="11.805132441233662"><ele>8.0</ele><time>2026-04-18T17:26:12Z</time></trkpt><trkpt lat="42.081818492727145" lon="11.805057454899137"><ele>7.999999999999999</ele><time>2026-04-18T17:26:14Z</time></trkpt><trkpt lat="42.08171753460021" lon="11.80507346965752"><ele>8.0</ele><time>2026-04-18T17:26:15Z</time></trkpt><trkpt lat="42.08169077825619" lon="11.80515829132071"><ele>8.0</ele><time>2026-04-18T17:26:19Z</time></trkpt><trkpt lat="42.08162220114095" lon="11.80517558715693"><ele>8.0</ele><time>2026-04-18T17:26:21Z</time></trkpt><trkpt lat="42.08155784138794" lon="11.805174607271542"><ele>7.999999999999999</ele><time>2026-04-18T17:39:12.016Z</time></trkpt><trkpt lat="42.08151156016342" lon="11.805236046551384"><ele>8.0</ele><time>2026-04-18T17:39:19.012Z</time></trkpt><trkpt lat="42.08145533329354" lon="11.80531911790117"><ele>8.0</ele><time>2026-04-18T17:39:28.65Z</time></trkpt><trkpt lat="42.08157849626018" lon="11.805187947051982"><ele>8.0</ele><time>2026-04-18T17:40:03Z</time></trkpt><trkpt lat="42.081652731000865" lon="11.805158983493088"><ele>8.0</ele><time>2026-04-18T17:41:29Z</time></trkpt><trkpt lat="42.08158475648512" lon="11.805155880868861"><ele>8.0</ele><time>2026-04-18T17:41:40Z</time></trkpt><trkpt lat="42.081553390530985" lon="11.80523006463614"><ele>8.0</ele><time>2026-04-18T17:42:44Z</time></trkpt><trkpt lat="42.081632400088886" lon="11.80514775765653"><ele>7.999999999999999</ele><time>2026-04-18T17:43:14Z</time></trkpt><trkpt lat="42.081765908821524" lon="11.805048718314243"><ele>8.0</ele><time>2026-04-18T17:45:10Z</time></trkpt><trkpt lat="42.08170441797786" lon="11.805073832871564"><ele>8.0</ele><time>2026-04-18T17:45:17Z</time></trkpt><trkpt lat="42.08164372700373" lon="11.80503880326499"><ele>8.0</ele><time>2026-04-18T17:45:32Z</time></trkpt><trkpt lat="42.08158976531832" lon="11.805102206921193"><ele>7.999999999999999</ele><time>2026-04-18T17:45:41Z</time></trkpt><trkpt lat="42.08153821982632" lon="11.805170730494819"><ele>8.0</ele><time>2026-04-18T17:46:09Z</time></trkpt><trkpt lat="42.08158270261779" lon="11.805102385767766"><ele>8.0</ele><time>2026-04-18T17:47:42Z</time></trkpt><trkpt lat="42.08164088535029" lon="11.805059541734046"><ele>7.999999999999999</ele><time>2026-04-18T17:47:48Z</time></trkpt><trkpt lat="42.08171720475426" lon="11.805088763303726"><ele>8.0</ele><time>2026-04-18T17:47:54Z</time></trkpt><trkpt lat="42.08166139150715" lon="11.805016664482164"><ele>8.0</ele><time>2026-04-18T17:49:01Z</time></trkpt><trkpt lat="42.08159673822141" lon="11.805053996131658"><ele>7.999999999999999</ele><time>2026-04-18T17:49:07Z</time></trkpt><trkpt lat="42.081582167230955" lon="11.805144704200636"><ele>8.0</ele><time>2026-04-18T17:49:18Z</time></trkpt><trkpt lat="42.08151704809432" lon="11.805187503870002"><ele>8.0</ele><time>2026-04-18T17:50:01Z</time></trkpt><trkpt lat="42.08153270739238" lon="11.805085475065423"><ele>7.999999999999999</ele><time>2026-04-18T17:50:04Z</time></trkpt><trkpt lat="42.08161347940991" lon="11.805027388318845"><ele>8.0</ele><time>2026-04-18T17:50:06Z</time></trkpt><trkpt lat="42.08166100208299" lon="11.804969166616559"><ele>8.0</ele><time>2026-04-18T17:50:20Z</time></trkpt><trkpt lat="42.08170596909074" lon="11.804908441202551"><ele>8.0</ele><time>2026-04-18T17:50:46Z</time></trkpt><trkpt lat="42.081762843086025" lon="11.804863155052692"><ele>7.999999999999999</ele><time>2026-04-18T17:50:48Z</time></trkpt><trkpt lat="42.081841869334085" lon="11.8048079288987"><ele>8.0</ele><time>2026-04-18T17:50:50Z</time></trkpt><trkpt lat="42.0819282959443" lon="11.804741232632084"><ele>7.999999999999999</ele><time>2026-04-18T17:50:52Z</time></trkpt><trkpt lat="42.08202616455622" lon="11.804663039100166"><ele>8.0</ele><time>2026-04-18T17:50:54Z</time></trkpt><trkpt lat="42.082084567062076" lon="11.80461742255385"><ele>8.0</ele><time>2026-04-18T17:50:55Z</time></trkpt><trkpt lat="42.08217066582825" lon="11.80453889223309"><ele>8.0</ele><time>2026-04-18T17:50:57Z</time></trkpt><trkpt lat="42.08223544681802" lon="11.804490248379098"><ele>7.999999999999999</ele><time>2026-04-18T17:50:59Z</time></trkpt><trkpt lat="42.0823019802798" lon="11.804482357079573"><ele>8.0</ele><time>2026-04-18T17:51:01Z</time></trkpt><trkpt lat="42.08236850262695" lon="11.804616506451847"><ele>7.999999999999999</ele><time>2026-04-18T17:51:03Z</time></trkpt><trkpt lat="42.08240307705556" lon="11.804733500749247"><ele>8.0</ele><time>2026-04-18T17:51:04Z</time></trkpt><trkpt lat="42.082432701119494" lon="11.80482937536346"><ele>8.0</ele><time>2026-04-18T17:51:05Z</time></trkpt><trkpt lat="42.08248296146282" lon="11.80492658821113"><ele>8.0</ele><time>2026-04-18T17:51:07Z</time></trkpt><trkpt lat="42.082574733171214" lon="11.80490498557776"><ele>7.999999999999999</ele><time>2026-04-18T17:51:09Z</time></trkpt><trkpt lat="42.082642501206344" lon="11.804833979027507"><ele>8.0</ele><time>2026-04-18T17:51:10Z</time></trkpt><trkpt lat="42.08269964457858" lon="11.804783567895244"><ele>8.600000000000001</ele><time>2026-04-18T17:51:11Z</time></trkpt><trkpt lat="42.082787733144656" lon="11.804709174413702"><ele>9.200000000000001</ele><time>2026-04-18T17:51:13Z</time></trkpt><trkpt lat="42.082899335066166" lon="11.804616656729582"><ele>9.8</ele><time>2026-04-18T17:51:15Z</time></trkpt><trkpt lat="42.08295943544305" lon="11.804571697945997"><ele>10.4</ele><time>2026-04-18T17:51:16Z</time></trkpt><trkpt lat="42.0830476118918" lon="11.80450961347147"><ele>11.0</ele><time>2026-04-18T17:51:18Z</time></trkpt><trkpt lat="42.08312788420952" lon="11.804430485782818"><ele>11.0</ele><time>2026-04-18T17:51:20Z</time></trkpt><trkpt lat="42.08321609831357" lon="11.80440420227199"><ele>11.0</ele><time>2026-04-18T17:51:22Z</time></trkpt><trkpt lat="42.08325735848939" lon="11.804542917930819"><ele>11.0</ele><time>2026-04-18T17:51:24Z</time></trkpt><trkpt lat="42.08329765524747" lon="11.80463454456357"><ele>11.0</ele><time>2026-04-18T17:51:26Z</time></trkpt><trkpt lat="42.08340207868972" lon="11.80456064376247"><ele>11.0</ele><time>2026-04-18T17:51:27Z</time></trkpt><trkpt lat="42.08347499810854" lon="11.804494232091086"><ele>11.200000000000001</ele><time>2026-04-18T17:51:28Z</time></trkpt><trkpt lat="42.083558113633465" lon="11.804409727337134"><ele>11.4</ele><time>2026-04-18T17:51:30Z</time></trkpt><trkpt lat="42.083639702076844" lon="11.80433864604956"><ele>11.6</ele><time>2026-04-18T17:51:32Z</time></trkpt><trkpt lat="42.08371035538852" lon="11.804259200601859"><ele>11.8</ele><time>2026-04-18T17:51:34Z</time></trkpt><trkpt lat="42.08379288189513" lon="11.804271329152034"><ele>12.0</ele><time>2026-04-18T17:51:36Z</time></trkpt><trkpt lat="42.08383667993499" lon="11.804368302506436"><ele>12.0</ele><time>2026-04-18T17:51:38Z</time></trkpt><trkpt lat="42.08387353711264" lon="11.804446943945711"><ele>12.0</ele><time>2026-04-18T17:51:42Z</time></trkpt><trkpt lat="42.08393982189105" lon="11.804474283588828"><ele>12.0</ele><time>2026-04-18T17:51:55Z</time></trkpt><trkpt lat="42.08403526722206" lon="11.804368402462046"><ele>12.0</ele><time>2026-04-18T17:51:57Z</time></trkpt><trkpt lat="42.0840788535581" lon="11.804294004208534"><ele>12.0</ele><time>2026-04-18T17:51:58Z</time></trkpt><trkpt lat="42.08416755048737" lon="11.804175001119713"><ele>12.333333333333334</ele><time>2026-04-18T17:52:00Z</time></trkpt><trkpt lat="42.084217736620325" lon="11.804094390962273"><ele>12.666666666666668</ele><time>2026-04-18T17:52:01Z</time></trkpt><trkpt lat="42.084269387370426" lon="11.804014869753198"><ele>13.0</ele><time>2026-04-18T17:52:02Z</time></trkpt><trkpt lat="42.084326428028454" lon="11.803936833600662"><ele>13.333333333333334</ele><time>2026-04-18T17:52:03Z</time></trkpt><trkpt lat="42.084381483315326" lon="11.803861201472007"><ele>13.666666666666668</ele><time>2026-04-18T17:52:04Z</time></trkpt><trkpt lat="42.084433760847844" lon="11.80378705375917"><ele>14.0</ele><time>2026-04-18T17:52:05Z</time></trkpt><trkpt lat="42.084484057496624" lon="11.803721294697059"><ele>14.000000000000002</ele><time>2026-04-18T17:52:06Z</time></trkpt><trkpt lat="42.08453812659326" lon="11.803648551164294"><ele>14.0</ele><time>2026-04-18T17:52:07Z</time></trkpt><trkpt lat="42.08458788970076" lon="11.803584750349463"><ele>14.0</ele><time>2026-04-18T17:52:08Z</time></trkpt><trkpt lat="42.08467581494737" lon="11.803461629914624"><ele>14.0</ele><time>2026-04-18T17:52:10Z</time></trkpt><trkpt lat="42.084726481856165" lon="11.803393773853804"><ele>14.000000000000002</ele><time>2026-04-18T17:52:11Z</time></trkpt><trkpt lat="42.08477696523694" lon="11.803327416684464"><ele>14.0</ele><time>2026-04-18T17:52:12Z</time></trkpt><trkpt lat="42.08486086523737" lon="11.803224175953451"><ele>13.6</ele><time>2026-04-18T17:52:14Z</time></trkpt><trkpt lat="42.084948506000444" lon="11.803106055683811"><ele>13.2</ele><time>2026-04-18T17:52:16Z</time></trkpt><trkpt lat="42.084988637631156" lon="11.803033714436154"><ele>12.799999999999999</ele><time>2026-04-18T17:52:17Z</time></trkpt><trkpt lat="42.08506852074264" lon="11.802930285033987"><ele>12.399999999999999</ele><time>2026-04-18T17:52:19Z</time></trkpt><trkpt lat="42.08514851221665" lon="11.802816067071843"><ele>12.0</ele><time>2026-04-18T17:52:21Z</time></trkpt><trkpt lat="42.08519428631503" lon="11.802754013144147"><ele>12.0</ele><time>2026-04-18T17:52:22Z</time></trkpt><trkpt lat="42.08524165448939" lon="11.802665303540072"><ele>12.0</ele><time>2026-04-18T17:52:24Z</time></trkpt><trkpt lat="42.08530140453373" lon="11.802607786155946"><ele>12.0</ele><time>2026-04-18T17:52:29Z</time></trkpt><trkpt lat="42.085371621223196" lon="11.802508291980832"><ele>12.0</ele><time>2026-04-18T17:52:32Z</time></trkpt><trkpt lat="42.08542884666831" lon="11.802427033449325"><ele>12.0</ele><time>2026-04-18T17:52:34Z</time></trkpt><trkpt lat="42.08549961838186" lon="11.802338610763329"><ele>12.0</ele><time>2026-04-18T17:52:36Z</time></trkpt><trkpt lat="42.08559662585126" lon="11.80221411154902"><ele>12.0</ele><time>2026-04-18T17:52:38Z</time></trkpt><trkpt lat="42.085654052082546" lon="11.80213820694537"><ele>12.0</ele><time>2026-04-18T17:52:39Z</time></trkpt><trkpt lat="42.08570132383901" lon="11.80207517544946"><ele>12.0</ele><time>2026-04-18T17:52:40Z</time></trkpt><trkpt lat="42.085748492650545" lon="11.80200031113573"><ele>12.0</ele><time>2026-04-18T17:52:41Z</time></trkpt><trkpt lat="42.08580449100625" lon="11.801927726429135"><ele>12.0</ele><time>2026-04-18T17:52:42Z</time></trkpt><trkpt lat="42.08586039970719" lon="11.801851550793948"><ele>12.0</ele><time>2026-04-18T17:52:43Z</time></trkpt><trkpt lat="42.085945678452056" lon="11.801730237550244"><ele>12.0</ele><time>2026-04-18T17:52:45Z</time></trkpt><trkpt lat="42.08600058967526" lon="11.801657306648769"><ele>12.0</ele><time>2026-04-18T17:52:46Z</time></trkpt><trkpt lat="42.086079980964634" lon="11.801539421455297"><ele>12.0</ele><time>2026-04-18T17:52:48Z</time></trkpt><trkpt lat="42.08611839531789" lon="11.801470021794207"><ele>12.0</ele><time>2026-04-18T17:52:49Z</time></trkpt><trkpt lat="42.086154898884665" lon="11.801396269440229"><ele>12.0</ele><time>2026-04-18T17:52:50Z</time></trkpt><trkpt lat="42.086220518095985" lon="11.80124601969399"><ele>11.999999999999998</ele><time>2026-04-18T17:52:52Z</time></trkpt><trkpt lat="42.086257765083715" lon="11.801172883101138"><ele>12.0</ele><time>2026-04-18T17:52:53Z</time></trkpt><trkpt lat="42.08629426610899" lon="11.801084491283028"><ele>12.0</ele><time>2026-04-18T17:52:54Z</time></trkpt><trkpt lat="42.086332904009616" lon="11.800995732714036"><ele>12.0</ele><time>2026-04-18T17:52:55Z</time></trkpt><trkpt lat="42.08637086753307" lon="11.800920318989947"><ele>12.0</ele><time>2026-04-18T17:52:56Z</time></trkpt><trkpt lat="42.08640671123512" lon="11.800848316099431"><ele>11.999999999999998</ele><time>2026-04-18T17:52:57Z</time></trkpt><trkpt lat="42.08644357197033" lon="11.800770694793293"><ele>12.0</ele><time>2026-04-18T17:52:58Z</time></trkpt><trkpt lat="42.08648010953612" lon="11.80069397194715"><ele>11.166666666666666</ele><time>2026-04-18T17:52:59Z</time></trkpt><trkpt lat="42.08651689630661" lon="11.800618774257128"><ele>10.333333333333334</ele><time>2026-04-18T17:53:00Z</time></trkpt><trkpt lat="42.08655286640465" lon="11.800538870339512"><ele>9.5</ele><time>2026-04-18T17:53:01Z</time></trkpt><trkpt lat="42.086591470699574" lon="11.800454922860162"><ele>8.666666666666668</ele><time>2026-04-18T17:53:02Z</time></trkpt><trkpt lat="42.08663194244663" lon="11.800365795035331"><ele>7.833333333333334</ele><time>2026-04-18T17:53:03Z</time></trkpt><trkpt lat="42.086679421838106" lon="11.800266507956426"><ele>7.0</ele><time>2026-04-18T17:53:04Z</time></trkpt><trkpt lat="42.086736643005864" lon="11.800169022549591"><ele>7.000000000000001</ele><time>2026-04-18T17:53:05Z</time></trkpt><trkpt lat="42.08678531647076" lon="11.800084770366825"><ele>7.0</ele><time>2026-04-18T17:53:06Z</time></trkpt><trkpt lat="42.08683083700858" lon="11.79998811827247"><ele>7.0</ele><time>2026-04-18T17:53:07Z</time></trkpt><trkpt lat="42.08687300706959" lon="11.799893795383312"><ele>7.0</ele><time>2026-04-18T17:53:08Z</time></trkpt><trkpt lat="42.086940477094295" lon="11.799739161699902"><ele>7.000000000000001</ele><time>2026-04-18T17:53:10Z</time></trkpt><trkpt lat="42.08697435832792" lon="11.799661091789494"><ele>7.0</ele><time>2026-04-18T17:53:11Z</time></trkpt><trkpt lat="42.0870307803493" lon="11.799549512450682"><ele>7.000000000000001</ele><time>2026-04-18T17:53:13Z</time></trkpt><trkpt lat="42.08707899700189" lon="11.799439677079139"><ele>7.0</ele><time>2026-04-18T17:53:15Z</time></trkpt><trkpt lat="42.087097239586804" lon="11.799332991782384"><ele>7.0</ele><time>2026-04-18T17:53:17Z</time></trkpt><trkpt lat="42.08705087898445" lon="11.799255796603171"><ele>7.0</ele><time>2026-04-18T17:53:21Z</time></trkpt><trkpt lat="42.08698530914486" lon="11.799196921965484"><ele>7.000000000000001</ele><time>2026-04-18T17:53:26Z</time></trkpt><trkpt lat="42.086909367784585" lon="11.799155115624348"><ele>7.0</ele><time>2026-04-18T17:53:31Z</time></trkpt><trkpt lat="42.08697039747571" lon="11.799185419141748"><ele>6.714285714285714</ele><time>2026-04-18T17:54:37Z</time></trkpt><trkpt lat="42.08690487670143" lon="11.799140608565235"><ele>6.428571428571429</ele><time>2026-04-18T17:54:54Z</time></trkpt><trkpt lat="42.08687728200573" lon="11.799063733834052"><ele>6.142857142857142</ele><time>2026-04-18T17:55:03Z</time></trkpt><trkpt lat="42.08690700477743" lon="11.798979900302662"><ele>5.857142857142858</ele><time>2026-04-18T17:55:11Z</time></trkpt><trkpt lat="42.08692699204184" lon="11.798892646941109"><ele>5.571428571428571</ele><time>2026-04-18T17:55:18Z</time></trkpt><trkpt lat="42.08696060634222" lon="11.798798643902348"><ele>5.285714285714286</ele><time>2026-04-18T17:55:32Z</time></trkpt><trkpt lat="42.08690749191004" lon="11.798845191951694"><ele>5.0</ele><time>2026-04-18T18:42:54Z</time></trkpt><trkpt lat="42.08692164914292" lon="11.79892996855152"><ele>5.0</ele><time>2026-04-18T18:42:59Z</time></trkpt><trkpt lat="42.086899899280915" lon="11.799016286901729"><ele>5.0</ele><time>2026-04-18T18:43:06Z</time></trkpt><trkpt lat="42.086931147495974" lon="11.799093484647525"><ele>5.0</ele><time>2026-04-18T19:21:24Z</time></trkpt><trkpt lat="42.08688177848303" lon="11.799028370240599"><ele>5.0</ele><time>2026-04-18T19:22:52Z</time></trkpt></trkseg></trk></gpx>